<?xml version='1.0' encoding='UTF-8'?><gpx version="1.1" creator="JPX - https://github.com/jenetics/jpx" xmlns="http://www.topografix.com/GPX/1/1"><trk><trkseg><trkpt lat="50.0353189" lon="1.9770903"><ele>6.0</ele><time>2026-04-02T11:27:42.53Z</time></trkpt><trkpt lat="50.035404" lon="1.9770239"><ele>6.0</ele><time>2026-04-02T11:27:45.531Z</time></trkpt><trkpt lat="50.0354525" lon="1.9769316"><ele>6.0</ele><time>2026-04-02T11:27:47.531Z</time></trkpt><trkpt lat="50.0354952" lon="1.9768545"><ele>6.0</ele><time>2026-04-02T11:27:49.53Z</time></trkpt><trkpt lat="50.0355412" lon="1.9767768"><ele>6.0</ele><time>2026-04-02T11:27:58.531Z</time></trkpt><trkpt lat="50.0356194" lon="1.976648"><ele>6.0</ele><time>2026-04-02T11:28:00.532Z</time></trkpt><trkpt lat="50.0356731" lon="1.9765636"><ele>6.0</ele><time>2026-04-02T11:28:01.532Z</time></trkpt><trkpt lat="50.0357388" lon="1.9764658"><ele>6.0</ele><time>2026-04-02T11:28:02.532Z</time></trkpt><trkpt lat="50.0358141" lon="1.9763614"><ele>6.0</ele><time>2026-04-02T11:28:03.531Z</time></trkpt><trkpt lat="50.0358921" lon="1.9762531"><ele>6.0</ele><time>2026-04-02T11:28:04.532Z</time></trkpt><trkpt lat="50.0359691" lon="1.9761398"><ele>6.0</ele><time>2026-04-02T11:28:05.531Z</time></trkpt><trkpt lat="50.0360469" lon="1.9760312"><ele>6.0</ele><time>2026-04-02T11:28:06.531Z</time></trkpt><trkpt lat="50.0361324" lon="1.9759096"><ele>6.0</ele><time>2026-04-02T11:28:07.531Z</time></trkpt><trkpt lat="50.0362208" lon="1.9757813"><ele>6.0</ele><time>2026-04-02T11:28:08.532Z</time></trkpt><trkpt lat="50.0363125" lon="1.9756465"><ele>6.0</ele><time>2026-04-02T11:28:09.531Z</time></trkpt><trkpt lat="50.0364018" lon="1.9755081"><ele>6.25</ele><time>2026-04-02T11:28:10.532Z</time></trkpt><trkpt lat="50.0364904" lon="1.9753695"><ele>6.5</ele><time>2026-04-02T11:28:11.531Z</time></trkpt><trkpt lat="50.0365797" lon="1.9752348"><ele>6.75</ele><time>2026-04-02T11:28:12.532Z</time></trkpt><trkpt lat="50.0366672" lon="1.9750956"><ele>7.0</ele><time>2026-04-02T11:28:13.531Z</time></trkpt><trkpt lat="50.0367549" lon="1.9749612"><ele>8.0</ele><time>2026-04-02T11:28:14.531Z</time></trkpt><trkpt lat="50.0368422" lon="1.9748265"><ele>9.0</ele><time>2026-04-02T11:28:15.531Z</time></trkpt><trkpt lat="50.0369319" lon="1.9746955"><ele>10.0</ele><time>2026-04-02T11:28:16.532Z</time></trkpt><trkpt lat="50.0370279" lon="1.9745705"><ele>11.0</ele><time>2026-04-02T11:28:17.531Z</time></trkpt><trkpt lat="50.0371178" lon="1.9744489"><ele>11.0</ele><time>2026-04-02T11:28:18.531Z</time></trkpt><trkpt lat="50.0372084" lon="1.9743345"><ele>11.0</ele><time>2026-04-02T11:28:19.531Z</time></trkpt><trkpt lat="50.0372969" lon="1.9742199"><ele>11.0</ele><time>2026-04-02T11:28:20.531Z</time></trkpt><trkpt lat="50.0373826" lon="1.9741104"><ele>11.0</ele><time>2026-04-02T11:28:21.532Z</time></trkpt><trkpt lat="50.0374651" lon="1.9739998"><ele>11.0</ele><time>2026-04-02T11:28:22.531Z</time></trkpt><trkpt lat="50.0375422" lon="1.9738934"><ele>11.0</ele><time>2026-04-02T11:28:23.531Z</time></trkpt><trkpt lat="50.0376079" lon="1.9738048"><ele>11.0</ele><time>2026-04-02T11:28:24.531Z</time></trkpt><trkpt lat="50.0376645" lon="1.9737249"><ele>11.0</ele><time>2026-04-02T11:28:25.531Z</time></trkpt><trkpt lat="50.0377476" lon="1.9736053"><ele>11.0</ele><time>2026-04-02T11:28:27.531Z</time></trkpt><trkpt lat="50.0378083" lon="1.9735106"><ele>11.0</ele><time>2026-04-02T11:28:29.531Z</time></trkpt><trkpt lat="50.0378524" lon="1.9734375"><ele>11.0</ele><time>2026-04-02T11:28:30.532Z</time></trkpt><trkpt lat="50.037915" lon="1.9733435"><ele>11.0</ele><time>2026-04-02T11:28:31.53Z</time></trkpt><trkpt lat="50.0379904" lon="1.97324"><ele>11.0</ele><time>2026-04-02T11:28:32.532Z</time></trkpt><trkpt lat="50.0380675" lon="1.9731167"><ele>11.0</ele><time>2026-04-02T11:28:33.531Z</time></trkpt><trkpt lat="50.0381365" lon="1.9729951"><ele>10.833333333333332</ele><time>2026-04-02T11:28:34.531Z</time></trkpt><trkpt lat="50.0382016" lon="1.972887"><ele>10.666666666666666</ele><time>2026-04-02T11:28:35.531Z</time></trkpt><trkpt lat="50.0382593" lon="1.9727973"><ele>10.5</ele><time>2026-04-02T11:28:36.531Z</time></trkpt><trkpt lat="50.0383078" lon="1.9727239"><ele>10.333333333333334</ele><time>2026-04-02T11:28:37.531Z</time></trkpt><trkpt lat="50.0383791" lon="1.9725859"><ele>10.166666666666668</ele><time>2026-04-02T11:28:39.531Z</time></trkpt><trkpt lat="50.0384018" lon="1.9724913"><ele>10.0</ele><time>2026-04-02T11:28:40.531Z</time></trkpt><trkpt lat="50.0384082" lon="1.972388"><ele>10.0</ele><time>2026-04-02T11:28:41.53Z</time></trkpt><trkpt lat="50.038414" lon="1.9722845"><ele>10.0</ele><time>2026-04-02T11:28:42.532Z</time></trkpt><trkpt lat="50.0384186" lon="1.9721704"><ele>10.0</ele><time>2026-04-02T11:28:43.531Z</time></trkpt><trkpt lat="50.03842" lon="1.9720555"><ele>10.0</ele><time>2026-04-02T11:28:44.53Z</time></trkpt><trkpt lat="50.0384231" lon="1.9719372"><ele>10.0</ele><time>2026-04-02T11:28:45.531Z</time></trkpt><trkpt lat="50.0384377" lon="1.9718183"><ele>10.0</ele><time>2026-04-02T11:28:46.531Z</time></trkpt><trkpt lat="50.038446" lon="1.9716964"><ele>10.0</ele><time>2026-04-02T11:28:47.531Z</time></trkpt><trkpt lat="50.0384577" lon="1.9715747"><ele>9.833333333333334</ele><time>2026-04-02T11:28:48.531Z</time></trkpt><trkpt lat="50.0384736" lon="1.9714534"><ele>9.666666666666668</ele><time>2026-04-02T11:28:49.532Z</time></trkpt><trkpt lat="50.0384941" lon="1.9713267"><ele>9.5</ele><time>2026-04-02T11:28:50.531Z</time></trkpt><trkpt lat="50.0385087" lon="1.9712011"><ele>9.333333333333334</ele><time>2026-04-02T11:28:51.531Z</time></trkpt><trkpt lat="50.0385059" lon="1.9710735"><ele>9.166666666666666</ele><time>2026-04-02T11:28:52.531Z</time></trkpt><trkpt lat="50.0384976" lon="1.9709419"><ele>9.0</ele><time>2026-04-02T11:28:53.531Z</time></trkpt><trkpt lat="50.038475" lon="1.9708185"><ele>8.666666666666666</ele><time>2026-04-02T11:28:54.531Z</time></trkpt><trkpt lat="50.038447" lon="1.9706972"><ele>8.333333333333334</ele><time>2026-04-02T11:28:55.532Z</time></trkpt><trkpt lat="50.0384139" lon="1.9705774"><ele>8.0</ele><time>2026-04-02T11:28:56.531Z</time></trkpt><trkpt lat="50.0383785" lon="1.9704611"><ele>7.666666666666667</ele><time>2026-04-02T11:28:57.531Z</time></trkpt><trkpt lat="50.0383437" lon="1.9703396"><ele>7.333333333333334</ele><time>2026-04-02T11:28:58.532Z</time></trkpt><trkpt lat="50.0383084" lon="1.9702175"><ele>7.0</ele><time>2026-04-02T11:28:59.532Z</time></trkpt><trkpt lat="50.0382729" lon="1.970095"><ele>6.666666666666667</ele><time>2026-04-02T11:29:00.531Z</time></trkpt><trkpt lat="50.0382344" lon="1.969974"><ele>6.333333333333334</ele><time>2026-04-02T11:29:01.531Z</time></trkpt><trkpt lat="50.0381959" lon="1.9698562"><ele>6.0</ele><time>2026-04-02T11:29:02.531Z</time></trkpt><trkpt lat="50.038155" lon="1.9697357"><ele>5.666666666666667</ele><time>2026-04-02T11:29:03.531Z</time></trkpt><trkpt lat="50.0381126" lon="1.969622"><ele>5.333333333333334</ele><time>2026-04-02T11:29:04.53Z</time></trkpt><trkpt lat="50.0380658" lon="1.9695125"><ele>5.0</ele><time>2026-04-02T11:29:05.53Z</time></trkpt><trkpt lat="50.0380118" lon="1.9694118"><ele>5.0</ele><time>2026-04-02T11:29:06.531Z</time></trkpt><trkpt lat="50.0379562" lon="1.9693105"><ele>5.0</ele><time>2026-04-02T11:29:07.532Z</time></trkpt><trkpt lat="50.037897" lon="1.9692127"><ele>5.0</ele><time>2026-04-02T11:29:08.531Z</time></trkpt><trkpt lat="50.037833" lon="1.9691138"><ele>5.0</ele><time>2026-04-02T11:29:09.53Z</time></trkpt><trkpt lat="50.0377712" lon="1.9690098"><ele>5.0</ele><time>2026-04-02T11:29:10.531Z</time></trkpt><trkpt lat="50.0377087" lon="1.9689015"><ele>5.0</ele><time>2026-04-02T11:29:11.532Z</time></trkpt><trkpt lat="50.037648" lon="1.9687915"><ele>5.0</ele><time>2026-04-02T11:29:12.531Z</time></trkpt><trkpt lat="50.0375871" lon="1.9686806"><ele>5.0</ele><time>2026-04-02T11:29:13.531Z</time></trkpt><trkpt lat="50.0375228" lon="1.9685754"><ele>5.0</ele><time>2026-04-02T11:29:14.532Z</time></trkpt><trkpt lat="50.0374533" lon="1.9684755"><ele>5.0</ele><time>2026-04-02T11:29:15.531Z</time></trkpt><trkpt lat="50.0373876" lon="1.9683785"><ele>5.0</ele><time>2026-04-02T11:29:16.531Z</time></trkpt><trkpt lat="50.037323" lon="1.96828"><ele>5.0</ele><time>2026-04-02T11:29:17.53Z</time></trkpt><trkpt lat="50.0372655" lon="1.9681762"><ele>5.0</ele><time>2026-04-02T11:29:18.531Z</time></trkpt><trkpt lat="50.0372161" lon="1.9680676"><ele>5.0</ele><time>2026-04-02T11:29:19.531Z</time></trkpt><trkpt lat="50.0371742" lon="1.9679484"><ele>5.0</ele><time>2026-04-02T11:29:20.532Z</time></trkpt><trkpt lat="50.0371343" lon="1.9678239"><ele>5.0</ele><time>2026-04-02T11:29:21.532Z</time></trkpt><trkpt lat="50.0370959" lon="1.9676934"><ele>5.0</ele><time>2026-04-02T11:29:22.532Z</time></trkpt><trkpt lat="50.0370567" lon="1.9675626"><ele>5.4</ele><time>2026-04-02T11:29:23.53Z</time></trkpt><trkpt lat="50.0370163" lon="1.9674328"><ele>5.8</ele><time>2026-04-02T11:29:24.531Z</time></trkpt><trkpt lat="50.0369725" lon="1.9672991"><ele>6.199999999999999</ele><time>2026-04-02T11:29:25.532Z</time></trkpt><trkpt lat="50.036927" lon="1.9671674"><ele>6.6</ele><time>2026-04-02T11:29:26.531Z</time></trkpt><trkpt lat="50.0368802" lon="1.9670396"><ele>7.0</ele><time>2026-04-02T11:29:27.532Z</time></trkpt><trkpt lat="50.0368293" lon="1.9669118"><ele>7.0</ele><time>2026-04-02T11:29:28.531Z</time></trkpt><trkpt lat="50.0367775" lon="1.966789"><ele>6.999999999999999</ele><time>2026-04-02T11:29:29.532Z</time></trkpt><trkpt lat="50.0367278" lon="1.966665"><ele>6.999999999999999</ele><time>2026-04-02T11:29:30.531Z</time></trkpt><trkpt lat="50.0366841" lon="1.9665441"><ele>7.0</ele><time>2026-04-02T11:29:31.531Z</time></trkpt><trkpt lat="50.0366407" lon="1.9664189"><ele>7.0</ele><time>2026-04-02T11:29:32.531Z</time></trkpt><trkpt lat="50.0366041" lon="1.9662937"><ele>6.3999999999999995</ele><time>2026-04-02T11:29:33.532Z</time></trkpt><trkpt lat="50.0365786" lon="1.9661596"><ele>5.799999999999999</ele><time>2026-04-02T11:29:34.532Z</time></trkpt><trkpt lat="50.0365601" lon="1.9660231"><ele>5.2</ele><time>2026-04-02T11:29:35.531Z</time></trkpt><trkpt lat="50.0365489" lon="1.9658828"><ele>4.6</ele><time>2026-04-02T11:29:36.532Z</time></trkpt><trkpt lat="50.0365354" lon="1.9657362"><ele>4.0</ele><time>2026-04-02T11:29:37.531Z</time></trkpt><trkpt lat="50.036523" lon="1.9655963"><ele>4.0</ele><time>2026-04-02T11:29:38.531Z</time></trkpt><trkpt lat="50.0365098" lon="1.965452"><ele>4.0</ele><time>2026-04-02T11:29:39.531Z</time></trkpt><trkpt lat="50.0364946" lon="1.9653045"><ele>4.0</ele><time>2026-04-02T11:29:40.531Z</time></trkpt><trkpt lat="50.0364737" lon="1.9651573"><ele>4.0</ele><time>2026-04-02T11:29:41.531Z</time></trkpt><trkpt lat="50.0364526" lon="1.9650099"><ele>4.0</ele><time>2026-04-02T11:29:42.53Z</time></trkpt><trkpt lat="50.0364278" lon="1.9648615"><ele>4.5</ele><time>2026-04-02T11:29:43.532Z</time></trkpt><trkpt lat="50.0364042" lon="1.9647148"><ele>5.0</ele><time>2026-04-02T11:29:44.532Z</time></trkpt><trkpt lat="50.0363814" lon="1.9645629"><ele>5.5</ele><time>2026-04-02T11:29:45.532Z</time></trkpt><trkpt lat="50.0363344" lon="1.9642655"><ele>6.0</ele><time>2026-04-02T11:29:47.531Z</time></trkpt><trkpt lat="50.0363101" lon="1.9641232"><ele>6.199999999999999</ele><time>2026-04-02T11:29:48.531Z</time></trkpt><trkpt lat="50.0362874" lon="1.9639822"><ele>6.3999999999999995</ele><time>2026-04-02T11:29:49.53Z</time></trkpt><trkpt lat="50.0362638" lon="1.9638382"><ele>6.6</ele><time>2026-04-02T11:29:50.531Z</time></trkpt><trkpt lat="50.0362427" lon="1.9636941"><ele>6.8</ele><time>2026-04-02T11:29:51.531Z</time></trkpt><trkpt lat="50.036223" lon="1.9635524"><ele>7.0</ele><time>2026-04-02T11:29:52.531Z</time></trkpt><trkpt lat="50.0362126" lon="1.9634038"><ele>7.8</ele><time>2026-04-02T11:29:53.531Z</time></trkpt><trkpt lat="50.0362109" lon="1.9632567"><ele>8.6</ele><time>2026-04-02T11:29:54.531Z</time></trkpt><trkpt lat="50.0362159" lon="1.9631088"><ele>9.4</ele><time>2026-04-02T11:29:55.531Z</time></trkpt><trkpt lat="50.0362227" lon="1.9629645"><ele>10.200000000000001</ele><time>2026-04-02T11:29:56.531Z</time></trkpt><trkpt lat="50.0362415" lon="1.9628279"><ele>11.0</ele><time>2026-04-02T11:29:57.532Z</time></trkpt><trkpt lat="50.0362712" lon="1.9627037"><ele>11.0</ele><time>2026-04-02T11:29:58.531Z</time></trkpt><trkpt lat="50.0363033" lon="1.9625895"><ele>11.0</ele><time>2026-04-02T11:29:59.531Z</time></trkpt><trkpt lat="50.0363344" lon="1.9624869"><ele>11.0</ele><time>2026-04-02T11:30:00.532Z</time></trkpt><trkpt lat="50.0363575" lon="1.9623931"><ele>11.0</ele><time>2026-04-02T11:30:01.531Z</time></trkpt><trkpt lat="50.0363815" lon="1.9622364"><ele>11.0</ele><time>2026-04-02T11:30:03.531Z</time></trkpt><trkpt lat="50.0363793" lon="1.9621324"><ele>11.0</ele><time>2026-04-02T11:30:05.531Z</time></trkpt><trkpt lat="50.0363526" lon="1.9620233"><ele>11.200000000000001</ele><time>2026-04-02T11:30:13.532Z</time></trkpt><trkpt lat="50.0363059" lon="1.9618894"><ele>11.4</ele><time>2026-04-02T11:30:17.531Z</time></trkpt><trkpt lat="50.0362633" lon="1.9617557"><ele>11.6</ele><time>2026-04-02T11:30:19.531Z</time></trkpt><trkpt lat="50.0362125" lon="1.9616079"><ele>11.8</ele><time>2026-04-02T11:30:21.531Z</time></trkpt><trkpt lat="50.0361847" lon="1.9614943"><ele>12.0</ele><time>2026-04-02T11:30:23.532Z</time></trkpt><trkpt lat="50.036142" lon="1.9613355"><ele>12.0</ele><time>2026-04-02T11:30:43.531Z</time></trkpt><trkpt lat="50.0360794" lon="1.961185"><ele>12.0</ele><time>2026-04-02T11:30:45.532Z</time></trkpt><trkpt lat="50.0360519" lon="1.9610922"><ele>12.0</ele><time>2026-04-02T11:30:46.532Z</time></trkpt><trkpt lat="50.036006" lon="1.9610041"><ele>12.0</ele><time>2026-04-02T11:30:47.532Z</time></trkpt><trkpt lat="50.0359658" lon="1.9609001"><ele>12.0</ele><time>2026-04-02T11:30:48.531Z</time></trkpt><trkpt lat="50.0359214" lon="1.9607803"><ele>12.0</ele><time>2026-04-02T11:30:49.531Z</time></trkpt><trkpt lat="50.0358755" lon="1.9606628"><ele>12.2</ele><time>2026-04-02T11:30:50.531Z</time></trkpt><trkpt lat="50.0358264" lon="1.9605364"><ele>12.399999999999999</ele><time>2026-04-02T11:30:51.53Z</time></trkpt><trkpt lat="50.0357815" lon="1.9603792"><ele>12.600000000000001</ele><time>2026-04-02T11:30:52.531Z</time></trkpt><trkpt lat="50.0357222" lon="1.9602275"><ele>12.8</ele><time>2026-04-02T11:30:53.531Z</time></trkpt><trkpt lat="50.0356632" lon="1.9600737"><ele>13.0</ele><time>2026-04-02T11:30:54.531Z</time></trkpt><trkpt lat="50.0356074" lon="1.9599087"><ele>12.0</ele><time>2026-04-02T11:30:55.532Z</time></trkpt><trkpt lat="50.0355489" lon="1.9597467"><ele>11.0</ele><time>2026-04-02T11:30:56.531Z</time></trkpt><trkpt lat="50.0354954" lon="1.959573"><ele>10.0</ele><time>2026-04-02T11:30:57.531Z</time></trkpt><trkpt lat="50.0354353" lon="1.9594096"><ele>9.0</ele><time>2026-04-02T11:30:58.531Z</time></trkpt><trkpt lat="50.0353738" lon="1.9592372"><ele>8.5</ele><time>2026-04-02T11:30:59.531Z</time></trkpt><trkpt lat="50.0353125" lon="1.9590681"><ele>8.0</ele><time>2026-04-02T11:31:00.532Z</time></trkpt><trkpt lat="50.0352508" lon="1.9588959"><ele>7.5</ele><time>2026-04-02T11:31:01.531Z</time></trkpt><trkpt lat="50.0351841" lon="1.9587313"><ele>7.0</ele><time>2026-04-02T11:31:02.531Z</time></trkpt><trkpt lat="50.0351182" lon="1.9585709"><ele>7.0</ele><time>2026-04-02T11:31:03.531Z</time></trkpt><trkpt lat="50.0350549" lon="1.9584127"><ele>7.0</ele><time>2026-04-02T11:31:04.531Z</time></trkpt><trkpt lat="50.0349916" lon="1.9582401"><ele>7.0</ele><time>2026-04-02T11:31:05.531Z</time></trkpt><trkpt lat="50.0349276" lon="1.9580742"><ele>7.0</ele><time>2026-04-02T11:31:06.531Z</time></trkpt><trkpt lat="50.0348686" lon="1.9579018"><ele>7.25</ele><time>2026-04-02T11:31:07.531Z</time></trkpt><trkpt lat="50.0348092" lon="1.9577412"><ele>7.5</ele><time>2026-04-02T11:31:08.531Z</time></trkpt><trkpt lat="50.0347505" lon="1.9575788"><ele>7.75</ele><time>2026-04-02T11:31:09.532Z</time></trkpt><trkpt lat="50.0346874" lon="1.9574217"><ele>8.0</ele><time>2026-04-02T11:31:10.532Z</time></trkpt><trkpt lat="50.0346307" lon="1.9572622"><ele>8.0</ele><time>2026-04-02T11:31:11.531Z</time></trkpt><trkpt lat="50.0345716" lon="1.9571065"><ele>8.0</ele><time>2026-04-02T11:31:12.531Z</time></trkpt><trkpt lat="50.0345117" lon="1.9569422"><ele>8.0</ele><time>2026-04-02T11:31:13.532Z</time></trkpt><trkpt lat="50.0344561" lon="1.9567811"><ele>8.0</ele><time>2026-04-02T11:31:14.531Z</time></trkpt><trkpt lat="50.0344023" lon="1.9566152"><ele>7.75</ele><time>2026-04-02T11:31:15.531Z</time></trkpt><trkpt lat="50.0343529" lon="1.9564431"><ele>7.5</ele><time>2026-04-02T11:31:16.531Z</time></trkpt><trkpt lat="50.034305" lon="1.9562712"><ele>7.25</ele><time>2026-04-02T11:31:17.531Z</time></trkpt><trkpt lat="50.0342547" lon="1.9560975"><ele>7.0</ele><time>2026-04-02T11:31:18.531Z</time></trkpt><trkpt lat="50.0342081" lon="1.9559264"><ele>7.0</ele><time>2026-04-02T11:31:19.531Z</time></trkpt><trkpt lat="50.0341627" lon="1.9557626"><ele>7.0</ele><time>2026-04-02T11:31:20.531Z</time></trkpt><trkpt lat="50.0341076" lon="1.955596"><ele>7.0</ele><time>2026-04-02T11:31:21.531Z</time></trkpt><trkpt lat="50.0340578" lon="1.9554119"><ele>7.0</ele><time>2026-04-02T11:31:22.531Z</time></trkpt><trkpt lat="50.0340038" lon="1.9552301"><ele>7.0</ele><time>2026-04-02T11:31:23.531Z</time></trkpt><trkpt lat="50.0339482" lon="1.9550654"><ele>7.0</ele><time>2026-04-02T11:31:24.532Z</time></trkpt><trkpt lat="50.0339024" lon="1.954894"><ele>7.0</ele><time>2026-04-02T11:31:25.531Z</time></trkpt><trkpt lat="50.0338533" lon="1.954728"><ele>7.0</ele><time>2026-04-02T11:31:26.531Z</time></trkpt><trkpt lat="50.0338125" lon="1.9545569"><ele>6.75</ele><time>2026-04-02T11:31:27.53Z</time></trkpt><trkpt lat="50.0337622" lon="1.9543815"><ele>6.5</ele><time>2026-04-02T11:31:28.531Z</time></trkpt><trkpt lat="50.0337125" lon="1.954208"><ele>6.25</ele><time>2026-04-02T11:31:29.532Z</time></trkpt><trkpt lat="50.0336682" lon="1.954037"><ele>6.0</ele><time>2026-04-02T11:31:30.531Z</time></trkpt><trkpt lat="50.0336186" lon="1.9538718"><ele>6.0</ele><time>2026-04-02T11:31:31.531Z</time></trkpt><trkpt lat="50.03357" lon="1.9537036"><ele>6.0</ele><time>2026-04-02T11:31:32.531Z</time></trkpt><trkpt lat="50.0335235" lon="1.9535294"><ele>6.0</ele><time>2026-04-02T11:31:33.531Z</time></trkpt><trkpt lat="50.0334703" lon="1.9533637"><ele>6.0</ele><time>2026-04-02T11:31:34.531Z</time></trkpt><trkpt lat="50.0334185" lon="1.9531861"><ele>6.25</ele><time>2026-04-02T11:31:35.53Z</time></trkpt><trkpt lat="50.0333722" lon="1.9530084"><ele>6.5</ele><time>2026-04-02T11:31:36.532Z</time></trkpt><trkpt lat="50.033318" lon="1.9528352"><ele>6.75</ele><time>2026-04-02T11:31:37.53Z</time></trkpt><trkpt lat="50.0332771" lon="1.9526529"><ele>7.0</ele><time>2026-04-02T11:31:38.532Z</time></trkpt><trkpt lat="50.0332304" lon="1.9524747"><ele>6.5</ele><time>2026-04-02T11:31:39.532Z</time></trkpt><trkpt lat="50.0331813" lon="1.952307"><ele>6.0</ele><time>2026-04-02T11:31:40.531Z</time></trkpt><trkpt lat="50.0331372" lon="1.9521365"><ele>5.5</ele><time>2026-04-02T11:31:41.531Z</time></trkpt><trkpt lat="50.033094" lon="1.951975"><ele>5.0</ele><time>2026-04-02T11:31:42.531Z</time></trkpt><trkpt lat="50.0330499" lon="1.9518121"><ele>5.0</ele><time>2026-04-02T11:31:43.531Z</time></trkpt><trkpt lat="50.0330062" lon="1.9516428"><ele>5.0</ele><time>2026-04-02T11:31:44.53Z</time></trkpt><trkpt lat="50.0329622" lon="1.9514784"><ele>5.0</ele><time>2026-04-02T11:31:45.531Z</time></trkpt><trkpt lat="50.0329206" lon="1.9513097"><ele>5.0</ele><time>2026-04-02T11:31:46.532Z</time></trkpt><trkpt lat="50.0328786" lon="1.9511449"><ele>5.0</ele><time>2026-04-02T11:31:47.532Z</time></trkpt><trkpt lat="50.0328311" lon="1.9509857"><ele>5.0</ele><time>2026-04-02T11:31:48.53Z</time></trkpt><trkpt lat="50.0327844" lon="1.9508132"><ele>5.0</ele><time>2026-04-02T11:31:49.532Z</time></trkpt><trkpt lat="50.032742" lon="1.950646"><ele>5.0</ele><time>2026-04-02T11:31:50.532Z</time></trkpt><trkpt lat="50.0327003" lon="1.9504748"><ele>5.0</ele><time>2026-04-02T11:31:51.531Z</time></trkpt><trkpt lat="50.0326608" lon="1.950319"><ele>5.0</ele><time>2026-04-02T11:31:52.53Z</time></trkpt><trkpt lat="50.0326257" lon="1.9501847"><ele>5.0</ele><time>2026-04-02T11:31:53.531Z</time></trkpt><trkpt lat="50.032597" lon="1.9500597"><ele>5.0</ele><time>2026-04-02T11:31:54.531Z</time></trkpt><trkpt lat="50.0325748" lon="1.9499509"><ele>5.0</ele><time>2026-04-02T11:31:55.531Z</time></trkpt><trkpt lat="50.0325318" lon="1.9497981"><ele>5.0</ele><time>2026-04-02T11:31:57.531Z</time></trkpt><trkpt lat="50.0325109" lon="1.9496874"><ele>5.0</ele><time>2026-04-02T11:32:00.531Z</time></trkpt><trkpt lat="50.0324597" lon="1.9495826"><ele>5.0</ele><time>2026-04-02T11:34:08.532Z</time></trkpt><trkpt lat="50.0324155" lon="1.9494608"><ele>5.0</ele><time>2026-04-02T11:34:10.531Z</time></trkpt><trkpt lat="50.0323536" lon="1.9492678"><ele>5.0</ele><time>2026-04-02T11:34:12.531Z</time></trkpt><trkpt lat="50.0323176" lon="1.9491451"><ele>4.8</ele><time>2026-04-02T11:34:13.531Z</time></trkpt><trkpt lat="50.0322846" lon="1.9490068"><ele>4.6</ele><time>2026-04-02T11:34:14.531Z</time></trkpt><trkpt lat="50.0322497" lon="1.948863"><ele>4.4</ele><time>2026-04-02T11:34:15.532Z</time></trkpt><trkpt lat="50.0322136" lon="1.9487159"><ele>4.2</ele><time>2026-04-02T11:34:16.531Z</time></trkpt><trkpt lat="50.0321771" lon="1.9485606"><ele>4.0</ele><time>2026-04-02T11:34:17.532Z</time></trkpt><trkpt lat="50.0321402" lon="1.9484019"><ele>4.25</ele><time>2026-04-02T11:34:18.531Z</time></trkpt><trkpt lat="50.0320994" lon="1.9482282"><ele>4.5</ele><time>2026-04-02T11:34:19.532Z</time></trkpt><trkpt lat="50.0320603" lon="1.948045"><ele>4.75</ele><time>2026-04-02T11:34:20.531Z</time></trkpt><trkpt lat="50.0320214" lon="1.9478598"><ele>5.0</ele><time>2026-04-02T11:34:21.532Z</time></trkpt><trkpt lat="50.03198" lon="1.9476699"><ele>5.5</ele><time>2026-04-02T11:34:22.531Z</time></trkpt><trkpt lat="50.0319408" lon="1.9474823"><ele>6.0</ele><time>2026-04-02T11:34:23.532Z</time></trkpt><trkpt lat="50.0318992" lon="1.9472983"><ele>6.5</ele><time>2026-04-02T11:34:24.531Z</time></trkpt><trkpt lat="50.0318659" lon="1.9471157"><ele>7.0</ele><time>2026-04-02T11:34:25.531Z</time></trkpt><trkpt lat="50.0318273" lon="1.9469299"><ele>7.0</ele><time>2026-04-02T11:34:26.531Z</time></trkpt><trkpt lat="50.0317888" lon="1.9467428"><ele>7.0</ele><time>2026-04-02T11:34:27.531Z</time></trkpt><trkpt lat="50.0317507" lon="1.9465602"><ele>7.0</ele><time>2026-04-02T11:34:28.531Z</time></trkpt><trkpt lat="50.0317176" lon="1.9463727"><ele>7.0</ele><time>2026-04-02T11:34:29.531Z</time></trkpt><trkpt lat="50.0316822" lon="1.9461923"><ele>7.25</ele><time>2026-04-02T11:34:30.531Z</time></trkpt><trkpt lat="50.0316516" lon="1.9460135"><ele>7.5</ele><time>2026-04-02T11:34:31.531Z</time></trkpt><trkpt lat="50.0316206" lon="1.9458402"><ele>7.75</ele><time>2026-04-02T11:34:32.531Z</time></trkpt><trkpt lat="50.0315871" lon="1.9456637"><ele>8.0</ele><time>2026-04-02T11:34:33.531Z</time></trkpt><trkpt lat="50.0315529" lon="1.9454837"><ele>8.0</ele><time>2026-04-02T11:34:34.531Z</time></trkpt><trkpt lat="50.0315181" lon="1.9453059"><ele>8.0</ele><time>2026-04-02T11:34:35.531Z</time></trkpt><trkpt lat="50.0314834" lon="1.9451301"><ele>8.0</ele><time>2026-04-02T11:34:36.531Z</time></trkpt><trkpt lat="50.0314464" lon="1.9449497"><ele>8.0</ele><time>2026-04-02T11:34:37.531Z</time></trkpt><trkpt lat="50.031405" lon="1.9447678"><ele>8.0</ele><time>2026-04-02T11:34:38.531Z</time></trkpt><trkpt lat="50.0313641" lon="1.9445868"><ele>8.0</ele><time>2026-04-02T11:34:39.531Z</time></trkpt><trkpt lat="50.0313202" lon="1.9444042"><ele>8.0</ele><time>2026-04-02T11:34:40.531Z</time></trkpt><trkpt lat="50.0312788" lon="1.9442242"><ele>8.0</ele><time>2026-04-02T11:34:41.531Z</time></trkpt><trkpt lat="50.0312395" lon="1.9440476"><ele>7.999999999999999</ele><time>2026-04-02T11:34:42.531Z</time></trkpt><trkpt lat="50.0312012" lon="1.9438789"><ele>8.0</ele><time>2026-04-02T11:34:43.531Z</time></trkpt><trkpt lat="50.0311696" lon="1.9437321"><ele>8.0</ele><time>2026-04-02T11:34:44.532Z</time></trkpt><trkpt lat="50.0311402" lon="1.9435996"><ele>8.0</ele><time>2026-04-02T11:34:45.532Z</time></trkpt><trkpt lat="50.0311138" lon="1.9434868"><ele>7.999999999999999</ele><time>2026-04-02T11:34:46.532Z</time></trkpt><trkpt lat="50.0310949" lon="1.9433892"><ele>8.0</ele><time>2026-04-02T11:34:47.532Z</time></trkpt><trkpt lat="50.0310597" lon="1.9432543"><ele>7.833333333333333</ele><time>2026-04-02T11:34:49.531Z</time></trkpt><trkpt lat="50.0310359" lon="1.9431609"><ele>7.666666666666666</ele><time>2026-04-02T11:34:53.53Z</time></trkpt><trkpt lat="50.0310074" lon="1.9430572"><ele>7.5</ele><time>2026-04-02T11:35:16.531Z</time></trkpt><trkpt lat="50.0309842" lon="1.942966"><ele>7.333333333333334</ele><time>2026-04-02T11:35:17.531Z</time></trkpt><trkpt lat="50.0309563" lon="1.9428481"><ele>7.166666666666667</ele><time>2026-04-02T11:35:18.531Z</time></trkpt><trkpt lat="50.0309219" lon="1.9427156"><ele>7.0</ele><time>2026-04-02T11:35:19.532Z</time></trkpt><trkpt lat="50.0308905" lon="1.942603"><ele>7.000000000000001</ele><time>2026-04-02T11:35:20.532Z</time></trkpt><trkpt lat="50.0308582" lon="1.9424941"><ele>7.0</ele><time>2026-04-02T11:35:21.532Z</time></trkpt><trkpt lat="50.0308037" lon="1.9423415"><ele>7.0</ele><time>2026-04-02T11:35:23.531Z</time></trkpt><trkpt lat="50.0307609" lon="1.9422357"><ele>7.0</ele><time>2026-04-02T11:35:27.532Z</time></trkpt><trkpt lat="50.0307148" lon="1.9421118"><ele>7.000000000000001</ele><time>2026-04-02T11:35:29.531Z</time></trkpt><trkpt lat="50.0306816" lon="1.942015"><ele>7.0</ele><time>2026-04-02T11:35:30.532Z</time></trkpt><trkpt lat="50.0306366" lon="1.9418971"><ele>7.0</ele><time>2026-04-02T11:35:31.531Z</time></trkpt><trkpt lat="50.0305895" lon="1.9417676"><ele>6.999999999999999</ele><time>2026-04-02T11:35:32.531Z</time></trkpt><trkpt lat="50.0305456" lon="1.9416367"><ele>6.999999999999999</ele><time>2026-04-02T11:35:33.531Z</time></trkpt><trkpt lat="50.030504" lon="1.9415037"><ele>7.0</ele><time>2026-04-02T11:35:34.532Z</time></trkpt><trkpt lat="50.0304673" lon="1.9413672"><ele>7.0</ele><time>2026-04-02T11:35:35.531Z</time></trkpt><trkpt lat="50.0304382" lon="1.9412314"><ele>7.166666666666667</ele><time>2026-04-02T11:35:36.532Z</time></trkpt><trkpt lat="50.0304163" lon="1.941094"><ele>7.333333333333334</ele><time>2026-04-02T11:35:37.531Z</time></trkpt><trkpt lat="50.0303985" lon="1.940957"><ele>7.5</ele><time>2026-04-02T11:35:38.531Z</time></trkpt><trkpt lat="50.0303864" lon="1.940819"><ele>7.666666666666666</ele><time>2026-04-02T11:35:39.532Z</time></trkpt><trkpt lat="50.0303767" lon="1.9406842"><ele>7.833333333333333</ele><time>2026-04-02T11:35:40.531Z</time></trkpt><trkpt lat="50.030373" lon="1.940549"><ele>8.0</ele><time>2026-04-02T11:35:41.531Z</time></trkpt><trkpt lat="50.0303773" lon="1.9404108"><ele>8.200000000000001</ele><time>2026-04-02T11:35:42.532Z</time></trkpt><trkpt lat="50.0303883" lon="1.9402797"><ele>8.4</ele><time>2026-04-02T11:35:43.531Z</time></trkpt><trkpt lat="50.0303989" lon="1.9401557"><ele>8.600000000000001</ele><time>2026-04-02T11:35:44.532Z</time></trkpt><trkpt lat="50.030409" lon="1.9400274"><ele>8.8</ele><time>2026-04-02T11:35:46.531Z</time></trkpt><trkpt lat="50.0303099" lon="1.9399474"><ele>9.0</ele><time>2026-04-02T11:35:49.531Z</time></trkpt><trkpt lat="50.0301803" lon="1.9399093"><ele>9.333333333333334</ele><time>2026-04-02T11:35:51.531Z</time></trkpt><trkpt lat="50.030115" lon="1.9398836"><ele>9.666666666666666</ele><time>2026-04-02T11:35:52.531Z</time></trkpt><trkpt lat="50.0300473" lon="1.9398496"><ele>10.0</ele><time>2026-04-02T11:35:53.531Z</time></trkpt><trkpt lat="50.0299709" lon="1.939812"><ele>10.333333333333332</ele><time>2026-04-02T11:35:54.532Z</time></trkpt><trkpt lat="50.0298858" lon="1.9397728"><ele>10.666666666666666</ele><time>2026-04-02T11:35:55.532Z</time></trkpt><trkpt lat="50.0297969" lon="1.9397384"><ele>11.0</ele><time>2026-04-02T11:35:56.531Z</time></trkpt><trkpt lat="50.0296983" lon="1.9396987"><ele>11.4</ele><time>2026-04-02T11:35:57.531Z</time></trkpt><trkpt lat="50.0295966" lon="1.9396601"><ele>11.8</ele><time>2026-04-02T11:35:58.531Z</time></trkpt><trkpt lat="50.0294948" lon="1.9396222"><ele>12.200000000000001</ele><time>2026-04-02T11:35:59.531Z</time></trkpt><trkpt lat="50.0293956" lon="1.9395823"><ele>12.600000000000001</ele><time>2026-04-02T11:36:00.531Z</time></trkpt><trkpt lat="50.0293057" lon="1.9395427"><ele>13.0</ele><time>2026-04-02T11:36:01.531Z</time></trkpt><trkpt lat="50.0292194" lon="1.9395076"><ele>13.2</ele><time>2026-04-02T11:36:02.532Z</time></trkpt><trkpt lat="50.0291352" lon="1.9394742"><ele>13.4</ele><time>2026-04-02T11:36:04.532Z</time></trkpt><trkpt lat="50.0290448" lon="1.9394378"><ele>13.599999999999998</ele><time>2026-04-02T11:36:15.532Z</time></trkpt><trkpt lat="50.0289203" lon="1.9393717"><ele>13.799999999999999</ele><time>2026-04-02T11:36:17.532Z</time></trkpt><trkpt lat="50.0288394" lon="1.9393234"><ele>14.0</ele><time>2026-04-02T11:36:18.531Z</time></trkpt><trkpt lat="50.0287483" lon="1.9392682"><ele>14.2</ele><time>2026-04-02T11:36:19.53Z</time></trkpt><trkpt lat="50.0286521" lon="1.9392104"><ele>14.399999999999999</ele><time>2026-04-02T11:36:20.531Z</time></trkpt><trkpt lat="50.028553" lon="1.9391543"><ele>14.6</ele><time>2026-04-02T11:36:21.53Z</time></trkpt><trkpt lat="50.0284545" lon="1.9390995"><ele>14.8</ele><time>2026-04-02T11:36:22.531Z</time></trkpt><trkpt lat="50.0283551" lon="1.9390396"><ele>15.0</ele><time>2026-04-02T11:36:23.531Z</time></trkpt><trkpt lat="50.0282533" lon="1.9389854"><ele>15.0</ele><time>2026-04-02T11:36:24.532Z</time></trkpt><trkpt lat="50.0281546" lon="1.9389221"><ele>15.0</ele><time>2026-04-02T11:36:25.533Z</time></trkpt><trkpt lat="50.0280529" lon="1.9388478"><ele>15.0</ele><time>2026-04-02T11:36:26.531Z</time></trkpt><trkpt lat="50.0279469" lon="1.9387755"><ele>15.0</ele><time>2026-04-02T11:36:27.531Z</time></trkpt><trkpt lat="50.027838" lon="1.938712"><ele>15.0</ele><time>2026-04-02T11:36:28.532Z</time></trkpt><trkpt lat="50.0277333" lon="1.9386435"><ele>15.0</ele><time>2026-04-02T11:36:29.532Z</time></trkpt><trkpt lat="50.0276261" lon="1.9385775"><ele>15.0</ele><time>2026-04-02T11:36:30.533Z</time></trkpt><trkpt lat="50.0275149" lon="1.9385053"><ele>15.0</ele><time>2026-04-02T11:36:31.532Z</time></trkpt><trkpt lat="50.0274082" lon="1.938434"><ele>15.25</ele><time>2026-04-02T11:36:32.532Z</time></trkpt><trkpt lat="50.027304" lon="1.938354"><ele>15.5</ele><time>2026-04-02T11:36:33.533Z</time></trkpt><trkpt lat="50.0272039" lon="1.9382623"><ele>15.75</ele><time>2026-04-02T11:36:34.532Z</time></trkpt><trkpt lat="50.0271117" lon="1.9381548"><ele>16.0</ele><time>2026-04-02T11:36:35.533Z</time></trkpt><trkpt lat="50.027022" lon="1.938031"><ele>16.0</ele><time>2026-04-02T11:36:36.532Z</time></trkpt><trkpt lat="50.0269378" lon="1.9378817"><ele>16.0</ele><time>2026-04-02T11:36:37.532Z</time></trkpt><trkpt lat="50.0268733" lon="1.9377207"><ele>16.0</ele><time>2026-04-02T11:36:38.533Z</time></trkpt><trkpt lat="50.0268255" lon="1.9375533"><ele>16.0</ele><time>2026-04-02T11:36:39.533Z</time></trkpt><trkpt lat="50.026787" lon="1.9373773"><ele>17.0</ele><time>2026-04-02T11:36:40.532Z</time></trkpt><trkpt lat="50.0267551" lon="1.9372007"><ele>18.0</ele><time>2026-04-02T11:36:41.533Z</time></trkpt><trkpt lat="50.0267174" lon="1.9370163"><ele>19.0</ele><time>2026-04-02T11:36:42.533Z</time></trkpt><trkpt lat="50.0266798" lon="1.9368213"><ele>20.0</ele><time>2026-04-02T11:36:43.532Z</time></trkpt><trkpt lat="50.0266493" lon="1.9366249"><ele>19.5</ele><time>2026-04-02T11:36:44.532Z</time></trkpt><trkpt lat="50.0266182" lon="1.9364298"><ele>19.0</ele><time>2026-04-02T11:36:45.533Z</time></trkpt><trkpt lat="50.0265811" lon="1.9362294"><ele>18.5</ele><time>2026-04-02T11:36:46.533Z</time></trkpt><trkpt lat="50.0265448" lon="1.9360304"><ele>18.0</ele><time>2026-04-02T11:36:47.531Z</time></trkpt><trkpt lat="50.0265022" lon="1.9358317"><ele>18.0</ele><time>2026-04-02T11:36:48.532Z</time></trkpt><trkpt lat="50.0264532" lon="1.9356381"><ele>18.0</ele><time>2026-04-02T11:36:49.532Z</time></trkpt><trkpt lat="50.0264045" lon="1.9354526"><ele>18.0</ele><time>2026-04-02T11:36:50.531Z</time></trkpt><trkpt lat="50.0263473" lon="1.9352758"><ele>18.0</ele><time>2026-04-02T11:36:51.531Z</time></trkpt><trkpt lat="50.0262846" lon="1.9351035"><ele>18.5</ele><time>2026-04-02T11:36:52.532Z</time></trkpt><trkpt lat="50.0262142" lon="1.9349325"><ele>19.0</ele><time>2026-04-02T11:36:53.533Z</time></trkpt><trkpt lat="50.026142" lon="1.9347647"><ele>19.5</ele><time>2026-04-02T11:36:54.533Z</time></trkpt><trkpt lat="50.0260642" lon="1.9345949"><ele>20.0</ele><time>2026-04-02T11:36:55.533Z</time></trkpt><trkpt lat="50.0259769" lon="1.9344185"><ele>20.0</ele><time>2026-04-02T11:36:56.532Z</time></trkpt><trkpt lat="50.0258884" lon="1.9342438"><ele>20.0</ele><time>2026-04-02T11:36:57.532Z</time></trkpt><trkpt lat="50.0258012" lon="1.9340742"><ele>20.0</ele><time>2026-04-02T11:36:58.532Z</time></trkpt><trkpt lat="50.0257156" lon="1.9339069"><ele>20.0</ele><time>2026-04-02T11:36:59.533Z</time></trkpt><trkpt lat="50.025624" lon="1.9337455"><ele>20.0</ele><time>2026-04-02T11:37:00.532Z</time></trkpt><trkpt lat="50.0255361" lon="1.933588"><ele>20.0</ele><time>2026-04-02T11:37:01.532Z</time></trkpt><trkpt lat="50.0254489" lon="1.9334393"><ele>20.0</ele><time>2026-04-02T11:37:02.532Z</time></trkpt><trkpt lat="50.0253587" lon="1.9333036"><ele>20.0</ele><time>2026-04-02T11:37:03.532Z</time></trkpt><trkpt lat="50.0252713" lon="1.9331821"><ele>20.0</ele><time>2026-04-02T11:37:04.532Z</time></trkpt><trkpt lat="50.0251891" lon="1.9330752"><ele>20.0</ele><time>2026-04-02T11:37:05.532Z</time></trkpt><trkpt lat="50.0251021" lon="1.9329762"><ele>20.0</ele><time>2026-04-02T11:37:06.533Z</time></trkpt><trkpt lat="50.025004" lon="1.932883"><ele>20.0</ele><time>2026-04-02T11:37:07.533Z</time></trkpt><trkpt lat="50.0248938" lon="1.9328076"><ele>20.2</ele><time>2026-04-02T11:37:08.532Z</time></trkpt><trkpt lat="50.0247824" lon="1.932749"><ele>20.4</ele><time>2026-04-02T11:37:09.533Z</time></trkpt><trkpt lat="50.0246753" lon="1.9327075"><ele>20.6</ele><time>2026-04-02T11:37:10.532Z</time></trkpt><trkpt lat="50.02457" lon="1.9326795"><ele>20.8</ele><time>2026-04-02T11:37:11.532Z</time></trkpt><trkpt lat="50.0244645" lon="1.9326637"><ele>21.0</ele><time>2026-04-02T11:37:12.533Z</time></trkpt><trkpt lat="50.0243586" lon="1.9326489"><ele>21.0</ele><time>2026-04-02T11:37:13.533Z</time></trkpt><trkpt lat="50.0242462" lon="1.9326388"><ele>21.0</ele><time>2026-04-02T11:37:14.532Z</time></trkpt><trkpt lat="50.0241202" lon="1.9326253"><ele>21.0</ele><time>2026-04-02T11:37:15.532Z</time></trkpt><trkpt lat="50.0239824" lon="1.9326173"><ele>21.0</ele><time>2026-04-02T11:37:16.532Z</time></trkpt><trkpt lat="50.0238405" lon="1.9326089"><ele>24.333333333333336</ele><time>2026-04-02T11:37:17.533Z</time></trkpt><trkpt lat="50.0236935" lon="1.9326079"><ele>27.666666666666668</ele><time>2026-04-02T11:37:18.532Z</time></trkpt><trkpt lat="50.0235365" lon="1.9326134"><ele>31.0</ele><time>2026-04-02T11:37:19.533Z</time></trkpt><trkpt lat="50.0233735" lon="1.9326237"><ele>32.66666666666667</ele><time>2026-04-02T11:37:20.532Z</time></trkpt><trkpt lat="50.023205" lon="1.9326515"><ele>34.333333333333336</ele><time>2026-04-02T11:37:21.532Z</time></trkpt><trkpt lat="50.0230353" lon="1.9326827"><ele>36.0</ele><time>2026-04-02T11:37:22.532Z</time></trkpt><trkpt lat="50.0228613" lon="1.9327163"><ele>36.0</ele><time>2026-04-02T11:37:23.533Z</time></trkpt><trkpt lat="50.0226836" lon="1.9327381"><ele>36.0</ele><time>2026-04-02T11:37:24.532Z</time></trkpt><trkpt lat="50.0225125" lon="1.9327664"><ele>36.0</ele><time>2026-04-02T11:37:25.532Z</time></trkpt><trkpt lat="50.0223396" lon="1.9327954"><ele>37.666666666666664</ele><time>2026-04-02T11:37:26.533Z</time></trkpt><trkpt lat="50.0221709" lon="1.9328186"><ele>39.33333333333333</ele><time>2026-04-02T11:37:27.531Z</time></trkpt><trkpt lat="50.0219956" lon="1.9328263"><ele>41.0</ele><time>2026-04-02T11:37:28.531Z</time></trkpt><trkpt lat="50.0218242" lon="1.9328192"><ele>41.0</ele><time>2026-04-02T11:37:29.532Z</time></trkpt><trkpt lat="50.0216522" lon="1.9327959"><ele>41.0</ele><time>2026-04-02T11:37:30.532Z</time></trkpt><trkpt lat="50.0214795" lon="1.9327559"><ele>41.0</ele><time>2026-04-02T11:37:31.532Z</time></trkpt><trkpt lat="50.0213069" lon="1.9327049"><ele>42.0</ele><time>2026-04-02T11:37:32.533Z</time></trkpt><trkpt lat="50.0211426" lon="1.9326649"><ele>43.0</ele><time>2026-04-02T11:37:33.532Z</time></trkpt><trkpt lat="50.020983" lon="1.932622"><ele>44.0</ele><time>2026-04-02T11:37:34.533Z</time></trkpt><trkpt lat="50.0208302" lon="1.9325823"><ele>43.0</ele><time>2026-04-02T11:37:35.532Z</time></trkpt><trkpt lat="50.0206808" lon="1.9325267"><ele>42.0</ele><time>2026-04-02T11:37:36.532Z</time></trkpt><trkpt lat="50.0205321" lon="1.9324394"><ele>41.0</ele><time>2026-04-02T11:37:37.532Z</time></trkpt><trkpt lat="50.0203891" lon="1.932318"><ele>41.0</ele><time>2026-04-02T11:37:38.532Z</time></trkpt><trkpt lat="50.0202527" lon="1.9321764"><ele>41.0</ele><time>2026-04-02T11:37:39.533Z</time></trkpt><trkpt lat="50.0201215" lon="1.9320151"><ele>41.0</ele><time>2026-04-02T11:37:40.532Z</time></trkpt><trkpt lat="50.0199933" lon="1.9318362"><ele>42.666666666666664</ele><time>2026-04-02T11:37:41.533Z</time></trkpt><trkpt lat="50.0198646" lon="1.9316554"><ele>44.333333333333336</ele><time>2026-04-02T11:37:42.533Z</time></trkpt><trkpt lat="50.0197393" lon="1.9314632"><ele>46.0</ele><time>2026-04-02T11:37:43.531Z</time></trkpt><trkpt lat="50.0196193" lon="1.9312659"><ele>46.0</ele><time>2026-04-02T11:37:44.532Z</time></trkpt><trkpt lat="50.0195044" lon="1.9310764"><ele>46.0</ele><time>2026-04-02T11:37:45.532Z</time></trkpt><trkpt lat="50.0193939" lon="1.9308925"><ele>46.0</ele><time>2026-04-02T11:37:46.532Z</time></trkpt><trkpt lat="50.0192813" lon="1.930706"><ele>47.5</ele><time>2026-04-02T11:37:47.532Z</time></trkpt><trkpt lat="50.0191771" lon="1.9305274"><ele>49.0</ele><time>2026-04-02T11:37:48.532Z</time></trkpt><trkpt lat="50.0190793" lon="1.9303558"><ele>50.5</ele><time>2026-04-02T11:37:49.533Z</time></trkpt><trkpt lat="50.0189834" lon="1.930195"><ele>52.0</ele><time>2026-04-02T11:37:50.531Z</time></trkpt><trkpt lat="50.0188935" lon="1.9300413"><ele>48.5</ele><time>2026-04-02T11:37:51.532Z</time></trkpt><trkpt lat="50.0188036" lon="1.9298917"><ele>45.0</ele><time>2026-04-02T11:37:52.532Z</time></trkpt><trkpt lat="50.0187116" lon="1.9297368"><ele>41.5</ele><time>2026-04-02T11:37:53.532Z</time></trkpt><trkpt lat="50.0186234" lon="1.9295775"><ele>38.0</ele><time>2026-04-02T11:37:54.532Z</time></trkpt><trkpt lat="50.0185422" lon="1.9293926"><ele>36.25</ele><time>2026-04-02T11:37:55.532Z</time></trkpt><trkpt lat="50.0184654" lon="1.929199"><ele>34.5</ele><time>2026-04-02T11:37:56.531Z</time></trkpt><trkpt lat="50.0184063" lon="1.9290115"><ele>32.75</ele><time>2026-04-02T11:37:57.532Z</time></trkpt><trkpt lat="50.0183594" lon="1.9288364"><ele>31.0</ele><time>2026-04-02T11:37:58.533Z</time></trkpt><trkpt lat="50.018327" lon="1.9286842"><ele>31.166666666666668</ele><time>2026-04-02T11:37:59.533Z</time></trkpt><trkpt lat="50.0183" lon="1.9285543"><ele>31.333333333333336</ele><time>2026-04-02T11:38:00.533Z</time></trkpt><trkpt lat="50.0182804" lon="1.9284371"><ele>31.5</ele><time>2026-04-02T11:38:01.532Z</time></trkpt><trkpt lat="50.0182464" lon="1.9283383"><ele>31.666666666666664</ele><time>2026-04-02T11:38:02.532Z</time></trkpt><trkpt lat="50.0182064" lon="1.9282559"><ele>31.833333333333332</ele><time>2026-04-02T11:38:03.533Z</time></trkpt><trkpt lat="50.0181314" lon="1.928133"><ele>32.0</ele><time>2026-04-02T11:38:05.533Z</time></trkpt><trkpt lat="50.0180939" lon="1.928027"><ele>32.800000000000004</ele><time>2026-04-02T11:38:07.532Z</time></trkpt><trkpt lat="50.0180286" lon="1.9278975"><ele>33.6</ele><time>2026-04-02T11:38:09.533Z</time></trkpt><trkpt lat="50.0179364" lon="1.9278085"><ele>34.400000000000006</ele><time>2026-04-02T11:38:11.532Z</time></trkpt><trkpt lat="50.0178495" lon="1.9277012"><ele>35.2</ele><time>2026-04-02T11:38:13.532Z</time></trkpt><trkpt lat="50.0177907" lon="1.927591"><ele>36.0</ele><time>2026-04-02T11:38:15.533Z</time></trkpt><trkpt lat="50.0177183" lon="1.9274513"><ele>37.666666666666664</ele><time>2026-04-02T11:38:17.532Z</time></trkpt><trkpt lat="50.0176748" lon="1.9273411"><ele>39.333333333333336</ele><time>2026-04-02T11:38:20.532Z</time></trkpt><trkpt lat="50.0176253" lon="1.9272655"><ele>41.0</ele><time>2026-04-02T11:38:22.532Z</time></trkpt><trkpt lat="50.0175553" lon="1.9271755"><ele>42.66666666666667</ele><time>2026-04-02T11:38:24.532Z</time></trkpt><trkpt lat="50.017499" lon="1.927103"><ele>44.333333333333336</ele><time>2026-04-02T11:38:25.532Z</time></trkpt><trkpt lat="50.0174169" lon="1.9269882"><ele>46.0</ele><time>2026-04-02T11:38:27.532Z</time></trkpt><trkpt lat="50.0173553" lon="1.9268972"><ele>46.0</ele><time>2026-04-02T11:38:29.533Z</time></trkpt><trkpt lat="50.0173173" lon="1.9268185"><ele>46.0</ele><time>2026-04-02T11:38:30.532Z</time></trkpt><trkpt lat="50.017263" lon="1.9267575"><ele>46.0</ele><time>2026-04-02T11:38:31.533Z</time></trkpt><trkpt lat="50.0172096" lon="1.9266932"><ele>46.0</ele><time>2026-04-02T11:38:32.531Z</time></trkpt><trkpt lat="50.0171618" lon="1.9266095"><ele>46.0</ele><time>2026-04-02T11:38:33.533Z</time></trkpt><trkpt lat="50.0171149" lon="1.9265105"><ele>46.0</ele><time>2026-04-02T11:38:34.531Z</time></trkpt><trkpt lat="50.0170601" lon="1.9263996"><ele>46.0</ele><time>2026-04-02T11:38:35.533Z</time></trkpt><trkpt lat="50.0169841" lon="1.9263115"><ele>48.0</ele><time>2026-04-02T11:38:37.533Z</time></trkpt><trkpt lat="50.0169277" lon="1.9262105"><ele>50.0</ele><time>2026-04-02T11:39:36.532Z</time></trkpt><trkpt lat="50.0168917" lon="1.9261249"><ele>52.0</ele><time>2026-04-02T11:39:41.533Z</time></trkpt><trkpt lat="50.0168634" lon="1.9260283"><ele>54.0</ele><time>2026-04-02T11:39:43.532Z</time></trkpt><trkpt lat="50.0168171" lon="1.9259137"><ele>55.99999999999999</ele><time>2026-04-02T11:39:45.533Z</time></trkpt><trkpt lat="50.0167688" lon="1.9257941"><ele>58.0</ele><time>2026-04-02T11:39:49.531Z</time></trkpt><trkpt lat="50.0167165" lon="1.9256953"><ele>59.2</ele><time>2026-04-02T11:39:51.531Z</time></trkpt><trkpt lat="50.0166236" lon="1.9255656"><ele>60.4</ele><time>2026-04-02T11:39:52.531Z</time></trkpt><trkpt lat="50.0165501" lon="1.9254328"><ele>61.60000000000001</ele><time>2026-04-02T11:39:53.532Z</time></trkpt><trkpt lat="50.0164963" lon="1.9253298"><ele>62.800000000000004</ele><time>2026-04-02T11:39:54.532Z</time></trkpt><trkpt lat="50.0164472" lon="1.9252365"><ele>64.0</ele><time>2026-04-02T11:39:55.533Z</time></trkpt><trkpt lat="50.0163905" lon="1.92513"><ele>65.4</ele><time>2026-04-02T11:39:56.531Z</time></trkpt><trkpt lat="50.0163257" lon="1.9250105"><ele>66.80000000000001</ele><time>2026-04-02T11:39:57.533Z</time></trkpt><trkpt lat="50.0162645" lon="1.9248783"><ele>68.19999999999999</ele><time>2026-04-02T11:39:58.533Z</time></trkpt><trkpt lat="50.0162181" lon="1.9247261"><ele>69.6</ele><time>2026-04-02T11:39:59.532Z</time></trkpt><trkpt lat="50.016173" lon="1.9245767"><ele>71.0</ele><time>2026-04-02T11:40:00.531Z</time></trkpt><trkpt lat="50.0161403" lon="1.9243932"><ele>72.25</ele><time>2026-04-02T11:40:01.532Z</time></trkpt><trkpt lat="50.0161066" lon="1.9242208"><ele>73.5</ele><time>2026-04-02T11:40:02.532Z</time></trkpt><trkpt lat="50.0160677" lon="1.9240526"><ele>74.75</ele><time>2026-04-02T11:40:03.532Z</time></trkpt><trkpt lat="50.0160251" lon="1.9238835"><ele>76.0</ele><time>2026-04-02T11:40:04.532Z</time></trkpt><trkpt lat="50.0159754" lon="1.9237065"><ele>76.0</ele><time>2026-04-02T11:40:05.531Z</time></trkpt><trkpt lat="50.0159269" lon="1.9235291"><ele>76.0</ele><time>2026-04-02T11:40:06.532Z</time></trkpt><trkpt lat="50.0158759" lon="1.9233547"><ele>76.0</ele><time>2026-04-02T11:40:07.532Z</time></trkpt><trkpt lat="50.0158151" lon="1.9231771"><ele>76.0</ele><time>2026-04-02T11:40:08.532Z</time></trkpt><trkpt lat="50.0157579" lon="1.9230032"><ele>76.25</ele><time>2026-04-02T11:40:09.532Z</time></trkpt><trkpt lat="50.0157103" lon="1.9228428"><ele>76.5</ele><time>2026-04-02T11:40:10.532Z</time></trkpt><trkpt lat="50.0156582" lon="1.9226934"><ele>76.75</ele><time>2026-04-02T11:40:11.533Z</time></trkpt><trkpt lat="50.015607" lon="1.9225373"><ele>77.0</ele><time>2026-04-02T11:40:12.533Z</time></trkpt><trkpt lat="50.0155551" lon="1.922369"><ele>78.0</ele><time>2026-04-02T11:40:13.532Z</time></trkpt><trkpt lat="50.0155056" lon="1.9222079"><ele>79.0</ele><time>2026-04-02T11:40:14.533Z</time></trkpt><trkpt lat="50.0154672" lon="1.9220472"><ele>80.0</ele><time>2026-04-02T11:40:15.532Z</time></trkpt><trkpt lat="50.0154397" lon="1.9218751"><ele>81.0</ele><time>2026-04-02T11:40:16.532Z</time></trkpt><trkpt lat="50.0154216" lon="1.9216951"><ele>81.25</ele><time>2026-04-02T11:40:17.533Z</time></trkpt><trkpt lat="50.0153889" lon="1.921515"><ele>81.5</ele><time>2026-04-02T11:40:18.533Z</time></trkpt><trkpt lat="50.0153425" lon="1.9213404"><ele>81.75</ele><time>2026-04-02T11:40:19.531Z</time></trkpt><trkpt lat="50.0152866" lon="1.9211662"><ele>82.0</ele><time>2026-04-02T11:40:20.533Z</time></trkpt><trkpt lat="50.0152312" lon="1.9209923"><ele>82.25</ele><time>2026-04-02T11:40:21.533Z</time></trkpt><trkpt lat="50.0151818" lon="1.9208201"><ele>82.5</ele><time>2026-04-02T11:40:22.532Z</time></trkpt><trkpt lat="50.0151364" lon="1.9206495"><ele>82.75</ele><time>2026-04-02T11:40:23.532Z</time></trkpt><trkpt lat="50.0150957" lon="1.9204682"><ele>83.0</ele><time>2026-04-02T11:40:24.533Z</time></trkpt><trkpt lat="50.0150632" lon="1.9202775"><ele>83.0</ele><time>2026-04-02T11:40:25.533Z</time></trkpt><trkpt lat="50.015029" lon="1.9200757"><ele>83.0</ele><time>2026-04-02T11:40:26.532Z</time></trkpt><trkpt lat="50.0149959" lon="1.9198653"><ele>83.0</ele><time>2026-04-02T11:40:27.531Z</time></trkpt><trkpt lat="50.0149681" lon="1.9196548"><ele>83.0</ele><time>2026-04-02T11:40:28.532Z</time></trkpt><trkpt lat="50.01494" lon="1.9194531"><ele>84.25</ele><time>2026-04-02T11:40:29.532Z</time></trkpt><trkpt lat="50.0149117" lon="1.919253"><ele>85.5</ele><time>2026-04-02T11:40:30.532Z</time></trkpt><trkpt lat="50.0148769" lon="1.9190558"><ele>86.75</ele><time>2026-04-02T11:40:31.532Z</time></trkpt><trkpt lat="50.0148367" lon="1.918853"><ele>88.0</ele><time>2026-04-02T11:40:32.532Z</time></trkpt><trkpt lat="50.0148001" lon="1.9186449"><ele>88.25</ele><time>2026-04-02T11:40:33.532Z</time></trkpt><trkpt lat="50.0147593" lon="1.918428"><ele>88.5</ele><time>2026-04-02T11:40:34.533Z</time></trkpt><trkpt lat="50.0147185" lon="1.9182033"><ele>88.75</ele><time>2026-04-02T11:40:35.532Z</time></trkpt><trkpt lat="50.0146763" lon="1.9179772"><ele>89.0</ele><time>2026-04-02T11:40:36.532Z</time></trkpt><trkpt lat="50.014634" lon="1.9177608"><ele>89.5</ele><time>2026-04-02T11:40:37.533Z</time></trkpt><trkpt lat="50.0145966" lon="1.9175522"><ele>90.0</ele><time>2026-04-02T11:40:38.532Z</time></trkpt><trkpt lat="50.0145649" lon="1.9173511"><ele>90.5</ele><time>2026-04-02T11:40:39.531Z</time></trkpt><trkpt lat="50.0145314" lon="1.9171556"><ele>91.0</ele><time>2026-04-02T11:40:40.531Z</time></trkpt><trkpt lat="50.0144931" lon="1.9169574"><ele>91.0</ele><time>2026-04-02T11:40:41.533Z</time></trkpt><trkpt lat="50.0144557" lon="1.9167453"><ele>91.0</ele><time>2026-04-02T11:40:42.533Z</time></trkpt><trkpt lat="50.0144166" lon="1.9165289"><ele>91.0</ele><time>2026-04-02T11:40:43.532Z</time></trkpt><trkpt lat="50.0143687" lon="1.9163205"><ele>91.0</ele><time>2026-04-02T11:40:44.532Z</time></trkpt><trkpt lat="50.0143049" lon="1.9161275"><ele>91.5</ele><time>2026-04-02T11:40:45.532Z</time></trkpt><trkpt lat="50.0142208" lon="1.9159454"><ele>92.0</ele><time>2026-04-02T11:40:46.533Z</time></trkpt><trkpt lat="50.014117" lon="1.9157737"><ele>92.5</ele><time>2026-04-02T11:40:47.532Z</time></trkpt><trkpt lat="50.0140096" lon="1.915611"><ele>93.0</ele><time>2026-04-02T11:40:48.532Z</time></trkpt><trkpt lat="50.0139147" lon="1.9154474"><ele>93.33333333333333</ele><time>2026-04-02T11:40:49.532Z</time></trkpt><trkpt lat="50.0138329" lon="1.9152693"><ele>93.66666666666666</ele><time>2026-04-02T11:40:50.533Z</time></trkpt><trkpt lat="50.0137548" lon="1.915068"><ele>94.0</ele><time>2026-04-02T11:40:51.531Z</time></trkpt><trkpt lat="50.0136756" lon="1.914855"><ele>94.33333333333333</ele><time>2026-04-02T11:40:52.531Z</time></trkpt><trkpt lat="50.0135945" lon="1.9146399"><ele>94.66666666666667</ele><time>2026-04-02T11:40:53.532Z</time></trkpt><trkpt lat="50.013511" lon="1.9144289"><ele>95.0</ele><time>2026-04-02T11:40:54.532Z</time></trkpt><trkpt lat="50.0134242" lon="1.91422"><ele>95.0</ele><time>2026-04-02T11:40:55.532Z</time></trkpt><trkpt lat="50.0133334" lon="1.9140086"><ele>95.0</ele><time>2026-04-02T11:40:56.533Z</time></trkpt><trkpt lat="50.0132358" lon="1.9137989"><ele>95.0</ele><time>2026-04-02T11:40:57.532Z</time></trkpt><trkpt lat="50.0131392" lon="1.913608"><ele>95.0</ele><time>2026-04-02T11:40:58.531Z</time></trkpt><trkpt lat="50.0130489" lon="1.9134294"><ele>95.0</ele><time>2026-04-02T11:40:59.532Z</time></trkpt><trkpt lat="50.0129653" lon="1.9132647"><ele>95.0</ele><time>2026-04-02T11:41:00.532Z</time></trkpt><trkpt lat="50.0128961" lon="1.913113"><ele>95.0</ele><time>2026-04-02T11:41:01.532Z</time></trkpt><trkpt lat="50.0128408" lon="1.9129664"><ele>95.2</ele><time>2026-04-02T11:41:02.532Z</time></trkpt><trkpt lat="50.0127996" lon="1.9128166"><ele>95.4</ele><time>2026-04-02T11:41:03.532Z</time></trkpt><trkpt lat="50.0127724" lon="1.9126544"><ele>95.6</ele><time>2026-04-02T11:41:04.532Z</time></trkpt><trkpt lat="50.0127618" lon="1.9124764"><ele>95.8</ele><time>2026-04-02T11:41:05.532Z</time></trkpt><trkpt lat="50.0127619" lon="1.9122908"><ele>96.0</ele><time>2026-04-02T11:41:06.532Z</time></trkpt><trkpt lat="50.0127572" lon="1.9121025"><ele>96.6</ele><time>2026-04-02T11:41:07.532Z</time></trkpt><trkpt lat="50.0127437" lon="1.9119185"><ele>97.19999999999999</ele><time>2026-04-02T11:41:08.532Z</time></trkpt><trkpt lat="50.0127289" lon="1.9117397"><ele>97.80000000000001</ele><time>2026-04-02T11:41:09.532Z</time></trkpt><trkpt lat="50.0127114" lon="1.9115737"><ele>98.4</ele><time>2026-04-02T11:41:10.533Z</time></trkpt><trkpt lat="50.0126843" lon="1.911425"><ele>99.0</ele><time>2026-04-02T11:41:11.532Z</time></trkpt><trkpt lat="50.0126559" lon="1.9112877"><ele>99.33333333333333</ele><time>2026-04-02T11:41:12.532Z</time></trkpt><trkpt lat="50.0126304" lon="1.9111669"><ele>99.66666666666666</ele><time>2026-04-02T11:41:13.532Z</time></trkpt><trkpt lat="50.0126011" lon="1.9110599"><ele>100.0</ele><time>2026-04-02T11:41:14.532Z</time></trkpt><trkpt lat="50.0125728" lon="1.9109633"><ele>100.33333333333333</ele><time>2026-04-02T11:41:15.532Z</time></trkpt><trkpt lat="50.0125259" lon="1.910831"><ele>100.66666666666666</ele><time>2026-04-02T11:41:17.533Z</time></trkpt><trkpt lat="50.0124676" lon="1.9107381"><ele>101.0</ele><time>2026-04-02T11:41:20.531Z</time></trkpt><trkpt lat="50.0123918" lon="1.9107494"><ele>101.16666666666666</ele><time>2026-04-02T11:41:22.531Z</time></trkpt><trkpt lat="50.0122821" lon="1.9108075"><ele>101.33333333333333</ele><time>2026-04-02T11:41:24.531Z</time></trkpt><trkpt lat="50.0122161" lon="1.9108265"><ele>101.5</ele><time>2026-04-02T11:41:25.531Z</time></trkpt><trkpt lat="50.01214" lon="1.9108473"><ele>101.66666666666666</ele><time>2026-04-02T11:41:26.531Z</time></trkpt><trkpt lat="50.0120607" lon="1.9108693"><ele>101.83333333333333</ele><time>2026-04-02T11:41:27.532Z</time></trkpt><trkpt lat="50.0119837" lon="1.9108867"><ele>102.0</ele><time>2026-04-02T11:41:28.53Z</time></trkpt><trkpt lat="50.0119087" lon="1.9108916"><ele>102.0</ele><time>2026-04-02T11:41:29.531Z</time></trkpt><trkpt lat="50.011845" lon="1.9108526"><ele>102.0</ele><time>2026-04-02T11:41:30.531Z</time></trkpt><trkpt lat="50.0117933" lon="1.9107656"><ele>102.0</ele><time>2026-04-02T11:41:31.531Z</time></trkpt><trkpt lat="50.0117611" lon="1.9106345"><ele>102.0</ele><time>2026-04-02T11:41:32.531Z</time></trkpt><trkpt lat="50.011748" lon="1.9104759"><ele>102.0</ele><time>2026-04-02T11:41:33.532Z</time></trkpt><trkpt lat="50.0117292" lon="1.9103231"><ele>102.0</ele><time>2026-04-02T11:41:34.531Z</time></trkpt><trkpt lat="50.0117048" lon="1.9101758"><ele>102.0</ele><time>2026-04-02T11:41:35.531Z</time></trkpt><trkpt lat="50.0116825" lon="1.9100275"><ele>102.0</ele><time>2026-04-02T11:41:36.532Z</time></trkpt><trkpt lat="50.0116547" lon="1.9098854"><ele>102.0</ele><time>2026-04-02T11:41:37.531Z</time></trkpt><trkpt lat="50.0116132" lon="1.9097544"><ele>102.0</ele><time>2026-04-02T11:41:38.531Z</time></trkpt><trkpt lat="50.0115621" lon="1.9096276"><ele>102.0</ele><time>2026-04-02T11:41:39.532Z</time></trkpt><trkpt lat="50.0115021" lon="1.9095041"><ele>102.19999999999999</ele><time>2026-04-02T11:41:40.531Z</time></trkpt><trkpt lat="50.0114385" lon="1.909385"><ele>102.4</ele><time>2026-04-02T11:41:41.531Z</time></trkpt><trkpt lat="50.0113805" lon="1.9092665"><ele>102.6</ele><time>2026-04-02T11:41:42.532Z</time></trkpt><trkpt lat="50.0113271" lon="1.9091464"><ele>102.80000000000001</ele><time>2026-04-02T11:41:43.531Z</time></trkpt><trkpt lat="50.011282" lon="1.9090204"><ele>103.0</ele><time>2026-04-02T11:41:44.53Z</time></trkpt><trkpt lat="50.0112484" lon="1.908877"><ele>103.2</ele><time>2026-04-02T11:41:45.531Z</time></trkpt><trkpt lat="50.0112272" lon="1.9087188"><ele>103.4</ele><time>2026-04-02T11:41:46.531Z</time></trkpt><trkpt lat="50.0112185" lon="1.9085559"><ele>103.60000000000001</ele><time>2026-04-02T11:41:47.532Z</time></trkpt><trkpt lat="50.0112139" lon="1.9083904"><ele>103.80000000000001</ele><time>2026-04-02T11:41:48.531Z</time></trkpt><trkpt lat="50.0112084" lon="1.9082245"><ele>104.0</ele><time>2026-04-02T11:41:49.532Z</time></trkpt><trkpt lat="50.0112024" lon="1.9080546"><ele>104.0</ele><time>2026-04-02T11:41:50.531Z</time></trkpt><trkpt lat="50.0111999" lon="1.9078841"><ele>104.0</ele><time>2026-04-02T11:41:51.531Z</time></trkpt><trkpt lat="50.0111995" lon="1.9077162"><ele>104.0</ele><time>2026-04-02T11:41:52.531Z</time></trkpt><trkpt lat="50.0111999" lon="1.9075465"><ele>104.0</ele><time>2026-04-02T11:41:53.531Z</time></trkpt><trkpt lat="50.0111964" lon="1.9073744"><ele>104.0</ele><time>2026-04-02T11:41:54.531Z</time></trkpt><trkpt lat="50.0111888" lon="1.9072072"><ele>104.2</ele><time>2026-04-02T11:41:55.532Z</time></trkpt><trkpt lat="50.0111791" lon="1.9070439"><ele>104.4</ele><time>2026-04-02T11:41:56.53Z</time></trkpt><trkpt lat="50.0111727" lon="1.9068824"><ele>104.6</ele><time>2026-04-02T11:41:57.532Z</time></trkpt><trkpt lat="50.0111732" lon="1.9067255"><ele>104.8</ele><time>2026-04-02T11:41:58.531Z</time></trkpt><trkpt lat="50.0111783" lon="1.9065627"><ele>105.0</ele><time>2026-04-02T11:41:59.531Z</time></trkpt><trkpt lat="50.0111767" lon="1.9063934"><ele>105.0</ele><time>2026-04-02T11:42:00.531Z</time></trkpt><trkpt lat="50.0111721" lon="1.9062246"><ele>105.0</ele><time>2026-04-02T11:42:01.531Z</time></trkpt><trkpt lat="50.0111687" lon="1.90606"><ele>105.0</ele><time>2026-04-02T11:42:02.532Z</time></trkpt><trkpt lat="50.0111644" lon="1.9058978"><ele>105.0</ele><time>2026-04-02T11:42:03.532Z</time></trkpt><trkpt lat="50.0111599" lon="1.9057366"><ele>105.0</ele><time>2026-04-02T11:42:04.531Z</time></trkpt><trkpt lat="50.0111568" lon="1.9055737"><ele>105.4</ele><time>2026-04-02T11:42:05.531Z</time></trkpt><trkpt lat="50.0111509" lon="1.9054057"><ele>105.8</ele><time>2026-04-02T11:42:06.531Z</time></trkpt><trkpt lat="50.0111487" lon="1.9052368"><ele>106.19999999999999</ele><time>2026-04-02T11:42:07.53Z</time></trkpt><trkpt lat="50.0111457" lon="1.9050684"><ele>106.6</ele><time>2026-04-02T11:42:08.53Z</time></trkpt><trkpt lat="50.0111441" lon="1.904898"><ele>107.0</ele><time>2026-04-02T11:42:09.531Z</time></trkpt><trkpt lat="50.0111395" lon="1.9047298"><ele>107.19999999999999</ele><time>2026-04-02T11:42:10.531Z</time></trkpt><trkpt lat="50.0111342" lon="1.9045626"><ele>107.39999999999999</ele><time>2026-04-02T11:42:11.531Z</time></trkpt><trkpt lat="50.0111303" lon="1.904398"><ele>107.60000000000001</ele><time>2026-04-02T11:42:12.531Z</time></trkpt><trkpt lat="50.0111276" lon="1.9042361"><ele>107.80000000000001</ele><time>2026-04-02T11:42:13.532Z</time></trkpt><trkpt lat="50.0111241" lon="1.9040787"><ele>108.0</ele><time>2026-04-02T11:42:14.531Z</time></trkpt><trkpt lat="50.0111192" lon="1.903937"><ele>108.16666666666667</ele><time>2026-04-02T11:42:15.531Z</time></trkpt><trkpt lat="50.0111171" lon="1.9038148"><ele>108.33333333333334</ele><time>2026-04-02T11:42:16.531Z</time></trkpt><trkpt lat="50.0111163" lon="1.9037096"><ele>108.5</ele><time>2026-04-02T11:42:17.531Z</time></trkpt><trkpt lat="50.0111152" lon="1.9035649"><ele>108.66666666666667</ele><time>2026-04-02T11:42:19.531Z</time></trkpt><trkpt lat="50.011106" lon="1.9034335"><ele>108.83333333333334</ele><time>2026-04-02T11:42:24.532Z</time></trkpt><trkpt lat="50.011094" lon="1.9032565"><ele>109.0</ele><time>2026-04-02T11:42:26.531Z</time></trkpt><trkpt lat="50.0110844" lon="1.9031443"><ele>109.16666666666667</ele><time>2026-04-02T11:42:27.531Z</time></trkpt><trkpt lat="50.0110764" lon="1.903014"><ele>109.33333333333334</ele><time>2026-04-02T11:42:28.531Z</time></trkpt><trkpt lat="50.0110665" lon="1.9028794"><ele>109.5</ele><time>2026-04-02T11:42:29.531Z</time></trkpt><trkpt lat="50.011053" lon="1.902742"><ele>109.66666666666666</ele><time>2026-04-02T11:42:30.531Z</time></trkpt><trkpt lat="50.0110437" lon="1.9026019"><ele>109.83333333333333</ele><time>2026-04-02T11:42:31.53Z</time></trkpt><trkpt lat="50.0110321" lon="1.9024552"><ele>110.0</ele><time>2026-04-02T11:42:32.531Z</time></trkpt><trkpt lat="50.0110195" lon="1.902303"><ele>110.0</ele><time>2026-04-02T11:42:33.531Z</time></trkpt><trkpt lat="50.0110058" lon="1.9021508"><ele>110.0</ele><time>2026-04-02T11:42:34.531Z</time></trkpt><trkpt lat="50.010992" lon="1.9019964"><ele>110.0</ele><time>2026-04-02T11:42:35.531Z</time></trkpt><trkpt lat="50.010971" lon="1.9018329"><ele>110.0</ele><time>2026-04-02T11:42:36.531Z</time></trkpt><trkpt lat="50.0109411" lon="1.9016701"><ele>110.0</ele><time>2026-04-02T11:42:37.531Z</time></trkpt><trkpt lat="50.0109014" lon="1.9015074"><ele>110.0</ele><time>2026-04-02T11:42:38.532Z</time></trkpt><trkpt lat="50.0108492" lon="1.9013433"><ele>110.0</ele><time>2026-04-02T11:42:39.53Z</time></trkpt><trkpt lat="50.0107982" lon="1.9011917"><ele>110.0</ele><time>2026-04-02T11:42:40.532Z</time></trkpt><trkpt lat="50.0107549" lon="1.9010544"><ele>110.0</ele><time>2026-04-02T11:42:41.531Z</time></trkpt><trkpt lat="50.0107197" lon="1.9009316"><ele>110.0</ele><time>2026-04-02T11:42:42.531Z</time></trkpt><trkpt lat="50.0106892" lon="1.9008225"><ele>110.6</ele><time>2026-04-02T11:42:43.53Z</time></trkpt><trkpt lat="50.010651" lon="1.9007149"><ele>111.2</ele><time>2026-04-02T11:42:44.532Z</time></trkpt><trkpt lat="50.0106115" lon="1.9005926"><ele>111.80000000000001</ele><time>2026-04-02T11:42:45.531Z</time></trkpt><trkpt lat="50.0105623" lon="1.9004519"><ele>112.4</ele><time>2026-04-02T11:42:46.531Z</time></trkpt><trkpt lat="50.0105118" lon="1.9003022"><ele>113.0</ele><time>2026-04-02T11:42:47.531Z</time></trkpt><trkpt lat="50.0104646" lon="1.900148"><ele>113.2</ele><time>2026-04-02T11:42:48.531Z</time></trkpt><trkpt lat="50.0104166" lon="1.8999984"><ele>113.4</ele><time>2026-04-02T11:42:49.531Z</time></trkpt><trkpt lat="50.0103727" lon="1.8998585"><ele>113.60000000000001</ele><time>2026-04-02T11:42:50.531Z</time></trkpt><trkpt lat="50.0103342" lon="1.8997363"><ele>113.80000000000001</ele><time>2026-04-02T11:42:51.531Z</time></trkpt><trkpt lat="50.0102993" lon="1.8996311"><ele>114.0</ele><time>2026-04-02T11:42:52.53Z</time></trkpt><trkpt lat="50.0102639" lon="1.8994836"><ele>114.0</ele><time>2026-04-02T11:42:54.531Z</time></trkpt><trkpt lat="50.0101938" lon="1.8993277"><ele>114.0</ele><time>2026-04-02T11:44:25.531Z</time></trkpt><trkpt lat="50.0101426" lon="1.8992074"><ele>114.0</ele><time>2026-04-02T11:44:26.531Z</time></trkpt><trkpt lat="50.0100892" lon="1.8990677"><ele>114.0</ele><time>2026-04-02T11:44:27.531Z</time></trkpt><trkpt lat="50.0100316" lon="1.898914"><ele>114.0</ele><time>2026-04-02T11:44:28.531Z</time></trkpt><trkpt lat="50.0099679" lon="1.8987473"><ele>114.0</ele><time>2026-04-02T11:44:29.531Z</time></trkpt><trkpt lat="50.009899" lon="1.8985682"><ele>114.0</ele><time>2026-04-02T11:44:30.532Z</time></trkpt><trkpt lat="50.0098277" lon="1.898382"><ele>114.0</ele><time>2026-04-02T11:44:31.532Z</time></trkpt><trkpt lat="50.0097536" lon="1.8981949"><ele>114.0</ele><time>2026-04-02T11:44:32.532Z</time></trkpt><trkpt lat="50.0096791" lon="1.8980153"><ele>114.0</ele><time>2026-04-02T11:44:33.532Z</time></trkpt><trkpt lat="50.0096089" lon="1.8978482"><ele>114.0</ele><time>2026-04-02T11:44:34.531Z</time></trkpt><trkpt lat="50.009546" lon="1.897697"><ele>114.0</ele><time>2026-04-02T11:44:35.531Z</time></trkpt><trkpt lat="50.0094889" lon="1.897561"><ele>114.0</ele><time>2026-04-02T11:44:36.53Z</time></trkpt><trkpt lat="50.0094264" lon="1.8974275"><ele>114.0</ele><time>2026-04-02T11:44:37.531Z</time></trkpt><trkpt lat="50.0093512" lon="1.8972975"><ele>114.0</ele><time>2026-04-02T11:44:38.532Z</time></trkpt><trkpt lat="50.009263" lon="1.8971747"><ele>114.0</ele><time>2026-04-02T11:44:39.531Z</time></trkpt><trkpt lat="50.0091649" lon="1.8970496"><ele>114.0</ele><time>2026-04-02T11:44:40.532Z</time></trkpt><trkpt lat="50.0090627" lon="1.8969234"><ele>114.0</ele><time>2026-04-02T11:44:41.531Z</time></trkpt><trkpt lat="50.0089545" lon="1.8967895"><ele>114.0</ele><time>2026-04-02T11:44:42.531Z</time></trkpt><trkpt lat="50.0088408" lon="1.8966495"><ele>114.0</ele><time>2026-04-02T11:44:43.532Z</time></trkpt><trkpt lat="50.0087272" lon="1.896508"><ele>114.0</ele><time>2026-04-02T11:44:44.531Z</time></trkpt><trkpt lat="50.0086122" lon="1.8963665"><ele>114.0</ele><time>2026-04-02T11:44:45.531Z</time></trkpt><trkpt lat="50.0084966" lon="1.8962263"><ele>114.0</ele><time>2026-04-02T11:44:46.531Z</time></trkpt><trkpt lat="50.0083806" lon="1.8960859"><ele>114.0</ele><time>2026-04-02T11:44:47.531Z</time></trkpt><trkpt lat="50.0082655" lon="1.895945"><ele>114.0</ele><time>2026-04-02T11:44:48.531Z</time></trkpt><trkpt lat="50.0081478" lon="1.895803"><ele>114.0</ele><time>2026-04-02T11:44:49.531Z</time></trkpt><trkpt lat="50.0080293" lon="1.8956635"><ele>114.0</ele><time>2026-04-02T11:44:50.531Z</time></trkpt><trkpt lat="50.0079106" lon="1.8955248"><ele>114.0</ele><time>2026-04-02T11:44:51.531Z</time></trkpt><trkpt lat="50.0077925" lon="1.8953869"><ele>114.0</ele><time>2026-04-02T11:44:52.531Z</time></trkpt><trkpt lat="50.0076789" lon="1.8952514"><ele>114.0</ele><time>2026-04-02T11:44:53.532Z</time></trkpt><trkpt lat="50.0075659" lon="1.8951183"><ele>114.0</ele><time>2026-04-02T11:44:54.531Z</time></trkpt><trkpt lat="50.0074498" lon="1.8949801"><ele>114.0</ele><time>2026-04-02T11:44:55.532Z</time></trkpt><trkpt lat="50.0073351" lon="1.8948412"><ele>114.0</ele><time>2026-04-02T11:44:56.531Z</time></trkpt><trkpt lat="50.0072237" lon="1.8947078"><ele>114.25</ele><time>2026-04-02T11:44:57.531Z</time></trkpt><trkpt lat="50.0071149" lon="1.8945734"><ele>114.5</ele><time>2026-04-02T11:44:58.532Z</time></trkpt><trkpt lat="50.0070097" lon="1.8944452"><ele>114.75</ele><time>2026-04-02T11:44:59.531Z</time></trkpt><trkpt lat="50.0069113" lon="1.8943229"><ele>115.0</ele><time>2026-04-02T11:45:00.532Z</time></trkpt><trkpt lat="50.0068224" lon="1.8942104"><ele>115.0</ele><time>2026-04-02T11:45:01.532Z</time></trkpt><trkpt lat="50.0067361" lon="1.8941074"><ele>115.0</ele><time>2026-04-02T11:45:02.531Z</time></trkpt><trkpt lat="50.0066603" lon="1.8940147"><ele>115.0</ele><time>2026-04-02T11:45:03.531Z</time></trkpt><trkpt lat="50.0065939" lon="1.8939322"><ele>115.0</ele><time>2026-04-02T11:45:04.531Z</time></trkpt><trkpt lat="50.0065344" lon="1.8938566"><ele>115.0</ele><time>2026-04-02T11:45:05.532Z</time></trkpt><trkpt lat="50.0064681" lon="1.8937739"><ele>115.2</ele><time>2026-04-02T11:45:06.531Z</time></trkpt><trkpt lat="50.0064042" lon="1.8936828"><ele>115.4</ele><time>2026-04-02T11:45:07.531Z</time></trkpt><trkpt lat="50.0063319" lon="1.8935796"><ele>115.6</ele><time>2026-04-02T11:45:08.531Z</time></trkpt><trkpt lat="50.0062501" lon="1.8934598"><ele>115.8</ele><time>2026-04-02T11:45:09.531Z</time></trkpt><trkpt lat="50.0061663" lon="1.8933241"><ele>116.0</ele><time>2026-04-02T11:45:10.532Z</time></trkpt><trkpt lat="50.006071" lon="1.8931742"><ele>116.0</ele><time>2026-04-02T11:45:11.531Z</time></trkpt><trkpt lat="50.0059709" lon="1.8930131"><ele>116.0</ele><time>2026-04-02T11:45:12.532Z</time></trkpt><trkpt lat="50.0058687" lon="1.8928451"><ele>116.0</ele><time>2026-04-02T11:45:13.532Z</time></trkpt><trkpt lat="50.0057644" lon="1.8926683"><ele>116.0</ele><time>2026-04-02T11:45:14.531Z</time></trkpt><trkpt lat="50.0056569" lon="1.8924799"><ele>116.66666666666666</ele><time>2026-04-02T11:45:15.532Z</time></trkpt><trkpt lat="50.0055489" lon="1.8922793"><ele>117.33333333333334</ele><time>2026-04-02T11:45:16.53Z</time></trkpt><trkpt lat="50.0054376" lon="1.8920727"><ele>118.0</ele><time>2026-04-02T11:45:17.531Z</time></trkpt><trkpt lat="50.0053262" lon="1.891859"><ele>118.0</ele><time>2026-04-02T11:45:18.532Z</time></trkpt><trkpt lat="50.0052132" lon="1.8916379"><ele>118.0</ele><time>2026-04-02T11:45:19.531Z</time></trkpt><trkpt lat="50.0050997" lon="1.8914138"><ele>118.0</ele><time>2026-04-02T11:45:20.531Z</time></trkpt><trkpt lat="50.0049868" lon="1.8911913"><ele>117.66666666666667</ele><time>2026-04-02T11:45:21.531Z</time></trkpt><trkpt lat="50.0048722" lon="1.8909712"><ele>117.33333333333334</ele><time>2026-04-02T11:45:22.53Z</time></trkpt><trkpt lat="50.0047565" lon="1.8907456"><ele>117.0</ele><time>2026-04-02T11:45:23.532Z</time></trkpt><trkpt lat="50.0046411" lon="1.8905255"><ele>116.66666666666666</ele><time>2026-04-02T11:45:24.532Z</time></trkpt><trkpt lat="50.0045281" lon="1.8903049"><ele>116.33333333333333</ele><time>2026-04-02T11:45:25.532Z</time></trkpt><trkpt lat="50.0044123" lon="1.8900782"><ele>116.0</ele><time>2026-04-02T11:45:26.533Z</time></trkpt><trkpt lat="50.0042969" lon="1.8898542"><ele>116.0</ele><time>2026-04-02T11:45:27.532Z</time></trkpt><trkpt lat="50.0041844" lon="1.889637"><ele>116.0</ele><time>2026-04-02T11:45:28.532Z</time></trkpt><trkpt lat="50.0040719" lon="1.889422"><ele>116.0</ele><time>2026-04-02T11:45:29.532Z</time></trkpt><trkpt lat="50.0039625" lon="1.8892155"><ele>116.0</ele><time>2026-04-02T11:45:30.533Z</time></trkpt><trkpt lat="50.0038533" lon="1.8890104"><ele>116.0</ele><time>2026-04-02T11:45:31.532Z</time></trkpt><trkpt lat="50.0037361" lon="1.8888114"><ele>116.0</ele><time>2026-04-02T11:45:32.532Z</time></trkpt><trkpt lat="50.0036054" lon="1.8886328"><ele>116.0</ele><time>2026-04-02T11:45:33.531Z</time></trkpt><trkpt lat="50.0034634" lon="1.8884765"><ele>116.0</ele><time>2026-04-02T11:45:34.533Z</time></trkpt><trkpt lat="50.0033116" lon="1.8883466"><ele>116.0</ele><time>2026-04-02T11:45:35.532Z</time></trkpt><trkpt lat="50.0031525" lon="1.8882258"><ele>115.66666666666666</ele><time>2026-04-02T11:45:36.532Z</time></trkpt><trkpt lat="50.002989" lon="1.8881061"><ele>115.33333333333334</ele><time>2026-04-02T11:45:37.531Z</time></trkpt><trkpt lat="50.0028248" lon="1.8879785"><ele>115.0</ele><time>2026-04-02T11:45:38.531Z</time></trkpt><trkpt lat="50.0026639" lon="1.8878486"><ele>115.0</ele><time>2026-04-02T11:45:39.532Z</time></trkpt><trkpt lat="50.0025068" lon="1.8877251"><ele>115.0</ele><time>2026-04-02T11:45:40.532Z</time></trkpt><trkpt lat="50.0023485" lon="1.8876015"><ele>115.0</ele><time>2026-04-02T11:45:41.532Z</time></trkpt><trkpt lat="50.0021896" lon="1.8874795"><ele>115.0</ele><time>2026-04-02T11:45:42.532Z</time></trkpt><trkpt lat="50.0020271" lon="1.8873554"><ele>115.0</ele><time>2026-04-02T11:45:43.532Z</time></trkpt><trkpt lat="50.0018622" lon="1.8872265"><ele>115.0</ele><time>2026-04-02T11:45:44.532Z</time></trkpt><trkpt lat="50.0016921" lon="1.8870974"><ele>115.0</ele><time>2026-04-02T11:45:45.532Z</time></trkpt><trkpt lat="50.0015202" lon="1.8869623"><ele>115.0</ele><time>2026-04-02T11:45:46.531Z</time></trkpt><trkpt lat="50.0013495" lon="1.8868287"><ele>115.0</ele><time>2026-04-02T11:45:47.532Z</time></trkpt><trkpt lat="50.0011818" lon="1.8866991"><ele>115.0</ele><time>2026-04-02T11:45:48.532Z</time></trkpt><trkpt lat="50.0010174" lon="1.8865716"><ele>115.0</ele><time>2026-04-02T11:45:49.532Z</time></trkpt><trkpt lat="50.0008567" lon="1.8864471"><ele>115.0</ele><time>2026-04-02T11:45:50.533Z</time></trkpt><trkpt lat="50.0006904" lon="1.8863193"><ele>115.33333333333334</ele><time>2026-04-02T11:45:51.531Z</time></trkpt><trkpt lat="50.0005243" lon="1.8861931"><ele>115.66666666666666</ele><time>2026-04-02T11:45:52.532Z</time></trkpt><trkpt lat="50.0003614" lon="1.8860648"><ele>116.0</ele><time>2026-04-02T11:45:53.532Z</time></trkpt><trkpt lat="50.000193" lon="1.8859359"><ele>116.0</ele><time>2026-04-02T11:45:54.533Z</time></trkpt><trkpt lat="50.0000288" lon="1.8858086"><ele>116.0</ele><time>2026-04-02T11:45:55.532Z</time></trkpt><trkpt lat="49.9998652" lon="1.8856788"><ele>116.0</ele><time>2026-04-02T11:45:56.533Z</time></trkpt><trkpt lat="49.999705" lon="1.8855536"><ele>116.0</ele><time>2026-04-02T11:45:57.532Z</time></trkpt><trkpt lat="49.9995473" lon="1.8854342"><ele>116.0</ele><time>2026-04-02T11:45:58.532Z</time></trkpt><trkpt lat="49.9993964" lon="1.8853193"><ele>116.0</ele><time>2026-04-02T11:45:59.532Z</time></trkpt><trkpt lat="49.9992498" lon="1.8852082"><ele>116.0</ele><time>2026-04-02T11:46:00.532Z</time></trkpt><trkpt lat="49.9991083" lon="1.8850995"><ele>116.0</ele><time>2026-04-02T11:46:01.531Z</time></trkpt><trkpt lat="49.9989715" lon="1.8849926"><ele>116.0</ele><time>2026-04-02T11:46:02.532Z</time></trkpt><trkpt lat="49.9988343" lon="1.8848864"><ele>115.75</ele><time>2026-04-02T11:46:03.532Z</time></trkpt><trkpt lat="49.9987063" lon="1.8847863"><ele>115.5</ele><time>2026-04-02T11:46:04.532Z</time></trkpt><trkpt lat="49.9985809" lon="1.8846875"><ele>115.25</ele><time>2026-04-02T11:46:05.532Z</time></trkpt><trkpt lat="49.9984587" lon="1.8845904"><ele>115.0</ele><time>2026-04-02T11:46:06.531Z</time></trkpt><trkpt lat="49.9983321" lon="1.8844903"><ele>115.0</ele><time>2026-04-02T11:46:07.532Z</time></trkpt><trkpt lat="49.9982096" lon="1.884392"><ele>115.0</ele><time>2026-04-02T11:46:08.532Z</time></trkpt><trkpt lat="49.9980857" lon="1.884295"><ele>115.0</ele><time>2026-04-02T11:46:09.532Z</time></trkpt><trkpt lat="49.9979632" lon="1.8841928"><ele>115.0</ele><time>2026-04-02T11:46:10.532Z</time></trkpt><trkpt lat="49.9978422" lon="1.8840925"><ele>115.0</ele><time>2026-04-02T11:46:11.532Z</time></trkpt><trkpt lat="49.9977231" lon="1.8839938"><ele>115.0</ele><time>2026-04-02T11:46:12.532Z</time></trkpt><trkpt lat="49.9976057" lon="1.8838944"><ele>115.0</ele><time>2026-04-02T11:46:13.532Z</time></trkpt><trkpt lat="49.9974895" lon="1.8837944"><ele>115.0</ele><time>2026-04-02T11:46:14.531Z</time></trkpt><trkpt lat="49.997374" lon="1.8836952"><ele>115.0</ele><time>2026-04-02T11:46:15.533Z</time></trkpt><trkpt lat="49.9972604" lon="1.8835937"><ele>115.0</ele><time>2026-04-02T11:46:16.532Z</time></trkpt><trkpt lat="49.9971487" lon="1.8834908"><ele>115.0</ele><time>2026-04-02T11:46:17.533Z</time></trkpt><trkpt lat="49.9970351" lon="1.8833916"><ele>115.0</ele><time>2026-04-02T11:46:18.532Z</time></trkpt><trkpt lat="49.996924" lon="1.8832923"><ele>115.0</ele><time>2026-04-02T11:46:19.532Z</time></trkpt><trkpt lat="49.996813" lon="1.8831947"><ele>115.0</ele><time>2026-04-02T11:46:20.533Z</time></trkpt><trkpt lat="49.9967016" lon="1.8830988"><ele>115.0</ele><time>2026-04-02T11:46:21.532Z</time></trkpt><trkpt lat="49.9965921" lon="1.8830037"><ele>115.0</ele><time>2026-04-02T11:46:22.532Z</time></trkpt><trkpt lat="49.9964844" lon="1.8829117"><ele>115.0</ele><time>2026-04-02T11:46:23.533Z</time></trkpt><trkpt lat="49.9963811" lon="1.8828249"><ele>115.0</ele><time>2026-04-02T11:46:24.532Z</time></trkpt><trkpt lat="49.9962855" lon="1.88275"><ele>115.0</ele><time>2026-04-02T11:46:25.532Z</time></trkpt><trkpt lat="49.9961951" lon="1.8826859"><ele>115.0</ele><time>2026-04-02T11:46:26.532Z</time></trkpt><trkpt lat="49.9961091" lon="1.8826302"><ele>115.0</ele><time>2026-04-02T11:46:27.532Z</time></trkpt><trkpt lat="49.9960185" lon="1.8825705"><ele>115.0</ele><time>2026-04-02T11:46:28.532Z</time></trkpt><trkpt lat="49.995927" lon="1.882517"><ele>115.0</ele><time>2026-04-02T11:46:29.533Z</time></trkpt><trkpt lat="49.9958336" lon="1.8824624"><ele>115.0</ele><time>2026-04-02T11:46:30.533Z</time></trkpt><trkpt lat="49.9957358" lon="1.8824072"><ele>115.0</ele><time>2026-04-02T11:46:31.532Z</time></trkpt><trkpt lat="49.9956359" lon="1.8823513"><ele>115.0</ele><time>2026-04-02T11:46:32.533Z</time></trkpt><trkpt lat="49.9955345" lon="1.8822945"><ele>114.8</ele><time>2026-04-02T11:46:33.532Z</time></trkpt><trkpt lat="49.995433" lon="1.8822376"><ele>114.6</ele><time>2026-04-02T11:46:34.532Z</time></trkpt><trkpt lat="49.9953354" lon="1.8821806"><ele>114.4</ele><time>2026-04-02T11:46:35.533Z</time></trkpt><trkpt lat="49.9952388" lon="1.8821291"><ele>114.2</ele><time>2026-04-02T11:46:36.531Z</time></trkpt><trkpt lat="49.9951433" lon="1.8820767"><ele>114.0</ele><time>2026-04-02T11:46:37.532Z</time></trkpt><trkpt lat="49.995042" lon="1.8820159"><ele>114.0</ele><time>2026-04-02T11:46:38.532Z</time></trkpt><trkpt lat="49.9949319" lon="1.8819546"><ele>114.0</ele><time>2026-04-02T11:46:39.533Z</time></trkpt><trkpt lat="49.9948222" lon="1.8818944"><ele>114.0</ele><time>2026-04-02T11:46:40.532Z</time></trkpt><trkpt lat="49.9947135" lon="1.8818348"><ele>114.0</ele><time>2026-04-02T11:46:41.533Z</time></trkpt><trkpt lat="49.9946062" lon="1.8817755"><ele>114.0</ele><time>2026-04-02T11:46:42.532Z</time></trkpt><trkpt lat="49.9944968" lon="1.8817164"><ele>114.0</ele><time>2026-04-02T11:46:43.533Z</time></trkpt><trkpt lat="49.9943885" lon="1.8816639"><ele>114.0</ele><time>2026-04-02T11:46:44.532Z</time></trkpt><trkpt lat="49.9942803" lon="1.8816113"><ele>114.0</ele><time>2026-04-02T11:46:45.532Z</time></trkpt><trkpt lat="49.99417" lon="1.8815582"><ele>114.0</ele><time>2026-04-02T11:46:46.533Z</time></trkpt><trkpt lat="49.9940595" lon="1.8815058"><ele>114.0</ele><time>2026-04-02T11:46:47.532Z</time></trkpt><trkpt lat="49.9939478" lon="1.8814565"><ele>114.0</ele><time>2026-04-02T11:46:48.533Z</time></trkpt><trkpt lat="49.9938368" lon="1.8814057"><ele>114.0</ele><time>2026-04-02T11:46:49.533Z</time></trkpt><trkpt lat="49.9937255" lon="1.8813579"><ele>114.0</ele><time>2026-04-02T11:46:50.532Z</time></trkpt><trkpt lat="49.9936159" lon="1.881306"><ele>114.0</ele><time>2026-04-02T11:46:51.533Z</time></trkpt><trkpt lat="49.9935063" lon="1.8812521"><ele>114.0</ele><time>2026-04-02T11:46:52.533Z</time></trkpt><trkpt lat="49.9934002" lon="1.8811931"><ele>114.0</ele><time>2026-04-02T11:46:53.532Z</time></trkpt><trkpt lat="49.9932939" lon="1.8811283"><ele>113.80000000000001</ele><time>2026-04-02T11:46:54.533Z</time></trkpt><trkpt lat="49.9931925" lon="1.881056"><ele>113.60000000000001</ele><time>2026-04-02T11:46:55.532Z</time></trkpt><trkpt lat="49.9930902" lon="1.8809864"><ele>113.4</ele><time>2026-04-02T11:46:56.532Z</time></trkpt><trkpt lat="49.9929905" lon="1.8809103"><ele>113.2</ele><time>2026-04-02T11:46:57.533Z</time></trkpt><trkpt lat="49.9928923" lon="1.8808331"><ele>113.0</ele><time>2026-04-02T11:46:58.532Z</time></trkpt><trkpt lat="49.9927955" lon="1.8807563"><ele>112.99999999999999</ele><time>2026-04-02T11:46:59.531Z</time></trkpt><trkpt lat="49.9927073" lon="1.8806882"><ele>113.0</ele><time>2026-04-02T11:47:00.532Z</time></trkpt><trkpt lat="49.9926296" lon="1.8806248"><ele>113.0</ele><time>2026-04-02T11:47:01.532Z</time></trkpt><trkpt lat="49.9925595" lon="1.8805636"><ele>113.0</ele><time>2026-04-02T11:47:02.532Z</time></trkpt><trkpt lat="49.9924961" lon="1.8805073"><ele>112.99999999999999</ele><time>2026-04-02T11:47:03.532Z</time></trkpt><trkpt lat="49.9924205" lon="1.8804561"><ele>113.0</ele><time>2026-04-02T11:47:04.533Z</time></trkpt><trkpt lat="49.992348" lon="1.8804013"><ele>112.99999999999999</ele><time>2026-04-02T11:47:05.532Z</time></trkpt><trkpt lat="49.9922795" lon="1.8803285"><ele>113.0</ele><time>2026-04-02T11:47:06.533Z</time></trkpt><trkpt lat="49.9922238" lon="1.8802376"><ele>113.0</ele><time>2026-04-02T11:47:07.532Z</time></trkpt><trkpt lat="49.9921784" lon="1.8801242"><ele>113.0</ele><time>2026-04-02T11:47:08.533Z</time></trkpt><trkpt lat="49.9921356" lon="1.8799957"><ele>112.99999999999999</ele><time>2026-04-02T11:47:09.532Z</time></trkpt><trkpt lat="49.9920929" lon="1.8798538"><ele>113.0</ele><time>2026-04-02T11:47:10.531Z</time></trkpt><trkpt lat="49.9920507" lon="1.8797087"><ele>113.0</ele><time>2026-04-02T11:47:11.532Z</time></trkpt><trkpt lat="49.9920074" lon="1.8795656"><ele>113.00000000000001</ele><time>2026-04-02T11:47:12.533Z</time></trkpt><trkpt lat="49.9919655" lon="1.8794245"><ele>113.00000000000001</ele><time>2026-04-02T11:47:13.531Z</time></trkpt><trkpt lat="49.991925" lon="1.8792836"><ele>113.0</ele><time>2026-04-02T11:47:14.533Z</time></trkpt><trkpt lat="49.9918852" lon="1.8791516"><ele>113.0</ele><time>2026-04-02T11:47:15.532Z</time></trkpt><trkpt lat="49.99185" lon="1.8790353"><ele>113.16666666666666</ele><time>2026-04-02T11:47:16.532Z</time></trkpt><trkpt lat="49.9918211" lon="1.8789264"><ele>113.33333333333333</ele><time>2026-04-02T11:47:17.532Z</time></trkpt><trkpt lat="49.991801" lon="1.8788012"><ele>113.5</ele><time>2026-04-02T11:47:18.532Z</time></trkpt><trkpt lat="49.9917888" lon="1.8786692"><ele>113.66666666666666</ele><time>2026-04-02T11:47:19.532Z</time></trkpt><trkpt lat="49.9917875" lon="1.8785308"><ele>113.83333333333333</ele><time>2026-04-02T11:47:20.533Z</time></trkpt><trkpt lat="49.9917988" lon="1.8783735"><ele>114.0</ele><time>2026-04-02T11:47:21.532Z</time></trkpt><trkpt lat="49.9918142" lon="1.8782278"><ele>114.0</ele><time>2026-04-02T11:47:22.533Z</time></trkpt><trkpt lat="49.9918333" lon="1.8780954"><ele>114.0</ele><time>2026-04-02T11:47:23.532Z</time></trkpt><trkpt lat="49.9918509" lon="1.8779717"><ele>114.0</ele><time>2026-04-02T11:47:24.532Z</time></trkpt><trkpt lat="49.9918663" lon="1.8778484"><ele>114.0</ele><time>2026-04-02T11:47:25.532Z</time></trkpt><trkpt lat="49.9918821" lon="1.8777215"><ele>114.0</ele><time>2026-04-02T11:47:26.533Z</time></trkpt><trkpt lat="49.9918927" lon="1.8776018"><ele>114.0</ele><time>2026-04-02T11:47:27.532Z</time></trkpt><trkpt lat="49.991897" lon="1.8774933"><ele>114.0</ele><time>2026-04-02T11:47:28.533Z</time></trkpt><trkpt lat="49.9918997" lon="1.8773017"><ele>114.0</ele><time>2026-04-02T11:47:30.533Z</time></trkpt><trkpt lat="49.9918972" lon="1.877152"><ele>114.0</ele><time>2026-04-02T11:47:32.532Z</time></trkpt><trkpt lat="49.991842" lon="1.8770472"><ele>114.0</ele><time>2026-04-02T11:47:34.532Z</time></trkpt><trkpt lat="49.9917786" lon="1.8770468"><ele>114.0</ele><time>2026-04-02T11:47:35.532Z</time></trkpt><trkpt lat="49.9917038" lon="1.8770789"><ele>114.0</ele><time>2026-04-02T11:47:36.532Z</time></trkpt><trkpt lat="49.9916212" lon="1.8771029"><ele>113.83333333333333</ele><time>2026-04-02T11:47:37.533Z</time></trkpt><trkpt lat="49.9915396" lon="1.8771372"><ele>113.66666666666666</ele><time>2026-04-02T11:47:38.533Z</time></trkpt><trkpt lat="49.991455" lon="1.8771802"><ele>113.5</ele><time>2026-04-02T11:47:39.532Z</time></trkpt><trkpt lat="49.9913694" lon="1.8772197"><ele>113.33333333333333</ele><time>2026-04-02T11:47:40.532Z</time></trkpt><trkpt lat="49.991282" lon="1.8772608"><ele>113.16666666666666</ele><time>2026-04-02T11:47:41.532Z</time></trkpt><trkpt lat="49.9911921" lon="1.8772959"><ele>113.0</ele><time>2026-04-02T11:47:42.532Z</time></trkpt><trkpt lat="49.9910964" lon="1.8773296"><ele>113.0</ele><time>2026-04-02T11:47:43.533Z</time></trkpt><trkpt lat="49.991" lon="1.8773594"><ele>113.00000000000001</ele><time>2026-04-02T11:47:44.532Z</time></trkpt><trkpt lat="49.9908933" lon="1.8773855"><ele>113.00000000000001</ele><time>2026-04-02T11:47:45.532Z</time></trkpt><trkpt lat="49.9907855" lon="1.8774098"><ele>113.0</ele><time>2026-04-02T11:47:46.533Z</time></trkpt><trkpt lat="49.9906747" lon="1.8774194"><ele>113.0</ele><time>2026-04-02T11:47:47.533Z</time></trkpt><trkpt lat="49.9905594" lon="1.8774223"><ele>113.2</ele><time>2026-04-02T11:47:48.532Z</time></trkpt><trkpt lat="49.9904491" lon="1.8774218"><ele>113.4</ele><time>2026-04-02T11:47:49.532Z</time></trkpt><trkpt lat="49.9903402" lon="1.8774166"><ele>113.60000000000001</ele><time>2026-04-02T11:47:50.532Z</time></trkpt><trkpt lat="49.9902316" lon="1.8774091"><ele>113.80000000000001</ele><time>2026-04-02T11:47:51.532Z</time></trkpt><trkpt lat="49.99012" lon="1.8774071"><ele>114.0</ele><time>2026-04-02T11:47:52.531Z</time></trkpt><trkpt lat="49.9900051" lon="1.8774055"><ele>114.25</ele><time>2026-04-02T11:47:53.532Z</time></trkpt><trkpt lat="49.9898897" lon="1.8774023"><ele>114.5</ele><time>2026-04-02T11:47:54.532Z</time></trkpt><trkpt lat="49.9897758" lon="1.8774047"><ele>114.75</ele><time>2026-04-02T11:47:55.532Z</time></trkpt><trkpt lat="49.9896639" lon="1.8774087"><ele>115.0</ele><time>2026-04-02T11:47:56.532Z</time></trkpt><trkpt lat="49.9895533" lon="1.8774174"><ele>115.0</ele><time>2026-04-02T11:47:57.532Z</time></trkpt><trkpt lat="49.9894452" lon="1.8774324"><ele>115.0</ele><time>2026-04-02T11:47:58.533Z</time></trkpt><trkpt lat="49.989338" lon="1.8774472"><ele>115.0</ele><time>2026-04-02T11:47:59.533Z</time></trkpt><trkpt lat="49.9892351" lon="1.8774625"><ele>115.0</ele><time>2026-04-02T11:48:00.533Z</time></trkpt><trkpt lat="49.9891341" lon="1.877477"><ele>115.0</ele><time>2026-04-02T11:48:01.532Z</time></trkpt><trkpt lat="49.9890286" lon="1.8774957"><ele>115.0</ele><time>2026-04-02T11:48:02.533Z</time></trkpt><trkpt lat="49.9889168" lon="1.8775116"><ele>115.0</ele><time>2026-04-02T11:48:03.533Z</time></trkpt><trkpt lat="49.9888052" lon="1.8775213"><ele>115.0</ele><time>2026-04-02T11:48:04.532Z</time></trkpt><trkpt lat="49.9886896" lon="1.8775316"><ele>115.0</ele><time>2026-04-02T11:48:05.532Z</time></trkpt><trkpt lat="49.9885697" lon="1.8775449"><ele>115.0</ele><time>2026-04-02T11:48:06.533Z</time></trkpt><trkpt lat="49.9884446" lon="1.8775568"><ele>115.0</ele><time>2026-04-02T11:48:07.532Z</time></trkpt><trkpt lat="49.9883145" lon="1.8775711"><ele>115.0</ele><time>2026-04-02T11:48:08.532Z</time></trkpt><trkpt lat="49.9881994" lon="1.8775764"><ele>115.0</ele><time>2026-04-02T11:48:09.533Z</time></trkpt><trkpt lat="49.9880904" lon="1.8775861"><ele>115.00000000000001</ele><time>2026-04-02T11:48:10.532Z</time></trkpt><trkpt lat="49.9879903" lon="1.8775967"><ele>115.0</ele><time>2026-04-02T11:48:11.532Z</time></trkpt><trkpt lat="49.9879041" lon="1.8776044"><ele>115.0</ele><time>2026-04-02T11:48:12.532Z</time></trkpt><trkpt lat="49.9878272" lon="1.8776107"><ele>115.0</ele><time>2026-04-02T11:48:13.533Z</time></trkpt><trkpt lat="49.9877599" lon="1.8776128"><ele>115.00000000000001</ele><time>2026-04-02T11:48:14.532Z</time></trkpt><trkpt lat="49.9876931" lon="1.8776111"><ele>115.0</ele><time>2026-04-02T11:48:15.532Z</time></trkpt><trkpt lat="49.9875885" lon="1.8775293"><ele>115.0</ele><time>2026-04-02T11:48:17.531Z</time></trkpt><trkpt lat="49.9875603" lon="1.8773484"><ele>115.0</ele><time>2026-04-02T11:48:19.533Z</time></trkpt><trkpt lat="49.9875825" lon="1.8772339"><ele>115.0</ele><time>2026-04-02T11:48:20.532Z</time></trkpt><trkpt lat="49.9876124" lon="1.8770899"><ele>115.0</ele><time>2026-04-02T11:48:21.531Z</time></trkpt><trkpt lat="49.9876451" lon="1.8769426"><ele>115.0</ele><time>2026-04-02T11:48:22.532Z</time></trkpt><trkpt lat="49.9876811" lon="1.8768049"><ele>115.00000000000001</ele><time>2026-04-02T11:48:23.532Z</time></trkpt><trkpt lat="49.987714" lon="1.8766806"><ele>115.0</ele><time>2026-04-02T11:48:24.533Z</time></trkpt><trkpt lat="49.9877379" lon="1.8765767"><ele>115.0</ele><time>2026-04-02T11:48:25.532Z</time></trkpt><trkpt lat="49.987754" lon="1.8764679"><ele>115.0</ele><time>2026-04-02T11:48:26.532Z</time></trkpt><trkpt lat="49.9877563" lon="1.8763558"><ele>115.00000000000001</ele><time>2026-04-02T11:48:27.532Z</time></trkpt><trkpt lat="49.9877315" lon="1.8762452"><ele>115.0</ele><time>2026-04-02T11:48:28.533Z</time></trkpt><trkpt lat="49.987687" lon="1.8761534"><ele>115.0</ele><time>2026-04-02T11:48:29.532Z</time></trkpt><trkpt lat="49.987625" lon="1.876078"><ele>115.0</ele><time>2026-04-02T11:48:30.532Z</time></trkpt><trkpt lat="49.9875508" lon="1.8760126"><ele>115.0</ele><time>2026-04-02T11:48:31.532Z</time></trkpt><trkpt lat="49.9874715" lon="1.8759547"><ele>115.0</ele><time>2026-04-02T11:48:32.532Z</time></trkpt><trkpt lat="49.9873843" lon="1.8758909"><ele>115.0</ele><time>2026-04-02T11:48:33.533Z</time></trkpt><trkpt lat="49.9872883" lon="1.8758287"><ele>114.8</ele><time>2026-04-02T11:48:34.533Z</time></trkpt><trkpt lat="49.9871977" lon="1.8757633"><ele>114.6</ele><time>2026-04-02T11:48:35.532Z</time></trkpt><trkpt lat="49.9871107" lon="1.8757012"><ele>114.4</ele><time>2026-04-02T11:48:36.532Z</time></trkpt><trkpt lat="49.9870176" lon="1.8756364"><ele>114.2</ele><time>2026-04-02T11:48:37.532Z</time></trkpt><trkpt lat="49.9869142" lon="1.8755718"><ele>114.0</ele><time>2026-04-02T11:48:38.532Z</time></trkpt><trkpt lat="49.9868014" lon="1.8755044"><ele>114.0</ele><time>2026-04-02T11:48:39.533Z</time></trkpt><trkpt lat="49.9866836" lon="1.8754301"><ele>114.0</ele><time>2026-04-02T11:48:40.533Z</time></trkpt><trkpt lat="49.9865555" lon="1.8753506"><ele>114.0</ele><time>2026-04-02T11:48:41.532Z</time></trkpt><trkpt lat="49.9864196" lon="1.8752683"><ele>114.0</ele><time>2026-04-02T11:48:42.532Z</time></trkpt><trkpt lat="49.9862766" lon="1.8751761"><ele>113.33333333333334</ele><time>2026-04-02T11:48:43.533Z</time></trkpt><trkpt lat="49.9861309" lon="1.8750758"><ele>112.66666666666667</ele><time>2026-04-02T11:48:44.531Z</time></trkpt><trkpt lat="49.9859909" lon="1.8749558"><ele>112.0</ele><time>2026-04-02T11:48:45.532Z</time></trkpt><trkpt lat="49.9858536" lon="1.8748021"><ele>112.0</ele><time>2026-04-02T11:48:46.532Z</time></trkpt><trkpt lat="49.9857178" lon="1.8746308"><ele>112.0</ele><time>2026-04-02T11:48:47.532Z</time></trkpt><trkpt lat="49.9855841" lon="1.8744517"><ele>112.0</ele><time>2026-04-02T11:48:48.532Z</time></trkpt><trkpt lat="49.9854553" lon="1.8742694"><ele>112.0</ele><time>2026-04-02T11:48:49.533Z</time></trkpt><trkpt lat="49.98533" lon="1.8740866"><ele>112.0</ele><time>2026-04-02T11:48:50.532Z</time></trkpt><trkpt lat="49.985206" lon="1.8739086"><ele>112.0</ele><time>2026-04-02T11:48:51.532Z</time></trkpt><trkpt lat="49.9850849" lon="1.8737361"><ele>112.33333333333334</ele><time>2026-04-02T11:48:52.532Z</time></trkpt><trkpt lat="49.9849676" lon="1.8735643"><ele>112.66666666666666</ele><time>2026-04-02T11:48:53.533Z</time></trkpt><trkpt lat="49.9848507" lon="1.8733917"><ele>113.0</ele><time>2026-04-02T11:48:54.533Z</time></trkpt><trkpt lat="49.9847306" lon="1.8732123"><ele>113.0</ele><time>2026-04-02T11:48:55.532Z</time></trkpt><trkpt lat="49.9846129" lon="1.8730237"><ele>113.0</ele><time>2026-04-02T11:48:56.531Z</time></trkpt><trkpt lat="49.9845014" lon="1.8728114"><ele>113.0</ele><time>2026-04-02T11:48:57.533Z</time></trkpt><trkpt lat="49.9843983" lon="1.8725843"><ele>113.0</ele><time>2026-04-02T11:48:58.532Z</time></trkpt><trkpt lat="49.9843094" lon="1.8723354"><ele>113.0</ele><time>2026-04-02T11:48:59.533Z</time></trkpt><trkpt lat="49.9842372" lon="1.8720724"><ele>113.0</ele><time>2026-04-02T11:49:00.532Z</time></trkpt><trkpt lat="49.9841717" lon="1.8718026"><ele>112.66666666666666</ele><time>2026-04-02T11:49:01.531Z</time></trkpt><trkpt lat="49.9841039" lon="1.8715222"><ele>112.33333333333334</ele><time>2026-04-02T11:49:02.532Z</time></trkpt><trkpt lat="49.9840385" lon="1.8712397"><ele>112.0</ele><time>2026-04-02T11:49:03.532Z</time></trkpt><trkpt lat="49.9839713" lon="1.8709585"><ele>111.66666666666667</ele><time>2026-04-02T11:49:04.533Z</time></trkpt><trkpt lat="49.9839056" lon="1.8706935"><ele>111.33333333333334</ele><time>2026-04-02T11:49:05.532Z</time></trkpt><trkpt lat="49.9838371" lon="1.8704388"><ele>111.0</ele><time>2026-04-02T11:49:06.533Z</time></trkpt><trkpt lat="49.9837588" lon="1.8701892"><ele>111.0</ele><time>2026-04-02T11:49:07.533Z</time></trkpt><trkpt lat="49.9836746" lon="1.8699494"><ele>111.0</ele><time>2026-04-02T11:49:08.531Z</time></trkpt><trkpt lat="49.9835821" lon="1.8697154"><ele>111.0</ele><time>2026-04-02T11:49:09.532Z</time></trkpt><trkpt lat="49.9834913" lon="1.8694774"><ele>111.0</ele><time>2026-04-02T11:49:10.532Z</time></trkpt><trkpt lat="49.9834038" lon="1.8692473"><ele>111.0</ele><time>2026-04-02T11:49:11.532Z</time></trkpt><trkpt lat="49.9833171" lon="1.8690306"><ele>111.0</ele><time>2026-04-02T11:49:12.532Z</time></trkpt><trkpt lat="49.9832293" lon="1.8688163"><ele>111.0</ele><time>2026-04-02T11:49:13.531Z</time></trkpt><trkpt lat="49.9831443" lon="1.8686114"><ele>111.0</ele><time>2026-04-02T11:49:14.532Z</time></trkpt><trkpt lat="49.9830638" lon="1.8684235"><ele>111.0</ele><time>2026-04-02T11:49:15.533Z</time></trkpt><trkpt lat="49.9829865" lon="1.8682433"><ele>111.0</ele><time>2026-04-02T11:49:16.532Z</time></trkpt><trkpt lat="49.9829213" lon="1.8680825"><ele>111.0</ele><time>2026-04-02T11:49:17.533Z</time></trkpt><trkpt lat="49.9828621" lon="1.8679374"><ele>111.0</ele><time>2026-04-02T11:49:18.533Z</time></trkpt><trkpt lat="49.9828114" lon="1.8678029"><ele>111.0</ele><time>2026-04-02T11:49:19.533Z</time></trkpt><trkpt lat="49.9827685" lon="1.8676799"><ele>111.0</ele><time>2026-04-02T11:49:20.532Z</time></trkpt><trkpt lat="49.9827248" lon="1.8675748"><ele>111.0</ele><time>2026-04-02T11:49:21.532Z</time></trkpt><trkpt lat="49.9826866" lon="1.8674917"><ele>111.0</ele><time>2026-04-02T11:49:22.533Z</time></trkpt><trkpt lat="49.9826226" lon="1.8673776"><ele>111.0</ele><time>2026-04-02T11:49:24.531Z</time></trkpt><trkpt lat="49.9826631" lon="1.8675533"><ele>111.0</ele><time>2026-04-02T11:51:01.532Z</time></trkpt><trkpt lat="49.9827199" lon="1.8676728"><ele>111.0</ele><time>2026-04-02T11:51:02.533Z</time></trkpt><trkpt lat="49.9827787" lon="1.8678262"><ele>111.0</ele><time>2026-04-02T11:51:03.532Z</time></trkpt><trkpt lat="49.982851" lon="1.867987"><ele>111.0</ele><time>2026-04-02T11:51:04.533Z</time></trkpt><trkpt lat="49.9829254" lon="1.8681671"><ele>111.0</ele><time>2026-04-02T11:51:05.533Z</time></trkpt><trkpt lat="49.9830077" lon="1.8683542"><ele>111.0</ele><time>2026-04-02T11:51:06.532Z</time></trkpt><trkpt lat="49.9830927" lon="1.8685487"><ele>111.0</ele><time>2026-04-02T11:51:07.532Z</time></trkpt><trkpt lat="49.9831795" lon="1.8687525"><ele>111.0</ele><time>2026-04-02T11:51:08.532Z</time></trkpt><trkpt lat="49.983271" lon="1.8689631"><ele>111.0</ele><time>2026-04-02T11:51:09.532Z</time></trkpt><trkpt lat="49.9833651" lon="1.8691844"><ele>111.0</ele><time>2026-04-02T11:51:10.532Z</time></trkpt><trkpt lat="49.9834595" lon="1.8694129"><ele>111.0</ele><time>2026-04-02T11:51:11.532Z</time></trkpt><trkpt lat="49.9835519" lon="1.8696497"><ele>111.0</ele><time>2026-04-02T11:51:12.532Z</time></trkpt><trkpt lat="49.9836421" lon="1.8698928"><ele>111.0</ele><time>2026-04-02T11:51:13.531Z</time></trkpt><trkpt lat="49.9837292" lon="1.8701439"><ele>111.0</ele><time>2026-04-02T11:51:14.533Z</time></trkpt><trkpt lat="49.9838098" lon="1.8704064"><ele>111.0</ele><time>2026-04-02T11:51:15.532Z</time></trkpt><trkpt lat="49.983881" lon="1.8706804"><ele>111.0</ele><time>2026-04-02T11:51:16.532Z</time></trkpt><trkpt lat="49.9839475" lon="1.8709584"><ele>111.33333333333334</ele><time>2026-04-02T11:51:17.532Z</time></trkpt><trkpt lat="49.9840122" lon="1.8712442"><ele>111.66666666666667</ele><time>2026-04-02T11:51:18.532Z</time></trkpt><trkpt lat="49.9840792" lon="1.8715278"><ele>112.0</ele><time>2026-04-02T11:51:19.532Z</time></trkpt><trkpt lat="49.9841497" lon="1.8718128"><ele>111.66666666666667</ele><time>2026-04-02T11:51:20.532Z</time></trkpt><trkpt lat="49.9842211" lon="1.8721002"><ele>111.33333333333334</ele><time>2026-04-02T11:51:21.532Z</time></trkpt><trkpt lat="49.9843017" lon="1.8723847"><ele>111.0</ele><time>2026-04-02T11:51:22.532Z</time></trkpt><trkpt lat="49.9843971" lon="1.872647"><ele>111.66666666666666</ele><time>2026-04-02T11:51:23.531Z</time></trkpt><trkpt lat="49.9845078" lon="1.8728838"><ele>112.33333333333333</ele><time>2026-04-02T11:51:24.531Z</time></trkpt><trkpt lat="49.9846349" lon="1.8731072"><ele>113.0</ele><time>2026-04-02T11:51:25.532Z</time></trkpt><trkpt lat="49.9847702" lon="1.8733207"><ele>113.33333333333333</ele><time>2026-04-02T11:51:26.532Z</time></trkpt><trkpt lat="49.9849138" lon="1.873528"><ele>113.66666666666666</ele><time>2026-04-02T11:51:27.532Z</time></trkpt><trkpt lat="49.9850588" lon="1.8737378"><ele>114.0</ele><time>2026-04-02T11:51:28.532Z</time></trkpt><trkpt lat="49.9852043" lon="1.873948"><ele>113.33333333333334</ele><time>2026-04-02T11:51:29.532Z</time></trkpt><trkpt lat="49.9853519" lon="1.8741608"><ele>112.66666666666667</ele><time>2026-04-02T11:51:30.532Z</time></trkpt><trkpt lat="49.9854935" lon="1.8743674"><ele>112.0</ele><time>2026-04-02T11:51:31.532Z</time></trkpt><trkpt lat="49.9856252" lon="1.874556"><ele>112.0</ele><time>2026-04-02T11:51:32.532Z</time></trkpt><trkpt lat="49.9857459" lon="1.8747191"><ele>112.0</ele><time>2026-04-02T11:51:33.532Z</time></trkpt><trkpt lat="49.9858689" lon="1.8748625"><ele>112.0</ele><time>2026-04-02T11:51:34.532Z</time></trkpt><trkpt lat="49.9860016" lon="1.8749947"><ele>112.5</ele><time>2026-04-02T11:51:35.531Z</time></trkpt><trkpt lat="49.9861406" lon="1.8751145"><ele>113.0</ele><time>2026-04-02T11:51:36.532Z</time></trkpt><trkpt lat="49.9864392" lon="1.8753089"><ele>113.0</ele><time>2026-04-02T11:51:38.532Z</time></trkpt><trkpt lat="49.9865931" lon="1.8754076"><ele>113.0</ele><time>2026-04-02T11:51:39.532Z</time></trkpt><trkpt lat="49.9867448" lon="1.8754972"><ele>113.0</ele><time>2026-04-02T11:51:40.532Z</time></trkpt><trkpt lat="49.9868909" lon="1.875589"><ele>113.25</ele><time>2026-04-02T11:51:41.533Z</time></trkpt><trkpt lat="49.9870278" lon="1.8756769"><ele>113.5</ele><time>2026-04-02T11:51:42.532Z</time></trkpt><trkpt lat="49.9871535" lon="1.8757569"><ele>113.75</ele><time>2026-04-02T11:51:43.532Z</time></trkpt><trkpt lat="49.9872714" lon="1.875832"><ele>114.0</ele><time>2026-04-02T11:51:44.532Z</time></trkpt><trkpt lat="49.9873812" lon="1.8759119"><ele>114.2</ele><time>2026-04-02T11:51:45.533Z</time></trkpt><trkpt lat="49.9874858" lon="1.8759892"><ele>114.4</ele><time>2026-04-02T11:51:46.532Z</time></trkpt><trkpt lat="49.9875743" lon="1.8760609"><ele>114.6</ele><time>2026-04-02T11:51:47.532Z</time></trkpt><trkpt lat="49.9876463" lon="1.8761351"><ele>114.8</ele><time>2026-04-02T11:51:48.532Z</time></trkpt><trkpt lat="49.9876952" lon="1.8762415"><ele>115.0</ele><time>2026-04-02T11:51:49.532Z</time></trkpt><trkpt lat="49.9877186" lon="1.8763707"><ele>115.0</ele><time>2026-04-02T11:51:50.532Z</time></trkpt><trkpt lat="49.9876997" lon="1.876524"><ele>115.0</ele><time>2026-04-02T11:51:51.531Z</time></trkpt><trkpt lat="49.9876665" lon="1.8766838"><ele>115.0</ele><time>2026-04-02T11:51:52.532Z</time></trkpt><trkpt lat="49.9876315" lon="1.8768521"><ele>115.0</ele><time>2026-04-02T11:51:53.533Z</time></trkpt><trkpt lat="49.9875969" lon="1.8770017"><ele>115.0</ele><time>2026-04-02T11:51:54.532Z</time></trkpt><trkpt lat="49.9875653" lon="1.8771339"><ele>115.00000000000001</ele><time>2026-04-02T11:51:55.531Z</time></trkpt><trkpt lat="49.9875386" lon="1.8772621"><ele>115.0</ele><time>2026-04-02T11:51:56.532Z</time></trkpt><trkpt lat="49.9875128" lon="1.8773875"><ele>115.0</ele><time>2026-04-02T11:51:57.533Z</time></trkpt><trkpt lat="49.98749" lon="1.8774929"><ele>115.0</ele><time>2026-04-02T11:51:58.533Z</time></trkpt><trkpt lat="49.9874766" lon="1.8775912"><ele>115.00000000000001</ele><time>2026-04-02T11:51:59.533Z</time></trkpt><trkpt lat="49.987532" lon="1.8777298"><ele>115.0</ele><time>2026-04-02T11:52:01.532Z</time></trkpt><trkpt lat="49.9876414" lon="1.8777029"><ele>115.2</ele><time>2026-04-02T11:52:03.532Z</time></trkpt><trkpt lat="49.9877285" lon="1.877676"><ele>115.4</ele><time>2026-04-02T11:52:04.532Z</time></trkpt><trkpt lat="49.9878329" lon="1.8776573"><ele>115.6</ele><time>2026-04-02T11:52:05.532Z</time></trkpt><trkpt lat="49.9879472" lon="1.8776434"><ele>115.8</ele><time>2026-04-02T11:52:06.533Z</time></trkpt><trkpt lat="49.988061" lon="1.8776292"><ele>116.0</ele><time>2026-04-02T11:52:07.532Z</time></trkpt><trkpt lat="49.9881792" lon="1.8776194"><ele>116.0</ele><time>2026-04-02T11:52:08.532Z</time></trkpt><trkpt lat="49.9882983" lon="1.8776104"><ele>116.0</ele><time>2026-04-02T11:52:09.533Z</time></trkpt><trkpt lat="49.9884156" lon="1.8776025"><ele>116.0</ele><time>2026-04-02T11:52:10.533Z</time></trkpt><trkpt lat="49.9885304" lon="1.8775936"><ele>116.0</ele><time>2026-04-02T11:52:11.533Z</time></trkpt><trkpt lat="49.9886482" lon="1.8775816"><ele>115.75</ele><time>2026-04-02T11:52:12.531Z</time></trkpt><trkpt lat="49.988765" lon="1.8775679"><ele>115.5</ele><time>2026-04-02T11:52:13.532Z</time></trkpt><trkpt lat="49.9888798" lon="1.8775529"><ele>115.25</ele><time>2026-04-02T11:52:14.532Z</time></trkpt><trkpt lat="49.9889989" lon="1.8775381"><ele>115.0</ele><time>2026-04-02T11:52:15.532Z</time></trkpt><trkpt lat="49.9891198" lon="1.8775171"><ele>115.0</ele><time>2026-04-02T11:52:16.533Z</time></trkpt><trkpt lat="49.9892495" lon="1.8774942"><ele>115.0</ele><time>2026-04-02T11:52:17.532Z</time></trkpt><trkpt lat="49.9893776" lon="1.8774741"><ele>115.0</ele><time>2026-04-02T11:52:18.532Z</time></trkpt><trkpt lat="49.9895109" lon="1.8774602"><ele>115.0</ele><time>2026-04-02T11:52:19.532Z</time></trkpt><trkpt lat="49.9896459" lon="1.8774462"><ele>115.0</ele><time>2026-04-02T11:52:20.532Z</time></trkpt><trkpt lat="49.9897816" lon="1.8774411"><ele>115.0</ele><time>2026-04-02T11:52:21.533Z</time></trkpt><trkpt lat="49.9899168" lon="1.877441"><ele>115.0</ele><time>2026-04-02T11:52:22.532Z</time></trkpt><trkpt lat="49.990052" lon="1.8774463"><ele>115.0</ele><time>2026-04-02T11:52:23.533Z</time></trkpt><trkpt lat="49.9901925" lon="1.8774463"><ele>114.75</ele><time>2026-04-02T11:52:24.532Z</time></trkpt><trkpt lat="49.9903261" lon="1.8774525"><ele>114.5</ele><time>2026-04-02T11:52:25.532Z</time></trkpt><trkpt lat="49.9904546" lon="1.8774587"><ele>114.25</ele><time>2026-04-02T11:52:26.532Z</time></trkpt><trkpt lat="49.9905856" lon="1.877454"><ele>114.0</ele><time>2026-04-02T11:52:27.533Z</time></trkpt><trkpt lat="49.9907196" lon="1.8774487"><ele>113.75</ele><time>2026-04-02T11:52:28.533Z</time></trkpt><trkpt lat="49.9908535" lon="1.8774318"><ele>113.5</ele><time>2026-04-02T11:52:29.532Z</time></trkpt><trkpt lat="49.9909831" lon="1.8774068"><ele>113.25</ele><time>2026-04-02T11:52:30.532Z</time></trkpt><trkpt lat="49.991109" lon="1.8773692"><ele>113.0</ele><time>2026-04-02T11:52:31.532Z</time></trkpt><trkpt lat="49.9912309" lon="1.8773203"><ele>113.0</ele><time>2026-04-02T11:52:32.532Z</time></trkpt><trkpt lat="49.9913507" lon="1.8772698"><ele>113.0</ele><time>2026-04-02T11:52:33.532Z</time></trkpt><trkpt lat="49.991466" lon="1.8772136"><ele>113.0</ele><time>2026-04-02T11:52:34.532Z</time></trkpt><trkpt lat="49.991571" lon="1.8771616"><ele>113.0</ele><time>2026-04-02T11:52:35.532Z</time></trkpt><trkpt lat="49.9916659" lon="1.8771183"><ele>113.16666666666666</ele><time>2026-04-02T11:52:36.532Z</time></trkpt><trkpt lat="49.9917376" lon="1.8770839"><ele>113.33333333333333</ele><time>2026-04-02T11:52:37.532Z</time></trkpt><trkpt lat="49.9918259" lon="1.8770741"><ele>113.5</ele><time>2026-04-02T11:52:39.532Z</time></trkpt><trkpt lat="49.9918622" lon="1.8772097"><ele>113.66666666666666</ele><time>2026-04-02T11:52:41.533Z</time></trkpt><trkpt lat="49.991858" lon="1.8773244"><ele>113.83333333333333</ele><time>2026-04-02T11:52:42.533Z</time></trkpt><trkpt lat="49.9918567" lon="1.8774669"><ele>114.0</ele><time>2026-04-02T11:52:43.533Z</time></trkpt><trkpt lat="49.9918454" lon="1.8776353"><ele>114.25</ele><time>2026-04-02T11:52:44.532Z</time></trkpt><trkpt lat="49.9918296" lon="1.877816"><ele>114.5</ele><time>2026-04-02T11:52:45.533Z</time></trkpt><trkpt lat="49.9918049" lon="1.8780009"><ele>114.75</ele><time>2026-04-02T11:52:46.532Z</time></trkpt><trkpt lat="49.9917813" lon="1.8781771"><ele>115.0</ele><time>2026-04-02T11:52:47.533Z</time></trkpt><trkpt lat="49.991763" lon="1.8783432"><ele>114.8</ele><time>2026-04-02T11:52:48.532Z</time></trkpt><trkpt lat="49.9917515" lon="1.8785035"><ele>114.6</ele><time>2026-04-02T11:52:49.533Z</time></trkpt><trkpt lat="49.991763" lon="1.878675"><ele>114.4</ele><time>2026-04-02T11:52:50.533Z</time></trkpt><trkpt lat="49.9917859" lon="1.8788454"><ele>114.2</ele><time>2026-04-02T11:52:51.533Z</time></trkpt><trkpt lat="49.991823" lon="1.8790201"><ele>114.0</ele><time>2026-04-02T11:52:52.533Z</time></trkpt><trkpt lat="49.9918667" lon="1.8791819"><ele>113.75</ele><time>2026-04-02T11:52:53.533Z</time></trkpt><trkpt lat="49.9919127" lon="1.8793423"><ele>113.5</ele><time>2026-04-02T11:52:54.534Z</time></trkpt><trkpt lat="49.9919632" lon="1.8794988"><ele>113.25</ele><time>2026-04-02T11:52:55.533Z</time></trkpt><trkpt lat="49.992012" lon="1.8796637"><ele>113.0</ele><time>2026-04-02T11:52:56.533Z</time></trkpt><trkpt lat="49.9920583" lon="1.8798293"><ele>113.0</ele><time>2026-04-02T11:52:57.532Z</time></trkpt><trkpt lat="49.992108" lon="1.8799883"><ele>113.00000000000001</ele><time>2026-04-02T11:52:58.534Z</time></trkpt><trkpt lat="49.9921577" lon="1.8801407"><ele>113.00000000000001</ele><time>2026-04-02T11:52:59.533Z</time></trkpt><trkpt lat="49.9922057" lon="1.880286"><ele>113.0</ele><time>2026-04-02T11:53:00.533Z</time></trkpt><trkpt lat="49.9922525" lon="1.8804394"><ele>113.0</ele><time>2026-04-02T11:53:01.533Z</time></trkpt><trkpt lat="49.9922976" lon="1.8806035"><ele>113.0</ele><time>2026-04-02T11:53:02.534Z</time></trkpt><trkpt lat="49.9923435" lon="1.8807701"><ele>113.0</ele><time>2026-04-02T11:53:03.533Z</time></trkpt><trkpt lat="49.9923926" lon="1.880944"><ele>113.0</ele><time>2026-04-02T11:53:04.533Z</time></trkpt><trkpt lat="49.9924433" lon="1.8811214"><ele>113.0</ele><time>2026-04-02T11:53:05.534Z</time></trkpt><trkpt lat="49.9924865" lon="1.8812686"><ele>113.0</ele><time>2026-04-02T11:53:06.533Z</time></trkpt><trkpt lat="49.9925135" lon="1.8813638"><ele>113.0</ele><time>2026-04-02T11:53:07.533Z</time></trkpt><trkpt lat="49.992554" lon="1.8814705"><ele>113.0</ele><time>2026-04-02T11:53:10.534Z</time></trkpt><trkpt lat="49.9926085" lon="1.8814178"><ele>113.0</ele><time>2026-04-02T11:53:12.533Z</time></trkpt><trkpt lat="49.9926327" lon="1.8813149"><ele>113.0</ele><time>2026-04-02T11:53:13.534Z</time></trkpt><trkpt lat="49.9926602" lon="1.8811928"><ele>113.0</ele><time>2026-04-02T11:53:14.534Z</time></trkpt><trkpt lat="49.9926845" lon="1.8810723"><ele>113.0</ele><time>2026-04-02T11:53:15.534Z</time></trkpt><trkpt lat="49.9927052" lon="1.8809684"><ele>112.99999999999999</ele><time>2026-04-02T11:53:16.533Z</time></trkpt><trkpt lat="49.9927403" lon="1.8808457"><ele>113.0</ele><time>2026-04-02T11:53:18.532Z</time></trkpt><trkpt lat="49.9928071" lon="1.8808255"><ele>113.0</ele><time>2026-04-02T11:53:20.533Z</time></trkpt><trkpt lat="49.9928671" lon="1.8808766"><ele>113.0</ele><time>2026-04-02T11:53:21.533Z</time></trkpt><trkpt lat="49.9929492" lon="1.8809362"><ele>112.99999999999999</ele><time>2026-04-02T11:53:22.533Z</time></trkpt><trkpt lat="49.9930451" lon="1.8810072"><ele>113.0</ele><time>2026-04-02T11:53:23.532Z</time></trkpt><trkpt lat="49.993156" lon="1.8810853"><ele>113.0</ele><time>2026-04-02T11:53:24.533Z</time></trkpt><trkpt lat="49.9932771" lon="1.8811692"><ele>113.0</ele><time>2026-04-02T11:53:25.533Z</time></trkpt><trkpt lat="49.9934082" lon="1.8812473"><ele>113.0</ele><time>2026-04-02T11:53:26.532Z</time></trkpt><trkpt lat="49.9935478" lon="1.8813195"><ele>113.0</ele><time>2026-04-02T11:53:27.534Z</time></trkpt><trkpt lat="49.9936824" lon="1.8813808"><ele>113.0</ele><time>2026-04-02T11:53:28.533Z</time></trkpt><trkpt lat="49.9938216" lon="1.8814445"><ele>113.0</ele><time>2026-04-02T11:53:29.532Z</time></trkpt><trkpt lat="49.9939617" lon="1.8815083"><ele>113.0</ele><time>2026-04-02T11:53:30.534Z</time></trkpt><trkpt lat="49.9940866" lon="1.8815649"><ele>113.0</ele><time>2026-04-02T11:53:31.533Z</time></trkpt><trkpt lat="49.9942041" lon="1.8816213"><ele>113.0</ele><time>2026-04-02T11:53:32.533Z</time></trkpt><trkpt lat="49.9943174" lon="1.88168"><ele>113.0</ele><time>2026-04-02T11:53:33.534Z</time></trkpt><trkpt lat="49.994427" lon="1.8817392"><ele>113.0</ele><time>2026-04-02T11:53:34.534Z</time></trkpt><trkpt lat="49.9945358" lon="1.8818001"><ele>113.0</ele><time>2026-04-02T11:53:35.533Z</time></trkpt><trkpt lat="49.9946413" lon="1.8818589"><ele>113.2</ele><time>2026-04-02T11:53:36.534Z</time></trkpt><trkpt lat="49.9947461" lon="1.8819134"><ele>113.4</ele><time>2026-04-02T11:53:37.533Z</time></trkpt><trkpt lat="49.9948492" lon="1.8819725"><ele>113.60000000000001</ele><time>2026-04-02T11:53:38.532Z</time></trkpt><trkpt lat="49.994955" lon="1.8820296"><ele>113.80000000000001</ele><time>2026-04-02T11:53:39.533Z</time></trkpt><trkpt lat="49.9950635" lon="1.8820885"><ele>114.0</ele><time>2026-04-02T11:53:40.533Z</time></trkpt><trkpt lat="49.9951824" lon="1.882151"><ele>114.0</ele><time>2026-04-02T11:53:41.533Z</time></trkpt><trkpt lat="49.9953025" lon="1.8822148"><ele>114.0</ele><time>2026-04-02T11:53:42.532Z</time></trkpt><trkpt lat="49.9954285" lon="1.8822832"><ele>114.0</ele><time>2026-04-02T11:53:43.534Z</time></trkpt><trkpt lat="49.9955557" lon="1.8823562"><ele>114.0</ele><time>2026-04-02T11:53:44.534Z</time></trkpt><trkpt lat="49.9956769" lon="1.8824244"><ele>114.0</ele><time>2026-04-02T11:53:45.533Z</time></trkpt><trkpt lat="49.9957963" lon="1.8824908"><ele>114.0</ele><time>2026-04-02T11:53:46.533Z</time></trkpt><trkpt lat="49.9959126" lon="1.8825556"><ele>114.0</ele><time>2026-04-02T11:53:47.532Z</time></trkpt><trkpt lat="49.9960327" lon="1.8826223"><ele>114.0</ele><time>2026-04-02T11:53:48.533Z</time></trkpt><trkpt lat="49.996153" lon="1.8827023"><ele>114.25</ele><time>2026-04-02T11:53:49.533Z</time></trkpt><trkpt lat="49.9962716" lon="1.8827819"><ele>114.5</ele><time>2026-04-02T11:53:50.533Z</time></trkpt><trkpt lat="49.9963982" lon="1.8828767"><ele>114.75</ele><time>2026-04-02T11:53:51.534Z</time></trkpt><trkpt lat="49.9965243" lon="1.8829862"><ele>115.0</ele><time>2026-04-02T11:53:52.533Z</time></trkpt><trkpt lat="49.9966453" lon="1.8830979"><ele>115.0</ele><time>2026-04-02T11:53:53.532Z</time></trkpt><trkpt lat="49.9967664" lon="1.8832094"><ele>115.0</ele><time>2026-04-02T11:53:54.533Z</time></trkpt><trkpt lat="49.9968937" lon="1.8833202"><ele>115.0</ele><time>2026-04-02T11:53:55.532Z</time></trkpt><trkpt lat="49.9970261" lon="1.8834344"><ele>115.0</ele><time>2026-04-02T11:53:56.533Z</time></trkpt><trkpt lat="49.9971616" lon="1.8835517"><ele>115.0</ele><time>2026-04-02T11:53:57.534Z</time></trkpt><trkpt lat="49.9973063" lon="1.8836758"><ele>115.0</ele><time>2026-04-02T11:53:58.532Z</time></trkpt><trkpt lat="49.9974537" lon="1.8838039"><ele>115.0</ele><time>2026-04-02T11:53:59.533Z</time></trkpt><trkpt lat="49.9976058" lon="1.8839353"><ele>115.0</ele><time>2026-04-02T11:54:00.532Z</time></trkpt><trkpt lat="49.997765" lon="1.8840668"><ele>115.0</ele><time>2026-04-02T11:54:01.533Z</time></trkpt><trkpt lat="49.9979249" lon="1.8842024"><ele>115.0</ele><time>2026-04-02T11:54:02.534Z</time></trkpt><trkpt lat="49.9980776" lon="1.8843275"><ele>115.0</ele><time>2026-04-02T11:54:03.533Z</time></trkpt><trkpt lat="49.9982225" lon="1.8844452"><ele>115.0</ele><time>2026-04-02T11:54:04.533Z</time></trkpt><trkpt lat="49.9983697" lon="1.8845626"><ele>115.0</ele><time>2026-04-02T11:54:05.533Z</time></trkpt><trkpt lat="49.9985209" lon="1.8846804"><ele>115.0</ele><time>2026-04-02T11:54:06.534Z</time></trkpt><trkpt lat="49.9986751" lon="1.8848028"><ele>115.0</ele><time>2026-04-02T11:54:07.533Z</time></trkpt><trkpt lat="49.9988339" lon="1.8849286"><ele>115.0</ele><time>2026-04-02T11:54:08.534Z</time></trkpt><trkpt lat="49.9989969" lon="1.8850525"><ele>115.33333333333334</ele><time>2026-04-02T11:54:09.533Z</time></trkpt><trkpt lat="49.9991641" lon="1.8851828"><ele>115.66666666666666</ele><time>2026-04-02T11:54:10.534Z</time></trkpt><trkpt lat="49.9993325" lon="1.8853126"><ele>116.0</ele><time>2026-04-02T11:54:11.533Z</time></trkpt><trkpt lat="49.9995042" lon="1.8854467"><ele>116.0</ele><time>2026-04-02T11:54:12.533Z</time></trkpt><trkpt lat="49.9996772" lon="1.8855839"><ele>116.0</ele><time>2026-04-02T11:54:13.534Z</time></trkpt><trkpt lat="49.999852" lon="1.885722"><ele>116.0</ele><time>2026-04-02T11:54:14.532Z</time></trkpt><trkpt lat="50.000029" lon="1.8858573"><ele>116.0</ele><time>2026-04-02T11:54:15.533Z</time></trkpt><trkpt lat="50.0002072" lon="1.8859961"><ele>116.0</ele><time>2026-04-02T11:54:16.533Z</time></trkpt><trkpt lat="50.0003861" lon="1.8861341"><ele>116.0</ele><time>2026-04-02T11:54:17.532Z</time></trkpt><trkpt lat="50.0005657" lon="1.886274"><ele>116.0</ele><time>2026-04-02T11:54:18.533Z</time></trkpt><trkpt lat="50.0007459" lon="1.8864146"><ele>116.0</ele><time>2026-04-02T11:54:19.533Z</time></trkpt><trkpt lat="50.0009274" lon="1.8865545"><ele>116.0</ele><time>2026-04-02T11:54:20.533Z</time></trkpt><trkpt lat="50.0011095" lon="1.8866929"><ele>116.0</ele><time>2026-04-02T11:54:21.534Z</time></trkpt><trkpt lat="50.0012929" lon="1.8868352"><ele>116.0</ele><time>2026-04-02T11:54:22.533Z</time></trkpt><trkpt lat="50.0014774" lon="1.8869793"><ele>116.0</ele><time>2026-04-02T11:54:23.534Z</time></trkpt><trkpt lat="50.0016615" lon="1.887125"><ele>115.66666666666666</ele><time>2026-04-02T11:54:24.534Z</time></trkpt><trkpt lat="50.0018469" lon="1.8872685"><ele>115.33333333333334</ele><time>2026-04-02T11:54:25.533Z</time></trkpt><trkpt lat="50.0020324" lon="1.8874119"><ele>115.0</ele><time>2026-04-02T11:54:26.533Z</time></trkpt><trkpt lat="50.0022191" lon="1.8875568"><ele>115.0</ele><time>2026-04-02T11:54:27.533Z</time></trkpt><trkpt lat="50.0024057" lon="1.8876997"><ele>115.0</ele><time>2026-04-02T11:54:28.532Z</time></trkpt><trkpt lat="50.002593" lon="1.8878417"><ele>115.0</ele><time>2026-04-02T11:54:29.533Z</time></trkpt><trkpt lat="50.002782" lon="1.8879819"><ele>115.0</ele><time>2026-04-02T11:54:30.532Z</time></trkpt><trkpt lat="50.0029709" lon="1.8881251"><ele>115.0</ele><time>2026-04-02T11:54:31.534Z</time></trkpt><trkpt lat="50.0031587" lon="1.8882679"><ele>115.0</ele><time>2026-04-02T11:54:32.533Z</time></trkpt><trkpt lat="50.0033399" lon="1.8884109"><ele>115.33333333333334</ele><time>2026-04-02T11:54:33.533Z</time></trkpt><trkpt lat="50.0035129" lon="1.8885782"><ele>115.66666666666666</ele><time>2026-04-02T11:54:34.534Z</time></trkpt><trkpt lat="50.0036704" lon="1.8887736"><ele>116.0</ele><time>2026-04-02T11:54:35.533Z</time></trkpt><trkpt lat="50.0038156" lon="1.8890004"><ele>116.0</ele><time>2026-04-02T11:54:36.533Z</time></trkpt><trkpt lat="50.003943" lon="1.8892499"><ele>116.0</ele><time>2026-04-02T11:54:37.533Z</time></trkpt><trkpt lat="50.0040695" lon="1.8895027"><ele>116.0</ele><time>2026-04-02T11:54:38.534Z</time></trkpt><trkpt lat="50.0042" lon="1.8897517"><ele>116.0</ele><time>2026-04-02T11:54:39.533Z</time></trkpt><trkpt lat="50.0043315" lon="1.8900014"><ele>116.0</ele><time>2026-04-02T11:54:40.534Z</time></trkpt><trkpt lat="50.0044613" lon="1.8902545"><ele>116.0</ele><time>2026-04-02T11:54:41.533Z</time></trkpt><trkpt lat="50.0045923" lon="1.8905102"><ele>116.0</ele><time>2026-04-02T11:54:42.533Z</time></trkpt><trkpt lat="50.0047247" lon="1.8907647"><ele>116.0</ele><time>2026-04-02T11:54:43.533Z</time></trkpt><trkpt lat="50.0048561" lon="1.8910205"><ele>116.0</ele><time>2026-04-02T11:54:44.533Z</time></trkpt><trkpt lat="50.0049874" lon="1.8912762"><ele>116.66666666666666</ele><time>2026-04-02T11:54:45.533Z</time></trkpt><trkpt lat="50.0051193" lon="1.8915325"><ele>117.33333333333334</ele><time>2026-04-02T11:54:46.533Z</time></trkpt><trkpt lat="50.005252" lon="1.8917898"><ele>118.0</ele><time>2026-04-02T11:54:47.534Z</time></trkpt><trkpt lat="50.0053861" lon="1.8920481"><ele>118.0</ele><time>2026-04-02T11:54:48.534Z</time></trkpt><trkpt lat="50.0055226" lon="1.8923041"><ele>118.0</ele><time>2026-04-02T11:54:49.533Z</time></trkpt><trkpt lat="50.0056598" lon="1.8925573"><ele>118.0</ele><time>2026-04-02T11:54:50.534Z</time></trkpt><trkpt lat="50.0058018" lon="1.8928044"><ele>117.66666666666667</ele><time>2026-04-02T11:54:51.533Z</time></trkpt><trkpt lat="50.0059477" lon="1.8930452"><ele>117.33333333333334</ele><time>2026-04-02T11:54:52.534Z</time></trkpt><trkpt lat="50.0060977" lon="1.8932795"><ele>117.0</ele><time>2026-04-02T11:54:53.533Z</time></trkpt><trkpt lat="50.0062489" lon="1.8935123"><ele>116.66666666666666</ele><time>2026-04-02T11:54:54.534Z</time></trkpt><trkpt lat="50.0064059" lon="1.8937373"><ele>116.33333333333333</ele><time>2026-04-02T11:54:55.533Z</time></trkpt><trkpt lat="50.0065686" lon="1.8939525"><ele>116.0</ele><time>2026-04-02T11:54:56.532Z</time></trkpt><trkpt lat="50.0067349" lon="1.8941619"><ele>116.0</ele><time>2026-04-02T11:54:57.533Z</time></trkpt><trkpt lat="50.0069028" lon="1.8943703"><ele>116.0</ele><time>2026-04-02T11:54:58.533Z</time></trkpt><trkpt lat="50.0070727" lon="1.8945786"><ele>116.0</ele><time>2026-04-02T11:54:59.533Z</time></trkpt><trkpt lat="50.007244" lon="1.8947839"><ele>116.0</ele><time>2026-04-02T11:55:00.533Z</time></trkpt><trkpt lat="50.0074129" lon="1.894988"><ele>116.0</ele><time>2026-04-02T11:55:01.533Z</time></trkpt><trkpt lat="50.007586" lon="1.8951913"><ele>116.0</ele><time>2026-04-02T11:55:02.534Z</time></trkpt><trkpt lat="50.007759" lon="1.8953972"><ele>115.33333333333333</ele><time>2026-04-02T11:55:03.533Z</time></trkpt><trkpt lat="50.0079311" lon="1.895602"><ele>114.66666666666666</ele><time>2026-04-02T11:55:04.534Z</time></trkpt><trkpt lat="50.0081023" lon="1.8958069"><ele>114.0</ele><time>2026-04-02T11:55:05.533Z</time></trkpt><trkpt lat="50.0082732" lon="1.8960127"><ele>114.0</ele><time>2026-04-02T11:55:06.533Z</time></trkpt><trkpt lat="50.0084442" lon="1.8962202"><ele>114.0</ele><time>2026-04-02T11:55:07.533Z</time></trkpt><trkpt lat="50.0086145" lon="1.8964251"><ele>114.0</ele><time>2026-04-02T11:55:08.533Z</time></trkpt><trkpt lat="50.0087839" lon="1.8966291"><ele>114.0</ele><time>2026-04-02T11:55:09.533Z</time></trkpt><trkpt lat="50.0089527" lon="1.8968333"><ele>114.0</ele><time>2026-04-02T11:55:10.534Z</time></trkpt><trkpt lat="50.0091086" lon="1.8970288"><ele>114.0</ele><time>2026-04-02T11:55:11.533Z</time></trkpt><trkpt lat="50.0092627" lon="1.8972353"><ele>114.0</ele><time>2026-04-02T11:55:12.533Z</time></trkpt><trkpt lat="50.0094027" lon="1.8974668"><ele>114.0</ele><time>2026-04-02T11:55:13.533Z</time></trkpt><trkpt lat="50.0095248" lon="1.8977219"><ele>114.0</ele><time>2026-04-02T11:55:14.533Z</time></trkpt><trkpt lat="50.0096354" lon="1.8979899"><ele>114.0</ele><time>2026-04-02T11:55:15.534Z</time></trkpt><trkpt lat="50.0097437" lon="1.8982641"><ele>114.0</ele><time>2026-04-02T11:55:16.534Z</time></trkpt><trkpt lat="50.0098518" lon="1.898541"><ele>114.0</ele><time>2026-04-02T11:55:17.533Z</time></trkpt><trkpt lat="50.0099607" lon="1.898819"><ele>114.0</ele><time>2026-04-02T11:55:18.533Z</time></trkpt><trkpt lat="50.0100685" lon="1.8991011"><ele>114.0</ele><time>2026-04-02T11:55:19.533Z</time></trkpt><trkpt lat="50.0101723" lon="1.8993886"><ele>114.0</ele><time>2026-04-02T11:55:20.534Z</time></trkpt><trkpt lat="50.0102737" lon="1.8996793"><ele>114.0</ele><time>2026-04-02T11:55:21.533Z</time></trkpt><trkpt lat="50.0103728" lon="1.89997"><ele>114.0</ele><time>2026-04-02T11:55:22.534Z</time></trkpt><trkpt lat="50.0104673" lon="1.9002533"><ele>114.0</ele><time>2026-04-02T11:55:23.533Z</time></trkpt><trkpt lat="50.0105552" lon="1.9005242"><ele>113.66666666666666</ele><time>2026-04-02T11:55:24.533Z</time></trkpt><trkpt lat="50.0106386" lon="1.9007749"><ele>113.33333333333333</ele><time>2026-04-02T11:55:25.533Z</time></trkpt><trkpt lat="50.0107189" lon="1.9010091"><ele>113.0</ele><time>2026-04-02T11:55:26.533Z</time></trkpt><trkpt lat="50.0107911" lon="1.9012272"><ele>112.25</ele><time>2026-04-02T11:55:27.533Z</time></trkpt><trkpt lat="50.0108541" lon="1.9014251"><ele>111.5</ele><time>2026-04-02T11:55:28.533Z</time></trkpt><trkpt lat="50.0109087" lon="1.9016182"><ele>110.75</ele><time>2026-04-02T11:55:29.534Z</time></trkpt><trkpt lat="50.0109546" lon="1.9018162"><ele>110.0</ele><time>2026-04-02T11:55:30.533Z</time></trkpt><trkpt lat="50.0109796" lon="1.9020283"><ele>110.0</ele><time>2026-04-02T11:55:31.534Z</time></trkpt><trkpt lat="50.0109888" lon="1.9022397"><ele>110.0</ele><time>2026-04-02T11:55:32.533Z</time></trkpt><trkpt lat="50.0110058" lon="1.9024417"><ele>110.0</ele><time>2026-04-02T11:55:33.534Z</time></trkpt><trkpt lat="50.0110192" lon="1.9026281"><ele>110.0</ele><time>2026-04-02T11:55:34.532Z</time></trkpt><trkpt lat="50.0110328" lon="1.9027998"><ele>109.99999999999999</ele><time>2026-04-02T11:55:35.533Z</time></trkpt><trkpt lat="50.011046" lon="1.9029511"><ele>110.0</ele><time>2026-04-02T11:55:36.533Z</time></trkpt><trkpt lat="50.0110557" lon="1.9030748"><ele>110.0</ele><time>2026-04-02T11:55:37.533Z</time></trkpt><trkpt lat="50.011061" lon="1.903173"><ele>110.0</ele><time>2026-04-02T11:55:38.534Z</time></trkpt><trkpt lat="50.0110667" lon="1.9033062"><ele>109.99999999999999</ele><time>2026-04-02T11:55:40.533Z</time></trkpt><trkpt lat="50.0110721" lon="1.9034431"><ele>110.0</ele><time>2026-04-02T11:55:43.533Z</time></trkpt><trkpt lat="50.0110805" lon="1.9035608"><ele>109.75</ele><time>2026-04-02T11:55:44.534Z</time></trkpt><trkpt lat="50.011087" lon="1.9037232"><ele>109.5</ele><time>2026-04-02T11:55:45.533Z</time></trkpt><trkpt lat="50.0110931" lon="1.9038996"><ele>109.25</ele><time>2026-04-02T11:55:46.534Z</time></trkpt><trkpt lat="50.0110992" lon="1.9040813"><ele>109.0</ele><time>2026-04-02T11:55:47.534Z</time></trkpt><trkpt lat="50.0111048" lon="1.9042713"><ele>108.75</ele><time>2026-04-02T11:55:48.533Z</time></trkpt><trkpt lat="50.0111112" lon="1.9044621"><ele>108.5</ele><time>2026-04-02T11:55:49.533Z</time></trkpt><trkpt lat="50.0111155" lon="1.9046543"><ele>108.25</ele><time>2026-04-02T11:55:50.533Z</time></trkpt><trkpt lat="50.0111196" lon="1.9048431"><ele>108.0</ele><time>2026-04-02T11:55:51.533Z</time></trkpt><trkpt lat="50.0111225" lon="1.905035"><ele>107.75</ele><time>2026-04-02T11:55:52.534Z</time></trkpt><trkpt lat="50.0111243" lon="1.905223"><ele>107.5</ele><time>2026-04-02T11:55:53.533Z</time></trkpt><trkpt lat="50.0111278" lon="1.9054017"><ele>107.25</ele><time>2026-04-02T11:55:54.532Z</time></trkpt><trkpt lat="50.011133" lon="1.9055749"><ele>107.0</ele><time>2026-04-02T11:55:55.534Z</time></trkpt><trkpt lat="50.0111387" lon="1.9057457"><ele>106.6</ele><time>2026-04-02T11:55:56.533Z</time></trkpt><trkpt lat="50.011145" lon="1.9059131"><ele>106.19999999999999</ele><time>2026-04-02T11:55:57.533Z</time></trkpt><trkpt lat="50.0111492" lon="1.9060598"><ele>105.8</ele><time>2026-04-02T11:55:58.534Z</time></trkpt><trkpt lat="50.0111509" lon="1.9061762"><ele>105.4</ele><time>2026-04-02T11:55:59.533Z</time></trkpt><trkpt lat="50.0111511" lon="1.9063208"><ele>105.0</ele><time>2026-04-02T11:56:01.533Z</time></trkpt><trkpt lat="50.0111533" lon="1.906457"><ele>105.0</ele><time>2026-04-02T11:56:06.533Z</time></trkpt><trkpt lat="50.0111723" lon="1.906669"><ele>105.0</ele><time>2026-04-02T11:56:08.532Z</time></trkpt><trkpt lat="50.0111682" lon="1.9068243"><ele>105.0</ele><time>2026-04-02T11:56:09.533Z</time></trkpt><trkpt lat="50.0111704" lon="1.9069971"><ele>105.0</ele><time>2026-04-02T11:56:10.534Z</time></trkpt><trkpt lat="50.0111718" lon="1.9071678"><ele>105.2</ele><time>2026-04-02T11:56:11.532Z</time></trkpt><trkpt lat="50.0111748" lon="1.9073446"><ele>105.4</ele><time>2026-04-02T11:56:12.533Z</time></trkpt><trkpt lat="50.0111776" lon="1.9075165"><ele>105.6</ele><time>2026-04-02T11:56:13.534Z</time></trkpt><trkpt lat="50.011181" lon="1.9076828"><ele>105.8</ele><time>2026-04-02T11:56:14.533Z</time></trkpt><trkpt lat="50.0111858" lon="1.9078487"><ele>106.0</ele><time>2026-04-02T11:56:15.533Z</time></trkpt><trkpt lat="50.0111855" lon="1.9080095"><ele>105.6</ele><time>2026-04-02T11:56:16.534Z</time></trkpt><trkpt lat="50.0111877" lon="1.9081698"><ele>105.19999999999999</ele><time>2026-04-02T11:56:17.533Z</time></trkpt><trkpt lat="50.0111901" lon="1.90833"><ele>104.80000000000001</ele><time>2026-04-02T11:56:18.534Z</time></trkpt><trkpt lat="50.0111926" lon="1.9084798"><ele>104.4</ele><time>2026-04-02T11:56:19.533Z</time></trkpt><trkpt lat="50.0111961" lon="1.9086248"><ele>104.0</ele><time>2026-04-02T11:56:20.533Z</time></trkpt><trkpt lat="50.011204" lon="1.9087651"><ele>104.0</ele><time>2026-04-02T11:56:21.533Z</time></trkpt><trkpt lat="50.0112253" lon="1.9088992"><ele>104.0</ele><time>2026-04-02T11:56:22.533Z</time></trkpt><trkpt lat="50.0112574" lon="1.9090261"><ele>104.0</ele><time>2026-04-02T11:56:23.534Z</time></trkpt><trkpt lat="50.0113015" lon="1.9091455"><ele>104.0</ele><time>2026-04-02T11:56:24.533Z</time></trkpt><trkpt lat="50.0113559" lon="1.9092636"><ele>104.0</ele><time>2026-04-02T11:56:25.533Z</time></trkpt><trkpt lat="50.0114182" lon="1.9093827"><ele>103.80000000000001</ele><time>2026-04-02T11:56:26.533Z</time></trkpt><trkpt lat="50.0114807" lon="1.9095048"><ele>103.60000000000001</ele><time>2026-04-02T11:56:27.533Z</time></trkpt><trkpt lat="50.0115438" lon="1.9096324"><ele>103.4</ele><time>2026-04-02T11:56:28.534Z</time></trkpt><trkpt lat="50.011596" lon="1.9097725"><ele>103.2</ele><time>2026-04-02T11:56:29.534Z</time></trkpt><trkpt lat="50.0116339" lon="1.9099244"><ele>103.0</ele><time>2026-04-02T11:56:30.534Z</time></trkpt><trkpt lat="50.0116655" lon="1.9100787"><ele>102.80000000000001</ele><time>2026-04-02T11:56:31.533Z</time></trkpt><trkpt lat="50.0116907" lon="1.9102369"><ele>102.6</ele><time>2026-04-02T11:56:32.533Z</time></trkpt><trkpt lat="50.0117123" lon="1.910396"><ele>102.4</ele><time>2026-04-02T11:56:33.534Z</time></trkpt><trkpt lat="50.0117304" lon="1.9105448"><ele>102.19999999999999</ele><time>2026-04-02T11:56:34.532Z</time></trkpt><trkpt lat="50.0117493" lon="1.9106739"><ele>102.0</ele><time>2026-04-02T11:56:35.533Z</time></trkpt><trkpt lat="50.0117802" lon="1.9107775"><ele>102.0</ele><time>2026-04-02T11:56:36.534Z</time></trkpt><trkpt lat="50.0118289" lon="1.9108489"><ele>102.0</ele><time>2026-04-02T11:56:37.534Z</time></trkpt><trkpt lat="50.0118904" lon="1.9108907"><ele>102.0</ele><time>2026-04-02T11:56:38.534Z</time></trkpt><trkpt lat="50.0119712" lon="1.9109111"><ele>102.0</ele><time>2026-04-02T11:56:39.533Z</time></trkpt><trkpt lat="50.0120573" lon="1.9109008"><ele>102.0</ele><time>2026-04-02T11:56:40.534Z</time></trkpt><trkpt lat="50.0121436" lon="1.9108792"><ele>102.0</ele><time>2026-04-02T11:56:41.533Z</time></trkpt><trkpt lat="50.0122258" lon="1.9108544"><ele>102.0</ele><time>2026-04-02T11:56:42.534Z</time></trkpt><trkpt lat="50.0122979" lon="1.9108268"><ele>102.0</ele><time>2026-04-02T11:56:43.533Z</time></trkpt><trkpt lat="50.0123598" lon="1.9107929"><ele>102.0</ele><time>2026-04-02T11:56:44.533Z</time></trkpt><trkpt lat="50.0124503" lon="1.9107497"><ele>102.0</ele><time>2026-04-02T11:56:46.532Z</time></trkpt><trkpt lat="50.0125125" lon="1.9107685"><ele>102.0</ele><time>2026-04-02T11:56:54.533Z</time></trkpt><trkpt lat="50.0125477" lon="1.9108743"><ele>102.0</ele><time>2026-04-02T11:56:56.534Z</time></trkpt><trkpt lat="50.0125716" lon="1.9109761"><ele>102.0</ele><time>2026-04-02T11:56:58.533Z</time></trkpt><trkpt lat="50.0125321" lon="1.910863"><ele>102.0</ele><time>2026-04-02T11:58:29.534Z</time></trkpt><trkpt lat="50.0124957" lon="1.9107741"><ele>102.0</ele><time>2026-04-02T11:58:31.534Z</time></trkpt><trkpt lat="50.0124109" lon="1.9107398"><ele>102.0</ele><time>2026-04-02T11:58:34.534Z</time></trkpt><trkpt lat="50.012285" lon="1.9108007"><ele>102.0</ele><time>2026-04-02T11:58:36.534Z</time></trkpt><trkpt lat="50.0122032" lon="1.9108259"><ele>102.0</ele><time>2026-04-02T11:58:37.534Z</time></trkpt><trkpt lat="50.0121255" lon="1.9108524"><ele>102.0</ele><time>2026-04-02T11:58:38.534Z</time></trkpt><trkpt lat="50.012048" lon="1.9108735"><ele>102.0</ele><time>2026-04-02T11:58:39.534Z</time></trkpt><trkpt lat="50.0119843" lon="1.9108899"><ele>102.0</ele><time>2026-04-02T11:58:40.534Z</time></trkpt><trkpt lat="50.0118738" lon="1.910952"><ele>102.0</ele><time>2026-04-02T11:58:42.535Z</time></trkpt><trkpt lat="50.0117855" lon="1.9110778"><ele>102.0</ele><time>2026-04-02T11:58:44.535Z</time></trkpt><trkpt lat="50.0116748" lon="1.9111638"><ele>101.39999999999999</ele><time>2026-04-02T11:58:46.535Z</time></trkpt><trkpt lat="50.0115967" lon="1.9111985"><ele>100.8</ele><time>2026-04-02T11:58:47.533Z</time></trkpt><trkpt lat="50.0115155" lon="1.9112239"><ele>100.2</ele><time>2026-04-02T11:58:48.534Z</time></trkpt><trkpt lat="50.011423" lon="1.911256"><ele>99.6</ele><time>2026-04-02T11:58:49.534Z</time></trkpt><trkpt lat="50.011323" lon="1.9112933"><ele>99.0</ele><time>2026-04-02T11:58:50.535Z</time></trkpt><trkpt lat="50.0112228" lon="1.9113418"><ele>99.0</ele><time>2026-04-02T11:58:51.533Z</time></trkpt><trkpt lat="50.0111239" lon="1.9114025"><ele>99.0</ele><time>2026-04-02T11:58:52.534Z</time></trkpt><trkpt lat="50.0110282" lon="1.911477"><ele>99.0</ele><time>2026-04-02T11:58:53.534Z</time></trkpt><trkpt lat="50.0109301" lon="1.911563"><ele>99.0</ele><time>2026-04-02T11:58:54.535Z</time></trkpt><trkpt lat="50.0108278" lon="1.9116471"><ele>99.0</ele><time>2026-04-02T11:58:55.534Z</time></trkpt><trkpt lat="50.0107214" lon="1.9117328"><ele>97.0</ele><time>2026-04-02T11:58:56.535Z</time></trkpt><trkpt lat="50.0106105" lon="1.9118187"><ele>95.0</ele><time>2026-04-02T11:58:57.534Z</time></trkpt><trkpt lat="50.010493" lon="1.9119031"><ele>93.0</ele><time>2026-04-02T11:58:58.534Z</time></trkpt><trkpt lat="50.0103681" lon="1.9119915"><ele>91.0</ele><time>2026-04-02T11:58:59.535Z</time></trkpt><trkpt lat="50.0102403" lon="1.9120785"><ele>91.0</ele><time>2026-04-02T11:59:00.534Z</time></trkpt><trkpt lat="50.0101124" lon="1.9121829"><ele>91.0</ele><time>2026-04-02T11:59:01.535Z</time></trkpt><trkpt lat="50.0099844" lon="1.9123007"><ele>91.0</ele><time>2026-04-02T11:59:02.534Z</time></trkpt><trkpt lat="50.0098554" lon="1.9124305"><ele>91.0</ele><time>2026-04-02T11:59:03.534Z</time></trkpt><trkpt lat="50.0097138" lon="1.9125697"><ele>88.0</ele><time>2026-04-02T11:59:04.535Z</time></trkpt><trkpt lat="50.0095656" lon="1.9127176"><ele>85.0</ele><time>2026-04-02T11:59:05.534Z</time></trkpt><trkpt lat="50.0094132" lon="1.9128702"><ele>82.0</ele><time>2026-04-02T11:59:06.534Z</time></trkpt><trkpt lat="50.0092659" lon="1.9130258"><ele>80.0</ele><time>2026-04-02T11:59:07.534Z</time></trkpt><trkpt lat="50.0091166" lon="1.9131762"><ele>78.0</ele><time>2026-04-02T11:59:08.534Z</time></trkpt><trkpt lat="50.0089637" lon="1.9133299"><ele>76.0</ele><time>2026-04-02T11:59:09.533Z</time></trkpt><trkpt lat="50.0088097" lon="1.9134836"><ele>76.0</ele><time>2026-04-02T11:59:10.535Z</time></trkpt><trkpt lat="50.0086572" lon="1.9136266"><ele>76.0</ele><time>2026-04-02T11:59:11.534Z</time></trkpt><trkpt lat="50.0085088" lon="1.9137884"><ele>76.0</ele><time>2026-04-02T11:59:12.534Z</time></trkpt><trkpt lat="50.0083579" lon="1.9139445"><ele>74.33333333333333</ele><time>2026-04-02T11:59:13.534Z</time></trkpt><trkpt lat="50.0082097" lon="1.9140929"><ele>72.66666666666667</ele><time>2026-04-02T11:59:14.534Z</time></trkpt><trkpt lat="50.0080618" lon="1.9142377"><ele>71.0</ele><time>2026-04-02T11:59:15.534Z</time></trkpt><trkpt lat="50.0079044" lon="1.9143858"><ele>70.66666666666667</ele><time>2026-04-02T11:59:16.535Z</time></trkpt><trkpt lat="50.0077512" lon="1.9145401"><ele>70.33333333333333</ele><time>2026-04-02T11:59:17.534Z</time></trkpt><trkpt lat="50.0075994" lon="1.9146937"><ele>70.0</ele><time>2026-04-02T11:59:18.534Z</time></trkpt><trkpt lat="50.0074439" lon="1.9148373"><ele>69.0</ele><time>2026-04-02T11:59:19.533Z</time></trkpt><trkpt lat="50.0072888" lon="1.9149832"><ele>68.0</ele><time>2026-04-02T11:59:20.534Z</time></trkpt><trkpt lat="50.0071289" lon="1.915124"><ele>67.0</ele><time>2026-04-02T11:59:21.534Z</time></trkpt><trkpt lat="50.0069672" lon="1.9152703"><ele>67.0</ele><time>2026-04-02T11:59:22.534Z</time></trkpt><trkpt lat="50.0068071" lon="1.9154168"><ele>67.0</ele><time>2026-04-02T11:59:23.533Z</time></trkpt><trkpt lat="50.0066427" lon="1.9155601"><ele>67.0</ele><time>2026-04-02T11:59:24.534Z</time></trkpt><trkpt lat="50.0064846" lon="1.9157165"><ele>67.33333333333333</ele><time>2026-04-02T11:59:25.534Z</time></trkpt><trkpt lat="50.0063235" lon="1.9158654"><ele>67.66666666666667</ele><time>2026-04-02T11:59:26.534Z</time></trkpt><trkpt lat="50.006168" lon="1.9160185"><ele>68.0</ele><time>2026-04-02T11:59:27.534Z</time></trkpt><trkpt lat="50.0060158" lon="1.9161796"><ele>67.33333333333334</ele><time>2026-04-02T11:59:28.534Z</time></trkpt><trkpt lat="50.0058574" lon="1.9163377"><ele>66.66666666666667</ele><time>2026-04-02T11:59:29.534Z</time></trkpt><trkpt lat="50.0057042" lon="1.9164975"><ele>66.0</ele><time>2026-04-02T11:59:30.535Z</time></trkpt><trkpt lat="50.0055504" lon="1.9166547"><ele>68.33333333333333</ele><time>2026-04-02T11:59:31.534Z</time></trkpt><trkpt lat="50.0054035" lon="1.9168019"><ele>70.66666666666666</ele><time>2026-04-02T11:59:32.534Z</time></trkpt><trkpt lat="50.0052621" lon="1.9169627"><ele>73.0</ele><time>2026-04-02T11:59:33.533Z</time></trkpt><trkpt lat="50.0051307" lon="1.9171324"><ele>73.0</ele><time>2026-04-02T11:59:34.534Z</time></trkpt><trkpt lat="50.0049988" lon="1.9172864"><ele>73.0</ele><time>2026-04-02T11:59:35.534Z</time></trkpt><trkpt lat="50.0048648" lon="1.9174215"><ele>73.0</ele><time>2026-04-02T11:59:36.535Z</time></trkpt><trkpt lat="50.0047289" lon="1.917555"><ele>74.0</ele><time>2026-04-02T11:59:37.535Z</time></trkpt><trkpt lat="50.0045881" lon="1.9176809"><ele>75.0</ele><time>2026-04-02T11:59:38.534Z</time></trkpt><trkpt lat="50.0044482" lon="1.9178132"><ele>76.0</ele><time>2026-04-02T11:59:39.535Z</time></trkpt><trkpt lat="50.0043047" lon="1.9179372"><ele>76.0</ele><time>2026-04-02T11:59:40.535Z</time></trkpt><trkpt lat="50.0041645" lon="1.9180655"><ele>76.0</ele><time>2026-04-02T11:59:41.535Z</time></trkpt><trkpt lat="50.0040225" lon="1.9182031"><ele>76.0</ele><time>2026-04-02T11:59:42.534Z</time></trkpt><trkpt lat="50.0038733" lon="1.9183445"><ele>75.33333333333333</ele><time>2026-04-02T11:59:43.534Z</time></trkpt><trkpt lat="50.0037309" lon="1.9184895"><ele>74.66666666666667</ele><time>2026-04-02T11:59:44.534Z</time></trkpt><trkpt lat="50.003598" lon="1.918628"><ele>74.0</ele><time>2026-04-02T11:59:45.534Z</time></trkpt><trkpt lat="50.003467" lon="1.9187467"><ele>74.0</ele><time>2026-04-02T11:59:46.535Z</time></trkpt><trkpt lat="50.0033335" lon="1.9188635"><ele>74.0</ele><time>2026-04-02T11:59:47.535Z</time></trkpt><trkpt lat="50.0032029" lon="1.9189973"><ele>74.0</ele><time>2026-04-02T11:59:48.534Z</time></trkpt><trkpt lat="50.0030681" lon="1.9191337"><ele>72.66666666666667</ele><time>2026-04-02T11:59:49.533Z</time></trkpt><trkpt lat="50.0029256" lon="1.9192725"><ele>71.33333333333333</ele><time>2026-04-02T11:59:50.535Z</time></trkpt><trkpt lat="50.0027779" lon="1.9194182"><ele>70.0</ele><time>2026-04-02T11:59:51.535Z</time></trkpt><trkpt lat="50.0026358" lon="1.9195621"><ele>69.66666666666666</ele><time>2026-04-02T11:59:52.535Z</time></trkpt><trkpt lat="50.0024916" lon="1.9197078"><ele>69.33333333333333</ele><time>2026-04-02T11:59:53.534Z</time></trkpt><trkpt lat="50.0023507" lon="1.9198593"><ele>69.0</ele><time>2026-04-02T11:59:54.534Z</time></trkpt><trkpt lat="50.0022228" lon="1.9200016"><ele>68.25</ele><time>2026-04-02T11:59:55.535Z</time></trkpt><trkpt lat="50.0021035" lon="1.9201406"><ele>67.5</ele><time>2026-04-02T11:59:56.534Z</time></trkpt><trkpt lat="50.0019922" lon="1.9202686"><ele>66.75</ele><time>2026-04-02T11:59:57.535Z</time></trkpt><trkpt lat="50.001886" lon="1.9203893"><ele>66.0</ele><time>2026-04-02T11:59:58.534Z</time></trkpt><trkpt lat="50.0017844" lon="1.9204969"><ele>66.0</ele><time>2026-04-02T11:59:59.534Z</time></trkpt><trkpt lat="50.0016959" lon="1.9205936"><ele>66.0</ele><time>2026-04-02T12:00:00.534Z</time></trkpt><trkpt lat="50.0016164" lon="1.9206851"><ele>66.0</ele><time>2026-04-02T12:00:01.534Z</time></trkpt><trkpt lat="50.0015405" lon="1.9207672"><ele>66.0</ele><time>2026-04-02T12:00:02.535Z</time></trkpt><trkpt lat="50.0014789" lon="1.9208274"><ele>66.0</ele><time>2026-04-02T12:00:03.534Z</time></trkpt><trkpt lat="50.0013686" lon="1.9208786"><ele>65.6</ele><time>2026-04-02T12:00:05.535Z</time></trkpt><trkpt lat="50.0013046" lon="1.9209378"><ele>65.19999999999999</ele><time>2026-04-02T12:00:06.535Z</time></trkpt><trkpt lat="50.0012275" lon="1.9210346"><ele>64.80000000000001</ele><time>2026-04-02T12:00:07.534Z</time></trkpt><trkpt lat="50.0011517" lon="1.9211618"><ele>64.4</ele><time>2026-04-02T12:00:08.535Z</time></trkpt><trkpt lat="50.0010699" lon="1.9213104"><ele>64.0</ele><time>2026-04-02T12:00:09.534Z</time></trkpt><trkpt lat="50.0009772" lon="1.9214709"><ele>64.0</ele><time>2026-04-02T12:00:10.534Z</time></trkpt><trkpt lat="50.0008795" lon="1.9216451"><ele>64.0</ele><time>2026-04-02T12:00:11.535Z</time></trkpt><trkpt lat="50.0007814" lon="1.9218284"><ele>64.0</ele><time>2026-04-02T12:00:12.534Z</time></trkpt><trkpt lat="50.0006797" lon="1.9220153"><ele>66.0</ele><time>2026-04-02T12:00:13.534Z</time></trkpt><trkpt lat="50.0005769" lon="1.9222093"><ele>68.0</ele><time>2026-04-02T12:00:14.534Z</time></trkpt><trkpt lat="50.0004707" lon="1.9224079"><ele>70.0</ele><time>2026-04-02T12:00:15.534Z</time></trkpt><trkpt lat="50.0003621" lon="1.9226097"><ele>70.33333333333333</ele><time>2026-04-02T12:00:16.534Z</time></trkpt><trkpt lat="50.000252" lon="1.9228176"><ele>70.66666666666667</ele><time>2026-04-02T12:00:17.534Z</time></trkpt><trkpt lat="50.0001423" lon="1.9230335"><ele>71.0</ele><time>2026-04-02T12:00:18.534Z</time></trkpt><trkpt lat="50.0000318" lon="1.923255"><ele>71.33333333333334</ele><time>2026-04-02T12:00:19.535Z</time></trkpt><trkpt lat="49.9999188" lon="1.9234787"><ele>71.66666666666667</ele><time>2026-04-02T12:00:20.535Z</time></trkpt><trkpt lat="49.9998048" lon="1.923705"><ele>72.0</ele><time>2026-04-02T12:00:21.534Z</time></trkpt><trkpt lat="49.9996887" lon="1.9239322"><ele>72.0</ele><time>2026-04-02T12:00:22.534Z</time></trkpt><trkpt lat="49.9995676" lon="1.9241622"><ele>72.0</ele><time>2026-04-02T12:00:23.534Z</time></trkpt><trkpt lat="49.9994442" lon="1.9243906"><ele>72.0</ele><time>2026-04-02T12:00:24.535Z</time></trkpt><trkpt lat="49.9993156" lon="1.9246157"><ele>72.33333333333333</ele><time>2026-04-02T12:00:25.534Z</time></trkpt><trkpt lat="49.9991795" lon="1.9248357"><ele>72.66666666666666</ele><time>2026-04-02T12:00:26.535Z</time></trkpt><trkpt lat="49.9990403" lon="1.9250498"><ele>73.0</ele><time>2026-04-02T12:00:27.534Z</time></trkpt><trkpt lat="49.9988949" lon="1.9252597"><ele>73.33333333333333</ele><time>2026-04-02T12:00:28.534Z</time></trkpt><trkpt lat="49.9987473" lon="1.9254703"><ele>73.66666666666667</ele><time>2026-04-02T12:00:29.534Z</time></trkpt><trkpt lat="49.9985921" lon="1.9256765"><ele>74.0</ele><time>2026-04-02T12:00:30.534Z</time></trkpt><trkpt lat="49.9984276" lon="1.9258707"><ele>74.0</ele><time>2026-04-02T12:00:31.534Z</time></trkpt><trkpt lat="49.9982564" lon="1.9260521"><ele>74.0</ele><time>2026-04-02T12:00:32.534Z</time></trkpt><trkpt lat="49.9980898" lon="1.9262163"><ele>74.0</ele><time>2026-04-02T12:00:33.534Z</time></trkpt><trkpt lat="49.9979291" lon="1.9263665"><ele>74.0</ele><time>2026-04-02T12:00:34.533Z</time></trkpt><trkpt lat="49.9977709" lon="1.9265115"><ele>74.0</ele><time>2026-04-02T12:00:35.535Z</time></trkpt><trkpt lat="49.9976202" lon="1.9266512"><ele>74.0</ele><time>2026-04-02T12:00:36.534Z</time></trkpt><trkpt lat="49.9974818" lon="1.9267836"><ele>73.75</ele><time>2026-04-02T12:00:37.534Z</time></trkpt><trkpt lat="49.9973551" lon="1.9269118"><ele>73.5</ele><time>2026-04-02T12:00:38.534Z</time></trkpt><trkpt lat="49.9972487" lon="1.927066"><ele>73.25</ele><time>2026-04-02T12:00:39.534Z</time></trkpt><trkpt lat="49.9971703" lon="1.9272561"><ele>73.0</ele><time>2026-04-02T12:00:40.535Z</time></trkpt><trkpt lat="49.9971071" lon="1.9274738"><ele>73.0</ele><time>2026-04-02T12:00:41.534Z</time></trkpt><trkpt lat="49.9970606" lon="1.9277127"><ele>73.0</ele><time>2026-04-02T12:00:42.534Z</time></trkpt><trkpt lat="49.9970227" lon="1.9279658"><ele>73.0</ele><time>2026-04-02T12:00:43.533Z</time></trkpt><trkpt lat="49.9969854" lon="1.9282309"><ele>73.33333333333333</ele><time>2026-04-02T12:00:44.533Z</time></trkpt><trkpt lat="49.996951" lon="1.9285092"><ele>73.66666666666667</ele><time>2026-04-02T12:00:45.534Z</time></trkpt><trkpt lat="49.9969127" lon="1.9287857"><ele>74.0</ele><time>2026-04-02T12:00:46.533Z</time></trkpt><trkpt lat="49.996875" lon="1.929045"><ele>74.0</ele><time>2026-04-02T12:00:47.535Z</time></trkpt><trkpt lat="49.9968401" lon="1.9292956"><ele>74.0</ele><time>2026-04-02T12:00:48.533Z</time></trkpt><trkpt lat="49.9968073" lon="1.9295209"><ele>74.0</ele><time>2026-04-02T12:00:49.535Z</time></trkpt><trkpt lat="49.9967762" lon="1.9297336"><ele>74.0</ele><time>2026-04-02T12:00:50.535Z</time></trkpt><trkpt lat="49.9967533" lon="1.929929"><ele>74.0</ele><time>2026-04-02T12:00:51.534Z</time></trkpt><trkpt lat="49.9967333" lon="1.9301051"><ele>74.0</ele><time>2026-04-02T12:00:52.534Z</time></trkpt><trkpt lat="49.9967207" lon="1.9302434"><ele>74.0</ele><time>2026-04-02T12:00:53.534Z</time></trkpt><trkpt lat="49.9966965" lon="1.9303926"><ele>74.0</ele><time>2026-04-02T12:00:55.533Z</time></trkpt><trkpt lat="49.996599" lon="1.9302663"><ele>75.0</ele><time>2026-04-02T12:00:58.535Z</time></trkpt><trkpt lat="49.996543" lon="1.930167"><ele>76.0</ele><time>2026-04-02T12:00:59.534Z</time></trkpt><trkpt lat="49.9964795" lon="1.9300279"><ele>77.0</ele><time>2026-04-02T12:01:00.534Z</time></trkpt><trkpt lat="49.996407" lon="1.9298721"><ele>78.0</ele><time>2026-04-02T12:01:01.535Z</time></trkpt><trkpt lat="49.9963285" lon="1.9296928"><ele>78.0</ele><time>2026-04-02T12:01:02.534Z</time></trkpt><trkpt lat="49.9962416" lon="1.9295147"><ele>78.0</ele><time>2026-04-02T12:01:03.534Z</time></trkpt><trkpt lat="49.9961534" lon="1.9293161"><ele>78.0</ele><time>2026-04-02T12:01:04.534Z</time></trkpt><trkpt lat="49.9960563" lon="1.929112"><ele>77.33333333333333</ele><time>2026-04-02T12:01:05.534Z</time></trkpt><trkpt lat="49.9959653" lon="1.9289085"><ele>76.66666666666666</ele><time>2026-04-02T12:01:06.534Z</time></trkpt><trkpt lat="49.9958738" lon="1.9287134"><ele>76.0</ele><time>2026-04-02T12:01:07.534Z</time></trkpt><trkpt lat="49.9957875" lon="1.9285228"><ele>76.33333333333333</ele><time>2026-04-02T12:01:08.535Z</time></trkpt><trkpt lat="49.9956996" lon="1.9283374"><ele>76.66666666666667</ele><time>2026-04-02T12:01:09.533Z</time></trkpt><trkpt lat="49.9956096" lon="1.9281507"><ele>77.0</ele><time>2026-04-02T12:01:10.534Z</time></trkpt><trkpt lat="49.995511" lon="1.9279657"><ele>77.0</ele><time>2026-04-02T12:01:11.534Z</time></trkpt><trkpt lat="49.9954155" lon="1.9277738"><ele>77.0</ele><time>2026-04-02T12:01:12.533Z</time></trkpt><trkpt lat="49.995315" lon="1.9276009"><ele>77.0</ele><time>2026-04-02T12:01:13.533Z</time></trkpt><trkpt lat="49.9952072" lon="1.9274274"><ele>76.66666666666667</ele><time>2026-04-02T12:01:14.534Z</time></trkpt><trkpt lat="49.9950997" lon="1.9272579"><ele>76.33333333333333</ele><time>2026-04-02T12:01:15.534Z</time></trkpt><trkpt lat="49.995004" lon="1.9270699"><ele>76.0</ele><time>2026-04-02T12:01:16.534Z</time></trkpt><trkpt lat="49.9949088" lon="1.9268783"><ele>75.66666666666666</ele><time>2026-04-02T12:01:17.534Z</time></trkpt><trkpt lat="49.9948057" lon="1.9267057"><ele>75.33333333333333</ele><time>2026-04-02T12:01:18.534Z</time></trkpt><trkpt lat="49.994704" lon="1.9265232"><ele>75.0</ele><time>2026-04-02T12:01:19.534Z</time></trkpt><trkpt lat="49.9945983" lon="1.9263338"><ele>75.0</ele><time>2026-04-02T12:01:20.534Z</time></trkpt><trkpt lat="49.9944912" lon="1.9261442"><ele>75.0</ele><time>2026-04-02T12:01:21.534Z</time></trkpt><trkpt lat="49.9943822" lon="1.9259505"><ele>75.0</ele><time>2026-04-02T12:01:22.534Z</time></trkpt><trkpt lat="49.9942763" lon="1.9257561"><ele>75.0</ele><time>2026-04-02T12:01:23.535Z</time></trkpt><trkpt lat="49.9941738" lon="1.9255665"><ele>75.0</ele><time>2026-04-02T12:01:24.534Z</time></trkpt><trkpt lat="49.9940737" lon="1.9253799"><ele>75.0</ele><time>2026-04-02T12:01:25.534Z</time></trkpt><trkpt lat="49.9939735" lon="1.9252036"><ele>75.33333333333333</ele><time>2026-04-02T12:01:26.534Z</time></trkpt><trkpt lat="49.9938721" lon="1.9250232"><ele>75.66666666666666</ele><time>2026-04-02T12:01:27.534Z</time></trkpt><trkpt lat="49.9937688" lon="1.9248398"><ele>76.0</ele><time>2026-04-02T12:01:28.535Z</time></trkpt><trkpt lat="49.9936588" lon="1.9246526"><ele>76.0</ele><time>2026-04-02T12:01:29.534Z</time></trkpt><trkpt lat="49.9935433" lon="1.9244714"><ele>76.0</ele><time>2026-04-02T12:01:30.534Z</time></trkpt><trkpt lat="49.9934336" lon="1.924278"><ele>76.0</ele><time>2026-04-02T12:01:31.535Z</time></trkpt><trkpt lat="49.9933304" lon="1.9240738"><ele>75.66666666666666</ele><time>2026-04-02T12:01:32.534Z</time></trkpt><trkpt lat="49.9932151" lon="1.9238818"><ele>75.33333333333333</ele><time>2026-04-02T12:01:33.534Z</time></trkpt><trkpt lat="49.9931161" lon="1.9236793"><ele>75.0</ele><time>2026-04-02T12:01:34.534Z</time></trkpt><trkpt lat="49.9930253" lon="1.9234981"><ele>75.5</ele><time>2026-04-02T12:01:35.534Z</time></trkpt><trkpt lat="49.9929365" lon="1.9233306"><ele>76.0</ele><time>2026-04-02T12:01:36.535Z</time></trkpt><trkpt lat="49.9928557" lon="1.923163"><ele>76.5</ele><time>2026-04-02T12:01:37.534Z</time></trkpt><trkpt lat="49.9927851" lon="1.9230132"><ele>77.0</ele><time>2026-04-02T12:01:38.533Z</time></trkpt><trkpt lat="49.992727" lon="1.9228885"><ele>77.0</ele><time>2026-04-02T12:01:39.534Z</time></trkpt><trkpt lat="49.9926928" lon="1.9227997"><ele>77.0</ele><time>2026-04-02T12:01:40.535Z</time></trkpt><trkpt lat="49.9926622" lon="1.9227051"><ele>77.0</ele><time>2026-04-02T12:01:42.534Z</time></trkpt><trkpt lat="49.992611" lon="1.9225706"><ele>77.0</ele><time>2026-04-02T12:01:47.534Z</time></trkpt><trkpt lat="49.9925628" lon="1.9224723"><ele>77.0</ele><time>2026-04-02T12:01:48.534Z</time></trkpt><trkpt lat="49.9925014" lon="1.9223516"><ele>77.0</ele><time>2026-04-02T12:01:49.534Z</time></trkpt><trkpt lat="49.9924289" lon="1.9222187"><ele>77.0</ele><time>2026-04-02T12:01:50.534Z</time></trkpt><trkpt lat="49.9923478" lon="1.9220693"><ele>77.0</ele><time>2026-04-02T12:01:51.534Z</time></trkpt><trkpt lat="49.9922651" lon="1.9219051"><ele>77.0</ele><time>2026-04-02T12:01:52.534Z</time></trkpt><trkpt lat="49.9921786" lon="1.9217236"><ele>77.0</ele><time>2026-04-02T12:01:53.535Z</time></trkpt><trkpt lat="49.992087" lon="1.921532"><ele>78.0</ele><time>2026-04-02T12:01:54.534Z</time></trkpt><trkpt lat="49.9919949" lon="1.9213301"><ele>79.0</ele><time>2026-04-02T12:01:55.534Z</time></trkpt><trkpt lat="49.9919025" lon="1.9211181"><ele>80.0</ele><time>2026-04-02T12:01:56.534Z</time></trkpt><trkpt lat="49.9918132" lon="1.9208947"><ele>80.0</ele><time>2026-04-02T12:01:57.534Z</time></trkpt><trkpt lat="49.9917265" lon="1.9206738"><ele>80.0</ele><time>2026-04-02T12:01:58.534Z</time></trkpt><trkpt lat="49.9916509" lon="1.920484"><ele>80.0</ele><time>2026-04-02T12:01:59.534Z</time></trkpt><trkpt lat="49.9915889" lon="1.9203353"><ele>80.0</ele><time>2026-04-02T12:02:00.534Z</time></trkpt><trkpt lat="49.9915478" lon="1.9202183"><ele>80.0</ele><time>2026-04-02T12:02:01.535Z</time></trkpt><trkpt lat="49.9915159" lon="1.9201268"><ele>80.0</ele><time>2026-04-02T12:02:02.534Z</time></trkpt><trkpt lat="49.9914168" lon="1.9200412"><ele>80.0</ele><time>2026-04-02T12:02:04.534Z</time></trkpt><trkpt lat="49.9912909" lon="1.9201224"><ele>80.0</ele><time>2026-04-02T12:02:06.534Z</time></trkpt><trkpt lat="49.9912243" lon="1.9202331"><ele>80.0</ele><time>2026-04-02T12:02:07.534Z</time></trkpt><trkpt lat="49.9911369" lon="1.9203628"><ele>80.0</ele><time>2026-04-02T12:02:08.534Z</time></trkpt><trkpt lat="49.9910371" lon="1.9204933"><ele>80.0</ele><time>2026-04-02T12:02:09.534Z</time></trkpt><trkpt lat="49.9909099" lon="1.920597"><ele>80.0</ele><time>2026-04-02T12:02:10.534Z</time></trkpt><trkpt lat="49.9907648" lon="1.9206756"><ele>80.0</ele><time>2026-04-02T12:02:11.535Z</time></trkpt><trkpt lat="49.9906021" lon="1.9207323"><ele>79.0</ele><time>2026-04-02T12:02:12.534Z</time></trkpt><trkpt lat="49.9904305" lon="1.9207884"><ele>78.0</ele><time>2026-04-02T12:02:13.533Z</time></trkpt><trkpt lat="49.9902499" lon="1.9208483"><ele>77.0</ele><time>2026-04-02T12:02:14.535Z</time></trkpt><trkpt lat="49.9900626" lon="1.9209091"><ele>75.33333333333334</ele><time>2026-04-02T12:02:15.533Z</time></trkpt><trkpt lat="49.9898702" lon="1.9209639"><ele>73.66666666666667</ele><time>2026-04-02T12:02:16.535Z</time></trkpt><trkpt lat="49.9896683" lon="1.920991"><ele>72.0</ele><time>2026-04-02T12:02:17.534Z</time></trkpt><trkpt lat="49.9894623" lon="1.9210211"><ele>72.0</ele><time>2026-04-02T12:02:18.534Z</time></trkpt><trkpt lat="49.9892544" lon="1.9210705"><ele>72.0</ele><time>2026-04-02T12:02:19.535Z</time></trkpt><trkpt lat="49.9890464" lon="1.9211359"><ele>72.0</ele><time>2026-04-02T12:02:20.534Z</time></trkpt><trkpt lat="49.9888399" lon="1.9212083"><ele>71.0</ele><time>2026-04-02T12:02:21.534Z</time></trkpt><trkpt lat="49.9886315" lon="1.9212805"><ele>70.0</ele><time>2026-04-02T12:02:22.534Z</time></trkpt><trkpt lat="49.9884316" lon="1.9213531"><ele>69.0</ele><time>2026-04-02T12:02:23.535Z</time></trkpt><trkpt lat="49.9882303" lon="1.9214204"><ele>68.33333333333333</ele><time>2026-04-02T12:02:24.534Z</time></trkpt><trkpt lat="49.9880245" lon="1.9214907"><ele>67.66666666666666</ele><time>2026-04-02T12:02:25.534Z</time></trkpt><trkpt lat="49.9878183" lon="1.9215683"><ele>67.0</ele><time>2026-04-02T12:02:26.535Z</time></trkpt><trkpt lat="49.9876262" lon="1.9216396"><ele>66.0</ele><time>2026-04-02T12:02:27.535Z</time></trkpt><trkpt lat="49.9874486" lon="1.9217091"><ele>65.0</ele><time>2026-04-02T12:02:28.534Z</time></trkpt><trkpt lat="49.9872759" lon="1.921772"><ele>64.0</ele><time>2026-04-02T12:02:29.534Z</time></trkpt><trkpt lat="49.9871169" lon="1.9218376"><ele>64.0</ele><time>2026-04-02T12:02:30.535Z</time></trkpt><trkpt lat="49.9869673" lon="1.9218957"><ele>64.0</ele><time>2026-04-02T12:02:31.535Z</time></trkpt><trkpt lat="49.9868292" lon="1.9219521"><ele>64.0</ele><time>2026-04-02T12:02:32.534Z</time></trkpt><trkpt lat="49.9866902" lon="1.9220134"><ele>64.0</ele><time>2026-04-02T12:02:33.534Z</time></trkpt><trkpt lat="49.9865438" lon="1.9220783"><ele>63.666666666666664</ele><time>2026-04-02T12:02:34.534Z</time></trkpt><trkpt lat="49.986394" lon="1.9221429"><ele>63.33333333333333</ele><time>2026-04-02T12:02:35.535Z</time></trkpt><trkpt lat="49.986238" lon="1.9222169"><ele>63.0</ele><time>2026-04-02T12:02:36.534Z</time></trkpt><trkpt lat="49.9860778" lon="1.9222941"><ele>63.0</ele><time>2026-04-02T12:02:37.534Z</time></trkpt><trkpt lat="49.9859195" lon="1.9223659"><ele>63.0</ele><time>2026-04-02T12:02:38.534Z</time></trkpt><trkpt lat="49.9857669" lon="1.9224367"><ele>63.0</ele><time>2026-04-02T12:02:39.535Z</time></trkpt><trkpt lat="49.9856112" lon="1.9225132"><ele>62.33333333333333</ele><time>2026-04-02T12:02:40.534Z</time></trkpt><trkpt lat="49.9854474" lon="1.922585"><ele>61.666666666666664</ele><time>2026-04-02T12:02:41.535Z</time></trkpt><trkpt lat="49.9852809" lon="1.9226551"><ele>61.0</ele><time>2026-04-02T12:02:42.535Z</time></trkpt><trkpt lat="49.9851099" lon="1.9227276"><ele>61.0</ele><time>2026-04-02T12:02:43.534Z</time></trkpt><trkpt lat="49.9849522" lon="1.9227996"><ele>61.0</ele><time>2026-04-02T12:02:44.534Z</time></trkpt><trkpt lat="49.9847998" lon="1.922862"><ele>61.0</ele><time>2026-04-02T12:02:45.534Z</time></trkpt><trkpt lat="49.9846462" lon="1.9229385"><ele>61.0</ele><time>2026-04-02T12:02:46.535Z</time></trkpt><trkpt lat="49.9844883" lon="1.9230068"><ele>61.0</ele><time>2026-04-02T12:02:47.533Z</time></trkpt><trkpt lat="49.9843262" lon="1.9230676"><ele>61.0</ele><time>2026-04-02T12:02:48.534Z</time></trkpt><trkpt lat="49.9841602" lon="1.9231167"><ele>62.0</ele><time>2026-04-02T12:02:49.534Z</time></trkpt><trkpt lat="49.9839909" lon="1.9231576"><ele>63.0</ele><time>2026-04-02T12:02:50.535Z</time></trkpt><trkpt lat="49.983819" lon="1.9231951"><ele>64.0</ele><time>2026-04-02T12:02:51.534Z</time></trkpt><trkpt lat="49.9836472" lon="1.9232327"><ele>64.0</ele><time>2026-04-02T12:02:52.534Z</time></trkpt><trkpt lat="49.983473" lon="1.9232719"><ele>64.0</ele><time>2026-04-02T12:02:53.535Z</time></trkpt><trkpt lat="49.9832966" lon="1.9233018"><ele>64.0</ele><time>2026-04-02T12:02:54.534Z</time></trkpt><trkpt lat="49.983119" lon="1.9233353"><ele>64.33333333333333</ele><time>2026-04-02T12:02:55.534Z</time></trkpt><trkpt lat="49.9829416" lon="1.9233696"><ele>64.66666666666667</ele><time>2026-04-02T12:02:56.534Z</time></trkpt><trkpt lat="49.9827633" lon="1.9234073"><ele>65.0</ele><time>2026-04-02T12:02:57.534Z</time></trkpt><trkpt lat="49.9825823" lon="1.9234396"><ele>65.66666666666667</ele><time>2026-04-02T12:02:58.534Z</time></trkpt><trkpt lat="49.9824064" lon="1.9234819"><ele>66.33333333333333</ele><time>2026-04-02T12:02:59.534Z</time></trkpt><trkpt lat="49.9822301" lon="1.9235413"><ele>67.0</ele><time>2026-04-02T12:03:00.534Z</time></trkpt><trkpt lat="49.9820585" lon="1.9236207"><ele>67.0</ele><time>2026-04-02T12:03:01.534Z</time></trkpt><trkpt lat="49.9818973" lon="1.9237028"><ele>67.0</ele><time>2026-04-02T12:03:02.533Z</time></trkpt><trkpt lat="49.9817489" lon="1.9237844"><ele>67.0</ele><time>2026-04-02T12:03:03.533Z</time></trkpt><trkpt lat="49.9815919" lon="1.9238606"><ele>68.0</ele><time>2026-04-02T12:03:04.534Z</time></trkpt><trkpt lat="49.9814352" lon="1.9239286"><ele>69.0</ele><time>2026-04-02T12:03:05.534Z</time></trkpt><trkpt lat="49.9812789" lon="1.9239883"><ele>70.0</ele><time>2026-04-02T12:03:06.533Z</time></trkpt><trkpt lat="49.9811152" lon="1.9240541"><ele>70.0</ele><time>2026-04-02T12:03:07.534Z</time></trkpt><trkpt lat="49.9809518" lon="1.9241422"><ele>70.0</ele><time>2026-04-02T12:03:08.534Z</time></trkpt><trkpt lat="49.9807922" lon="1.924262"><ele>70.0</ele><time>2026-04-02T12:03:09.535Z</time></trkpt><trkpt lat="49.9806318" lon="1.9244001"><ele>69.33333333333333</ele><time>2026-04-02T12:03:10.535Z</time></trkpt><trkpt lat="49.9804669" lon="1.924545"><ele>68.66666666666667</ele><time>2026-04-02T12:03:11.534Z</time></trkpt><trkpt lat="49.980299" lon="1.9246895"><ele>68.0</ele><time>2026-04-02T12:03:12.533Z</time></trkpt><trkpt lat="49.980129" lon="1.9248379"><ele>67.66666666666667</ele><time>2026-04-02T12:03:13.534Z</time></trkpt><trkpt lat="49.9799544" lon="1.9249842"><ele>67.33333333333333</ele><time>2026-04-02T12:03:14.535Z</time></trkpt><trkpt lat="49.9797742" lon="1.925122"><ele>67.0</ele><time>2026-04-02T12:03:15.535Z</time></trkpt><trkpt lat="49.9795895" lon="1.925256"><ele>66.66666666666666</ele><time>2026-04-02T12:03:16.535Z</time></trkpt><trkpt lat="49.9794012" lon="1.9253844"><ele>66.33333333333333</ele><time>2026-04-02T12:03:17.534Z</time></trkpt><trkpt lat="49.9792152" lon="1.9255193"><ele>66.0</ele><time>2026-04-02T12:03:18.534Z</time></trkpt><trkpt lat="49.9790428" lon="1.9256479"><ele>65.66666666666667</ele><time>2026-04-02T12:03:19.533Z</time></trkpt><trkpt lat="49.9788679" lon="1.9257749"><ele>65.33333333333334</ele><time>2026-04-02T12:03:20.534Z</time></trkpt><trkpt lat="49.9786999" lon="1.9259062"><ele>65.0</ele><time>2026-04-02T12:03:21.534Z</time></trkpt><trkpt lat="49.9785388" lon="1.9260347"><ele>64.33333333333334</ele><time>2026-04-02T12:03:22.535Z</time></trkpt><trkpt lat="49.9783873" lon="1.9261551"><ele>63.66666666666667</ele><time>2026-04-02T12:03:23.534Z</time></trkpt><trkpt lat="49.9782271" lon="1.9262651"><ele>63.0</ele><time>2026-04-02T12:03:24.533Z</time></trkpt><trkpt lat="49.9780576" lon="1.9263505"><ele>62.66666666666667</ele><time>2026-04-02T12:03:25.534Z</time></trkpt><trkpt lat="49.9778952" lon="1.9264253"><ele>62.333333333333336</ele><time>2026-04-02T12:03:26.535Z</time></trkpt><trkpt lat="49.9777289" lon="1.9264782"><ele>62.0</ele><time>2026-04-02T12:03:27.534Z</time></trkpt><trkpt lat="49.9775603" lon="1.9265164"><ele>61.333333333333336</ele><time>2026-04-02T12:03:28.533Z</time></trkpt><trkpt lat="49.9773842" lon="1.9265475"><ele>60.66666666666667</ele><time>2026-04-02T12:03:29.534Z</time></trkpt><trkpt lat="49.9772062" lon="1.9265733"><ele>60.0</ele><time>2026-04-02T12:03:30.534Z</time></trkpt><trkpt lat="49.9770223" lon="1.9265857"><ele>60.0</ele><time>2026-04-02T12:03:31.535Z</time></trkpt><trkpt lat="49.9768337" lon="1.9265938"><ele>60.0</ele><time>2026-04-02T12:03:32.533Z</time></trkpt><trkpt lat="49.9766492" lon="1.9266124"><ele>60.0</ele><time>2026-04-02T12:03:33.533Z</time></trkpt><trkpt lat="49.9764568" lon="1.926626"><ele>59.66666666666667</ele><time>2026-04-02T12:03:34.534Z</time></trkpt><trkpt lat="49.9762635" lon="1.926637"><ele>59.333333333333336</ele><time>2026-04-02T12:03:35.534Z</time></trkpt><trkpt lat="49.9760668" lon="1.9266445"><ele>59.0</ele><time>2026-04-02T12:03:36.534Z</time></trkpt><trkpt lat="49.975872" lon="1.9266537"><ele>59.0</ele><time>2026-04-02T12:03:37.534Z</time></trkpt><trkpt lat="49.975678" lon="1.9266563"><ele>59.0</ele><time>2026-04-02T12:03:38.534Z</time></trkpt><trkpt lat="49.9754816" lon="1.9266618"><ele>59.0</ele><time>2026-04-02T12:03:39.534Z</time></trkpt><trkpt lat="49.9752832" lon="1.9266674"><ele>59.0</ele><time>2026-04-02T12:03:40.534Z</time></trkpt><trkpt lat="49.975083" lon="1.9266739"><ele>59.0</ele><time>2026-04-02T12:03:41.534Z</time></trkpt><trkpt lat="49.9748812" lon="1.92669"><ele>59.0</ele><time>2026-04-02T12:03:42.534Z</time></trkpt><trkpt lat="49.9746829" lon="1.9267135"><ele>58.66666666666667</ele><time>2026-04-02T12:03:43.534Z</time></trkpt><trkpt lat="49.9744895" lon="1.926747"><ele>58.33333333333333</ele><time>2026-04-02T12:03:44.535Z</time></trkpt><trkpt lat="49.9742976" lon="1.9267925"><ele>58.0</ele><time>2026-04-02T12:03:45.534Z</time></trkpt><trkpt lat="49.9741195" lon="1.9268453"><ele>57.666666666666664</ele><time>2026-04-02T12:03:46.534Z</time></trkpt><trkpt lat="49.9739495" lon="1.9269119"><ele>57.33333333333333</ele><time>2026-04-02T12:03:47.534Z</time></trkpt><trkpt lat="49.97379" lon="1.9269839"><ele>57.0</ele><time>2026-04-02T12:03:48.533Z</time></trkpt><trkpt lat="49.973629" lon="1.9270495"><ele>57.0</ele><time>2026-04-02T12:03:49.534Z</time></trkpt><trkpt lat="49.9734595" lon="1.9271139"><ele>57.0</ele><time>2026-04-02T12:03:50.535Z</time></trkpt><trkpt lat="49.9732853" lon="1.9271785"><ele>57.0</ele><time>2026-04-02T12:03:51.534Z</time></trkpt><trkpt lat="49.9731067" lon="1.9272508"><ele>56.33333333333333</ele><time>2026-04-02T12:03:52.535Z</time></trkpt><trkpt lat="49.9729223" lon="1.9273177"><ele>55.666666666666664</ele><time>2026-04-02T12:03:53.533Z</time></trkpt><trkpt lat="49.9727341" lon="1.9273879"><ele>55.0</ele><time>2026-04-02T12:03:54.534Z</time></trkpt><trkpt lat="49.9725446" lon="1.9274602"><ele>54.33333333333333</ele><time>2026-04-02T12:03:55.534Z</time></trkpt><trkpt lat="49.9723524" lon="1.9275262"><ele>53.66666666666667</ele><time>2026-04-02T12:03:56.533Z</time></trkpt><trkpt lat="49.9721592" lon="1.9275858"><ele>53.0</ele><time>2026-04-02T12:03:57.534Z</time></trkpt><trkpt lat="49.971962" lon="1.9276298"><ele>52.0</ele><time>2026-04-02T12:03:58.535Z</time></trkpt><trkpt lat="49.9717686" lon="1.9276715"><ele>51.0</ele><time>2026-04-02T12:03:59.533Z</time></trkpt><trkpt lat="49.9715932" lon="1.9277029"><ele>50.0</ele><time>2026-04-02T12:04:00.533Z</time></trkpt><trkpt lat="49.9714273" lon="1.9277259"><ele>49.75</ele><time>2026-04-02T12:04:01.534Z</time></trkpt><trkpt lat="49.9712734" lon="1.9277407"><ele>49.5</ele><time>2026-04-02T12:04:02.535Z</time></trkpt><trkpt lat="49.9711274" lon="1.9277548"><ele>49.25</ele><time>2026-04-02T12:04:03.534Z</time></trkpt><trkpt lat="49.9709885" lon="1.9277729"><ele>49.0</ele><time>2026-04-02T12:04:04.534Z</time></trkpt><trkpt lat="49.9708625" lon="1.9278001"><ele>48.5</ele><time>2026-04-02T12:04:05.534Z</time></trkpt><trkpt lat="49.9707332" lon="1.9278598"><ele>48.0</ele><time>2026-04-02T12:04:06.534Z</time></trkpt><trkpt lat="49.9705988" lon="1.9279436"><ele>47.5</ele><time>2026-04-02T12:04:07.534Z</time></trkpt><trkpt lat="49.9704591" lon="1.9280265"><ele>47.0</ele><time>2026-04-02T12:04:08.534Z</time></trkpt><trkpt lat="49.9703317" lon="1.9281055"><ele>47.0</ele><time>2026-04-02T12:04:09.534Z</time></trkpt><trkpt lat="49.9702202" lon="1.9281815"><ele>47.0</ele><time>2026-04-02T12:04:10.535Z</time></trkpt><trkpt lat="49.9701223" lon="1.9282548"><ele>47.0</ele><time>2026-04-02T12:04:11.534Z</time></trkpt><trkpt lat="49.9700414" lon="1.9283458"><ele>47.0</ele><time>2026-04-02T12:04:12.535Z</time></trkpt><trkpt lat="49.9699641" lon="1.9284458"><ele>47.0</ele><time>2026-04-02T12:04:13.534Z</time></trkpt><trkpt lat="49.969897" lon="1.9285447"><ele>47.0</ele><time>2026-04-02T12:04:14.535Z</time></trkpt><trkpt lat="49.969945" lon="1.9284667"><ele>47.0</ele><time>2026-04-02T12:04:23.535Z</time></trkpt><trkpt lat="49.9700044" lon="1.9283849"><ele>47.0</ele><time>2026-04-02T12:04:25.535Z</time></trkpt><trkpt lat="49.9700705" lon="1.928314"><ele>47.0</ele><time>2026-04-02T12:04:27.534Z</time></trkpt><trkpt lat="49.9699402" lon="1.9283273"><ele>47.0</ele><time>2026-04-02T12:04:32.533Z</time></trkpt><trkpt lat="49.9698557" lon="1.9283432"><ele>47.0</ele><time>2026-04-02T12:04:33.534Z</time></trkpt><trkpt lat="49.9697743" lon="1.9283647"><ele>46.166666666666664</ele><time>2026-04-02T12:04:34.534Z</time></trkpt><trkpt lat="49.9696841" lon="1.9283856"><ele>45.33333333333333</ele><time>2026-04-02T12:04:35.534Z</time></trkpt><trkpt lat="49.9696054" lon="1.9284077"><ele>44.5</ele><time>2026-04-02T12:04:36.534Z</time></trkpt><trkpt lat="49.9695337" lon="1.9284197"><ele>43.666666666666664</ele><time>2026-04-02T12:04:37.535Z</time></trkpt><trkpt lat="49.9694133" lon="1.928422"><ele>42.833333333333336</ele><time>2026-04-02T12:04:39.535Z</time></trkpt><trkpt lat="49.9693472" lon="1.9284002"><ele>42.0</ele><time>2026-04-02T12:04:40.534Z</time></trkpt><trkpt lat="49.9692776" lon="1.928361"><ele>42.0</ele><time>2026-04-02T12:04:41.534Z</time></trkpt><trkpt lat="49.9692171" lon="1.9283046"><ele>42.0</ele><time>2026-04-02T12:04:42.534Z</time></trkpt><trkpt lat="49.9691595" lon="1.9282553"><ele>42.0</ele><time>2026-04-02T12:04:43.534Z</time></trkpt><trkpt lat="49.9690645" lon="1.9281595"><ele>42.0</ele><time>2026-04-02T12:04:45.534Z</time></trkpt><trkpt lat="49.9689869" lon="1.9281185"><ele>42.0</ele><time>2026-04-02T12:04:47.534Z</time></trkpt><trkpt lat="49.9688494" lon="1.9280923"><ele>40.0</ele><time>2026-04-02T12:04:49.535Z</time></trkpt><trkpt lat="49.9687623" lon="1.9280611"><ele>38.0</ele><time>2026-04-02T12:04:50.535Z</time></trkpt><trkpt lat="49.9686673" lon="1.9280291"><ele>36.0</ele><time>2026-04-02T12:04:51.534Z</time></trkpt><trkpt lat="49.9685668" lon="1.9279743"><ele>34.0</ele><time>2026-04-02T12:04:52.533Z</time></trkpt><trkpt lat="49.9684617" lon="1.9279386"><ele>32.0</ele><time>2026-04-02T12:04:53.534Z</time></trkpt><trkpt lat="49.9683596" lon="1.9278988"><ele>30.8</ele><time>2026-04-02T12:04:54.535Z</time></trkpt><trkpt lat="49.9682575" lon="1.9278685"><ele>29.6</ele><time>2026-04-02T12:04:55.535Z</time></trkpt><trkpt lat="49.9681606" lon="1.9278588"><ele>28.400000000000002</ele><time>2026-04-02T12:04:56.536Z</time></trkpt><trkpt lat="49.9680698" lon="1.9278799"><ele>27.200000000000003</ele><time>2026-04-02T12:04:57.535Z</time></trkpt><trkpt lat="49.9679805" lon="1.9279267"><ele>26.0</ele><time>2026-04-02T12:04:58.535Z</time></trkpt><trkpt lat="49.9678891" lon="1.9279951"><ele>26.0</ele><time>2026-04-02T12:04:59.535Z</time></trkpt><trkpt lat="49.9677979" lon="1.928071"><ele>26.0</ele><time>2026-04-02T12:05:00.535Z</time></trkpt><trkpt lat="49.9677045" lon="1.9281485"><ele>26.0</ele><time>2026-04-02T12:05:01.536Z</time></trkpt><trkpt lat="49.9676078" lon="1.9282301"><ele>26.0</ele><time>2026-04-02T12:05:02.536Z</time></trkpt><trkpt lat="49.9675153" lon="1.9283144"><ele>26.0</ele><time>2026-04-02T12:05:03.535Z</time></trkpt><trkpt lat="49.9674238" lon="1.9283881"><ele>26.200000000000003</ele><time>2026-04-02T12:05:04.535Z</time></trkpt><trkpt lat="49.9673506" lon="1.9284719"><ele>26.400000000000002</ele><time>2026-04-02T12:05:05.535Z</time></trkpt><trkpt lat="49.9672944" lon="1.9285736"><ele>26.6</ele><time>2026-04-02T12:05:06.534Z</time></trkpt><trkpt lat="49.9672591" lon="1.9286956"><ele>26.8</ele><time>2026-04-02T12:05:07.535Z</time></trkpt><trkpt lat="49.9672506" lon="1.9288464"><ele>27.0</ele><time>2026-04-02T12:05:08.535Z</time></trkpt><trkpt lat="49.9672438" lon="1.9290172"><ele>27.0</ele><time>2026-04-02T12:05:09.535Z</time></trkpt><trkpt lat="49.9672429" lon="1.9291706"><ele>27.0</ele><time>2026-04-02T12:05:10.535Z</time></trkpt><trkpt lat="49.9672472" lon="1.9293101"><ele>27.0</ele><time>2026-04-02T12:05:11.535Z</time></trkpt><trkpt lat="49.9672494" lon="1.9294399"><ele>27.0</ele><time>2026-04-02T12:05:12.535Z</time></trkpt><trkpt lat="49.967252" lon="1.9295688"><ele>27.0</ele><time>2026-04-02T12:05:13.536Z</time></trkpt><trkpt lat="49.9672515" lon="1.9296991"><ele>27.0</ele><time>2026-04-02T12:05:14.536Z</time></trkpt><trkpt lat="49.9672509" lon="1.9298303"><ele>27.0</ele><time>2026-04-02T12:05:15.535Z</time></trkpt><trkpt lat="49.9672505" lon="1.9299536"><ele>27.0</ele><time>2026-04-02T12:05:16.536Z</time></trkpt><trkpt lat="49.9672452" lon="1.9300615"><ele>27.0</ele><time>2026-04-02T12:05:17.535Z</time></trkpt><trkpt lat="49.9672392" lon="1.9301633"><ele>27.0</ele><time>2026-04-02T12:05:18.536Z</time></trkpt><trkpt lat="49.9671742" lon="1.930304"><ele>27.0</ele><time>2026-04-02T12:05:20.536Z</time></trkpt><trkpt lat="49.9670706" lon="1.9303517"><ele>27.0</ele><time>2026-04-02T12:05:22.535Z</time></trkpt><trkpt lat="49.9669604" lon="1.9303266"><ele>27.0</ele><time>2026-04-02T12:05:24.535Z</time></trkpt><trkpt lat="49.9669134" lon="1.9302135"><ele>27.000000000000004</ele><time>2026-04-02T12:05:26.536Z</time></trkpt><trkpt lat="49.966917" lon="1.9300375"><ele>27.000000000000004</ele><time>2026-04-02T12:05:28.534Z</time></trkpt><trkpt lat="49.9669447" lon="1.929929"><ele>27.0</ele><time>2026-04-02T12:05:29.535Z</time></trkpt><trkpt lat="49.9669669" lon="1.9298032"><ele>27.0</ele><time>2026-04-02T12:05:30.534Z</time></trkpt><trkpt lat="49.9669857" lon="1.9296567"><ele>27.0</ele><time>2026-04-02T12:05:31.535Z</time></trkpt><trkpt lat="49.9670026" lon="1.9295056"><ele>27.000000000000004</ele><time>2026-04-02T12:05:32.536Z</time></trkpt><trkpt lat="49.9670162" lon="1.9293481"><ele>27.000000000000004</ele><time>2026-04-02T12:05:33.535Z</time></trkpt><trkpt lat="49.967026" lon="1.9291721"><ele>27.0</ele><time>2026-04-02T12:05:34.535Z</time></trkpt><trkpt lat="49.967039" lon="1.9290052"><ele>27.0</ele><time>2026-04-02T12:05:35.536Z</time></trkpt><trkpt lat="49.9670479" lon="1.9288543"><ele>27.0</ele><time>2026-04-02T12:05:36.535Z</time></trkpt><trkpt lat="49.9670533" lon="1.9287293"><ele>27.0</ele><time>2026-04-02T12:05:37.535Z</time></trkpt><trkpt lat="49.9670603" lon="1.928611"><ele>27.0</ele><time>2026-04-02T12:05:38.535Z</time></trkpt><trkpt lat="49.9670568" lon="1.9284911"><ele>27.0</ele><time>2026-04-02T12:05:39.536Z</time></trkpt><trkpt lat="49.9670365" lon="1.9283783"><ele>27.0</ele><time>2026-04-02T12:05:40.535Z</time></trkpt><trkpt lat="49.967002" lon="1.928276"><ele>27.0</ele><time>2026-04-02T12:05:41.535Z</time></trkpt><trkpt lat="49.966935" lon="1.928194"><ele>27.0</ele><time>2026-04-02T12:05:42.535Z</time></trkpt><trkpt lat="49.9668442" lon="1.9281212"><ele>27.0</ele><time>2026-04-02T12:05:43.534Z</time></trkpt><trkpt lat="49.9667348" lon="1.9280516"><ele>27.0</ele><time>2026-04-02T12:05:44.536Z</time></trkpt><trkpt lat="49.9666127" lon="1.9279898"><ele>27.0</ele><time>2026-04-02T12:05:45.535Z</time></trkpt><trkpt lat="49.9664816" lon="1.9279215"><ele>28.0</ele><time>2026-04-02T12:05:46.535Z</time></trkpt><trkpt lat="49.9663448" lon="1.9278522"><ele>29.0</ele><time>2026-04-02T12:05:47.536Z</time></trkpt><trkpt lat="49.9662006" lon="1.9277942"><ele>30.0</ele><time>2026-04-02T12:05:48.535Z</time></trkpt><trkpt lat="49.9660527" lon="1.9277454"><ele>31.0</ele><time>2026-04-02T12:05:49.535Z</time></trkpt><trkpt lat="49.9659133" lon="1.9277043"><ele>32.75</ele><time>2026-04-02T12:05:50.536Z</time></trkpt><trkpt lat="49.9657768" lon="1.9276549"><ele>34.5</ele><time>2026-04-02T12:05:51.535Z</time></trkpt><trkpt lat="49.9656382" lon="1.9275828"><ele>36.25</ele><time>2026-04-02T12:05:52.535Z</time></trkpt><trkpt lat="49.9655119" lon="1.9275053"><ele>38.0</ele><time>2026-04-02T12:05:53.535Z</time></trkpt><trkpt lat="49.9653905" lon="1.9273983"><ele>38.0</ele><time>2026-04-02T12:05:54.535Z</time></trkpt><trkpt lat="49.9652828" lon="1.9272606"><ele>38.0</ele><time>2026-04-02T12:05:55.534Z</time></trkpt><trkpt lat="49.9651871" lon="1.9271228"><ele>38.0</ele><time>2026-04-02T12:05:56.535Z</time></trkpt><trkpt lat="49.9650964" lon="1.9269951"><ele>38.0</ele><time>2026-04-02T12:05:57.535Z</time></trkpt><trkpt lat="49.9650104" lon="1.9268895"><ele>39.75</ele><time>2026-04-02T12:05:58.535Z</time></trkpt><trkpt lat="49.9649041" lon="1.9268114"><ele>41.5</ele><time>2026-04-02T12:05:59.535Z</time></trkpt><trkpt lat="49.9647806" lon="1.9267594"><ele>43.25</ele><time>2026-04-02T12:06:00.536Z</time></trkpt><trkpt lat="49.9646509" lon="1.926748"><ele>45.0</ele><time>2026-04-02T12:06:01.535Z</time></trkpt><trkpt lat="49.9645147" lon="1.9267617"><ele>45.0</ele><time>2026-04-02T12:06:02.536Z</time></trkpt><trkpt lat="49.9643749" lon="1.9268011"><ele>45.0</ele><time>2026-04-02T12:06:03.534Z</time></trkpt><trkpt lat="49.9642376" lon="1.9268668"><ele>45.0</ele><time>2026-04-02T12:06:04.536Z</time></trkpt><trkpt lat="49.9640956" lon="1.9269357"><ele>45.0</ele><time>2026-04-02T12:06:05.536Z</time></trkpt><trkpt lat="49.9639597" lon="1.927"><ele>46.5</ele><time>2026-04-02T12:06:06.534Z</time></trkpt><trkpt lat="49.9638338" lon="1.9270571"><ele>48.0</ele><time>2026-04-02T12:06:07.536Z</time></trkpt><trkpt lat="49.9637141" lon="1.9271013"><ele>49.5</ele><time>2026-04-02T12:06:08.535Z</time></trkpt><trkpt lat="49.9636055" lon="1.9271315"><ele>51.0</ele><time>2026-04-02T12:06:09.535Z</time></trkpt><trkpt lat="49.9635096" lon="1.927148"><ele>51.0</ele><time>2026-04-02T12:06:10.535Z</time></trkpt><trkpt lat="49.9634332" lon="1.9271593"><ele>51.0</ele><time>2026-04-02T12:06:11.534Z</time></trkpt><trkpt lat="49.9633686" lon="1.9271651"><ele>51.0</ele><time>2026-04-02T12:06:12.535Z</time></trkpt><trkpt lat="49.9632782" lon="1.9271765"><ele>51.0</ele><time>2026-04-02T12:06:14.535Z</time></trkpt><trkpt lat="49.9632143" lon="1.9271655"><ele>51.0</ele><time>2026-04-02T12:06:16.536Z</time></trkpt><trkpt lat="49.9631616" lon="1.9270164"><ele>51.0</ele><time>2026-04-02T12:06:18.535Z</time></trkpt><trkpt lat="49.9631433" lon="1.9268769"><ele>51.75</ele><time>2026-04-02T12:06:19.535Z</time></trkpt><trkpt lat="49.9631242" lon="1.9267036"><ele>52.5</ele><time>2026-04-02T12:06:20.535Z</time></trkpt><trkpt lat="49.9631062" lon="1.926512"><ele>53.25</ele><time>2026-04-02T12:06:21.535Z</time></trkpt><trkpt lat="49.9630814" lon="1.9262986"><ele>54.0</ele><time>2026-04-02T12:06:22.535Z</time></trkpt><trkpt lat="49.9630553" lon="1.9260709"><ele>53.33333333333333</ele><time>2026-04-02T12:06:23.536Z</time></trkpt><trkpt lat="49.9630311" lon="1.9258293"><ele>52.666666666666664</ele><time>2026-04-02T12:06:24.535Z</time></trkpt><trkpt lat="49.9630098" lon="1.925575"><ele>52.0</ele><time>2026-04-02T12:06:25.536Z</time></trkpt><trkpt lat="49.9629821" lon="1.9253154"><ele>51.0</ele><time>2026-04-02T12:06:26.536Z</time></trkpt><trkpt lat="49.9629512" lon="1.9250533"><ele>50.0</ele><time>2026-04-02T12:06:27.535Z</time></trkpt><trkpt lat="49.9629245" lon="1.9247807"><ele>49.0</ele><time>2026-04-02T12:06:28.536Z</time></trkpt><trkpt lat="49.962899" lon="1.9244995"><ele>48.33333333333333</ele><time>2026-04-02T12:06:29.535Z</time></trkpt><trkpt lat="49.9628668" lon="1.9242136"><ele>47.666666666666664</ele><time>2026-04-02T12:06:30.535Z</time></trkpt><trkpt lat="49.9628327" lon="1.9239202"><ele>47.0</ele><time>2026-04-02T12:06:31.535Z</time></trkpt><trkpt lat="49.9628001" lon="1.9236259"><ele>47.0</ele><time>2026-04-02T12:06:32.536Z</time></trkpt><trkpt lat="49.9627711" lon="1.9233248"><ele>47.0</ele><time>2026-04-02T12:06:33.535Z</time></trkpt><trkpt lat="49.9627399" lon="1.923022"><ele>47.0</ele><time>2026-04-02T12:06:34.535Z</time></trkpt><trkpt lat="49.96271" lon="1.9227185"><ele>47.666666666666664</ele><time>2026-04-02T12:06:35.535Z</time></trkpt><trkpt lat="49.9626792" lon="1.9224139"><ele>48.33333333333333</ele><time>2026-04-02T12:06:36.536Z</time></trkpt><trkpt lat="49.9626493" lon="1.922105"><ele>49.0</ele><time>2026-04-02T12:06:37.535Z</time></trkpt><trkpt lat="49.9626174" lon="1.9217969"><ele>50.0</ele><time>2026-04-02T12:06:38.536Z</time></trkpt><trkpt lat="49.9625871" lon="1.9214862"><ele>51.0</ele><time>2026-04-02T12:06:39.535Z</time></trkpt><trkpt lat="49.9625559" lon="1.9211755"><ele>52.0</ele><time>2026-04-02T12:06:40.534Z</time></trkpt><trkpt lat="49.962527" lon="1.9208818"><ele>52.5</ele><time>2026-04-02T12:06:41.535Z</time></trkpt><trkpt lat="49.9625027" lon="1.9206122"><ele>53.0</ele><time>2026-04-02T12:06:42.535Z</time></trkpt><trkpt lat="49.9624835" lon="1.9203833"><ele>53.5</ele><time>2026-04-02T12:06:43.535Z</time></trkpt><trkpt lat="49.9624711" lon="1.9202161"><ele>54.0</ele><time>2026-04-02T12:06:44.535Z</time></trkpt><trkpt lat="49.9624715" lon="1.9201032"><ele>54.0</ele><time>2026-04-02T12:06:45.535Z</time></trkpt><trkpt lat="49.9624576" lon="1.9199956"><ele>54.0</ele><time>2026-04-02T12:06:47.536Z</time></trkpt><trkpt lat="49.9624197" lon="1.9201284"><ele>54.0</ele><time>2026-04-02T12:06:50.535Z</time></trkpt><trkpt lat="49.9624292" lon="1.9202508"><ele>54.0</ele><time>2026-04-02T12:06:51.535Z</time></trkpt><trkpt lat="49.9624395" lon="1.920368"><ele>54.0</ele><time>2026-04-02T12:06:52.536Z</time></trkpt><trkpt lat="49.9624654" lon="1.9204642"><ele>54.0</ele><time>2026-04-02T12:06:53.535Z</time></trkpt><trkpt lat="49.9625535" lon="1.9205015"><ele>54.0</ele><time>2026-04-02T12:06:55.535Z</time></trkpt><trkpt lat="49.9626402" lon="1.9203315"><ele>54.00000000000001</ele><time>2026-04-02T12:06:57.535Z</time></trkpt><trkpt lat="49.9626622" lon="1.9202012"><ele>54.00000000000001</ele><time>2026-04-02T12:06:58.535Z</time></trkpt><trkpt lat="49.9626729" lon="1.9200466"><ele>54.0</ele><time>2026-04-02T12:06:59.536Z</time></trkpt><trkpt lat="49.9626897" lon="1.9198684"><ele>54.0</ele><time>2026-04-02T12:07:00.535Z</time></trkpt><trkpt lat="49.9626966" lon="1.9196804"><ele>54.0</ele><time>2026-04-02T12:07:01.535Z</time></trkpt><trkpt lat="49.9626987" lon="1.9194846"><ele>54.0</ele><time>2026-04-02T12:07:02.535Z</time></trkpt><trkpt lat="49.9627074" lon="1.9192787"><ele>54.0</ele><time>2026-04-02T12:07:03.534Z</time></trkpt><trkpt lat="49.9627085" lon="1.9190617"><ele>54.0</ele><time>2026-04-02T12:07:04.535Z</time></trkpt><trkpt lat="49.9627078" lon="1.9188344"><ele>54.0</ele><time>2026-04-02T12:07:05.535Z</time></trkpt><trkpt lat="49.9627126" lon="1.918597"><ele>54.0</ele><time>2026-04-02T12:07:06.536Z</time></trkpt><trkpt lat="49.9627263" lon="1.9183526"><ele>54.0</ele><time>2026-04-02T12:07:07.535Z</time></trkpt><trkpt lat="49.9627359" lon="1.9181015"><ele>54.0</ele><time>2026-04-02T12:07:08.535Z</time></trkpt><trkpt lat="49.9627465" lon="1.917843"><ele>54.0</ele><time>2026-04-02T12:07:09.535Z</time></trkpt><trkpt lat="49.962754" lon="1.9175797"><ele>54.0</ele><time>2026-04-02T12:07:10.535Z</time></trkpt><trkpt lat="49.9627632" lon="1.9173143"><ele>54.0</ele><time>2026-04-02T12:07:11.535Z</time></trkpt><trkpt lat="49.9627741" lon="1.9170757"><ele>54.0</ele><time>2026-04-02T12:07:12.535Z</time></trkpt><trkpt lat="49.962786" lon="1.9168568"><ele>54.0</ele><time>2026-04-02T12:07:13.534Z</time></trkpt><trkpt lat="49.9627873" lon="1.916641"><ele>54.0</ele><time>2026-04-02T12:07:14.535Z</time></trkpt><trkpt lat="49.9627944" lon="1.9164398"><ele>54.2</ele><time>2026-04-02T12:07:15.535Z</time></trkpt><trkpt lat="49.9627953" lon="1.9162573"><ele>54.400000000000006</ele><time>2026-04-02T12:07:16.535Z</time></trkpt><trkpt lat="49.9627986" lon="1.9160992"><ele>54.6</ele><time>2026-04-02T12:07:17.536Z</time></trkpt><trkpt lat="49.9628021" lon="1.9159409"><ele>54.8</ele><time>2026-04-02T12:07:18.535Z</time></trkpt><trkpt lat="49.9628059" lon="1.9157689"><ele>55.0</ele><time>2026-04-02T12:07:19.534Z</time></trkpt><trkpt lat="49.9628079" lon="1.9155763"><ele>55.0</ele><time>2026-04-02T12:07:20.535Z</time></trkpt><trkpt lat="49.9628181" lon="1.915375"><ele>55.0</ele><time>2026-04-02T12:07:21.536Z</time></trkpt><trkpt lat="49.9628339" lon="1.9151808"><ele>55.0</ele><time>2026-04-02T12:07:22.534Z</time></trkpt><trkpt lat="49.9628501" lon="1.9149687"><ele>55.0</ele><time>2026-04-02T12:07:23.535Z</time></trkpt><trkpt lat="49.9628614" lon="1.9147603"><ele>55.0</ele><time>2026-04-02T12:07:24.535Z</time></trkpt><trkpt lat="49.9628695" lon="1.9145624"><ele>55.0</ele><time>2026-04-02T12:07:25.536Z</time></trkpt><trkpt lat="49.962886" lon="1.9143673"><ele>55.0</ele><time>2026-04-02T12:07:26.535Z</time></trkpt><trkpt lat="49.9628967" lon="1.9141594"><ele>55.0</ele><time>2026-04-02T12:07:27.534Z</time></trkpt><trkpt lat="49.9629013" lon="1.9139509"><ele>55.25</ele><time>2026-04-02T12:07:28.534Z</time></trkpt><trkpt lat="49.9629114" lon="1.9137517"><ele>55.5</ele><time>2026-04-02T12:07:29.535Z</time></trkpt><trkpt lat="49.9629233" lon="1.913575"><ele>55.75</ele><time>2026-04-02T12:07:30.534Z</time></trkpt><trkpt lat="49.9629363" lon="1.913412"><ele>56.0</ele><time>2026-04-02T12:07:31.535Z</time></trkpt><trkpt lat="49.9629447" lon="1.9132485"><ele>56.4</ele><time>2026-04-02T12:07:32.534Z</time></trkpt><trkpt lat="49.9629496" lon="1.913072"><ele>56.8</ele><time>2026-04-02T12:07:33.534Z</time></trkpt><trkpt lat="49.9629595" lon="1.9128865"><ele>57.199999999999996</ele><time>2026-04-02T12:07:34.535Z</time></trkpt><trkpt lat="49.9629685" lon="1.9127138"><ele>57.599999999999994</ele><time>2026-04-02T12:07:35.535Z</time></trkpt><trkpt lat="49.9629711" lon="1.9125532"><ele>58.0</ele><time>2026-04-02T12:07:36.536Z</time></trkpt><trkpt lat="49.9629714" lon="1.9124075"><ele>58.8</ele><time>2026-04-02T12:07:37.535Z</time></trkpt><trkpt lat="49.9629661" lon="1.9122467"><ele>59.599999999999994</ele><time>2026-04-02T12:07:38.535Z</time></trkpt><trkpt lat="49.9629503" lon="1.9120838"><ele>60.400000000000006</ele><time>2026-04-02T12:07:39.534Z</time></trkpt><trkpt lat="49.9629286" lon="1.9119376"><ele>61.2</ele><time>2026-04-02T12:07:40.536Z</time></trkpt><trkpt lat="49.9629101" lon="1.9117811"><ele>62.0</ele><time>2026-04-02T12:07:41.535Z</time></trkpt><trkpt lat="49.9629013" lon="1.9116513"><ele>63.333333333333336</ele><time>2026-04-02T12:07:42.535Z</time></trkpt><trkpt lat="49.962895" lon="1.9115502"><ele>64.66666666666667</ele><time>2026-04-02T12:07:43.536Z</time></trkpt><trkpt lat="49.9628921" lon="1.9114139"><ele>66.0</ele><time>2026-04-02T12:07:45.535Z</time></trkpt><trkpt lat="49.9628744" lon="1.9113056"><ele>67.33333333333333</ele><time>2026-04-02T12:08:40.541Z</time></trkpt><trkpt lat="49.9628522" lon="1.9111682"><ele>68.66666666666666</ele><time>2026-04-02T12:08:41.544Z</time></trkpt><trkpt lat="49.9628379" lon="1.9110057"><ele>70.0</ele><time>2026-04-02T12:08:43.536Z</time></trkpt><trkpt lat="49.9628356" lon="1.9108744"><ele>70.6</ele><time>2026-04-02T12:08:45.535Z</time></trkpt><trkpt lat="49.9628277" lon="1.9107548"><ele>71.2</ele><time>2026-04-02T12:08:46.535Z</time></trkpt><trkpt lat="49.9628207" lon="1.9106057"><ele>71.8</ele><time>2026-04-02T12:08:47.535Z</time></trkpt><trkpt lat="49.9628121" lon="1.9104401"><ele>72.4</ele><time>2026-04-02T12:08:48.536Z</time></trkpt><trkpt lat="49.9628037" lon="1.9102795"><ele>73.0</ele><time>2026-04-02T12:08:49.535Z</time></trkpt><trkpt lat="49.9628081" lon="1.9101143"><ele>72.75</ele><time>2026-04-02T12:08:50.535Z</time></trkpt><trkpt lat="49.9628268" lon="1.9099357"><ele>72.5</ele><time>2026-04-02T12:08:51.535Z</time></trkpt><trkpt lat="49.9628463" lon="1.9097592"><ele>72.25</ele><time>2026-04-02T12:08:52.535Z</time></trkpt><trkpt lat="49.962868" lon="1.9095812"><ele>72.0</ele><time>2026-04-02T12:08:53.534Z</time></trkpt><trkpt lat="49.9628975" lon="1.9093923"><ele>71.25</ele><time>2026-04-02T12:08:54.535Z</time></trkpt><trkpt lat="49.9629309" lon="1.9091977"><ele>70.5</ele><time>2026-04-02T12:08:55.535Z</time></trkpt><trkpt lat="49.9629715" lon="1.9090226"><ele>69.75</ele><time>2026-04-02T12:08:56.535Z</time></trkpt><trkpt lat="49.9630136" lon="1.9088521"><ele>69.0</ele><time>2026-04-02T12:08:57.535Z</time></trkpt><trkpt lat="49.9630574" lon="1.9087008"><ele>69.0</ele><time>2026-04-02T12:08:58.536Z</time></trkpt><trkpt lat="49.963098" lon="1.9085624"><ele>69.0</ele><time>2026-04-02T12:08:59.535Z</time></trkpt><trkpt lat="49.9631292" lon="1.9084212"><ele>69.0</ele><time>2026-04-02T12:09:00.535Z</time></trkpt><trkpt lat="49.963149" lon="1.9082722"><ele>69.0</ele><time>2026-04-02T12:09:01.535Z</time></trkpt><trkpt lat="49.9631591" lon="1.9081099"><ele>69.0</ele><time>2026-04-02T12:09:02.536Z</time></trkpt><trkpt lat="49.9631616" lon="1.9079488"><ele>67.83333333333333</ele><time>2026-04-02T12:09:03.536Z</time></trkpt><trkpt lat="49.9631621" lon="1.9077959"><ele>66.66666666666667</ele><time>2026-04-02T12:09:04.536Z</time></trkpt><trkpt lat="49.9631662" lon="1.9076546"><ele>65.5</ele><time>2026-04-02T12:09:05.536Z</time></trkpt><trkpt lat="49.9631662" lon="1.9075136"><ele>64.33333333333334</ele><time>2026-04-02T12:09:06.536Z</time></trkpt><trkpt lat="49.9631687" lon="1.907376"><ele>63.16666666666667</ele><time>2026-04-02T12:09:07.536Z</time></trkpt><trkpt lat="49.9631793" lon="1.9072525"><ele>62.0</ele><time>2026-04-02T12:09:08.535Z</time></trkpt><trkpt lat="49.9632073" lon="1.9071529"><ele>61.142857142857146</ele><time>2026-04-02T12:09:09.535Z</time></trkpt><trkpt lat="49.9632516" lon="1.9070736"><ele>60.28571428571429</ele><time>2026-04-02T12:09:10.535Z</time></trkpt><trkpt lat="49.9633067" lon="1.9069974"><ele>59.42857142857143</ele><time>2026-04-02T12:09:11.534Z</time></trkpt><trkpt lat="49.9633674" lon="1.906947"><ele>58.57142857142857</ele><time>2026-04-02T12:09:12.535Z</time></trkpt><trkpt lat="49.9634402" lon="1.9069102"><ele>57.714285714285715</ele><time>2026-04-02T12:09:13.535Z</time></trkpt><trkpt lat="49.9635192" lon="1.9068884"><ele>56.85714285714286</ele><time>2026-04-02T12:09:14.535Z</time></trkpt><trkpt lat="49.9635945" lon="1.9068651"><ele>56.0</ele><time>2026-04-02T12:09:15.535Z</time></trkpt><trkpt lat="49.9636617" lon="1.9068362"><ele>54.66666666666667</ele><time>2026-04-02T12:09:16.535Z</time></trkpt><trkpt lat="49.9637411" lon="1.9068068"><ele>53.333333333333336</ele><time>2026-04-02T12:09:17.535Z</time></trkpt><trkpt lat="49.9638232" lon="1.9067731"><ele>52.0</ele><time>2026-04-02T12:09:18.535Z</time></trkpt><trkpt lat="49.9639108" lon="1.9067357"><ele>50.66666666666667</ele><time>2026-04-02T12:09:19.536Z</time></trkpt><trkpt lat="49.9639987" lon="1.9066996"><ele>49.333333333333336</ele><time>2026-04-02T12:09:20.535Z</time></trkpt><trkpt lat="49.9640846" lon="1.9066648"><ele>48.0</ele><time>2026-04-02T12:09:21.536Z</time></trkpt><trkpt lat="49.9641742" lon="1.9066301"><ele>45.5</ele><time>2026-04-02T12:09:22.536Z</time></trkpt><trkpt lat="49.9642615" lon="1.9065967"><ele>43.0</ele><time>2026-04-02T12:09:23.534Z</time></trkpt><trkpt lat="49.9643447" lon="1.9065655"><ele>40.5</ele><time>2026-04-02T12:09:24.535Z</time></trkpt><trkpt lat="49.9644169" lon="1.9065319"><ele>38.0</ele><time>2026-04-02T12:09:25.535Z</time></trkpt><trkpt lat="49.9645137" lon="1.9064891"><ele>35.5</ele><time>2026-04-02T12:09:27.535Z</time></trkpt><trkpt lat="49.9645983" lon="1.9064278"><ele>33.0</ele><time>2026-04-02T12:09:29.535Z</time></trkpt><trkpt lat="49.9647023" lon="1.9063408"><ele>33.0</ele><time>2026-04-02T12:09:31.536Z</time></trkpt><trkpt lat="49.9647636" lon="1.9062793"><ele>33.0</ele><time>2026-04-02T12:09:32.536Z</time></trkpt><trkpt lat="49.9648323" lon="1.9062186"><ele>33.0</ele><time>2026-04-02T12:09:33.536Z</time></trkpt><trkpt lat="49.9649091" lon="1.9061698"><ele>33.0</ele><time>2026-04-02T12:09:34.535Z</time></trkpt><trkpt lat="49.9649878" lon="1.9061289"><ele>33.0</ele><time>2026-04-02T12:09:35.535Z</time></trkpt><trkpt lat="49.9650613" lon="1.9060885"><ele>33.0</ele><time>2026-04-02T12:09:36.534Z</time></trkpt><trkpt lat="49.9651316" lon="1.9060451"><ele>32.857142857142854</ele><time>2026-04-02T12:09:37.535Z</time></trkpt><trkpt lat="49.9652002" lon="1.906002"><ele>32.714285714285715</ele><time>2026-04-02T12:09:38.535Z</time></trkpt><trkpt lat="49.9652664" lon="1.9059563"><ele>32.57142857142857</ele><time>2026-04-02T12:09:39.535Z</time></trkpt><trkpt lat="49.9653253" lon="1.9059187"><ele>32.42857142857143</ele><time>2026-04-02T12:09:40.535Z</time></trkpt><trkpt lat="49.9654005" lon="1.9058716"><ele>32.285714285714285</ele><time>2026-04-02T12:09:42.534Z</time></trkpt><trkpt lat="49.965461" lon="1.9058319"><ele>32.14285714285714</ele><time>2026-04-02T12:09:44.536Z</time></trkpt><trkpt lat="49.9655196" lon="1.9057912"><ele>32.0</ele><time>2026-04-02T12:09:47.535Z</time></trkpt><trkpt lat="49.9654668" lon="1.9058595"><ele>31.999999999999996</ele><time>2026-04-02T12:09:54.534Z</time></trkpt><trkpt lat="49.965392" lon="1.9058898"><ele>32.0</ele><time>2026-04-02T12:10:00.535Z</time></trkpt><trkpt lat="49.9652767" lon="1.90596"><ele>32.0</ele><time>2026-04-02T12:10:02.535Z</time></trkpt><trkpt lat="49.965208" lon="1.906003"><ele>32.0</ele><time>2026-04-02T12:10:03.534Z</time></trkpt><trkpt lat="49.9651333" lon="1.906047"><ele>31.999999999999996</ele><time>2026-04-02T12:10:04.536Z</time></trkpt><trkpt lat="49.9650566" lon="1.9060901"><ele>32.0</ele><time>2026-04-02T12:10:05.536Z</time></trkpt><trkpt lat="49.9649814" lon="1.906127"><ele>32.2</ele><time>2026-04-02T12:10:06.535Z</time></trkpt><trkpt lat="49.9649155" lon="1.9061594"><ele>32.400000000000006</ele><time>2026-04-02T12:10:07.536Z</time></trkpt><trkpt lat="49.9648107" lon="1.9062169"><ele>32.599999999999994</ele><time>2026-04-02T12:10:09.535Z</time></trkpt><trkpt lat="49.9647199" lon="1.9062596"><ele>32.8</ele><time>2026-04-02T12:10:11.535Z</time></trkpt><trkpt lat="49.9646099" lon="1.9062246"><ele>33.0</ele><time>2026-04-02T12:10:13.534Z</time></trkpt><trkpt lat="49.9645558" lon="1.9061548"><ele>33.0</ele><time>2026-04-02T12:10:14.535Z</time></trkpt><trkpt lat="49.9645011" lon="1.9060577"><ele>33.0</ele><time>2026-04-02T12:10:15.535Z</time></trkpt><trkpt lat="49.9644492" lon="1.9059526"><ele>33.0</ele><time>2026-04-02T12:10:16.534Z</time></trkpt><trkpt lat="49.9643948" lon="1.9058438"><ele>33.0</ele><time>2026-04-02T12:10:17.535Z</time></trkpt><trkpt lat="49.9643425" lon="1.9057252"><ele>33.0</ele><time>2026-04-02T12:10:18.536Z</time></trkpt><trkpt lat="49.9642802" lon="1.9056033"><ele>33.0</ele><time>2026-04-02T12:10:19.536Z</time></trkpt><trkpt lat="49.9642166" lon="1.9054754"><ele>33.0</ele><time>2026-04-02T12:10:20.535Z</time></trkpt><trkpt lat="49.9641536" lon="1.9053575"><ele>33.0</ele><time>2026-04-02T12:10:21.535Z</time></trkpt><trkpt lat="49.9640871" lon="1.9052423"><ele>33.0</ele><time>2026-04-02T12:10:22.535Z</time></trkpt><trkpt lat="49.9640163" lon="1.9051384"><ele>33.0</ele><time>2026-04-02T12:10:23.535Z</time></trkpt><trkpt lat="49.9639393" lon="1.9050438"><ele>33.6</ele><time>2026-04-02T12:10:24.535Z</time></trkpt><trkpt lat="49.9638639" lon="1.9049614"><ele>34.199999999999996</ele><time>2026-04-02T12:10:25.536Z</time></trkpt><trkpt lat="49.9637849" lon="1.9048726"><ele>34.8</ele><time>2026-04-02T12:10:26.536Z</time></trkpt><trkpt lat="49.9636993" lon="1.9047749"><ele>35.4</ele><time>2026-04-02T12:10:27.535Z</time></trkpt><trkpt lat="49.963614" lon="1.9046743"><ele>36.0</ele><time>2026-04-02T12:10:28.535Z</time></trkpt><trkpt lat="49.9635265" lon="1.9045718"><ele>36.0</ele><time>2026-04-02T12:10:29.535Z</time></trkpt><trkpt lat="49.9634437" lon="1.9044681"><ele>36.0</ele><time>2026-04-02T12:10:30.536Z</time></trkpt><trkpt lat="49.9633602" lon="1.904362"><ele>36.0</ele><time>2026-04-02T12:10:31.536Z</time></trkpt><trkpt lat="49.9632767" lon="1.9042572"><ele>36.0</ele><time>2026-04-02T12:10:32.535Z</time></trkpt><trkpt lat="49.9631971" lon="1.9041532"><ele>36.0</ele><time>2026-04-02T12:10:33.535Z</time></trkpt><trkpt lat="49.9631164" lon="1.9040453"><ele>36.2</ele><time>2026-04-02T12:10:34.535Z</time></trkpt><trkpt lat="49.9630343" lon="1.9039442"><ele>36.400000000000006</ele><time>2026-04-02T12:10:35.535Z</time></trkpt><trkpt lat="49.9629552" lon="1.90385"><ele>36.6</ele><time>2026-04-02T12:10:36.535Z</time></trkpt><trkpt lat="49.9628811" lon="1.9037651"><ele>36.800000000000004</ele><time>2026-04-02T12:10:37.535Z</time></trkpt><trkpt lat="49.9628118" lon="1.9036843"><ele>37.0</ele><time>2026-04-02T12:10:38.536Z</time></trkpt><trkpt lat="49.962736" lon="1.9036217"><ele>37.0</ele><time>2026-04-02T12:10:39.535Z</time></trkpt><trkpt lat="49.9626544" lon="1.9035888"><ele>37.0</ele><time>2026-04-02T12:10:40.535Z</time></trkpt><trkpt lat="49.962573" lon="1.9035647"><ele>37.0</ele><time>2026-04-02T12:10:41.535Z</time></trkpt><trkpt lat="49.9624872" lon="1.9035493"><ele>37.0</ele><time>2026-04-02T12:10:42.535Z</time></trkpt><trkpt lat="49.9624013" lon="1.9035447"><ele>37.0</ele><time>2026-04-02T12:10:43.535Z</time></trkpt><trkpt lat="49.9623199" lon="1.9035462"><ele>37.0</ele><time>2026-04-02T12:10:44.535Z</time></trkpt><trkpt lat="49.9622355" lon="1.9035445"><ele>37.5</ele><time>2026-04-02T12:10:45.535Z</time></trkpt><trkpt lat="49.9621523" lon="1.9035366"><ele>38.0</ele><time>2026-04-02T12:10:46.536Z</time></trkpt><trkpt lat="49.96207" lon="1.9035298"><ele>38.5</ele><time>2026-04-02T12:10:47.535Z</time></trkpt><trkpt lat="49.961998" lon="1.9035195"><ele>39.0</ele><time>2026-04-02T12:10:48.535Z</time></trkpt><trkpt lat="49.9618953" lon="1.9034884"><ele>39.5</ele><time>2026-04-02T12:10:50.535Z</time></trkpt><trkpt lat="49.9618776" lon="1.9033878"><ele>40.0</ele><time>2026-04-02T12:10:53.535Z</time></trkpt><trkpt lat="49.9619416" lon="1.9032226"><ele>40.0</ele><time>2026-04-02T12:10:55.535Z</time></trkpt><trkpt lat="49.9619898" lon="1.9031132"><ele>40.0</ele><time>2026-04-02T12:10:56.535Z</time></trkpt><trkpt lat="49.9620438" lon="1.9029967"><ele>40.0</ele><time>2026-04-02T12:10:57.535Z</time></trkpt><trkpt lat="49.9621033" lon="1.9028819"><ele>40.0</ele><time>2026-04-02T12:10:58.535Z</time></trkpt><trkpt lat="49.9621681" lon="1.9027696"><ele>40.0</ele><time>2026-04-02T12:10:59.536Z</time></trkpt><trkpt lat="49.9622306" lon="1.9026712"><ele>39.5</ele><time>2026-04-02T12:11:00.536Z</time></trkpt><trkpt lat="49.9622907" lon="1.9025809"><ele>39.0</ele><time>2026-04-02T12:11:01.537Z</time></trkpt><trkpt lat="49.9623477" lon="1.9024994"><ele>38.5</ele><time>2026-04-02T12:11:02.536Z</time></trkpt><trkpt lat="49.9624064" lon="1.9024347"><ele>38.0</ele><time>2026-04-02T12:11:03.536Z</time></trkpt><trkpt lat="49.9624764" lon="1.9023931"><ele>37.5</ele><time>2026-04-02T12:11:04.536Z</time></trkpt><trkpt lat="49.9625515" lon="1.9023766"><ele>37.0</ele><time>2026-04-02T12:11:05.536Z</time></trkpt><trkpt lat="49.9626312" lon="1.9023799"><ele>36.66666666666667</ele><time>2026-04-02T12:11:06.537Z</time></trkpt><trkpt lat="49.9627138" lon="1.90238"><ele>36.333333333333336</ele><time>2026-04-02T12:11:07.537Z</time></trkpt><trkpt lat="49.9627899" lon="1.9023434"><ele>36.0</ele><time>2026-04-02T12:11:08.537Z</time></trkpt><trkpt lat="49.9628614" lon="1.9022776"><ele>35.666666666666664</ele><time>2026-04-02T12:11:09.535Z</time></trkpt><trkpt lat="49.9629293" lon="1.9022008"><ele>35.33333333333333</ele><time>2026-04-02T12:11:10.535Z</time></trkpt><trkpt lat="49.9630011" lon="1.9021265"><ele>35.0</ele><time>2026-04-02T12:11:11.536Z</time></trkpt><trkpt lat="49.9630704" lon="1.9020487"><ele>35.0</ele><time>2026-04-02T12:11:12.536Z</time></trkpt><trkpt lat="49.9631315" lon="1.9019842"><ele>35.0</ele><time>2026-04-02T12:11:13.537Z</time></trkpt><trkpt lat="49.9632179" lon="1.9018986"><ele>35.0</ele><time>2026-04-02T12:11:15.535Z</time></trkpt><trkpt lat="49.9632749" lon="1.9018216"><ele>35.0</ele><time>2026-04-02T12:11:17.536Z</time></trkpt><trkpt lat="49.9633219" lon="1.9016429"><ele>35.0</ele><time>2026-04-02T12:11:19.535Z</time></trkpt><trkpt lat="49.9633255" lon="1.9015101"><ele>34.4</ele><time>2026-04-02T12:11:20.536Z</time></trkpt><trkpt lat="49.9633075" lon="1.9013677"><ele>33.8</ele><time>2026-04-02T12:11:21.537Z</time></trkpt><trkpt lat="49.9632724" lon="1.9012365"><ele>33.2</ele><time>2026-04-02T12:11:22.536Z</time></trkpt><trkpt lat="49.9632323" lon="1.9011066"><ele>32.6</ele><time>2026-04-02T12:11:23.537Z</time></trkpt><trkpt lat="49.963187" lon="1.9009791"><ele>32.0</ele><time>2026-04-02T12:11:24.537Z</time></trkpt><trkpt lat="49.963142" lon="1.9008676"><ele>32.0</ele><time>2026-04-02T12:11:25.537Z</time></trkpt><trkpt lat="49.9631062" lon="1.9007715"><ele>32.0</ele><time>2026-04-02T12:11:26.536Z</time></trkpt><trkpt lat="49.9630792" lon="1.9006812"><ele>32.0</ele><time>2026-04-02T12:11:27.536Z</time></trkpt><trkpt lat="49.9630225" lon="1.900506"><ele>32.0</ele><time>2026-04-02T12:11:29.536Z</time></trkpt><trkpt lat="49.9629761" lon="1.9003327"><ele>32.0</ele><time>2026-04-02T12:11:31.537Z</time></trkpt><trkpt lat="49.9629351" lon="1.9001753"><ele>32.33333333333333</ele><time>2026-04-02T12:11:33.536Z</time></trkpt><trkpt lat="49.96289" lon="1.9000081"><ele>32.666666666666664</ele><time>2026-04-02T12:11:35.536Z</time></trkpt><trkpt lat="49.9628694" lon="1.8999023"><ele>33.0</ele><time>2026-04-02T12:11:36.537Z</time></trkpt><trkpt lat="49.9628688" lon="1.8997909"><ele>33.333333333333336</ele><time>2026-04-02T12:11:37.536Z</time></trkpt><trkpt lat="49.9628903" lon="1.8996797"><ele>33.66666666666667</ele><time>2026-04-02T12:11:38.535Z</time></trkpt><trkpt lat="49.9629328" lon="1.8995796"><ele>34.0</ele><time>2026-04-02T12:11:39.537Z</time></trkpt><trkpt lat="49.9629782" lon="1.8994783"><ele>34.0</ele><time>2026-04-02T12:11:40.535Z</time></trkpt><trkpt lat="49.96302" lon="1.8993714"><ele>34.0</ele><time>2026-04-02T12:11:41.536Z</time></trkpt><trkpt lat="49.9630518" lon="1.8992548"><ele>34.0</ele><time>2026-04-02T12:11:42.536Z</time></trkpt><trkpt lat="49.9630701" lon="1.899132"><ele>34.0</ele><time>2026-04-02T12:11:43.536Z</time></trkpt><trkpt lat="49.9630763" lon="1.8990045"><ele>34.0</ele><time>2026-04-02T12:11:44.536Z</time></trkpt><trkpt lat="49.9630775" lon="1.8988773"><ele>34.0</ele><time>2026-04-02T12:11:45.537Z</time></trkpt><trkpt lat="49.9630759" lon="1.898749"><ele>34.16666666666667</ele><time>2026-04-02T12:11:46.536Z</time></trkpt><trkpt lat="49.9630767" lon="1.89862"><ele>34.333333333333336</ele><time>2026-04-02T12:11:47.536Z</time></trkpt><trkpt lat="49.9630765" lon="1.8984972"><ele>34.5</ele><time>2026-04-02T12:11:48.537Z</time></trkpt><trkpt lat="49.9630951" lon="1.8983962"><ele>34.666666666666664</ele><time>2026-04-02T12:11:49.536Z</time></trkpt><trkpt lat="49.9631839" lon="1.8982598"><ele>34.83333333333333</ele><time>2026-04-02T12:11:51.535Z</time></trkpt><trkpt lat="49.963248" lon="1.8982209"><ele>35.0</ele><time>2026-04-02T12:11:52.537Z</time></trkpt><trkpt lat="49.96332" lon="1.8981916"><ele>36.0</ele><time>2026-04-02T12:11:53.536Z</time></trkpt><trkpt lat="49.9633966" lon="1.8981767"><ele>37.0</ele><time>2026-04-02T12:11:54.537Z</time></trkpt><trkpt lat="49.9634731" lon="1.8981543"><ele>38.0</ele><time>2026-04-02T12:11:55.535Z</time></trkpt><trkpt lat="49.9635446" lon="1.8981319"><ele>39.0</ele><time>2026-04-02T12:11:56.536Z</time></trkpt><trkpt lat="49.9636075" lon="1.8981163"><ele>40.0</ele><time>2026-04-02T12:11:57.537Z</time></trkpt><trkpt lat="49.9637248" lon="1.8980883"><ele>41.0</ele><time>2026-04-02T12:11:59.536Z</time></trkpt><trkpt lat="49.9637909" lon="1.8980673"><ele>40.99999999999999</ele><time>2026-04-02T12:12:00.536Z</time></trkpt><trkpt lat="49.9638631" lon="1.8980466"><ele>41.0</ele><time>2026-04-02T12:12:01.536Z</time></trkpt><trkpt lat="49.9639363" lon="1.8980247"><ele>41.0</ele><time>2026-04-02T12:12:02.537Z</time></trkpt><trkpt lat="49.9640049" lon="1.8980012"><ele>41.0</ele><time>2026-04-02T12:12:03.536Z</time></trkpt><trkpt lat="49.9640649" lon="1.8979702"><ele>41.0</ele><time>2026-04-02T12:12:04.537Z</time></trkpt><trkpt lat="49.9641461" lon="1.8979208"><ele>40.99999999999999</ele><time>2026-04-02T12:12:06.535Z</time></trkpt><trkpt lat="49.9642119" lon="1.8978974"><ele>41.0</ele><time>2026-04-02T12:12:08.537Z</time></trkpt><trkpt lat="49.9642206" lon="1.8977952"><ele>41.0</ele><time>2026-04-02T12:12:13.536Z</time></trkpt><trkpt lat="49.9641517" lon="1.89784"><ele>41.0</ele><time>2026-04-02T12:12:18.536Z</time></trkpt><trkpt lat="49.9640784" lon="1.8979243"><ele>41.0</ele><time>2026-04-02T12:12:20.536Z</time></trkpt><trkpt lat="49.963979" lon="1.8979761"><ele>41.0</ele><time>2026-04-02T12:12:22.536Z</time></trkpt><trkpt lat="49.9638765" lon="1.8980058"><ele>41.0</ele><time>2026-04-02T12:12:24.537Z</time></trkpt><trkpt lat="49.9638075" lon="1.8979981"><ele>41.0</ele><time>2026-04-02T12:12:27.536Z</time></trkpt><trkpt lat="49.9638881" lon="1.8980432"><ele>41.0</ele><time>2026-04-02T12:12:51.537Z</time></trkpt><trkpt lat="49.964015" lon="1.8979834"><ele>41.0</ele><time>2026-04-02T12:12:53.537Z</time></trkpt><trkpt lat="49.9640775" lon="1.8979511"><ele>41.0</ele><time>2026-04-02T12:12:54.537Z</time></trkpt><trkpt lat="49.9641651" lon="1.8978793"><ele>41.0</ele><time>2026-04-02T12:12:56.536Z</time></trkpt><trkpt lat="49.9641845" lon="1.8977576"><ele>41.0</ele><time>2026-04-02T12:12:58.536Z</time></trkpt><trkpt lat="49.9641434" lon="1.897592"><ele>41.0</ele><time>2026-04-02T12:13:00.537Z</time></trkpt><trkpt lat="49.9641196" lon="1.8975006"><ele>41.0</ele><time>2026-04-02T12:13:01.537Z</time></trkpt><trkpt lat="49.9640908" lon="1.8974034"><ele>41.0</ele><time>2026-04-02T12:13:02.537Z</time></trkpt><trkpt lat="49.9640592" lon="1.8973041"><ele>41.0</ele><time>2026-04-02T12:13:03.537Z</time></trkpt><trkpt lat="49.9640282" lon="1.897204"><ele>41.0</ele><time>2026-04-02T12:13:04.537Z</time></trkpt><trkpt lat="49.9640005" lon="1.897105"><ele>41.0</ele><time>2026-04-02T12:13:05.535Z</time></trkpt><trkpt lat="49.9639571" lon="1.896948"><ele>41.0</ele><time>2026-04-02T12:13:07.535Z</time></trkpt><trkpt lat="49.9639817" lon="1.8968147"><ele>41.0</ele><time>2026-04-02T12:13:09.536Z</time></trkpt><trkpt lat="49.9640321" lon="1.8966678"><ele>41.0</ele><time>2026-04-02T12:13:11.536Z</time></trkpt><trkpt lat="49.9640802" lon="1.896491"><ele>41.0</ele><time>2026-04-02T12:13:13.536Z</time></trkpt><trkpt lat="49.9640924" lon="1.8963935"><ele>41.0</ele><time>2026-04-02T12:13:14.536Z</time></trkpt><trkpt lat="49.9640979" lon="1.8962922"><ele>41.0</ele><time>2026-04-02T12:13:15.537Z</time></trkpt><trkpt lat="49.9640991" lon="1.8961811"><ele>41.0</ele><time>2026-04-02T12:13:16.536Z</time></trkpt><trkpt lat="49.9641035" lon="1.8960615"><ele>41.0</ele><time>2026-04-02T12:13:17.536Z</time></trkpt><trkpt lat="49.9641021" lon="1.8959346"><ele>41.0</ele><time>2026-04-02T12:13:18.537Z</time></trkpt><trkpt lat="49.9641017" lon="1.8958079"><ele>41.0</ele><time>2026-04-02T12:13:19.537Z</time></trkpt><trkpt lat="49.9641011" lon="1.8956764"><ele>41.0</ele><time>2026-04-02T12:13:20.537Z</time></trkpt><trkpt lat="49.9640981" lon="1.8955487"><ele>41.0</ele><time>2026-04-02T12:13:21.536Z</time></trkpt><trkpt lat="49.9640944" lon="1.8954258"><ele>41.0</ele><time>2026-04-02T12:13:22.536Z</time></trkpt><trkpt lat="49.9640881" lon="1.895306"><ele>41.0</ele><time>2026-04-02T12:13:23.537Z</time></trkpt><trkpt lat="49.9640834" lon="1.8951877"><ele>41.0</ele><time>2026-04-02T12:13:24.535Z</time></trkpt><trkpt lat="49.9640733" lon="1.8950637"><ele>41.0</ele><time>2026-04-02T12:13:25.536Z</time></trkpt><trkpt lat="49.9640576" lon="1.8949316"><ele>41.0</ele><time>2026-04-02T12:13:26.536Z</time></trkpt><trkpt lat="49.9640378" lon="1.8947991"><ele>41.0</ele><time>2026-04-02T12:13:27.535Z</time></trkpt><trkpt lat="49.9640129" lon="1.8946657"><ele>41.199999999999996</ele><time>2026-04-02T12:13:28.535Z</time></trkpt><trkpt lat="49.9639869" lon="1.8945363"><ele>41.4</ele><time>2026-04-02T12:13:29.536Z</time></trkpt><trkpt lat="49.9639644" lon="1.8943972"><ele>41.6</ele><time>2026-04-02T12:13:30.536Z</time></trkpt><trkpt lat="49.9639328" lon="1.8942564"><ele>41.8</ele><time>2026-04-02T12:13:31.536Z</time></trkpt><trkpt lat="49.9639041" lon="1.8941163"><ele>42.0</ele><time>2026-04-02T12:13:32.537Z</time></trkpt><trkpt lat="49.9638746" lon="1.8939829"><ele>42.6</ele><time>2026-04-02T12:13:33.536Z</time></trkpt><trkpt lat="49.9638473" lon="1.8938354"><ele>43.2</ele><time>2026-04-02T12:13:34.536Z</time></trkpt><trkpt lat="49.9638178" lon="1.8936739"><ele>43.8</ele><time>2026-04-02T12:13:35.536Z</time></trkpt><trkpt lat="49.9637832" lon="1.8934978"><ele>44.4</ele><time>2026-04-02T12:13:36.535Z</time></trkpt><trkpt lat="49.9637501" lon="1.8933271"><ele>45.0</ele><time>2026-04-02T12:13:37.537Z</time></trkpt><trkpt lat="49.9637167" lon="1.893167"><ele>45.5</ele><time>2026-04-02T12:13:38.537Z</time></trkpt><trkpt lat="49.963686" lon="1.8930073"><ele>46.0</ele><time>2026-04-02T12:13:39.537Z</time></trkpt><trkpt lat="49.963655" lon="1.8928523"><ele>46.5</ele><time>2026-04-02T12:13:40.536Z</time></trkpt><trkpt lat="49.9636267" lon="1.8926781"><ele>47.0</ele><time>2026-04-02T12:13:41.536Z</time></trkpt><trkpt lat="49.9635915" lon="1.8924954"><ele>47.0</ele><time>2026-04-02T12:13:42.536Z</time></trkpt><trkpt lat="49.9635532" lon="1.8923048"><ele>47.0</ele><time>2026-04-02T12:13:43.536Z</time></trkpt><trkpt lat="49.9635189" lon="1.892099"><ele>47.0</ele><time>2026-04-02T12:13:44.536Z</time></trkpt><trkpt lat="49.9634803" lon="1.8918946"><ele>47.0</ele><time>2026-04-02T12:13:45.535Z</time></trkpt><trkpt lat="49.9634458" lon="1.8916862"><ele>47.0</ele><time>2026-04-02T12:13:46.536Z</time></trkpt><trkpt lat="49.9634092" lon="1.891475"><ele>47.0</ele><time>2026-04-02T12:13:47.535Z</time></trkpt><trkpt lat="49.9633613" lon="1.8912598"><ele>47.0</ele><time>2026-04-02T12:13:48.537Z</time></trkpt><trkpt lat="49.9633182" lon="1.8910324"><ele>47.0</ele><time>2026-04-02T12:13:49.535Z</time></trkpt><trkpt lat="49.9632735" lon="1.890804"><ele>49.0</ele><time>2026-04-02T12:13:50.536Z</time></trkpt><trkpt lat="49.9632303" lon="1.8905746"><ele>51.0</ele><time>2026-04-02T12:13:51.535Z</time></trkpt><trkpt lat="49.9631896" lon="1.8903648"><ele>53.0</ele><time>2026-04-02T12:13:52.536Z</time></trkpt><trkpt lat="49.9631565" lon="1.8901516"><ele>55.0</ele><time>2026-04-02T12:13:53.536Z</time></trkpt><trkpt lat="49.9631304" lon="1.8899272"><ele>56.0</ele><time>2026-04-02T12:13:54.537Z</time></trkpt><trkpt lat="49.9631104" lon="1.8896989"><ele>57.0</ele><time>2026-04-02T12:13:55.536Z</time></trkpt><trkpt lat="49.9630885" lon="1.8894641"><ele>58.0</ele><time>2026-04-02T12:13:56.536Z</time></trkpt><trkpt lat="49.9630669" lon="1.8892291"><ele>58.33333333333333</ele><time>2026-04-02T12:13:57.537Z</time></trkpt><trkpt lat="49.9630461" lon="1.8889886"><ele>58.66666666666667</ele><time>2026-04-02T12:13:58.536Z</time></trkpt><trkpt lat="49.9630302" lon="1.8887488"><ele>59.0</ele><time>2026-04-02T12:13:59.537Z</time></trkpt><trkpt lat="49.9630109" lon="1.8885055"><ele>59.333333333333336</ele><time>2026-04-02T12:14:00.536Z</time></trkpt><trkpt lat="49.9629974" lon="1.8882595"><ele>59.66666666666667</ele><time>2026-04-02T12:14:01.536Z</time></trkpt><trkpt lat="49.962984" lon="1.8880144"><ele>60.0</ele><time>2026-04-02T12:14:02.537Z</time></trkpt><trkpt lat="49.9629759" lon="1.8877601"><ele>61.0</ele><time>2026-04-02T12:14:03.536Z</time></trkpt><trkpt lat="49.9629688" lon="1.8875057"><ele>62.0</ele><time>2026-04-02T12:14:04.536Z</time></trkpt><trkpt lat="49.9629604" lon="1.8872488"><ele>63.0</ele><time>2026-04-02T12:14:05.537Z</time></trkpt><trkpt lat="49.9629545" lon="1.88699"><ele>63.66666666666667</ele><time>2026-04-02T12:14:06.536Z</time></trkpt><trkpt lat="49.9629466" lon="1.8867333"><ele>64.33333333333334</ele><time>2026-04-02T12:14:07.537Z</time></trkpt><trkpt lat="49.9629338" lon="1.8864791"><ele>65.0</ele><time>2026-04-02T12:14:08.537Z</time></trkpt><trkpt lat="49.9629299" lon="1.8862204"><ele>65.0</ele><time>2026-04-02T12:14:09.536Z</time></trkpt><trkpt lat="49.9629122" lon="1.8859624"><ele>65.0</ele><time>2026-04-02T12:14:10.536Z</time></trkpt><trkpt lat="49.962902" lon="1.8857052"><ele>65.0</ele><time>2026-04-02T12:14:11.537Z</time></trkpt><trkpt lat="49.9628945" lon="1.8854455"><ele>65.66666666666667</ele><time>2026-04-02T12:14:12.535Z</time></trkpt><trkpt lat="49.9628866" lon="1.8852039"><ele>66.33333333333333</ele><time>2026-04-02T12:14:13.537Z</time></trkpt><trkpt lat="49.9628844" lon="1.8849685"><ele>67.0</ele><time>2026-04-02T12:14:14.536Z</time></trkpt><trkpt lat="49.9628831" lon="1.8847194"><ele>67.0</ele><time>2026-04-02T12:14:15.536Z</time></trkpt><trkpt lat="49.9628819" lon="1.8844645"><ele>67.0</ele><time>2026-04-02T12:14:16.537Z</time></trkpt><trkpt lat="49.9628768" lon="1.8842077"><ele>67.0</ele><time>2026-04-02T12:14:17.536Z</time></trkpt><trkpt lat="49.9628679" lon="1.8839024"><ele>69.0</ele><time>2026-04-02T12:14:18.716Z</time></trkpt><trkpt lat="49.9628734" lon="1.8834354"><ele>71.0</ele><time>2026-04-02T12:14:20.536Z</time></trkpt><trkpt lat="49.9628809" lon="1.8831759"><ele>72.0</ele><time>2026-04-02T12:14:21.537Z</time></trkpt><trkpt lat="49.9628817" lon="1.8829176"><ele>73.0</ele><time>2026-04-02T12:14:22.535Z</time></trkpt><trkpt lat="49.9628854" lon="1.8826583"><ele>74.0</ele><time>2026-04-02T12:14:23.536Z</time></trkpt><trkpt lat="49.9628886" lon="1.8823993"><ele>75.0</ele><time>2026-04-02T12:14:24.536Z</time></trkpt><trkpt lat="49.9628879" lon="1.882137"><ele>76.0</ele><time>2026-04-02T12:14:25.537Z</time></trkpt><trkpt lat="49.9628867" lon="1.881879"><ele>77.0</ele><time>2026-04-02T12:14:26.536Z</time></trkpt><trkpt lat="49.9628857" lon="1.881642"><ele>77.5</ele><time>2026-04-02T12:14:27.536Z</time></trkpt><trkpt lat="49.962882" lon="1.8814111"><ele>78.0</ele><time>2026-04-02T12:14:28.535Z</time></trkpt><trkpt lat="49.9628841" lon="1.8811827"><ele>78.5</ele><time>2026-04-02T12:14:29.537Z</time></trkpt><trkpt lat="49.9628963" lon="1.8809715"><ele>79.0</ele><time>2026-04-02T12:14:30.537Z</time></trkpt><trkpt lat="49.9629054" lon="1.8807675"><ele>80.25</ele><time>2026-04-02T12:14:31.536Z</time></trkpt><trkpt lat="49.9628974" lon="1.8805555"><ele>81.5</ele><time>2026-04-02T12:14:32.536Z</time></trkpt><trkpt lat="49.9628813" lon="1.8803342"><ele>82.75</ele><time>2026-04-02T12:14:33.536Z</time></trkpt><trkpt lat="49.962868" lon="1.8801029"><ele>84.0</ele><time>2026-04-02T12:14:34.536Z</time></trkpt><trkpt lat="49.9628582" lon="1.879862"><ele>84.33333333333333</ele><time>2026-04-02T12:14:35.535Z</time></trkpt><trkpt lat="49.9628468" lon="1.8796116"><ele>84.66666666666666</ele><time>2026-04-02T12:14:36.536Z</time></trkpt><trkpt lat="49.9628348" lon="1.8793583"><ele>85.0</ele><time>2026-04-02T12:14:37.536Z</time></trkpt><trkpt lat="49.9628268" lon="1.8791196"><ele>86.0</ele><time>2026-04-02T12:14:38.536Z</time></trkpt><trkpt lat="49.9628251" lon="1.8789152"><ele>87.0</ele><time>2026-04-02T12:14:39.536Z</time></trkpt><trkpt lat="49.9628292" lon="1.8787312"><ele>88.0</ele><time>2026-04-02T12:14:40.536Z</time></trkpt><trkpt lat="49.9628329" lon="1.8785563"><ele>89.0</ele><time>2026-04-02T12:14:41.536Z</time></trkpt><trkpt lat="49.9628357" lon="1.8783987"><ele>90.0</ele><time>2026-04-02T12:14:42.536Z</time></trkpt><trkpt lat="49.9628361" lon="1.8782487"><ele>91.0</ele><time>2026-04-02T12:14:43.536Z</time></trkpt><trkpt lat="49.9628381" lon="1.878081"><ele>92.0</ele><time>2026-04-02T12:14:44.536Z</time></trkpt><trkpt lat="49.9628458" lon="1.8778987"><ele>93.0</ele><time>2026-04-02T12:14:45.537Z</time></trkpt><trkpt lat="49.9628521" lon="1.8777049"><ele>94.0</ele><time>2026-04-02T12:14:46.536Z</time></trkpt><trkpt lat="49.9628617" lon="1.8775092"><ele>95.0</ele><time>2026-04-02T12:14:47.536Z</time></trkpt><trkpt lat="49.9628724" lon="1.8773126"><ele>96.0</ele><time>2026-04-02T12:14:48.536Z</time></trkpt><trkpt lat="49.9628762" lon="1.8770989"><ele>97.0</ele><time>2026-04-02T12:14:49.535Z</time></trkpt><trkpt lat="49.9628807" lon="1.8768759"><ele>98.0</ele><time>2026-04-02T12:14:50.536Z</time></trkpt><trkpt lat="49.9628758" lon="1.8766475"><ele>98.0</ele><time>2026-04-02T12:14:51.536Z</time></trkpt><trkpt lat="49.9628657" lon="1.8764157"><ele>98.0</ele><time>2026-04-02T12:14:52.536Z</time></trkpt><trkpt lat="49.9628548" lon="1.8761917"><ele>98.0</ele><time>2026-04-02T12:14:53.536Z</time></trkpt><trkpt lat="49.9628394" lon="1.8759833"><ele>98.0</ele><time>2026-04-02T12:14:54.536Z</time></trkpt><trkpt lat="49.9628265" lon="1.8757936"><ele>97.80000000000001</ele><time>2026-04-02T12:14:55.536Z</time></trkpt><trkpt lat="49.9628219" lon="1.8756326"><ele>97.6</ele><time>2026-04-02T12:14:56.536Z</time></trkpt><trkpt lat="49.9628309" lon="1.8754954"><ele>97.4</ele><time>2026-04-02T12:14:57.537Z</time></trkpt><trkpt lat="49.9628725" lon="1.8753807"><ele>97.19999999999999</ele><time>2026-04-02T12:14:59.536Z</time></trkpt><trkpt lat="49.9628909" lon="1.8752062"><ele>97.0</ele><time>2026-04-02T12:15:05.536Z</time></trkpt><trkpt lat="49.9628851" lon="1.8750938"><ele>96.0</ele><time>2026-04-02T12:15:06.537Z</time></trkpt><trkpt lat="49.9628712" lon="1.8749604"><ele>95.0</ele><time>2026-04-02T12:15:07.536Z</time></trkpt><trkpt lat="49.962859" lon="1.8748077"><ele>94.0</ele><time>2026-04-02T12:15:08.537Z</time></trkpt><trkpt lat="49.9628504" lon="1.8746393"><ele>93.0</ele><time>2026-04-02T12:15:09.536Z</time></trkpt><trkpt lat="49.9628363" lon="1.8744684"><ele>92.0</ele><time>2026-04-02T12:15:10.536Z</time></trkpt><trkpt lat="49.9628228" lon="1.8743072"><ele>92.16666666666667</ele><time>2026-04-02T12:15:11.536Z</time></trkpt><trkpt lat="49.9628119" lon="1.8741642"><ele>92.33333333333334</ele><time>2026-04-02T12:15:12.536Z</time></trkpt><trkpt lat="49.9628055" lon="1.8740506"><ele>92.5</ele><time>2026-04-02T12:15:13.536Z</time></trkpt><trkpt lat="49.9627977" lon="1.8739223"><ele>92.66666666666667</ele><time>2026-04-02T12:15:15.536Z</time></trkpt><trkpt lat="49.9627684" lon="1.8738234"><ele>92.83333333333333</ele><time>2026-04-02T12:15:25.536Z</time></trkpt><trkpt lat="49.962763" lon="1.8737092"><ele>93.0</ele><time>2026-04-02T12:15:37.536Z</time></trkpt><trkpt lat="49.9628066" lon="1.8736081"><ele>93.0</ele><time>2026-04-02T12:15:41.536Z</time></trkpt><trkpt lat="49.9628234" lon="1.8735044"><ele>93.0</ele><time>2026-04-02T12:15:44.535Z</time></trkpt><trkpt lat="49.962777" lon="1.8733344"><ele>93.0</ele><time>2026-04-02T12:15:48.536Z</time></trkpt><trkpt lat="49.9627393" lon="1.8731739"><ele>93.0</ele><time>2026-04-02T12:15:50.536Z</time></trkpt><trkpt lat="49.9627046" lon="1.8730242"><ele>93.0</ele><time>2026-04-02T12:15:52.536Z</time></trkpt><trkpt lat="49.9626876" lon="1.8728625"><ele>94.60000000000001</ele><time>2026-04-02T12:15:54.535Z</time></trkpt><trkpt lat="49.9626715" lon="1.8727521"><ele>96.2</ele><time>2026-04-02T12:15:56.536Z</time></trkpt><trkpt lat="49.9626499" lon="1.8726105"><ele>97.8</ele><time>2026-04-02T12:15:58.537Z</time></trkpt><trkpt lat="49.9626" lon="1.8724426"><ele>99.4</ele><time>2026-04-02T12:16:00.536Z</time></trkpt><trkpt lat="49.9625683" lon="1.8722869"><ele>101.0</ele><time>2026-04-02T12:16:02.537Z</time></trkpt><trkpt lat="49.9625685" lon="1.8721378"><ele>100.99999999999999</ele><time>2026-04-02T12:16:04.536Z</time></trkpt><trkpt lat="49.9625583" lon="1.8719804"><ele>101.0</ele><time>2026-04-02T12:16:06.537Z</time></trkpt><trkpt lat="49.9625639" lon="1.8718828"><ele>101.0</ele><time>2026-04-02T12:16:07.536Z</time></trkpt><trkpt lat="49.9625784" lon="1.8717207"><ele>101.0</ele><time>2026-04-02T12:16:09.537Z</time></trkpt><trkpt lat="49.9625863" lon="1.8715984"><ele>100.99999999999999</ele><time>2026-04-02T12:16:11.536Z</time></trkpt><trkpt lat="49.9625866" lon="1.8714879"><ele>101.0</ele><time>2026-04-02T12:16:13.537Z</time></trkpt><trkpt lat="49.9625863" lon="1.8713818"><ele>99.99999999999999</ele><time>2026-04-02T12:16:15.536Z</time></trkpt><trkpt lat="49.9626039" lon="1.8712809"><ele>99.0</ele><time>2026-04-02T12:16:17.536Z</time></trkpt><trkpt lat="49.9625982" lon="1.8711706"><ele>98.0</ele><time>2026-04-02T12:16:20.536Z</time></trkpt><trkpt lat="49.9626156" lon="1.87105"><ele>97.0</ele><time>2026-04-02T12:16:23.536Z</time></trkpt><trkpt lat="49.962635" lon="1.8709378"><ele>96.0</ele><time>2026-04-02T12:16:26.536Z</time></trkpt><trkpt lat="49.9626583" lon="1.8707564"><ele>95.0</ele><time>2026-04-02T12:16:28.536Z</time></trkpt><trkpt lat="49.9626623" lon="1.8706258"><ele>94.4</ele><time>2026-04-02T12:16:29.536Z</time></trkpt><trkpt lat="49.9626675" lon="1.8704414"><ele>93.8</ele><time>2026-04-02T12:16:31.536Z</time></trkpt><trkpt lat="49.9626694" lon="1.8702344"><ele>93.19999999999999</ele><time>2026-04-02T12:16:33.536Z</time></trkpt><trkpt lat="49.9626805" lon="1.8701101"><ele>92.6</ele><time>2026-04-02T12:16:34.537Z</time></trkpt><trkpt lat="49.9626964" lon="1.8699841"><ele>92.0</ele><time>2026-04-02T12:16:35.536Z</time></trkpt><trkpt lat="49.9627135" lon="1.8698575"><ele>93.0</ele><time>2026-04-02T12:16:36.537Z</time></trkpt><trkpt lat="49.9627123" lon="1.8697424"><ele>94.0</ele><time>2026-04-02T12:16:37.537Z</time></trkpt><trkpt lat="49.9627229" lon="1.8696089"><ele>95.0</ele><time>2026-04-02T12:16:38.536Z</time></trkpt><trkpt lat="49.9627271" lon="1.8694672"><ele>96.0</ele><time>2026-04-02T12:16:39.535Z</time></trkpt><trkpt lat="49.9627351" lon="1.8693435"><ele>96.99999999999999</ele><time>2026-04-02T12:16:40.536Z</time></trkpt><trkpt lat="49.9627416" lon="1.8692384"><ele>98.0</ele><time>2026-04-02T12:16:41.536Z</time></trkpt><trkpt lat="49.9627511" lon="1.8691385"><ele>98.60000000000001</ele><time>2026-04-02T12:16:42.535Z</time></trkpt><trkpt lat="49.9627726" lon="1.8690409"><ele>99.2</ele><time>2026-04-02T12:16:44.536Z</time></trkpt><trkpt lat="49.9627778" lon="1.8689386"><ele>99.8</ele><time>2026-04-02T12:16:49.536Z</time></trkpt><trkpt lat="49.9627893" lon="1.8686859"><ele>100.4</ele><time>2026-04-02T12:16:51.536Z</time></trkpt><trkpt lat="49.9627922" lon="1.8685235"><ele>101.0</ele><time>2026-04-02T12:16:52.536Z</time></trkpt><trkpt lat="49.9627836" lon="1.8683336"><ele>101.0</ele><time>2026-04-02T12:16:53.536Z</time></trkpt><trkpt lat="49.9627813" lon="1.8681571"><ele>101.0</ele><time>2026-04-02T12:16:54.537Z</time></trkpt><trkpt lat="49.9627873" lon="1.8679814"><ele>101.0</ele><time>2026-04-02T12:16:55.536Z</time></trkpt><trkpt lat="49.9627896" lon="1.8677979"><ele>101.0</ele><time>2026-04-02T12:16:56.536Z</time></trkpt><trkpt lat="49.9627896" lon="1.8676287"><ele>101.25</ele><time>2026-04-02T12:16:57.536Z</time></trkpt><trkpt lat="49.9627955" lon="1.8674455"><ele>101.5</ele><time>2026-04-02T12:16:58.536Z</time></trkpt><trkpt lat="49.962794" lon="1.8672716"><ele>101.75</ele><time>2026-04-02T12:16:59.536Z</time></trkpt><trkpt lat="49.9627957" lon="1.8671001"><ele>102.0</ele><time>2026-04-02T12:17:00.537Z</time></trkpt><trkpt lat="49.9627955" lon="1.8669225"><ele>101.33333333333333</ele><time>2026-04-02T12:17:01.536Z</time></trkpt><trkpt lat="49.9627948" lon="1.8667578"><ele>100.66666666666666</ele><time>2026-04-02T12:17:02.537Z</time></trkpt><trkpt lat="49.9628026" lon="1.8666449"><ele>100.0</ele><time>2026-04-02T12:17:03.536Z</time></trkpt><trkpt lat="49.9628034" lon="1.8665159"><ele>99.33333333333333</ele><time>2026-04-02T12:17:04.536Z</time></trkpt><trkpt lat="49.9628133" lon="1.8663867"><ele>98.66666666666666</ele><time>2026-04-02T12:17:05.537Z</time></trkpt><trkpt lat="49.9628197" lon="1.8662448"><ele>98.0</ele><time>2026-04-02T12:17:06.536Z</time></trkpt><trkpt lat="49.9628267" lon="1.866086"><ele>97.5</ele><time>2026-04-02T12:17:07.536Z</time></trkpt><trkpt lat="49.962835" lon="1.8659287"><ele>97.0</ele><time>2026-04-02T12:17:08.537Z</time></trkpt><trkpt lat="49.9628415" lon="1.865753"><ele>96.5</ele><time>2026-04-02T12:17:09.537Z</time></trkpt><trkpt lat="49.9628484" lon="1.8655732"><ele>96.0</ele><time>2026-04-02T12:17:10.536Z</time></trkpt><trkpt lat="49.9628513" lon="1.8653761"><ele>96.0</ele><time>2026-04-02T12:17:11.535Z</time></trkpt><trkpt lat="49.9628514" lon="1.8651686"><ele>96.0</ele><time>2026-04-02T12:17:12.537Z</time></trkpt><trkpt lat="49.9628532" lon="1.8649623"><ele>96.0</ele><time>2026-04-02T12:17:13.536Z</time></trkpt><trkpt lat="49.9628563" lon="1.8647539"><ele>96.0</ele><time>2026-04-02T12:17:14.536Z</time></trkpt><trkpt lat="49.9628587" lon="1.8645488"><ele>97.5</ele><time>2026-04-02T12:17:15.536Z</time></trkpt><trkpt lat="49.962862" lon="1.8643498"><ele>99.0</ele><time>2026-04-02T12:17:16.536Z</time></trkpt><trkpt lat="49.962865" lon="1.8641519"><ele>100.5</ele><time>2026-04-02T12:17:17.537Z</time></trkpt><trkpt lat="49.9628768" lon="1.8639483"><ele>102.0</ele><time>2026-04-02T12:17:18.536Z</time></trkpt><trkpt lat="49.962884" lon="1.8637637"><ele>103.25</ele><time>2026-04-02T12:17:19.536Z</time></trkpt><trkpt lat="49.9628865" lon="1.8635665"><ele>104.5</ele><time>2026-04-02T12:17:20.536Z</time></trkpt><trkpt lat="49.962895" lon="1.8633728"><ele>105.75</ele><time>2026-04-02T12:17:21.536Z</time></trkpt><trkpt lat="49.9629031" lon="1.8631837"><ele>107.0</ele><time>2026-04-02T12:17:22.536Z</time></trkpt><trkpt lat="49.9629134" lon="1.8629925"><ele>107.0</ele><time>2026-04-02T12:17:23.537Z</time></trkpt><trkpt lat="49.9629179" lon="1.8628032"><ele>107.0</ele><time>2026-04-02T12:17:24.536Z</time></trkpt><trkpt lat="49.9629225" lon="1.8626133"><ele>107.0</ele><time>2026-04-02T12:17:25.537Z</time></trkpt><trkpt lat="49.9629252" lon="1.8624166"><ele>107.0</ele><time>2026-04-02T12:17:26.536Z</time></trkpt><trkpt lat="49.9629349" lon="1.8622091"><ele>107.25</ele><time>2026-04-02T12:17:27.536Z</time></trkpt><trkpt lat="49.9629437" lon="1.861999"><ele>107.5</ele><time>2026-04-02T12:17:28.537Z</time></trkpt><trkpt lat="49.9629453" lon="1.8617909"><ele>107.75</ele><time>2026-04-02T12:17:29.537Z</time></trkpt><trkpt lat="49.9629433" lon="1.8615776"><ele>108.0</ele><time>2026-04-02T12:17:30.536Z</time></trkpt><trkpt lat="49.9629364" lon="1.8613534"><ele>107.5</ele><time>2026-04-02T12:17:31.537Z</time></trkpt><trkpt lat="49.9629386" lon="1.8611275"><ele>107.0</ele><time>2026-04-02T12:17:32.537Z</time></trkpt><trkpt lat="49.9629377" lon="1.8608909"><ele>106.5</ele><time>2026-04-02T12:17:33.536Z</time></trkpt><trkpt lat="49.9629376" lon="1.8606635"><ele>106.0</ele><time>2026-04-02T12:17:34.536Z</time></trkpt><trkpt lat="49.9629385" lon="1.8604356"><ele>106.0</ele><time>2026-04-02T12:17:35.536Z</time></trkpt><trkpt lat="49.9629392" lon="1.8602035"><ele>106.0</ele><time>2026-04-02T12:17:36.537Z</time></trkpt><trkpt lat="49.9629417" lon="1.8599649"><ele>106.0</ele><time>2026-04-02T12:17:37.536Z</time></trkpt><trkpt lat="49.9629467" lon="1.8597229"><ele>106.0</ele><time>2026-04-02T12:17:38.537Z</time></trkpt><trkpt lat="49.9629509" lon="1.8594788"><ele>106.0</ele><time>2026-04-02T12:17:39.537Z</time></trkpt><trkpt lat="49.9629537" lon="1.8592298"><ele>106.0</ele><time>2026-04-02T12:17:40.537Z</time></trkpt><trkpt lat="49.9629576" lon="1.8589747"><ele>108.0</ele><time>2026-04-02T12:17:41.536Z</time></trkpt><trkpt lat="49.962966" lon="1.8587169"><ele>110.0</ele><time>2026-04-02T12:17:42.537Z</time></trkpt><trkpt lat="49.9629703" lon="1.8584532"><ele>112.0</ele><time>2026-04-02T12:17:43.536Z</time></trkpt><trkpt lat="49.962968" lon="1.8581926"><ele>113.0</ele><time>2026-04-02T12:17:44.537Z</time></trkpt><trkpt lat="49.9629716" lon="1.8579496"><ele>114.0</ele><time>2026-04-02T12:17:45.535Z</time></trkpt><trkpt lat="49.9629777" lon="1.8577258"><ele>115.0</ele><time>2026-04-02T12:17:46.537Z</time></trkpt><trkpt lat="49.9629819" lon="1.8575011"><ele>116.0</ele><time>2026-04-02T12:17:47.537Z</time></trkpt><trkpt lat="49.962985" lon="1.8572765"><ele>116.25</ele><time>2026-04-02T12:17:48.537Z</time></trkpt><trkpt lat="49.9629871" lon="1.8570525"><ele>116.5</ele><time>2026-04-02T12:17:49.537Z</time></trkpt><trkpt lat="49.9629927" lon="1.8568357"><ele>116.75</ele><time>2026-04-02T12:17:50.537Z</time></trkpt><trkpt lat="49.9629981" lon="1.8566223"><ele>117.0</ele><time>2026-04-02T12:17:51.537Z</time></trkpt><trkpt lat="49.9630052" lon="1.8563977"><ele>117.0</ele><time>2026-04-02T12:17:52.538Z</time></trkpt><trkpt lat="49.9630084" lon="1.856164"><ele>117.0</ele><time>2026-04-02T12:17:53.536Z</time></trkpt><trkpt lat="49.9630102" lon="1.8559242"><ele>117.0</ele><time>2026-04-02T12:17:54.537Z</time></trkpt><trkpt lat="49.9630139" lon="1.8556792"><ele>116.5</ele><time>2026-04-02T12:17:55.537Z</time></trkpt><trkpt lat="49.9630191" lon="1.8554334"><ele>116.0</ele><time>2026-04-02T12:17:56.538Z</time></trkpt><trkpt lat="49.9630197" lon="1.8552131"><ele>115.5</ele><time>2026-04-02T12:17:57.537Z</time></trkpt><trkpt lat="49.9630211" lon="1.8550203"><ele>115.0</ele><time>2026-04-02T12:17:58.537Z</time></trkpt><trkpt lat="49.9630269" lon="1.8548339"><ele>115.0</ele><time>2026-04-02T12:17:59.536Z</time></trkpt><trkpt lat="49.9630247" lon="1.8546828"><ele>115.0</ele><time>2026-04-02T12:18:00.537Z</time></trkpt><trkpt lat="49.9630217" lon="1.8545353"><ele>115.0</ele><time>2026-04-02T12:18:01.538Z</time></trkpt><trkpt lat="49.9630245" lon="1.8543953"><ele>115.0</ele><time>2026-04-02T12:18:02.538Z</time></trkpt><trkpt lat="49.963031" lon="1.854246"><ele>115.0</ele><time>2026-04-02T12:18:03.537Z</time></trkpt><trkpt lat="49.9630339" lon="1.8540999"><ele>115.0</ele><time>2026-04-02T12:18:04.537Z</time></trkpt><trkpt lat="49.9630346" lon="1.8539472"><ele>115.0</ele><time>2026-04-02T12:18:05.536Z</time></trkpt><trkpt lat="49.9630364" lon="1.8537829"><ele>115.0</ele><time>2026-04-02T12:18:06.537Z</time></trkpt><trkpt lat="49.9630431" lon="1.8536107"><ele>115.0</ele><time>2026-04-02T12:18:07.537Z</time></trkpt><trkpt lat="49.9630496" lon="1.8534215"><ele>115.0</ele><time>2026-04-02T12:18:08.537Z</time></trkpt><trkpt lat="49.9630583" lon="1.8532297"><ele>115.6</ele><time>2026-04-02T12:18:09.538Z</time></trkpt><trkpt lat="49.9630668" lon="1.8530554"><ele>116.2</ele><time>2026-04-02T12:18:10.537Z</time></trkpt><trkpt lat="49.9630748" lon="1.8529286"><ele>116.80000000000001</ele><time>2026-04-02T12:18:11.537Z</time></trkpt><trkpt lat="49.9630819" lon="1.8528092"><ele>117.4</ele><time>2026-04-02T12:18:12.538Z</time></trkpt><trkpt lat="49.9630816" lon="1.8526467"><ele>118.0</ele><time>2026-04-02T12:18:16.537Z</time></trkpt><trkpt lat="49.9630872" lon="1.8525119"><ele>118.33333333333334</ele><time>2026-04-02T12:18:17.537Z</time></trkpt><trkpt lat="49.9630984" lon="1.852374"><ele>118.66666666666667</ele><time>2026-04-02T12:18:18.536Z</time></trkpt><trkpt lat="49.9631268" lon="1.8522615"><ele>119.0</ele><time>2026-04-02T12:18:19.537Z</time></trkpt><trkpt lat="49.9631676" lon="1.8521209"><ele>119.33333333333334</ele><time>2026-04-02T12:18:21.537Z</time></trkpt><trkpt lat="49.9631312" lon="1.8520299"><ele>119.66666666666667</ele><time>2026-04-02T12:18:27.537Z</time></trkpt><trkpt lat="49.9630631" lon="1.8520306"><ele>120.0</ele><time>2026-04-02T12:18:28.537Z</time></trkpt><trkpt lat="49.9629624" lon="1.8520515"><ele>120.0</ele><time>2026-04-02T12:18:29.537Z</time></trkpt><trkpt lat="49.9628467" lon="1.8520561"><ele>120.0</ele><time>2026-04-02T12:18:30.537Z</time></trkpt><trkpt lat="49.9627103" lon="1.8520739"><ele>120.0</ele><time>2026-04-02T12:18:31.536Z</time></trkpt><trkpt lat="49.9626004" lon="1.8520853"><ele>120.0</ele><time>2026-04-02T12:18:32.537Z</time></trkpt><trkpt lat="49.962489" lon="1.8520987"><ele>119.8</ele><time>2026-04-02T12:18:33.537Z</time></trkpt><trkpt lat="49.9623868" lon="1.8520976"><ele>119.6</ele><time>2026-04-02T12:18:34.537Z</time></trkpt><trkpt lat="49.9622814" lon="1.8520889"><ele>119.4</ele><time>2026-04-02T12:18:35.537Z</time></trkpt><trkpt lat="49.9621701" lon="1.8520974"><ele>119.2</ele><time>2026-04-02T12:18:36.537Z</time></trkpt><trkpt lat="49.9620881" lon="1.8520614"><ele>119.0</ele><time>2026-04-02T12:18:37.537Z</time></trkpt><trkpt lat="49.961951" lon="1.852011"><ele>119.0</ele><time>2026-04-02T12:18:39.537Z</time></trkpt><trkpt lat="49.9618686" lon="1.8519768"><ele>119.0</ele><time>2026-04-02T12:18:40.538Z</time></trkpt><trkpt lat="49.9617832" lon="1.8519046"><ele>119.0</ele><time>2026-04-02T12:18:41.538Z</time></trkpt><trkpt lat="49.9616672" lon="1.851826"><ele>119.0</ele><time>2026-04-02T12:18:42.538Z</time></trkpt><trkpt lat="49.9615647" lon="1.8517156"><ele>119.0</ele><time>2026-04-02T12:18:43.538Z</time></trkpt><trkpt lat="49.9614583" lon="1.851605"><ele>116.75</ele><time>2026-04-02T12:18:44.538Z</time></trkpt><trkpt lat="49.9613539" lon="1.851502"><ele>114.5</ele><time>2026-04-02T12:18:45.537Z</time></trkpt><trkpt lat="49.9612481" lon="1.8514192"><ele>112.25</ele><time>2026-04-02T12:18:46.537Z</time></trkpt><trkpt lat="49.9611367" lon="1.851347"><ele>110.0</ele><time>2026-04-02T12:18:47.537Z</time></trkpt><trkpt lat="49.96102" lon="1.8512851"><ele>110.0</ele><time>2026-04-02T12:18:48.537Z</time></trkpt><trkpt lat="49.9609094" lon="1.8512312"><ele>110.0</ele><time>2026-04-02T12:18:49.536Z</time></trkpt><trkpt lat="49.9608031" lon="1.8511721"><ele>110.0</ele><time>2026-04-02T12:18:50.537Z</time></trkpt><trkpt lat="49.9606954" lon="1.8511221"><ele>110.0</ele><time>2026-04-02T12:18:51.538Z</time></trkpt><trkpt lat="49.9605898" lon="1.8510687"><ele>106.66666666666666</ele><time>2026-04-02T12:18:52.537Z</time></trkpt><trkpt lat="49.9604888" lon="1.851012"><ele>103.33333333333333</ele><time>2026-04-02T12:18:53.537Z</time></trkpt><trkpt lat="49.9603957" lon="1.850961"><ele>100.0</ele><time>2026-04-02T12:18:54.537Z</time></trkpt><trkpt lat="49.9603145" lon="1.850916"><ele>96.66666666666666</ele><time>2026-04-02T12:18:55.538Z</time></trkpt><trkpt lat="49.960251" lon="1.8508847"><ele>93.33333333333333</ele><time>2026-04-02T12:18:56.536Z</time></trkpt><trkpt lat="49.9601794" lon="1.8508573"><ele>90.0</ele><time>2026-04-02T12:18:58.537Z</time></trkpt><trkpt lat="49.9601036" lon="1.8508643"><ele>90.0</ele><time>2026-04-02T12:19:01.538Z</time></trkpt><trkpt lat="49.960038" lon="1.8508504"><ele>90.0</ele><time>2026-04-02T12:19:04.537Z</time></trkpt><trkpt lat="49.9599776" lon="1.8509112"><ele>90.0</ele><time>2026-04-02T12:19:06.538Z</time></trkpt><trkpt lat="49.9599057" lon="1.8509411"><ele>90.0</ele><time>2026-04-02T12:19:08.538Z</time></trkpt><trkpt lat="49.9598316" lon="1.8509183"><ele>90.0</ele><time>2026-04-02T12:19:12.538Z</time></trkpt><trkpt lat="49.9597959" lon="1.8508357"><ele>90.0</ele><time>2026-04-02T12:19:15.537Z</time></trkpt><trkpt lat="49.9597393" lon="1.8507519"><ele>90.0</ele><time>2026-04-02T12:19:19.537Z</time></trkpt><trkpt lat="49.9596657" lon="1.8507584"><ele>88.33333333333333</ele><time>2026-04-02T12:19:21.538Z</time></trkpt><trkpt lat="49.9595932" lon="1.8507473"><ele>86.66666666666667</ele><time>2026-04-02T12:19:24.537Z</time></trkpt><trkpt lat="49.9595317" lon="1.8506519"><ele>85.0</ele><time>2026-04-02T12:19:26.537Z</time></trkpt><trkpt lat="49.9594613" lon="1.8505515"><ele>83.33333333333334</ele><time>2026-04-02T12:19:28.537Z</time></trkpt><trkpt lat="49.9593975" lon="1.8504456"><ele>81.66666666666667</ele><time>2026-04-02T12:19:30.536Z</time></trkpt><trkpt lat="49.959345" lon="1.8503511"><ele>80.0</ele><time>2026-04-02T12:19:32.536Z</time></trkpt><trkpt lat="49.9593022" lon="1.8502667"><ele>80.0</ele><time>2026-04-02T12:19:35.537Z</time></trkpt><trkpt lat="49.9592381" lon="1.8501755"><ele>80.0</ele><time>2026-04-02T12:19:39.537Z</time></trkpt><trkpt lat="49.9591873" lon="1.8501047"><ele>80.0</ele><time>2026-04-02T12:19:41.537Z</time></trkpt><trkpt lat="49.9590625" lon="1.8499938"><ele>80.0</ele><time>2026-04-02T12:19:43.537Z</time></trkpt><trkpt lat="49.9589627" lon="1.8499239"><ele>80.0</ele><time>2026-04-02T12:19:44.536Z</time></trkpt><trkpt lat="49.9588428" lon="1.8498365"><ele>77.25</ele><time>2026-04-02T12:19:45.538Z</time></trkpt><trkpt lat="49.9587174" lon="1.8497492"><ele>74.5</ele><time>2026-04-02T12:19:46.537Z</time></trkpt><trkpt lat="49.958591" lon="1.8496806"><ele>71.75</ele><time>2026-04-02T12:19:47.537Z</time></trkpt><trkpt lat="49.9584676" lon="1.8496348"><ele>69.0</ele><time>2026-04-02T12:19:48.538Z</time></trkpt><trkpt lat="49.9583484" lon="1.8495933"><ele>67.4</ele><time>2026-04-02T12:19:49.538Z</time></trkpt><trkpt lat="49.9582316" lon="1.8495624"><ele>65.80000000000001</ele><time>2026-04-02T12:19:50.536Z</time></trkpt><trkpt lat="49.9581194" lon="1.8495452"><ele>64.19999999999999</ele><time>2026-04-02T12:19:51.538Z</time></trkpt><trkpt lat="49.9580129" lon="1.8495344"><ele>62.599999999999994</ele><time>2026-04-02T12:19:52.537Z</time></trkpt><trkpt lat="49.9579117" lon="1.8495258"><ele>61.0</ele><time>2026-04-02T12:19:53.537Z</time></trkpt><trkpt lat="49.9578183" lon="1.8495216"><ele>60.99999999999999</ele><time>2026-04-02T12:19:54.537Z</time></trkpt><trkpt lat="49.9577318" lon="1.8495188"><ele>61.0</ele><time>2026-04-02T12:19:55.537Z</time></trkpt><trkpt lat="49.9576524" lon="1.8495144"><ele>61.0</ele><time>2026-04-02T12:19:56.538Z</time></trkpt><trkpt lat="49.9575812" lon="1.849512"><ele>61.0</ele><time>2026-04-02T12:19:57.538Z</time></trkpt><trkpt lat="49.9575154" lon="1.8494999"><ele>60.99999999999999</ele><time>2026-04-02T12:19:58.538Z</time></trkpt><trkpt lat="49.9573941" lon="1.8494547"><ele>61.0</ele><time>2026-04-02T12:20:00.537Z</time></trkpt><trkpt lat="49.9573078" lon="1.8494159"><ele>60.0</ele><time>2026-04-02T12:20:01.538Z</time></trkpt><trkpt lat="49.9572061" lon="1.8493576"><ele>59.0</ele><time>2026-04-02T12:20:02.537Z</time></trkpt><trkpt lat="49.9570984" lon="1.8492835"><ele>58.0</ele><time>2026-04-02T12:20:03.537Z</time></trkpt><trkpt lat="49.9569852" lon="1.8492185"><ele>57.0</ele><time>2026-04-02T12:20:04.538Z</time></trkpt><trkpt lat="49.9568657" lon="1.8491278"><ele>57.0</ele><time>2026-04-02T12:20:05.537Z</time></trkpt><trkpt lat="49.9567493" lon="1.8490053"><ele>57.0</ele><time>2026-04-02T12:20:06.537Z</time></trkpt><trkpt lat="49.9566399" lon="1.8488926"><ele>57.0</ele><time>2026-04-02T12:20:07.538Z</time></trkpt><trkpt lat="49.9565289" lon="1.8487747"><ele>57.0</ele><time>2026-04-02T12:20:08.538Z</time></trkpt><trkpt lat="49.9564314" lon="1.8486467"><ele>57.0</ele><time>2026-04-02T12:20:09.537Z</time></trkpt><trkpt lat="49.956331" lon="1.8485157"><ele>57.0</ele><time>2026-04-02T12:20:10.537Z</time></trkpt><trkpt lat="49.9562248" lon="1.8483894"><ele>57.0</ele><time>2026-04-02T12:20:11.536Z</time></trkpt><trkpt lat="49.9561281" lon="1.8482671"><ele>57.0</ele><time>2026-04-02T12:20:12.537Z</time></trkpt><trkpt lat="49.9560287" lon="1.8481505"><ele>57.0</ele><time>2026-04-02T12:20:13.537Z</time></trkpt><trkpt lat="49.955938" lon="1.8480228"><ele>57.0</ele><time>2026-04-02T12:20:14.537Z</time></trkpt><trkpt lat="49.9558525" lon="1.8478849"><ele>57.0</ele><time>2026-04-02T12:20:15.537Z</time></trkpt><trkpt lat="49.9557589" lon="1.8477473"><ele>57.0</ele><time>2026-04-02T12:20:16.537Z</time></trkpt><trkpt lat="49.9556596" lon="1.8476055"><ele>56.5</ele><time>2026-04-02T12:20:17.537Z</time></trkpt><trkpt lat="49.955535" lon="1.8475065"><ele>56.0</ele><time>2026-04-02T12:20:18.537Z</time></trkpt><trkpt lat="49.9554097" lon="1.8474107"><ele>55.5</ele><time>2026-04-02T12:20:19.538Z</time></trkpt><trkpt lat="49.9552919" lon="1.8473248"><ele>55.0</ele><time>2026-04-02T12:20:20.538Z</time></trkpt><trkpt lat="49.9551787" lon="1.8472538"><ele>55.0</ele><time>2026-04-02T12:20:21.538Z</time></trkpt><trkpt lat="49.9550793" lon="1.8471761"><ele>55.0</ele><time>2026-04-02T12:20:22.538Z</time></trkpt><trkpt lat="49.9549769" lon="1.8471302"><ele>55.0</ele><time>2026-04-02T12:20:23.537Z</time></trkpt><trkpt lat="49.9548909" lon="1.8471227"><ele>55.0</ele><time>2026-04-02T12:20:24.537Z</time></trkpt><trkpt lat="49.9547933" lon="1.8471079"><ele>55.0</ele><time>2026-04-02T12:20:25.538Z</time></trkpt><trkpt lat="49.9546755" lon="1.8471138"><ele>59.2</ele><time>2026-04-02T12:20:26.537Z</time></trkpt><trkpt lat="49.9545587" lon="1.8471105"><ele>63.4</ele><time>2026-04-02T12:20:27.537Z</time></trkpt><trkpt lat="49.9544678" lon="1.847123"><ele>67.6</ele><time>2026-04-02T12:20:28.537Z</time></trkpt><trkpt lat="49.9543636" lon="1.8471201"><ele>71.8</ele><time>2026-04-02T12:20:29.537Z</time></trkpt><trkpt lat="49.9542599" lon="1.8471329"><ele>76.0</ele><time>2026-04-02T12:20:30.537Z</time></trkpt><trkpt lat="49.954107" lon="1.8471377"><ele>78.4</ele><time>2026-04-02T12:20:31.536Z</time></trkpt><trkpt lat="49.9540058" lon="1.8471484"><ele>80.8</ele><time>2026-04-02T12:20:32.537Z</time></trkpt><trkpt lat="49.953916" lon="1.8471675"><ele>83.2</ele><time>2026-04-02T12:20:33.536Z</time></trkpt><trkpt lat="49.9538251" lon="1.8471984"><ele>85.60000000000001</ele><time>2026-04-02T12:20:34.537Z</time></trkpt><trkpt lat="49.9537211" lon="1.8471499"><ele>88.0</ele><time>2026-04-02T12:20:36.537Z</time></trkpt><trkpt lat="49.9536094" lon="1.8471412"><ele>88.0</ele><time>2026-04-02T12:20:38.538Z</time></trkpt><trkpt lat="49.9534669" lon="1.8470788"><ele>88.0</ele><time>2026-04-02T12:20:39.536Z</time></trkpt><trkpt lat="49.9533462" lon="1.8470099"><ele>88.0</ele><time>2026-04-02T12:20:40.536Z</time></trkpt><trkpt lat="49.9532408" lon="1.8469517"><ele>88.0</ele><time>2026-04-02T12:20:41.537Z</time></trkpt><trkpt lat="49.9531333" lon="1.8469265"><ele>90.0</ele><time>2026-04-02T12:20:42.537Z</time></trkpt><trkpt lat="49.9530334" lon="1.8468962"><ele>92.0</ele><time>2026-04-02T12:20:43.537Z</time></trkpt><trkpt lat="49.9529183" lon="1.8468612"><ele>94.0</ele><time>2026-04-02T12:20:44.536Z</time></trkpt><trkpt lat="49.9528043" lon="1.8468312"><ele>96.0</ele><time>2026-04-02T12:20:45.538Z</time></trkpt><trkpt lat="49.9526938" lon="1.8467888"><ele>98.0</ele><time>2026-04-02T12:20:46.537Z</time></trkpt><trkpt lat="49.9525546" lon="1.8467199"><ele>101.0</ele><time>2026-04-02T12:20:47.537Z</time></trkpt><trkpt lat="49.9524451" lon="1.8466704"><ele>104.0</ele><time>2026-04-02T12:20:48.538Z</time></trkpt><trkpt lat="49.9523084" lon="1.8466044"><ele>107.0</ele><time>2026-04-02T12:20:49.537Z</time></trkpt><trkpt lat="49.9521828" lon="1.8465617"><ele>110.0</ele><time>2026-04-02T12:20:50.537Z</time></trkpt><trkpt lat="49.9520595" lon="1.8465393"><ele>110.0</ele><time>2026-04-02T12:20:51.537Z</time></trkpt><trkpt lat="49.9519183" lon="1.8464799"><ele>110.0</ele><time>2026-04-02T12:20:52.537Z</time></trkpt><trkpt lat="49.9517976" lon="1.8464317"><ele>110.0</ele><time>2026-04-02T12:20:53.538Z</time></trkpt><trkpt lat="49.9516821" lon="1.8463367"><ele>110.0</ele><time>2026-04-02T12:20:54.537Z</time></trkpt><trkpt lat="49.9515599" lon="1.8462449"><ele>111.5</ele><time>2026-04-02T12:20:55.537Z</time></trkpt><trkpt lat="49.9514339" lon="1.8461633"><ele>113.0</ele><time>2026-04-02T12:20:56.537Z</time></trkpt><trkpt lat="49.9513062" lon="1.8460914"><ele>114.5</ele><time>2026-04-02T12:20:57.537Z</time></trkpt><trkpt lat="49.9511757" lon="1.8460041"><ele>116.0</ele><time>2026-04-02T12:20:58.537Z</time></trkpt><trkpt lat="49.9510425" lon="1.8459162"><ele>116.33333333333333</ele><time>2026-04-02T12:20:59.538Z</time></trkpt><trkpt lat="49.9509112" lon="1.8458449"><ele>116.66666666666666</ele><time>2026-04-02T12:21:00.536Z</time></trkpt><trkpt lat="49.9507666" lon="1.8457684"><ele>117.0</ele><time>2026-04-02T12:21:01.538Z</time></trkpt><trkpt lat="49.9506157" lon="1.845692"><ele>118.0</ele><time>2026-04-02T12:21:02.538Z</time></trkpt><trkpt lat="49.9504895" lon="1.84561"><ele>119.0</ele><time>2026-04-02T12:21:03.537Z</time></trkpt><trkpt lat="49.950366" lon="1.8455327"><ele>120.0</ele><time>2026-04-02T12:21:04.537Z</time></trkpt><trkpt lat="49.9502438" lon="1.8454662"><ele>121.0</ele><time>2026-04-02T12:21:05.537Z</time></trkpt><trkpt lat="49.9501124" lon="1.8454019"><ele>122.25</ele><time>2026-04-02T12:21:06.537Z</time></trkpt><trkpt lat="49.9499944" lon="1.845337"><ele>123.5</ele><time>2026-04-02T12:21:07.537Z</time></trkpt><trkpt lat="49.9498646" lon="1.8452713"><ele>124.75</ele><time>2026-04-02T12:21:08.538Z</time></trkpt><trkpt lat="49.9497728" lon="1.8452118"><ele>126.0</ele><time>2026-04-02T12:21:09.538Z</time></trkpt><trkpt lat="49.9496607" lon="1.8451508"><ele>126.0</ele><time>2026-04-02T12:21:10.537Z</time></trkpt><trkpt lat="49.9495336" lon="1.8450935"><ele>126.0</ele><time>2026-04-02T12:21:11.537Z</time></trkpt><trkpt lat="49.9493919" lon="1.8450301"><ele>126.0</ele><time>2026-04-02T12:21:12.536Z</time></trkpt><trkpt lat="49.9492593" lon="1.8449556"><ele>126.0</ele><time>2026-04-02T12:21:13.537Z</time></trkpt><trkpt lat="49.9491219" lon="1.8448931"><ele>126.0</ele><time>2026-04-02T12:21:14.537Z</time></trkpt><trkpt lat="49.9489579" lon="1.8448206"><ele>126.0</ele><time>2026-04-02T12:21:15.537Z</time></trkpt><trkpt lat="49.9488169" lon="1.8447479"><ele>126.0</ele><time>2026-04-02T12:21:16.537Z</time></trkpt><trkpt lat="49.9486504" lon="1.8446669"><ele>126.0</ele><time>2026-04-02T12:21:17.538Z</time></trkpt><trkpt lat="49.9484993" lon="1.8445845"><ele>126.0</ele><time>2026-04-02T12:21:18.538Z</time></trkpt><trkpt lat="49.9483489" lon="1.8445048"><ele>126.0</ele><time>2026-04-02T12:21:19.537Z</time></trkpt><trkpt lat="49.9481829" lon="1.8444126"><ele>126.0</ele><time>2026-04-02T12:21:20.537Z</time></trkpt><trkpt lat="49.9480307" lon="1.8443324"><ele>126.0</ele><time>2026-04-02T12:21:21.537Z</time></trkpt><trkpt lat="49.9478796" lon="1.8442573"><ele>126.0</ele><time>2026-04-02T12:21:22.538Z</time></trkpt><trkpt lat="49.9477347" lon="1.8441915"><ele>124.66666666666666</ele><time>2026-04-02T12:21:23.537Z</time></trkpt><trkpt lat="49.9475777" lon="1.8441339"><ele>123.33333333333333</ele><time>2026-04-02T12:21:24.538Z</time></trkpt><trkpt lat="49.9474268" lon="1.8440789"><ele>122.0</ele><time>2026-04-02T12:21:25.537Z</time></trkpt><trkpt lat="49.9472634" lon="1.8440386"><ele>120.33333333333333</ele><time>2026-04-02T12:21:26.537Z</time></trkpt><trkpt lat="49.9471063" lon="1.8439941"><ele>118.66666666666666</ele><time>2026-04-02T12:21:27.537Z</time></trkpt><trkpt lat="49.946941" lon="1.8439466"><ele>117.0</ele><time>2026-04-02T12:21:28.537Z</time></trkpt><trkpt lat="49.9467707" lon="1.8439046"><ele>115.66666666666666</ele><time>2026-04-02T12:21:29.537Z</time></trkpt><trkpt lat="49.9465975" lon="1.8438611"><ele>114.33333333333333</ele><time>2026-04-02T12:21:30.537Z</time></trkpt><trkpt lat="49.9464208" lon="1.8438192"><ele>113.0</ele><time>2026-04-02T12:21:31.537Z</time></trkpt><trkpt lat="49.9462385" lon="1.8437776"><ele>113.0</ele><time>2026-04-02T12:21:32.537Z</time></trkpt><trkpt lat="49.9460534" lon="1.8437324"><ele>113.0</ele><time>2026-04-02T12:21:33.538Z</time></trkpt><trkpt lat="49.9458665" lon="1.8436902"><ele>113.0</ele><time>2026-04-02T12:21:34.538Z</time></trkpt><trkpt lat="49.9456752" lon="1.8436438"><ele>113.33333333333333</ele><time>2026-04-02T12:21:35.536Z</time></trkpt><trkpt lat="49.9454812" lon="1.843594"><ele>113.66666666666666</ele><time>2026-04-02T12:21:36.537Z</time></trkpt><trkpt lat="49.9452864" lon="1.8435396"><ele>114.0</ele><time>2026-04-02T12:21:37.537Z</time></trkpt><trkpt lat="49.9450893" lon="1.8434873"><ele>114.33333333333334</ele><time>2026-04-02T12:21:38.538Z</time></trkpt><trkpt lat="49.9448895" lon="1.8434349"><ele>114.66666666666667</ele><time>2026-04-02T12:21:39.537Z</time></trkpt><trkpt lat="49.9446864" lon="1.8433843"><ele>115.0</ele><time>2026-04-02T12:21:40.537Z</time></trkpt><trkpt lat="49.9444827" lon="1.8433395"><ele>115.0</ele><time>2026-04-02T12:21:41.537Z</time></trkpt><trkpt lat="49.9442785" lon="1.8432836"><ele>115.0</ele><time>2026-04-02T12:21:42.538Z</time></trkpt><trkpt lat="49.9440739" lon="1.8432262"><ele>115.0</ele><time>2026-04-02T12:21:43.537Z</time></trkpt><trkpt lat="49.943869" lon="1.8431744"><ele>115.0</ele><time>2026-04-02T12:21:44.537Z</time></trkpt><trkpt lat="49.9436667" lon="1.8431207"><ele>115.0</ele><time>2026-04-02T12:21:45.538Z</time></trkpt><trkpt lat="49.9434748" lon="1.8430756"><ele>115.0</ele><time>2026-04-02T12:21:46.537Z</time></trkpt><trkpt lat="49.943284" lon="1.843029"><ele>115.0</ele><time>2026-04-02T12:21:47.537Z</time></trkpt><trkpt lat="49.9430873" lon="1.8429764"><ele>115.0</ele><time>2026-04-02T12:21:48.537Z</time></trkpt><trkpt lat="49.9428876" lon="1.8429272"><ele>115.0</ele><time>2026-04-02T12:21:49.536Z</time></trkpt><trkpt lat="49.9427041" lon="1.8428882"><ele>115.0</ele><time>2026-04-02T12:21:50.536Z</time></trkpt><trkpt lat="49.9425299" lon="1.8428575"><ele>115.0</ele><time>2026-04-02T12:21:51.537Z</time></trkpt><trkpt lat="49.9423715" lon="1.8428241"><ele>115.0</ele><time>2026-04-02T12:21:52.536Z</time></trkpt><trkpt lat="49.942223" lon="1.8427982"><ele>115.0</ele><time>2026-04-02T12:21:53.538Z</time></trkpt><trkpt lat="49.9420787" lon="1.8427853"><ele>115.0</ele><time>2026-04-02T12:21:54.536Z</time></trkpt><trkpt lat="49.941946" lon="1.8427957"><ele>115.0</ele><time>2026-04-02T12:21:55.536Z</time></trkpt><trkpt lat="49.9418229" lon="1.8428302"><ele>115.0</ele><time>2026-04-02T12:21:56.537Z</time></trkpt><trkpt lat="49.9416913" lon="1.8428902"><ele>114.5</ele><time>2026-04-02T12:21:57.537Z</time></trkpt><trkpt lat="49.9415596" lon="1.8429679"><ele>114.0</ele><time>2026-04-02T12:21:58.538Z</time></trkpt><trkpt lat="49.9414366" lon="1.8430568"><ele>113.5</ele><time>2026-04-02T12:21:59.537Z</time></trkpt><trkpt lat="49.941315" lon="1.8431373"><ele>113.0</ele><time>2026-04-02T12:22:00.536Z</time></trkpt><trkpt lat="49.9411946" lon="1.8432061"><ele>113.0</ele><time>2026-04-02T12:22:01.538Z</time></trkpt><trkpt lat="49.9410813" lon="1.8432336"><ele>113.0</ele><time>2026-04-02T12:22:02.536Z</time></trkpt><trkpt lat="49.9409757" lon="1.8432415"><ele>113.0</ele><time>2026-04-02T12:22:03.537Z</time></trkpt><trkpt lat="49.9408569" lon="1.8432206"><ele>113.0</ele><time>2026-04-02T12:22:04.538Z</time></trkpt><trkpt lat="49.9407386" lon="1.8431756"><ele>111.75</ele><time>2026-04-02T12:22:05.537Z</time></trkpt><trkpt lat="49.940626" lon="1.8431189"><ele>110.5</ele><time>2026-04-02T12:22:06.538Z</time></trkpt><trkpt lat="49.9405053" lon="1.8430755"><ele>109.25</ele><time>2026-04-02T12:22:07.538Z</time></trkpt><trkpt lat="49.9403772" lon="1.8430385"><ele>108.0</ele><time>2026-04-02T12:22:08.536Z</time></trkpt><trkpt lat="49.9402373" lon="1.8429936"><ele>108.0</ele><time>2026-04-02T12:22:09.537Z</time></trkpt><trkpt lat="49.9400951" lon="1.8429293"><ele>108.0</ele><time>2026-04-02T12:22:10.537Z</time></trkpt><trkpt lat="49.9399404" lon="1.8428429"><ele>108.0</ele><time>2026-04-02T12:22:11.537Z</time></trkpt><trkpt lat="49.9397792" lon="1.8427349"><ele>104.66666666666666</ele><time>2026-04-02T12:22:12.536Z</time></trkpt><trkpt lat="49.9396158" lon="1.8426102"><ele>101.33333333333333</ele><time>2026-04-02T12:22:13.538Z</time></trkpt><trkpt lat="49.939455" lon="1.842494"><ele>98.0</ele><time>2026-04-02T12:22:14.537Z</time></trkpt><trkpt lat="49.9392859" lon="1.8423859"><ele>95.33333333333333</ele><time>2026-04-02T12:22:15.538Z</time></trkpt><trkpt lat="49.939111" lon="1.8422914"><ele>92.66666666666666</ele><time>2026-04-02T12:22:16.537Z</time></trkpt><trkpt lat="49.9389435" lon="1.8421858"><ele>90.0</ele><time>2026-04-02T12:22:17.538Z</time></trkpt><trkpt lat="49.9387815" lon="1.842095"><ele>90.0</ele><time>2026-04-02T12:22:18.538Z</time></trkpt><trkpt lat="49.9386294" lon="1.8420125"><ele>90.0</ele><time>2026-04-02T12:22:19.537Z</time></trkpt><trkpt lat="49.9384919" lon="1.8419424"><ele>90.0</ele><time>2026-04-02T12:22:20.538Z</time></trkpt><trkpt lat="49.9383666" lon="1.8418603"><ele>90.0</ele><time>2026-04-02T12:22:21.537Z</time></trkpt><trkpt lat="49.9382564" lon="1.8417694"><ele>88.5</ele><time>2026-04-02T12:22:22.538Z</time></trkpt><trkpt lat="49.9381504" lon="1.8416904"><ele>87.0</ele><time>2026-04-02T12:22:23.537Z</time></trkpt><trkpt lat="49.9380399" lon="1.8416347"><ele>85.5</ele><time>2026-04-02T12:22:24.537Z</time></trkpt><trkpt lat="49.9379171" lon="1.8415914"><ele>84.0</ele><time>2026-04-02T12:22:25.536Z</time></trkpt><trkpt lat="49.9377826" lon="1.8415517"><ele>84.0</ele><time>2026-04-02T12:22:26.536Z</time></trkpt><trkpt lat="49.9376452" lon="1.8415183"><ele>84.0</ele><time>2026-04-02T12:22:27.537Z</time></trkpt><trkpt lat="49.9375124" lon="1.841492"><ele>84.0</ele><time>2026-04-02T12:22:28.537Z</time></trkpt><trkpt lat="49.9373868" lon="1.8414726"><ele>84.0</ele><time>2026-04-02T12:22:29.537Z</time></trkpt><trkpt lat="49.9372711" lon="1.8414563"><ele>82.4</ele><time>2026-04-02T12:22:30.537Z</time></trkpt><trkpt lat="49.9371774" lon="1.8414507"><ele>80.80000000000001</ele><time>2026-04-02T12:22:31.537Z</time></trkpt><trkpt lat="49.9371093" lon="1.8414615"><ele>79.19999999999999</ele><time>2026-04-02T12:22:32.537Z</time></trkpt><trkpt lat="49.9370072" lon="1.8414395"><ele>77.6</ele><time>2026-04-02T12:22:34.538Z</time></trkpt><trkpt lat="49.9369872" lon="1.8412675"><ele>76.0</ele><time>2026-04-02T12:22:36.537Z</time></trkpt><trkpt lat="49.9369916" lon="1.8411281"><ele>77.25</ele><time>2026-04-02T12:22:37.537Z</time></trkpt><trkpt lat="49.9369951" lon="1.8409652"><ele>78.5</ele><time>2026-04-02T12:22:38.537Z</time></trkpt><trkpt lat="49.9369908" lon="1.8407829"><ele>79.75</ele><time>2026-04-02T12:22:39.537Z</time></trkpt><trkpt lat="49.936962" lon="1.8405926"><ele>81.0</ele><time>2026-04-02T12:22:40.537Z</time></trkpt><trkpt lat="49.9369225" lon="1.8403966"><ele>81.0</ele><time>2026-04-02T12:22:41.537Z</time></trkpt><trkpt lat="49.9368808" lon="1.840196"><ele>81.0</ele><time>2026-04-02T12:22:42.537Z</time></trkpt><trkpt lat="49.9368348" lon="1.8399952"><ele>81.0</ele><time>2026-04-02T12:22:43.536Z</time></trkpt><trkpt lat="49.9367931" lon="1.8397952"><ele>81.0</ele><time>2026-04-02T12:22:44.537Z</time></trkpt><trkpt lat="49.9367529" lon="1.8395809"><ele>81.0</ele><time>2026-04-02T12:22:45.537Z</time></trkpt><trkpt lat="49.9367173" lon="1.8393588"><ele>81.0</ele><time>2026-04-02T12:22:46.537Z</time></trkpt><trkpt lat="49.9366859" lon="1.839127"><ele>81.0</ele><time>2026-04-02T12:22:47.537Z</time></trkpt><trkpt lat="49.9366634" lon="1.83889"><ele>81.33333333333333</ele><time>2026-04-02T12:22:48.536Z</time></trkpt><trkpt lat="49.9366433" lon="1.8386589"><ele>81.66666666666666</ele><time>2026-04-02T12:22:49.536Z</time></trkpt><trkpt lat="49.9366252" lon="1.8384208"><ele>82.0</ele><time>2026-04-02T12:22:50.538Z</time></trkpt><trkpt lat="49.9366057" lon="1.8381796"><ele>84.33333333333333</ele><time>2026-04-02T12:22:51.537Z</time></trkpt><trkpt lat="49.9365912" lon="1.8379328"><ele>86.66666666666667</ele><time>2026-04-02T12:22:52.537Z</time></trkpt><trkpt lat="49.9365819" lon="1.8376833"><ele>89.0</ele><time>2026-04-02T12:22:53.537Z</time></trkpt><trkpt lat="49.9365765" lon="1.8374439"><ele>90.66666666666667</ele><time>2026-04-02T12:22:54.538Z</time></trkpt><trkpt lat="49.9365797" lon="1.8372019"><ele>92.33333333333333</ele><time>2026-04-02T12:22:55.537Z</time></trkpt><trkpt lat="49.9365876" lon="1.8369558"><ele>94.0</ele><time>2026-04-02T12:22:56.537Z</time></trkpt><trkpt lat="49.9366008" lon="1.8367061"><ele>95.0</ele><time>2026-04-02T12:22:57.538Z</time></trkpt><trkpt lat="49.9366251" lon="1.8364573"><ele>96.0</ele><time>2026-04-02T12:22:58.538Z</time></trkpt><trkpt lat="49.9366567" lon="1.8362096"><ele>97.0</ele><time>2026-04-02T12:22:59.537Z</time></trkpt><trkpt lat="49.936689" lon="1.8359602"><ele>101.0</ele><time>2026-04-02T12:23:00.537Z</time></trkpt><trkpt lat="49.9367267" lon="1.8357102"><ele>105.0</ele><time>2026-04-02T12:23:01.536Z</time></trkpt><trkpt lat="49.9367572" lon="1.8354756"><ele>109.0</ele><time>2026-04-02T12:23:02.537Z</time></trkpt><trkpt lat="49.9367734" lon="1.8352543"><ele>109.5</ele><time>2026-04-02T12:23:03.537Z</time></trkpt><trkpt lat="49.936789" lon="1.8350397"><ele>110.0</ele><time>2026-04-02T12:23:04.538Z</time></trkpt><trkpt lat="49.9367982" lon="1.834838"><ele>110.5</ele><time>2026-04-02T12:23:05.536Z</time></trkpt><trkpt lat="49.9368055" lon="1.8346346"><ele>111.0</ele><time>2026-04-02T12:23:06.538Z</time></trkpt><trkpt lat="49.9368097" lon="1.8344567"><ele>111.0</ele><time>2026-04-02T12:23:07.538Z</time></trkpt><trkpt lat="49.9368114" lon="1.8343052"><ele>111.0</ele><time>2026-04-02T12:23:08.537Z</time></trkpt><trkpt lat="49.9368146" lon="1.8341727"><ele>111.0</ele><time>2026-04-02T12:23:09.537Z</time></trkpt><trkpt lat="49.9368183" lon="1.8340359"><ele>111.0</ele><time>2026-04-02T12:23:10.537Z</time></trkpt><trkpt lat="49.9368238" lon="1.8339226"><ele>111.0</ele><time>2026-04-02T12:23:11.537Z</time></trkpt><trkpt lat="49.9368077" lon="1.8337411"><ele>110.6</ele><time>2026-04-02T12:23:13.537Z</time></trkpt><trkpt lat="49.9367638" lon="1.8336389"><ele>110.19999999999999</ele><time>2026-04-02T12:23:14.537Z</time></trkpt><trkpt lat="49.9367241" lon="1.8334656"><ele>109.80000000000001</ele><time>2026-04-02T12:23:15.537Z</time></trkpt><trkpt lat="49.9366725" lon="1.8333162"><ele>109.4</ele><time>2026-04-02T12:23:16.537Z</time></trkpt><trkpt lat="49.9366224" lon="1.8331823"><ele>109.0</ele><time>2026-04-02T12:23:17.536Z</time></trkpt><trkpt lat="49.9365408" lon="1.8330372"><ele>109.0</ele><time>2026-04-02T12:23:18.536Z</time></trkpt><trkpt lat="49.9364789" lon="1.8328802"><ele>109.0</ele><time>2026-04-02T12:23:19.537Z</time></trkpt><trkpt lat="49.9364016" lon="1.8327734"><ele>109.0</ele><time>2026-04-02T12:23:20.536Z</time></trkpt><trkpt lat="49.9363276" lon="1.8326337"><ele>109.0</ele><time>2026-04-02T12:23:21.537Z</time></trkpt><trkpt lat="49.9362574" lon="1.8325071"><ele>109.0</ele><time>2026-04-02T12:23:22.537Z</time></trkpt><trkpt lat="49.9361911" lon="1.8323559"><ele>111.25</ele><time>2026-04-02T12:23:23.537Z</time></trkpt><trkpt lat="49.9361229" lon="1.8322008"><ele>113.5</ele><time>2026-04-02T12:23:24.537Z</time></trkpt><trkpt lat="49.9360895" lon="1.8320261"><ele>115.75</ele><time>2026-04-02T12:23:25.536Z</time></trkpt><trkpt lat="49.9360189" lon="1.8318574"><ele>118.0</ele><time>2026-04-02T12:23:26.536Z</time></trkpt><trkpt lat="49.9359463" lon="1.8317206"><ele>117.75</ele><time>2026-04-02T12:23:27.537Z</time></trkpt><trkpt lat="49.9358967" lon="1.8315779"><ele>117.5</ele><time>2026-04-02T12:23:28.538Z</time></trkpt><trkpt lat="49.9358425" lon="1.8314386"><ele>117.25</ele><time>2026-04-02T12:23:29.537Z</time></trkpt><trkpt lat="49.9357677" lon="1.8313067"><ele>117.0</ele><time>2026-04-02T12:23:30.537Z</time></trkpt><trkpt lat="49.9356829" lon="1.8311548"><ele>117.0</ele><time>2026-04-02T12:23:31.538Z</time></trkpt><trkpt lat="49.9355872" lon="1.8309969"><ele>117.0</ele><time>2026-04-02T12:23:32.538Z</time></trkpt><trkpt lat="49.935502" lon="1.8308492"><ele>117.0</ele><time>2026-04-02T12:23:33.537Z</time></trkpt><trkpt lat="49.9354253" lon="1.8307064"><ele>117.0</ele><time>2026-04-02T12:23:34.537Z</time></trkpt><trkpt lat="49.9353336" lon="1.8305662"><ele>117.5</ele><time>2026-04-02T12:23:35.538Z</time></trkpt><trkpt lat="49.9352391" lon="1.8304516"><ele>118.0</ele><time>2026-04-02T12:23:36.538Z</time></trkpt><trkpt lat="49.9351595" lon="1.830307"><ele>118.5</ele><time>2026-04-02T12:23:37.536Z</time></trkpt><trkpt lat="49.9350819" lon="1.8301883"><ele>119.0</ele><time>2026-04-02T12:23:38.539Z</time></trkpt><trkpt lat="49.9350058" lon="1.8300909"><ele>119.0</ele><time>2026-04-02T12:23:39.538Z</time></trkpt><trkpt lat="49.9349301" lon="1.8299699"><ele>119.0</ele><time>2026-04-02T12:23:40.538Z</time></trkpt><trkpt lat="49.9348597" lon="1.8298654"><ele>119.0</ele><time>2026-04-02T12:23:41.538Z</time></trkpt><trkpt lat="49.9347842" lon="1.8297387"><ele>119.0</ele><time>2026-04-02T12:23:42.539Z</time></trkpt><trkpt lat="49.9347171" lon="1.8295882"><ele>119.0</ele><time>2026-04-02T12:23:43.538Z</time></trkpt><trkpt lat="49.9346331" lon="1.8294472"><ele>119.0</ele><time>2026-04-02T12:23:44.539Z</time></trkpt><trkpt lat="49.9345497" lon="1.8293148"><ele>119.0</ele><time>2026-04-02T12:23:45.537Z</time></trkpt><trkpt lat="49.9344559" lon="1.8291948"><ele>119.0</ele><time>2026-04-02T12:23:46.538Z</time></trkpt><trkpt lat="49.9343834" lon="1.8290662"><ele>119.0</ele><time>2026-04-02T12:23:47.538Z</time></trkpt><trkpt lat="49.9343126" lon="1.8289444"><ele>119.0</ele><time>2026-04-02T12:23:48.537Z</time></trkpt><trkpt lat="49.9342423" lon="1.8287968"><ele>119.0</ele><time>2026-04-02T12:23:49.539Z</time></trkpt><trkpt lat="49.9341736" lon="1.82868"><ele>119.0</ele><time>2026-04-02T12:23:50.538Z</time></trkpt><trkpt lat="49.9341136" lon="1.8285618"><ele>119.0</ele><time>2026-04-02T12:23:51.539Z</time></trkpt><trkpt lat="49.9340629" lon="1.828481"><ele>119.0</ele><time>2026-04-02T12:23:52.537Z</time></trkpt><trkpt lat="49.933997" lon="1.8283552"><ele>119.83333333333333</ele><time>2026-04-02T12:23:53.537Z</time></trkpt><trkpt lat="49.9339346" lon="1.8282345"><ele>120.66666666666666</ele><time>2026-04-02T12:23:54.538Z</time></trkpt><trkpt lat="49.9338757" lon="1.8281405"><ele>121.5</ele><time>2026-04-02T12:23:55.539Z</time></trkpt><trkpt lat="49.9338279" lon="1.8280643"><ele>122.33333333333334</ele><time>2026-04-02T12:23:56.538Z</time></trkpt><trkpt lat="49.9337753" lon="1.8279903"><ele>123.16666666666667</ele><time>2026-04-02T12:23:57.539Z</time></trkpt><trkpt lat="49.9337179" lon="1.8279221"><ele>124.0</ele><time>2026-04-02T12:23:58.539Z</time></trkpt><trkpt lat="49.9336466" lon="1.8278511"><ele>124.0</ele><time>2026-04-02T12:23:59.538Z</time></trkpt><trkpt lat="49.9335837" lon="1.8277644"><ele>124.00000000000001</ele><time>2026-04-02T12:24:00.538Z</time></trkpt><trkpt lat="49.9335184" lon="1.8277283"><ele>124.0</ele><time>2026-04-02T12:24:01.539Z</time></trkpt><trkpt lat="49.9334568" lon="1.8276884"><ele>124.0</ele><time>2026-04-02T12:24:02.538Z</time></trkpt><trkpt lat="49.9333936" lon="1.827642"><ele>124.00000000000001</ele><time>2026-04-02T12:24:03.539Z</time></trkpt><trkpt lat="49.9333341" lon="1.8275903"><ele>124.0</ele><time>2026-04-02T12:24:04.538Z</time></trkpt><trkpt lat="49.9332713" lon="1.827535"><ele>124.0</ele><time>2026-04-02T12:24:05.538Z</time></trkpt><trkpt lat="49.9331756" lon="1.8274781"><ele>123.80000000000001</ele><time>2026-04-02T12:24:07.539Z</time></trkpt><trkpt lat="49.933112" lon="1.8274372"><ele>123.60000000000001</ele><time>2026-04-02T12:24:08.538Z</time></trkpt><trkpt lat="49.9330141" lon="1.827346"><ele>123.4</ele><time>2026-04-02T12:24:10.539Z</time></trkpt><trkpt lat="49.9329137" lon="1.8272836"><ele>123.2</ele><time>2026-04-02T12:24:12.538Z</time></trkpt><trkpt lat="49.9328469" lon="1.8272308"><ele>123.0</ele><time>2026-04-02T12:24:14.539Z</time></trkpt><trkpt lat="49.9327569" lon="1.8271379"><ele>123.0</ele><time>2026-04-02T12:24:16.538Z</time></trkpt><trkpt lat="49.9326473" lon="1.8270283"><ele>123.00000000000001</ele><time>2026-04-02T12:24:17.538Z</time></trkpt><trkpt lat="49.9325935" lon="1.826929"><ele>123.00000000000001</ele><time>2026-04-02T12:24:18.538Z</time></trkpt><trkpt lat="49.9325377" lon="1.8268201"><ele>123.0</ele><time>2026-04-02T12:24:19.538Z</time></trkpt><trkpt lat="49.9324601" lon="1.8266928"><ele>123.0</ele><time>2026-04-02T12:24:20.537Z</time></trkpt><trkpt lat="49.93238" lon="1.8265745"><ele>123.80000000000001</ele><time>2026-04-02T12:24:21.539Z</time></trkpt><trkpt lat="49.9323043" lon="1.8264617"><ele>124.60000000000001</ele><time>2026-04-02T12:24:22.538Z</time></trkpt><trkpt lat="49.9322359" lon="1.8263618"><ele>125.39999999999999</ele><time>2026-04-02T12:24:23.538Z</time></trkpt><trkpt lat="49.9321572" lon="1.8262418"><ele>126.19999999999999</ele><time>2026-04-02T12:24:24.539Z</time></trkpt><trkpt lat="49.9320911" lon="1.8260989"><ele>127.0</ele><time>2026-04-02T12:24:25.539Z</time></trkpt><trkpt lat="49.9319912" lon="1.8259609"><ele>126.25</ele><time>2026-04-02T12:24:26.539Z</time></trkpt><trkpt lat="49.9319063" lon="1.8258258"><ele>125.5</ele><time>2026-04-02T12:24:27.538Z</time></trkpt><trkpt lat="49.9318222" lon="1.8256993"><ele>124.75</ele><time>2026-04-02T12:24:28.538Z</time></trkpt><trkpt lat="49.9317337" lon="1.8255767"><ele>124.0</ele><time>2026-04-02T12:24:29.538Z</time></trkpt><trkpt lat="49.9316469" lon="1.8254777"><ele>124.0</ele><time>2026-04-02T12:24:30.537Z</time></trkpt><trkpt lat="49.9315567" lon="1.8253683"><ele>124.0</ele><time>2026-04-02T12:24:31.538Z</time></trkpt><trkpt lat="49.9314752" lon="1.8252649"><ele>124.0</ele><time>2026-04-02T12:24:32.538Z</time></trkpt><trkpt lat="49.931382" lon="1.8251241"><ele>124.0</ele><time>2026-04-02T12:24:33.538Z</time></trkpt><trkpt lat="49.9312858" lon="1.8250238"><ele>123.0</ele><time>2026-04-02T12:24:34.538Z</time></trkpt><trkpt lat="49.9311996" lon="1.8249201"><ele>122.0</ele><time>2026-04-02T12:24:35.537Z</time></trkpt><trkpt lat="49.9310997" lon="1.8248025"><ele>121.0</ele><time>2026-04-02T12:24:36.537Z</time></trkpt><trkpt lat="49.9309747" lon="1.8246956"><ele>120.0</ele><time>2026-04-02T12:24:37.537Z</time></trkpt><trkpt lat="49.9308575" lon="1.8245742"><ele>120.0</ele><time>2026-04-02T12:24:38.538Z</time></trkpt><trkpt lat="49.9307287" lon="1.8244567"><ele>120.0</ele><time>2026-04-02T12:24:39.538Z</time></trkpt><trkpt lat="49.9305985" lon="1.8243424"><ele>120.0</ele><time>2026-04-02T12:24:40.538Z</time></trkpt><trkpt lat="49.9304791" lon="1.8242306"><ele>120.0</ele><time>2026-04-02T12:24:41.538Z</time></trkpt><trkpt lat="49.9303725" lon="1.8241224"><ele>120.66666666666667</ele><time>2026-04-02T12:24:42.539Z</time></trkpt><trkpt lat="49.9302733" lon="1.8240356"><ele>121.33333333333334</ele><time>2026-04-02T12:24:43.539Z</time></trkpt><trkpt lat="49.9301882" lon="1.8239577"><ele>122.0</ele><time>2026-04-02T12:24:44.539Z</time></trkpt><trkpt lat="49.9301124" lon="1.8238933"><ele>122.66666666666667</ele><time>2026-04-02T12:24:45.539Z</time></trkpt><trkpt lat="49.9300457" lon="1.8238481"><ele>123.33333333333334</ele><time>2026-04-02T12:24:46.538Z</time></trkpt><trkpt lat="49.9299872" lon="1.8238019"><ele>124.0</ele><time>2026-04-02T12:24:47.539Z</time></trkpt><trkpt lat="49.9299261" lon="1.8236288"><ele>122.80000000000001</ele><time>2026-04-02T12:24:49.538Z</time></trkpt><trkpt lat="49.9298854" lon="1.8235111"><ele>121.60000000000001</ele><time>2026-04-02T12:24:50.538Z</time></trkpt><trkpt lat="49.9298447" lon="1.8233701"><ele>120.4</ele><time>2026-04-02T12:24:51.537Z</time></trkpt><trkpt lat="49.9297957" lon="1.8232147"><ele>119.2</ele><time>2026-04-02T12:24:52.539Z</time></trkpt><trkpt lat="49.929743" lon="1.8230598"><ele>118.0</ele><time>2026-04-02T12:24:53.539Z</time></trkpt><trkpt lat="49.9296874" lon="1.8228894"><ele>118.0</ele><time>2026-04-02T12:24:54.538Z</time></trkpt><trkpt lat="49.9296259" lon="1.8227098"><ele>118.0</ele><time>2026-04-02T12:24:55.537Z</time></trkpt><trkpt lat="49.9295609" lon="1.8225225"><ele>118.0</ele><time>2026-04-02T12:24:56.536Z</time></trkpt><trkpt lat="49.9294924" lon="1.82233"><ele>118.0</ele><time>2026-04-02T12:24:57.538Z</time></trkpt><trkpt lat="49.9294136" lon="1.8221303"><ele>118.25</ele><time>2026-04-02T12:24:58.538Z</time></trkpt><trkpt lat="49.9293284" lon="1.8219299"><ele>118.5</ele><time>2026-04-02T12:24:59.539Z</time></trkpt><trkpt lat="49.9292489" lon="1.8217345"><ele>118.75</ele><time>2026-04-02T12:25:00.538Z</time></trkpt><trkpt lat="49.9291788" lon="1.8215616"><ele>119.0</ele><time>2026-04-02T12:25:01.539Z</time></trkpt><trkpt lat="49.9291115" lon="1.8214128"><ele>119.0</ele><time>2026-04-02T12:25:02.538Z</time></trkpt><trkpt lat="49.9290604" lon="1.8212947"><ele>119.0</ele><time>2026-04-02T12:25:03.538Z</time></trkpt><trkpt lat="49.9290135" lon="1.8211539"><ele>119.0</ele><time>2026-04-02T12:25:04.538Z</time></trkpt><trkpt lat="49.9289726" lon="1.8209883"><ele>119.0</ele><time>2026-04-02T12:25:05.539Z</time></trkpt><trkpt lat="49.9289275" lon="1.820815"><ele>119.0</ele><time>2026-04-02T12:25:06.538Z</time></trkpt><trkpt lat="49.9288945" lon="1.8206564"><ele>119.0</ele><time>2026-04-02T12:25:07.539Z</time></trkpt><trkpt lat="49.9288589" lon="1.820504"><ele>119.0</ele><time>2026-04-02T12:25:08.538Z</time></trkpt><trkpt lat="49.9288079" lon="1.8203718"><ele>119.0</ele><time>2026-04-02T12:25:09.539Z</time></trkpt><trkpt lat="49.9287375" lon="1.8202499"><ele>119.0</ele><time>2026-04-02T12:25:10.539Z</time></trkpt><trkpt lat="49.9286594" lon="1.8201166"><ele>119.0</ele><time>2026-04-02T12:25:11.537Z</time></trkpt><trkpt lat="49.9285637" lon="1.8199867"><ele>119.0</ele><time>2026-04-02T12:25:12.538Z</time></trkpt><trkpt lat="49.9284628" lon="1.8198518"><ele>119.0</ele><time>2026-04-02T12:25:13.539Z</time></trkpt><trkpt lat="49.9283573" lon="1.8197103"><ele>119.0</ele><time>2026-04-02T12:25:14.538Z</time></trkpt><trkpt lat="49.9282445" lon="1.8195652"><ele>119.0</ele><time>2026-04-02T12:25:15.538Z</time></trkpt><trkpt lat="49.9281399" lon="1.8194068"><ele>119.25</ele><time>2026-04-02T12:25:16.539Z</time></trkpt><trkpt lat="49.9280387" lon="1.8192522"><ele>119.5</ele><time>2026-04-02T12:25:17.538Z</time></trkpt><trkpt lat="49.9279399" lon="1.8191096"><ele>119.75</ele><time>2026-04-02T12:25:18.537Z</time></trkpt><trkpt lat="49.9278377" lon="1.8189638"><ele>120.0</ele><time>2026-04-02T12:25:19.538Z</time></trkpt><trkpt lat="49.9277353" lon="1.8188076"><ele>120.0</ele><time>2026-04-02T12:25:20.538Z</time></trkpt><trkpt lat="49.9276314" lon="1.8186448"><ele>120.0</ele><time>2026-04-02T12:25:21.538Z</time></trkpt><trkpt lat="49.9275217" lon="1.818493"><ele>120.0</ele><time>2026-04-02T12:25:22.538Z</time></trkpt><trkpt lat="49.9274072" lon="1.8183365"><ele>120.0</ele><time>2026-04-02T12:25:23.538Z</time></trkpt><trkpt lat="49.9273022" lon="1.818168"><ele>120.0</ele><time>2026-04-02T12:25:24.539Z</time></trkpt><trkpt lat="49.9272038" lon="1.8180249"><ele>120.0</ele><time>2026-04-02T12:25:25.538Z</time></trkpt><trkpt lat="49.9271155" lon="1.8178818"><ele>120.0</ele><time>2026-04-02T12:25:26.538Z</time></trkpt><trkpt lat="49.9270254" lon="1.8177208"><ele>120.0</ele><time>2026-04-02T12:25:27.539Z</time></trkpt><trkpt lat="49.9269302" lon="1.8175581"><ele>120.0</ele><time>2026-04-02T12:25:28.538Z</time></trkpt><trkpt lat="49.9268325" lon="1.8173896"><ele>120.0</ele><time>2026-04-02T12:25:29.538Z</time></trkpt><trkpt lat="49.9267294" lon="1.8172131"><ele>120.0</ele><time>2026-04-02T12:25:30.538Z</time></trkpt><trkpt lat="49.9266176" lon="1.8170375"><ele>120.0</ele><time>2026-04-02T12:25:31.539Z</time></trkpt><trkpt lat="49.9265035" lon="1.8168587"><ele>120.0</ele><time>2026-04-02T12:25:32.538Z</time></trkpt><trkpt lat="49.9263959" lon="1.8166745"><ele>120.0</ele><time>2026-04-02T12:25:33.537Z</time></trkpt><trkpt lat="49.9262973" lon="1.8164874"><ele>120.33333333333334</ele><time>2026-04-02T12:25:34.538Z</time></trkpt><trkpt lat="49.9261957" lon="1.8162991"><ele>120.66666666666667</ele><time>2026-04-02T12:25:35.539Z</time></trkpt><trkpt lat="49.9260927" lon="1.816105"><ele>121.0</ele><time>2026-04-02T12:25:36.538Z</time></trkpt><trkpt lat="49.9259952" lon="1.8158961"><ele>121.0</ele><time>2026-04-02T12:25:37.538Z</time></trkpt><trkpt lat="49.9259066" lon="1.8157"><ele>121.0</ele><time>2026-04-02T12:25:38.538Z</time></trkpt><trkpt lat="49.9258276" lon="1.8155147"><ele>121.0</ele><time>2026-04-02T12:25:39.539Z</time></trkpt><trkpt lat="49.9257601" lon="1.8153491"><ele>121.0</ele><time>2026-04-02T12:25:40.538Z</time></trkpt><trkpt lat="49.9256958" lon="1.8151856"><ele>121.33333333333334</ele><time>2026-04-02T12:25:41.538Z</time></trkpt><trkpt lat="49.9256395" lon="1.8150452"><ele>121.66666666666667</ele><time>2026-04-02T12:25:42.539Z</time></trkpt><trkpt lat="49.9255958" lon="1.814936"><ele>122.0</ele><time>2026-04-02T12:25:43.538Z</time></trkpt><trkpt lat="49.9255476" lon="1.8147936"><ele>122.33333333333334</ele><time>2026-04-02T12:25:45.539Z</time></trkpt><trkpt lat="49.9255227" lon="1.8146952"><ele>122.66666666666667</ele><time>2026-04-02T12:25:47.538Z</time></trkpt><trkpt lat="49.9254579" lon="1.8146241"><ele>123.0</ele><time>2026-04-02T12:25:50.538Z</time></trkpt><trkpt lat="49.9254017" lon="1.8146776"><ele>123.0</ele><time>2026-04-02T12:25:52.538Z</time></trkpt><trkpt lat="49.9253054" lon="1.814776"><ele>123.0</ele><time>2026-04-02T12:25:54.538Z</time></trkpt><trkpt lat="49.9252415" lon="1.8148558"><ele>123.0</ele><time>2026-04-02T12:25:55.539Z</time></trkpt><trkpt lat="49.9251846" lon="1.8149271"><ele>123.0</ele><time>2026-04-02T12:25:56.538Z</time></trkpt><trkpt lat="49.9251338" lon="1.8150019"><ele>123.0</ele><time>2026-04-02T12:25:57.537Z</time></trkpt><trkpt lat="49.9250862" lon="1.8150685"><ele>123.0</ele><time>2026-04-02T12:25:58.539Z</time></trkpt><trkpt lat="49.9250087" lon="1.8151701"><ele>123.0</ele><time>2026-04-02T12:26:00.537Z</time></trkpt><trkpt lat="49.9249408" lon="1.8152603"><ele>123.00000000000001</ele><time>2026-04-02T12:26:02.538Z</time></trkpt><trkpt lat="49.924874" lon="1.8153502"><ele>123.00000000000001</ele><time>2026-04-02T12:26:04.538Z</time></trkpt><trkpt lat="49.9248049" lon="1.815448"><ele>123.0</ele><time>2026-04-02T12:26:06.539Z</time></trkpt><trkpt lat="49.9246906" lon="1.8155756"><ele>123.0</ele><time>2026-04-02T12:26:08.538Z</time></trkpt><trkpt lat="49.9246262" lon="1.8156571"><ele>123.0</ele><time>2026-04-02T12:26:09.537Z</time></trkpt><trkpt lat="49.924565" lon="1.8157393"><ele>123.0</ele><time>2026-04-02T12:26:10.539Z</time></trkpt><trkpt lat="49.9245063" lon="1.8158157"><ele>123.0</ele><time>2026-04-02T12:26:11.538Z</time></trkpt><trkpt lat="49.9244544" lon="1.8159008"><ele>123.0</ele><time>2026-04-02T12:26:12.538Z</time></trkpt><trkpt lat="49.9243963" lon="1.8159715"><ele>123.0</ele><time>2026-04-02T12:26:13.538Z</time></trkpt><trkpt lat="49.9243368" lon="1.8160443"><ele>123.0</ele><time>2026-04-02T12:26:14.538Z</time></trkpt><trkpt lat="49.9242799" lon="1.8161209"><ele>122.85714285714288</ele><time>2026-04-02T12:26:15.538Z</time></trkpt><trkpt lat="49.9242249" lon="1.816199"><ele>122.71428571428572</ele><time>2026-04-02T12:26:16.538Z</time></trkpt><trkpt lat="49.9241682" lon="1.816276"><ele>122.57142857142857</ele><time>2026-04-02T12:26:17.538Z</time></trkpt><trkpt lat="49.9241081" lon="1.8163529"><ele>122.42857142857143</ele><time>2026-04-02T12:26:18.539Z</time></trkpt><trkpt lat="49.924053" lon="1.8164287"><ele>122.28571428571428</ele><time>2026-04-02T12:26:19.538Z</time></trkpt><trkpt lat="49.9240059" lon="1.8165144"><ele>122.14285714285712</ele><time>2026-04-02T12:26:20.539Z</time></trkpt><trkpt lat="49.9239656" lon="1.8166059"><ele>121.99999999999999</ele><time>2026-04-02T12:26:21.538Z</time></trkpt><trkpt lat="49.9238904" lon="1.8167473"><ele>121.33333333333333</ele><time>2026-04-02T12:26:23.538Z</time></trkpt><trkpt lat="49.9238325" lon="1.8168662"><ele>120.66666666666666</ele><time>2026-04-02T12:26:25.538Z</time></trkpt><trkpt lat="49.9237776" lon="1.8169494"><ele>120.0</ele><time>2026-04-02T12:26:27.538Z</time></trkpt><trkpt lat="49.9237064" lon="1.8171093"><ele>119.33333333333334</ele><time>2026-04-02T12:26:29.537Z</time></trkpt><trkpt lat="49.9236637" lon="1.8171951"><ele>118.66666666666667</ele><time>2026-04-02T12:26:30.538Z</time></trkpt><trkpt lat="49.9236218" lon="1.8172842"><ele>118.0</ele><time>2026-04-02T12:26:31.538Z</time></trkpt><trkpt lat="49.9235764" lon="1.8173767"><ele>118.00000000000001</ele><time>2026-04-02T12:26:32.538Z</time></trkpt><trkpt lat="49.9235341" lon="1.8174737"><ele>118.0</ele><time>2026-04-02T12:26:33.539Z</time></trkpt><trkpt lat="49.9234857" lon="1.8175817"><ele>118.0</ele><time>2026-04-02T12:26:34.538Z</time></trkpt><trkpt lat="49.9234396" lon="1.8176801"><ele>118.0</ele><time>2026-04-02T12:26:35.538Z</time></trkpt><trkpt lat="49.9233964" lon="1.8177767"><ele>118.00000000000001</ele><time>2026-04-02T12:26:36.539Z</time></trkpt><trkpt lat="49.923351" lon="1.8178705"><ele>118.0</ele><time>2026-04-02T12:26:37.538Z</time></trkpt><trkpt lat="49.9233049" lon="1.8179605"><ele>117.16666666666667</ele><time>2026-04-02T12:26:38.538Z</time></trkpt><trkpt lat="49.9232595" lon="1.8180524"><ele>116.33333333333334</ele><time>2026-04-02T12:26:39.539Z</time></trkpt><trkpt lat="49.9232179" lon="1.8181452"><ele>115.5</ele><time>2026-04-02T12:26:40.538Z</time></trkpt><trkpt lat="49.9231795" lon="1.8182332"><ele>114.66666666666666</ele><time>2026-04-02T12:26:41.538Z</time></trkpt><trkpt lat="49.9231208" lon="1.8183433"><ele>113.83333333333333</ele><time>2026-04-02T12:26:43.539Z</time></trkpt><trkpt lat="49.923023" lon="1.818311"><ele>113.0</ele><time>2026-04-02T12:26:45.538Z</time></trkpt><trkpt lat="49.9229507" lon="1.8182675"><ele>113.0</ele><time>2026-04-02T12:26:46.538Z</time></trkpt><trkpt lat="49.922858" lon="1.8182165"><ele>113.00000000000001</ele><time>2026-04-02T12:26:47.538Z</time></trkpt><trkpt lat="49.9227563" lon="1.8181638"><ele>113.00000000000001</ele><time>2026-04-02T12:26:48.538Z</time></trkpt><trkpt lat="49.9226693" lon="1.8181238"><ele>113.0</ele><time>2026-04-02T12:26:49.538Z</time></trkpt><trkpt lat="49.9225844" lon="1.8180915"><ele>113.0</ele><time>2026-04-02T12:26:50.538Z</time></trkpt><trkpt lat="49.9225146" lon="1.8180653"><ele>113.0</ele><time>2026-04-02T12:26:51.538Z</time></trkpt><trkpt lat="49.9224139" lon="1.8180206"><ele>113.00000000000001</ele><time>2026-04-02T12:26:53.538Z</time></trkpt><trkpt lat="49.9223406" lon="1.8179725"><ele>113.00000000000001</ele><time>2026-04-02T12:26:55.538Z</time></trkpt><trkpt lat="49.9222585" lon="1.8178194"><ele>113.0</ele><time>2026-04-02T12:26:57.539Z</time></trkpt><trkpt lat="49.9222139" lon="1.8177028"><ele>113.0</ele><time>2026-04-02T12:26:58.537Z</time></trkpt><trkpt lat="49.9221686" lon="1.8175648"><ele>112.99999999999999</ele><time>2026-04-02T12:26:59.539Z</time></trkpt><trkpt lat="49.9221285" lon="1.8174532"><ele>113.0</ele><time>2026-04-02T12:27:00.538Z</time></trkpt><trkpt lat="49.9220967" lon="1.8173516"><ele>113.0</ele><time>2026-04-02T12:27:01.538Z</time></trkpt><trkpt lat="49.9220747" lon="1.8172589"><ele>113.0</ele><time>2026-04-02T12:27:02.538Z</time></trkpt><trkpt lat="49.9220428" lon="1.8170834"><ele>112.99999999999999</ele><time>2026-04-02T12:27:04.538Z</time></trkpt><trkpt lat="49.9220009" lon="1.8169782"><ele>113.0</ele><time>2026-04-02T12:27:05.538Z</time></trkpt><trkpt lat="49.9219423" lon="1.816857"><ele>113.75</ele><time>2026-04-02T12:27:06.538Z</time></trkpt><trkpt lat="49.9218689" lon="1.8167309"><ele>114.5</ele><time>2026-04-02T12:27:07.539Z</time></trkpt><trkpt lat="49.9217931" lon="1.8165973"><ele>115.25</ele><time>2026-04-02T12:27:08.538Z</time></trkpt><trkpt lat="49.9217264" lon="1.816466"><ele>116.0</ele><time>2026-04-02T12:27:09.538Z</time></trkpt><trkpt lat="49.9216597" lon="1.8163038"><ele>116.0</ele><time>2026-04-02T12:27:10.538Z</time></trkpt><trkpt lat="49.9216032" lon="1.8161217"><ele>116.0</ele><time>2026-04-02T12:27:11.539Z</time></trkpt><trkpt lat="49.9215535" lon="1.8159353"><ele>116.0</ele><time>2026-04-02T12:27:12.537Z</time></trkpt><trkpt lat="49.9215024" lon="1.8157505"><ele>116.0</ele><time>2026-04-02T12:27:13.538Z</time></trkpt><trkpt lat="49.9214341" lon="1.8155643"><ele>116.66666666666666</ele><time>2026-04-02T12:27:14.537Z</time></trkpt><trkpt lat="49.9213448" lon="1.8153848"><ele>117.33333333333334</ele><time>2026-04-02T12:27:15.538Z</time></trkpt><trkpt lat="49.9212512" lon="1.8152027"><ele>118.0</ele><time>2026-04-02T12:27:16.538Z</time></trkpt><trkpt lat="49.9211573" lon="1.8150088"><ele>118.5</ele><time>2026-04-02T12:27:17.538Z</time></trkpt><trkpt lat="49.9210672" lon="1.8148144"><ele>119.0</ele><time>2026-04-02T12:27:18.538Z</time></trkpt><trkpt lat="49.9210051" lon="1.8146187"><ele>119.5</ele><time>2026-04-02T12:27:19.538Z</time></trkpt><trkpt lat="49.920936" lon="1.8144116"><ele>120.0</ele><time>2026-04-02T12:27:20.538Z</time></trkpt><trkpt lat="49.9208712" lon="1.8142278"><ele>120.25</ele><time>2026-04-02T12:27:21.538Z</time></trkpt><trkpt lat="49.9207818" lon="1.8140646"><ele>120.5</ele><time>2026-04-02T12:27:22.538Z</time></trkpt><trkpt lat="49.9206861" lon="1.8138907"><ele>120.75</ele><time>2026-04-02T12:27:23.539Z</time></trkpt><trkpt lat="49.9205858" lon="1.813763"><ele>121.0</ele><time>2026-04-02T12:27:24.538Z</time></trkpt><trkpt lat="49.9204982" lon="1.8136309"><ele>121.5</ele><time>2026-04-02T12:27:25.538Z</time></trkpt><trkpt lat="49.9204227" lon="1.8134864"><ele>122.0</ele><time>2026-04-02T12:27:26.538Z</time></trkpt><trkpt lat="49.9203638" lon="1.8133025"><ele>122.5</ele><time>2026-04-02T12:27:27.539Z</time></trkpt><trkpt lat="49.9203053" lon="1.8131161"><ele>123.0</ele><time>2026-04-02T12:27:28.538Z</time></trkpt><trkpt lat="49.9202317" lon="1.8129362"><ele>123.0</ele><time>2026-04-02T12:27:29.539Z</time></trkpt><trkpt lat="49.9201468" lon="1.8127677"><ele>123.0</ele><time>2026-04-02T12:27:30.539Z</time></trkpt><trkpt lat="49.9200621" lon="1.8125877"><ele>123.0</ele><time>2026-04-02T12:27:31.539Z</time></trkpt><trkpt lat="49.9199657" lon="1.8124043"><ele>123.0</ele><time>2026-04-02T12:27:32.538Z</time></trkpt><trkpt lat="49.9198667" lon="1.8122153"><ele>122.66666666666666</ele><time>2026-04-02T12:27:33.538Z</time></trkpt><trkpt lat="49.919762" lon="1.8120227"><ele>122.33333333333333</ele><time>2026-04-02T12:27:34.538Z</time></trkpt><trkpt lat="49.9196513" lon="1.8118342"><ele>122.0</ele><time>2026-04-02T12:27:35.538Z</time></trkpt><trkpt lat="49.9195308" lon="1.811656"><ele>122.66666666666666</ele><time>2026-04-02T12:27:36.539Z</time></trkpt><trkpt lat="49.9194075" lon="1.811474"><ele>123.33333333333334</ele><time>2026-04-02T12:27:37.538Z</time></trkpt><trkpt lat="49.9192818" lon="1.8112942"><ele>124.0</ele><time>2026-04-02T12:27:38.538Z</time></trkpt><trkpt lat="49.9191569" lon="1.8111098"><ele>125.0</ele><time>2026-04-02T12:27:39.538Z</time></trkpt><trkpt lat="49.9190362" lon="1.8109431"><ele>126.0</ele><time>2026-04-02T12:27:40.538Z</time></trkpt><trkpt lat="49.9189181" lon="1.8107685"><ele>127.0</ele><time>2026-04-02T12:27:41.538Z</time></trkpt><trkpt lat="49.9187991" lon="1.8105895"><ele>127.0</ele><time>2026-04-02T12:27:42.538Z</time></trkpt><trkpt lat="49.9186781" lon="1.8104093"><ele>127.0</ele><time>2026-04-02T12:27:43.538Z</time></trkpt><trkpt lat="49.9185545" lon="1.8102269"><ele>127.0</ele><time>2026-04-02T12:27:44.538Z</time></trkpt><trkpt lat="49.918432" lon="1.8100395"><ele>127.66666666666667</ele><time>2026-04-02T12:27:45.538Z</time></trkpt><trkpt lat="49.918306" lon="1.8098489"><ele>128.33333333333334</ele><time>2026-04-02T12:27:46.538Z</time></trkpt><trkpt lat="49.9181766" lon="1.8096614"><ele>129.0</ele><time>2026-04-02T12:27:47.539Z</time></trkpt><trkpt lat="49.9180455" lon="1.8094739"><ele>129.33333333333334</ele><time>2026-04-02T12:27:48.539Z</time></trkpt><trkpt lat="49.9179145" lon="1.8092857"><ele>129.66666666666669</ele><time>2026-04-02T12:27:49.539Z</time></trkpt><trkpt lat="49.917783" lon="1.8090945"><ele>130.0</ele><time>2026-04-02T12:27:50.538Z</time></trkpt><trkpt lat="49.9176551" lon="1.8088988"><ele>130.0</ele><time>2026-04-02T12:27:51.539Z</time></trkpt><trkpt lat="49.9175254" lon="1.8087046"><ele>130.0</ele><time>2026-04-02T12:27:52.539Z</time></trkpt><trkpt lat="49.9173942" lon="1.8085103"><ele>130.0</ele><time>2026-04-02T12:27:53.539Z</time></trkpt><trkpt lat="49.9172648" lon="1.8083141"><ele>130.66666666666669</ele><time>2026-04-02T12:27:54.539Z</time></trkpt><trkpt lat="49.9171357" lon="1.8081146"><ele>131.33333333333334</ele><time>2026-04-02T12:27:55.539Z</time></trkpt><trkpt lat="49.9170104" lon="1.8079057"><ele>132.0</ele><time>2026-04-02T12:27:56.538Z</time></trkpt><trkpt lat="49.9168943" lon="1.8076915"><ele>132.5</ele><time>2026-04-02T12:27:57.538Z</time></trkpt><trkpt lat="49.9167487" lon="1.8073771"><ele>133.0</ele><time>2026-04-02T12:27:58.965Z</time></trkpt><trkpt lat="49.9165696" lon="1.8070229"><ele>133.66666666666669</ele><time>2026-04-02T12:28:00.538Z</time></trkpt><trkpt lat="49.9164542" lon="1.806806"><ele>134.33333333333334</ele><time>2026-04-02T12:28:01.538Z</time></trkpt><trkpt lat="49.9163275" lon="1.8066095"><ele>135.0</ele><time>2026-04-02T12:28:02.539Z</time></trkpt><trkpt lat="49.9161845" lon="1.8064398"><ele>135.0</ele><time>2026-04-02T12:28:03.537Z</time></trkpt><trkpt lat="49.9160396" lon="1.8062776"><ele>135.0</ele><time>2026-04-02T12:28:04.538Z</time></trkpt><trkpt lat="49.9158911" lon="1.8061153"><ele>135.0</ele><time>2026-04-02T12:28:05.537Z</time></trkpt><trkpt lat="49.915744" lon="1.8059552"><ele>136.0</ele><time>2026-04-02T12:28:06.538Z</time></trkpt><trkpt lat="49.9155961" lon="1.8058004"><ele>137.0</ele><time>2026-04-02T12:28:07.538Z</time></trkpt><trkpt lat="49.9154451" lon="1.8056528"><ele>138.0</ele><time>2026-04-02T12:28:08.538Z</time></trkpt><trkpt lat="49.9152933" lon="1.8055087"><ele>138.0</ele><time>2026-04-02T12:28:09.538Z</time></trkpt><trkpt lat="49.9151185" lon="1.8053786"><ele>138.0</ele><time>2026-04-02T12:28:10.538Z</time></trkpt><trkpt lat="49.9149556" lon="1.80525"><ele>138.0</ele><time>2026-04-02T12:28:11.538Z</time></trkpt><trkpt lat="49.9147896" lon="1.8051337"><ele>138.66666666666666</ele><time>2026-04-02T12:28:12.537Z</time></trkpt><trkpt lat="49.9146294" lon="1.8050227"><ele>139.33333333333331</ele><time>2026-04-02T12:28:13.539Z</time></trkpt><trkpt lat="49.9144801" lon="1.8049287"><ele>140.0</ele><time>2026-04-02T12:28:14.538Z</time></trkpt><trkpt lat="49.9143462" lon="1.8048436"><ele>139.8</ele><time>2026-04-02T12:28:15.538Z</time></trkpt><trkpt lat="49.9142321" lon="1.8047734"><ele>139.6</ele><time>2026-04-02T12:28:16.538Z</time></trkpt><trkpt lat="49.9141549" lon="1.8047163"><ele>139.4</ele><time>2026-04-02T12:28:17.538Z</time></trkpt><trkpt lat="49.9140615" lon="1.8046501"><ele>139.2</ele><time>2026-04-02T12:28:19.538Z</time></trkpt><trkpt lat="49.9139978" lon="1.8045755"><ele>139.0</ele><time>2026-04-02T12:28:23.538Z</time></trkpt><trkpt lat="49.9139218" lon="1.8044652"><ele>139.0</ele><time>2026-04-02T12:28:25.538Z</time></trkpt><trkpt lat="49.9138828" lon="1.8043661"><ele>139.0</ele><time>2026-04-02T12:28:26.538Z</time></trkpt><trkpt lat="49.9138509" lon="1.8042338"><ele>139.0</ele><time>2026-04-02T12:28:27.538Z</time></trkpt><trkpt lat="49.9138135" lon="1.8040839"><ele>139.0</ele><time>2026-04-02T12:28:28.539Z</time></trkpt><trkpt lat="49.9137717" lon="1.8039139"><ele>139.0</ele><time>2026-04-02T12:28:29.537Z</time></trkpt><trkpt lat="49.9137227" lon="1.8037347"><ele>139.25</ele><time>2026-04-02T12:28:30.539Z</time></trkpt><trkpt lat="49.9136603" lon="1.8035514"><ele>139.5</ele><time>2026-04-02T12:28:31.537Z</time></trkpt><trkpt lat="49.9135904" lon="1.8033691"><ele>139.75</ele><time>2026-04-02T12:28:32.538Z</time></trkpt><trkpt lat="49.9135119" lon="1.8032117"><ele>140.0</ele><time>2026-04-02T12:28:33.538Z</time></trkpt><trkpt lat="49.91343" lon="1.8030697"><ele>140.0</ele><time>2026-04-02T12:28:34.539Z</time></trkpt><trkpt lat="49.9133428" lon="1.8029371"><ele>140.0</ele><time>2026-04-02T12:28:35.539Z</time></trkpt><trkpt lat="49.9132552" lon="1.8028124"><ele>140.0</ele><time>2026-04-02T12:28:36.539Z</time></trkpt><trkpt lat="49.9131632" lon="1.8027032"><ele>140.0</ele><time>2026-04-02T12:28:37.538Z</time></trkpt><trkpt lat="49.9130854" lon="1.8026155"><ele>140.16666666666666</ele><time>2026-04-02T12:28:38.538Z</time></trkpt><trkpt lat="49.9130164" lon="1.8025485"><ele>140.33333333333331</ele><time>2026-04-02T12:28:39.537Z</time></trkpt><trkpt lat="49.9129557" lon="1.8024872"><ele>140.5</ele><time>2026-04-02T12:28:40.538Z</time></trkpt><trkpt lat="49.9128869" lon="1.8024384"><ele>140.66666666666666</ele><time>2026-04-02T12:28:41.539Z</time></trkpt><trkpt lat="49.9128021" lon="1.8023891"><ele>140.83333333333334</ele><time>2026-04-02T12:28:42.538Z</time></trkpt><trkpt lat="49.9126995" lon="1.8023355"><ele>141.0</ele><time>2026-04-02T12:28:43.538Z</time></trkpt><trkpt lat="49.9125892" lon="1.8022745"><ele>140.75</ele><time>2026-04-02T12:28:44.538Z</time></trkpt><trkpt lat="49.9124691" lon="1.8022116"><ele>140.5</ele><time>2026-04-02T12:28:45.538Z</time></trkpt><trkpt lat="49.9123398" lon="1.8021446"><ele>140.25</ele><time>2026-04-02T12:28:46.538Z</time></trkpt><trkpt lat="49.9122019" lon="1.8020721"><ele>140.0</ele><time>2026-04-02T12:28:47.539Z</time></trkpt><trkpt lat="49.9120629" lon="1.8020006"><ele>140.0</ele><time>2026-04-02T12:28:48.539Z</time></trkpt><trkpt lat="49.9119194" lon="1.8019271"><ele>140.0</ele><time>2026-04-02T12:28:49.537Z</time></trkpt><trkpt lat="49.9117734" lon="1.8018524"><ele>140.0</ele><time>2026-04-02T12:28:50.538Z</time></trkpt><trkpt lat="49.9116318" lon="1.8017772"><ele>140.25</ele><time>2026-04-02T12:28:51.538Z</time></trkpt><trkpt lat="49.9114901" lon="1.8017174"><ele>140.5</ele><time>2026-04-02T12:28:52.539Z</time></trkpt><trkpt lat="49.9113452" lon="1.8016447"><ele>140.75</ele><time>2026-04-02T12:28:53.538Z</time></trkpt><trkpt lat="49.9112123" lon="1.8015874"><ele>141.0</ele><time>2026-04-02T12:28:54.538Z</time></trkpt><trkpt lat="49.911076" lon="1.8015314"><ele>141.0</ele><time>2026-04-02T12:28:55.538Z</time></trkpt><trkpt lat="49.9109373" lon="1.8014793"><ele>141.0</ele><time>2026-04-02T12:28:56.539Z</time></trkpt><trkpt lat="49.9107913" lon="1.8014214"><ele>141.0</ele><time>2026-04-02T12:28:57.538Z</time></trkpt><trkpt lat="49.9106399" lon="1.8013662"><ele>141.0</ele><time>2026-04-02T12:28:58.538Z</time></trkpt><trkpt lat="49.9104856" lon="1.8013121"><ele>141.0</ele><time>2026-04-02T12:28:59.537Z</time></trkpt><trkpt lat="49.9103464" lon="1.8012626"><ele>141.0</ele><time>2026-04-02T12:29:00.538Z</time></trkpt><trkpt lat="49.9102222" lon="1.801218"><ele>141.0</ele><time>2026-04-02T12:29:01.539Z</time></trkpt><trkpt lat="49.9101039" lon="1.8011726"><ele>141.0</ele><time>2026-04-02T12:29:02.538Z</time></trkpt><trkpt lat="49.9099948" lon="1.8011388"><ele>140.75</ele><time>2026-04-02T12:29:03.538Z</time></trkpt><trkpt lat="49.9098979" lon="1.8010889"><ele>140.5</ele><time>2026-04-02T12:29:04.539Z</time></trkpt><trkpt lat="49.9098009" lon="1.8010008"><ele>140.25</ele><time>2026-04-02T12:29:05.538Z</time></trkpt><trkpt lat="49.9097135" lon="1.8008721"><ele>140.0</ele><time>2026-04-02T12:29:06.538Z</time></trkpt><trkpt lat="49.9096178" lon="1.8007331"><ele>140.25</ele><time>2026-04-02T12:29:07.538Z</time></trkpt><trkpt lat="49.9095173" lon="1.800583"><ele>140.5</ele><time>2026-04-02T12:29:08.538Z</time></trkpt><trkpt lat="49.9094125" lon="1.800424"><ele>140.75</ele><time>2026-04-02T12:29:09.538Z</time></trkpt><trkpt lat="49.9093049" lon="1.8002594"><ele>141.0</ele><time>2026-04-02T12:29:10.539Z</time></trkpt><trkpt lat="49.9091962" lon="1.8000892"><ele>141.0</ele><time>2026-04-02T12:29:11.538Z</time></trkpt><trkpt lat="49.9090796" lon="1.7999094"><ele>141.0</ele><time>2026-04-02T12:29:12.537Z</time></trkpt><trkpt lat="49.9089707" lon="1.7997448"><ele>141.0</ele><time>2026-04-02T12:29:13.539Z</time></trkpt><trkpt lat="49.9088684" lon="1.7996029"><ele>141.0</ele><time>2026-04-02T12:29:14.539Z</time></trkpt><trkpt lat="49.9087687" lon="1.7994607"><ele>141.0</ele><time>2026-04-02T12:29:15.539Z</time></trkpt><trkpt lat="49.9086829" lon="1.7993335"><ele>141.0</ele><time>2026-04-02T12:29:16.538Z</time></trkpt><trkpt lat="49.9086125" lon="1.7992161"><ele>141.0</ele><time>2026-04-02T12:29:17.539Z</time></trkpt><trkpt lat="49.9085552" lon="1.7991227"><ele>141.0</ele><time>2026-04-02T12:29:18.539Z</time></trkpt><trkpt lat="49.9084912" lon="1.7990004"><ele>141.4</ele><time>2026-04-02T12:29:20.538Z</time></trkpt><trkpt lat="49.9084336" lon="1.7988778"><ele>141.8</ele><time>2026-04-02T12:29:22.539Z</time></trkpt><trkpt lat="49.9083719" lon="1.7987974"><ele>142.20000000000002</ele><time>2026-04-02T12:29:23.538Z</time></trkpt><trkpt lat="49.9082865" lon="1.7987171"><ele>142.6</ele><time>2026-04-02T12:29:24.538Z</time></trkpt><trkpt lat="49.9081908" lon="1.7986245"><ele>143.0</ele><time>2026-04-02T12:29:25.539Z</time></trkpt><trkpt lat="49.9080837" lon="1.7985148"><ele>143.25</ele><time>2026-04-02T12:29:26.537Z</time></trkpt><trkpt lat="49.9079717" lon="1.7983984"><ele>143.5</ele><time>2026-04-02T12:29:27.539Z</time></trkpt><trkpt lat="49.907846" lon="1.798283"><ele>143.75</ele><time>2026-04-02T12:29:28.538Z</time></trkpt><trkpt lat="49.9077159" lon="1.7981558"><ele>144.0</ele><time>2026-04-02T12:29:29.539Z</time></trkpt><trkpt lat="49.9075796" lon="1.7980266"><ele>143.33333333333334</ele><time>2026-04-02T12:29:30.538Z</time></trkpt><trkpt lat="49.9074398" lon="1.7978895"><ele>142.66666666666669</ele><time>2026-04-02T12:29:31.538Z</time></trkpt><trkpt lat="49.9072956" lon="1.7977547"><ele>142.0</ele><time>2026-04-02T12:29:32.538Z</time></trkpt><trkpt lat="49.90715" lon="1.7976137"><ele>142.0</ele><time>2026-04-02T12:29:33.539Z</time></trkpt><trkpt lat="49.9069987" lon="1.7974667"><ele>142.0</ele><time>2026-04-02T12:29:34.538Z</time></trkpt><trkpt lat="49.9068434" lon="1.7973234"><ele>142.0</ele><time>2026-04-02T12:29:35.538Z</time></trkpt><trkpt lat="49.9067074" lon="1.7971886"><ele>142.33333333333334</ele><time>2026-04-02T12:29:36.538Z</time></trkpt><trkpt lat="49.9065734" lon="1.7970558"><ele>142.66666666666666</ele><time>2026-04-02T12:29:37.538Z</time></trkpt><trkpt lat="49.9064325" lon="1.796917"><ele>143.0</ele><time>2026-04-02T12:29:38.539Z</time></trkpt><trkpt lat="49.9062948" lon="1.7967619"><ele>143.0</ele><time>2026-04-02T12:29:39.538Z</time></trkpt><trkpt lat="49.906156" lon="1.7965962"><ele>143.0</ele><time>2026-04-02T12:29:40.538Z</time></trkpt><trkpt lat="49.9060203" lon="1.796418"><ele>143.0</ele><time>2026-04-02T12:29:41.537Z</time></trkpt><trkpt lat="49.9058842" lon="1.7962336"><ele>143.0</ele><time>2026-04-02T12:29:42.537Z</time></trkpt><trkpt lat="49.9057491" lon="1.7960431"><ele>143.0</ele><time>2026-04-02T12:29:43.539Z</time></trkpt><trkpt lat="49.9056143" lon="1.7958442"><ele>143.0</ele><time>2026-04-02T12:29:44.538Z</time></trkpt><trkpt lat="49.9054786" lon="1.7956399"><ele>143.0</ele><time>2026-04-02T12:29:45.539Z</time></trkpt><trkpt lat="49.9053409" lon="1.7954402"><ele>143.0</ele><time>2026-04-02T12:29:46.538Z</time></trkpt><trkpt lat="49.9052013" lon="1.7952394"><ele>143.0</ele><time>2026-04-02T12:29:47.538Z</time></trkpt><trkpt lat="49.9050623" lon="1.7950377"><ele>143.33333333333331</ele><time>2026-04-02T12:29:48.539Z</time></trkpt><trkpt lat="49.9049214" lon="1.7948343"><ele>143.66666666666666</ele><time>2026-04-02T12:29:49.537Z</time></trkpt><trkpt lat="49.9047914" lon="1.7946382"><ele>144.0</ele><time>2026-04-02T12:29:50.538Z</time></trkpt><trkpt lat="49.9046577" lon="1.7944402"><ele>143.66666666666666</ele><time>2026-04-02T12:29:51.54Z</time></trkpt><trkpt lat="49.904536" lon="1.7942533"><ele>143.33333333333331</ele><time>2026-04-02T12:29:52.538Z</time></trkpt><trkpt lat="49.9044216" lon="1.7940811"><ele>143.0</ele><time>2026-04-02T12:29:53.539Z</time></trkpt><trkpt lat="49.9043035" lon="1.7939232"><ele>143.25</ele><time>2026-04-02T12:29:54.539Z</time></trkpt><trkpt lat="49.9041977" lon="1.7937774"><ele>143.5</ele><time>2026-04-02T12:29:55.539Z</time></trkpt><trkpt lat="49.9041106" lon="1.7936529"><ele>143.75</ele><time>2026-04-02T12:29:56.538Z</time></trkpt><trkpt lat="49.9040538" lon="1.7935557"><ele>144.0</ele><time>2026-04-02T12:29:57.54Z</time></trkpt><trkpt lat="49.9039596" lon="1.7934506"><ele>144.0</ele><time>2026-04-02T12:29:59.539Z</time></trkpt><trkpt lat="49.9038376" lon="1.7935083"><ele>144.0</ele><time>2026-04-02T12:30:01.539Z</time></trkpt><trkpt lat="49.9037723" lon="1.7936032"><ele>144.0</ele><time>2026-04-02T12:30:02.538Z</time></trkpt><trkpt lat="49.9037004" lon="1.7937256"><ele>144.0</ele><time>2026-04-02T12:30:03.539Z</time></trkpt><trkpt lat="49.9036211" lon="1.7938606"><ele>144.0</ele><time>2026-04-02T12:30:04.539Z</time></trkpt><trkpt lat="49.9035323" lon="1.7940114"><ele>144.0</ele><time>2026-04-02T12:30:05.54Z</time></trkpt><trkpt lat="49.9034367" lon="1.79417"><ele>144.0</ele><time>2026-04-02T12:30:06.54Z</time></trkpt><trkpt lat="49.9033401" lon="1.7943388"><ele>144.0</ele><time>2026-04-02T12:30:07.539Z</time></trkpt><trkpt lat="49.9032345" lon="1.7945118"><ele>144.0</ele><time>2026-04-02T12:30:08.539Z</time></trkpt><trkpt lat="49.9031278" lon="1.7946931"><ele>144.33333333333334</ele><time>2026-04-02T12:30:09.538Z</time></trkpt><trkpt lat="49.9030141" lon="1.794878"><ele>144.66666666666669</ele><time>2026-04-02T12:30:10.539Z</time></trkpt><trkpt lat="49.9029036" lon="1.7950718"><ele>145.0</ele><time>2026-04-02T12:30:11.539Z</time></trkpt><trkpt lat="49.9027883" lon="1.7952671"><ele>144.33333333333334</ele><time>2026-04-02T12:30:12.54Z</time></trkpt><trkpt lat="49.9026709" lon="1.7954663"><ele>143.66666666666666</ele><time>2026-04-02T12:30:13.54Z</time></trkpt><trkpt lat="49.9025566" lon="1.7956594"><ele>143.0</ele><time>2026-04-02T12:30:14.54Z</time></trkpt><trkpt lat="49.9024478" lon="1.7958411"><ele>143.0</ele><time>2026-04-02T12:30:15.539Z</time></trkpt><trkpt lat="49.9023426" lon="1.7960149"><ele>143.0</ele><time>2026-04-02T12:30:16.539Z</time></trkpt><trkpt lat="49.9022304" lon="1.796195"><ele>143.0</ele><time>2026-04-02T12:30:17.539Z</time></trkpt><trkpt lat="49.90212" lon="1.7963837"><ele>143.0</ele><time>2026-04-02T12:30:18.539Z</time></trkpt><trkpt lat="49.9020083" lon="1.7965665"><ele>143.0</ele><time>2026-04-02T12:30:19.539Z</time></trkpt><trkpt lat="49.9018984" lon="1.7967533"><ele>143.0</ele><time>2026-04-02T12:30:20.539Z</time></trkpt><trkpt lat="49.9017815" lon="1.7969438"><ele>143.0</ele><time>2026-04-02T12:30:21.539Z</time></trkpt><trkpt lat="49.901671" lon="1.7971265"><ele>143.0</ele><time>2026-04-02T12:30:22.538Z</time></trkpt><trkpt lat="49.9015726" lon="1.7972934"><ele>143.0</ele><time>2026-04-02T12:30:23.539Z</time></trkpt><trkpt lat="49.9014865" lon="1.7974407"><ele>143.0</ele><time>2026-04-02T12:30:24.539Z</time></trkpt><trkpt lat="49.9014268" lon="1.7975456"><ele>143.0</ele><time>2026-04-02T12:30:25.539Z</time></trkpt><trkpt lat="49.9013734" lon="1.7976339"><ele>143.0</ele><time>2026-04-02T12:30:26.539Z</time></trkpt><trkpt lat="49.9012746" lon="1.7976948"><ele>143.0</ele><time>2026-04-02T12:30:28.538Z</time></trkpt><trkpt lat="49.9012135" lon="1.7976485"><ele>143.0</ele><time>2026-04-02T12:30:29.539Z</time></trkpt><trkpt lat="49.9011422" lon="1.7975664"><ele>143.0</ele><time>2026-04-02T12:30:30.539Z</time></trkpt><trkpt lat="49.9010642" lon="1.797462"><ele>143.0</ele><time>2026-04-02T12:30:31.539Z</time></trkpt><trkpt lat="49.9009742" lon="1.7973424"><ele>143.5</ele><time>2026-04-02T12:30:32.539Z</time></trkpt><trkpt lat="49.9008771" lon="1.7972131"><ele>144.0</ele><time>2026-04-02T12:30:33.54Z</time></trkpt><trkpt lat="49.9007715" lon="1.7970798"><ele>144.5</ele><time>2026-04-02T12:30:34.539Z</time></trkpt><trkpt lat="49.9006681" lon="1.7969503"><ele>145.0</ele><time>2026-04-02T12:30:35.539Z</time></trkpt><trkpt lat="49.9005775" lon="1.7968309"><ele>145.0</ele><time>2026-04-02T12:30:36.539Z</time></trkpt><trkpt lat="49.9004986" lon="1.7967248"><ele>145.0</ele><time>2026-04-02T12:30:37.539Z</time></trkpt><trkpt lat="49.9004206" lon="1.7966211"><ele>145.0</ele><time>2026-04-02T12:30:38.539Z</time></trkpt><trkpt lat="49.9003448" lon="1.7965012"><ele>145.0</ele><time>2026-04-02T12:30:39.538Z</time></trkpt><trkpt lat="49.9002545" lon="1.7963836"><ele>145.0</ele><time>2026-04-02T12:30:40.539Z</time></trkpt><trkpt lat="49.9001589" lon="1.7962563"><ele>145.0</ele><time>2026-04-02T12:30:41.539Z</time></trkpt><trkpt lat="49.900055" lon="1.796124"><ele>145.0</ele><time>2026-04-02T12:30:42.539Z</time></trkpt><trkpt lat="49.8999473" lon="1.7959816"><ele>145.0</ele><time>2026-04-02T12:30:43.538Z</time></trkpt><trkpt lat="49.8998357" lon="1.7958363"><ele>145.0</ele><time>2026-04-02T12:30:44.539Z</time></trkpt><trkpt lat="49.8997262" lon="1.7956853"><ele>145.0</ele><time>2026-04-02T12:30:45.539Z</time></trkpt><trkpt lat="49.8996167" lon="1.7955341"><ele>145.0</ele><time>2026-04-02T12:30:46.539Z</time></trkpt><trkpt lat="49.8995066" lon="1.7953946"><ele>145.0</ele><time>2026-04-02T12:30:47.539Z</time></trkpt><trkpt lat="49.8993992" lon="1.7952601"><ele>145.0</ele><time>2026-04-02T12:30:48.539Z</time></trkpt><trkpt lat="49.8992893" lon="1.7951137"><ele>145.0</ele><time>2026-04-02T12:30:49.54Z</time></trkpt><trkpt lat="49.8991777" lon="1.7949754"><ele>145.0</ele><time>2026-04-02T12:30:50.539Z</time></trkpt><trkpt lat="49.899079" lon="1.7948496"><ele>145.0</ele><time>2026-04-02T12:30:51.539Z</time></trkpt><trkpt lat="49.898992" lon="1.7947281"><ele>145.0</ele><time>2026-04-02T12:30:52.539Z</time></trkpt><trkpt lat="49.8989137" lon="1.7946372"><ele>145.0</ele><time>2026-04-02T12:30:53.54Z</time></trkpt><trkpt lat="49.8988452" lon="1.7945476"><ele>145.0</ele><time>2026-04-02T12:30:54.539Z</time></trkpt><trkpt lat="49.8987878" lon="1.7944585"><ele>145.0</ele><time>2026-04-02T12:30:55.539Z</time></trkpt><trkpt lat="49.8987335" lon="1.7943967"><ele>145.0</ele><time>2026-04-02T12:30:56.54Z</time></trkpt><trkpt lat="49.8986745" lon="1.7942837"><ele>145.0</ele><time>2026-04-02T12:30:58.54Z</time></trkpt><trkpt lat="49.8985968" lon="1.7941883"><ele>145.0</ele><time>2026-04-02T12:31:37.539Z</time></trkpt><trkpt lat="49.898508" lon="1.7940962"><ele>145.4</ele><time>2026-04-02T12:31:39.539Z</time></trkpt><trkpt lat="49.8984597" lon="1.7940264"><ele>145.8</ele><time>2026-04-02T12:31:40.54Z</time></trkpt><trkpt lat="49.8984054" lon="1.7939546"><ele>146.2</ele><time>2026-04-02T12:31:41.539Z</time></trkpt><trkpt lat="49.8983301" lon="1.7938382"><ele>146.6</ele><time>2026-04-02T12:31:43.539Z</time></trkpt><trkpt lat="49.8982346" lon="1.7937323"><ele>147.0</ele><time>2026-04-02T12:31:45.538Z</time></trkpt><trkpt lat="49.8981283" lon="1.7935904"><ele>147.0</ele><time>2026-04-02T12:31:47.539Z</time></trkpt><trkpt lat="49.8980619" lon="1.7935062"><ele>147.0</ele><time>2026-04-02T12:31:48.539Z</time></trkpt><trkpt lat="49.8979955" lon="1.7934124"><ele>147.0</ele><time>2026-04-02T12:31:49.539Z</time></trkpt><trkpt lat="49.8979297" lon="1.7933304"><ele>147.0</ele><time>2026-04-02T12:31:50.539Z</time></trkpt><trkpt lat="49.8978655" lon="1.7932395"><ele>147.0</ele><time>2026-04-02T12:31:51.539Z</time></trkpt><trkpt lat="49.8978021" lon="1.7931475"><ele>147.0</ele><time>2026-04-02T12:31:52.54Z</time></trkpt><trkpt lat="49.8977393" lon="1.7930568"><ele>147.0</ele><time>2026-04-02T12:31:53.54Z</time></trkpt><trkpt lat="49.8976658" lon="1.7929522"><ele>147.0</ele><time>2026-04-02T12:31:54.539Z</time></trkpt><trkpt lat="49.8975911" lon="1.7928546"><ele>147.0</ele><time>2026-04-02T12:31:55.539Z</time></trkpt><trkpt lat="49.8975265" lon="1.7927674"><ele>147.0</ele><time>2026-04-02T12:31:56.539Z</time></trkpt><trkpt lat="49.8974626" lon="1.792706"><ele>147.0</ele><time>2026-04-02T12:31:57.539Z</time></trkpt><trkpt lat="49.8973903" lon="1.7926765"><ele>147.0</ele><time>2026-04-02T12:31:58.539Z</time></trkpt><trkpt lat="49.8973014" lon="1.7927044"><ele>147.5</ele><time>2026-04-02T12:31:59.539Z</time></trkpt><trkpt lat="49.8972032" lon="1.7927397"><ele>148.0</ele><time>2026-04-02T12:32:00.539Z</time></trkpt><trkpt lat="49.8970945" lon="1.7927875"><ele>148.5</ele><time>2026-04-02T12:32:01.539Z</time></trkpt><trkpt lat="49.8969781" lon="1.7928427"><ele>149.0</ele><time>2026-04-02T12:32:02.538Z</time></trkpt><trkpt lat="49.896855" lon="1.7929003"><ele>149.5</ele><time>2026-04-02T12:32:03.539Z</time></trkpt><trkpt lat="49.8967245" lon="1.7929627"><ele>150.0</ele><time>2026-04-02T12:32:04.54Z</time></trkpt><trkpt lat="49.8965896" lon="1.7930287"><ele>150.5</ele><time>2026-04-02T12:32:05.539Z</time></trkpt><trkpt lat="49.8964573" lon="1.7930889"><ele>151.0</ele><time>2026-04-02T12:32:06.539Z</time></trkpt><trkpt lat="49.8963387" lon="1.7931497"><ele>151.0</ele><time>2026-04-02T12:32:07.539Z</time></trkpt><trkpt lat="49.8962254" lon="1.7932005"><ele>151.0</ele><time>2026-04-02T12:32:08.54Z</time></trkpt><trkpt lat="49.8961106" lon="1.7932421"><ele>151.0</ele><time>2026-04-02T12:32:09.539Z</time></trkpt><trkpt lat="49.8959894" lon="1.7932528"><ele>151.0</ele><time>2026-04-02T12:32:10.539Z</time></trkpt><trkpt lat="49.8958598" lon="1.7932468"><ele>151.5</ele><time>2026-04-02T12:32:11.539Z</time></trkpt><trkpt lat="49.8957236" lon="1.7932249"><ele>152.0</ele><time>2026-04-02T12:32:12.538Z</time></trkpt><trkpt lat="49.8955828" lon="1.7932062"><ele>152.5</ele><time>2026-04-02T12:32:13.539Z</time></trkpt><trkpt lat="49.8954356" lon="1.7931728"><ele>153.0</ele><time>2026-04-02T12:32:14.539Z</time></trkpt><trkpt lat="49.8952819" lon="1.7931459"><ele>153.0</ele><time>2026-04-02T12:32:15.539Z</time></trkpt><trkpt lat="49.8951236" lon="1.7931167"><ele>153.0</ele><time>2026-04-02T12:32:16.54Z</time></trkpt><trkpt lat="49.8949629" lon="1.7930758"><ele>153.0</ele><time>2026-04-02T12:32:17.539Z</time></trkpt><trkpt lat="49.8948146" lon="1.7930439"><ele>153.0</ele><time>2026-04-02T12:32:18.539Z</time></trkpt><trkpt lat="49.8946749" lon="1.7930068"><ele>153.0</ele><time>2026-04-02T12:32:19.54Z</time></trkpt><trkpt lat="49.894536" lon="1.7929507"><ele>153.0</ele><time>2026-04-02T12:32:20.539Z</time></trkpt><trkpt lat="49.8944089" lon="1.7928896"><ele>153.0</ele><time>2026-04-02T12:32:21.539Z</time></trkpt><trkpt lat="49.8942934" lon="1.7928365"><ele>152.83333333333334</ele><time>2026-04-02T12:32:22.539Z</time></trkpt><trkpt lat="49.8941889" lon="1.792794"><ele>152.66666666666666</ele><time>2026-04-02T12:32:23.539Z</time></trkpt><trkpt lat="49.8940948" lon="1.7927591"><ele>152.5</ele><time>2026-04-02T12:32:24.54Z</time></trkpt><trkpt lat="49.8940163" lon="1.792733"><ele>152.33333333333331</ele><time>2026-04-02T12:32:25.54Z</time></trkpt><trkpt lat="49.8939532" lon="1.7927157"><ele>152.16666666666666</ele><time>2026-04-02T12:32:26.539Z</time></trkpt><trkpt lat="49.8938618" lon="1.7926987"><ele>152.0</ele><time>2026-04-02T12:32:28.539Z</time></trkpt><trkpt lat="49.8937668" lon="1.7926972"><ele>152.0</ele><time>2026-04-02T12:32:31.539Z</time></trkpt><trkpt lat="49.8936966" lon="1.7927027"><ele>152.0</ele><time>2026-04-02T12:32:32.539Z</time></trkpt><trkpt lat="49.8936037" lon="1.7927125"><ele>152.0</ele><time>2026-04-02T12:32:33.539Z</time></trkpt><trkpt lat="49.8934985" lon="1.7927387"><ele>152.0</ele><time>2026-04-02T12:32:34.539Z</time></trkpt><trkpt lat="49.8933784" lon="1.7927749"><ele>152.0</ele><time>2026-04-02T12:32:35.539Z</time></trkpt><trkpt lat="49.8932552" lon="1.7928287"><ele>152.25</ele><time>2026-04-02T12:32:36.539Z</time></trkpt><trkpt lat="49.8931205" lon="1.7928801"><ele>152.5</ele><time>2026-04-02T12:32:37.54Z</time></trkpt><trkpt lat="49.8929794" lon="1.7929412"><ele>152.75</ele><time>2026-04-02T12:32:38.539Z</time></trkpt><trkpt lat="49.8928445" lon="1.792992"><ele>153.0</ele><time>2026-04-02T12:32:39.54Z</time></trkpt><trkpt lat="49.8927181" lon="1.7930463"><ele>153.0</ele><time>2026-04-02T12:32:40.539Z</time></trkpt><trkpt lat="49.8926016" lon="1.7930904"><ele>153.0</ele><time>2026-04-02T12:32:41.539Z</time></trkpt><trkpt lat="49.8924989" lon="1.7931357"><ele>153.0</ele><time>2026-04-02T12:32:42.539Z</time></trkpt><trkpt lat="49.8924034" lon="1.7931718"><ele>153.0</ele><time>2026-04-02T12:32:43.539Z</time></trkpt><trkpt lat="49.8923158" lon="1.793203"><ele>153.0</ele><time>2026-04-02T12:32:44.539Z</time></trkpt><trkpt lat="49.8922378" lon="1.7932065"><ele>153.16666666666666</ele><time>2026-04-02T12:32:45.539Z</time></trkpt><trkpt lat="49.8921729" lon="1.7932268"><ele>153.33333333333334</ele><time>2026-04-02T12:32:46.539Z</time></trkpt><trkpt lat="49.8920845" lon="1.7932461"><ele>153.5</ele><time>2026-04-02T12:32:48.539Z</time></trkpt><trkpt lat="49.8920117" lon="1.793268"><ele>153.66666666666669</ele><time>2026-04-02T12:32:50.539Z</time></trkpt><trkpt lat="49.8919468" lon="1.7932854"><ele>153.83333333333334</ele><time>2026-04-02T12:32:52.539Z</time></trkpt><trkpt lat="49.8918805" lon="1.7933007"><ele>154.0</ele><time>2026-04-02T12:32:54.539Z</time></trkpt><trkpt lat="49.8917849" lon="1.7933003"><ele>154.0</ele><time>2026-04-02T12:32:56.54Z</time></trkpt><trkpt lat="49.8917202" lon="1.7932758"><ele>154.0</ele><time>2026-04-02T12:32:57.539Z</time></trkpt><trkpt lat="49.8916388" lon="1.7932297"><ele>154.0</ele><time>2026-04-02T12:32:58.539Z</time></trkpt><trkpt lat="49.8915429" lon="1.7931981"><ele>154.0</ele><time>2026-04-02T12:32:59.539Z</time></trkpt><trkpt lat="49.891451" lon="1.793185"><ele>154.0</ele><time>2026-04-02T12:33:00.54Z</time></trkpt><trkpt lat="49.8913799" lon="1.7931773"><ele>154.0</ele><time>2026-04-02T12:33:01.539Z</time></trkpt><trkpt lat="49.8913104" lon="1.7931642"><ele>154.0</ele><time>2026-04-02T12:33:02.538Z</time></trkpt><trkpt lat="49.8912408" lon="1.793157"><ele>154.0</ele><time>2026-04-02T12:33:03.539Z</time></trkpt><trkpt lat="49.8911689" lon="1.7931596"><ele>154.0</ele><time>2026-04-02T12:33:04.539Z</time></trkpt><trkpt lat="49.8910924" lon="1.7931493"><ele>154.0</ele><time>2026-04-02T12:33:05.539Z</time></trkpt><trkpt lat="49.8910131" lon="1.7931354"><ele>154.0</ele><time>2026-04-02T12:33:06.539Z</time></trkpt><trkpt lat="49.8909256" lon="1.7931202"><ele>154.0</ele><time>2026-04-02T12:33:07.539Z</time></trkpt><trkpt lat="49.8908293" lon="1.793088"><ele>154.5</ele><time>2026-04-02T12:33:08.539Z</time></trkpt><trkpt lat="49.8907235" lon="1.7930698"><ele>155.0</ele><time>2026-04-02T12:33:09.539Z</time></trkpt><trkpt lat="49.890608" lon="1.7930519"><ele>155.5</ele><time>2026-04-02T12:33:10.539Z</time></trkpt><trkpt lat="49.8904887" lon="1.7930312"><ele>156.0</ele><time>2026-04-02T12:33:11.539Z</time></trkpt><trkpt lat="49.8903674" lon="1.7930163"><ele>156.0</ele><time>2026-04-02T12:33:12.538Z</time></trkpt><trkpt lat="49.8902577" lon="1.793004"><ele>156.0</ele><time>2026-04-02T12:33:13.539Z</time></trkpt><trkpt lat="49.8901551" lon="1.7930044"><ele>156.0</ele><time>2026-04-02T12:33:14.54Z</time></trkpt><trkpt lat="49.8900392" lon="1.7930143"><ele>156.0</ele><time>2026-04-02T12:33:15.539Z</time></trkpt><trkpt lat="49.8899222" lon="1.7930276"><ele>156.0</ele><time>2026-04-02T12:33:16.539Z</time></trkpt><trkpt lat="49.8897933" lon="1.7930741"><ele>156.25</ele><time>2026-04-02T12:33:17.539Z</time></trkpt><trkpt lat="49.8896618" lon="1.7931188"><ele>156.5</ele><time>2026-04-02T12:33:18.538Z</time></trkpt><trkpt lat="49.8895277" lon="1.7931734"><ele>156.75</ele><time>2026-04-02T12:33:19.539Z</time></trkpt><trkpt lat="49.8894065" lon="1.7932411"><ele>157.0</ele><time>2026-04-02T12:33:20.539Z</time></trkpt><trkpt lat="49.8892981" lon="1.7933183"><ele>157.0</ele><time>2026-04-02T12:33:21.539Z</time></trkpt><trkpt lat="49.8891816" lon="1.793379"><ele>157.0</ele><time>2026-04-02T12:33:22.539Z</time></trkpt><trkpt lat="49.8890729" lon="1.7934557"><ele>157.0</ele><time>2026-04-02T12:33:23.539Z</time></trkpt><trkpt lat="49.8889561" lon="1.7935254"><ele>157.0</ele><time>2026-04-02T12:33:24.539Z</time></trkpt><trkpt lat="49.8888371" lon="1.7935997"><ele>157.0</ele><time>2026-04-02T12:33:25.539Z</time></trkpt><trkpt lat="49.8887183" lon="1.7936737"><ele>157.0</ele><time>2026-04-02T12:33:26.538Z</time></trkpt><trkpt lat="49.8886077" lon="1.7937503"><ele>157.0</ele><time>2026-04-02T12:33:27.539Z</time></trkpt><trkpt lat="49.8884969" lon="1.7938165"><ele>157.0</ele><time>2026-04-02T12:33:28.539Z</time></trkpt><trkpt lat="49.8883775" lon="1.7938905"><ele>157.25</ele><time>2026-04-02T12:33:29.539Z</time></trkpt><trkpt lat="49.8882538" lon="1.7939662"><ele>157.5</ele><time>2026-04-02T12:33:30.54Z</time></trkpt><trkpt lat="49.8881234" lon="1.7940444"><ele>157.75</ele><time>2026-04-02T12:33:31.539Z</time></trkpt><trkpt lat="49.8879858" lon="1.7941199"><ele>158.0</ele><time>2026-04-02T12:33:32.539Z</time></trkpt><trkpt lat="49.887843" lon="1.7941914"><ele>158.0</ele><time>2026-04-02T12:33:33.538Z</time></trkpt><trkpt lat="49.8876933" lon="1.7942613"><ele>158.0</ele><time>2026-04-02T12:33:34.539Z</time></trkpt><trkpt lat="49.887547" lon="1.7943249"><ele>158.0</ele><time>2026-04-02T12:33:35.539Z</time></trkpt><trkpt lat="49.8874133" lon="1.7943813"><ele>158.0</ele><time>2026-04-02T12:33:36.54Z</time></trkpt><trkpt lat="49.887276" lon="1.7944057"><ele>158.25</ele><time>2026-04-02T12:33:37.539Z</time></trkpt><trkpt lat="49.8871308" lon="1.7943905"><ele>158.5</ele><time>2026-04-02T12:33:38.538Z</time></trkpt><trkpt lat="49.8869867" lon="1.7943447"><ele>158.75</ele><time>2026-04-02T12:33:39.539Z</time></trkpt><trkpt lat="49.8868578" lon="1.7942624"><ele>159.0</ele><time>2026-04-02T12:33:40.538Z</time></trkpt><trkpt lat="49.886748" lon="1.7941713"><ele>159.16666666666666</ele><time>2026-04-02T12:33:41.539Z</time></trkpt><trkpt lat="49.8866514" lon="1.7940886"><ele>159.33333333333334</ele><time>2026-04-02T12:33:42.539Z</time></trkpt><trkpt lat="49.8865679" lon="1.794016"><ele>159.5</ele><time>2026-04-02T12:33:43.539Z</time></trkpt><trkpt lat="49.8864941" lon="1.793959"><ele>159.66666666666669</ele><time>2026-04-02T12:33:44.539Z</time></trkpt><trkpt lat="49.8864328" lon="1.7939144"><ele>159.83333333333334</ele><time>2026-04-02T12:33:45.54Z</time></trkpt><trkpt lat="49.8863601" lon="1.7938613"><ele>160.0</ele><time>2026-04-02T12:33:47.54Z</time></trkpt><trkpt lat="49.886294" lon="1.7938207"><ele>160.0</ele><time>2026-04-02T12:33:50.539Z</time></trkpt><trkpt lat="49.8861592" lon="1.7937765"><ele>160.0</ele><time>2026-04-02T12:33:52.539Z</time></trkpt><trkpt lat="49.8860638" lon="1.7937243"><ele>160.0</ele><time>2026-04-02T12:33:53.54Z</time></trkpt><trkpt lat="49.8859617" lon="1.7936372"><ele>160.0</ele><time>2026-04-02T12:33:54.539Z</time></trkpt><trkpt lat="49.8858545" lon="1.7935297"><ele>161.0</ele><time>2026-04-02T12:33:55.54Z</time></trkpt><trkpt lat="49.8857381" lon="1.7934132"><ele>162.0</ele><time>2026-04-02T12:33:56.538Z</time></trkpt><trkpt lat="49.8856085" lon="1.7933105"><ele>163.0</ele><time>2026-04-02T12:33:57.539Z</time></trkpt><trkpt lat="49.8854627" lon="1.7932488"><ele>164.0</ele><time>2026-04-02T12:33:58.539Z</time></trkpt><trkpt lat="49.8853055" lon="1.7932241"><ele>164.0</ele><time>2026-04-02T12:33:59.539Z</time></trkpt><trkpt lat="49.8851423" lon="1.7932109"><ele>164.0</ele><time>2026-04-02T12:34:00.539Z</time></trkpt><trkpt lat="49.8849766" lon="1.7931791"><ele>164.0</ele><time>2026-04-02T12:34:01.54Z</time></trkpt><trkpt lat="49.8848094" lon="1.7931221"><ele>164.33333333333331</ele><time>2026-04-02T12:34:02.539Z</time></trkpt><trkpt lat="49.8846403" lon="1.793056"><ele>164.66666666666666</ele><time>2026-04-02T12:34:03.539Z</time></trkpt><trkpt lat="49.8844668" lon="1.7930102"><ele>165.0</ele><time>2026-04-02T12:34:04.539Z</time></trkpt><trkpt lat="49.8842877" lon="1.7929972"><ele>165.66666666666666</ele><time>2026-04-02T12:34:05.54Z</time></trkpt><trkpt lat="49.8841064" lon="1.7929838"><ele>166.33333333333331</ele><time>2026-04-02T12:34:06.54Z</time></trkpt><trkpt lat="49.8839225" lon="1.792966"><ele>167.0</ele><time>2026-04-02T12:34:07.539Z</time></trkpt><trkpt lat="49.8837382" lon="1.7929418"><ele>167.0</ele><time>2026-04-02T12:34:08.539Z</time></trkpt><trkpt lat="49.8835624" lon="1.7929175"><ele>167.0</ele><time>2026-04-02T12:34:09.54Z</time></trkpt><trkpt lat="49.8834324" lon="1.7928975"><ele>167.0</ele><time>2026-04-02T12:34:10.539Z</time></trkpt><trkpt lat="49.8833646" lon="1.7928778"><ele>167.0</ele><time>2026-04-02T12:34:11.539Z</time></trkpt><trkpt lat="49.8832843" lon="1.7927032"><ele>167.5</ele><time>2026-04-02T12:34:13.54Z</time></trkpt><trkpt lat="49.8832369" lon="1.7925566"><ele>168.0</ele><time>2026-04-02T12:34:14.539Z</time></trkpt><trkpt lat="49.8831813" lon="1.7923964"><ele>168.5</ele><time>2026-04-02T12:34:15.54Z</time></trkpt><trkpt lat="49.8831172" lon="1.7922223"><ele>169.0</ele><time>2026-04-02T12:34:16.539Z</time></trkpt><trkpt lat="49.8830494" lon="1.792037"><ele>169.0</ele><time>2026-04-02T12:34:17.538Z</time></trkpt><trkpt lat="49.8829779" lon="1.7918427"><ele>169.0</ele><time>2026-04-02T12:34:18.539Z</time></trkpt><trkpt lat="49.8829051" lon="1.7916434"><ele>169.0</ele><time>2026-04-02T12:34:19.54Z</time></trkpt><trkpt lat="49.8828361" lon="1.7914499"><ele>169.0</ele><time>2026-04-02T12:34:20.539Z</time></trkpt><trkpt lat="49.882772" lon="1.7912683"><ele>169.25</ele><time>2026-04-02T12:34:21.539Z</time></trkpt><trkpt lat="49.882721" lon="1.7910943"><ele>169.5</ele><time>2026-04-02T12:34:22.54Z</time></trkpt><trkpt lat="49.882679" lon="1.7909085"><ele>169.75</ele><time>2026-04-02T12:34:23.54Z</time></trkpt><trkpt lat="49.882641" lon="1.790734"><ele>170.0</ele><time>2026-04-02T12:34:24.539Z</time></trkpt><trkpt lat="49.8825989" lon="1.7905656"><ele>170.2</ele><time>2026-04-02T12:34:25.539Z</time></trkpt><trkpt lat="49.8825396" lon="1.7903961"><ele>170.4</ele><time>2026-04-02T12:34:26.54Z</time></trkpt><trkpt lat="49.8824763" lon="1.7902524"><ele>170.60000000000002</ele><time>2026-04-02T12:34:27.539Z</time></trkpt><trkpt lat="49.8824156" lon="1.7901264"><ele>170.8</ele><time>2026-04-02T12:34:28.539Z</time></trkpt><trkpt lat="49.8823599" lon="1.7900145"><ele>171.0</ele><time>2026-04-02T12:34:29.54Z</time></trkpt><trkpt lat="49.8823131" lon="1.7899202"><ele>171.16666666666666</ele><time>2026-04-02T12:34:30.539Z</time></trkpt><trkpt lat="49.8822496" lon="1.7897945"><ele>171.33333333333334</ele><time>2026-04-02T12:34:32.539Z</time></trkpt><trkpt lat="49.8821744" lon="1.7896858"><ele>171.5</ele><time>2026-04-02T12:34:35.539Z</time></trkpt><trkpt lat="49.8821207" lon="1.7896166"><ele>171.66666666666669</ele><time>2026-04-02T12:34:36.539Z</time></trkpt><trkpt lat="49.8820605" lon="1.7895307"><ele>171.83333333333334</ele><time>2026-04-02T12:34:37.539Z</time></trkpt><trkpt lat="49.8819973" lon="1.7894373"><ele>172.0</ele><time>2026-04-02T12:34:38.539Z</time></trkpt><trkpt lat="49.8819334" lon="1.7893451"><ele>172.0</ele><time>2026-04-02T12:34:39.539Z</time></trkpt><trkpt lat="49.8818687" lon="1.7892516"><ele>172.0</ele><time>2026-04-02T12:34:40.54Z</time></trkpt><trkpt lat="49.8818014" lon="1.7891525"><ele>172.0</ele><time>2026-04-02T12:34:41.539Z</time></trkpt><trkpt lat="49.8817342" lon="1.7890561"><ele>172.0</ele><time>2026-04-02T12:34:42.539Z</time></trkpt><trkpt lat="49.881665" lon="1.7889511"><ele>172.0</ele><time>2026-04-02T12:34:43.539Z</time></trkpt><trkpt lat="49.8815926" lon="1.7888302"><ele>171.8</ele><time>2026-04-02T12:34:44.539Z</time></trkpt><trkpt lat="49.8815176" lon="1.7886945"><ele>171.6</ele><time>2026-04-02T12:34:45.539Z</time></trkpt><trkpt lat="49.8814505" lon="1.7885586"><ele>171.4</ele><time>2026-04-02T12:34:46.539Z</time></trkpt><trkpt lat="49.8813813" lon="1.7884265"><ele>171.20000000000002</ele><time>2026-04-02T12:34:47.54Z</time></trkpt><trkpt lat="49.8813141" lon="1.7883073"><ele>171.0</ele><time>2026-04-02T12:34:48.54Z</time></trkpt><trkpt lat="49.8812517" lon="1.7881924"><ele>171.0</ele><time>2026-04-02T12:34:49.539Z</time></trkpt><trkpt lat="49.8811961" lon="1.7880984"><ele>171.0</ele><time>2026-04-02T12:34:50.54Z</time></trkpt><trkpt lat="49.8811314" lon="1.7880052"><ele>171.0</ele><time>2026-04-02T12:34:51.539Z</time></trkpt><trkpt lat="49.8810541" lon="1.7879141"><ele>171.0</ele><time>2026-04-02T12:34:52.539Z</time></trkpt><trkpt lat="49.8809625" lon="1.7878276"><ele>171.0</ele><time>2026-04-02T12:34:53.54Z</time></trkpt><trkpt lat="49.8808657" lon="1.787742"><ele>170.8</ele><time>2026-04-02T12:34:54.539Z</time></trkpt><trkpt lat="49.880767" lon="1.7876632"><ele>170.60000000000002</ele><time>2026-04-02T12:34:55.539Z</time></trkpt><trkpt lat="49.8806786" lon="1.7875906"><ele>170.4</ele><time>2026-04-02T12:34:56.54Z</time></trkpt><trkpt lat="49.8805903" lon="1.7875238"><ele>170.2</ele><time>2026-04-02T12:34:57.539Z</time></trkpt><trkpt lat="49.8804935" lon="1.7874583"><ele>170.0</ele><time>2026-04-02T12:34:58.54Z</time></trkpt><trkpt lat="49.880383" lon="1.7874047"><ele>170.0</ele><time>2026-04-02T12:34:59.538Z</time></trkpt><trkpt lat="49.8802622" lon="1.7873613"><ele>170.0</ele><time>2026-04-02T12:35:00.54Z</time></trkpt><trkpt lat="49.8801328" lon="1.7873205"><ele>170.0</ele><time>2026-04-02T12:35:01.54Z</time></trkpt><trkpt lat="49.8800037" lon="1.7872751"><ele>170.0</ele><time>2026-04-02T12:35:02.539Z</time></trkpt><trkpt lat="49.8798705" lon="1.7872354"><ele>169.25</ele><time>2026-04-02T12:35:03.538Z</time></trkpt><trkpt lat="49.8797382" lon="1.787206"><ele>168.5</ele><time>2026-04-02T12:35:04.539Z</time></trkpt><trkpt lat="49.8796112" lon="1.7871818"><ele>167.75</ele><time>2026-04-02T12:35:05.539Z</time></trkpt><trkpt lat="49.8794832" lon="1.7871508"><ele>167.0</ele><time>2026-04-02T12:35:06.539Z</time></trkpt><trkpt lat="49.8793611" lon="1.7871087"><ele>165.8</ele><time>2026-04-02T12:35:07.538Z</time></trkpt><trkpt lat="49.8792448" lon="1.7870736"><ele>164.6</ele><time>2026-04-02T12:35:08.54Z</time></trkpt><trkpt lat="49.8791334" lon="1.7870354"><ele>163.4</ele><time>2026-04-02T12:35:09.538Z</time></trkpt><trkpt lat="49.8790238" lon="1.7869995"><ele>162.20000000000002</ele><time>2026-04-02T12:35:10.539Z</time></trkpt><trkpt lat="49.8789281" lon="1.7869726"><ele>161.0</ele><time>2026-04-02T12:35:11.54Z</time></trkpt><trkpt lat="49.8788665" lon="1.7869524"><ele>161.0</ele><time>2026-04-02T12:35:12.539Z</time></trkpt><trkpt lat="49.8788041" lon="1.7869227"><ele>161.0</ele><time>2026-04-02T12:35:14.539Z</time></trkpt><trkpt lat="49.8787108" lon="1.7868712"><ele>161.0</ele><time>2026-04-02T12:35:16.539Z</time></trkpt><trkpt lat="49.8786415" lon="1.7868171"><ele>161.0</ele><time>2026-04-02T12:35:17.54Z</time></trkpt><trkpt lat="49.8785655" lon="1.786748"><ele>161.0</ele><time>2026-04-02T12:35:18.54Z</time></trkpt><trkpt lat="49.8784856" lon="1.786666"><ele>161.0</ele><time>2026-04-02T12:35:19.539Z</time></trkpt><trkpt lat="49.8784014" lon="1.7865836"><ele>157.83333333333331</ele><time>2026-04-02T12:35:20.539Z</time></trkpt><trkpt lat="49.8783278" lon="1.7865045"><ele>154.66666666666666</ele><time>2026-04-02T12:35:21.539Z</time></trkpt><trkpt lat="49.8782542" lon="1.786424"><ele>151.5</ele><time>2026-04-02T12:35:22.54Z</time></trkpt><trkpt lat="49.8781885" lon="1.7863444"><ele>148.33333333333334</ele><time>2026-04-02T12:35:23.539Z</time></trkpt><trkpt lat="49.8781275" lon="1.7862632"><ele>145.16666666666669</ele><time>2026-04-02T12:35:24.54Z</time></trkpt><trkpt lat="49.8780683" lon="1.7861833"><ele>142.0</ele><time>2026-04-02T12:35:25.539Z</time></trkpt><trkpt lat="49.8780154" lon="1.7860891"><ele>140.16666666666669</ele><time>2026-04-02T12:35:26.539Z</time></trkpt><trkpt lat="49.8779527" lon="1.7859968"><ele>138.33333333333334</ele><time>2026-04-02T12:35:27.539Z</time></trkpt><trkpt lat="49.8778896" lon="1.7859097"><ele>136.5</ele><time>2026-04-02T12:35:28.539Z</time></trkpt><trkpt lat="49.8778368" lon="1.7858187"><ele>134.66666666666666</ele><time>2026-04-02T12:35:29.539Z</time></trkpt><trkpt lat="49.8777803" lon="1.7856908"><ele>132.83333333333331</ele><time>2026-04-02T12:35:31.539Z</time></trkpt><trkpt lat="49.8777375" lon="1.7855845"><ele>131.0</ele><time>2026-04-02T12:35:33.539Z</time></trkpt><trkpt lat="49.8777011" lon="1.7854851"><ele>131.0</ele><time>2026-04-02T12:35:35.539Z</time></trkpt><trkpt lat="49.8776601" lon="1.7853859"><ele>131.0</ele><time>2026-04-02T12:35:38.54Z</time></trkpt><trkpt lat="49.8776151" lon="1.7852725"><ele>131.0</ele><time>2026-04-02T12:35:41.539Z</time></trkpt><trkpt lat="49.8775714" lon="1.7851797"><ele>131.0</ele><time>2026-04-02T12:35:44.539Z</time></trkpt><trkpt lat="49.8775245" lon="1.7850808"><ele>131.0</ele><time>2026-04-02T12:35:48.539Z</time></trkpt><trkpt lat="49.8774787" lon="1.7849581"><ele>131.0</ele><time>2026-04-02T12:35:50.54Z</time></trkpt><trkpt lat="49.8773965" lon="1.7847996"><ele>130.33333333333331</ele><time>2026-04-02T12:35:52.54Z</time></trkpt><trkpt lat="49.8773455" lon="1.7847081"><ele>129.66666666666666</ele><time>2026-04-02T12:35:53.539Z</time></trkpt><trkpt lat="49.8772965" lon="1.7846106"><ele>129.0</ele><time>2026-04-02T12:35:54.539Z</time></trkpt><trkpt lat="49.8772486" lon="1.784508"><ele>128.33333333333334</ele><time>2026-04-02T12:35:55.539Z</time></trkpt><trkpt lat="49.8771972" lon="1.7843994"><ele>127.66666666666667</ele><time>2026-04-02T12:35:56.539Z</time></trkpt><trkpt lat="49.8771481" lon="1.7842686"><ele>127.0</ele><time>2026-04-02T12:35:57.539Z</time></trkpt><trkpt lat="49.8770948" lon="1.7841459"><ele>125.66666666666667</ele><time>2026-04-02T12:35:58.539Z</time></trkpt><trkpt lat="49.8770496" lon="1.7840097"><ele>124.33333333333334</ele><time>2026-04-02T12:35:59.539Z</time></trkpt><trkpt lat="49.8770101" lon="1.7838805"><ele>123.0</ele><time>2026-04-02T12:36:00.539Z</time></trkpt><trkpt lat="49.8769727" lon="1.7837612"><ele>121.66666666666666</ele><time>2026-04-02T12:36:01.54Z</time></trkpt><trkpt lat="49.876943" lon="1.783661"><ele>120.33333333333333</ele><time>2026-04-02T12:36:02.539Z</time></trkpt><trkpt lat="49.8769111" lon="1.7835539"><ele>119.0</ele><time>2026-04-02T12:36:03.54Z</time></trkpt><trkpt lat="49.8768725" lon="1.7834652"><ele>118.16666666666666</ele><time>2026-04-02T12:36:04.539Z</time></trkpt><trkpt lat="49.8768341" lon="1.7833307"><ele>117.33333333333333</ele><time>2026-04-02T12:36:05.539Z</time></trkpt><trkpt lat="49.8768038" lon="1.783221"><ele>116.5</ele><time>2026-04-02T12:36:06.539Z</time></trkpt><trkpt lat="49.8767621" lon="1.7831092"><ele>115.66666666666666</ele><time>2026-04-02T12:36:07.539Z</time></trkpt><trkpt lat="49.8767267" lon="1.7830133"><ele>114.83333333333333</ele><time>2026-04-02T12:36:08.539Z</time></trkpt><trkpt lat="49.8766892" lon="1.7829137"><ele>114.0</ele><time>2026-04-02T12:36:09.539Z</time></trkpt><trkpt lat="49.8766487" lon="1.7828124"><ele>116.5</ele><time>2026-04-02T12:36:10.539Z</time></trkpt><trkpt lat="49.8765747" lon="1.7826542"><ele>119.0</ele><time>2026-04-02T12:36:12.539Z</time></trkpt><trkpt lat="49.8765261" lon="1.7825837"><ele>121.5</ele><time>2026-04-02T12:36:13.539Z</time></trkpt><trkpt lat="49.8764753" lon="1.7825069"><ele>124.0</ele><time>2026-04-02T12:36:14.539Z</time></trkpt><trkpt lat="49.8764092" lon="1.7824381"><ele>126.5</ele><time>2026-04-02T12:36:15.539Z</time></trkpt><trkpt lat="49.8763505" lon="1.7823799"><ele>129.0</ele><time>2026-04-02T12:36:16.539Z</time></trkpt><trkpt lat="49.8762735" lon="1.7823202"><ele>129.0</ele><time>2026-04-02T12:36:17.539Z</time></trkpt><trkpt lat="49.8762007" lon="1.7822668"><ele>129.0</ele><time>2026-04-02T12:36:18.54Z</time></trkpt><trkpt lat="49.8761203" lon="1.7822269"><ele>129.0</ele><time>2026-04-02T12:36:19.54Z</time></trkpt><trkpt lat="49.8760468" lon="1.7822049"><ele>129.0</ele><time>2026-04-02T12:36:20.539Z</time></trkpt><trkpt lat="49.8759694" lon="1.7821865"><ele>129.0</ele><time>2026-04-02T12:36:21.54Z</time></trkpt><trkpt lat="49.8758975" lon="1.7821786"><ele>129.0</ele><time>2026-04-02T12:36:22.54Z</time></trkpt><trkpt lat="49.8758242" lon="1.782176"><ele>129.0</ele><time>2026-04-02T12:36:23.54Z</time></trkpt><trkpt lat="49.8757406" lon="1.7821857"><ele>129.0</ele><time>2026-04-02T12:36:24.54Z</time></trkpt><trkpt lat="49.8756682" lon="1.7822007"><ele>129.0</ele><time>2026-04-02T12:36:25.54Z</time></trkpt><trkpt lat="49.8755937" lon="1.7822192"><ele>129.0</ele><time>2026-04-02T12:36:26.54Z</time></trkpt><trkpt lat="49.8755157" lon="1.7822343"><ele>129.0</ele><time>2026-04-02T12:36:27.541Z</time></trkpt><trkpt lat="49.8754026" lon="1.7822541"><ele>129.0</ele><time>2026-04-02T12:36:28.541Z</time></trkpt><trkpt lat="49.8752867" lon="1.7822456"><ele>129.0</ele><time>2026-04-02T12:36:29.539Z</time></trkpt><trkpt lat="49.8751847" lon="1.7822447"><ele>129.0</ele><time>2026-04-02T12:36:30.54Z</time></trkpt><trkpt lat="49.8750644" lon="1.7822385"><ele>129.0</ele><time>2026-04-02T12:36:31.54Z</time></trkpt><trkpt lat="49.8749676" lon="1.7822133"><ele>129.0</ele><time>2026-04-02T12:36:32.54Z</time></trkpt><trkpt lat="49.8748825" lon="1.7822185"><ele>129.0</ele><time>2026-04-02T12:36:33.54Z</time></trkpt><trkpt lat="49.8747698" lon="1.7822091"><ele>128.42857142857142</ele><time>2026-04-02T12:36:35.539Z</time></trkpt><trkpt lat="49.8747053" lon="1.7822"><ele>127.85714285714286</ele><time>2026-04-02T12:36:36.54Z</time></trkpt><trkpt lat="49.8746404" lon="1.7821988"><ele>127.28571428571428</ele><time>2026-04-02T12:36:37.54Z</time></trkpt><trkpt lat="49.874569" lon="1.7822039"><ele>126.71428571428571</ele><time>2026-04-02T12:36:38.541Z</time></trkpt><trkpt lat="49.8744986" lon="1.7822209"><ele>126.14285714285714</ele><time>2026-04-02T12:36:39.54Z</time></trkpt><trkpt lat="49.8744266" lon="1.7822431"><ele>125.57142857142857</ele><time>2026-04-02T12:36:40.54Z</time></trkpt><trkpt lat="49.8743509" lon="1.782263"><ele>125.0</ele><time>2026-04-02T12:36:41.54Z</time></trkpt><trkpt lat="49.8742552" lon="1.7822996"><ele>123.4</ele><time>2026-04-02T12:36:42.539Z</time></trkpt><trkpt lat="49.8741767" lon="1.7823364"><ele>121.8</ele><time>2026-04-02T12:36:43.54Z</time></trkpt><trkpt lat="49.8740761" lon="1.7823696"><ele>120.19999999999999</ele><time>2026-04-02T12:36:44.54Z</time></trkpt><trkpt lat="49.8739894" lon="1.7824065"><ele>118.6</ele><time>2026-04-02T12:36:45.541Z</time></trkpt><trkpt lat="49.8738739" lon="1.7824383"><ele>117.0</ele><time>2026-04-02T12:36:46.54Z</time></trkpt><trkpt lat="49.8737833" lon="1.7824324"><ele>117.0</ele><time>2026-04-02T12:36:47.541Z</time></trkpt><trkpt lat="49.8736815" lon="1.7824533"><ele>116.99999999999999</ele><time>2026-04-02T12:36:48.541Z</time></trkpt><trkpt lat="49.873589" lon="1.7824857"><ele>116.99999999999999</ele><time>2026-04-02T12:36:49.541Z</time></trkpt><trkpt lat="49.8734994" lon="1.7825191"><ele>117.0</ele><time>2026-04-02T12:36:50.54Z</time></trkpt><trkpt lat="49.8734194" lon="1.7825621"><ele>117.0</ele><time>2026-04-02T12:36:51.541Z</time></trkpt><trkpt lat="49.8733341" lon="1.7826175"><ele>116.0</ele><time>2026-04-02T12:36:52.541Z</time></trkpt><trkpt lat="49.8732178" lon="1.7827426"><ele>114.99999999999999</ele><time>2026-04-02T12:36:54.54Z</time></trkpt><trkpt lat="49.8731624" lon="1.7828311"><ele>113.99999999999999</ele><time>2026-04-02T12:36:55.541Z</time></trkpt><trkpt lat="49.8730901" lon="1.7829277"><ele>113.0</ele><time>2026-04-02T12:36:56.541Z</time></trkpt><trkpt lat="49.8730525" lon="1.7830424"><ele>112.0</ele><time>2026-04-02T12:36:57.54Z</time></trkpt><trkpt lat="49.872992" lon="1.783249"><ele>112.0</ele><time>2026-04-02T12:36:59.54Z</time></trkpt><trkpt lat="49.8729485" lon="1.7834027"><ele>111.99999999999999</ele><time>2026-04-02T12:37:01.54Z</time></trkpt><trkpt lat="49.8729002" lon="1.7834697"><ele>111.99999999999999</ele><time>2026-04-02T12:37:05.54Z</time></trkpt><trkpt lat="49.8728607" lon="1.7835724"><ele>112.0</ele><time>2026-04-02T12:38:34.54Z</time></trkpt><trkpt lat="49.8728392" lon="1.7837369"><ele>112.0</ele><time>2026-04-02T12:38:43.54Z</time></trkpt><trkpt lat="49.8728017" lon="1.7839153"><ele>113.19999999999999</ele><time>2026-04-02T12:38:45.541Z</time></trkpt><trkpt lat="49.8727759" lon="1.7840318"><ele>114.39999999999999</ele><time>2026-04-02T12:38:46.54Z</time></trkpt><trkpt lat="49.872756" lon="1.784155"><ele>115.60000000000001</ele><time>2026-04-02T12:38:47.539Z</time></trkpt><trkpt lat="49.8727435" lon="1.7842971"><ele>116.80000000000001</ele><time>2026-04-02T12:38:48.54Z</time></trkpt><trkpt lat="49.8727317" lon="1.7844528"><ele>118.0</ele><time>2026-04-02T12:38:49.541Z</time></trkpt><trkpt lat="49.8727155" lon="1.7846062"><ele>119.80000000000001</ele><time>2026-04-02T12:38:50.54Z</time></trkpt><trkpt lat="49.8726924" lon="1.7847759"><ele>121.60000000000001</ele><time>2026-04-02T12:38:51.54Z</time></trkpt><trkpt lat="49.8726694" lon="1.784938"><ele>123.39999999999999</ele><time>2026-04-02T12:38:52.54Z</time></trkpt><trkpt lat="49.8726497" lon="1.7850942"><ele>125.19999999999999</ele><time>2026-04-02T12:38:53.541Z</time></trkpt><trkpt lat="49.872636" lon="1.785241"><ele>127.0</ele><time>2026-04-02T12:38:54.54Z</time></trkpt><trkpt lat="49.8726164" lon="1.7853917"><ele>124.33333333333334</ele><time>2026-04-02T12:38:55.541Z</time></trkpt><trkpt lat="49.8725996" lon="1.7855328"><ele>121.66666666666667</ele><time>2026-04-02T12:38:56.541Z</time></trkpt><trkpt lat="49.8725798" lon="1.7856695"><ele>119.0</ele><time>2026-04-02T12:38:57.539Z</time></trkpt><trkpt lat="49.8725528" lon="1.785796"><ele>116.33333333333334</ele><time>2026-04-02T12:38:58.541Z</time></trkpt><trkpt lat="49.8725177" lon="1.7859115"><ele>113.66666666666667</ele><time>2026-04-02T12:38:59.54Z</time></trkpt><trkpt lat="49.8724824" lon="1.7860316"><ele>111.0</ele><time>2026-04-02T12:39:00.54Z</time></trkpt><trkpt lat="49.8724446" lon="1.786154"><ele>111.0</ele><time>2026-04-02T12:39:01.541Z</time></trkpt><trkpt lat="49.8724164" lon="1.7862667"><ele>111.0</ele><time>2026-04-02T12:39:02.54Z</time></trkpt><trkpt lat="49.8723889" lon="1.7863978"><ele>111.0</ele><time>2026-04-02T12:39:03.541Z</time></trkpt><trkpt lat="49.8723605" lon="1.7865468"><ele>111.0</ele><time>2026-04-02T12:39:04.541Z</time></trkpt><trkpt lat="49.8723245" lon="1.7867041"><ele>111.0</ele><time>2026-04-02T12:39:05.541Z</time></trkpt><trkpt lat="49.8722923" lon="1.786852"><ele>113.0</ele><time>2026-04-02T12:39:06.54Z</time></trkpt><trkpt lat="49.8722591" lon="1.7870071"><ele>115.0</ele><time>2026-04-02T12:39:07.541Z</time></trkpt><trkpt lat="49.8722142" lon="1.7871521"><ele>117.0</ele><time>2026-04-02T12:39:08.54Z</time></trkpt><trkpt lat="49.8721771" lon="1.787295"><ele>119.0</ele><time>2026-04-02T12:39:09.54Z</time></trkpt><trkpt lat="49.8721378" lon="1.7874304"><ele>121.0</ele><time>2026-04-02T12:39:10.539Z</time></trkpt><trkpt lat="49.8720945" lon="1.7875678"><ele>123.0</ele><time>2026-04-02T12:39:11.54Z</time></trkpt><trkpt lat="49.8720487" lon="1.7876989"><ele>125.0</ele><time>2026-04-02T12:39:12.54Z</time></trkpt><trkpt lat="49.8719968" lon="1.7878344"><ele>127.0</ele><time>2026-04-02T12:39:13.541Z</time></trkpt><trkpt lat="49.8719402" lon="1.7879563"><ele>129.0</ele><time>2026-04-02T12:39:14.539Z</time></trkpt><trkpt lat="49.8718957" lon="1.7880684"><ele>131.0</ele><time>2026-04-02T12:39:15.54Z</time></trkpt><trkpt lat="49.8718447" lon="1.7881998"><ele>131.0</ele><time>2026-04-02T12:39:16.54Z</time></trkpt><trkpt lat="49.8717861" lon="1.7883506"><ele>131.0</ele><time>2026-04-02T12:39:17.54Z</time></trkpt><trkpt lat="49.8717175" lon="1.788507"><ele>131.0</ele><time>2026-04-02T12:39:18.541Z</time></trkpt><trkpt lat="49.8716562" lon="1.7886537"><ele>131.0</ele><time>2026-04-02T12:39:19.539Z</time></trkpt><trkpt lat="49.8715999" lon="1.7887989"><ele>130.2</ele><time>2026-04-02T12:39:20.54Z</time></trkpt><trkpt lat="49.8715538" lon="1.7889266"><ele>129.39999999999998</ele><time>2026-04-02T12:39:21.54Z</time></trkpt><trkpt lat="49.8715132" lon="1.7890389"><ele>128.6</ele><time>2026-04-02T12:39:22.54Z</time></trkpt><trkpt lat="49.8714624" lon="1.7891548"><ele>127.8</ele><time>2026-04-02T12:39:23.541Z</time></trkpt><trkpt lat="49.8714116" lon="1.789279"><ele>127.0</ele><time>2026-04-02T12:39:24.54Z</time></trkpt><trkpt lat="49.8713504" lon="1.7894133"><ele>127.0</ele><time>2026-04-02T12:39:25.539Z</time></trkpt><trkpt lat="49.8712911" lon="1.7895572"><ele>126.99999999999999</ele><time>2026-04-02T12:39:26.54Z</time></trkpt><trkpt lat="49.871231" lon="1.7897025"><ele>126.99999999999999</ele><time>2026-04-02T12:39:27.54Z</time></trkpt><trkpt lat="49.8711709" lon="1.7898459"><ele>127.0</ele><time>2026-04-02T12:39:28.54Z</time></trkpt><trkpt lat="49.8711071" lon="1.7899818"><ele>127.0</ele><time>2026-04-02T12:39:29.539Z</time></trkpt><trkpt lat="49.8710053" lon="1.7901088"><ele>124.0</ele><time>2026-04-02T12:39:30.54Z</time></trkpt><trkpt lat="49.870916" lon="1.7902389"><ele>121.0</ele><time>2026-04-02T12:39:31.54Z</time></trkpt><trkpt lat="49.8708199" lon="1.7903613"><ele>118.0</ele><time>2026-04-02T12:39:32.541Z</time></trkpt><trkpt lat="49.8707232" lon="1.7904871"><ele>115.0</ele><time>2026-04-02T12:39:33.54Z</time></trkpt><trkpt lat="49.8706282" lon="1.7906074"><ele>115.0</ele><time>2026-04-02T12:39:34.541Z</time></trkpt><trkpt lat="49.8705361" lon="1.7907274"><ele>115.0</ele><time>2026-04-02T12:39:35.539Z</time></trkpt><trkpt lat="49.8704437" lon="1.7908402"><ele>115.0</ele><time>2026-04-02T12:39:36.54Z</time></trkpt><trkpt lat="49.870362" lon="1.7909704"><ele>115.0</ele><time>2026-04-02T12:39:37.541Z</time></trkpt><trkpt lat="49.8702871" lon="1.7910989"><ele>112.5</ele><time>2026-04-02T12:39:38.541Z</time></trkpt><trkpt lat="49.8702049" lon="1.7912187"><ele>110.0</ele><time>2026-04-02T12:39:39.541Z</time></trkpt><trkpt lat="49.8701389" lon="1.791368"><ele>107.5</ele><time>2026-04-02T12:39:40.54Z</time></trkpt><trkpt lat="49.8700694" lon="1.7915131"><ele>105.0</ele><time>2026-04-02T12:39:41.54Z</time></trkpt><trkpt lat="49.8700046" lon="1.7916638"><ele>105.0</ele><time>2026-04-02T12:39:42.54Z</time></trkpt><trkpt lat="49.8699471" lon="1.7918256"><ele>105.0</ele><time>2026-04-02T12:39:43.539Z</time></trkpt><trkpt lat="49.8698869" lon="1.7919918"><ele>105.0</ele><time>2026-04-02T12:39:44.539Z</time></trkpt><trkpt lat="49.8698237" lon="1.7921628"><ele>105.0</ele><time>2026-04-02T12:39:45.541Z</time></trkpt><trkpt lat="49.8697593" lon="1.7923279"><ele>106.8</ele><time>2026-04-02T12:39:46.539Z</time></trkpt><trkpt lat="49.8697026" lon="1.7924983"><ele>108.6</ele><time>2026-04-02T12:39:47.54Z</time></trkpt><trkpt lat="49.869651" lon="1.7926441"><ele>110.4</ele><time>2026-04-02T12:39:48.54Z</time></trkpt><trkpt lat="49.8696086" lon="1.7927834"><ele>112.2</ele><time>2026-04-02T12:39:49.54Z</time></trkpt><trkpt lat="49.8695824" lon="1.7928845"><ele>114.0</ele><time>2026-04-02T12:39:50.539Z</time></trkpt><trkpt lat="49.8695346" lon="1.7930279"><ele>114.0</ele><time>2026-04-02T12:39:52.54Z</time></trkpt><trkpt lat="49.869618" lon="1.7928174"><ele>114.0</ele><time>2026-04-02T12:40:08.54Z</time></trkpt><trkpt lat="49.8696701" lon="1.7926514"><ele>114.0</ele><time>2026-04-02T12:40:09.54Z</time></trkpt><trkpt lat="49.869724" lon="1.7924824"><ele>114.0</ele><time>2026-04-02T12:40:10.541Z</time></trkpt><trkpt lat="49.8697769" lon="1.7923092"><ele>114.0</ele><time>2026-04-02T12:40:11.541Z</time></trkpt><trkpt lat="49.8698413" lon="1.7921266"><ele>114.0</ele><time>2026-04-02T12:40:12.54Z</time></trkpt><trkpt lat="49.8699033" lon="1.7919623"><ele>114.0</ele><time>2026-04-02T12:40:13.541Z</time></trkpt><trkpt lat="49.8699576" lon="1.7918068"><ele>114.0</ele><time>2026-04-02T12:40:14.539Z</time></trkpt><trkpt lat="49.8700078" lon="1.7916495"><ele>114.2</ele><time>2026-04-02T12:40:15.54Z</time></trkpt><trkpt lat="49.870063" lon="1.7915006"><ele>114.4</ele><time>2026-04-02T12:40:16.54Z</time></trkpt><trkpt lat="49.8701287" lon="1.7913575"><ele>114.6</ele><time>2026-04-02T12:40:17.541Z</time></trkpt><trkpt lat="49.8702003" lon="1.7912193"><ele>114.8</ele><time>2026-04-02T12:40:18.54Z</time></trkpt><trkpt lat="49.8702776" lon="1.7910958"><ele>115.0</ele><time>2026-04-02T12:40:19.541Z</time></trkpt><trkpt lat="49.8703562" lon="1.7909768"><ele>115.0</ele><time>2026-04-02T12:40:20.54Z</time></trkpt><trkpt lat="49.8704404" lon="1.7908586"><ele>115.0</ele><time>2026-04-02T12:40:21.541Z</time></trkpt><trkpt lat="49.8705329" lon="1.7907262"><ele>115.0</ele><time>2026-04-02T12:40:22.541Z</time></trkpt><trkpt lat="49.8706356" lon="1.7906091"><ele>115.0</ele><time>2026-04-02T12:40:23.54Z</time></trkpt><trkpt lat="49.8707381" lon="1.7904838"><ele>115.0</ele><time>2026-04-02T12:40:24.54Z</time></trkpt><trkpt lat="49.8708365" lon="1.7903544"><ele>115.0</ele><time>2026-04-02T12:40:25.539Z</time></trkpt><trkpt lat="49.8709311" lon="1.7902324"><ele>115.0</ele><time>2026-04-02T12:40:26.54Z</time></trkpt><trkpt lat="49.8710254" lon="1.7901081"><ele>115.0</ele><time>2026-04-02T12:40:27.541Z</time></trkpt><trkpt lat="49.8711144" lon="1.7899601"><ele>114.25</ele><time>2026-04-02T12:40:28.539Z</time></trkpt><trkpt lat="49.8711997" lon="1.789799"><ele>113.5</ele><time>2026-04-02T12:40:29.54Z</time></trkpt><trkpt lat="49.8712753" lon="1.7896268"><ele>112.75</ele><time>2026-04-02T12:40:30.539Z</time></trkpt><trkpt lat="49.8713467" lon="1.7894482"><ele>112.0</ele><time>2026-04-02T12:40:31.539Z</time></trkpt><trkpt lat="49.8714186" lon="1.7892777"><ele>112.0</ele><time>2026-04-02T12:40:32.54Z</time></trkpt><trkpt lat="49.8714869" lon="1.7891184"><ele>111.99999999999999</ele><time>2026-04-02T12:40:33.54Z</time></trkpt><trkpt lat="49.8715472" lon="1.7889687"><ele>111.99999999999999</ele><time>2026-04-02T12:40:34.54Z</time></trkpt><trkpt lat="49.8715979" lon="1.7888295"><ele>112.0</ele><time>2026-04-02T12:40:35.54Z</time></trkpt><trkpt lat="49.8716541" lon="1.7886953"><ele>112.0</ele><time>2026-04-02T12:40:36.54Z</time></trkpt><trkpt lat="49.8717152" lon="1.7885509"><ele>115.8</ele><time>2026-04-02T12:40:37.54Z</time></trkpt><trkpt lat="49.871782" lon="1.7883963"><ele>119.6</ele><time>2026-04-02T12:40:38.541Z</time></trkpt><trkpt lat="49.8718392" lon="1.788258"><ele>123.39999999999999</ele><time>2026-04-02T12:40:39.541Z</time></trkpt><trkpt lat="49.8718843" lon="1.7881382"><ele>127.19999999999999</ele><time>2026-04-02T12:40:40.541Z</time></trkpt><trkpt lat="49.8719307" lon="1.7880214"><ele>131.0</ele><time>2026-04-02T12:40:41.54Z</time></trkpt><trkpt lat="49.8719875" lon="1.7878955"><ele>131.0</ele><time>2026-04-02T12:40:42.54Z</time></trkpt><trkpt lat="49.8720391" lon="1.7877601"><ele>131.0</ele><time>2026-04-02T12:40:43.54Z</time></trkpt><trkpt lat="49.872086" lon="1.78763"><ele>131.0</ele><time>2026-04-02T12:40:44.54Z</time></trkpt><trkpt lat="49.8721222" lon="1.7875193"><ele>131.0</ele><time>2026-04-02T12:40:45.54Z</time></trkpt><trkpt lat="49.8721573" lon="1.7873948"><ele>131.0</ele><time>2026-04-02T12:40:47.54Z</time></trkpt><trkpt lat="49.8721878" lon="1.7873025"><ele>131.0</ele><time>2026-04-02T12:40:55.541Z</time></trkpt><trkpt lat="49.8722169" lon="1.7871955"><ele>129.0</ele><time>2026-04-02T12:40:56.539Z</time></trkpt><trkpt lat="49.8722517" lon="1.787061"><ele>127.0</ele><time>2026-04-02T12:40:57.539Z</time></trkpt><trkpt lat="49.8722862" lon="1.7869116"><ele>125.0</ele><time>2026-04-02T12:40:58.54Z</time></trkpt><trkpt lat="49.8723233" lon="1.7867584"><ele>123.0</ele><time>2026-04-02T12:40:59.54Z</time></trkpt><trkpt lat="49.8723562" lon="1.7866099"><ele>121.0</ele><time>2026-04-02T12:41:00.541Z</time></trkpt><trkpt lat="49.8723853" lon="1.7864602"><ele>119.33333333333334</ele><time>2026-04-02T12:41:01.54Z</time></trkpt><trkpt lat="49.8724099" lon="1.7863258"><ele>117.66666666666667</ele><time>2026-04-02T12:41:02.54Z</time></trkpt><trkpt lat="49.8724382" lon="1.7862052"><ele>116.0</ele><time>2026-04-02T12:41:03.54Z</time></trkpt><trkpt lat="49.8724724" lon="1.7860921"><ele>114.33333333333334</ele><time>2026-04-02T12:41:04.54Z</time></trkpt><trkpt lat="49.8725053" lon="1.785986"><ele>112.66666666666667</ele><time>2026-04-02T12:41:05.54Z</time></trkpt><trkpt lat="49.8725529" lon="1.7858247"><ele>111.0</ele><time>2026-04-02T12:41:07.541Z</time></trkpt><trkpt lat="49.8725903" lon="1.7856619"><ele>114.19999999999999</ele><time>2026-04-02T12:41:09.54Z</time></trkpt><trkpt lat="49.8726149" lon="1.7855296"><ele>117.39999999999999</ele><time>2026-04-02T12:41:11.54Z</time></trkpt><trkpt lat="49.8726391" lon="1.7853249"><ele>120.6</ele><time>2026-04-02T12:41:13.54Z</time></trkpt><trkpt lat="49.8726529" lon="1.7851852"><ele>123.8</ele><time>2026-04-02T12:41:14.54Z</time></trkpt><trkpt lat="49.8726703" lon="1.7850246"><ele>127.0</ele><time>2026-04-02T12:41:15.539Z</time></trkpt><trkpt lat="49.8726916" lon="1.7848468"><ele>127.0</ele><time>2026-04-02T12:41:16.541Z</time></trkpt><trkpt lat="49.8727164" lon="1.7846624"><ele>127.0</ele><time>2026-04-02T12:41:17.541Z</time></trkpt><trkpt lat="49.8727348" lon="1.7844795"><ele>127.0</ele><time>2026-04-02T12:41:18.54Z</time></trkpt><trkpt lat="49.8727444" lon="1.7843109"><ele>127.0</ele><time>2026-04-02T12:41:19.54Z</time></trkpt><trkpt lat="49.8727607" lon="1.7841511"><ele>125.50000000000001</ele><time>2026-04-02T12:41:20.54Z</time></trkpt><trkpt lat="49.8727882" lon="1.7840048"><ele>124.0</ele><time>2026-04-02T12:41:21.541Z</time></trkpt><trkpt lat="49.8728192" lon="1.7838857"><ele>122.5</ele><time>2026-04-02T12:41:22.54Z</time></trkpt><trkpt lat="49.8728414" lon="1.7837888"><ele>121.0</ele><time>2026-04-02T12:41:23.54Z</time></trkpt><trkpt lat="49.8728581" lon="1.783676"><ele>119.50000000000001</ele><time>2026-04-02T12:41:25.541Z</time></trkpt><trkpt lat="49.8728859" lon="1.783504"><ele>118.0</ele><time>2026-04-02T12:41:31.54Z</time></trkpt><trkpt lat="49.8728915" lon="1.7834045"><ele>117.00000000000001</ele><time>2026-04-02T12:41:32.54Z</time></trkpt><trkpt lat="49.872903" lon="1.7832842"><ele>116.0</ele><time>2026-04-02T12:41:33.541Z</time></trkpt><trkpt lat="49.8729138" lon="1.7831765"><ele>115.0</ele><time>2026-04-02T12:41:34.541Z</time></trkpt><trkpt lat="49.8729347" lon="1.783061"><ele>114.0</ele><time>2026-04-02T12:41:35.54Z</time></trkpt><trkpt lat="49.8729557" lon="1.7829514"><ele>113.00000000000001</ele><time>2026-04-02T12:41:36.541Z</time></trkpt><trkpt lat="49.8729883" lon="1.7828266"><ele>112.0</ele><time>2026-04-02T12:41:37.54Z</time></trkpt><trkpt lat="49.8730164" lon="1.7827066"><ele>110.00000000000001</ele><time>2026-04-02T12:41:38.539Z</time></trkpt><trkpt lat="49.8730424" lon="1.7826053"><ele>108.0</ele><time>2026-04-02T12:41:39.54Z</time></trkpt><trkpt lat="49.8730662" lon="1.7825115"><ele>106.0</ele><time>2026-04-02T12:41:40.539Z</time></trkpt><trkpt lat="49.8731104" lon="1.7823663"><ele>104.0</ele><time>2026-04-02T12:41:42.54Z</time></trkpt><trkpt lat="49.8731294" lon="1.7822717"><ele>102.00000000000001</ele><time>2026-04-02T12:41:44.54Z</time></trkpt><trkpt lat="49.8731032" lon="1.7821631"><ele>100.0</ele><time>2026-04-02T12:41:47.54Z</time></trkpt><trkpt lat="49.8730242" lon="1.7821017"><ele>100.0</ele><time>2026-04-02T12:41:49.54Z</time></trkpt><trkpt lat="49.8729518" lon="1.782022"><ele>100.0</ele><time>2026-04-02T12:41:51.539Z</time></trkpt><trkpt lat="49.8729079" lon="1.7819288"><ele>100.0</ele><time>2026-04-02T12:41:53.539Z</time></trkpt><trkpt lat="49.872882" lon="1.7818076"><ele>100.0</ele><time>2026-04-02T12:41:57.539Z</time></trkpt><trkpt lat="49.872897" lon="1.7816785"><ele>100.0</ele><time>2026-04-02T12:41:59.54Z</time></trkpt><trkpt lat="49.8729158" lon="1.781486"><ele>98.2</ele><time>2026-04-02T12:42:01.541Z</time></trkpt><trkpt lat="49.872924" lon="1.7813772"><ele>96.4</ele><time>2026-04-02T12:42:02.54Z</time></trkpt><trkpt lat="49.8729364" lon="1.7812663"><ele>94.6</ele><time>2026-04-02T12:42:03.541Z</time></trkpt><trkpt lat="49.8729533" lon="1.7810927"><ele>92.8</ele><time>2026-04-02T12:42:05.54Z</time></trkpt><trkpt lat="49.8729725" lon="1.7809142"><ele>91.0</ele><time>2026-04-02T12:42:07.541Z</time></trkpt><trkpt lat="49.8729884" lon="1.7807857"><ele>91.0</ele><time>2026-04-02T12:42:08.54Z</time></trkpt><trkpt lat="49.8730041" lon="1.7806441"><ele>91.0</ele><time>2026-04-02T12:42:09.54Z</time></trkpt><trkpt lat="49.8730201" lon="1.7804976"><ele>91.0</ele><time>2026-04-02T12:42:10.539Z</time></trkpt><trkpt lat="49.8730362" lon="1.780352"><ele>91.0</ele><time>2026-04-02T12:42:11.541Z</time></trkpt><trkpt lat="49.8730512" lon="1.7801939"><ele>91.0</ele><time>2026-04-02T12:42:12.541Z</time></trkpt><trkpt lat="49.8730667" lon="1.7800434"><ele>91.0</ele><time>2026-04-02T12:42:13.54Z</time></trkpt><trkpt lat="49.8730694" lon="1.7798953"><ele>91.0</ele><time>2026-04-02T12:42:14.541Z</time></trkpt><trkpt lat="49.8730472" lon="1.7797516"><ele>91.0</ele><time>2026-04-02T12:42:15.54Z</time></trkpt><trkpt lat="49.8730184" lon="1.7796187"><ele>91.0</ele><time>2026-04-02T12:42:16.54Z</time></trkpt><trkpt lat="49.8729827" lon="1.7795063"><ele>91.0</ele><time>2026-04-02T12:42:17.546Z</time></trkpt><trkpt lat="49.8729532" lon="1.7794068"><ele>91.0</ele><time>2026-04-02T12:42:18.54Z</time></trkpt><trkpt lat="49.8729062" lon="1.779237"><ele>91.0</ele><time>2026-04-02T12:42:20.541Z</time></trkpt><trkpt lat="49.872869" lon="1.7791419"><ele>91.0</ele><time>2026-04-02T12:42:22.54Z</time></trkpt><trkpt lat="49.8728069" lon="1.7791177"><ele>91.0</ele><time>2026-04-02T12:42:25.541Z</time></trkpt><trkpt lat="49.8727029" lon="1.7792406"><ele>91.0</ele><time>2026-04-02T12:42:27.54Z</time></trkpt><trkpt lat="49.8726395" lon="1.7793519"><ele>91.0</ele><time>2026-04-02T12:42:28.54Z</time></trkpt><trkpt lat="49.8725657" lon="1.779481"><ele>91.25</ele><time>2026-04-02T12:42:29.54Z</time></trkpt><trkpt lat="49.872485" lon="1.7796305"><ele>91.5</ele><time>2026-04-02T12:42:30.54Z</time></trkpt><trkpt lat="49.8724015" lon="1.7797962"><ele>91.75</ele><time>2026-04-02T12:42:31.542Z</time></trkpt><trkpt lat="49.872321" lon="1.7799616"><ele>92.0</ele><time>2026-04-02T12:42:32.541Z</time></trkpt><trkpt lat="49.8722439" lon="1.780122"><ele>91.75</ele><time>2026-04-02T12:42:33.541Z</time></trkpt><trkpt lat="49.8721714" lon="1.7802792"><ele>91.5</ele><time>2026-04-02T12:42:34.541Z</time></trkpt><trkpt lat="49.8721079" lon="1.7804218"><ele>91.25</ele><time>2026-04-02T12:42:35.541Z</time></trkpt><trkpt lat="49.8720426" lon="1.7805723"><ele>91.0</ele><time>2026-04-02T12:42:36.541Z</time></trkpt><trkpt lat="49.8719742" lon="1.7807444"><ele>91.0</ele><time>2026-04-02T12:42:37.542Z</time></trkpt><trkpt lat="49.8718973" lon="1.7809198"><ele>91.0</ele><time>2026-04-02T12:42:38.541Z</time></trkpt><trkpt lat="49.8718177" lon="1.7811076"><ele>91.0</ele><time>2026-04-02T12:42:39.542Z</time></trkpt><trkpt lat="49.871735" lon="1.7813062"><ele>91.0</ele><time>2026-04-02T12:42:40.541Z</time></trkpt><trkpt lat="49.871652" lon="1.7815181"><ele>91.66666666666666</ele><time>2026-04-02T12:42:41.541Z</time></trkpt><trkpt lat="49.8715703" lon="1.7817381"><ele>92.33333333333333</ele><time>2026-04-02T12:42:42.541Z</time></trkpt><trkpt lat="49.871487" lon="1.7819675"><ele>93.0</ele><time>2026-04-02T12:42:43.541Z</time></trkpt><trkpt lat="49.8714074" lon="1.7821974"><ele>93.0</ele><time>2026-04-02T12:42:44.542Z</time></trkpt><trkpt lat="49.8713291" lon="1.7824239"><ele>93.0</ele><time>2026-04-02T12:42:45.541Z</time></trkpt><trkpt lat="49.8712497" lon="1.782649"><ele>93.0</ele><time>2026-04-02T12:42:46.541Z</time></trkpt><trkpt lat="49.8711713" lon="1.7828718"><ele>93.0</ele><time>2026-04-02T12:42:47.542Z</time></trkpt><trkpt lat="49.8710944" lon="1.7830906"><ele>93.0</ele><time>2026-04-02T12:42:48.542Z</time></trkpt><trkpt lat="49.8710179" lon="1.7833067"><ele>93.0</ele><time>2026-04-02T12:42:49.541Z</time></trkpt><trkpt lat="49.870943" lon="1.7835262"><ele>93.0</ele><time>2026-04-02T12:42:50.542Z</time></trkpt><trkpt lat="49.8708657" lon="1.7837397"><ele>93.0</ele><time>2026-04-02T12:42:51.542Z</time></trkpt><trkpt lat="49.8707847" lon="1.7839566"><ele>93.0</ele><time>2026-04-02T12:42:52.542Z</time></trkpt><trkpt lat="49.8707005" lon="1.7841797"><ele>93.0</ele><time>2026-04-02T12:42:53.541Z</time></trkpt><trkpt lat="49.8706108" lon="1.7844087"><ele>93.0</ele><time>2026-04-02T12:42:54.541Z</time></trkpt><trkpt lat="49.8705233" lon="1.7846299"><ele>93.0</ele><time>2026-04-02T12:42:55.542Z</time></trkpt><trkpt lat="49.8704402" lon="1.784846"><ele>93.0</ele><time>2026-04-02T12:42:56.541Z</time></trkpt><trkpt lat="49.8703516" lon="1.7850682"><ele>93.0</ele><time>2026-04-02T12:42:57.541Z</time></trkpt><trkpt lat="49.8702668" lon="1.7852877"><ele>93.0</ele><time>2026-04-02T12:42:58.541Z</time></trkpt><trkpt lat="49.8701821" lon="1.7855071"><ele>94.33333333333334</ele><time>2026-04-02T12:42:59.542Z</time></trkpt><trkpt lat="49.8700983" lon="1.7857207"><ele>95.66666666666667</ele><time>2026-04-02T12:43:00.541Z</time></trkpt><trkpt lat="49.8700119" lon="1.7859355"><ele>97.0</ele><time>2026-04-02T12:43:01.541Z</time></trkpt><trkpt lat="49.8699213" lon="1.7861531"><ele>97.0</ele><time>2026-04-02T12:43:02.541Z</time></trkpt><trkpt lat="49.8698308" lon="1.7863661"><ele>97.0</ele><time>2026-04-02T12:43:03.542Z</time></trkpt><trkpt lat="49.8697375" lon="1.7865757"><ele>97.0</ele><time>2026-04-02T12:43:04.54Z</time></trkpt><trkpt lat="49.8696443" lon="1.7867854"><ele>96.33333333333334</ele><time>2026-04-02T12:43:05.541Z</time></trkpt><trkpt lat="49.8695513" lon="1.7869944"><ele>95.66666666666667</ele><time>2026-04-02T12:43:06.542Z</time></trkpt><trkpt lat="49.8694492" lon="1.7872076"><ele>95.0</ele><time>2026-04-02T12:43:07.541Z</time></trkpt><trkpt lat="49.8693348" lon="1.7874168"><ele>95.66666666666667</ele><time>2026-04-02T12:43:08.541Z</time></trkpt><trkpt lat="49.8692134" lon="1.7876261"><ele>96.33333333333334</ele><time>2026-04-02T12:43:09.541Z</time></trkpt><trkpt lat="49.869095" lon="1.7878347"><ele>97.0</ele><time>2026-04-02T12:43:10.542Z</time></trkpt><trkpt lat="49.8689716" lon="1.7880195"><ele>97.0</ele><time>2026-04-02T12:43:11.541Z</time></trkpt><trkpt lat="49.8688515" lon="1.788224"><ele>97.0</ele><time>2026-04-02T12:43:12.542Z</time></trkpt><trkpt lat="49.8687317" lon="1.7884246"><ele>97.0</ele><time>2026-04-02T12:43:13.542Z</time></trkpt><trkpt lat="49.868615" lon="1.7886333"><ele>96.33333333333334</ele><time>2026-04-02T12:43:14.541Z</time></trkpt><trkpt lat="49.8685083" lon="1.7888437"><ele>95.66666666666667</ele><time>2026-04-02T12:43:15.542Z</time></trkpt><trkpt lat="49.8684103" lon="1.7890654"><ele>95.0</ele><time>2026-04-02T12:43:16.542Z</time></trkpt><trkpt lat="49.8683178" lon="1.7892983"><ele>95.33333333333334</ele><time>2026-04-02T12:43:17.542Z</time></trkpt><trkpt lat="49.8682266" lon="1.7895331"><ele>95.66666666666667</ele><time>2026-04-02T12:43:18.542Z</time></trkpt><trkpt lat="49.8681309" lon="1.789771"><ele>96.0</ele><time>2026-04-02T12:43:19.541Z</time></trkpt><trkpt lat="49.8680358" lon="1.7900116"><ele>95.66666666666667</ele><time>2026-04-02T12:43:20.541Z</time></trkpt><trkpt lat="49.8679381" lon="1.7902541"><ele>95.33333333333334</ele><time>2026-04-02T12:43:21.542Z</time></trkpt><trkpt lat="49.86784" lon="1.7905039"><ele>95.0</ele><time>2026-04-02T12:43:22.54Z</time></trkpt><trkpt lat="49.8677461" lon="1.7907552"><ele>95.33333333333334</ele><time>2026-04-02T12:43:23.54Z</time></trkpt><trkpt lat="49.8676469" lon="1.7910107"><ele>95.66666666666667</ele><time>2026-04-02T12:43:24.541Z</time></trkpt><trkpt lat="49.8675487" lon="1.7912538"><ele>96.0</ele><time>2026-04-02T12:43:25.541Z</time></trkpt><trkpt lat="49.8674605" lon="1.7914759"><ele>96.33333333333334</ele><time>2026-04-02T12:43:26.541Z</time></trkpt><trkpt lat="49.867374" lon="1.7916907"><ele>96.66666666666667</ele><time>2026-04-02T12:43:27.542Z</time></trkpt><trkpt lat="49.8672928" lon="1.7918902"><ele>97.0</ele><time>2026-04-02T12:43:28.541Z</time></trkpt><trkpt lat="49.8672194" lon="1.7920712"><ele>97.19999999999999</ele><time>2026-04-02T12:43:29.542Z</time></trkpt><trkpt lat="49.8671531" lon="1.7922223"><ele>97.4</ele><time>2026-04-02T12:43:30.541Z</time></trkpt><trkpt lat="49.8670892" lon="1.7923649"><ele>97.6</ele><time>2026-04-02T12:43:31.541Z</time></trkpt><trkpt lat="49.8670259" lon="1.7925005"><ele>97.80000000000001</ele><time>2026-04-02T12:43:32.54Z</time></trkpt><trkpt lat="49.8669639" lon="1.7926262"><ele>98.0</ele><time>2026-04-02T12:43:33.541Z</time></trkpt><trkpt lat="49.8669112" lon="1.792732"><ele>97.99999999999999</ele><time>2026-04-02T12:43:34.541Z</time></trkpt><trkpt lat="49.8668825" lon="1.7928403"><ele>98.0</ele><time>2026-04-02T12:43:35.541Z</time></trkpt><trkpt lat="49.8668899" lon="1.7929382"><ele>98.0</ele><time>2026-04-02T12:43:36.542Z</time></trkpt><trkpt lat="49.8669364" lon="1.7930287"><ele>98.0</ele><time>2026-04-02T12:43:37.542Z</time></trkpt><trkpt lat="49.8670084" lon="1.7931205"><ele>97.99999999999999</ele><time>2026-04-02T12:43:38.541Z</time></trkpt><trkpt lat="49.8671084" lon="1.7932067"><ele>98.0</ele><time>2026-04-02T12:43:39.542Z</time></trkpt><trkpt lat="49.8672252" lon="1.7932922"><ele>98.0</ele><time>2026-04-02T12:43:40.541Z</time></trkpt><trkpt lat="49.8673496" lon="1.793394"><ele>98.0</ele><time>2026-04-02T12:43:41.542Z</time></trkpt><trkpt lat="49.8674652" lon="1.7934884"><ele>98.0</ele><time>2026-04-02T12:43:42.541Z</time></trkpt><trkpt lat="49.8675669" lon="1.7935754"><ele>98.0</ele><time>2026-04-02T12:43:43.542Z</time></trkpt><trkpt lat="49.867657" lon="1.7936593"><ele>98.5</ele><time>2026-04-02T12:43:44.541Z</time></trkpt><trkpt lat="49.8677394" lon="1.7937656"><ele>99.0</ele><time>2026-04-02T12:43:45.542Z</time></trkpt><trkpt lat="49.8678193" lon="1.7938914"><ele>99.5</ele><time>2026-04-02T12:43:46.541Z</time></trkpt><trkpt lat="49.8678964" lon="1.7940389"><ele>100.0</ele><time>2026-04-02T12:43:47.541Z</time></trkpt><trkpt lat="49.8679674" lon="1.7941991"><ele>100.0</ele><time>2026-04-02T12:43:48.541Z</time></trkpt><trkpt lat="49.8680305" lon="1.7943472"><ele>100.0</ele><time>2026-04-02T12:43:49.541Z</time></trkpt><trkpt lat="49.868085" lon="1.7944882"><ele>100.0</ele><time>2026-04-02T12:43:50.541Z</time></trkpt><trkpt lat="49.8681257" lon="1.7946359"><ele>100.0</ele><time>2026-04-02T12:43:51.542Z</time></trkpt><trkpt lat="49.8681501" lon="1.7947873"><ele>100.0</ele><time>2026-04-02T12:43:52.54Z</time></trkpt><trkpt lat="49.8681638" lon="1.7949451"><ele>100.0</ele><time>2026-04-02T12:43:53.541Z</time></trkpt><trkpt lat="49.8681687" lon="1.7950988"><ele>100.0</ele><time>2026-04-02T12:43:54.541Z</time></trkpt><trkpt lat="49.8681748" lon="1.7952541"><ele>100.0</ele><time>2026-04-02T12:43:55.541Z</time></trkpt><trkpt lat="49.8681625" lon="1.7954107"><ele>100.0</ele><time>2026-04-02T12:43:56.541Z</time></trkpt><trkpt lat="49.8681659" lon="1.7955693"><ele>100.0</ele><time>2026-04-02T12:43:57.541Z</time></trkpt><trkpt lat="49.8681688" lon="1.7957394"><ele>100.4</ele><time>2026-04-02T12:43:58.542Z</time></trkpt><trkpt lat="49.8681744" lon="1.7959079"><ele>100.8</ele><time>2026-04-02T12:43:59.541Z</time></trkpt><trkpt lat="49.8681699" lon="1.7960574"><ele>101.19999999999999</ele><time>2026-04-02T12:44:00.541Z</time></trkpt><trkpt lat="49.8681684" lon="1.7961877"><ele>101.6</ele><time>2026-04-02T12:44:01.541Z</time></trkpt><trkpt lat="49.8681705" lon="1.7962987"><ele>102.0</ele><time>2026-04-02T12:44:02.541Z</time></trkpt><trkpt lat="49.8681585" lon="1.7964532"><ele>102.8</ele><time>2026-04-02T12:44:04.54Z</time></trkpt><trkpt lat="49.8682016" lon="1.7965335"><ele>103.6</ele><time>2026-04-02T12:44:07.541Z</time></trkpt><trkpt lat="49.8682922" lon="1.7964834"><ele>104.39999999999999</ele><time>2026-04-02T12:44:10.541Z</time></trkpt><trkpt lat="49.8683732" lon="1.796392"><ele>105.19999999999999</ele><time>2026-04-02T12:44:12.541Z</time></trkpt><trkpt lat="49.8684756" lon="1.7962878"><ele>106.0</ele><time>2026-04-02T12:44:14.54Z</time></trkpt><trkpt lat="49.8685232" lon="1.796208"><ele>109.16666666666667</ele><time>2026-04-02T12:44:15.542Z</time></trkpt><trkpt lat="49.8685717" lon="1.7961308"><ele>112.33333333333334</ele><time>2026-04-02T12:44:16.542Z</time></trkpt><trkpt lat="49.8686169" lon="1.7960609"><ele>115.5</ele><time>2026-04-02T12:44:17.541Z</time></trkpt><trkpt lat="49.8686654" lon="1.7959801"><ele>118.66666666666666</ele><time>2026-04-02T12:44:18.54Z</time></trkpt><trkpt lat="49.8687066" lon="1.7958435"><ele>121.83333333333333</ele><time>2026-04-02T12:44:19.541Z</time></trkpt><trkpt lat="49.8687586" lon="1.7957249"><ele>125.0</ele><time>2026-04-02T12:44:20.541Z</time></trkpt><trkpt lat="49.8688049" lon="1.7956107"><ele>125.0</ele><time>2026-04-02T12:44:21.541Z</time></trkpt><trkpt lat="49.8688628" lon="1.7954646"><ele>125.0</ele><time>2026-04-02T12:44:22.541Z</time></trkpt><trkpt lat="49.8689203" lon="1.7953351"><ele>125.0</ele><time>2026-04-02T12:44:23.542Z</time></trkpt><trkpt lat="49.8689775" lon="1.7952634"><ele>125.0</ele><time>2026-04-02T12:44:24.541Z</time></trkpt><trkpt lat="49.8690192" lon="1.7951471"><ele>125.0</ele><time>2026-04-02T12:44:26.542Z</time></trkpt><trkpt lat="49.8689753" lon="1.7952786"><ele>125.0</ele><time>2026-04-02T12:44:35.541Z</time></trkpt><trkpt lat="49.8689173" lon="1.7953922"><ele>125.0</ele><time>2026-04-02T12:44:36.54Z</time></trkpt><trkpt lat="49.8688792" lon="1.7954994"><ele>125.0</ele><time>2026-04-02T12:44:37.541Z</time></trkpt><trkpt lat="49.8688235" lon="1.7956111"><ele>125.0</ele><time>2026-04-02T12:44:38.541Z</time></trkpt><trkpt lat="49.8687588" lon="1.7957429"><ele>125.0</ele><time>2026-04-02T12:44:39.541Z</time></trkpt><trkpt lat="49.8687004" lon="1.7958494"><ele>124.99999999999999</ele><time>2026-04-02T12:44:40.54Z</time></trkpt><trkpt lat="49.8686541" lon="1.7959598"><ele>125.0</ele><time>2026-04-02T12:44:41.542Z</time></trkpt><trkpt lat="49.868563" lon="1.7961174"><ele>125.0</ele><time>2026-04-02T12:44:43.541Z</time></trkpt><trkpt lat="49.8685088" lon="1.7961817"><ele>125.0</ele><time>2026-04-02T12:44:44.54Z</time></trkpt><trkpt lat="49.8684518" lon="1.7962558"><ele>124.99999999999999</ele><time>2026-04-02T12:44:45.541Z</time></trkpt><trkpt lat="49.868398" lon="1.7963378"><ele>125.0</ele><time>2026-04-02T12:44:46.541Z</time></trkpt><trkpt lat="49.8683441" lon="1.7963941"><ele>121.83333333333333</ele><time>2026-04-02T12:44:47.541Z</time></trkpt><trkpt lat="49.8682682" lon="1.7964959"><ele>118.66666666666666</ele><time>2026-04-02T12:44:49.541Z</time></trkpt><trkpt lat="49.8682046" lon="1.7965488"><ele>115.5</ele><time>2026-04-02T12:44:51.54Z</time></trkpt><trkpt lat="49.8681731" lon="1.7964335"><ele>112.33333333333334</ele><time>2026-04-02T12:44:54.54Z</time></trkpt><trkpt lat="49.8681827" lon="1.7963229"><ele>109.16666666666667</ele><time>2026-04-02T12:44:55.54Z</time></trkpt><trkpt lat="49.8681766" lon="1.7961813"><ele>106.0</ele><time>2026-04-02T12:44:56.542Z</time></trkpt><trkpt lat="49.8681714" lon="1.7960093"><ele>105.0</ele><time>2026-04-02T12:44:57.54Z</time></trkpt><trkpt lat="49.8681673" lon="1.7958154"><ele>104.0</ele><time>2026-04-02T12:44:58.541Z</time></trkpt><trkpt lat="49.8681656" lon="1.7956024"><ele>103.0</ele><time>2026-04-02T12:44:59.541Z</time></trkpt><trkpt lat="49.8681677" lon="1.7953962"><ele>102.0</ele><time>2026-04-02T12:45:00.541Z</time></trkpt><trkpt lat="49.8681707" lon="1.7951951"><ele>101.5</ele><time>2026-04-02T12:45:01.541Z</time></trkpt><trkpt lat="49.8681724" lon="1.7950027"><ele>101.0</ele><time>2026-04-02T12:45:02.54Z</time></trkpt><trkpt lat="49.8681533" lon="1.7948094"><ele>100.5</ele><time>2026-04-02T12:45:03.541Z</time></trkpt><trkpt lat="49.8681133" lon="1.7946065"><ele>100.0</ele><time>2026-04-02T12:45:04.542Z</time></trkpt><trkpt lat="49.8680553" lon="1.7944018"><ele>100.0</ele><time>2026-04-02T12:45:05.54Z</time></trkpt><trkpt lat="49.8679744" lon="1.7942046"><ele>100.0</ele><time>2026-04-02T12:45:06.541Z</time></trkpt><trkpt lat="49.8678826" lon="1.7940186"><ele>100.0</ele><time>2026-04-02T12:45:07.54Z</time></trkpt><trkpt lat="49.8677956" lon="1.7938528"><ele>100.0</ele><time>2026-04-02T12:45:08.542Z</time></trkpt><trkpt lat="49.8676944" lon="1.7937101"><ele>99.5</ele><time>2026-04-02T12:45:09.541Z</time></trkpt><trkpt lat="49.8675756" lon="1.7935808"><ele>99.0</ele><time>2026-04-02T12:45:10.541Z</time></trkpt><trkpt lat="49.8674474" lon="1.7934695"><ele>98.5</ele><time>2026-04-02T12:45:11.541Z</time></trkpt><trkpt lat="49.8673236" lon="1.79337"><ele>98.0</ele><time>2026-04-02T12:45:12.542Z</time></trkpt><trkpt lat="49.8672151" lon="1.7932853"><ele>97.99999999999999</ele><time>2026-04-02T12:45:13.541Z</time></trkpt><trkpt lat="49.8671176" lon="1.7932028"><ele>98.0</ele><time>2026-04-02T12:45:14.541Z</time></trkpt><trkpt lat="49.8670353" lon="1.7931308"><ele>98.0</ele><time>2026-04-02T12:45:15.541Z</time></trkpt><trkpt lat="49.8669694" lon="1.7930652"><ele>98.0</ele><time>2026-04-02T12:45:16.541Z</time></trkpt><trkpt lat="49.8668906" lon="1.7929689"><ele>97.99999999999999</ele><time>2026-04-02T12:45:18.541Z</time></trkpt><trkpt lat="49.8668355" lon="1.7929189"><ele>98.0</ele><time>2026-04-02T12:45:20.541Z</time></trkpt><trkpt lat="49.8667128" lon="1.7928249"><ele>98.75</ele><time>2026-04-02T12:45:22.542Z</time></trkpt><trkpt lat="49.8666285" lon="1.7927478"><ele>99.5</ele><time>2026-04-02T12:45:23.541Z</time></trkpt><trkpt lat="49.8665301" lon="1.7926668"><ele>100.25</ele><time>2026-04-02T12:45:24.541Z</time></trkpt><trkpt lat="49.8664232" lon="1.7925736"><ele>101.0</ele><time>2026-04-02T12:45:25.54Z</time></trkpt><trkpt lat="49.8663093" lon="1.7924766"><ele>101.5</ele><time>2026-04-02T12:45:26.54Z</time></trkpt><trkpt lat="49.8661871" lon="1.7923796"><ele>102.0</ele><time>2026-04-02T12:45:27.542Z</time></trkpt><trkpt lat="49.8660625" lon="1.7922701"><ele>102.5</ele><time>2026-04-02T12:45:28.54Z</time></trkpt><trkpt lat="49.8659396" lon="1.7921468"><ele>103.0</ele><time>2026-04-02T12:45:29.541Z</time></trkpt><trkpt lat="49.8658195" lon="1.7920302"><ele>104.0</ele><time>2026-04-02T12:45:30.541Z</time></trkpt><trkpt lat="49.865696" lon="1.791901"><ele>105.0</ele><time>2026-04-02T12:45:31.542Z</time></trkpt><trkpt lat="49.8655764" lon="1.7917495"><ele>106.0</ele><time>2026-04-02T12:45:32.541Z</time></trkpt><trkpt lat="49.8654601" lon="1.7915962"><ele>107.0</ele><time>2026-04-02T12:45:33.541Z</time></trkpt><trkpt lat="49.8653511" lon="1.7914448"><ele>108.0</ele><time>2026-04-02T12:45:34.542Z</time></trkpt><trkpt lat="49.8652391" lon="1.7912812"><ele>109.0</ele><time>2026-04-02T12:45:35.541Z</time></trkpt><trkpt lat="49.8651267" lon="1.7911185"><ele>111.66666666666667</ele><time>2026-04-02T12:45:36.542Z</time></trkpt><trkpt lat="49.8650123" lon="1.7909568"><ele>114.33333333333334</ele><time>2026-04-02T12:45:37.541Z</time></trkpt><trkpt lat="49.8648936" lon="1.7908079"><ele>117.0</ele><time>2026-04-02T12:45:38.542Z</time></trkpt><trkpt lat="49.8647826" lon="1.7906569"><ele>117.0</ele><time>2026-04-02T12:45:39.541Z</time></trkpt><trkpt lat="49.8646764" lon="1.7905242"><ele>117.0</ele><time>2026-04-02T12:45:40.542Z</time></trkpt><trkpt lat="49.864569" lon="1.7903886"><ele>117.0</ele><time>2026-04-02T12:45:41.54Z</time></trkpt><trkpt lat="49.8644603" lon="1.7902391"><ele>117.0</ele><time>2026-04-02T12:45:42.542Z</time></trkpt><trkpt lat="49.8643556" lon="1.7900798"><ele>116.66666666666666</ele><time>2026-04-02T12:45:43.541Z</time></trkpt><trkpt lat="49.8642548" lon="1.789897"><ele>116.33333333333333</ele><time>2026-04-02T12:45:44.541Z</time></trkpt><trkpt lat="49.8641554" lon="1.7897075"><ele>116.0</ele><time>2026-04-02T12:45:45.541Z</time></trkpt><trkpt lat="49.86406" lon="1.7895082"><ele>117.33333333333333</ele><time>2026-04-02T12:45:46.54Z</time></trkpt><trkpt lat="49.8639554" lon="1.7893195"><ele>118.66666666666666</ele><time>2026-04-02T12:45:47.541Z</time></trkpt><trkpt lat="49.8638433" lon="1.7891397"><ele>120.0</ele><time>2026-04-02T12:45:48.541Z</time></trkpt><trkpt lat="49.8637351" lon="1.7889493"><ele>120.0</ele><time>2026-04-02T12:45:49.54Z</time></trkpt><trkpt lat="49.8636158" lon="1.788774"><ele>120.0</ele><time>2026-04-02T12:45:50.541Z</time></trkpt><trkpt lat="49.8635002" lon="1.7885873"><ele>120.0</ele><time>2026-04-02T12:45:51.542Z</time></trkpt><trkpt lat="49.8633767" lon="1.7884118"><ele>121.33333333333334</ele><time>2026-04-02T12:45:52.541Z</time></trkpt><trkpt lat="49.8632519" lon="1.7882435"><ele>122.66666666666667</ele><time>2026-04-02T12:45:53.54Z</time></trkpt><trkpt lat="49.8631244" lon="1.7880727"><ele>124.0</ele><time>2026-04-02T12:45:54.541Z</time></trkpt><trkpt lat="49.8629912" lon="1.7879042"><ele>124.0</ele><time>2026-04-02T12:45:55.542Z</time></trkpt><trkpt lat="49.8628617" lon="1.7877351"><ele>124.0</ele><time>2026-04-02T12:45:56.541Z</time></trkpt><trkpt lat="49.8627316" lon="1.7875648"><ele>124.0</ele><time>2026-04-02T12:45:57.542Z</time></trkpt><trkpt lat="49.8626035" lon="1.7873902"><ele>125.0</ele><time>2026-04-02T12:45:58.542Z</time></trkpt><trkpt lat="49.8624764" lon="1.7872131"><ele>126.0</ele><time>2026-04-02T12:45:59.541Z</time></trkpt><trkpt lat="49.8623446" lon="1.7870443"><ele>127.0</ele><time>2026-04-02T12:46:00.541Z</time></trkpt><trkpt lat="49.862216" lon="1.7868771"><ele>128.0</ele><time>2026-04-02T12:46:01.542Z</time></trkpt><trkpt lat="49.8620878" lon="1.7867122"><ele>129.0</ele><time>2026-04-02T12:46:02.541Z</time></trkpt><trkpt lat="49.8619709" lon="1.7865521"><ele>130.0</ele><time>2026-04-02T12:46:03.541Z</time></trkpt><trkpt lat="49.8618621" lon="1.7863997"><ele>131.0</ele><time>2026-04-02T12:46:04.541Z</time></trkpt><trkpt lat="49.8617679" lon="1.7862574"><ele>132.0</ele><time>2026-04-02T12:46:05.541Z</time></trkpt><trkpt lat="49.8616908" lon="1.7861252"><ele>133.0</ele><time>2026-04-02T12:46:06.542Z</time></trkpt><trkpt lat="49.861625" lon="1.7859864"><ele>134.0</ele><time>2026-04-02T12:46:07.541Z</time></trkpt><trkpt lat="49.8615651" lon="1.7858288"><ele>134.75</ele><time>2026-04-02T12:46:08.541Z</time></trkpt><trkpt lat="49.8615158" lon="1.785659"><ele>135.5</ele><time>2026-04-02T12:46:09.541Z</time></trkpt><trkpt lat="49.8614932" lon="1.7854812"><ele>136.25</ele><time>2026-04-02T12:46:10.542Z</time></trkpt><trkpt lat="49.8614958" lon="1.785294"><ele>137.0</ele><time>2026-04-02T12:46:11.54Z</time></trkpt><trkpt lat="49.8615154" lon="1.78511"><ele>137.6</ele><time>2026-04-02T12:46:12.541Z</time></trkpt><trkpt lat="49.8615324" lon="1.7849501"><ele>138.2</ele><time>2026-04-02T12:46:13.542Z</time></trkpt><trkpt lat="49.8615237" lon="1.7848018"><ele>138.8</ele><time>2026-04-02T12:46:14.541Z</time></trkpt><trkpt lat="49.8614899" lon="1.7846464"><ele>139.4</ele><time>2026-04-02T12:46:15.541Z</time></trkpt><trkpt lat="49.8614404" lon="1.7844821"><ele>140.0</ele><time>2026-04-02T12:46:16.541Z</time></trkpt><trkpt lat="49.861385" lon="1.7843137"><ele>140.25</ele><time>2026-04-02T12:46:17.541Z</time></trkpt><trkpt lat="49.8613302" lon="1.7841509"><ele>140.5</ele><time>2026-04-02T12:46:18.541Z</time></trkpt><trkpt lat="49.861273" lon="1.7839871"><ele>140.75</ele><time>2026-04-02T12:46:19.541Z</time></trkpt><trkpt lat="49.8611978" lon="1.7838344"><ele>141.0</ele><time>2026-04-02T12:46:20.541Z</time></trkpt><trkpt lat="49.8611121" lon="1.7836754"><ele>140.75</ele><time>2026-04-02T12:46:21.542Z</time></trkpt><trkpt lat="49.8610244" lon="1.7835109"><ele>140.5</ele><time>2026-04-02T12:46:22.541Z</time></trkpt><trkpt lat="49.8609363" lon="1.7833419"><ele>140.25</ele><time>2026-04-02T12:46:23.541Z</time></trkpt><trkpt lat="49.8608474" lon="1.7831642"><ele>140.0</ele><time>2026-04-02T12:46:24.54Z</time></trkpt><trkpt lat="49.860763" lon="1.782985"><ele>141.25</ele><time>2026-04-02T12:46:25.541Z</time></trkpt><trkpt lat="49.8606857" lon="1.7828248"><ele>142.5</ele><time>2026-04-02T12:46:26.541Z</time></trkpt><trkpt lat="49.8606073" lon="1.7826896"><ele>143.75</ele><time>2026-04-02T12:46:27.541Z</time></trkpt><trkpt lat="49.8605161" lon="1.7825649"><ele>145.0</ele><time>2026-04-02T12:46:28.54Z</time></trkpt><trkpt lat="49.8604107" lon="1.7824567"><ele>145.0</ele><time>2026-04-02T12:46:29.541Z</time></trkpt><trkpt lat="49.860298" lon="1.7823518"><ele>145.0</ele><time>2026-04-02T12:46:30.542Z</time></trkpt><trkpt lat="49.8601775" lon="1.7822396"><ele>145.0</ele><time>2026-04-02T12:46:31.541Z</time></trkpt><trkpt lat="49.8600488" lon="1.7821305"><ele>145.0</ele><time>2026-04-02T12:46:32.541Z</time></trkpt><trkpt lat="49.8599238" lon="1.7820282"><ele>145.5</ele><time>2026-04-02T12:46:33.542Z</time></trkpt><trkpt lat="49.8598067" lon="1.7819286"><ele>146.0</ele><time>2026-04-02T12:46:34.541Z</time></trkpt><trkpt lat="49.859685" lon="1.7818221"><ele>146.5</ele><time>2026-04-02T12:46:35.542Z</time></trkpt><trkpt lat="49.8595613" lon="1.7817033"><ele>147.0</ele><time>2026-04-02T12:46:36.541Z</time></trkpt><trkpt lat="49.8594408" lon="1.7815728"><ele>147.0</ele><time>2026-04-02T12:46:37.541Z</time></trkpt><trkpt lat="49.8593213" lon="1.7814309"><ele>147.0</ele><time>2026-04-02T12:46:38.54Z</time></trkpt><trkpt lat="49.8591996" lon="1.7812855"><ele>147.0</ele><time>2026-04-02T12:46:39.541Z</time></trkpt><trkpt lat="49.8590783" lon="1.7811306"><ele>148.33333333333334</ele><time>2026-04-02T12:46:40.541Z</time></trkpt><trkpt lat="49.8589648" lon="1.7809714"><ele>149.66666666666669</ele><time>2026-04-02T12:46:41.542Z</time></trkpt><trkpt lat="49.8588575" lon="1.7807998"><ele>151.0</ele><time>2026-04-02T12:46:42.541Z</time></trkpt><trkpt lat="49.8587508" lon="1.7806175"><ele>151.0</ele><time>2026-04-02T12:46:43.541Z</time></trkpt><trkpt lat="49.8586431" lon="1.7804305"><ele>151.0</ele><time>2026-04-02T12:46:44.542Z</time></trkpt><trkpt lat="49.8585339" lon="1.7802512"><ele>151.0</ele><time>2026-04-02T12:46:45.541Z</time></trkpt><trkpt lat="49.8584281" lon="1.7801015"><ele>151.4</ele><time>2026-04-02T12:46:46.541Z</time></trkpt><trkpt lat="49.8583389" lon="1.7799777"><ele>151.8</ele><time>2026-04-02T12:46:47.54Z</time></trkpt><trkpt lat="49.8582724" lon="1.779872"><ele>152.20000000000002</ele><time>2026-04-02T12:46:48.542Z</time></trkpt><trkpt lat="49.8582079" lon="1.7797629"><ele>152.6</ele><time>2026-04-02T12:46:49.541Z</time></trkpt><trkpt lat="49.8581247" lon="1.7796424"><ele>153.0</ele><time>2026-04-02T12:46:50.541Z</time></trkpt><trkpt lat="49.8580344" lon="1.7795084"><ele>153.0</ele><time>2026-04-02T12:46:51.541Z</time></trkpt><trkpt lat="49.8579395" lon="1.7793671"><ele>153.0</ele><time>2026-04-02T12:46:52.54Z</time></trkpt><trkpt lat="49.8578386" lon="1.7792291"><ele>153.0</ele><time>2026-04-02T12:46:53.542Z</time></trkpt><trkpt lat="49.8577338" lon="1.7790828"><ele>153.0</ele><time>2026-04-02T12:46:54.542Z</time></trkpt><trkpt lat="49.8576321" lon="1.7789334"><ele>154.25</ele><time>2026-04-02T12:46:55.542Z</time></trkpt><trkpt lat="49.857536" lon="1.7787992"><ele>155.5</ele><time>2026-04-02T12:46:56.541Z</time></trkpt><trkpt lat="49.8574436" lon="1.7786561"><ele>156.75</ele><time>2026-04-02T12:46:57.541Z</time></trkpt><trkpt lat="49.8573642" lon="1.7784901"><ele>158.0</ele><time>2026-04-02T12:46:58.542Z</time></trkpt><trkpt lat="49.8573022" lon="1.7783222"><ele>158.0</ele><time>2026-04-02T12:46:59.541Z</time></trkpt><trkpt lat="49.8572478" lon="1.7781635"><ele>158.0</ele><time>2026-04-02T12:47:00.541Z</time></trkpt><trkpt lat="49.8571944" lon="1.7780155"><ele>158.0</ele><time>2026-04-02T12:47:01.54Z</time></trkpt><trkpt lat="49.8571393" lon="1.7778746"><ele>158.0</ele><time>2026-04-02T12:47:02.54Z</time></trkpt><trkpt lat="49.8570723" lon="1.7777258"><ele>158.0</ele><time>2026-04-02T12:47:03.542Z</time></trkpt><trkpt lat="49.8569917" lon="1.777582"><ele>158.4</ele><time>2026-04-02T12:47:04.542Z</time></trkpt><trkpt lat="49.8569175" lon="1.777448"><ele>158.8</ele><time>2026-04-02T12:47:05.541Z</time></trkpt><trkpt lat="49.8568585" lon="1.7773064"><ele>159.2</ele><time>2026-04-02T12:47:06.542Z</time></trkpt><trkpt lat="49.8568029" lon="1.7771559"><ele>159.6</ele><time>2026-04-02T12:47:07.54Z</time></trkpt><trkpt lat="49.8567507" lon="1.777006"><ele>160.0</ele><time>2026-04-02T12:47:08.541Z</time></trkpt><trkpt lat="49.8566946" lon="1.7768692"><ele>162.4</ele><time>2026-04-02T12:47:09.541Z</time></trkpt><trkpt lat="49.8566236" lon="1.7767477"><ele>164.8</ele><time>2026-04-02T12:47:10.541Z</time></trkpt><trkpt lat="49.8565432" lon="1.7766286"><ele>167.2</ele><time>2026-04-02T12:47:11.54Z</time></trkpt><trkpt lat="49.8564553" lon="1.7765186"><ele>169.6</ele><time>2026-04-02T12:47:12.541Z</time></trkpt><trkpt lat="49.8563666" lon="1.7764013"><ele>172.0</ele><time>2026-04-02T12:47:13.541Z</time></trkpt><trkpt lat="49.8562872" lon="1.776274"><ele>172.0</ele><time>2026-04-02T12:47:14.541Z</time></trkpt><trkpt lat="49.8562296" lon="1.7761219"><ele>172.0</ele><time>2026-04-02T12:47:15.54Z</time></trkpt><trkpt lat="49.8561937" lon="1.7759437"><ele>172.0</ele><time>2026-04-02T12:47:16.541Z</time></trkpt><trkpt lat="49.8561681" lon="1.7757518"><ele>172.0</ele><time>2026-04-02T12:47:17.541Z</time></trkpt><trkpt lat="49.856147" lon="1.7755488"><ele>172.0</ele><time>2026-04-02T12:47:18.541Z</time></trkpt><trkpt lat="49.8561238" lon="1.775344"><ele>172.0</ele><time>2026-04-02T12:47:19.541Z</time></trkpt><trkpt lat="49.856097" lon="1.7751492"><ele>172.0</ele><time>2026-04-02T12:47:20.541Z</time></trkpt><trkpt lat="49.8560794" lon="1.7749719"><ele>172.0</ele><time>2026-04-02T12:47:21.541Z</time></trkpt><trkpt lat="49.8560666" lon="1.7748104"><ele>172.0</ele><time>2026-04-02T12:47:22.541Z</time></trkpt><trkpt lat="49.8560534" lon="1.7746641"><ele>172.0</ele><time>2026-04-02T12:47:23.541Z</time></trkpt><trkpt lat="49.8560277" lon="1.7745182"><ele>172.0</ele><time>2026-04-02T12:47:24.541Z</time></trkpt><trkpt lat="49.8559936" lon="1.7743747"><ele>172.0</ele><time>2026-04-02T12:47:25.541Z</time></trkpt><trkpt lat="49.8559518" lon="1.7742399"><ele>172.0</ele><time>2026-04-02T12:47:26.541Z</time></trkpt><trkpt lat="49.8559003" lon="1.7741061"><ele>173.5</ele><time>2026-04-02T12:47:27.541Z</time></trkpt><trkpt lat="49.855845" lon="1.7739493"><ele>175.0</ele><time>2026-04-02T12:47:28.541Z</time></trkpt><trkpt lat="49.8557824" lon="1.7737832"><ele>176.5</ele><time>2026-04-02T12:47:29.541Z</time></trkpt><trkpt lat="49.8557223" lon="1.7736195"><ele>178.0</ele><time>2026-04-02T12:47:30.541Z</time></trkpt><trkpt lat="49.8556653" lon="1.7734477"><ele>178.0</ele><time>2026-04-02T12:47:31.541Z</time></trkpt><trkpt lat="49.8556092" lon="1.7732759"><ele>178.0</ele><time>2026-04-02T12:47:32.542Z</time></trkpt><trkpt lat="49.85555" lon="1.7731209"><ele>178.0</ele><time>2026-04-02T12:47:33.541Z</time></trkpt><trkpt lat="49.8554887" lon="1.772986"><ele>178.0</ele><time>2026-04-02T12:47:34.541Z</time></trkpt><trkpt lat="49.8554363" lon="1.7728617"><ele>178.0</ele><time>2026-04-02T12:47:35.541Z</time></trkpt><trkpt lat="49.8553738" lon="1.7727253"><ele>178.25</ele><time>2026-04-02T12:47:36.541Z</time></trkpt><trkpt lat="49.855311" lon="1.7725686"><ele>178.5</ele><time>2026-04-02T12:47:37.541Z</time></trkpt><trkpt lat="49.8552525" lon="1.7723889"><ele>178.75</ele><time>2026-04-02T12:47:38.541Z</time></trkpt><trkpt lat="49.8551905" lon="1.772198"><ele>179.0</ele><time>2026-04-02T12:47:39.541Z</time></trkpt><trkpt lat="49.8551267" lon="1.7719994"><ele>180.66666666666666</ele><time>2026-04-02T12:47:40.541Z</time></trkpt><trkpt lat="49.8550587" lon="1.7717949"><ele>182.33333333333334</ele><time>2026-04-02T12:47:41.541Z</time></trkpt><trkpt lat="49.8549917" lon="1.771586"><ele>184.0</ele><time>2026-04-02T12:47:42.541Z</time></trkpt><trkpt lat="49.8549208" lon="1.7713695"><ele>184.0</ele><time>2026-04-02T12:47:43.541Z</time></trkpt><trkpt lat="49.8548534" lon="1.7711478"><ele>184.0</ele><time>2026-04-02T12:47:44.542Z</time></trkpt><trkpt lat="49.8547867" lon="1.7709236"><ele>184.0</ele><time>2026-04-02T12:47:45.541Z</time></trkpt><trkpt lat="49.8547187" lon="1.7706918"><ele>182.66666666666669</ele><time>2026-04-02T12:47:46.541Z</time></trkpt><trkpt lat="49.8546499" lon="1.7704605"><ele>181.33333333333334</ele><time>2026-04-02T12:47:47.541Z</time></trkpt><trkpt lat="49.8545799" lon="1.7702297"><ele>180.0</ele><time>2026-04-02T12:47:48.54Z</time></trkpt><trkpt lat="49.854513" lon="1.7699939"><ele>180.25</ele><time>2026-04-02T12:47:49.541Z</time></trkpt><trkpt lat="49.854445" lon="1.7697669"><ele>180.5</ele><time>2026-04-02T12:47:50.541Z</time></trkpt><trkpt lat="49.8543803" lon="1.7695642"><ele>180.75</ele><time>2026-04-02T12:47:51.541Z</time></trkpt><trkpt lat="49.8543249" lon="1.7693759"><ele>181.0</ele><time>2026-04-02T12:47:52.542Z</time></trkpt><trkpt lat="49.8542691" lon="1.7691926"><ele>181.0</ele><time>2026-04-02T12:47:53.541Z</time></trkpt><trkpt lat="49.8542145" lon="1.7690148"><ele>181.0</ele><time>2026-04-02T12:47:54.541Z</time></trkpt><trkpt lat="49.8541637" lon="1.768833"><ele>181.0</ele><time>2026-04-02T12:47:55.54Z</time></trkpt><trkpt lat="49.8541311" lon="1.7686294"><ele>181.0</ele><time>2026-04-02T12:47:56.54Z</time></trkpt><trkpt lat="49.8541152" lon="1.768407"><ele>180.66666666666669</ele><time>2026-04-02T12:47:57.541Z</time></trkpt><trkpt lat="49.8540938" lon="1.7681809"><ele>180.33333333333334</ele><time>2026-04-02T12:47:58.541Z</time></trkpt><trkpt lat="49.8540728" lon="1.7679467"><ele>180.0</ele><time>2026-04-02T12:47:59.541Z</time></trkpt><trkpt lat="49.8540499" lon="1.7677086"><ele>180.0</ele><time>2026-04-02T12:48:00.542Z</time></trkpt><trkpt lat="49.854013" lon="1.7674709"><ele>180.0</ele><time>2026-04-02T12:48:01.54Z</time></trkpt><trkpt lat="49.8539702" lon="1.7672283"><ele>180.0</ele><time>2026-04-02T12:48:02.541Z</time></trkpt><trkpt lat="49.8539226" lon="1.7669848"><ele>180.33333333333334</ele><time>2026-04-02T12:48:03.54Z</time></trkpt><trkpt lat="49.8538712" lon="1.76674"><ele>180.66666666666669</ele><time>2026-04-02T12:48:04.542Z</time></trkpt><trkpt lat="49.8538159" lon="1.7664942"><ele>181.0</ele><time>2026-04-02T12:48:05.54Z</time></trkpt><trkpt lat="49.8537626" lon="1.7662431"><ele>181.33333333333334</ele><time>2026-04-02T12:48:06.541Z</time></trkpt><trkpt lat="49.8537119" lon="1.7659868"><ele>181.66666666666666</ele><time>2026-04-02T12:48:07.542Z</time></trkpt><trkpt lat="49.8536639" lon="1.7657268"><ele>182.0</ele><time>2026-04-02T12:48:08.541Z</time></trkpt><trkpt lat="49.8536142" lon="1.7654627"><ele>182.33333333333331</ele><time>2026-04-02T12:48:09.541Z</time></trkpt><trkpt lat="49.8535683" lon="1.7651928"><ele>182.66666666666666</ele><time>2026-04-02T12:48:10.541Z</time></trkpt><trkpt lat="49.8535261" lon="1.7649241"><ele>183.0</ele><time>2026-04-02T12:48:11.541Z</time></trkpt><trkpt lat="49.8534878" lon="1.7646537"><ele>183.66666666666666</ele><time>2026-04-02T12:48:12.541Z</time></trkpt><trkpt lat="49.8534467" lon="1.764383"><ele>184.33333333333331</ele><time>2026-04-02T12:48:13.541Z</time></trkpt><trkpt lat="49.8534015" lon="1.7641191"><ele>185.0</ele><time>2026-04-02T12:48:14.542Z</time></trkpt><trkpt lat="49.853356" lon="1.7638546"><ele>185.0</ele><time>2026-04-02T12:48:15.542Z</time></trkpt><trkpt lat="49.8533109" lon="1.7635883"><ele>185.0</ele><time>2026-04-02T12:48:16.542Z</time></trkpt><trkpt lat="49.8532671" lon="1.7633209"><ele>185.0</ele><time>2026-04-02T12:48:17.541Z</time></trkpt><trkpt lat="49.8532212" lon="1.7630531"><ele>185.33333333333331</ele><time>2026-04-02T12:48:18.542Z</time></trkpt><trkpt lat="49.8531753" lon="1.7627843"><ele>185.66666666666666</ele><time>2026-04-02T12:48:19.541Z</time></trkpt><trkpt lat="49.8531305" lon="1.7625108"><ele>186.0</ele><time>2026-04-02T12:48:20.541Z</time></trkpt><trkpt lat="49.853091" lon="1.7622401"><ele>186.25</ele><time>2026-04-02T12:48:21.541Z</time></trkpt><trkpt lat="49.853051" lon="1.7619997"><ele>186.5</ele><time>2026-04-02T12:48:22.542Z</time></trkpt><trkpt lat="49.8530142" lon="1.7617857"><ele>186.75</ele><time>2026-04-02T12:48:23.541Z</time></trkpt><trkpt lat="49.8529848" lon="1.7615829"><ele>187.0</ele><time>2026-04-02T12:48:24.541Z</time></trkpt><trkpt lat="49.8529595" lon="1.7614001"><ele>187.2</ele><time>2026-04-02T12:48:25.541Z</time></trkpt><trkpt lat="49.8529396" lon="1.7612376"><ele>187.39999999999998</ele><time>2026-04-02T12:48:26.541Z</time></trkpt><trkpt lat="49.8529398" lon="1.761082"><ele>187.60000000000002</ele><time>2026-04-02T12:48:27.542Z</time></trkpt><trkpt lat="49.8529685" lon="1.7609205"><ele>187.8</ele><time>2026-04-02T12:48:28.542Z</time></trkpt><trkpt lat="49.8530227" lon="1.7607553"><ele>188.0</ele><time>2026-04-02T12:48:29.54Z</time></trkpt><trkpt lat="49.8530944" lon="1.7605924"><ele>188.0</ele><time>2026-04-02T12:48:30.542Z</time></trkpt><trkpt lat="49.8531738" lon="1.760423"><ele>188.0</ele><time>2026-04-02T12:48:31.542Z</time></trkpt><trkpt lat="49.8532611" lon="1.760248"><ele>188.0</ele><time>2026-04-02T12:48:32.541Z</time></trkpt><trkpt lat="49.8533483" lon="1.7600904"><ele>188.0</ele><time>2026-04-02T12:48:33.541Z</time></trkpt><trkpt lat="49.8534244" lon="1.7599575"><ele>188.0</ele><time>2026-04-02T12:48:34.542Z</time></trkpt><trkpt lat="49.8534811" lon="1.759852"><ele>188.0</ele><time>2026-04-02T12:48:35.54Z</time></trkpt><trkpt lat="49.8535256" lon="1.7597778"><ele>188.0</ele><time>2026-04-02T12:48:36.542Z</time></trkpt><trkpt lat="49.8536014" lon="1.7596351"><ele>188.0</ele><time>2026-04-02T12:48:38.541Z</time></trkpt><trkpt lat="49.8536397" lon="1.7595149"><ele>188.0</ele><time>2026-04-02T12:48:39.54Z</time></trkpt><trkpt lat="49.8536816" lon="1.7593557"><ele>187.75</ele><time>2026-04-02T12:48:40.541Z</time></trkpt><trkpt lat="49.8537202" lon="1.7591749"><ele>187.5</ele><time>2026-04-02T12:48:41.541Z</time></trkpt><trkpt lat="49.8537562" lon="1.7589781"><ele>187.25</ele><time>2026-04-02T12:48:42.541Z</time></trkpt><trkpt lat="49.8537879" lon="1.7587656"><ele>187.0</ele><time>2026-04-02T12:48:43.542Z</time></trkpt><trkpt lat="49.8538238" lon="1.758535"><ele>187.0</ele><time>2026-04-02T12:48:44.543Z</time></trkpt><trkpt lat="49.8538568" lon="1.7582994"><ele>187.0</ele><time>2026-04-02T12:48:45.542Z</time></trkpt><trkpt lat="49.8538879" lon="1.758086"><ele>187.0</ele><time>2026-04-02T12:48:46.542Z</time></trkpt><trkpt lat="49.8539151" lon="1.7578831"><ele>187.0</ele><time>2026-04-02T12:48:47.542Z</time></trkpt><trkpt lat="49.8539423" lon="1.7576887"><ele>187.25</ele><time>2026-04-02T12:48:48.543Z</time></trkpt><trkpt lat="49.8539653" lon="1.7575062"><ele>187.5</ele><time>2026-04-02T12:48:49.542Z</time></trkpt><trkpt lat="49.8539869" lon="1.7573304"><ele>187.75</ele><time>2026-04-02T12:48:50.543Z</time></trkpt><trkpt lat="49.8540087" lon="1.757157"><ele>188.0</ele><time>2026-04-02T12:48:51.543Z</time></trkpt><trkpt lat="49.8540277" lon="1.7569817"><ele>187.8</ele><time>2026-04-02T12:48:52.542Z</time></trkpt><trkpt lat="49.854045" lon="1.7568057"><ele>187.60000000000002</ele><time>2026-04-02T12:48:53.541Z</time></trkpt><trkpt lat="49.8540605" lon="1.7566371"><ele>187.39999999999998</ele><time>2026-04-02T12:48:54.543Z</time></trkpt><trkpt lat="49.8540765" lon="1.7564833"><ele>187.2</ele><time>2026-04-02T12:48:55.542Z</time></trkpt><trkpt lat="49.8540868" lon="1.7563449"><ele>187.0</ele><time>2026-04-02T12:48:56.543Z</time></trkpt><trkpt lat="49.8540855" lon="1.7562089"><ele>187.0</ele><time>2026-04-02T12:48:57.542Z</time></trkpt><trkpt lat="49.8540728" lon="1.756078"><ele>187.0</ele><time>2026-04-02T12:48:58.542Z</time></trkpt><trkpt lat="49.8540541" lon="1.7559483"><ele>187.0</ele><time>2026-04-02T12:48:59.543Z</time></trkpt><trkpt lat="49.8540335" lon="1.7558077"><ele>187.0</ele><time>2026-04-02T12:49:00.542Z</time></trkpt><trkpt lat="49.8540084" lon="1.7556708"><ele>187.0</ele><time>2026-04-02T12:49:01.542Z</time></trkpt><trkpt lat="49.8539841" lon="1.7555162"><ele>187.25</ele><time>2026-04-02T12:49:02.542Z</time></trkpt><trkpt lat="49.8539646" lon="1.755341"><ele>187.5</ele><time>2026-04-02T12:49:03.542Z</time></trkpt><trkpt lat="49.8539538" lon="1.7551597"><ele>187.75</ele><time>2026-04-02T12:49:04.542Z</time></trkpt><trkpt lat="49.8539523" lon="1.7549773"><ele>188.0</ele><time>2026-04-02T12:49:05.543Z</time></trkpt><trkpt lat="49.8539487" lon="1.7547963"><ele>188.2</ele><time>2026-04-02T12:49:06.542Z</time></trkpt><trkpt lat="49.853947" lon="1.7546194"><ele>188.4</ele><time>2026-04-02T12:49:07.543Z</time></trkpt><trkpt lat="49.8539433" lon="1.7544442"><ele>188.6</ele><time>2026-04-02T12:49:08.543Z</time></trkpt><trkpt lat="49.8539375" lon="1.7542752"><ele>188.79999999999998</ele><time>2026-04-02T12:49:09.542Z</time></trkpt><trkpt lat="49.8539207" lon="1.754114"><ele>189.0</ele><time>2026-04-02T12:49:10.542Z</time></trkpt><trkpt lat="49.8538937" lon="1.7539486"><ele>189.0</ele><time>2026-04-02T12:49:11.541Z</time></trkpt><trkpt lat="49.8538564" lon="1.7537896"><ele>189.0</ele><time>2026-04-02T12:49:12.542Z</time></trkpt><trkpt lat="49.8538114" lon="1.7536413"><ele>189.0</ele><time>2026-04-02T12:49:13.542Z</time></trkpt><trkpt lat="49.8537615" lon="1.7534905"><ele>189.0</ele><time>2026-04-02T12:49:14.542Z</time></trkpt><trkpt lat="49.8537004" lon="1.7533464"><ele>189.0</ele><time>2026-04-02T12:49:15.541Z</time></trkpt><trkpt lat="49.853641" lon="1.7532012"><ele>189.0</ele><time>2026-04-02T12:49:16.543Z</time></trkpt><trkpt lat="49.8535818" lon="1.7530516"><ele>189.0</ele><time>2026-04-02T12:49:17.542Z</time></trkpt><trkpt lat="49.8535162" lon="1.752903"><ele>189.0</ele><time>2026-04-02T12:49:18.542Z</time></trkpt><trkpt lat="49.8534518" lon="1.7527605"><ele>189.0</ele><time>2026-04-02T12:49:19.542Z</time></trkpt><trkpt lat="49.8533904" lon="1.7526174"><ele>189.39999999999998</ele><time>2026-04-02T12:49:20.542Z</time></trkpt><trkpt lat="49.853329" lon="1.7524776"><ele>189.8</ele><time>2026-04-02T12:49:21.542Z</time></trkpt><trkpt lat="49.8532728" lon="1.7523489"><ele>190.2</ele><time>2026-04-02T12:49:22.542Z</time></trkpt><trkpt lat="49.8532167" lon="1.7522197"><ele>190.60000000000002</ele><time>2026-04-02T12:49:23.542Z</time></trkpt><trkpt lat="49.8531717" lon="1.752109"><ele>191.0</ele><time>2026-04-02T12:49:24.543Z</time></trkpt><trkpt lat="49.8531326" lon="1.7520097"><ele>191.33333333333331</ele><time>2026-04-02T12:49:25.543Z</time></trkpt><trkpt lat="49.8530732" lon="1.7518598"><ele>191.66666666666666</ele><time>2026-04-02T12:49:27.543Z</time></trkpt><trkpt lat="49.8530561" lon="1.7517513"><ele>192.0</ele><time>2026-04-02T12:49:30.542Z</time></trkpt><trkpt lat="49.853084" lon="1.7516603"><ele>192.33333333333331</ele><time>2026-04-02T12:49:32.542Z</time></trkpt><trkpt lat="49.8531269" lon="1.7515874"><ele>192.66666666666666</ele><time>2026-04-02T12:49:33.543Z</time></trkpt><trkpt lat="49.8531753" lon="1.7515177"><ele>193.0</ele><time>2026-04-02T12:49:34.543Z</time></trkpt><trkpt lat="49.8532514" lon="1.751383"><ele>192.99999999999997</ele><time>2026-04-02T12:49:36.543Z</time></trkpt><trkpt lat="49.8532092" lon="1.7512255"><ele>193.0</ele><time>2026-04-02T12:49:38.543Z</time></trkpt><trkpt lat="49.8531538" lon="1.7511532"><ele>193.0</ele><time>2026-04-02T12:49:39.543Z</time></trkpt><trkpt lat="49.8530827" lon="1.7510886"><ele>193.0</ele><time>2026-04-02T12:49:40.542Z</time></trkpt><trkpt lat="49.8530027" lon="1.7510206"><ele>192.99999999999997</ele><time>2026-04-02T12:49:41.543Z</time></trkpt><trkpt lat="49.8529219" lon="1.7509607"><ele>193.0</ele><time>2026-04-02T12:49:42.542Z</time></trkpt><trkpt lat="49.8528404" lon="1.7509035"><ele>193.16666666666666</ele><time>2026-04-02T12:49:43.542Z</time></trkpt><trkpt lat="49.8527592" lon="1.7508445"><ele>193.33333333333331</ele><time>2026-04-02T12:49:44.543Z</time></trkpt><trkpt lat="49.8526829" lon="1.7507845"><ele>193.5</ele><time>2026-04-02T12:49:45.542Z</time></trkpt><trkpt lat="49.852611" lon="1.7507316"><ele>193.66666666666669</ele><time>2026-04-02T12:49:46.542Z</time></trkpt><trkpt lat="49.852541" lon="1.7506833"><ele>193.83333333333334</ele><time>2026-04-02T12:49:47.542Z</time></trkpt><trkpt lat="49.8524746" lon="1.7506299"><ele>194.0</ele><time>2026-04-02T12:49:48.543Z</time></trkpt><trkpt lat="49.8524101" lon="1.7505782"><ele>194.00000000000003</ele><time>2026-04-02T12:49:49.542Z</time></trkpt><trkpt lat="49.8523533" lon="1.7505183"><ele>194.0</ele><time>2026-04-02T12:49:50.542Z</time></trkpt><trkpt lat="49.8523157" lon="1.7504362"><ele>194.0</ele><time>2026-04-02T12:49:51.542Z</time></trkpt><trkpt lat="49.8522972" lon="1.7503257"><ele>194.0</ele><time>2026-04-02T12:49:52.542Z</time></trkpt><trkpt lat="49.8522845" lon="1.7502084"><ele>194.00000000000003</ele><time>2026-04-02T12:49:53.542Z</time></trkpt><trkpt lat="49.8522734" lon="1.7500792"><ele>194.0</ele><time>2026-04-02T12:49:54.542Z</time></trkpt><trkpt lat="49.8522624" lon="1.7499416"><ele>194.2</ele><time>2026-04-02T12:49:55.542Z</time></trkpt><trkpt lat="49.8522543" lon="1.7498015"><ele>194.39999999999998</ele><time>2026-04-02T12:49:56.543Z</time></trkpt><trkpt lat="49.8522446" lon="1.7496597"><ele>194.6</ele><time>2026-04-02T12:49:57.542Z</time></trkpt><trkpt lat="49.8522351" lon="1.7495089"><ele>194.8</ele><time>2026-04-02T12:49:58.541Z</time></trkpt><trkpt lat="49.8522231" lon="1.7493551"><ele>195.0</ele><time>2026-04-02T12:49:59.542Z</time></trkpt><trkpt lat="49.8522109" lon="1.749198"><ele>195.0</ele><time>2026-04-02T12:50:00.542Z</time></trkpt><trkpt lat="49.8522017" lon="1.7490378"><ele>195.0</ele><time>2026-04-02T12:50:01.542Z</time></trkpt><trkpt lat="49.8521927" lon="1.7488742"><ele>195.0</ele><time>2026-04-02T12:50:02.543Z</time></trkpt><trkpt lat="49.8521812" lon="1.7487138"><ele>195.0</ele><time>2026-04-02T12:50:03.542Z</time></trkpt><trkpt lat="49.8521717" lon="1.7485497"><ele>195.0</ele><time>2026-04-02T12:50:04.542Z</time></trkpt><trkpt lat="49.8521596" lon="1.7483859"><ele>195.0</ele><time>2026-04-02T12:50:05.542Z</time></trkpt><trkpt lat="49.8521472" lon="1.7482218"><ele>195.0</ele><time>2026-04-02T12:50:06.542Z</time></trkpt><trkpt lat="49.8521344" lon="1.7480581"><ele>195.0</ele><time>2026-04-02T12:50:07.541Z</time></trkpt><trkpt lat="49.8521222" lon="1.7478943"><ele>195.0</ele><time>2026-04-02T12:50:08.542Z</time></trkpt><trkpt lat="49.8521086" lon="1.7477281"><ele>195.0</ele><time>2026-04-02T12:50:09.543Z</time></trkpt><trkpt lat="49.8520941" lon="1.7475572"><ele>195.0</ele><time>2026-04-02T12:50:10.542Z</time></trkpt><trkpt lat="49.8520806" lon="1.7473866"><ele>195.0</ele><time>2026-04-02T12:50:11.542Z</time></trkpt><trkpt lat="49.8520662" lon="1.7472137"><ele>195.0</ele><time>2026-04-02T12:50:12.541Z</time></trkpt><trkpt lat="49.8520533" lon="1.7470459"><ele>195.0</ele><time>2026-04-02T12:50:13.542Z</time></trkpt><trkpt lat="49.8520396" lon="1.7468754"><ele>195.0</ele><time>2026-04-02T12:50:14.542Z</time></trkpt><trkpt lat="49.8520272" lon="1.746705"><ele>194.66666666666669</ele><time>2026-04-02T12:50:15.542Z</time></trkpt><trkpt lat="49.8520147" lon="1.7465359"><ele>194.33333333333334</ele><time>2026-04-02T12:50:16.541Z</time></trkpt><trkpt lat="49.8520036" lon="1.7463698"><ele>194.0</ele><time>2026-04-02T12:50:17.542Z</time></trkpt><trkpt lat="49.8519798" lon="1.746006"><ele>194.0</ele><time>2026-04-02T12:50:19.541Z</time></trkpt><trkpt lat="49.8519527" lon="1.7455754"><ele>194.0</ele><time>2026-04-02T12:50:21.543Z</time></trkpt><trkpt lat="49.8519339" lon="1.745344"><ele>194.0</ele><time>2026-04-02T12:50:22.542Z</time></trkpt><trkpt lat="49.8519192" lon="1.7451005"><ele>194.0</ele><time>2026-04-02T12:50:23.542Z</time></trkpt><trkpt lat="49.8519026" lon="1.7448492"><ele>194.0</ele><time>2026-04-02T12:50:24.543Z</time></trkpt><trkpt lat="49.8518884" lon="1.7445915"><ele>194.0</ele><time>2026-04-02T12:50:25.542Z</time></trkpt><trkpt lat="49.8518723" lon="1.7443237"><ele>194.33333333333334</ele><time>2026-04-02T12:50:26.541Z</time></trkpt><trkpt lat="49.8518555" lon="1.744052"><ele>194.66666666666669</ele><time>2026-04-02T12:50:27.542Z</time></trkpt><trkpt lat="49.8518358" lon="1.7437731"><ele>195.0</ele><time>2026-04-02T12:50:28.543Z</time></trkpt><trkpt lat="49.8518159" lon="1.7434903"><ele>195.0</ele><time>2026-04-02T12:50:29.542Z</time></trkpt><trkpt lat="49.8517978" lon="1.7431991"><ele>195.0</ele><time>2026-04-02T12:50:30.543Z</time></trkpt><trkpt lat="49.8517782" lon="1.742908"><ele>195.0</ele><time>2026-04-02T12:50:31.542Z</time></trkpt><trkpt lat="49.8517591" lon="1.7426297"><ele>195.25</ele><time>2026-04-02T12:50:32.542Z</time></trkpt><trkpt lat="49.8517435" lon="1.7423821"><ele>195.5</ele><time>2026-04-02T12:50:33.542Z</time></trkpt><trkpt lat="49.8517322" lon="1.742158"><ele>195.75</ele><time>2026-04-02T12:50:34.542Z</time></trkpt><trkpt lat="49.8517203" lon="1.7419527"><ele>196.0</ele><time>2026-04-02T12:50:35.543Z</time></trkpt><trkpt lat="49.8517099" lon="1.7417807"><ele>196.0</ele><time>2026-04-02T12:50:36.542Z</time></trkpt><trkpt lat="49.8516975" lon="1.7416247"><ele>196.0</ele><time>2026-04-02T12:50:37.542Z</time></trkpt><trkpt lat="49.8516805" lon="1.7414367"><ele>196.0</ele><time>2026-04-02T12:50:38.541Z</time></trkpt><trkpt lat="49.8516662" lon="1.7412366"><ele>196.0</ele><time>2026-04-02T12:50:39.542Z</time></trkpt><trkpt lat="49.8516549" lon="1.7410202"><ele>195.66666666666666</ele><time>2026-04-02T12:50:40.542Z</time></trkpt><trkpt lat="49.8516416" lon="1.740791"><ele>195.33333333333331</ele><time>2026-04-02T12:50:41.542Z</time></trkpt><trkpt lat="49.8516274" lon="1.7405509"><ele>195.0</ele><time>2026-04-02T12:50:42.542Z</time></trkpt><trkpt lat="49.8516157" lon="1.7403032"><ele>194.66666666666669</ele><time>2026-04-02T12:50:43.541Z</time></trkpt><trkpt lat="49.851613" lon="1.7400467"><ele>194.33333333333334</ele><time>2026-04-02T12:50:44.542Z</time></trkpt><trkpt lat="49.8516266" lon="1.7397839"><ele>194.0</ele><time>2026-04-02T12:50:45.542Z</time></trkpt><trkpt lat="49.8516499" lon="1.7395171"><ele>194.0</ele><time>2026-04-02T12:50:46.542Z</time></trkpt><trkpt lat="49.8516687" lon="1.739245"><ele>194.0</ele><time>2026-04-02T12:50:47.543Z</time></trkpt><trkpt lat="49.8516844" lon="1.7389759"><ele>194.0</ele><time>2026-04-02T12:50:48.542Z</time></trkpt><trkpt lat="49.8517016" lon="1.7387122"><ele>194.0</ele><time>2026-04-02T12:50:49.543Z</time></trkpt><trkpt lat="49.8517179" lon="1.7384534"><ele>194.0</ele><time>2026-04-02T12:50:50.543Z</time></trkpt><trkpt lat="49.851732" lon="1.7382052"><ele>194.0</ele><time>2026-04-02T12:50:51.543Z</time></trkpt><trkpt lat="49.8517467" lon="1.7379693"><ele>194.0</ele><time>2026-04-02T12:50:52.543Z</time></trkpt><trkpt lat="49.8517626" lon="1.7377334"><ele>194.0</ele><time>2026-04-02T12:50:53.543Z</time></trkpt><trkpt lat="49.851775" lon="1.7374874"><ele>194.0</ele><time>2026-04-02T12:50:54.541Z</time></trkpt><trkpt lat="49.8517854" lon="1.7372369"><ele>194.0</ele><time>2026-04-02T12:50:55.542Z</time></trkpt><trkpt lat="49.8517998" lon="1.7369923"><ele>194.0</ele><time>2026-04-02T12:50:56.542Z</time></trkpt><trkpt lat="49.8518127" lon="1.7367672"><ele>194.0</ele><time>2026-04-02T12:50:57.542Z</time></trkpt><trkpt lat="49.8518298" lon="1.7365507"><ele>194.0</ele><time>2026-04-02T12:50:58.543Z</time></trkpt><trkpt lat="49.8518492" lon="1.7363447"><ele>194.0</ele><time>2026-04-02T12:50:59.543Z</time></trkpt><trkpt lat="49.8518713" lon="1.7361589"><ele>194.0</ele><time>2026-04-02T12:51:00.542Z</time></trkpt><trkpt lat="49.8518901" lon="1.735999"><ele>194.0</ele><time>2026-04-02T12:51:01.543Z</time></trkpt><trkpt lat="49.8518959" lon="1.7358773"><ele>194.0</ele><time>2026-04-02T12:51:02.542Z</time></trkpt><trkpt lat="49.8518948" lon="1.7357316"><ele>194.0</ele><time>2026-04-02T12:51:04.542Z</time></trkpt><trkpt lat="49.85193" lon="1.7356316"><ele>194.00000000000003</ele><time>2026-04-02T12:51:06.542Z</time></trkpt><trkpt lat="49.8520022" lon="1.7355174"><ele>194.0</ele><time>2026-04-02T12:51:08.543Z</time></trkpt><trkpt lat="49.852045" lon="1.735434"><ele>194.0</ele><time>2026-04-02T12:51:09.543Z</time></trkpt><trkpt lat="49.8520998" lon="1.735327"><ele>194.0</ele><time>2026-04-02T12:51:10.543Z</time></trkpt><trkpt lat="49.8521458" lon="1.7352318"><ele>194.00000000000003</ele><time>2026-04-02T12:51:11.542Z</time></trkpt><trkpt lat="49.8521863" lon="1.7351307"><ele>194.0</ele><time>2026-04-02T12:51:12.543Z</time></trkpt><trkpt lat="49.8522327" lon="1.7350253"><ele>194.00000000000003</ele><time>2026-04-02T12:51:13.542Z</time></trkpt><trkpt lat="49.8522687" lon="1.7349186"><ele>194.0</ele><time>2026-04-02T12:51:14.542Z</time></trkpt><trkpt lat="49.8523036" lon="1.7348249"><ele>194.0</ele><time>2026-04-02T12:51:15.542Z</time></trkpt><trkpt lat="49.8523627" lon="1.734689"><ele>194.0</ele><time>2026-04-02T12:51:16.542Z</time></trkpt><trkpt lat="49.8524091" lon="1.734572"><ele>194.00000000000003</ele><time>2026-04-02T12:51:17.542Z</time></trkpt><trkpt lat="49.852446" lon="1.7344523"><ele>194.0</ele><time>2026-04-02T12:51:18.542Z</time></trkpt><trkpt lat="49.8524844" lon="1.734319"><ele>194.00000000000003</ele><time>2026-04-02T12:51:19.541Z</time></trkpt><trkpt lat="49.8525178" lon="1.7342096"><ele>194.0</ele><time>2026-04-02T12:51:20.542Z</time></trkpt><trkpt lat="49.8525399" lon="1.7340922"><ele>194.0</ele><time>2026-04-02T12:51:21.542Z</time></trkpt><trkpt lat="49.8525812" lon="1.7339855"><ele>194.0</ele><time>2026-04-02T12:51:22.542Z</time></trkpt><trkpt lat="49.8526033" lon="1.7338573"><ele>194.00000000000003</ele><time>2026-04-02T12:51:23.543Z</time></trkpt><trkpt lat="49.8526272" lon="1.7337186"><ele>194.0</ele><time>2026-04-02T12:51:24.542Z</time></trkpt><trkpt lat="49.8526521" lon="1.7335778"><ele>195.00000000000003</ele><time>2026-04-02T12:51:25.542Z</time></trkpt><trkpt lat="49.8526926" lon="1.7334593"><ele>196.0</ele><time>2026-04-02T12:51:26.543Z</time></trkpt><trkpt lat="49.852721" lon="1.7333655"><ele>197.0</ele><time>2026-04-02T12:51:27.543Z</time></trkpt><trkpt lat="49.8527425" lon="1.733258"><ele>198.0</ele><time>2026-04-02T12:51:28.542Z</time></trkpt><trkpt lat="49.8527826" lon="1.7331324"><ele>199.00000000000003</ele><time>2026-04-02T12:51:29.542Z</time></trkpt><trkpt lat="49.8528404" lon="1.7330252"><ele>200.0</ele><time>2026-04-02T12:51:30.542Z</time></trkpt><trkpt lat="49.8528895" lon="1.7329353"><ele>200.0</ele><time>2026-04-02T12:51:31.542Z</time></trkpt><trkpt lat="49.8529363" lon="1.7328528"><ele>200.0</ele><time>2026-04-02T12:51:32.542Z</time></trkpt><trkpt lat="49.8530057" lon="1.7326883"><ele>200.0</ele><time>2026-04-02T12:51:34.542Z</time></trkpt><trkpt lat="49.8530396" lon="1.7326043"><ele>200.0</ele><time>2026-04-02T12:51:35.542Z</time></trkpt><trkpt lat="49.8531367" lon="1.7324645"><ele>200.0</ele><time>2026-04-02T12:51:37.542Z</time></trkpt><trkpt lat="49.8531972" lon="1.7323726"><ele>197.16666666666669</ele><time>2026-04-02T12:51:38.542Z</time></trkpt><trkpt lat="49.8532525" lon="1.7322949"><ele>194.33333333333334</ele><time>2026-04-02T12:51:39.543Z</time></trkpt><trkpt lat="49.8532942" lon="1.7322045"><ele>191.5</ele><time>2026-04-02T12:51:40.543Z</time></trkpt><trkpt lat="49.8533366" lon="1.7321258"><ele>188.66666666666669</ele><time>2026-04-02T12:51:41.543Z</time></trkpt><trkpt lat="49.8533843" lon="1.7320558"><ele>185.83333333333334</ele><time>2026-04-02T12:51:42.542Z</time></trkpt><trkpt lat="49.8534487" lon="1.7318955"><ele>183.0</ele><time>2026-04-02T12:51:44.543Z</time></trkpt><trkpt lat="49.8535066" lon="1.7317422"><ele>182.0</ele><time>2026-04-02T12:51:46.542Z</time></trkpt><trkpt lat="49.8535566" lon="1.7316424"><ele>181.0</ele><time>2026-04-02T12:51:47.543Z</time></trkpt><trkpt lat="49.8535892" lon="1.7315389"><ele>180.0</ele><time>2026-04-02T12:51:48.543Z</time></trkpt><trkpt lat="49.853638" lon="1.7314397"><ele>179.0</ele><time>2026-04-02T12:51:49.542Z</time></trkpt><trkpt lat="49.8536811" lon="1.7313591"><ele>178.0</ele><time>2026-04-02T12:51:50.542Z</time></trkpt><trkpt lat="49.8537296" lon="1.7312897"><ele>177.0</ele><time>2026-04-02T12:51:51.543Z</time></trkpt><trkpt lat="49.8538039" lon="1.7311422"><ele>174.0</ele><time>2026-04-02T12:51:53.542Z</time></trkpt><trkpt lat="49.8538442" lon="1.7310505"><ele>171.0</ele><time>2026-04-02T12:51:54.542Z</time></trkpt><trkpt lat="49.8538808" lon="1.7309637"><ele>168.0</ele><time>2026-04-02T12:51:55.543Z</time></trkpt><trkpt lat="49.8539047" lon="1.7308724"><ele>165.0</ele><time>2026-04-02T12:51:56.543Z</time></trkpt><trkpt lat="49.8539306" lon="1.7307799"><ele>162.0</ele><time>2026-04-02T12:51:57.542Z</time></trkpt><trkpt lat="49.8539592" lon="1.730691"><ele>159.0</ele><time>2026-04-02T12:51:58.541Z</time></trkpt><trkpt lat="49.8539937" lon="1.730593"><ele>156.0</ele><time>2026-04-02T12:51:59.541Z</time></trkpt><trkpt lat="49.854028" lon="1.7305003"><ele>156.0</ele><time>2026-04-02T12:52:00.543Z</time></trkpt><trkpt lat="49.8540656" lon="1.7303934"><ele>156.0</ele><time>2026-04-02T12:52:01.542Z</time></trkpt><trkpt lat="49.8541128" lon="1.7303136"><ele>156.0</ele><time>2026-04-02T12:52:02.542Z</time></trkpt><trkpt lat="49.8541374" lon="1.730197"><ele>156.0</ele><time>2026-04-02T12:52:03.541Z</time></trkpt><trkpt lat="49.8541705" lon="1.7300825"><ele>156.0</ele><time>2026-04-02T12:52:04.542Z</time></trkpt><trkpt lat="49.8541993" lon="1.7299746"><ele>156.0</ele><time>2026-04-02T12:52:05.542Z</time></trkpt><trkpt lat="49.8542225" lon="1.7298653"><ele>155.14285714285714</ele><time>2026-04-02T12:52:06.542Z</time></trkpt><trkpt lat="49.8542473" lon="1.7297681"><ele>154.28571428571428</ele><time>2026-04-02T12:52:07.542Z</time></trkpt><trkpt lat="49.8542713" lon="1.729671"><ele>153.42857142857142</ele><time>2026-04-02T12:52:08.542Z</time></trkpt><trkpt lat="49.8542919" lon="1.7295736"><ele>152.57142857142856</ele><time>2026-04-02T12:52:09.543Z</time></trkpt><trkpt lat="49.8543052" lon="1.7294763"><ele>151.71428571428572</ele><time>2026-04-02T12:52:10.542Z</time></trkpt><trkpt lat="49.8542857" lon="1.7293745"><ele>150.85714285714283</ele><time>2026-04-02T12:52:11.542Z</time></trkpt><trkpt lat="49.8542956" lon="1.7292678"><ele>150.0</ele><time>2026-04-02T12:52:12.542Z</time></trkpt><trkpt lat="49.8543036" lon="1.729154"><ele>147.0</ele><time>2026-04-02T12:52:13.542Z</time></trkpt><trkpt lat="49.854324" lon="1.7290283"><ele>144.0</ele><time>2026-04-02T12:52:14.541Z</time></trkpt><trkpt lat="49.8543528" lon="1.7288981"><ele>141.0</ele><time>2026-04-02T12:52:15.542Z</time></trkpt><trkpt lat="49.8543904" lon="1.7287715"><ele>138.0</ele><time>2026-04-02T12:52:16.543Z</time></trkpt><trkpt lat="49.8544307" lon="1.7286588"><ele>135.0</ele><time>2026-04-02T12:52:17.542Z</time></trkpt><trkpt lat="49.854482" lon="1.728549"><ele>132.0</ele><time>2026-04-02T12:52:18.543Z</time></trkpt><trkpt lat="49.8545415" lon="1.7284374"><ele>130.0</ele><time>2026-04-02T12:52:19.543Z</time></trkpt><trkpt lat="49.8546111" lon="1.7283264"><ele>127.99999999999999</ele><time>2026-04-02T12:52:20.542Z</time></trkpt><trkpt lat="49.8546801" lon="1.7282104"><ele>125.99999999999999</ele><time>2026-04-02T12:52:21.542Z</time></trkpt><trkpt lat="49.8547511" lon="1.7281001"><ele>124.0</ele><time>2026-04-02T12:52:22.543Z</time></trkpt><trkpt lat="49.8548218" lon="1.7279882"><ele>122.0</ele><time>2026-04-02T12:52:23.541Z</time></trkpt><trkpt lat="49.8548863" lon="1.727863"><ele>122.0</ele><time>2026-04-02T12:52:24.541Z</time></trkpt><trkpt lat="49.8549436" lon="1.727739"><ele>121.99999999999999</ele><time>2026-04-02T12:52:25.543Z</time></trkpt><trkpt lat="49.8550026" lon="1.7276135"><ele>121.99999999999999</ele><time>2026-04-02T12:52:26.542Z</time></trkpt><trkpt lat="49.8550522" lon="1.7274875"><ele>122.0</ele><time>2026-04-02T12:52:27.542Z</time></trkpt><trkpt lat="49.8551002" lon="1.7273567"><ele>122.0</ele><time>2026-04-02T12:52:28.543Z</time></trkpt><trkpt lat="49.8551425" lon="1.7272276"><ele>120.49999999999999</ele><time>2026-04-02T12:52:29.542Z</time></trkpt><trkpt lat="49.8551842" lon="1.7271025"><ele>119.0</ele><time>2026-04-02T12:52:30.542Z</time></trkpt><trkpt lat="49.8552226" lon="1.7269806"><ele>117.5</ele><time>2026-04-02T12:52:31.542Z</time></trkpt><trkpt lat="49.8552645" lon="1.7268603"><ele>116.0</ele><time>2026-04-02T12:52:32.542Z</time></trkpt><trkpt lat="49.8553065" lon="1.7267499"><ele>114.49999999999999</ele><time>2026-04-02T12:52:33.542Z</time></trkpt><trkpt lat="49.8553487" lon="1.7266462"><ele>113.0</ele><time>2026-04-02T12:52:34.542Z</time></trkpt><trkpt lat="49.8553898" lon="1.726554"><ele>112.0</ele><time>2026-04-02T12:52:35.542Z</time></trkpt><trkpt lat="49.8554278" lon="1.7264644"><ele>111.0</ele><time>2026-04-02T12:52:36.542Z</time></trkpt><trkpt lat="49.8554694" lon="1.726386"><ele>110.0</ele><time>2026-04-02T12:52:37.543Z</time></trkpt><trkpt lat="49.8555375" lon="1.7262576"><ele>109.0</ele><time>2026-04-02T12:52:39.541Z</time></trkpt><trkpt lat="49.8555628" lon="1.7261636"><ele>108.0</ele><time>2026-04-02T12:52:41.542Z</time></trkpt><trkpt lat="49.8555768" lon="1.7260623"><ele>107.0</ele><time>2026-04-02T12:52:43.542Z</time></trkpt><trkpt lat="49.855587" lon="1.7259607"><ele>106.0</ele><time>2026-04-02T12:52:44.543Z</time></trkpt><trkpt lat="49.8555987" lon="1.7258157"><ele>104.8</ele><time>2026-04-02T12:52:45.543Z</time></trkpt><trkpt lat="49.8556045" lon="1.7256617"><ele>103.6</ele><time>2026-04-02T12:52:46.542Z</time></trkpt><trkpt lat="49.8556064" lon="1.7254996"><ele>102.4</ele><time>2026-04-02T12:52:47.541Z</time></trkpt><trkpt lat="49.8556044" lon="1.7253262"><ele>101.2</ele><time>2026-04-02T12:52:48.542Z</time></trkpt><trkpt lat="49.8556016" lon="1.7251492"><ele>100.0</ele><time>2026-04-02T12:52:49.542Z</time></trkpt><trkpt lat="49.8556059" lon="1.7249573"><ele>98.25</ele><time>2026-04-02T12:52:50.542Z</time></trkpt><trkpt lat="49.8556105" lon="1.7247379"><ele>96.5</ele><time>2026-04-02T12:52:51.543Z</time></trkpt><trkpt lat="49.8556154" lon="1.7245156"><ele>94.75</ele><time>2026-04-02T12:52:52.543Z</time></trkpt><trkpt lat="49.8556168" lon="1.7242901"><ele>93.0</ele><time>2026-04-02T12:52:53.542Z</time></trkpt><trkpt lat="49.8556197" lon="1.7240643"><ele>92.0</ele><time>2026-04-02T12:52:54.542Z</time></trkpt><trkpt lat="49.8556216" lon="1.7238371"><ele>91.0</ele><time>2026-04-02T12:52:55.543Z</time></trkpt><trkpt lat="49.8556216" lon="1.7236125"><ele>90.0</ele><time>2026-04-02T12:52:56.542Z</time></trkpt><trkpt lat="49.8556228" lon="1.7234007"><ele>89.0</ele><time>2026-04-02T12:52:57.542Z</time></trkpt><trkpt lat="49.8556249" lon="1.7231956"><ele>87.75</ele><time>2026-04-02T12:52:58.541Z</time></trkpt><trkpt lat="49.8556264" lon="1.7229945"><ele>86.5</ele><time>2026-04-02T12:52:59.542Z</time></trkpt><trkpt lat="49.8556274" lon="1.7227972"><ele>85.25</ele><time>2026-04-02T12:53:00.542Z</time></trkpt><trkpt lat="49.8556286" lon="1.7226104"><ele>84.0</ele><time>2026-04-02T12:53:01.542Z</time></trkpt><trkpt lat="49.8556297" lon="1.7224522"><ele>83.16666666666667</ele><time>2026-04-02T12:53:02.542Z</time></trkpt><trkpt lat="49.85563" lon="1.7222977"><ele>82.33333333333333</ele><time>2026-04-02T12:53:03.542Z</time></trkpt><trkpt lat="49.8556238" lon="1.7221572"><ele>81.5</ele><time>2026-04-02T12:53:04.543Z</time></trkpt><trkpt lat="49.8556102" lon="1.7220284"><ele>80.66666666666666</ele><time>2026-04-02T12:53:05.542Z</time></trkpt><trkpt lat="49.8555884" lon="1.7219183"><ele>79.83333333333333</ele><time>2026-04-02T12:53:06.542Z</time></trkpt><trkpt lat="49.8555564" lon="1.7218327"><ele>79.0</ele><time>2026-04-02T12:53:07.543Z</time></trkpt><trkpt lat="49.8554871" lon="1.7217225"><ele>78.57142857142858</ele><time>2026-04-02T12:53:09.542Z</time></trkpt><trkpt lat="49.8554448" lon="1.7216476"><ele>78.14285714285714</ele><time>2026-04-02T12:53:14.541Z</time></trkpt><trkpt lat="49.8554891" lon="1.7217223"><ele>77.71428571428572</ele><time>2026-04-02T12:53:26.543Z</time></trkpt><trkpt lat="49.8555452" lon="1.7216627"><ele>77.28571428571429</ele><time>2026-04-02T12:54:54.543Z</time></trkpt><trkpt lat="49.8556042" lon="1.7216099"><ele>76.85714285714286</ele><time>2026-04-02T12:55:03.544Z</time></trkpt><trkpt lat="49.8556584" lon="1.7215284"><ele>76.42857142857143</ele><time>2026-04-02T12:55:08.543Z</time></trkpt><trkpt lat="49.8556605" lon="1.7214035"><ele>76.0</ele><time>2026-04-02T12:55:19.543Z</time></trkpt><trkpt lat="49.8556527" lon="1.7212681"><ele>76.0</ele><time>2026-04-02T12:55:21.543Z</time></trkpt><trkpt lat="49.8556469" lon="1.7211222"><ele>76.0</ele><time>2026-04-02T12:55:22.543Z</time></trkpt><trkpt lat="49.8556286" lon="1.7209276"><ele>76.0</ele><time>2026-04-02T12:55:24.543Z</time></trkpt><trkpt lat="49.8556283" lon="1.7208145"><ele>76.0</ele><time>2026-04-02T12:55:25.543Z</time></trkpt><trkpt lat="49.8556273" lon="1.7206203"><ele>76.0</ele><time>2026-04-02T12:55:27.543Z</time></trkpt><trkpt lat="49.8556308" lon="1.7205114"><ele>75.83333333333333</ele><time>2026-04-02T12:55:28.543Z</time></trkpt><trkpt lat="49.8556367" lon="1.7203873"><ele>75.66666666666666</ele><time>2026-04-02T12:55:30.543Z</time></trkpt><trkpt lat="49.8555931" lon="1.7202746"><ele>75.5</ele><time>2026-04-02T12:55:33.542Z</time></trkpt><trkpt lat="49.8556224" lon="1.7201579"><ele>75.33333333333333</ele><time>2026-04-02T12:55:35.543Z</time></trkpt><trkpt lat="49.8556231" lon="1.720051"><ele>75.16666666666667</ele><time>2026-04-02T12:55:37.543Z</time></trkpt><trkpt lat="49.8556233" lon="1.7198928"><ele>75.0</ele><time>2026-04-02T12:55:39.544Z</time></trkpt><trkpt lat="49.8556374" lon="1.71973"><ele>75.8</ele><time>2026-04-02T12:55:41.543Z</time></trkpt><trkpt lat="49.8556635" lon="1.7195774"><ele>76.6</ele><time>2026-04-02T12:55:43.543Z</time></trkpt><trkpt lat="49.8556618" lon="1.7193848"><ele>77.4</ele><time>2026-04-02T12:55:45.542Z</time></trkpt><trkpt lat="49.855661" lon="1.719285"><ele>78.2</ele><time>2026-04-02T12:55:46.543Z</time></trkpt><trkpt lat="49.8556659" lon="1.7191847"><ele>79.0</ele><time>2026-04-02T12:55:47.543Z</time></trkpt><trkpt lat="49.8556774" lon="1.719005"><ele>79.0</ele><time>2026-04-02T12:55:49.543Z</time></trkpt><trkpt lat="49.8557479" lon="1.7188793"><ele>79.0</ele><time>2026-04-02T12:55:51.543Z</time></trkpt><trkpt lat="49.8558644" lon="1.7188492"><ele>79.0</ele><time>2026-04-02T12:55:53.543Z</time></trkpt><trkpt lat="49.8559272" lon="1.7188346"><ele>79.0</ele><time>2026-04-02T12:55:54.543Z</time></trkpt><trkpt lat="49.8559998" lon="1.7188473"><ele>79.0</ele><time>2026-04-02T12:55:55.543Z</time></trkpt><trkpt lat="49.856067" lon="1.7188391"><ele>79.0</ele><time>2026-04-02T12:55:56.543Z</time></trkpt><trkpt lat="49.8561558" lon="1.7188357"><ele>79.00000000000001</ele><time>2026-04-02T12:55:58.543Z</time></trkpt><trkpt lat="49.8562193" lon="1.7188464"><ele>79.0</ele><time>2026-04-02T12:56:00.543Z</time></trkpt><trkpt lat="49.8562904" lon="1.7188505"><ele>79.0</ele><time>2026-04-02T12:56:04.543Z</time></trkpt><trkpt lat="49.8563529" lon="1.7188642"><ele>79.0</ele><time>2026-04-02T12:56:21.543Z</time></trkpt><trkpt lat="49.8563725" lon="1.7189782"><ele>79.0</ele><time>2026-04-02T12:56:25.542Z</time></trkpt><trkpt lat="49.8564218" lon="1.7189083"><ele>79.00000000000001</ele><time>2026-04-02T12:56:29.544Z</time></trkpt><trkpt lat="49.8563824" lon="1.7190193"><ele>79.0</ele><time>2026-04-02T12:56:40.543Z</time></trkpt><trkpt lat="49.8563663" lon="1.7189135"><ele>79.0</ele><time>2026-04-02T12:56:48.543Z</time></trkpt><trkpt lat="49.856366" lon="1.7188079"><ele>79.0</ele><time>2026-04-02T12:56:54.543Z</time></trkpt><trkpt lat="49.8562882" lon="1.7188149"><ele>79.0</ele><time>2026-04-02T12:57:29.543Z</time></trkpt><trkpt lat="49.8562124" lon="1.7188056"><ele>79.0</ele><time>2026-04-02T12:57:51.543Z</time></trkpt><trkpt lat="49.8561325" lon="1.7188151"><ele>79.0</ele><time>2026-04-02T12:57:54.543Z</time></trkpt><trkpt lat="49.8560268" lon="1.7188176"><ele>79.0</ele><time>2026-04-02T12:57:56.542Z</time></trkpt><trkpt lat="49.8559441" lon="1.7188271"><ele>79.4</ele><time>2026-04-02T12:57:58.543Z</time></trkpt><trkpt lat="49.8558402" lon="1.7188337"><ele>79.80000000000001</ele><time>2026-04-02T12:58:00.544Z</time></trkpt><trkpt lat="49.8557475" lon="1.7188636"><ele>80.19999999999999</ele><time>2026-04-02T12:58:02.543Z</time></trkpt><trkpt lat="49.8556741" lon="1.7189987"><ele>80.6</ele><time>2026-04-02T12:58:04.543Z</time></trkpt><trkpt lat="49.8556477" lon="1.719146"><ele>81.0</ele><time>2026-04-02T12:58:06.542Z</time></trkpt><trkpt lat="49.8556374" lon="1.7193331"><ele>80.66666666666667</ele><time>2026-04-02T12:58:08.542Z</time></trkpt><trkpt lat="49.8556391" lon="1.7194316"><ele>80.33333333333333</ele><time>2026-04-02T12:58:09.543Z</time></trkpt><trkpt lat="49.8556511" lon="1.719593"><ele>80.0</ele><time>2026-04-02T12:58:11.544Z</time></trkpt><trkpt lat="49.8556508" lon="1.7197627"><ele>79.66666666666666</ele><time>2026-04-02T12:58:13.543Z</time></trkpt><trkpt lat="49.8556431" lon="1.7198722"><ele>79.33333333333333</ele><time>2026-04-02T12:58:14.543Z</time></trkpt><trkpt lat="49.8556395" lon="1.7199927"><ele>79.0</ele><time>2026-04-02T12:58:16.542Z</time></trkpt><trkpt lat="49.8556318" lon="1.7201114"><ele>78.2</ele><time>2026-04-02T12:58:18.543Z</time></trkpt><trkpt lat="49.8556488" lon="1.7202835"><ele>77.4</ele><time>2026-04-02T12:58:20.544Z</time></trkpt><trkpt lat="49.855656" lon="1.7204189"><ele>76.6</ele><time>2026-04-02T12:58:22.544Z</time></trkpt><trkpt lat="49.8556424" lon="1.7205834"><ele>75.8</ele><time>2026-04-02T12:58:24.544Z</time></trkpt><trkpt lat="49.8556368" lon="1.7207668"><ele>75.0</ele><time>2026-04-02T12:58:26.544Z</time></trkpt><trkpt lat="49.8556472" lon="1.720921"><ele>75.0</ele><time>2026-04-02T12:58:28.543Z</time></trkpt><trkpt lat="49.8556453" lon="1.7210301"><ele>75.0</ele><time>2026-04-02T12:58:29.543Z</time></trkpt><trkpt lat="49.8556402" lon="1.7211275"><ele>75.0</ele><time>2026-04-02T12:58:30.543Z</time></trkpt><trkpt lat="49.855643" lon="1.7212641"><ele>75.0</ele><time>2026-04-02T12:58:32.544Z</time></trkpt><trkpt lat="49.8556589" lon="1.7213861"><ele>75.0</ele><time>2026-04-02T12:58:34.544Z</time></trkpt><trkpt lat="49.8556426" lon="1.7215116"><ele>75.0</ele><time>2026-04-02T12:58:39.543Z</time></trkpt><trkpt lat="49.8556006" lon="1.7215959"><ele>75.2</ele><time>2026-04-02T12:58:43.543Z</time></trkpt><trkpt lat="49.8555465" lon="1.7216499"><ele>75.4</ele><time>2026-04-02T12:58:47.543Z</time></trkpt><trkpt lat="49.8554942" lon="1.7217096"><ele>75.6</ele><time>2026-04-02T12:58:51.543Z</time></trkpt><trkpt lat="49.8555166" lon="1.7218119"><ele>75.8</ele><time>2026-04-02T12:58:55.544Z</time></trkpt><trkpt lat="49.8555923" lon="1.7220697"><ele>76.0</ele><time>2026-04-02T12:59:35.543Z</time></trkpt><trkpt lat="49.8556063" lon="1.7222227"><ele>76.75</ele><time>2026-04-02T12:59:36.543Z</time></trkpt><trkpt lat="49.855612" lon="1.7223886"><ele>77.5</ele><time>2026-04-02T12:59:37.543Z</time></trkpt><trkpt lat="49.8556131" lon="1.7225654"><ele>78.25</ele><time>2026-04-02T12:59:38.543Z</time></trkpt><trkpt lat="49.8556124" lon="1.7227567"><ele>79.0</ele><time>2026-04-02T12:59:39.544Z</time></trkpt><trkpt lat="49.8556104" lon="1.7229502"><ele>80.25</ele><time>2026-04-02T12:59:40.543Z</time></trkpt><trkpt lat="49.8556104" lon="1.7231488"><ele>81.5</ele><time>2026-04-02T12:59:41.543Z</time></trkpt><trkpt lat="49.8556044" lon="1.7233552"><ele>82.75</ele><time>2026-04-02T12:59:42.543Z</time></trkpt><trkpt lat="49.8556052" lon="1.7235619"><ele>84.0</ele><time>2026-04-02T12:59:43.543Z</time></trkpt><trkpt lat="49.855607" lon="1.7237709"><ele>85.25</ele><time>2026-04-02T12:59:44.544Z</time></trkpt><trkpt lat="49.8556095" lon="1.7239804"><ele>86.5</ele><time>2026-04-02T12:59:45.543Z</time></trkpt><trkpt lat="49.8556104" lon="1.7241952"><ele>87.75</ele><time>2026-04-02T12:59:46.543Z</time></trkpt><trkpt lat="49.8556087" lon="1.7244101"><ele>89.0</ele><time>2026-04-02T12:59:47.544Z</time></trkpt><trkpt lat="49.8556085" lon="1.7246268"><ele>90.0</ele><time>2026-04-02T12:59:48.543Z</time></trkpt><trkpt lat="49.855608" lon="1.7248436"><ele>91.0</ele><time>2026-04-02T12:59:49.544Z</time></trkpt><trkpt lat="49.8556046" lon="1.725065"><ele>92.0</ele><time>2026-04-02T12:59:50.543Z</time></trkpt><trkpt lat="49.8556025" lon="1.7252852"><ele>93.0</ele><time>2026-04-02T12:59:51.543Z</time></trkpt><trkpt lat="49.8556011" lon="1.7254744"><ele>94.4</ele><time>2026-04-02T12:59:52.543Z</time></trkpt><trkpt lat="49.8556021" lon="1.7256414"><ele>95.80000000000001</ele><time>2026-04-02T12:59:53.543Z</time></trkpt><trkpt lat="49.8555999" lon="1.7257937"><ele>97.2</ele><time>2026-04-02T12:59:54.544Z</time></trkpt><trkpt lat="49.8555928" lon="1.7259142"><ele>98.6</ele><time>2026-04-02T12:59:55.543Z</time></trkpt><trkpt lat="49.8555233" lon="1.7260596"><ele>100.0</ele><time>2026-04-02T12:59:57.543Z</time></trkpt><trkpt lat="49.8554474" lon="1.7260974"><ele>101.5</ele><time>2026-04-02T12:59:58.543Z</time></trkpt><trkpt lat="49.8553538" lon="1.7261142"><ele>103.0</ele><time>2026-04-02T12:59:59.544Z</time></trkpt><trkpt lat="49.8552446" lon="1.7261313"><ele>104.5</ele><time>2026-04-02T13:00:00.542Z</time></trkpt><trkpt lat="49.8551206" lon="1.7261524"><ele>106.0</ele><time>2026-04-02T13:00:01.544Z</time></trkpt><trkpt lat="49.8549813" lon="1.7261748"><ele>106.33333333333334</ele><time>2026-04-02T13:00:02.543Z</time></trkpt><trkpt lat="49.8548364" lon="1.7261949"><ele>106.66666666666666</ele><time>2026-04-02T13:00:03.544Z</time></trkpt><trkpt lat="49.8546852" lon="1.7262197"><ele>107.0</ele><time>2026-04-02T13:00:04.543Z</time></trkpt><trkpt lat="49.8545283" lon="1.7262481"><ele>107.0</ele><time>2026-04-02T13:00:05.543Z</time></trkpt><trkpt lat="49.8543623" lon="1.7262725"><ele>107.0</ele><time>2026-04-02T13:00:06.543Z</time></trkpt><trkpt lat="49.8541946" lon="1.7262972"><ele>107.0</ele><time>2026-04-02T13:00:07.543Z</time></trkpt><trkpt lat="49.8540221" lon="1.7263196"><ele>106.66666666666666</ele><time>2026-04-02T13:00:08.543Z</time></trkpt><trkpt lat="49.8538468" lon="1.7263442"><ele>106.33333333333334</ele><time>2026-04-02T13:00:09.544Z</time></trkpt><trkpt lat="49.8536683" lon="1.7263684"><ele>106.0</ele><time>2026-04-02T13:00:10.543Z</time></trkpt><trkpt lat="49.8534863" lon="1.7263949"><ele>105.66666666666667</ele><time>2026-04-02T13:00:11.543Z</time></trkpt><trkpt lat="49.8533015" lon="1.7264235"><ele>105.33333333333334</ele><time>2026-04-02T13:00:12.543Z</time></trkpt><trkpt lat="49.8531136" lon="1.726449"><ele>105.0</ele><time>2026-04-02T13:00:13.544Z</time></trkpt><trkpt lat="49.8529229" lon="1.7264795"><ele>105.0</ele><time>2026-04-02T13:00:14.543Z</time></trkpt><trkpt lat="49.8527279" lon="1.7265118"><ele>105.0</ele><time>2026-04-02T13:00:15.542Z</time></trkpt><trkpt lat="49.8525289" lon="1.7265407"><ele>105.0</ele><time>2026-04-02T13:00:16.544Z</time></trkpt><trkpt lat="49.8523275" lon="1.72657"><ele>104.33333333333334</ele><time>2026-04-02T13:00:17.543Z</time></trkpt><trkpt lat="49.8521236" lon="1.7266003"><ele>103.66666666666667</ele><time>2026-04-02T13:00:18.543Z</time></trkpt><trkpt lat="49.8519195" lon="1.726629"><ele>103.0</ele><time>2026-04-02T13:00:19.544Z</time></trkpt><trkpt lat="49.8517151" lon="1.7266572"><ele>103.0</ele><time>2026-04-02T13:00:20.544Z</time></trkpt><trkpt lat="49.8515128" lon="1.7266893"><ele>103.0</ele><time>2026-04-02T13:00:21.543Z</time></trkpt><trkpt lat="49.851313" lon="1.7267196"><ele>103.0</ele><time>2026-04-02T13:00:22.543Z</time></trkpt><trkpt lat="49.8511141" lon="1.7267418"><ele>104.0</ele><time>2026-04-02T13:00:23.543Z</time></trkpt><trkpt lat="49.8509153" lon="1.726762"><ele>105.0</ele><time>2026-04-02T13:00:24.543Z</time></trkpt><trkpt lat="49.8507222" lon="1.7267826"><ele>106.0</ele><time>2026-04-02T13:00:25.543Z</time></trkpt><trkpt lat="49.8505357" lon="1.7268057"><ele>106.0</ele><time>2026-04-02T13:00:26.543Z</time></trkpt><trkpt lat="49.8503687" lon="1.7268214"><ele>106.0</ele><time>2026-04-02T13:00:27.543Z</time></trkpt><trkpt lat="49.8502171" lon="1.7268443"><ele>106.0</ele><time>2026-04-02T13:00:28.543Z</time></trkpt><trkpt lat="49.8500747" lon="1.7268872"><ele>109.0</ele><time>2026-04-02T13:00:29.543Z</time></trkpt><trkpt lat="49.8499379" lon="1.72699"><ele>112.0</ele><time>2026-04-02T13:00:30.544Z</time></trkpt><trkpt lat="49.8498116" lon="1.7271251"><ele>115.0</ele><time>2026-04-02T13:00:31.543Z</time></trkpt><trkpt lat="49.8496955" lon="1.7272863"><ele>115.0</ele><time>2026-04-02T13:00:32.543Z</time></trkpt><trkpt lat="49.8495858" lon="1.7274392"><ele>115.0</ele><time>2026-04-02T13:00:33.543Z</time></trkpt><trkpt lat="49.8494699" lon="1.7275715"><ele>115.0</ele><time>2026-04-02T13:00:34.544Z</time></trkpt><trkpt lat="49.8493413" lon="1.7276679"><ele>115.0</ele><time>2026-04-02T13:00:35.543Z</time></trkpt><trkpt lat="49.8491981" lon="1.7277222"><ele>113.0</ele><time>2026-04-02T13:00:36.543Z</time></trkpt><trkpt lat="49.8490428" lon="1.7277263"><ele>111.0</ele><time>2026-04-02T13:00:37.544Z</time></trkpt><trkpt lat="49.8488878" lon="1.7276983"><ele>109.0</ele><time>2026-04-02T13:00:38.542Z</time></trkpt><trkpt lat="49.8487433" lon="1.7276515"><ele>109.0</ele><time>2026-04-02T13:00:39.544Z</time></trkpt><trkpt lat="49.848613" lon="1.7275897"><ele>109.0</ele><time>2026-04-02T13:00:40.542Z</time></trkpt><trkpt lat="49.8484939" lon="1.7275324"><ele>109.0</ele><time>2026-04-02T13:00:41.543Z</time></trkpt><trkpt lat="49.8483804" lon="1.7274762"><ele>109.0</ele><time>2026-04-02T13:00:42.543Z</time></trkpt><trkpt lat="49.8482757" lon="1.7274385"><ele>108.6</ele><time>2026-04-02T13:00:43.544Z</time></trkpt><trkpt lat="49.8481874" lon="1.72741"><ele>108.2</ele><time>2026-04-02T13:00:44.542Z</time></trkpt><trkpt lat="49.8480985" lon="1.7273854"><ele>107.79999999999998</ele><time>2026-04-02T13:00:45.543Z</time></trkpt><trkpt lat="49.8479911" lon="1.7273623"><ele>107.39999999999999</ele><time>2026-04-02T13:00:46.544Z</time></trkpt><trkpt lat="49.8478708" lon="1.7273681"><ele>107.0</ele><time>2026-04-02T13:00:47.543Z</time></trkpt><trkpt lat="49.8477392" lon="1.7274116"><ele>105.66666666666666</ele><time>2026-04-02T13:00:48.542Z</time></trkpt><trkpt lat="49.8476037" lon="1.7275009"><ele>104.33333333333334</ele><time>2026-04-02T13:00:49.543Z</time></trkpt><trkpt lat="49.8474674" lon="1.727627"><ele>103.0</ele><time>2026-04-02T13:00:50.543Z</time></trkpt><trkpt lat="49.847327" lon="1.7277837"><ele>103.0</ele><time>2026-04-02T13:00:51.543Z</time></trkpt><trkpt lat="49.8471797" lon="1.7279478"><ele>103.0</ele><time>2026-04-02T13:00:52.544Z</time></trkpt><trkpt lat="49.8470191" lon="1.7280908"><ele>103.0</ele><time>2026-04-02T13:00:53.542Z</time></trkpt><trkpt lat="49.8468431" lon="1.7281933"><ele>101.33333333333334</ele><time>2026-04-02T13:00:54.544Z</time></trkpt><trkpt lat="49.8466599" lon="1.7282639"><ele>99.66666666666666</ele><time>2026-04-02T13:00:55.543Z</time></trkpt><trkpt lat="49.8464704" lon="1.7283229"><ele>98.0</ele><time>2026-04-02T13:00:56.542Z</time></trkpt><trkpt lat="49.8462782" lon="1.7283819"><ele>98.0</ele><time>2026-04-02T13:00:57.543Z</time></trkpt><trkpt lat="49.8460842" lon="1.7284456"><ele>98.0</ele><time>2026-04-02T13:00:58.542Z</time></trkpt><trkpt lat="49.8458869" lon="1.7285022"><ele>98.0</ele><time>2026-04-02T13:00:59.543Z</time></trkpt><trkpt lat="49.8456864" lon="1.7285568"><ele>99.0</ele><time>2026-04-02T13:01:00.543Z</time></trkpt><trkpt lat="49.8454843" lon="1.7286065"><ele>100.0</ele><time>2026-04-02T13:01:01.543Z</time></trkpt><trkpt lat="49.8452812" lon="1.7286489"><ele>101.0</ele><time>2026-04-02T13:01:02.543Z</time></trkpt><trkpt lat="49.8450789" lon="1.7286642"><ele>101.66666666666666</ele><time>2026-04-02T13:01:03.544Z</time></trkpt><trkpt lat="49.8448753" lon="1.7286609"><ele>102.33333333333334</ele><time>2026-04-02T13:01:04.543Z</time></trkpt><trkpt lat="49.8446705" lon="1.728653"><ele>103.0</ele><time>2026-04-02T13:01:05.543Z</time></trkpt><trkpt lat="49.8444677" lon="1.7286402"><ele>103.66666666666667</ele><time>2026-04-02T13:01:06.543Z</time></trkpt><trkpt lat="49.8442704" lon="1.7286321"><ele>104.33333333333334</ele><time>2026-04-02T13:01:07.543Z</time></trkpt><trkpt lat="49.8440795" lon="1.7286201"><ele>105.0</ele><time>2026-04-02T13:01:08.544Z</time></trkpt><trkpt lat="49.8439051" lon="1.7286098"><ele>105.0</ele><time>2026-04-02T13:01:09.543Z</time></trkpt><trkpt lat="49.8437501" lon="1.728601"><ele>105.0</ele><time>2026-04-02T13:01:10.543Z</time></trkpt><trkpt lat="49.8436018" lon="1.7285938"><ele>105.0</ele><time>2026-04-02T13:01:11.544Z</time></trkpt><trkpt lat="49.8434512" lon="1.7285869"><ele>106.0</ele><time>2026-04-02T13:01:12.543Z</time></trkpt><trkpt lat="49.843295" lon="1.7285828"><ele>107.0</ele><time>2026-04-02T13:01:13.542Z</time></trkpt><trkpt lat="49.843135" lon="1.7285866"><ele>108.0</ele><time>2026-04-02T13:01:14.544Z</time></trkpt><trkpt lat="49.8429675" lon="1.7285989"><ele>108.0</ele><time>2026-04-02T13:01:15.544Z</time></trkpt><trkpt lat="49.8427991" lon="1.7286254"><ele>108.0</ele><time>2026-04-02T13:01:16.544Z</time></trkpt><trkpt lat="49.842632" lon="1.7286726"><ele>108.0</ele><time>2026-04-02T13:01:17.544Z</time></trkpt><trkpt lat="49.8424772" lon="1.7287331"><ele>109.0</ele><time>2026-04-02T13:01:18.543Z</time></trkpt><trkpt lat="49.8423332" lon="1.7288046"><ele>110.0</ele><time>2026-04-02T13:01:19.544Z</time></trkpt><trkpt lat="49.8421972" lon="1.7288928"><ele>111.0</ele><time>2026-04-02T13:01:20.544Z</time></trkpt><trkpt lat="49.8420685" lon="1.728985"><ele>112.0</ele><time>2026-04-02T13:01:21.544Z</time></trkpt><trkpt lat="49.8419387" lon="1.7290875"><ele>112.0</ele><time>2026-04-02T13:01:22.544Z</time></trkpt><trkpt lat="49.8418119" lon="1.7291942"><ele>112.0</ele><time>2026-04-02T13:01:23.544Z</time></trkpt><trkpt lat="49.8416706" lon="1.7293101"><ele>112.0</ele><time>2026-04-02T13:01:24.544Z</time></trkpt><trkpt lat="49.8415245" lon="1.7294315"><ele>111.33333333333334</ele><time>2026-04-02T13:01:25.544Z</time></trkpt><trkpt lat="49.8413671" lon="1.7295413"><ele>110.66666666666666</ele><time>2026-04-02T13:01:26.544Z</time></trkpt><trkpt lat="49.8411917" lon="1.7296152"><ele>110.0</ele><time>2026-04-02T13:01:27.543Z</time></trkpt><trkpt lat="49.8410099" lon="1.7296655"><ele>109.0</ele><time>2026-04-02T13:01:28.544Z</time></trkpt><trkpt lat="49.8408233" lon="1.7297002"><ele>108.0</ele><time>2026-04-02T13:01:29.544Z</time></trkpt><trkpt lat="49.8406367" lon="1.7297356"><ele>107.0</ele><time>2026-04-02T13:01:30.544Z</time></trkpt><trkpt lat="49.8404592" lon="1.7297621"><ele>107.0</ele><time>2026-04-02T13:01:31.544Z</time></trkpt><trkpt lat="49.8402817" lon="1.7297762"><ele>107.0</ele><time>2026-04-02T13:01:32.545Z</time></trkpt><trkpt lat="49.8401103" lon="1.7297868"><ele>107.0</ele><time>2026-04-02T13:01:33.545Z</time></trkpt><trkpt lat="49.8399411" lon="1.7297888"><ele>106.66666666666666</ele><time>2026-04-02T13:01:34.544Z</time></trkpt><trkpt lat="49.8397687" lon="1.7297921"><ele>106.33333333333334</ele><time>2026-04-02T13:01:35.545Z</time></trkpt><trkpt lat="49.839594" lon="1.729801"><ele>106.0</ele><time>2026-04-02T13:01:36.544Z</time></trkpt><trkpt lat="49.8394213" lon="1.7298373"><ele>106.33333333333334</ele><time>2026-04-02T13:01:37.543Z</time></trkpt><trkpt lat="49.8392489" lon="1.7298859"><ele>106.66666666666666</ele><time>2026-04-02T13:01:38.544Z</time></trkpt><trkpt lat="49.8390721" lon="1.729933"><ele>107.0</ele><time>2026-04-02T13:01:39.544Z</time></trkpt><trkpt lat="49.8388909" lon="1.7299903"><ele>107.0</ele><time>2026-04-02T13:01:40.543Z</time></trkpt><trkpt lat="49.8387069" lon="1.7300453"><ele>107.0</ele><time>2026-04-02T13:01:41.544Z</time></trkpt><trkpt lat="49.8385201" lon="1.7301085"><ele>107.0</ele><time>2026-04-02T13:01:42.544Z</time></trkpt><trkpt lat="49.8383288" lon="1.7301659"><ele>108.33333333333333</ele><time>2026-04-02T13:01:43.545Z</time></trkpt><trkpt lat="49.8381389" lon="1.7302269"><ele>109.66666666666666</ele><time>2026-04-02T13:01:44.544Z</time></trkpt><trkpt lat="49.8379462" lon="1.7302844"><ele>111.0</ele><time>2026-04-02T13:01:45.544Z</time></trkpt><trkpt lat="49.8377508" lon="1.7303438"><ele>111.0</ele><time>2026-04-02T13:01:46.544Z</time></trkpt><trkpt lat="49.8375543" lon="1.7304009"><ele>111.0</ele><time>2026-04-02T13:01:47.545Z</time></trkpt><trkpt lat="49.837355" lon="1.7304655"><ele>111.0</ele><time>2026-04-02T13:01:48.543Z</time></trkpt><trkpt lat="49.8371525" lon="1.7305243"><ele>111.0</ele><time>2026-04-02T13:01:49.544Z</time></trkpt><trkpt lat="49.8369635" lon="1.7305823"><ele>111.0</ele><time>2026-04-02T13:01:50.544Z</time></trkpt><trkpt lat="49.8367891" lon="1.7306345"><ele>111.0</ele><time>2026-04-02T13:01:51.545Z</time></trkpt><trkpt lat="49.8366294" lon="1.7306824"><ele>110.5</ele><time>2026-04-02T13:01:52.544Z</time></trkpt><trkpt lat="49.8364824" lon="1.7307296"><ele>110.0</ele><time>2026-04-02T13:01:53.544Z</time></trkpt><trkpt lat="49.8363475" lon="1.7307732"><ele>109.5</ele><time>2026-04-02T13:01:54.545Z</time></trkpt><trkpt lat="49.8362209" lon="1.7308158"><ele>109.0</ele><time>2026-04-02T13:01:55.545Z</time></trkpt><trkpt lat="49.8360918" lon="1.7308594"><ele>108.5</ele><time>2026-04-02T13:01:56.544Z</time></trkpt><trkpt lat="49.8359622" lon="1.7309064"><ele>108.0</ele><time>2026-04-02T13:01:57.544Z</time></trkpt><trkpt lat="49.8358374" lon="1.7309482"><ele>107.5</ele><time>2026-04-02T13:01:58.544Z</time></trkpt><trkpt lat="49.8357094" lon="1.7309869"><ele>107.0</ele><time>2026-04-02T13:01:59.545Z</time></trkpt><trkpt lat="49.8355737" lon="1.7310275"><ele>108.5</ele><time>2026-04-02T13:02:00.544Z</time></trkpt><trkpt lat="49.8354366" lon="1.731072"><ele>110.0</ele><time>2026-04-02T13:02:01.544Z</time></trkpt><trkpt lat="49.8353015" lon="1.7311137"><ele>111.5</ele><time>2026-04-02T13:02:02.545Z</time></trkpt><trkpt lat="49.8351689" lon="1.731164"><ele>113.0</ele><time>2026-04-02T13:02:03.544Z</time></trkpt><trkpt lat="49.8350353" lon="1.7312038"><ele>113.0</ele><time>2026-04-02T13:02:04.544Z</time></trkpt><trkpt lat="49.8349148" lon="1.731245"><ele>113.0</ele><time>2026-04-02T13:02:05.544Z</time></trkpt><trkpt lat="49.8347965" lon="1.7312888"><ele>113.0</ele><time>2026-04-02T13:02:06.544Z</time></trkpt><trkpt lat="49.8346805" lon="1.7313366"><ele>113.0</ele><time>2026-04-02T13:02:07.545Z</time></trkpt><trkpt lat="49.8345864" lon="1.7313701"><ele>113.0</ele><time>2026-04-02T13:02:08.544Z</time></trkpt><trkpt lat="49.8345172" lon="1.7313984"><ele>113.00000000000001</ele><time>2026-04-02T13:02:09.545Z</time></trkpt><trkpt lat="49.834419" lon="1.731429"><ele>113.00000000000001</ele><time>2026-04-02T13:02:11.545Z</time></trkpt><trkpt lat="49.8344556" lon="1.7312927"><ele>113.0</ele><time>2026-04-02T13:02:15.544Z</time></trkpt><trkpt lat="49.8345081" lon="1.7311854"><ele>113.0</ele><time>2026-04-02T13:02:16.545Z</time></trkpt><trkpt lat="49.834556" lon="1.7310315"><ele>111.25</ele><time>2026-04-02T13:02:17.545Z</time></trkpt><trkpt lat="49.8345883" lon="1.7308403"><ele>109.5</ele><time>2026-04-02T13:02:18.544Z</time></trkpt><trkpt lat="49.8346041" lon="1.7306201"><ele>107.75</ele><time>2026-04-02T13:02:19.544Z</time></trkpt><trkpt lat="49.8346012" lon="1.7303797"><ele>106.0</ele><time>2026-04-02T13:02:20.543Z</time></trkpt><trkpt lat="49.8346003" lon="1.7301236"><ele>104.33333333333334</ele><time>2026-04-02T13:02:21.545Z</time></trkpt><trkpt lat="49.8346008" lon="1.7298634"><ele>102.66666666666666</ele><time>2026-04-02T13:02:22.544Z</time></trkpt><trkpt lat="49.8345934" lon="1.7296198"><ele>101.0</ele><time>2026-04-02T13:02:23.545Z</time></trkpt><trkpt lat="49.8345832" lon="1.7293844"><ele>100.25</ele><time>2026-04-02T13:02:24.544Z</time></trkpt><trkpt lat="49.8345676" lon="1.7291692"><ele>99.5</ele><time>2026-04-02T13:02:25.544Z</time></trkpt><trkpt lat="49.8345627" lon="1.7289724"><ele>98.75</ele><time>2026-04-02T13:02:26.544Z</time></trkpt><trkpt lat="49.8345576" lon="1.7287952"><ele>98.0</ele><time>2026-04-02T13:02:27.545Z</time></trkpt><trkpt lat="49.8345381" lon="1.7286191"><ele>97.2</ele><time>2026-04-02T13:02:28.544Z</time></trkpt><trkpt lat="49.834505" lon="1.7284478"><ele>96.4</ele><time>2026-04-02T13:02:29.544Z</time></trkpt><trkpt lat="49.8344658" lon="1.7282867"><ele>95.60000000000001</ele><time>2026-04-02T13:02:30.544Z</time></trkpt><trkpt lat="49.8344238" lon="1.728133"><ele>94.80000000000001</ele><time>2026-04-02T13:02:31.544Z</time></trkpt><trkpt lat="49.8343857" lon="1.7279967"><ele>94.0</ele><time>2026-04-02T13:02:32.545Z</time></trkpt><trkpt lat="49.8343526" lon="1.7278866"><ele>94.0</ele><time>2026-04-02T13:02:33.544Z</time></trkpt><trkpt lat="49.8343234" lon="1.7277874"><ele>94.0</ele><time>2026-04-02T13:02:34.544Z</time></trkpt><trkpt lat="49.8342901" lon="1.7276963"><ele>94.0</ele><time>2026-04-02T13:02:35.545Z</time></trkpt><trkpt lat="49.8342492" lon="1.7275923"><ele>94.0</ele><time>2026-04-02T13:02:36.544Z</time></trkpt><trkpt lat="49.8341889" lon="1.7274929"><ele>94.0</ele><time>2026-04-02T13:02:37.544Z</time></trkpt><trkpt lat="49.8341279" lon="1.7273887"><ele>94.0</ele><time>2026-04-02T13:02:38.544Z</time></trkpt><trkpt lat="49.8340551" lon="1.7272983"><ele>93.6</ele><time>2026-04-02T13:02:39.544Z</time></trkpt><trkpt lat="49.8339707" lon="1.7272214"><ele>93.2</ele><time>2026-04-02T13:02:40.544Z</time></trkpt><trkpt lat="49.833872" lon="1.7271515"><ele>92.8</ele><time>2026-04-02T13:02:41.544Z</time></trkpt><trkpt lat="49.8337768" lon="1.7270952"><ele>92.39999999999999</ele><time>2026-04-02T13:02:42.544Z</time></trkpt><trkpt lat="49.8336834" lon="1.7270453"><ele>92.0</ele><time>2026-04-02T13:02:43.544Z</time></trkpt><trkpt lat="49.8335974" lon="1.7270107"><ele>92.0</ele><time>2026-04-02T13:02:44.544Z</time></trkpt><trkpt lat="49.8335189" lon="1.7269769"><ele>92.0</ele><time>2026-04-02T13:02:45.544Z</time></trkpt><trkpt lat="49.8334566" lon="1.7269385"><ele>92.0</ele><time>2026-04-02T13:02:46.545Z</time></trkpt><trkpt lat="49.8333954" lon="1.7268369"><ele>92.0</ele><time>2026-04-02T13:02:48.544Z</time></trkpt><trkpt lat="49.8334282" lon="1.7266519"><ele>92.0</ele><time>2026-04-02T13:02:50.544Z</time></trkpt><trkpt lat="49.8334785" lon="1.7265269"><ele>91.39999999999999</ele><time>2026-04-02T13:02:51.544Z</time></trkpt><trkpt lat="49.8335381" lon="1.7263809"><ele>90.8</ele><time>2026-04-02T13:02:52.545Z</time></trkpt><trkpt lat="49.8335949" lon="1.7262241"><ele>90.2</ele><time>2026-04-02T13:02:53.544Z</time></trkpt><trkpt lat="49.8336399" lon="1.7260731"><ele>89.6</ele><time>2026-04-02T13:02:54.544Z</time></trkpt><trkpt lat="49.8336813" lon="1.7259177"><ele>89.0</ele><time>2026-04-02T13:02:55.543Z</time></trkpt><trkpt lat="49.8337241" lon="1.7257398"><ele>88.5</ele><time>2026-04-02T13:02:56.545Z</time></trkpt><trkpt lat="49.833762" lon="1.7255615"><ele>88.0</ele><time>2026-04-02T13:02:57.544Z</time></trkpt><trkpt lat="49.8337923" lon="1.7253825"><ele>87.5</ele><time>2026-04-02T13:02:58.543Z</time></trkpt><trkpt lat="49.8338036" lon="1.7252087"><ele>87.0</ele><time>2026-04-02T13:02:59.544Z</time></trkpt><trkpt lat="49.8338037" lon="1.7250411"><ele>87.0</ele><time>2026-04-02T13:03:00.543Z</time></trkpt><trkpt lat="49.8337921" lon="1.7248808"><ele>87.0</ele><time>2026-04-02T13:03:01.543Z</time></trkpt><trkpt lat="49.8337685" lon="1.7247111"><ele>87.0</ele><time>2026-04-02T13:03:02.545Z</time></trkpt><trkpt lat="49.8337389" lon="1.7245436"><ele>87.0</ele><time>2026-04-02T13:03:03.544Z</time></trkpt><trkpt lat="49.8337114" lon="1.7243826"><ele>87.0</ele><time>2026-04-02T13:03:04.544Z</time></trkpt><trkpt lat="49.8336855" lon="1.7242379"><ele>87.0</ele><time>2026-04-02T13:03:05.544Z</time></trkpt><trkpt lat="49.8336633" lon="1.7241113"><ele>87.0</ele><time>2026-04-02T13:03:06.544Z</time></trkpt><trkpt lat="49.8336475" lon="1.7239881"><ele>87.0</ele><time>2026-04-02T13:03:07.543Z</time></trkpt><trkpt lat="49.8336353" lon="1.723851"><ele>87.0</ele><time>2026-04-02T13:03:08.545Z</time></trkpt><trkpt lat="49.8336334" lon="1.7237047"><ele>87.0</ele><time>2026-04-02T13:03:09.544Z</time></trkpt><trkpt lat="49.8336421" lon="1.7235642"><ele>87.0</ele><time>2026-04-02T13:03:10.544Z</time></trkpt><trkpt lat="49.8336563" lon="1.7234055"><ele>87.0</ele><time>2026-04-02T13:03:11.544Z</time></trkpt><trkpt lat="49.8336734" lon="1.723234"><ele>87.0</ele><time>2026-04-02T13:03:12.544Z</time></trkpt><trkpt lat="49.8336841" lon="1.7230512"><ele>87.0</ele><time>2026-04-02T13:03:13.544Z</time></trkpt><trkpt lat="49.8336841" lon="1.7228675"><ele>87.0</ele><time>2026-04-02T13:03:14.545Z</time></trkpt><trkpt lat="49.8336773" lon="1.7226619"><ele>87.0</ele><time>2026-04-02T13:03:15.544Z</time></trkpt><trkpt lat="49.8336614" lon="1.7224457"><ele>87.0</ele><time>2026-04-02T13:03:16.544Z</time></trkpt><trkpt lat="49.8336413" lon="1.722245"><ele>87.0</ele><time>2026-04-02T13:03:17.544Z</time></trkpt><trkpt lat="49.8336218" lon="1.7220515"><ele>87.0</ele><time>2026-04-02T13:03:18.544Z</time></trkpt><trkpt lat="49.8336022" lon="1.7218685"><ele>87.0</ele><time>2026-04-02T13:03:19.544Z</time></trkpt><trkpt lat="49.8335861" lon="1.7216837"><ele>87.0</ele><time>2026-04-02T13:03:20.544Z</time></trkpt><trkpt lat="49.8335656" lon="1.7214956"><ele>87.0</ele><time>2026-04-02T13:03:21.544Z</time></trkpt><trkpt lat="49.8335451" lon="1.7212975"><ele>87.0</ele><time>2026-04-02T13:03:22.545Z</time></trkpt><trkpt lat="49.8335269" lon="1.7210829"><ele>87.19999999999999</ele><time>2026-04-02T13:03:23.544Z</time></trkpt><trkpt lat="49.8335085" lon="1.7208756"><ele>87.4</ele><time>2026-04-02T13:03:24.543Z</time></trkpt><trkpt lat="49.8334941" lon="1.7206945"><ele>87.6</ele><time>2026-04-02T13:03:25.545Z</time></trkpt><trkpt lat="49.8334825" lon="1.7205333"><ele>87.80000000000001</ele><time>2026-04-02T13:03:26.545Z</time></trkpt><trkpt lat="49.8334912" lon="1.7203919"><ele>88.0</ele><time>2026-04-02T13:03:27.545Z</time></trkpt><trkpt lat="49.8335265" lon="1.7202546"><ele>88.2</ele><time>2026-04-02T13:03:28.544Z</time></trkpt><trkpt lat="49.8335822" lon="1.7201197"><ele>88.4</ele><time>2026-04-02T13:03:29.544Z</time></trkpt><trkpt lat="49.8336317" lon="1.7199848"><ele>88.60000000000001</ele><time>2026-04-02T13:03:30.544Z</time></trkpt><trkpt lat="49.8336847" lon="1.7198613"><ele>88.80000000000001</ele><time>2026-04-02T13:03:31.544Z</time></trkpt><trkpt lat="49.8337324" lon="1.7197598"><ele>89.0</ele><time>2026-04-02T13:03:32.545Z</time></trkpt><trkpt lat="49.833777" lon="1.7196762"><ele>89.0</ele><time>2026-04-02T13:03:33.545Z</time></trkpt><trkpt lat="49.8338325" lon="1.7196024"><ele>89.0</ele><time>2026-04-02T13:03:34.544Z</time></trkpt><trkpt lat="49.8338963" lon="1.7195402"><ele>89.0</ele><time>2026-04-02T13:03:35.544Z</time></trkpt><trkpt lat="49.833984" lon="1.7194904"><ele>89.0</ele><time>2026-04-02T13:03:36.544Z</time></trkpt><trkpt lat="49.8340909" lon="1.7194383"><ele>89.0</ele><time>2026-04-02T13:03:37.543Z</time></trkpt><trkpt lat="49.8342065" lon="1.7193956"><ele>89.0</ele><time>2026-04-02T13:03:38.544Z</time></trkpt><trkpt lat="49.8343186" lon="1.7193523"><ele>89.0</ele><time>2026-04-02T13:03:39.544Z</time></trkpt><trkpt lat="49.8344282" lon="1.7193201"><ele>89.0</ele><time>2026-04-02T13:03:40.545Z</time></trkpt><trkpt lat="49.8345405" lon="1.7192985"><ele>89.0</ele><time>2026-04-02T13:03:41.544Z</time></trkpt><trkpt lat="49.8346466" lon="1.7192878"><ele>89.0</ele><time>2026-04-02T13:03:42.544Z</time></trkpt><trkpt lat="49.8347315" lon="1.7192924"><ele>89.0</ele><time>2026-04-02T13:03:43.544Z</time></trkpt><trkpt lat="49.8348141" lon="1.7193002"><ele>89.0</ele><time>2026-04-02T13:03:44.544Z</time></trkpt><trkpt lat="49.8348985" lon="1.7193053"><ele>89.0</ele><time>2026-04-02T13:03:45.545Z</time></trkpt><trkpt lat="49.83499" lon="1.7193159"><ele>89.0</ele><time>2026-04-02T13:03:46.545Z</time></trkpt><trkpt lat="49.8350823" lon="1.7193251"><ele>89.0</ele><time>2026-04-02T13:03:47.544Z</time></trkpt><trkpt lat="49.8351724" lon="1.7193326"><ele>89.0</ele><time>2026-04-02T13:03:48.545Z</time></trkpt><trkpt lat="49.8352642" lon="1.7193396"><ele>89.2</ele><time>2026-04-02T13:03:49.545Z</time></trkpt><trkpt lat="49.8353558" lon="1.7193456"><ele>89.4</ele><time>2026-04-02T13:03:50.544Z</time></trkpt><trkpt lat="49.8354499" lon="1.7193513"><ele>89.6</ele><time>2026-04-02T13:03:51.544Z</time></trkpt><trkpt lat="49.8355537" lon="1.7193595"><ele>89.8</ele><time>2026-04-02T13:03:52.545Z</time></trkpt><trkpt lat="49.8356581" lon="1.7193665"><ele>90.0</ele><time>2026-04-02T13:03:53.545Z</time></trkpt><trkpt lat="49.8357631" lon="1.7193775"><ele>90.0</ele><time>2026-04-02T13:03:54.544Z</time></trkpt><trkpt lat="49.8358674" lon="1.7193884"><ele>90.0</ele><time>2026-04-02T13:03:55.544Z</time></trkpt><trkpt lat="49.8359685" lon="1.7193935"><ele>90.0</ele><time>2026-04-02T13:03:56.544Z</time></trkpt><trkpt lat="49.8360701" lon="1.7193966"><ele>90.0</ele><time>2026-04-02T13:03:57.543Z</time></trkpt><trkpt lat="49.8361809" lon="1.7193988"><ele>90.0</ele><time>2026-04-02T13:03:58.545Z</time></trkpt><trkpt lat="49.8363003" lon="1.7193957"><ele>90.0</ele><time>2026-04-02T13:03:59.545Z</time></trkpt><trkpt lat="49.8364157" lon="1.7193924"><ele>90.0</ele><time>2026-04-02T13:04:00.545Z</time></trkpt><trkpt lat="49.8365318" lon="1.7193832"><ele>90.0</ele><time>2026-04-02T13:04:01.544Z</time></trkpt><trkpt lat="49.8366475" lon="1.7193688"><ele>90.0</ele><time>2026-04-02T13:04:02.544Z</time></trkpt><trkpt lat="49.836771" lon="1.7193432"><ele>90.75</ele><time>2026-04-02T13:04:03.545Z</time></trkpt><trkpt lat="49.8368907" lon="1.7192999"><ele>91.5</ele><time>2026-04-02T13:04:04.544Z</time></trkpt><trkpt lat="49.8370094" lon="1.719255"><ele>92.25</ele><time>2026-04-02T13:04:05.545Z</time></trkpt><trkpt lat="49.8371242" lon="1.7192127"><ele>93.0</ele><time>2026-04-02T13:04:06.544Z</time></trkpt><trkpt lat="49.8372332" lon="1.7191694"><ele>93.0</ele><time>2026-04-02T13:04:07.544Z</time></trkpt><trkpt lat="49.8373421" lon="1.7191259"><ele>93.0</ele><time>2026-04-02T13:04:08.545Z</time></trkpt><trkpt lat="49.8374549" lon="1.7190863"><ele>93.0</ele><time>2026-04-02T13:04:09.545Z</time></trkpt><trkpt lat="49.837567" lon="1.7190485"><ele>93.0</ele><time>2026-04-02T13:04:10.545Z</time></trkpt><trkpt lat="49.8376782" lon="1.7190124"><ele>93.2</ele><time>2026-04-02T13:04:11.544Z</time></trkpt><trkpt lat="49.8377915" lon="1.7189757"><ele>93.4</ele><time>2026-04-02T13:04:12.544Z</time></trkpt><trkpt lat="49.8379017" lon="1.7189448"><ele>93.60000000000001</ele><time>2026-04-02T13:04:13.544Z</time></trkpt><trkpt lat="49.8380093" lon="1.718912"><ele>93.80000000000001</ele><time>2026-04-02T13:04:14.544Z</time></trkpt><trkpt lat="49.8381153" lon="1.718874"><ele>94.0</ele><time>2026-04-02T13:04:15.544Z</time></trkpt><trkpt lat="49.8382222" lon="1.7188373"><ele>94.0</ele><time>2026-04-02T13:04:16.545Z</time></trkpt><trkpt lat="49.8383312" lon="1.7187989"><ele>94.0</ele><time>2026-04-02T13:04:17.544Z</time></trkpt><trkpt lat="49.8384384" lon="1.7187605"><ele>94.0</ele><time>2026-04-02T13:04:18.543Z</time></trkpt><trkpt lat="49.8385574" lon="1.7187311"><ele>94.0</ele><time>2026-04-02T13:04:19.544Z</time></trkpt><trkpt lat="49.8386759" lon="1.7187015"><ele>94.25</ele><time>2026-04-02T13:04:20.545Z</time></trkpt><trkpt lat="49.8387907" lon="1.7186636"><ele>94.5</ele><time>2026-04-02T13:04:21.544Z</time></trkpt><trkpt lat="49.8389064" lon="1.7186379"><ele>94.75</ele><time>2026-04-02T13:04:22.544Z</time></trkpt><trkpt lat="49.8390271" lon="1.7186127"><ele>95.0</ele><time>2026-04-02T13:04:23.543Z</time></trkpt><trkpt lat="49.8391551" lon="1.7185856"><ele>96.25</ele><time>2026-04-02T13:04:24.543Z</time></trkpt><trkpt lat="49.8392887" lon="1.7185513"><ele>97.5</ele><time>2026-04-02T13:04:25.544Z</time></trkpt><trkpt lat="49.8394294" lon="1.7185194"><ele>98.75</ele><time>2026-04-02T13:04:26.544Z</time></trkpt><trkpt lat="49.8395739" lon="1.7184836"><ele>100.0</ele><time>2026-04-02T13:04:27.543Z</time></trkpt><trkpt lat="49.8397237" lon="1.718442"><ele>101.33333333333334</ele><time>2026-04-02T13:04:28.545Z</time></trkpt><trkpt lat="49.8398748" lon="1.7184016"><ele>102.66666666666666</ele><time>2026-04-02T13:04:29.544Z</time></trkpt><trkpt lat="49.8400282" lon="1.7183618"><ele>104.0</ele><time>2026-04-02T13:04:30.544Z</time></trkpt><trkpt lat="49.840184" lon="1.7183189"><ele>104.0</ele><time>2026-04-02T13:04:31.544Z</time></trkpt><trkpt lat="49.8403426" lon="1.7182772"><ele>104.0</ele><time>2026-04-02T13:04:32.545Z</time></trkpt><trkpt lat="49.8405021" lon="1.7182314"><ele>104.0</ele><time>2026-04-02T13:04:33.544Z</time></trkpt><trkpt lat="49.8406626" lon="1.7181717"><ele>104.0</ele><time>2026-04-02T13:04:34.544Z</time></trkpt><trkpt lat="49.840823" lon="1.7181004"><ele>104.0</ele><time>2026-04-02T13:04:35.545Z</time></trkpt><trkpt lat="49.8409841" lon="1.7180225"><ele>104.0</ele><time>2026-04-02T13:04:36.544Z</time></trkpt><trkpt lat="49.8411447" lon="1.7179318"><ele>104.66666666666666</ele><time>2026-04-02T13:04:37.544Z</time></trkpt><trkpt lat="49.841298" lon="1.7178402"><ele>105.33333333333334</ele><time>2026-04-02T13:04:38.544Z</time></trkpt><trkpt lat="49.84144" lon="1.717742"><ele>106.0</ele><time>2026-04-02T13:04:39.544Z</time></trkpt><trkpt lat="49.8415758" lon="1.7176418"><ele>106.0</ele><time>2026-04-02T13:04:40.544Z</time></trkpt><trkpt lat="49.8417056" lon="1.7175374"><ele>106.0</ele><time>2026-04-02T13:04:41.544Z</time></trkpt><trkpt lat="49.8418315" lon="1.7174355"><ele>106.0</ele><time>2026-04-02T13:04:42.544Z</time></trkpt><trkpt lat="49.8419545" lon="1.7173323"><ele>106.0</ele><time>2026-04-02T13:04:43.544Z</time></trkpt><trkpt lat="49.8420668" lon="1.7172352"><ele>105.6</ele><time>2026-04-02T13:04:44.545Z</time></trkpt><trkpt lat="49.8421694" lon="1.7171439"><ele>105.19999999999999</ele><time>2026-04-02T13:04:45.545Z</time></trkpt><trkpt lat="49.8422673" lon="1.7170499"><ele>104.80000000000001</ele><time>2026-04-02T13:04:46.544Z</time></trkpt><trkpt lat="49.8423494" lon="1.7169491"><ele>104.4</ele><time>2026-04-02T13:04:47.544Z</time></trkpt><trkpt lat="49.8424197" lon="1.7168546"><ele>104.0</ele><time>2026-04-02T13:04:48.543Z</time></trkpt><trkpt lat="49.8424702" lon="1.7167813"><ele>103.80000000000001</ele><time>2026-04-02T13:04:49.544Z</time></trkpt><trkpt lat="49.842519" lon="1.7167185"><ele>103.60000000000001</ele><time>2026-04-02T13:04:51.544Z</time></trkpt><trkpt lat="49.8426214" lon="1.716669"><ele>103.4</ele><time>2026-04-02T13:04:54.544Z</time></trkpt><trkpt lat="49.8427096" lon="1.7166564"><ele>103.2</ele><time>2026-04-02T13:04:55.544Z</time></trkpt><trkpt lat="49.842823" lon="1.716641"><ele>103.0</ele><time>2026-04-02T13:04:56.544Z</time></trkpt><trkpt lat="49.8429546" lon="1.7166282"><ele>100.33333333333334</ele><time>2026-04-02T13:04:57.544Z</time></trkpt><trkpt lat="49.8431006" lon="1.7166065"><ele>97.66666666666667</ele><time>2026-04-02T13:04:58.544Z</time></trkpt><trkpt lat="49.8432574" lon="1.716576"><ele>95.0</ele><time>2026-04-02T13:04:59.544Z</time></trkpt><trkpt lat="49.8434264" lon="1.7165445"><ele>94.33333333333334</ele><time>2026-04-02T13:05:00.545Z</time></trkpt><trkpt lat="49.8436029" lon="1.7165169"><ele>93.66666666666667</ele><time>2026-04-02T13:05:01.543Z</time></trkpt><trkpt lat="49.8437864" lon="1.7164879"><ele>93.0</ele><time>2026-04-02T13:05:02.545Z</time></trkpt><trkpt lat="49.8439737" lon="1.716455"><ele>93.0</ele><time>2026-04-02T13:05:03.544Z</time></trkpt><trkpt lat="49.8441615" lon="1.7164192"><ele>93.0</ele><time>2026-04-02T13:05:04.545Z</time></trkpt><trkpt lat="49.8443538" lon="1.7163854"><ele>93.0</ele><time>2026-04-02T13:05:05.545Z</time></trkpt><trkpt lat="49.8445475" lon="1.7163542"><ele>92.33333333333333</ele><time>2026-04-02T13:05:06.544Z</time></trkpt><trkpt lat="49.8447457" lon="1.716323"><ele>91.66666666666666</ele><time>2026-04-02T13:05:07.545Z</time></trkpt><trkpt lat="49.8449475" lon="1.7162991"><ele>91.0</ele><time>2026-04-02T13:05:08.545Z</time></trkpt><trkpt lat="49.8451506" lon="1.7162844"><ele>90.66666666666666</ele><time>2026-04-02T13:05:09.544Z</time></trkpt><trkpt lat="49.8453519" lon="1.7162747"><ele>90.33333333333333</ele><time>2026-04-02T13:05:10.544Z</time></trkpt><trkpt lat="49.8455526" lon="1.7162693"><ele>90.0</ele><time>2026-04-02T13:05:11.545Z</time></trkpt><trkpt lat="49.8457565" lon="1.7162719"><ele>90.0</ele><time>2026-04-02T13:05:12.545Z</time></trkpt><trkpt lat="49.8459611" lon="1.7162737"><ele>90.0</ele><time>2026-04-02T13:05:13.544Z</time></trkpt><trkpt lat="49.8461665" lon="1.7162764"><ele>90.0</ele><time>2026-04-02T13:05:14.544Z</time></trkpt><trkpt lat="49.8463733" lon="1.7162788"><ele>88.66666666666667</ele><time>2026-04-02T13:05:15.544Z</time></trkpt><trkpt lat="49.8465821" lon="1.7162856"><ele>87.33333333333334</ele><time>2026-04-02T13:05:16.544Z</time></trkpt><trkpt lat="49.8467909" lon="1.7162924"><ele>86.0</ele><time>2026-04-02T13:05:17.544Z</time></trkpt><trkpt lat="49.8470032" lon="1.7162972"><ele>86.0</ele><time>2026-04-02T13:05:18.544Z</time></trkpt><trkpt lat="49.8472156" lon="1.7163021"><ele>86.0</ele><time>2026-04-02T13:05:19.544Z</time></trkpt><trkpt lat="49.8474293" lon="1.7163062"><ele>86.0</ele><time>2026-04-02T13:05:20.544Z</time></trkpt><trkpt lat="49.8476431" lon="1.7163138"><ele>85.0</ele><time>2026-04-02T13:05:21.544Z</time></trkpt><trkpt lat="49.8478568" lon="1.7163196"><ele>84.0</ele><time>2026-04-02T13:05:22.545Z</time></trkpt><trkpt lat="49.848069" lon="1.7163251"><ele>83.0</ele><time>2026-04-02T13:05:23.544Z</time></trkpt><trkpt lat="49.8482813" lon="1.716334"><ele>83.0</ele><time>2026-04-02T13:05:24.544Z</time></trkpt><trkpt lat="49.8484959" lon="1.716339"><ele>83.0</ele><time>2026-04-02T13:05:25.544Z</time></trkpt><trkpt lat="49.8487097" lon="1.7163433"><ele>83.0</ele><time>2026-04-02T13:05:26.544Z</time></trkpt><trkpt lat="49.8489244" lon="1.7163474"><ele>83.0</ele><time>2026-04-02T13:05:27.544Z</time></trkpt><trkpt lat="49.8491399" lon="1.7163506"><ele>83.0</ele><time>2026-04-02T13:05:28.544Z</time></trkpt><trkpt lat="49.8493555" lon="1.7163546"><ele>83.0</ele><time>2026-04-02T13:05:29.544Z</time></trkpt><trkpt lat="49.8495676" lon="1.7163545"><ele>83.0</ele><time>2026-04-02T13:05:30.544Z</time></trkpt><trkpt lat="49.8497695" lon="1.7163588"><ele>83.0</ele><time>2026-04-02T13:05:31.544Z</time></trkpt><trkpt lat="49.8499662" lon="1.7163608"><ele>83.0</ele><time>2026-04-02T13:05:32.543Z</time></trkpt><trkpt lat="49.8501604" lon="1.716359"><ele>82.33333333333334</ele><time>2026-04-02T13:05:33.544Z</time></trkpt><trkpt lat="49.850344" lon="1.7163597"><ele>81.66666666666667</ele><time>2026-04-02T13:05:34.544Z</time></trkpt><trkpt lat="49.8505177" lon="1.7163536"><ele>81.0</ele><time>2026-04-02T13:05:35.544Z</time></trkpt><trkpt lat="49.8506849" lon="1.7163473"><ele>81.0</ele><time>2026-04-02T13:05:36.544Z</time></trkpt><trkpt lat="49.8508479" lon="1.7163395"><ele>81.0</ele><time>2026-04-02T13:05:37.544Z</time></trkpt><trkpt lat="49.85101" lon="1.7163156"><ele>81.0</ele><time>2026-04-02T13:05:38.544Z</time></trkpt><trkpt lat="49.8511623" lon="1.7162908"><ele>81.0</ele><time>2026-04-02T13:05:39.544Z</time></trkpt><trkpt lat="49.8513026" lon="1.7162678"><ele>81.0</ele><time>2026-04-02T13:05:40.544Z</time></trkpt><trkpt lat="49.8514327" lon="1.7162392"><ele>81.0</ele><time>2026-04-02T13:05:41.544Z</time></trkpt><trkpt lat="49.8515511" lon="1.7161982"><ele>81.0</ele><time>2026-04-02T13:05:42.544Z</time></trkpt><trkpt lat="49.8516592" lon="1.7161654"><ele>81.0</ele><time>2026-04-02T13:05:43.544Z</time></trkpt><trkpt lat="49.8517666" lon="1.7161242"><ele>81.0</ele><time>2026-04-02T13:05:44.544Z</time></trkpt><trkpt lat="49.8518811" lon="1.7160806"><ele>81.0</ele><time>2026-04-02T13:05:45.545Z</time></trkpt><trkpt lat="49.8520089" lon="1.7160309"><ele>81.0</ele><time>2026-04-02T13:05:46.544Z</time></trkpt><trkpt lat="49.8521414" lon="1.7159757"><ele>81.0</ele><time>2026-04-02T13:05:47.544Z</time></trkpt><trkpt lat="49.8522777" lon="1.7159138"><ele>81.0</ele><time>2026-04-02T13:05:48.544Z</time></trkpt><trkpt lat="49.852417" lon="1.7158441"><ele>81.0</ele><time>2026-04-02T13:05:49.544Z</time></trkpt><trkpt lat="49.852559" lon="1.7157667"><ele>81.0</ele><time>2026-04-02T13:05:50.544Z</time></trkpt><trkpt lat="49.8527057" lon="1.7156923"><ele>81.0</ele><time>2026-04-02T13:05:51.544Z</time></trkpt><trkpt lat="49.8528514" lon="1.7156144"><ele>81.0</ele><time>2026-04-02T13:05:52.545Z</time></trkpt><trkpt lat="49.8529934" lon="1.715535"><ele>81.0</ele><time>2026-04-02T13:05:53.544Z</time></trkpt><trkpt lat="49.8531426" lon="1.7154499"><ele>81.0</ele><time>2026-04-02T13:05:54.544Z</time></trkpt><trkpt lat="49.8532888" lon="1.7153697"><ele>81.0</ele><time>2026-04-02T13:05:55.545Z</time></trkpt><trkpt lat="49.853434" lon="1.7152897"><ele>81.0</ele><time>2026-04-02T13:05:56.544Z</time></trkpt><trkpt lat="49.8535741" lon="1.7152092"><ele>80.75</ele><time>2026-04-02T13:05:57.544Z</time></trkpt><trkpt lat="49.8537065" lon="1.7151265"><ele>80.5</ele><time>2026-04-02T13:05:58.544Z</time></trkpt><trkpt lat="49.8538368" lon="1.7150392"><ele>80.25</ele><time>2026-04-02T13:05:59.545Z</time></trkpt><trkpt lat="49.8539623" lon="1.7149516"><ele>80.0</ele><time>2026-04-02T13:06:00.544Z</time></trkpt><trkpt lat="49.8540827" lon="1.7148725"><ele>80.0</ele><time>2026-04-02T13:06:01.544Z</time></trkpt><trkpt lat="49.8542096" lon="1.7148089"><ele>80.0</ele><time>2026-04-02T13:06:02.545Z</time></trkpt><trkpt lat="49.8543459" lon="1.7147583"><ele>80.0</ele><time>2026-04-02T13:06:03.544Z</time></trkpt><trkpt lat="49.8544751" lon="1.7147185"><ele>80.0</ele><time>2026-04-02T13:06:04.544Z</time></trkpt><trkpt lat="49.8545943" lon="1.7146795"><ele>80.16666666666667</ele><time>2026-04-02T13:06:05.544Z</time></trkpt><trkpt lat="49.854694" lon="1.7146459"><ele>80.33333333333334</ele><time>2026-04-02T13:06:06.544Z</time></trkpt><trkpt lat="49.8547756" lon="1.7146185"><ele>80.5</ele><time>2026-04-02T13:06:07.544Z</time></trkpt><trkpt lat="49.8548406" lon="1.7146046"><ele>80.66666666666667</ele><time>2026-04-02T13:06:08.545Z</time></trkpt><trkpt lat="49.8549036" lon="1.7146379"><ele>80.83333333333333</ele><time>2026-04-02T13:06:09.544Z</time></trkpt><trkpt lat="49.8549602" lon="1.7147171"><ele>81.0</ele><time>2026-04-02T13:06:10.544Z</time></trkpt><trkpt lat="49.8550152" lon="1.7148223"><ele>81.0</ele><time>2026-04-02T13:06:11.544Z</time></trkpt><trkpt lat="49.8550732" lon="1.7149468"><ele>81.0</ele><time>2026-04-02T13:06:12.544Z</time></trkpt><trkpt lat="49.8551329" lon="1.7150702"><ele>81.0</ele><time>2026-04-02T13:06:13.545Z</time></trkpt><trkpt lat="49.8551919" lon="1.715198"><ele>81.0</ele><time>2026-04-02T13:06:14.544Z</time></trkpt><trkpt lat="49.8552509" lon="1.7153241"><ele>81.0</ele><time>2026-04-02T13:06:15.544Z</time></trkpt><trkpt lat="49.8553114" lon="1.7154487"><ele>80.8</ele><time>2026-04-02T13:06:16.545Z</time></trkpt><trkpt lat="49.855374" lon="1.7155751"><ele>80.6</ele><time>2026-04-02T13:06:17.545Z</time></trkpt><trkpt lat="49.8554425" lon="1.7156998"><ele>80.4</ele><time>2026-04-02T13:06:18.544Z</time></trkpt><trkpt lat="49.8555169" lon="1.7158315"><ele>80.2</ele><time>2026-04-02T13:06:19.545Z</time></trkpt><trkpt lat="49.8555881" lon="1.7159608"><ele>80.0</ele><time>2026-04-02T13:06:20.544Z</time></trkpt><trkpt lat="49.8556573" lon="1.7160952"><ele>79.6</ele><time>2026-04-02T13:06:21.545Z</time></trkpt><trkpt lat="49.855726" lon="1.7162262"><ele>79.2</ele><time>2026-04-02T13:06:22.544Z</time></trkpt><trkpt lat="49.8557872" lon="1.7163509"><ele>78.8</ele><time>2026-04-02T13:06:23.545Z</time></trkpt><trkpt lat="49.8558386" lon="1.7164659"><ele>78.4</ele><time>2026-04-02T13:06:24.544Z</time></trkpt><trkpt lat="49.8558746" lon="1.7165848"><ele>78.0</ele><time>2026-04-02T13:06:25.544Z</time></trkpt><trkpt lat="49.8558897" lon="1.7167044"><ele>78.0</ele><time>2026-04-02T13:06:26.544Z</time></trkpt><trkpt lat="49.8559044" lon="1.7168308"><ele>78.0</ele><time>2026-04-02T13:06:27.544Z</time></trkpt><trkpt lat="49.8559203" lon="1.7169538"><ele>78.0</ele><time>2026-04-02T13:06:28.545Z</time></trkpt><trkpt lat="49.8559374" lon="1.7170777"><ele>78.0</ele><time>2026-04-02T13:06:29.544Z</time></trkpt><trkpt lat="49.8559623" lon="1.7172051"><ele>78.0</ele><time>2026-04-02T13:06:30.545Z</time></trkpt><trkpt lat="49.8559958" lon="1.7173293"><ele>78.0</ele><time>2026-04-02T13:06:31.544Z</time></trkpt><trkpt lat="49.8560323" lon="1.7174361"><ele>78.0</ele><time>2026-04-02T13:06:32.544Z</time></trkpt><trkpt lat="49.8560684" lon="1.7175312"><ele>78.0</ele><time>2026-04-02T13:06:33.544Z</time></trkpt><trkpt lat="49.8561189" lon="1.7176214"><ele>78.0</ele><time>2026-04-02T13:06:34.545Z</time></trkpt><trkpt lat="49.8561598" lon="1.7177237"><ele>78.0</ele><time>2026-04-02T13:06:35.544Z</time></trkpt><trkpt lat="49.856203" lon="1.7178211"><ele>78.0</ele><time>2026-04-02T13:06:36.545Z</time></trkpt><trkpt lat="49.8562419" lon="1.717916"><ele>78.0</ele><time>2026-04-02T13:06:37.544Z</time></trkpt><trkpt lat="49.8562742" lon="1.7180182"><ele>78.0</ele><time>2026-04-02T13:06:38.543Z</time></trkpt><trkpt lat="49.8563199" lon="1.7181527"><ele>78.0</ele><time>2026-04-02T13:06:40.544Z</time></trkpt><trkpt lat="49.8562863" lon="1.7180321"><ele>78.0</ele><time>2026-04-02T13:08:11.545Z</time></trkpt><trkpt lat="49.8562457" lon="1.7179291"><ele>78.0</ele><time>2026-04-02T13:08:13.546Z</time></trkpt><trkpt lat="49.8562122" lon="1.7178236"><ele>78.0</ele><time>2026-04-02T13:08:16.546Z</time></trkpt><trkpt lat="49.8561685" lon="1.7177242"><ele>78.0</ele><time>2026-04-02T13:08:20.546Z</time></trkpt><trkpt lat="49.8561334" lon="1.7176163"><ele>78.0</ele><time>2026-04-02T13:08:26.544Z</time></trkpt><trkpt lat="49.8560631" lon="1.7175056"><ele>78.0</ele><time>2026-04-02T13:08:28.545Z</time></trkpt><trkpt lat="49.856024" lon="1.7174249"><ele>78.0</ele><time>2026-04-02T13:08:29.546Z</time></trkpt><trkpt lat="49.8559937" lon="1.7173342"><ele>78.0</ele><time>2026-04-02T13:08:30.545Z</time></trkpt><trkpt lat="49.8559678" lon="1.7172327"><ele>78.0</ele><time>2026-04-02T13:08:31.546Z</time></trkpt><trkpt lat="49.8559474" lon="1.7171269"><ele>78.0</ele><time>2026-04-02T13:08:32.545Z</time></trkpt><trkpt lat="49.8559355" lon="1.717029"><ele>78.0</ele><time>2026-04-02T13:08:33.546Z</time></trkpt><trkpt lat="49.8559161" lon="1.7168332"><ele>78.0</ele><time>2026-04-02T13:08:35.544Z</time></trkpt><trkpt lat="49.8559025" lon="1.7167278"><ele>78.0</ele><time>2026-04-02T13:08:36.545Z</time></trkpt><trkpt lat="49.8558789" lon="1.7166168"><ele>78.0</ele><time>2026-04-02T13:08:37.546Z</time></trkpt><trkpt lat="49.8558473" lon="1.716502"><ele>78.0</ele><time>2026-04-02T13:08:38.546Z</time></trkpt><trkpt lat="49.8558015" lon="1.7163913"><ele>78.0</ele><time>2026-04-02T13:08:39.546Z</time></trkpt><trkpt lat="49.8557498" lon="1.7162837"><ele>78.0</ele><time>2026-04-02T13:08:40.546Z</time></trkpt><trkpt lat="49.8556933" lon="1.7161702"><ele>78.4</ele><time>2026-04-02T13:08:41.545Z</time></trkpt><trkpt lat="49.8556257" lon="1.716043"><ele>78.8</ele><time>2026-04-02T13:08:42.546Z</time></trkpt><trkpt lat="49.8555601" lon="1.7159282"><ele>79.2</ele><time>2026-04-02T13:08:43.546Z</time></trkpt><trkpt lat="49.8554972" lon="1.7158089"><ele>79.6</ele><time>2026-04-02T13:08:44.545Z</time></trkpt><trkpt lat="49.8554415" lon="1.715698"><ele>80.0</ele><time>2026-04-02T13:08:45.544Z</time></trkpt><trkpt lat="49.8553892" lon="1.7155924"><ele>80.0</ele><time>2026-04-02T13:08:46.546Z</time></trkpt><trkpt lat="49.8553345" lon="1.7154768"><ele>80.0</ele><time>2026-04-02T13:08:47.545Z</time></trkpt><trkpt lat="49.8552813" lon="1.7153648"><ele>80.0</ele><time>2026-04-02T13:08:48.545Z</time></trkpt><trkpt lat="49.8552268" lon="1.7152463"><ele>80.0</ele><time>2026-04-02T13:08:49.545Z</time></trkpt><trkpt lat="49.8551722" lon="1.715132"><ele>80.0</ele><time>2026-04-02T13:08:50.546Z</time></trkpt><trkpt lat="49.8551185" lon="1.715027"><ele>80.2</ele><time>2026-04-02T13:08:51.544Z</time></trkpt><trkpt lat="49.8550692" lon="1.7149283"><ele>80.4</ele><time>2026-04-02T13:08:52.546Z</time></trkpt><trkpt lat="49.855025" lon="1.7148381"><ele>80.6</ele><time>2026-04-02T13:08:53.545Z</time></trkpt><trkpt lat="49.8549623" lon="1.7146838"><ele>80.8</ele><time>2026-04-02T13:08:55.546Z</time></trkpt><trkpt lat="49.8549245" lon="1.7145767"><ele>81.0</ele><time>2026-04-02T13:08:58.546Z</time></trkpt><trkpt lat="49.8548436" lon="1.7144518"><ele>81.33333333333333</ele><time>2026-04-02T13:09:00.545Z</time></trkpt><trkpt lat="49.8547829" lon="1.7143759"><ele>81.66666666666667</ele><time>2026-04-02T13:09:01.545Z</time></trkpt><trkpt lat="49.8547194" lon="1.7142967"><ele>82.0</ele><time>2026-04-02T13:09:02.545Z</time></trkpt><trkpt lat="49.8546468" lon="1.7142177"><ele>82.33333333333334</ele><time>2026-04-02T13:09:03.545Z</time></trkpt><trkpt lat="49.8545764" lon="1.7141295"><ele>82.66666666666667</ele><time>2026-04-02T13:09:04.545Z</time></trkpt><trkpt lat="49.8545039" lon="1.71403"><ele>83.0</ele><time>2026-04-02T13:09:05.545Z</time></trkpt><trkpt lat="49.8544257" lon="1.7139254"><ele>83.0</ele><time>2026-04-02T13:09:06.545Z</time></trkpt><trkpt lat="49.8543454" lon="1.7138184"><ele>83.0</ele><time>2026-04-02T13:09:07.545Z</time></trkpt><trkpt lat="49.8542663" lon="1.7137097"><ele>83.0</ele><time>2026-04-02T13:09:08.545Z</time></trkpt><trkpt lat="49.8541803" lon="1.7135983"><ele>83.0</ele><time>2026-04-02T13:09:09.544Z</time></trkpt><trkpt lat="49.8540951" lon="1.7134805"><ele>83.0</ele><time>2026-04-02T13:09:10.546Z</time></trkpt><trkpt lat="49.8540079" lon="1.7133666"><ele>82.80000000000001</ele><time>2026-04-02T13:09:11.544Z</time></trkpt><trkpt lat="49.8539223" lon="1.7132588"><ele>82.6</ele><time>2026-04-02T13:09:12.545Z</time></trkpt><trkpt lat="49.8538357" lon="1.7131513"><ele>82.4</ele><time>2026-04-02T13:09:13.546Z</time></trkpt><trkpt lat="49.8537478" lon="1.7130436"><ele>82.19999999999999</ele><time>2026-04-02T13:09:14.545Z</time></trkpt><trkpt lat="49.85366" lon="1.7129398"><ele>82.0</ele><time>2026-04-02T13:09:15.545Z</time></trkpt><trkpt lat="49.8535698" lon="1.7128368"><ele>82.25</ele><time>2026-04-02T13:09:16.544Z</time></trkpt><trkpt lat="49.8534774" lon="1.7127283"><ele>82.5</ele><time>2026-04-02T13:09:17.546Z</time></trkpt><trkpt lat="49.853384" lon="1.7126172"><ele>82.75</ele><time>2026-04-02T13:09:18.546Z</time></trkpt><trkpt lat="49.853291" lon="1.7125078"><ele>83.0</ele><time>2026-04-02T13:09:19.544Z</time></trkpt><trkpt lat="49.8531968" lon="1.7124041"><ele>83.0</ele><time>2026-04-02T13:09:20.545Z</time></trkpt><trkpt lat="49.8531062" lon="1.712301"><ele>83.0</ele><time>2026-04-02T13:09:21.546Z</time></trkpt><trkpt lat="49.8530149" lon="1.7121926"><ele>83.0</ele><time>2026-04-02T13:09:22.544Z</time></trkpt><trkpt lat="49.8529227" lon="1.7120784"><ele>83.0</ele><time>2026-04-02T13:09:23.544Z</time></trkpt><trkpt lat="49.8528328" lon="1.7119639"><ele>83.0</ele><time>2026-04-02T13:09:24.545Z</time></trkpt><trkpt lat="49.8527493" lon="1.7118461"><ele>83.0</ele><time>2026-04-02T13:09:25.545Z</time></trkpt><trkpt lat="49.8526748" lon="1.7117102"><ele>83.0</ele><time>2026-04-02T13:09:26.545Z</time></trkpt><trkpt lat="49.8526073" lon="1.7115634"><ele>83.0</ele><time>2026-04-02T13:09:27.544Z</time></trkpt><trkpt lat="49.8525512" lon="1.7114066"><ele>83.0</ele><time>2026-04-02T13:09:28.545Z</time></trkpt><trkpt lat="49.8525075" lon="1.7112353"><ele>83.0</ele><time>2026-04-02T13:09:29.545Z</time></trkpt><trkpt lat="49.8524693" lon="1.7110674"><ele>83.0</ele><time>2026-04-02T13:09:30.546Z</time></trkpt><trkpt lat="49.8524406" lon="1.7108923"><ele>83.0</ele><time>2026-04-02T13:09:31.544Z</time></trkpt><trkpt lat="49.8524122" lon="1.710718"><ele>84.0</ele><time>2026-04-02T13:09:32.545Z</time></trkpt><trkpt lat="49.8523904" lon="1.7105489"><ele>85.0</ele><time>2026-04-02T13:09:33.545Z</time></trkpt><trkpt lat="49.852371" lon="1.7103779"><ele>86.0</ele><time>2026-04-02T13:09:34.545Z</time></trkpt><trkpt lat="49.8523542" lon="1.7102063"><ele>87.0</ele><time>2026-04-02T13:09:35.546Z</time></trkpt><trkpt lat="49.852342" lon="1.7100374"><ele>88.0</ele><time>2026-04-02T13:09:36.545Z</time></trkpt><trkpt lat="49.8523323" lon="1.709868"><ele>88.75</ele><time>2026-04-02T13:09:37.546Z</time></trkpt><trkpt lat="49.852319" lon="1.7096962"><ele>89.5</ele><time>2026-04-02T13:09:38.546Z</time></trkpt><trkpt lat="49.852303" lon="1.7095133"><ele>90.25</ele><time>2026-04-02T13:09:39.545Z</time></trkpt><trkpt lat="49.8522897" lon="1.7093346"><ele>91.0</ele><time>2026-04-02T13:09:40.545Z</time></trkpt><trkpt lat="49.8522787" lon="1.7091577"><ele>91.8</ele><time>2026-04-02T13:09:41.546Z</time></trkpt><trkpt lat="49.8522709" lon="1.7089815"><ele>92.6</ele><time>2026-04-02T13:09:42.545Z</time></trkpt><trkpt lat="49.8522625" lon="1.7088089"><ele>93.4</ele><time>2026-04-02T13:09:43.545Z</time></trkpt><trkpt lat="49.8522564" lon="1.7086435"><ele>94.2</ele><time>2026-04-02T13:09:44.545Z</time></trkpt><trkpt lat="49.8522568" lon="1.7085057"><ele>95.0</ele><time>2026-04-02T13:09:45.546Z</time></trkpt><trkpt lat="49.8522565" lon="1.7083949"><ele>95.6</ele><time>2026-04-02T13:09:46.545Z</time></trkpt><trkpt lat="49.8522561" lon="1.7082489"><ele>96.2</ele><time>2026-04-02T13:09:48.544Z</time></trkpt><trkpt lat="49.8522478" lon="1.7080804"><ele>96.80000000000001</ele><time>2026-04-02T13:09:55.545Z</time></trkpt><trkpt lat="49.8522484" lon="1.7079664"><ele>97.4</ele><time>2026-04-02T13:09:56.545Z</time></trkpt><trkpt lat="49.8522458" lon="1.7078222"><ele>98.0</ele><time>2026-04-02T13:09:57.546Z</time></trkpt><trkpt lat="49.8522368" lon="1.707665"><ele>99.0</ele><time>2026-04-02T13:09:58.545Z</time></trkpt><trkpt lat="49.8522281" lon="1.7074855"><ele>100.0</ele><time>2026-04-02T13:09:59.545Z</time></trkpt><trkpt lat="49.8522161" lon="1.7072925"><ele>101.0</ele><time>2026-04-02T13:10:00.545Z</time></trkpt><trkpt lat="49.8522002" lon="1.7070952"><ele>102.0</ele><time>2026-04-02T13:10:01.546Z</time></trkpt><trkpt lat="49.8521766" lon="1.7068948"><ele>103.0</ele><time>2026-04-02T13:10:02.545Z</time></trkpt><trkpt lat="49.8521477" lon="1.7066973"><ele>104.0</ele><time>2026-04-02T13:10:03.545Z</time></trkpt><trkpt lat="49.8521186" lon="1.7065054"><ele>105.0</ele><time>2026-04-02T13:10:04.546Z</time></trkpt><trkpt lat="49.8520988" lon="1.7063227"><ele>106.0</ele><time>2026-04-02T13:10:05.545Z</time></trkpt><trkpt lat="49.8520891" lon="1.7061413"><ele>106.5</ele><time>2026-04-02T13:10:06.545Z</time></trkpt><trkpt lat="49.8520846" lon="1.7059523"><ele>107.0</ele><time>2026-04-02T13:10:07.545Z</time></trkpt><trkpt lat="49.8520848" lon="1.7057576"><ele>107.5</ele><time>2026-04-02T13:10:08.545Z</time></trkpt><trkpt lat="49.8520921" lon="1.7055561"><ele>108.0</ele><time>2026-04-02T13:10:09.545Z</time></trkpt><trkpt lat="49.8521028" lon="1.7053577"><ele>109.25</ele><time>2026-04-02T13:10:10.544Z</time></trkpt><trkpt lat="49.8521021" lon="1.7051636"><ele>110.5</ele><time>2026-04-02T13:10:11.546Z</time></trkpt><trkpt lat="49.8520824" lon="1.704986"><ele>111.75</ele><time>2026-04-02T13:10:12.545Z</time></trkpt><trkpt lat="49.8520419" lon="1.7048078"><ele>113.0</ele><time>2026-04-02T13:10:13.546Z</time></trkpt><trkpt lat="49.8519899" lon="1.7046365"><ele>113.0</ele><time>2026-04-02T13:10:14.546Z</time></trkpt><trkpt lat="49.8519344" lon="1.7044535"><ele>113.0</ele><time>2026-04-02T13:10:15.546Z</time></trkpt><trkpt lat="49.8518709" lon="1.7042609"><ele>113.0</ele><time>2026-04-02T13:10:16.545Z</time></trkpt><trkpt lat="49.8518141" lon="1.704061"><ele>113.0</ele><time>2026-04-02T13:10:17.545Z</time></trkpt><trkpt lat="49.85175" lon="1.7038539"><ele>113.25</ele><time>2026-04-02T13:10:18.544Z</time></trkpt><trkpt lat="49.8516912" lon="1.7036423"><ele>113.5</ele><time>2026-04-02T13:10:19.545Z</time></trkpt><trkpt lat="49.8516362" lon="1.7034243"><ele>113.75</ele><time>2026-04-02T13:10:20.545Z</time></trkpt><trkpt lat="49.851584" lon="1.7032106"><ele>114.0</ele><time>2026-04-02T13:10:21.545Z</time></trkpt><trkpt lat="49.8515399" lon="1.7030192"><ele>114.80000000000001</ele><time>2026-04-02T13:10:22.545Z</time></trkpt><trkpt lat="49.8515077" lon="1.7028459"><ele>115.60000000000001</ele><time>2026-04-02T13:10:23.546Z</time></trkpt><trkpt lat="49.8514832" lon="1.7026809"><ele>116.4</ele><time>2026-04-02T13:10:24.546Z</time></trkpt><trkpt lat="49.8514813" lon="1.7025123"><ele>117.2</ele><time>2026-04-02T13:10:25.546Z</time></trkpt><trkpt lat="49.8514836" lon="1.7023514"><ele>118.0</ele><time>2026-04-02T13:10:26.545Z</time></trkpt><trkpt lat="49.8514956" lon="1.7022073"><ele>118.4</ele><time>2026-04-02T13:10:27.546Z</time></trkpt><trkpt lat="49.8515192" lon="1.7020695"><ele>118.80000000000001</ele><time>2026-04-02T13:10:28.545Z</time></trkpt><trkpt lat="49.8515638" lon="1.7019577"><ele>119.2</ele><time>2026-04-02T13:10:29.546Z</time></trkpt><trkpt lat="49.8516187" lon="1.7018427"><ele>119.6</ele><time>2026-04-02T13:10:30.546Z</time></trkpt><trkpt lat="49.851681" lon="1.7017084"><ele>120.0</ele><time>2026-04-02T13:10:31.546Z</time></trkpt><trkpt lat="49.8517378" lon="1.7015495"><ele>120.0</ele><time>2026-04-02T13:10:32.546Z</time></trkpt><trkpt lat="49.8517711" lon="1.7013618"><ele>120.0</ele><time>2026-04-02T13:10:33.545Z</time></trkpt><trkpt lat="49.8517938" lon="1.7011568"><ele>120.0</ele><time>2026-04-02T13:10:34.545Z</time></trkpt><trkpt lat="49.8518144" lon="1.7009435"><ele>120.0</ele><time>2026-04-02T13:10:35.544Z</time></trkpt><trkpt lat="49.8518397" lon="1.7007367"><ele>121.0</ele><time>2026-04-02T13:10:36.545Z</time></trkpt><trkpt lat="49.8518601" lon="1.7005422"><ele>122.0</ele><time>2026-04-02T13:10:37.546Z</time></trkpt><trkpt lat="49.8518802" lon="1.7003674"><ele>123.0</ele><time>2026-04-02T13:10:38.545Z</time></trkpt><trkpt lat="49.8518958" lon="1.7002117"><ele>124.0</ele><time>2026-04-02T13:10:39.545Z</time></trkpt><trkpt lat="49.8519092" lon="1.7000759"><ele>125.0</ele><time>2026-04-02T13:10:40.545Z</time></trkpt><trkpt lat="49.8519166" lon="1.6999579"><ele>125.0</ele><time>2026-04-02T13:10:41.544Z</time></trkpt><trkpt lat="49.8519269" lon="1.6998535"><ele>125.0</ele><time>2026-04-02T13:10:42.545Z</time></trkpt><trkpt lat="49.8519272" lon="1.6996975"><ele>125.0</ele><time>2026-04-02T13:10:44.545Z</time></trkpt><trkpt lat="49.8518589" lon="1.6995405"><ele>125.0</ele><time>2026-04-02T13:10:46.546Z</time></trkpt><trkpt lat="49.8517872" lon="1.6994564"><ele>125.0</ele><time>2026-04-02T13:10:47.546Z</time></trkpt><trkpt lat="49.8517021" lon="1.6993475"><ele>123.0</ele><time>2026-04-02T13:10:48.545Z</time></trkpt><trkpt lat="49.8515996" lon="1.6992266"><ele>121.0</ele><time>2026-04-02T13:10:49.545Z</time></trkpt><trkpt lat="49.8514864" lon="1.6991054"><ele>119.0</ele><time>2026-04-02T13:10:50.546Z</time></trkpt><trkpt lat="49.8513676" lon="1.6989631"><ele>117.0</ele><time>2026-04-02T13:10:51.545Z</time></trkpt><trkpt lat="49.8512454" lon="1.6988342"><ele>117.0</ele><time>2026-04-02T13:10:52.545Z</time></trkpt><trkpt lat="49.8511152" lon="1.6986986"><ele>117.0</ele><time>2026-04-02T13:10:53.545Z</time></trkpt><trkpt lat="49.8509797" lon="1.6985762"><ele>117.0</ele><time>2026-04-02T13:10:54.545Z</time></trkpt><trkpt lat="49.8508347" lon="1.6984547"><ele>114.33333333333334</ele><time>2026-04-02T13:10:55.545Z</time></trkpt><trkpt lat="49.8506893" lon="1.6983366"><ele>111.66666666666667</ele><time>2026-04-02T13:10:56.545Z</time></trkpt><trkpt lat="49.8505451" lon="1.6982455"><ele>109.0</ele><time>2026-04-02T13:10:57.546Z</time></trkpt><trkpt lat="49.8504048" lon="1.698159"><ele>109.0</ele><time>2026-04-02T13:10:58.544Z</time></trkpt><trkpt lat="49.8502711" lon="1.6980655"><ele>109.0</ele><time>2026-04-02T13:10:59.545Z</time></trkpt><trkpt lat="49.8501344" lon="1.6979742"><ele>109.0</ele><time>2026-04-02T13:11:00.546Z</time></trkpt><trkpt lat="49.8500006" lon="1.6978899"><ele>109.0</ele><time>2026-04-02T13:11:01.545Z</time></trkpt><trkpt lat="49.8498612" lon="1.6978012"><ele>108.66666666666667</ele><time>2026-04-02T13:11:02.545Z</time></trkpt><trkpt lat="49.8497176" lon="1.6977083"><ele>108.33333333333334</ele><time>2026-04-02T13:11:03.546Z</time></trkpt><trkpt lat="49.84957" lon="1.6976256"><ele>108.0</ele><time>2026-04-02T13:11:04.546Z</time></trkpt><trkpt lat="49.8494331" lon="1.6975485"><ele>108.0</ele><time>2026-04-02T13:11:05.546Z</time></trkpt><trkpt lat="49.8493024" lon="1.6974772"><ele>108.0</ele><time>2026-04-02T13:11:06.544Z</time></trkpt><trkpt lat="49.8491771" lon="1.6974195"><ele>108.0</ele><time>2026-04-02T13:11:07.546Z</time></trkpt><trkpt lat="49.8490672" lon="1.6973685"><ele>108.0</ele><time>2026-04-02T13:11:08.545Z</time></trkpt><trkpt lat="49.8489709" lon="1.697325"><ele>108.0</ele><time>2026-04-02T13:11:09.546Z</time></trkpt><trkpt lat="49.8488957" lon="1.6972874"><ele>108.0</ele><time>2026-04-02T13:11:10.546Z</time></trkpt><trkpt lat="49.8488359" lon="1.6972555"><ele>108.0</ele><time>2026-04-02T13:11:11.545Z</time></trkpt><trkpt lat="49.848766" lon="1.697211"><ele>108.0</ele><time>2026-04-02T13:11:13.545Z</time></trkpt><trkpt lat="49.8486907" lon="1.6971691"><ele>108.0</ele><time>2026-04-02T13:11:15.545Z</time></trkpt><trkpt lat="49.8486275" lon="1.6971363"><ele>108.0</ele><time>2026-04-02T13:11:16.546Z</time></trkpt><trkpt lat="49.8485524" lon="1.6970925"><ele>108.0</ele><time>2026-04-02T13:11:17.544Z</time></trkpt><trkpt lat="49.8484723" lon="1.6970365"><ele>108.16666666666667</ele><time>2026-04-02T13:11:18.545Z</time></trkpt><trkpt lat="49.848391" lon="1.6969825"><ele>108.33333333333334</ele><time>2026-04-02T13:11:19.545Z</time></trkpt><trkpt lat="49.8483134" lon="1.6969297"><ele>108.5</ele><time>2026-04-02T13:11:20.545Z</time></trkpt><trkpt lat="49.8482409" lon="1.6968696"><ele>108.66666666666667</ele><time>2026-04-02T13:11:21.545Z</time></trkpt><trkpt lat="49.8481649" lon="1.6968067"><ele>108.83333333333334</ele><time>2026-04-02T13:11:22.545Z</time></trkpt><trkpt lat="49.8480863" lon="1.6967394"><ele>109.0</ele><time>2026-04-02T13:11:23.546Z</time></trkpt><trkpt lat="49.8480082" lon="1.6966683"><ele>109.5</ele><time>2026-04-02T13:11:24.545Z</time></trkpt><trkpt lat="49.8479299" lon="1.6965915"><ele>110.0</ele><time>2026-04-02T13:11:25.545Z</time></trkpt><trkpt lat="49.8478389" lon="1.6965016"><ele>110.5</ele><time>2026-04-02T13:11:26.545Z</time></trkpt><trkpt lat="49.847737" lon="1.696388"><ele>111.0</ele><time>2026-04-02T13:11:27.545Z</time></trkpt><trkpt lat="49.847632" lon="1.6962587"><ele>110.5</ele><time>2026-04-02T13:11:28.545Z</time></trkpt><trkpt lat="49.8475269" lon="1.6961318"><ele>110.0</ele><time>2026-04-02T13:11:29.545Z</time></trkpt><trkpt lat="49.8474219" lon="1.6960086"><ele>109.5</ele><time>2026-04-02T13:11:30.546Z</time></trkpt><trkpt lat="49.8473186" lon="1.6959009"><ele>109.0</ele><time>2026-04-02T13:11:31.545Z</time></trkpt><trkpt lat="49.8472228" lon="1.6958053"><ele>109.00000000000001</ele><time>2026-04-02T13:11:32.546Z</time></trkpt><trkpt lat="49.8471334" lon="1.6957229"><ele>109.0</ele><time>2026-04-02T13:11:33.546Z</time></trkpt><trkpt lat="49.8470564" lon="1.6956499"><ele>109.0</ele><time>2026-04-02T13:11:34.545Z</time></trkpt><trkpt lat="49.8469862" lon="1.6955713"><ele>109.0</ele><time>2026-04-02T13:11:35.545Z</time></trkpt><trkpt lat="49.8469291" lon="1.6954865"><ele>109.00000000000001</ele><time>2026-04-02T13:11:36.545Z</time></trkpt><trkpt lat="49.8468736" lon="1.6953894"><ele>109.0</ele><time>2026-04-02T13:11:37.545Z</time></trkpt><trkpt lat="49.8468183" lon="1.6952891"><ele>108.0</ele><time>2026-04-02T13:11:38.546Z</time></trkpt><trkpt lat="49.8467546" lon="1.6951624"><ele>107.0</ele><time>2026-04-02T13:11:39.546Z</time></trkpt><trkpt lat="49.8466962" lon="1.6950229"><ele>106.0</ele><time>2026-04-02T13:11:40.545Z</time></trkpt><trkpt lat="49.8466359" lon="1.6948768"><ele>105.0</ele><time>2026-04-02T13:11:41.545Z</time></trkpt><trkpt lat="49.8465703" lon="1.6946848"><ele>105.0</ele><time>2026-04-02T13:11:42.544Z</time></trkpt><trkpt lat="49.8465217" lon="1.6945363"><ele>105.0</ele><time>2026-04-02T13:11:43.545Z</time></trkpt><trkpt lat="49.8464789" lon="1.6944066"><ele>105.0</ele><time>2026-04-02T13:11:44.546Z</time></trkpt><trkpt lat="49.846432" lon="1.6942926"><ele>105.0</ele><time>2026-04-02T13:11:45.545Z</time></trkpt><trkpt lat="49.8463656" lon="1.6941974"><ele>105.0</ele><time>2026-04-02T13:11:46.545Z</time></trkpt><trkpt lat="49.8462818" lon="1.6941412"><ele>105.8</ele><time>2026-04-02T13:11:47.546Z</time></trkpt><trkpt lat="49.8461847" lon="1.6941379"><ele>106.6</ele><time>2026-04-02T13:11:48.545Z</time></trkpt><trkpt lat="49.8460808" lon="1.6941654"><ele>107.4</ele><time>2026-04-02T13:11:49.545Z</time></trkpt><trkpt lat="49.8459815" lon="1.6941939"><ele>108.2</ele><time>2026-04-02T13:11:50.545Z</time></trkpt><trkpt lat="49.845892" lon="1.6942273"><ele>109.0</ele><time>2026-04-02T13:11:51.545Z</time></trkpt><trkpt lat="49.8458132" lon="1.6942495"><ele>107.66666666666667</ele><time>2026-04-02T13:11:52.545Z</time></trkpt><trkpt lat="49.8457489" lon="1.6942637"><ele>106.33333333333334</ele><time>2026-04-02T13:11:53.545Z</time></trkpt><trkpt lat="49.8456567" lon="1.6942202"><ele>105.0</ele><time>2026-04-02T13:11:55.545Z</time></trkpt><trkpt lat="49.8456132" lon="1.6941332"><ele>103.66666666666666</ele><time>2026-04-02T13:11:56.545Z</time></trkpt><trkpt lat="49.8455687" lon="1.6940108"><ele>102.33333333333333</ele><time>2026-04-02T13:11:57.545Z</time></trkpt><trkpt lat="49.8455195" lon="1.6938661"><ele>101.0</ele><time>2026-04-02T13:11:58.545Z</time></trkpt><trkpt lat="49.8454625" lon="1.6937002"><ele>101.5</ele><time>2026-04-02T13:11:59.545Z</time></trkpt><trkpt lat="49.8453969" lon="1.693523"><ele>102.0</ele><time>2026-04-02T13:12:00.545Z</time></trkpt><trkpt lat="49.845324" lon="1.6933355"><ele>102.5</ele><time>2026-04-02T13:12:01.545Z</time></trkpt><trkpt lat="49.8452462" lon="1.6931391"><ele>103.0</ele><time>2026-04-02T13:12:02.545Z</time></trkpt><trkpt lat="49.8451664" lon="1.692935"><ele>102.75</ele><time>2026-04-02T13:12:03.546Z</time></trkpt><trkpt lat="49.8450886" lon="1.6927332"><ele>102.5</ele><time>2026-04-02T13:12:04.544Z</time></trkpt><trkpt lat="49.8450148" lon="1.6925472"><ele>102.25</ele><time>2026-04-02T13:12:05.545Z</time></trkpt><trkpt lat="49.8449465" lon="1.6923686"><ele>102.0</ele><time>2026-04-02T13:12:06.545Z</time></trkpt><trkpt lat="49.84488" lon="1.6922005"><ele>102.0</ele><time>2026-04-02T13:12:07.545Z</time></trkpt><trkpt lat="49.8448155" lon="1.6920331"><ele>102.0</ele><time>2026-04-02T13:12:08.545Z</time></trkpt><trkpt lat="49.8447432" lon="1.6918683"><ele>102.0</ele><time>2026-04-02T13:12:09.545Z</time></trkpt><trkpt lat="49.8446778" lon="1.6917037"><ele>102.0</ele><time>2026-04-02T13:12:10.544Z</time></trkpt><trkpt lat="49.8446038" lon="1.6915441"><ele>102.25</ele><time>2026-04-02T13:12:11.544Z</time></trkpt><trkpt lat="49.8445118" lon="1.691386"><ele>102.5</ele><time>2026-04-02T13:12:12.546Z</time></trkpt><trkpt lat="49.8444121" lon="1.6912306"><ele>102.75</ele><time>2026-04-02T13:12:13.546Z</time></trkpt><trkpt lat="49.8443057" lon="1.6910739"><ele>103.0</ele><time>2026-04-02T13:12:14.546Z</time></trkpt><trkpt lat="49.844205" lon="1.6909123"><ele>104.25</ele><time>2026-04-02T13:12:15.545Z</time></trkpt><trkpt lat="49.844112" lon="1.6907556"><ele>105.5</ele><time>2026-04-02T13:12:16.545Z</time></trkpt><trkpt lat="49.8440237" lon="1.6905987"><ele>106.75</ele><time>2026-04-02T13:12:17.545Z</time></trkpt><trkpt lat="49.84394" lon="1.6904473"><ele>108.0</ele><time>2026-04-02T13:12:18.545Z</time></trkpt><trkpt lat="49.8438606" lon="1.6903083"><ele>108.0</ele><time>2026-04-02T13:12:19.545Z</time></trkpt><trkpt lat="49.8437772" lon="1.6901944"><ele>108.00000000000001</ele><time>2026-04-02T13:12:20.545Z</time></trkpt><trkpt lat="49.8436843" lon="1.6900992"><ele>108.00000000000001</ele><time>2026-04-02T13:12:21.546Z</time></trkpt><trkpt lat="49.8435911" lon="1.690022"><ele>108.0</ele><time>2026-04-02T13:12:22.545Z</time></trkpt><trkpt lat="49.8435073" lon="1.6899583"><ele>108.0</ele><time>2026-04-02T13:12:23.545Z</time></trkpt><trkpt lat="49.8434362" lon="1.6899127"><ele>109.0</ele><time>2026-04-02T13:12:24.545Z</time></trkpt><trkpt lat="49.8433748" lon="1.6898753"><ele>110.00000000000001</ele><time>2026-04-02T13:12:25.545Z</time></trkpt><trkpt lat="49.843289" lon="1.6897797"><ele>111.00000000000001</ele><time>2026-04-02T13:12:27.545Z</time></trkpt><trkpt lat="49.8432117" lon="1.6896021"><ele>112.0</ele><time>2026-04-02T13:12:29.546Z</time></trkpt><trkpt lat="49.8431821" lon="1.6894713"><ele>113.0</ele><time>2026-04-02T13:12:30.545Z</time></trkpt><trkpt lat="49.8431511" lon="1.6893155"><ele>113.2</ele><time>2026-04-02T13:12:31.545Z</time></trkpt><trkpt lat="49.8431245" lon="1.6891558"><ele>113.4</ele><time>2026-04-02T13:12:32.545Z</time></trkpt><trkpt lat="49.8430992" lon="1.6889929"><ele>113.60000000000001</ele><time>2026-04-02T13:12:33.545Z</time></trkpt><trkpt lat="49.8430704" lon="1.6888139"><ele>113.80000000000001</ele><time>2026-04-02T13:12:34.545Z</time></trkpt><trkpt lat="49.8430392" lon="1.6886439"><ele>114.0</ele><time>2026-04-02T13:12:35.546Z</time></trkpt><trkpt lat="49.843011" lon="1.6884758"><ele>114.0</ele><time>2026-04-02T13:12:36.545Z</time></trkpt><trkpt lat="49.8429808" lon="1.6883119"><ele>114.0</ele><time>2026-04-02T13:12:37.545Z</time></trkpt><trkpt lat="49.8429521" lon="1.6881517"><ele>114.0</ele><time>2026-04-02T13:12:38.546Z</time></trkpt><trkpt lat="49.8429226" lon="1.6879962"><ele>114.0</ele><time>2026-04-02T13:12:39.545Z</time></trkpt><trkpt lat="49.842893" lon="1.6878435"><ele>114.0</ele><time>2026-04-02T13:12:40.545Z</time></trkpt><trkpt lat="49.8428626" lon="1.6876742"><ele>113.75</ele><time>2026-04-02T13:12:41.545Z</time></trkpt><trkpt lat="49.842837" lon="1.6874965"><ele>113.5</ele><time>2026-04-02T13:12:42.544Z</time></trkpt><trkpt lat="49.8428132" lon="1.6873144"><ele>113.25</ele><time>2026-04-02T13:12:43.545Z</time></trkpt><trkpt lat="49.84279" lon="1.6871362"><ele>113.0</ele><time>2026-04-02T13:12:44.545Z</time></trkpt><trkpt lat="49.8427586" lon="1.6869491"><ele>112.75</ele><time>2026-04-02T13:12:45.546Z</time></trkpt><trkpt lat="49.8427159" lon="1.686753"><ele>112.5</ele><time>2026-04-02T13:12:46.545Z</time></trkpt><trkpt lat="49.8426656" lon="1.6865654"><ele>112.25</ele><time>2026-04-02T13:12:47.545Z</time></trkpt><trkpt lat="49.8426105" lon="1.6863869"><ele>112.0</ele><time>2026-04-02T13:12:48.545Z</time></trkpt><trkpt lat="49.8425524" lon="1.6862253"><ele>112.39999999999999</ele><time>2026-04-02T13:12:49.544Z</time></trkpt><trkpt lat="49.8424961" lon="1.686081"><ele>112.79999999999998</ele><time>2026-04-02T13:12:50.546Z</time></trkpt><trkpt lat="49.8424406" lon="1.6859399"><ele>113.2</ele><time>2026-04-02T13:12:51.545Z</time></trkpt><trkpt lat="49.8423834" lon="1.6857862"><ele>113.6</ele><time>2026-04-02T13:12:52.545Z</time></trkpt><trkpt lat="49.8423271" lon="1.6856303"><ele>114.0</ele><time>2026-04-02T13:12:53.545Z</time></trkpt><trkpt lat="49.842272" lon="1.6854789"><ele>114.0</ele><time>2026-04-02T13:12:54.546Z</time></trkpt><trkpt lat="49.8422172" lon="1.6853241"><ele>114.0</ele><time>2026-04-02T13:12:55.545Z</time></trkpt><trkpt lat="49.8421593" lon="1.6851676"><ele>114.0</ele><time>2026-04-02T13:12:56.546Z</time></trkpt><trkpt lat="49.8420981" lon="1.6850145"><ele>114.0</ele><time>2026-04-02T13:12:57.546Z</time></trkpt><trkpt lat="49.8420309" lon="1.6848641"><ele>114.0</ele><time>2026-04-02T13:12:58.545Z</time></trkpt><trkpt lat="49.8419562" lon="1.6847183"><ele>114.0</ele><time>2026-04-02T13:12:59.545Z</time></trkpt><trkpt lat="49.8418762" lon="1.6845791"><ele>114.0</ele><time>2026-04-02T13:13:00.545Z</time></trkpt><trkpt lat="49.8417921" lon="1.6844294"><ele>114.0</ele><time>2026-04-02T13:13:01.545Z</time></trkpt><trkpt lat="49.8417015" lon="1.6842692"><ele>114.0</ele><time>2026-04-02T13:13:02.545Z</time></trkpt><trkpt lat="49.8416124" lon="1.6841186"><ele>114.0</ele><time>2026-04-02T13:13:03.545Z</time></trkpt><trkpt lat="49.8415338" lon="1.6839819"><ele>114.0</ele><time>2026-04-02T13:13:04.545Z</time></trkpt><trkpt lat="49.8414567" lon="1.6838467"><ele>114.0</ele><time>2026-04-02T13:13:05.545Z</time></trkpt><trkpt lat="49.8413779" lon="1.6837061"><ele>113.6</ele><time>2026-04-02T13:13:06.546Z</time></trkpt><trkpt lat="49.8413099" lon="1.6835566"><ele>113.2</ele><time>2026-04-02T13:13:07.545Z</time></trkpt><trkpt lat="49.8412449" lon="1.6834067"><ele>112.79999999999998</ele><time>2026-04-02T13:13:08.545Z</time></trkpt><trkpt lat="49.8411867" lon="1.6832606"><ele>112.39999999999999</ele><time>2026-04-02T13:13:09.544Z</time></trkpt><trkpt lat="49.8411366" lon="1.6831284"><ele>112.0</ele><time>2026-04-02T13:13:10.546Z</time></trkpt><trkpt lat="49.8410909" lon="1.6830078"><ele>112.00000000000001</ele><time>2026-04-02T13:13:11.545Z</time></trkpt><trkpt lat="49.8410467" lon="1.6829034"><ele>112.0</ele><time>2026-04-02T13:13:12.545Z</time></trkpt><trkpt lat="49.8409987" lon="1.6828155"><ele>112.0</ele><time>2026-04-02T13:13:13.546Z</time></trkpt><trkpt lat="49.8409371" lon="1.6827422"><ele>112.0</ele><time>2026-04-02T13:13:14.546Z</time></trkpt><trkpt lat="49.8408626" lon="1.6826634"><ele>112.00000000000001</ele><time>2026-04-02T13:13:15.546Z</time></trkpt><trkpt lat="49.840778" lon="1.6825795"><ele>112.0</ele><time>2026-04-02T13:13:16.546Z</time></trkpt><trkpt lat="49.8406951" lon="1.6824871"><ele>112.8</ele><time>2026-04-02T13:13:17.545Z</time></trkpt><trkpt lat="49.8406182" lon="1.682392"><ele>113.6</ele><time>2026-04-02T13:13:18.545Z</time></trkpt><trkpt lat="49.8405398" lon="1.6822859"><ele>114.39999999999999</ele><time>2026-04-02T13:13:19.545Z</time></trkpt><trkpt lat="49.8404717" lon="1.6821774"><ele>115.19999999999999</ele><time>2026-04-02T13:13:20.547Z</time></trkpt><trkpt lat="49.8404116" lon="1.6820616"><ele>116.0</ele><time>2026-04-02T13:13:21.546Z</time></trkpt><trkpt lat="49.8403542" lon="1.6819446"><ele>115.83333333333333</ele><time>2026-04-02T13:13:22.546Z</time></trkpt><trkpt lat="49.8402998" lon="1.68184"><ele>115.66666666666666</ele><time>2026-04-02T13:13:23.546Z</time></trkpt><trkpt lat="49.8402564" lon="1.6817434"><ele>115.5</ele><time>2026-04-02T13:13:24.546Z</time></trkpt><trkpt lat="49.8402177" lon="1.6816552"><ele>115.33333333333334</ele><time>2026-04-02T13:13:25.547Z</time></trkpt><trkpt lat="49.8401775" lon="1.6815666"><ele>115.16666666666667</ele><time>2026-04-02T13:13:26.547Z</time></trkpt><trkpt lat="49.8401344" lon="1.6814646"><ele>115.0</ele><time>2026-04-02T13:13:27.547Z</time></trkpt><trkpt lat="49.8400965" lon="1.681333"><ele>116.0</ele><time>2026-04-02T13:13:28.546Z</time></trkpt><trkpt lat="49.840069" lon="1.6811698"><ele>117.0</ele><time>2026-04-02T13:13:29.547Z</time></trkpt><trkpt lat="49.8400346" lon="1.681011"><ele>118.0</ele><time>2026-04-02T13:13:30.546Z</time></trkpt><trkpt lat="49.8400061" lon="1.6808541"><ele>119.0</ele><time>2026-04-02T13:13:31.546Z</time></trkpt><trkpt lat="49.8399882" lon="1.6807018"><ele>120.0</ele><time>2026-04-02T13:13:32.547Z</time></trkpt><trkpt lat="49.8399746" lon="1.680555"><ele>120.0</ele><time>2026-04-02T13:13:33.546Z</time></trkpt><trkpt lat="49.8399545" lon="1.6804199"><ele>120.0</ele><time>2026-04-02T13:13:34.547Z</time></trkpt><trkpt lat="49.8399321" lon="1.6803006"><ele>120.0</ele><time>2026-04-02T13:13:35.546Z</time></trkpt><trkpt lat="49.8399" lon="1.6801895"><ele>120.0</ele><time>2026-04-02T13:13:36.547Z</time></trkpt><trkpt lat="49.8398587" lon="1.6800789"><ele>120.0</ele><time>2026-04-02T13:13:37.547Z</time></trkpt><trkpt lat="49.8398094" lon="1.679971"><ele>120.0</ele><time>2026-04-02T13:13:38.547Z</time></trkpt><trkpt lat="49.8397603" lon="1.6798692"><ele>119.4</ele><time>2026-04-02T13:13:39.547Z</time></trkpt><trkpt lat="49.8397055" lon="1.6797692"><ele>118.8</ele><time>2026-04-02T13:13:40.547Z</time></trkpt><trkpt lat="49.839651" lon="1.6796672"><ele>118.19999999999999</ele><time>2026-04-02T13:13:41.547Z</time></trkpt><trkpt lat="49.8395908" lon="1.6795405"><ele>117.6</ele><time>2026-04-02T13:13:42.546Z</time></trkpt><trkpt lat="49.8395246" lon="1.6794062"><ele>117.0</ele><time>2026-04-02T13:13:43.546Z</time></trkpt><trkpt lat="49.8394618" lon="1.6792805"><ele>116.8</ele><time>2026-04-02T13:13:44.546Z</time></trkpt><trkpt lat="49.8394024" lon="1.679154"><ele>116.6</ele><time>2026-04-02T13:13:45.545Z</time></trkpt><trkpt lat="49.8393478" lon="1.6790303"><ele>116.39999999999999</ele><time>2026-04-02T13:13:46.546Z</time></trkpt><trkpt lat="49.8393106" lon="1.6788995"><ele>116.19999999999999</ele><time>2026-04-02T13:13:47.546Z</time></trkpt><trkpt lat="49.8392486" lon="1.6787813"><ele>116.0</ele><time>2026-04-02T13:13:48.547Z</time></trkpt><trkpt lat="49.8391857" lon="1.6786695"><ele>117.19999999999999</ele><time>2026-04-02T13:13:49.546Z</time></trkpt><trkpt lat="49.8391201" lon="1.6785603"><ele>118.39999999999999</ele><time>2026-04-02T13:13:50.547Z</time></trkpt><trkpt lat="49.8390656" lon="1.6784359"><ele>119.6</ele><time>2026-04-02T13:13:51.547Z</time></trkpt><trkpt lat="49.8390175" lon="1.6782811"><ele>120.8</ele><time>2026-04-02T13:13:52.546Z</time></trkpt><trkpt lat="49.8389783" lon="1.6780958"><ele>122.0</ele><time>2026-04-02T13:13:53.547Z</time></trkpt><trkpt lat="49.838932" lon="1.6779071"><ele>121.25</ele><time>2026-04-02T13:13:54.546Z</time></trkpt><trkpt lat="49.8388831" lon="1.6777028"><ele>120.5</ele><time>2026-04-02T13:13:55.546Z</time></trkpt><trkpt lat="49.8388284" lon="1.6774925"><ele>119.75</ele><time>2026-04-02T13:13:56.546Z</time></trkpt><trkpt lat="49.838779" lon="1.677262"><ele>119.0</ele><time>2026-04-02T13:13:57.546Z</time></trkpt><trkpt lat="49.8387402" lon="1.6770198"><ele>119.0</ele><time>2026-04-02T13:13:58.546Z</time></trkpt><trkpt lat="49.8387109" lon="1.6767707"><ele>119.0</ele><time>2026-04-02T13:13:59.546Z</time></trkpt><trkpt lat="49.8386866" lon="1.6765129"><ele>119.0</ele><time>2026-04-02T13:14:00.546Z</time></trkpt><trkpt lat="49.838667" lon="1.6762583"><ele>119.25</ele><time>2026-04-02T13:14:01.546Z</time></trkpt><trkpt lat="49.8386513" lon="1.6760223"><ele>119.5</ele><time>2026-04-02T13:14:02.545Z</time></trkpt><trkpt lat="49.8386292" lon="1.6758061"><ele>119.75</ele><time>2026-04-02T13:14:03.546Z</time></trkpt><trkpt lat="49.8386" lon="1.6755953"><ele>120.0</ele><time>2026-04-02T13:14:04.546Z</time></trkpt><trkpt lat="49.8385693" lon="1.6753816"><ele>120.75</ele><time>2026-04-02T13:14:05.546Z</time></trkpt><trkpt lat="49.8385341" lon="1.6751639"><ele>121.5</ele><time>2026-04-02T13:14:06.547Z</time></trkpt><trkpt lat="49.8384984" lon="1.6749402"><ele>122.25</ele><time>2026-04-02T13:14:07.546Z</time></trkpt><trkpt lat="49.838455" lon="1.6747148"><ele>123.0</ele><time>2026-04-02T13:14:08.546Z</time></trkpt><trkpt lat="49.8384145" lon="1.6744861"><ele>124.0</ele><time>2026-04-02T13:14:09.546Z</time></trkpt><trkpt lat="49.8383771" lon="1.6742679"><ele>125.0</ele><time>2026-04-02T13:14:10.546Z</time></trkpt><trkpt lat="49.8383291" lon="1.6740435"><ele>126.0</ele><time>2026-04-02T13:14:11.546Z</time></trkpt><trkpt lat="49.8382846" lon="1.673818"><ele>126.0</ele><time>2026-04-02T13:14:12.546Z</time></trkpt><trkpt lat="49.8382378" lon="1.6735882"><ele>126.0</ele><time>2026-04-02T13:14:13.546Z</time></trkpt><trkpt lat="49.8381873" lon="1.6733546"><ele>126.0</ele><time>2026-04-02T13:14:14.546Z</time></trkpt><trkpt lat="49.8381446" lon="1.6731151"><ele>126.0</ele><time>2026-04-02T13:14:15.546Z</time></trkpt><trkpt lat="49.8381026" lon="1.6728647"><ele>126.0</ele><time>2026-04-02T13:14:16.547Z</time></trkpt><trkpt lat="49.8380662" lon="1.6726174"><ele>126.0</ele><time>2026-04-02T13:14:17.547Z</time></trkpt><trkpt lat="49.838038" lon="1.6723635"><ele>126.0</ele><time>2026-04-02T13:14:18.546Z</time></trkpt><trkpt lat="49.8380282" lon="1.6721076"><ele>126.0</ele><time>2026-04-02T13:14:19.546Z</time></trkpt><trkpt lat="49.8380217" lon="1.6718589"><ele>126.0</ele><time>2026-04-02T13:14:20.545Z</time></trkpt><trkpt lat="49.8380196" lon="1.671627"><ele>126.0</ele><time>2026-04-02T13:14:21.547Z</time></trkpt><trkpt lat="49.8380149" lon="1.6713971"><ele>126.0</ele><time>2026-04-02T13:14:22.545Z</time></trkpt><trkpt lat="49.838001" lon="1.6711693"><ele>126.0</ele><time>2026-04-02T13:14:23.546Z</time></trkpt><trkpt lat="49.8379808" lon="1.6709359"><ele>126.0</ele><time>2026-04-02T13:14:24.546Z</time></trkpt><trkpt lat="49.8379609" lon="1.6706997"><ele>126.66666666666666</ele><time>2026-04-02T13:14:25.546Z</time></trkpt><trkpt lat="49.8379368" lon="1.6704607"><ele>127.33333333333333</ele><time>2026-04-02T13:14:26.546Z</time></trkpt><trkpt lat="49.8379071" lon="1.6702242"><ele>128.0</ele><time>2026-04-02T13:14:27.546Z</time></trkpt><trkpt lat="49.8378781" lon="1.6699942"><ele>129.0</ele><time>2026-04-02T13:14:28.546Z</time></trkpt><trkpt lat="49.8378584" lon="1.669755"><ele>130.0</ele><time>2026-04-02T13:14:29.547Z</time></trkpt><trkpt lat="49.8378352" lon="1.669516"><ele>131.0</ele><time>2026-04-02T13:14:30.546Z</time></trkpt><trkpt lat="49.8378176" lon="1.6692685"><ele>132.0</ele><time>2026-04-02T13:14:31.546Z</time></trkpt><trkpt lat="49.8378049" lon="1.6690198"><ele>133.0</ele><time>2026-04-02T13:14:32.546Z</time></trkpt><trkpt lat="49.8377992" lon="1.6687692"><ele>134.0</ele><time>2026-04-02T13:14:33.547Z</time></trkpt><trkpt lat="49.8377987" lon="1.6685218"><ele>134.5</ele><time>2026-04-02T13:14:34.546Z</time></trkpt><trkpt lat="49.8377972" lon="1.6682793"><ele>135.0</ele><time>2026-04-02T13:14:35.546Z</time></trkpt><trkpt lat="49.8377961" lon="1.6680598"><ele>135.5</ele><time>2026-04-02T13:14:36.546Z</time></trkpt><trkpt lat="49.8377986" lon="1.6678608"><ele>136.0</ele><time>2026-04-02T13:14:37.546Z</time></trkpt><trkpt lat="49.8377999" lon="1.6676852"><ele>136.4</ele><time>2026-04-02T13:14:38.545Z</time></trkpt><trkpt lat="49.8377991" lon="1.667518"><ele>136.8</ele><time>2026-04-02T13:14:39.546Z</time></trkpt><trkpt lat="49.8377972" lon="1.6673611"><ele>137.20000000000002</ele><time>2026-04-02T13:14:40.546Z</time></trkpt><trkpt lat="49.837793" lon="1.6671966"><ele>137.6</ele><time>2026-04-02T13:14:41.546Z</time></trkpt><trkpt lat="49.8377875" lon="1.6670241"><ele>138.0</ele><time>2026-04-02T13:14:42.546Z</time></trkpt><trkpt lat="49.8377858" lon="1.6668495"><ele>138.5</ele><time>2026-04-02T13:14:43.546Z</time></trkpt><trkpt lat="49.8377844" lon="1.6666626"><ele>139.0</ele><time>2026-04-02T13:14:44.546Z</time></trkpt><trkpt lat="49.8377845" lon="1.6664733"><ele>139.5</ele><time>2026-04-02T13:14:45.546Z</time></trkpt><trkpt lat="49.8377855" lon="1.6662917"><ele>140.0</ele><time>2026-04-02T13:14:46.546Z</time></trkpt><trkpt lat="49.8377897" lon="1.6660985"><ele>140.25</ele><time>2026-04-02T13:14:47.546Z</time></trkpt><trkpt lat="49.8377892" lon="1.6658991"><ele>140.5</ele><time>2026-04-02T13:14:48.547Z</time></trkpt><trkpt lat="49.8377855" lon="1.6657158"><ele>140.75</ele><time>2026-04-02T13:14:49.547Z</time></trkpt><trkpt lat="49.8377892" lon="1.6655416"><ele>141.0</ele><time>2026-04-02T13:14:50.546Z</time></trkpt><trkpt lat="49.8378046" lon="1.6653559"><ele>140.5</ele><time>2026-04-02T13:14:51.546Z</time></trkpt><trkpt lat="49.8378345" lon="1.6651655"><ele>140.0</ele><time>2026-04-02T13:14:52.546Z</time></trkpt><trkpt lat="49.8378684" lon="1.6649668"><ele>139.5</ele><time>2026-04-02T13:14:53.546Z</time></trkpt><trkpt lat="49.8379016" lon="1.6647601"><ele>139.0</ele><time>2026-04-02T13:14:54.546Z</time></trkpt><trkpt lat="49.8379394" lon="1.6645616"><ele>139.0</ele><time>2026-04-02T13:14:55.546Z</time></trkpt><trkpt lat="49.8379833" lon="1.6643701"><ele>139.0</ele><time>2026-04-02T13:14:56.546Z</time></trkpt><trkpt lat="49.83802" lon="1.6641702"><ele>139.0</ele><time>2026-04-02T13:14:57.546Z</time></trkpt><trkpt lat="49.8380665" lon="1.6639767"><ele>139.0</ele><time>2026-04-02T13:14:58.547Z</time></trkpt><trkpt lat="49.8381047" lon="1.6637999"><ele>139.0</ele><time>2026-04-02T13:14:59.546Z</time></trkpt><trkpt lat="49.8381424" lon="1.6636455"><ele>139.0</ele><time>2026-04-02T13:15:00.546Z</time></trkpt><trkpt lat="49.8381724" lon="1.6634964"><ele>139.0</ele><time>2026-04-02T13:15:01.547Z</time></trkpt><trkpt lat="49.8381992" lon="1.6633356"><ele>139.0</ele><time>2026-04-02T13:15:02.547Z</time></trkpt><trkpt lat="49.8382105" lon="1.6631589"><ele>139.0</ele><time>2026-04-02T13:15:03.546Z</time></trkpt><trkpt lat="49.8382166" lon="1.6629678"><ele>138.5</ele><time>2026-04-02T13:15:04.545Z</time></trkpt><trkpt lat="49.8382203" lon="1.6627629"><ele>138.0</ele><time>2026-04-02T13:15:05.546Z</time></trkpt><trkpt lat="49.8382168" lon="1.6625562"><ele>137.5</ele><time>2026-04-02T13:15:06.546Z</time></trkpt><trkpt lat="49.838222" lon="1.6623462"><ele>137.0</ele><time>2026-04-02T13:15:07.546Z</time></trkpt><trkpt lat="49.8382199" lon="1.662143"><ele>137.0</ele><time>2026-04-02T13:15:08.546Z</time></trkpt><trkpt lat="49.8382179" lon="1.66194"><ele>137.0</ele><time>2026-04-02T13:15:09.546Z</time></trkpt><trkpt lat="49.8382134" lon="1.6617451"><ele>137.0</ele><time>2026-04-02T13:15:10.547Z</time></trkpt><trkpt lat="49.8382078" lon="1.6615581"><ele>137.0</ele><time>2026-04-02T13:15:11.546Z</time></trkpt><trkpt lat="49.8382081" lon="1.6613847"><ele>137.0</ele><time>2026-04-02T13:15:12.546Z</time></trkpt><trkpt lat="49.8382025" lon="1.6612139"><ele>137.0</ele><time>2026-04-02T13:15:13.546Z</time></trkpt><trkpt lat="49.8381941" lon="1.6610458"><ele>137.0</ele><time>2026-04-02T13:15:14.546Z</time></trkpt><trkpt lat="49.8381763" lon="1.6608624"><ele>137.0</ele><time>2026-04-02T13:15:15.546Z</time></trkpt><trkpt lat="49.8381553" lon="1.6606583"><ele>137.25</ele><time>2026-04-02T13:15:16.547Z</time></trkpt><trkpt lat="49.8381284" lon="1.6604621"><ele>137.5</ele><time>2026-04-02T13:15:17.545Z</time></trkpt><trkpt lat="49.8380948" lon="1.6602548"><ele>137.75</ele><time>2026-04-02T13:15:18.545Z</time></trkpt><trkpt lat="49.8380596" lon="1.6600375"><ele>138.0</ele><time>2026-04-02T13:15:19.546Z</time></trkpt><trkpt lat="49.8380143" lon="1.6598223"><ele>138.25</ele><time>2026-04-02T13:15:20.546Z</time></trkpt><trkpt lat="49.8379702" lon="1.6596104"><ele>138.5</ele><time>2026-04-02T13:15:21.546Z</time></trkpt><trkpt lat="49.8379224" lon="1.6594155"><ele>138.75</ele><time>2026-04-02T13:15:22.546Z</time></trkpt><trkpt lat="49.8378751" lon="1.659223"><ele>139.0</ele><time>2026-04-02T13:15:23.547Z</time></trkpt><trkpt lat="49.8378259" lon="1.6590182"><ele>139.25</ele><time>2026-04-02T13:15:24.547Z</time></trkpt><trkpt lat="49.837783" lon="1.6588051"><ele>139.5</ele><time>2026-04-02T13:15:25.546Z</time></trkpt><trkpt lat="49.8377389" lon="1.6585982"><ele>139.75</ele><time>2026-04-02T13:15:26.546Z</time></trkpt><trkpt lat="49.8376918" lon="1.6583992"><ele>140.0</ele><time>2026-04-02T13:15:27.546Z</time></trkpt><trkpt lat="49.8376458" lon="1.6582142"><ele>141.25</ele><time>2026-04-02T13:15:28.546Z</time></trkpt><trkpt lat="49.837601" lon="1.65804"><ele>142.5</ele><time>2026-04-02T13:15:29.546Z</time></trkpt><trkpt lat="49.8375428" lon="1.6578628"><ele>143.75</ele><time>2026-04-02T13:15:30.547Z</time></trkpt><trkpt lat="49.8374846" lon="1.6576798"><ele>145.0</ele><time>2026-04-02T13:15:31.546Z</time></trkpt><trkpt lat="49.8374221" lon="1.6575141"><ele>145.5</ele><time>2026-04-02T13:15:32.546Z</time></trkpt><trkpt lat="49.8373622" lon="1.6573592"><ele>146.0</ele><time>2026-04-02T13:15:33.547Z</time></trkpt><trkpt lat="49.8372929" lon="1.6572171"><ele>146.5</ele><time>2026-04-02T13:15:34.547Z</time></trkpt><trkpt lat="49.8372335" lon="1.6570445"><ele>147.0</ele><time>2026-04-02T13:15:35.547Z</time></trkpt><trkpt lat="49.837205" lon="1.6568473"><ele>147.75</ele><time>2026-04-02T13:15:36.547Z</time></trkpt><trkpt lat="49.8371665" lon="1.6566463"><ele>148.5</ele><time>2026-04-02T13:15:37.545Z</time></trkpt><trkpt lat="49.8371221" lon="1.656438"><ele>149.25</ele><time>2026-04-02T13:15:38.546Z</time></trkpt><trkpt lat="49.837062" lon="1.6562339"><ele>150.0</ele><time>2026-04-02T13:15:39.546Z</time></trkpt><trkpt lat="49.8370136" lon="1.6560254"><ele>149.66666666666666</ele><time>2026-04-02T13:15:40.546Z</time></trkpt><trkpt lat="49.8369385" lon="1.6558107"><ele>149.33333333333331</ele><time>2026-04-02T13:15:41.547Z</time></trkpt><trkpt lat="49.8368597" lon="1.6555999"><ele>149.0</ele><time>2026-04-02T13:15:42.546Z</time></trkpt><trkpt lat="49.8367744" lon="1.6553959"><ele>149.33333333333331</ele><time>2026-04-02T13:15:43.546Z</time></trkpt><trkpt lat="49.8366793" lon="1.6551879"><ele>149.66666666666666</ele><time>2026-04-02T13:15:44.546Z</time></trkpt><trkpt lat="49.8365976" lon="1.6549651"><ele>150.0</ele><time>2026-04-02T13:15:45.547Z</time></trkpt><trkpt lat="49.8365348" lon="1.6547268"><ele>150.0</ele><time>2026-04-02T13:15:46.546Z</time></trkpt><trkpt lat="49.8364614" lon="1.6545032"><ele>150.0</ele><time>2026-04-02T13:15:47.546Z</time></trkpt><trkpt lat="49.836396" lon="1.6542758"><ele>150.0</ele><time>2026-04-02T13:15:48.546Z</time></trkpt><trkpt lat="49.8363348" lon="1.6540526"><ele>151.33333333333334</ele><time>2026-04-02T13:15:49.546Z</time></trkpt><trkpt lat="49.8362667" lon="1.6538287"><ele>152.66666666666669</ele><time>2026-04-02T13:15:50.546Z</time></trkpt><trkpt lat="49.8361981" lon="1.653609"><ele>154.0</ele><time>2026-04-02T13:15:51.546Z</time></trkpt><trkpt lat="49.8361332" lon="1.6533794"><ele>155.66666666666669</ele><time>2026-04-02T13:15:52.545Z</time></trkpt><trkpt lat="49.8360708" lon="1.6531506"><ele>157.33333333333334</ele><time>2026-04-02T13:15:53.546Z</time></trkpt><trkpt lat="49.835984" lon="1.6529355"><ele>159.0</ele><time>2026-04-02T13:15:54.546Z</time></trkpt><trkpt lat="49.8359158" lon="1.6527057"><ele>159.0</ele><time>2026-04-02T13:15:55.547Z</time></trkpt><trkpt lat="49.8358589" lon="1.652468"><ele>159.0</ele><time>2026-04-02T13:15:56.546Z</time></trkpt><trkpt lat="49.8358053" lon="1.6522233"><ele>159.0</ele><time>2026-04-02T13:15:57.547Z</time></trkpt><trkpt lat="49.8357544" lon="1.6519755"><ele>160.0</ele><time>2026-04-02T13:15:58.546Z</time></trkpt><trkpt lat="49.8356992" lon="1.6517289"><ele>161.0</ele><time>2026-04-02T13:15:59.546Z</time></trkpt><trkpt lat="49.8356404" lon="1.651486"><ele>162.0</ele><time>2026-04-02T13:16:00.546Z</time></trkpt><trkpt lat="49.8355894" lon="1.6512495"><ele>163.33333333333334</ele><time>2026-04-02T13:16:01.547Z</time></trkpt><trkpt lat="49.8355346" lon="1.651011"><ele>164.66666666666669</ele><time>2026-04-02T13:16:02.547Z</time></trkpt><trkpt lat="49.8354882" lon="1.650768"><ele>166.0</ele><time>2026-04-02T13:16:03.546Z</time></trkpt><trkpt lat="49.8354542" lon="1.6505222"><ele>168.0</ele><time>2026-04-02T13:16:04.546Z</time></trkpt><trkpt lat="49.8354301" lon="1.6502751"><ele>170.0</ele><time>2026-04-02T13:16:05.545Z</time></trkpt><trkpt lat="49.8354062" lon="1.6500249"><ele>172.0</ele><time>2026-04-02T13:16:06.545Z</time></trkpt><trkpt lat="49.8353767" lon="1.6497844"><ele>172.0</ele><time>2026-04-02T13:16:07.546Z</time></trkpt><trkpt lat="49.8353525" lon="1.6495545"><ele>172.0</ele><time>2026-04-02T13:16:08.546Z</time></trkpt><trkpt lat="49.8353304" lon="1.6493152"><ele>172.0</ele><time>2026-04-02T13:16:09.547Z</time></trkpt><trkpt lat="49.8353043" lon="1.6490871"><ele>173.5</ele><time>2026-04-02T13:16:10.546Z</time></trkpt><trkpt lat="49.8352747" lon="1.6488637"><ele>175.0</ele><time>2026-04-02T13:16:11.546Z</time></trkpt><trkpt lat="49.8352272" lon="1.6486455"><ele>176.5</ele><time>2026-04-02T13:16:12.546Z</time></trkpt><trkpt lat="49.8351786" lon="1.6484212"><ele>178.0</ele><time>2026-04-02T13:16:13.547Z</time></trkpt><trkpt lat="49.8351127" lon="1.6482092"><ele>180.0</ele><time>2026-04-02T13:16:14.547Z</time></trkpt><trkpt lat="49.8350564" lon="1.6479871"><ele>182.0</ele><time>2026-04-02T13:16:15.546Z</time></trkpt><trkpt lat="49.8349923" lon="1.6477724"><ele>184.0</ele><time>2026-04-02T13:16:16.547Z</time></trkpt><trkpt lat="49.8349309" lon="1.6475504"><ele>184.66666666666669</ele><time>2026-04-02T13:16:17.547Z</time></trkpt><trkpt lat="49.8348682" lon="1.647326"><ele>185.33333333333334</ele><time>2026-04-02T13:16:18.546Z</time></trkpt><trkpt lat="49.8348116" lon="1.6470991"><ele>186.0</ele><time>2026-04-02T13:16:19.547Z</time></trkpt><trkpt lat="49.8347498" lon="1.6468697"><ele>186.66666666666666</ele><time>2026-04-02T13:16:20.546Z</time></trkpt><trkpt lat="49.8346881" lon="1.6466373"><ele>187.33333333333331</ele><time>2026-04-02T13:16:21.546Z</time></trkpt><trkpt lat="49.8346304" lon="1.6464035"><ele>188.0</ele><time>2026-04-02T13:16:22.546Z</time></trkpt><trkpt lat="49.8345705" lon="1.64617"><ele>190.0</ele><time>2026-04-02T13:16:23.546Z</time></trkpt><trkpt lat="49.834503" lon="1.6459403"><ele>192.0</ele><time>2026-04-02T13:16:24.546Z</time></trkpt><trkpt lat="49.8344407" lon="1.6457057"><ele>194.0</ele><time>2026-04-02T13:16:25.546Z</time></trkpt><trkpt lat="49.8343836" lon="1.6454686"><ele>194.66666666666669</ele><time>2026-04-02T13:16:26.546Z</time></trkpt><trkpt lat="49.8343256" lon="1.6452334"><ele>195.33333333333331</ele><time>2026-04-02T13:16:27.546Z</time></trkpt><trkpt lat="49.8342683" lon="1.6449918"><ele>196.0</ele><time>2026-04-02T13:16:28.546Z</time></trkpt><trkpt lat="49.8342102" lon="1.6447559"><ele>196.0</ele><time>2026-04-02T13:16:29.546Z</time></trkpt><trkpt lat="49.8341614" lon="1.6445515"><ele>196.0</ele><time>2026-04-02T13:16:30.545Z</time></trkpt><trkpt lat="49.8341144" lon="1.6443677"><ele>196.0</ele><time>2026-04-02T13:16:31.546Z</time></trkpt><trkpt lat="49.8340678" lon="1.6441715"><ele>196.0</ele><time>2026-04-02T13:16:32.547Z</time></trkpt><trkpt lat="49.8340187" lon="1.6439753"><ele>195.5</ele><time>2026-04-02T13:16:33.546Z</time></trkpt><trkpt lat="49.8339678" lon="1.6437932"><ele>195.0</ele><time>2026-04-02T13:16:34.546Z</time></trkpt><trkpt lat="49.8339139" lon="1.6436078"><ele>194.5</ele><time>2026-04-02T13:16:35.547Z</time></trkpt><trkpt lat="49.8338577" lon="1.6434244"><ele>194.0</ele><time>2026-04-02T13:16:36.545Z</time></trkpt><trkpt lat="49.8337951" lon="1.6432368"><ele>194.0</ele><time>2026-04-02T13:16:37.546Z</time></trkpt><trkpt lat="49.8337237" lon="1.6430604"><ele>194.0</ele><time>2026-04-02T13:16:38.546Z</time></trkpt><trkpt lat="49.8336526" lon="1.6428812"><ele>194.0</ele><time>2026-04-02T13:16:39.547Z</time></trkpt><trkpt lat="49.8335978" lon="1.6427107"><ele>194.0</ele><time>2026-04-02T13:16:40.546Z</time></trkpt><trkpt lat="49.8335292" lon="1.6425428"><ele>197.75</ele><time>2026-04-02T13:16:41.546Z</time></trkpt><trkpt lat="49.8334615" lon="1.6423741"><ele>201.5</ele><time>2026-04-02T13:16:42.546Z</time></trkpt><trkpt lat="49.8334035" lon="1.6421986"><ele>205.25</ele><time>2026-04-02T13:16:43.546Z</time></trkpt><trkpt lat="49.8333218" lon="1.6420499"><ele>209.0</ele><time>2026-04-02T13:16:44.546Z</time></trkpt><trkpt lat="49.8332442" lon="1.6419288"><ele>210.75</ele><time>2026-04-02T13:16:45.546Z</time></trkpt><trkpt lat="49.8331688" lon="1.6417925"><ele>212.5</ele><time>2026-04-02T13:16:46.547Z</time></trkpt><trkpt lat="49.8331047" lon="1.641652"><ele>214.25</ele><time>2026-04-02T13:16:47.545Z</time></trkpt><trkpt lat="49.8330384" lon="1.6415132"><ele>216.0</ele><time>2026-04-02T13:16:48.546Z</time></trkpt><trkpt lat="49.8329711" lon="1.6413737"><ele>216.0</ele><time>2026-04-02T13:16:49.546Z</time></trkpt><trkpt lat="49.8329056" lon="1.6412423"><ele>216.0</ele><time>2026-04-02T13:16:50.546Z</time></trkpt><trkpt lat="49.8328417" lon="1.6411227"><ele>216.0</ele><time>2026-04-02T13:16:51.546Z</time></trkpt><trkpt lat="49.832786" lon="1.6410257"><ele>216.0</ele><time>2026-04-02T13:16:52.546Z</time></trkpt><trkpt lat="49.8327317" lon="1.6409467"><ele>216.0</ele><time>2026-04-02T13:16:53.546Z</time></trkpt><trkpt lat="49.8326853" lon="1.6408719"><ele>216.0</ele><time>2026-04-02T13:16:54.547Z</time></trkpt><trkpt lat="49.8325881" lon="1.6407656"><ele>216.0</ele><time>2026-04-02T13:16:56.546Z</time></trkpt><trkpt lat="49.8325257" lon="1.6406146"><ele>216.00000000000003</ele><time>2026-04-02T13:17:14.545Z</time></trkpt><trkpt lat="49.8324607" lon="1.6404676"><ele>216.00000000000003</ele><time>2026-04-02T13:17:17.547Z</time></trkpt><trkpt lat="49.8323966" lon="1.6403927"><ele>216.0</ele><time>2026-04-02T13:17:20.546Z</time></trkpt><trkpt lat="49.8323371" lon="1.6404387"><ele>216.0</ele><time>2026-04-02T13:17:27.549Z</time></trkpt><trkpt lat="49.8325875" lon="1.6407216"><ele>216.0</ele><time>2026-04-02T13:17:28.546Z</time></trkpt><trkpt lat="49.8327087" lon="1.6408993"><ele>216.0</ele><time>2026-04-02T13:17:29.545Z</time></trkpt><trkpt lat="49.8328058" lon="1.6410525"><ele>216.0</ele><time>2026-04-02T13:17:30.546Z</time></trkpt><trkpt lat="49.8328845" lon="1.6411946"><ele>216.0</ele><time>2026-04-02T13:17:31.546Z</time></trkpt><trkpt lat="49.8329528" lon="1.6413296"><ele>216.0</ele><time>2026-04-02T13:17:32.547Z</time></trkpt><trkpt lat="49.8330141" lon="1.6414627"><ele>216.00000000000003</ele><time>2026-04-02T13:17:33.546Z</time></trkpt><trkpt lat="49.8330784" lon="1.641598"><ele>216.00000000000003</ele><time>2026-04-02T13:17:34.547Z</time></trkpt><trkpt lat="49.8331381" lon="1.6417406"><ele>216.0</ele><time>2026-04-02T13:17:35.547Z</time></trkpt><trkpt lat="49.833201" lon="1.6418558"><ele>216.0</ele><time>2026-04-02T13:17:36.546Z</time></trkpt><trkpt lat="49.8332673" lon="1.6419736"><ele>214.60000000000002</ele><time>2026-04-02T13:17:37.545Z</time></trkpt><trkpt lat="49.833335" lon="1.642098"><ele>213.20000000000002</ele><time>2026-04-02T13:17:38.547Z</time></trkpt><trkpt lat="49.8334007" lon="1.6422126"><ele>211.8</ele><time>2026-04-02T13:17:39.546Z</time></trkpt><trkpt lat="49.8334622" lon="1.6423489"><ele>210.39999999999998</ele><time>2026-04-02T13:17:40.547Z</time></trkpt><trkpt lat="49.8335294" lon="1.6425055"><ele>209.0</ele><time>2026-04-02T13:17:41.547Z</time></trkpt><trkpt lat="49.8335928" lon="1.6426694"><ele>205.25</ele><time>2026-04-02T13:17:42.546Z</time></trkpt><trkpt lat="49.8336599" lon="1.642827"><ele>201.5</ele><time>2026-04-02T13:17:43.547Z</time></trkpt><trkpt lat="49.8337179" lon="1.6429973"><ele>197.75</ele><time>2026-04-02T13:17:44.546Z</time></trkpt><trkpt lat="49.8337747" lon="1.6431557"><ele>194.0</ele><time>2026-04-02T13:17:45.547Z</time></trkpt><trkpt lat="49.8338287" lon="1.6433122"><ele>194.0</ele><time>2026-04-02T13:17:46.545Z</time></trkpt><trkpt lat="49.8338834" lon="1.643456"><ele>194.0</ele><time>2026-04-02T13:17:47.546Z</time></trkpt><trkpt lat="49.8339372" lon="1.6436085"><ele>194.0</ele><time>2026-04-02T13:17:48.546Z</time></trkpt><trkpt lat="49.8339863" lon="1.6437688"><ele>194.0</ele><time>2026-04-02T13:17:49.546Z</time></trkpt><trkpt lat="49.8340351" lon="1.6439336"><ele>194.0</ele><time>2026-04-02T13:17:50.547Z</time></trkpt><trkpt lat="49.8340857" lon="1.6441066"><ele>194.0</ele><time>2026-04-02T13:17:51.547Z</time></trkpt><trkpt lat="49.8341264" lon="1.6443121"><ele>194.0</ele><time>2026-04-02T13:17:52.547Z</time></trkpt><trkpt lat="49.8341738" lon="1.6445269"><ele>194.0</ele><time>2026-04-02T13:17:53.547Z</time></trkpt><trkpt lat="49.834222" lon="1.6447502"><ele>194.0</ele><time>2026-04-02T13:17:54.546Z</time></trkpt><trkpt lat="49.8342711" lon="1.6449688"><ele>194.0</ele><time>2026-04-02T13:17:55.546Z</time></trkpt><trkpt lat="49.8343174" lon="1.6451814"><ele>194.0</ele><time>2026-04-02T13:17:56.547Z</time></trkpt><trkpt lat="49.8343717" lon="1.6453991"><ele>194.0</ele><time>2026-04-02T13:17:57.546Z</time></trkpt><trkpt lat="49.8344305" lon="1.6456199"><ele>194.0</ele><time>2026-04-02T13:17:58.546Z</time></trkpt><trkpt lat="49.8344877" lon="1.6458297"><ele>194.0</ele><time>2026-04-02T13:17:59.546Z</time></trkpt><trkpt lat="49.8345417" lon="1.6460247"><ele>194.0</ele><time>2026-04-02T13:18:00.546Z</time></trkpt><trkpt lat="49.8345882" lon="1.6462108"><ele>194.0</ele><time>2026-04-02T13:18:01.546Z</time></trkpt><trkpt lat="49.8346355" lon="1.6463937"><ele>192.5</ele><time>2026-04-02T13:18:02.546Z</time></trkpt><trkpt lat="49.8346829" lon="1.6465997"><ele>191.0</ele><time>2026-04-02T13:18:03.546Z</time></trkpt><trkpt lat="49.8347418" lon="1.646808"><ele>189.5</ele><time>2026-04-02T13:18:04.546Z</time></trkpt><trkpt lat="49.8347933" lon="1.6470052"><ele>188.0</ele><time>2026-04-02T13:18:05.546Z</time></trkpt><trkpt lat="49.8348444" lon="1.6471886"><ele>187.60000000000002</ele><time>2026-04-02T13:18:06.545Z</time></trkpt><trkpt lat="49.8348907" lon="1.6473582"><ele>187.20000000000002</ele><time>2026-04-02T13:18:07.546Z</time></trkpt><trkpt lat="49.8349286" lon="1.6475156"><ele>186.8</ele><time>2026-04-02T13:18:08.546Z</time></trkpt><trkpt lat="49.8349565" lon="1.6476421"><ele>186.4</ele><time>2026-04-02T13:18:09.546Z</time></trkpt><trkpt lat="49.8349882" lon="1.6477378"><ele>186.0</ele><time>2026-04-02T13:18:10.546Z</time></trkpt><trkpt lat="49.8350315" lon="1.6478921"><ele>185.85714285714286</ele><time>2026-04-02T13:18:12.545Z</time></trkpt><trkpt lat="49.8350568" lon="1.6479821"><ele>185.71428571428572</ele><time>2026-04-02T13:18:13.547Z</time></trkpt><trkpt lat="49.8350815" lon="1.6480789"><ele>185.57142857142856</ele><time>2026-04-02T13:18:14.545Z</time></trkpt><trkpt lat="49.8351078" lon="1.6481864"><ele>185.42857142857144</ele><time>2026-04-02T13:18:15.546Z</time></trkpt><trkpt lat="49.8351374" lon="1.6482843"><ele>185.28571428571428</ele><time>2026-04-02T13:18:16.546Z</time></trkpt><trkpt lat="49.8351756" lon="1.648428"><ele>185.14285714285714</ele><time>2026-04-02T13:18:18.546Z</time></trkpt><trkpt lat="49.8351554" lon="1.648526"><ele>185.0</ele><time>2026-04-02T13:18:21.546Z</time></trkpt><trkpt lat="49.8350895" lon="1.6485599"><ele>184.8</ele><time>2026-04-02T13:18:23.547Z</time></trkpt><trkpt lat="49.8349675" lon="1.6486198"><ele>184.6</ele><time>2026-04-02T13:18:25.546Z</time></trkpt><trkpt lat="49.8349015" lon="1.648663"><ele>184.39999999999998</ele><time>2026-04-02T13:18:26.547Z</time></trkpt><trkpt lat="49.8347804" lon="1.6487149"><ele>184.2</ele><time>2026-04-02T13:18:28.547Z</time></trkpt><trkpt lat="49.8347207" lon="1.6487535"><ele>184.0</ele><time>2026-04-02T13:18:29.547Z</time></trkpt><trkpt lat="49.8345992" lon="1.648812"><ele>183.0</ele><time>2026-04-02T13:18:31.545Z</time></trkpt><trkpt lat="49.8345357" lon="1.6488423"><ele>182.0</ele><time>2026-04-02T13:18:32.546Z</time></trkpt><trkpt lat="49.8344692" lon="1.6488741"><ele>181.0</ele><time>2026-04-02T13:18:33.546Z</time></trkpt><trkpt lat="49.8343994" lon="1.6489038"><ele>180.0</ele><time>2026-04-02T13:18:34.546Z</time></trkpt><trkpt lat="49.8343228" lon="1.6489337"><ele>179.0</ele><time>2026-04-02T13:18:35.545Z</time></trkpt><trkpt lat="49.8342404" lon="1.6489761"><ele>178.0</ele><time>2026-04-02T13:18:36.546Z</time></trkpt><trkpt lat="49.834164" lon="1.649007"><ele>181.28571428571428</ele><time>2026-04-02T13:18:37.547Z</time></trkpt><trkpt lat="49.8340951" lon="1.6490382"><ele>184.57142857142856</ele><time>2026-04-02T13:18:38.547Z</time></trkpt><trkpt lat="49.8340206" lon="1.6490751"><ele>187.85714285714283</ele><time>2026-04-02T13:18:39.546Z</time></trkpt><trkpt lat="49.8339513" lon="1.6491071"><ele>191.14285714285714</ele><time>2026-04-02T13:18:40.546Z</time></trkpt><trkpt lat="49.8338841" lon="1.6491366"><ele>194.42857142857144</ele><time>2026-04-02T13:18:41.547Z</time></trkpt><trkpt lat="49.8338207" lon="1.6491664"><ele>197.7142857142857</ele><time>2026-04-02T13:18:42.545Z</time></trkpt><trkpt lat="49.8337412" lon="1.6491789"><ele>201.0</ele><time>2026-04-02T13:18:47.547Z</time></trkpt><trkpt lat="49.8336499" lon="1.6492127"><ele>201.0</ele><time>2026-04-02T13:18:51.547Z</time></trkpt><trkpt lat="49.8335683" lon="1.6492554"><ele>201.0</ele><time>2026-04-02T13:18:54.546Z</time></trkpt><trkpt lat="49.8335008" lon="1.6492983"><ele>201.0</ele><time>2026-04-02T13:18:57.546Z</time></trkpt><trkpt lat="49.8334405" lon="1.6493591"><ele>201.0</ele><time>2026-04-02T13:19:03.547Z</time></trkpt><trkpt lat="49.8333551" lon="1.6494237"><ele>201.0</ele><time>2026-04-02T13:19:09.546Z</time></trkpt><trkpt lat="49.8332874" lon="1.6494639"><ele>201.0</ele><time>2026-04-02T13:19:11.547Z</time></trkpt><trkpt lat="49.833227" lon="1.6495087"><ele>202.8</ele><time>2026-04-02T13:19:13.546Z</time></trkpt><trkpt lat="49.8331438" lon="1.6495463"><ele>204.60000000000002</ele><time>2026-04-02T13:19:22.545Z</time></trkpt><trkpt lat="49.8330471" lon="1.6495972"><ele>206.4</ele><time>2026-04-02T13:19:24.547Z</time></trkpt><trkpt lat="49.832978" lon="1.6496422"><ele>208.2</ele><time>2026-04-02T13:19:25.547Z</time></trkpt><trkpt lat="49.8328856" lon="1.6496873"><ele>210.0</ele><time>2026-04-02T13:19:26.546Z</time></trkpt><trkpt lat="49.8327961" lon="1.6497315"><ele>210.0</ele><time>2026-04-02T13:19:27.546Z</time></trkpt><trkpt lat="49.8327178" lon="1.6497809"><ele>210.0</ele><time>2026-04-02T13:19:28.545Z</time></trkpt><trkpt lat="49.8326421" lon="1.6498209"><ele>210.0</ele><time>2026-04-02T13:19:29.546Z</time></trkpt><trkpt lat="49.8325652" lon="1.6498621"><ele>210.0</ele><time>2026-04-02T13:19:30.546Z</time></trkpt><trkpt lat="49.8325001" lon="1.6498916"><ele>210.0</ele><time>2026-04-02T13:19:31.547Z</time></trkpt><trkpt lat="49.8324354" lon="1.6499162"><ele>210.0</ele><time>2026-04-02T13:19:33.546Z</time></trkpt><trkpt lat="49.8323638" lon="1.6498747"><ele>210.5</ele><time>2026-04-02T13:19:44.546Z</time></trkpt><trkpt lat="49.8323114" lon="1.6498178"><ele>211.0</ele><time>2026-04-02T13:19:48.546Z</time></trkpt><trkpt lat="49.8322421" lon="1.6497693"><ele>211.5</ele><time>2026-04-02T13:19:53.546Z</time></trkpt><trkpt lat="49.8321632" lon="1.6498279"><ele>212.0</ele><time>2026-04-02T13:19:56.546Z</time></trkpt><trkpt lat="49.8321371" lon="1.6499297"><ele>212.5</ele><time>2026-04-02T13:19:57.547Z</time></trkpt><trkpt lat="49.8321042" lon="1.650025"><ele>213.0</ele><time>2026-04-02T13:19:58.547Z</time></trkpt><trkpt lat="49.8320042" lon="1.6500974"><ele>213.0</ele><time>2026-04-02T13:20:00.546Z</time></trkpt><trkpt lat="49.8319095" lon="1.6501619"><ele>213.0</ele><time>2026-04-02T13:20:02.546Z</time></trkpt><trkpt lat="49.831836" lon="1.6502058"><ele>213.0</ele><time>2026-04-02T13:20:07.548Z</time></trkpt><trkpt lat="49.8316973" lon="1.6502837"><ele>213.0</ele><time>2026-04-02T13:20:09.548Z</time></trkpt><trkpt lat="49.8316016" lon="1.6503321"><ele>213.0</ele><time>2026-04-02T13:20:10.547Z</time></trkpt><trkpt lat="49.8314911" lon="1.6503918"><ele>213.16666666666666</ele><time>2026-04-02T13:20:11.547Z</time></trkpt><trkpt lat="49.8313871" lon="1.6504461"><ele>213.33333333333331</ele><time>2026-04-02T13:20:12.547Z</time></trkpt><trkpt lat="49.8312924" lon="1.6504966"><ele>213.5</ele><time>2026-04-02T13:20:13.548Z</time></trkpt><trkpt lat="49.8312079" lon="1.6505361"><ele>213.66666666666666</ele><time>2026-04-02T13:20:14.547Z</time></trkpt><trkpt lat="49.8311315" lon="1.650567"><ele>213.83333333333331</ele><time>2026-04-02T13:20:15.547Z</time></trkpt><trkpt lat="49.8310662" lon="1.650597"><ele>214.0</ele><time>2026-04-02T13:20:16.547Z</time></trkpt><trkpt lat="49.830992" lon="1.6506402"><ele>214.39999999999998</ele><time>2026-04-02T13:20:18.547Z</time></trkpt><trkpt lat="49.8309057" lon="1.6506412"><ele>214.79999999999998</ele><time>2026-04-02T13:20:21.547Z</time></trkpt><trkpt lat="49.8308164" lon="1.6506855"><ele>215.20000000000002</ele><time>2026-04-02T13:20:23.547Z</time></trkpt><trkpt lat="49.8307505" lon="1.6506871"><ele>215.60000000000002</ele><time>2026-04-02T13:20:25.546Z</time></trkpt><trkpt lat="49.830698" lon="1.6507479"><ele>216.0</ele><time>2026-04-02T13:20:26.546Z</time></trkpt><trkpt lat="49.8305499" lon="1.6508915"><ele>216.0</ele><time>2026-04-02T13:20:28.547Z</time></trkpt><trkpt lat="49.830423" lon="1.6509255"><ele>216.00000000000003</ele><time>2026-04-02T13:20:29.546Z</time></trkpt><trkpt lat="49.8303341" lon="1.6509781"><ele>216.00000000000003</ele><time>2026-04-02T13:20:30.547Z</time></trkpt><trkpt lat="49.8302403" lon="1.6510397"><ele>216.0</ele><time>2026-04-02T13:20:31.546Z</time></trkpt><trkpt lat="49.8301589" lon="1.6510837"><ele>216.0</ele><time>2026-04-02T13:20:32.547Z</time></trkpt><trkpt lat="49.8300342" lon="1.6511619"><ele>215.33333333333334</ele><time>2026-04-02T13:20:34.547Z</time></trkpt><trkpt lat="49.8299678" lon="1.6511921"><ele>214.66666666666669</ele><time>2026-04-02T13:20:36.548Z</time></trkpt><trkpt lat="49.8298987" lon="1.6512255"><ele>214.0</ele><time>2026-04-02T13:20:38.547Z</time></trkpt><trkpt lat="49.829834" lon="1.6512617"><ele>213.33333333333334</ele><time>2026-04-02T13:20:42.547Z</time></trkpt><trkpt lat="49.8297444" lon="1.6512674"><ele>212.66666666666669</ele><time>2026-04-02T13:20:45.548Z</time></trkpt><trkpt lat="49.8296764" lon="1.6512268"><ele>212.0</ele><time>2026-04-02T13:20:47.548Z</time></trkpt><trkpt lat="49.8296162" lon="1.6511019"><ele>212.0</ele><time>2026-04-02T13:20:48.547Z</time></trkpt><trkpt lat="49.8295404" lon="1.6509526"><ele>212.0</ele><time>2026-04-02T13:20:50.547Z</time></trkpt><trkpt lat="49.8295263" lon="1.6508401"><ele>212.0</ele><time>2026-04-02T13:20:51.548Z</time></trkpt><trkpt lat="49.8294646" lon="1.6506722"><ele>212.0</ele><time>2026-04-02T13:20:53.547Z</time></trkpt><trkpt lat="49.8294349" lon="1.6505775"><ele>212.0</ele><time>2026-04-02T13:20:54.548Z</time></trkpt><trkpt lat="49.8294069" lon="1.6504664"><ele>212.75</ele><time>2026-04-02T13:20:55.547Z</time></trkpt><trkpt lat="49.8293622" lon="1.6502804"><ele>213.5</ele><time>2026-04-02T13:20:56.547Z</time></trkpt><trkpt lat="49.829294" lon="1.6501285"><ele>214.25</ele><time>2026-04-02T13:20:57.548Z</time></trkpt><trkpt lat="49.8292401" lon="1.6499678"><ele>215.0</ele><time>2026-04-02T13:20:58.547Z</time></trkpt><trkpt lat="49.8291705" lon="1.6498125"><ele>213.5</ele><time>2026-04-02T13:20:59.547Z</time></trkpt><trkpt lat="49.8290919" lon="1.6496483"><ele>212.0</ele><time>2026-04-02T13:21:00.547Z</time></trkpt><trkpt lat="49.8289993" lon="1.649508"><ele>210.5</ele><time>2026-04-02T13:21:01.548Z</time></trkpt><trkpt lat="49.8289069" lon="1.649349"><ele>209.0</ele><time>2026-04-02T13:21:02.548Z</time></trkpt><trkpt lat="49.8288152" lon="1.6492232"><ele>209.0</ele><time>2026-04-02T13:21:03.548Z</time></trkpt><trkpt lat="49.8287228" lon="1.6491328"><ele>209.0</ele><time>2026-04-02T13:21:04.547Z</time></trkpt><trkpt lat="49.8285733" lon="1.6490811"><ele>209.0</ele><time>2026-04-02T13:21:05.548Z</time></trkpt><trkpt lat="49.8284914" lon="1.6490262"><ele>209.0</ele><time>2026-04-02T13:21:06.546Z</time></trkpt><trkpt lat="49.8284108" lon="1.6489498"><ele>209.0</ele><time>2026-04-02T13:21:07.547Z</time></trkpt><trkpt lat="49.8283373" lon="1.6489232"><ele>208.16666666666669</ele><time>2026-04-02T13:21:08.546Z</time></trkpt><trkpt lat="49.8282608" lon="1.6488821"><ele>207.33333333333334</ele><time>2026-04-02T13:21:09.547Z</time></trkpt><trkpt lat="49.8281754" lon="1.648898"><ele>206.5</ele><time>2026-04-02T13:21:11.547Z</time></trkpt><trkpt lat="49.828128" lon="1.6490359"><ele>205.66666666666669</ele><time>2026-04-02T13:21:13.547Z</time></trkpt><trkpt lat="49.8281243" lon="1.6491414"><ele>204.83333333333334</ele><time>2026-04-02T13:21:16.548Z</time></trkpt><trkpt lat="49.8282032" lon="1.6491574"><ele>204.0</ele><time>2026-04-02T13:21:18.548Z</time></trkpt><trkpt lat="49.8283159" lon="1.6493262"><ele>204.0</ele><time>2026-04-02T13:21:20.546Z</time></trkpt><trkpt lat="49.8284374" lon="1.6494142"><ele>204.0</ele><time>2026-04-02T13:21:21.548Z</time></trkpt><trkpt lat="49.8285072" lon="1.6495122"><ele>204.0</ele><time>2026-04-02T13:21:22.546Z</time></trkpt><trkpt lat="49.8286017" lon="1.6496242"><ele>204.0</ele><time>2026-04-02T13:21:23.547Z</time></trkpt><trkpt lat="49.8286814" lon="1.6497373"><ele>204.25</ele><time>2026-04-02T13:21:24.547Z</time></trkpt><trkpt lat="49.8287722" lon="1.6498707"><ele>204.5</ele><time>2026-04-02T13:21:25.547Z</time></trkpt><trkpt lat="49.8288686" lon="1.6500485"><ele>204.75</ele><time>2026-04-02T13:21:26.546Z</time></trkpt><trkpt lat="49.8289204" lon="1.6501848"><ele>205.0</ele><time>2026-04-02T13:21:27.546Z</time></trkpt><trkpt lat="49.8289781" lon="1.6503058"><ele>204.6</ele><time>2026-04-02T13:21:28.547Z</time></trkpt><trkpt lat="49.8290355" lon="1.6504665"><ele>204.2</ele><time>2026-04-02T13:21:29.547Z</time></trkpt><trkpt lat="49.8290754" lon="1.6505731"><ele>203.8</ele><time>2026-04-02T13:21:30.547Z</time></trkpt><trkpt lat="49.8290725" lon="1.6506914"><ele>203.4</ele><time>2026-04-02T13:21:31.547Z</time></trkpt><trkpt lat="49.8290985" lon="1.6507847"><ele>203.0</ele><time>2026-04-02T13:21:32.547Z</time></trkpt><trkpt lat="49.8291158" lon="1.650983"><ele>202.83333333333334</ele><time>2026-04-02T13:21:34.547Z</time></trkpt><trkpt lat="49.8291085" lon="1.6511299"><ele>202.66666666666669</ele><time>2026-04-02T13:21:35.547Z</time></trkpt><trkpt lat="49.8291199" lon="1.6512452"><ele>202.5</ele><time>2026-04-02T13:21:36.547Z</time></trkpt><trkpt lat="49.8290991" lon="1.6513508"><ele>202.33333333333331</ele><time>2026-04-02T13:21:37.547Z</time></trkpt><trkpt lat="49.8291165" lon="1.6514542"><ele>202.16666666666666</ele><time>2026-04-02T13:21:40.547Z</time></trkpt><trkpt lat="49.8290845" lon="1.6515428"><ele>202.0</ele><time>2026-04-02T13:21:45.548Z</time></trkpt><trkpt lat="49.829009" lon="1.6516486"><ele>202.0</ele><time>2026-04-02T13:21:48.547Z</time></trkpt><trkpt lat="49.8289135" lon="1.6517152"><ele>202.0</ele><time>2026-04-02T13:21:50.548Z</time></trkpt><trkpt lat="49.8288002" lon="1.6517547"><ele>202.0</ele><time>2026-04-02T13:21:52.546Z</time></trkpt><trkpt lat="49.8286886" lon="1.6517982"><ele>202.0</ele><time>2026-04-02T13:21:54.548Z</time></trkpt><trkpt lat="49.828636" lon="1.651863"><ele>202.0</ele><time>2026-04-02T13:21:56.547Z</time></trkpt><trkpt lat="49.8285505" lon="1.6518982"><ele>204.0</ele><time>2026-04-02T13:21:58.547Z</time></trkpt><trkpt lat="49.8284387" lon="1.6519331"><ele>206.0</ele><time>2026-04-02T13:22:00.547Z</time></trkpt><trkpt lat="49.828323" lon="1.6519645"><ele>208.0</ele><time>2026-04-02T13:22:02.547Z</time></trkpt><trkpt lat="49.8282031" lon="1.6520258"><ele>210.0</ele><time>2026-04-02T13:22:04.548Z</time></trkpt><trkpt lat="49.8281438" lon="1.6520937"><ele>212.0</ele><time>2026-04-02T13:22:06.547Z</time></trkpt><trkpt lat="49.8279989" lon="1.6521415"><ele>212.00000000000003</ele><time>2026-04-02T13:22:12.547Z</time></trkpt><trkpt lat="49.8279281" lon="1.6521847"><ele>212.0</ele><time>2026-04-02T13:22:13.547Z</time></trkpt><trkpt lat="49.8278361" lon="1.6522349"><ele>212.0</ele><time>2026-04-02T13:22:14.547Z</time></trkpt><trkpt lat="49.8277561" lon="1.6522879"><ele>212.0</ele><time>2026-04-02T13:22:15.547Z</time></trkpt><trkpt lat="49.8276572" lon="1.6523374"><ele>212.00000000000003</ele><time>2026-04-02T13:22:16.548Z</time></trkpt><trkpt lat="49.8275893" lon="1.6523699"><ele>212.0</ele><time>2026-04-02T13:22:17.547Z</time></trkpt><trkpt lat="49.827495" lon="1.6524142"><ele>212.8</ele><time>2026-04-02T13:22:18.547Z</time></trkpt><trkpt lat="49.8273894" lon="1.6524801"><ele>213.6</ele><time>2026-04-02T13:22:19.547Z</time></trkpt><trkpt lat="49.8272899" lon="1.6525554"><ele>214.40000000000003</ele><time>2026-04-02T13:22:20.547Z</time></trkpt><trkpt lat="49.8271767" lon="1.652597"><ele>215.20000000000002</ele><time>2026-04-02T13:22:21.546Z</time></trkpt><trkpt lat="49.8270842" lon="1.6526443"><ele>216.0</ele><time>2026-04-02T13:22:22.548Z</time></trkpt><trkpt lat="49.8269234" lon="1.6527225"><ele>216.0</ele><time>2026-04-02T13:22:23.547Z</time></trkpt><trkpt lat="49.8268184" lon="1.6527714"><ele>216.00000000000003</ele><time>2026-04-02T13:22:24.547Z</time></trkpt><trkpt lat="49.8267186" lon="1.6528142"><ele>216.00000000000003</ele><time>2026-04-02T13:22:25.547Z</time></trkpt><trkpt lat="49.8266357" lon="1.6528561"><ele>216.0</ele><time>2026-04-02T13:22:26.547Z</time></trkpt><trkpt lat="49.8265736" lon="1.6528825"><ele>216.0</ele><time>2026-04-02T13:22:27.547Z</time></trkpt><trkpt lat="49.826451" lon="1.6529313"><ele>215.0</ele><time>2026-04-02T13:22:29.547Z</time></trkpt><trkpt lat="49.8263014" lon="1.6530221"><ele>214.0</ele><time>2026-04-02T13:22:31.547Z</time></trkpt><trkpt lat="49.8262027" lon="1.653059"><ele>213.0</ele><time>2026-04-02T13:22:33.547Z</time></trkpt><trkpt lat="49.8261038" lon="1.6531443"><ele>212.0</ele><time>2026-04-02T13:22:35.547Z</time></trkpt><trkpt lat="49.8260149" lon="1.6532045"><ele>212.39999999999998</ele><time>2026-04-02T13:22:37.547Z</time></trkpt><trkpt lat="49.8259446" lon="1.6532284"><ele>212.79999999999998</ele><time>2026-04-02T13:22:38.547Z</time></trkpt><trkpt lat="49.8258541" lon="1.6532725"><ele>213.2</ele><time>2026-04-02T13:22:39.547Z</time></trkpt><trkpt lat="49.8257044" lon="1.6533633"><ele>213.6</ele><time>2026-04-02T13:22:41.547Z</time></trkpt><trkpt lat="49.825642" lon="1.6534045"><ele>214.0</ele><time>2026-04-02T13:22:42.547Z</time></trkpt><trkpt lat="49.8255419" lon="1.6534986"><ele>214.0</ele><time>2026-04-02T13:22:44.547Z</time></trkpt><trkpt lat="49.8254694" lon="1.6535222"><ele>213.99999999999997</ele><time>2026-04-02T13:22:45.547Z</time></trkpt><trkpt lat="49.825383" lon="1.653553"><ele>213.99999999999997</ele><time>2026-04-02T13:22:46.547Z</time></trkpt><trkpt lat="49.8252714" lon="1.6536164"><ele>214.0</ele><time>2026-04-02T13:22:48.548Z</time></trkpt><trkpt lat="49.8251878" lon="1.653674"><ele>214.0</ele><time>2026-04-02T13:22:50.548Z</time></trkpt><trkpt lat="49.825092" lon="1.653526"><ele>214.39999999999998</ele><time>2026-04-02T13:22:52.547Z</time></trkpt><trkpt lat="49.8250656" lon="1.6534198"><ele>214.79999999999998</ele><time>2026-04-02T13:22:53.547Z</time></trkpt><trkpt lat="49.8250331" lon="1.653287"><ele>215.20000000000002</ele><time>2026-04-02T13:22:54.547Z</time></trkpt><trkpt lat="49.8249984" lon="1.6531423"><ele>215.60000000000002</ele><time>2026-04-02T13:22:55.547Z</time></trkpt><trkpt lat="49.8249535" lon="1.6529867"><ele>216.0</ele><time>2026-04-02T13:22:56.547Z</time></trkpt><trkpt lat="49.8249195" lon="1.6528128"><ele>216.25</ele><time>2026-04-02T13:22:57.548Z</time></trkpt><trkpt lat="49.8248871" lon="1.6526178"><ele>216.5</ele><time>2026-04-02T13:22:58.546Z</time></trkpt><trkpt lat="49.824843" lon="1.6524343"><ele>216.75</ele><time>2026-04-02T13:22:59.548Z</time></trkpt><trkpt lat="49.8248013" lon="1.652242"><ele>217.0</ele><time>2026-04-02T13:23:00.547Z</time></trkpt><trkpt lat="49.8247484" lon="1.652045"><ele>217.25</ele><time>2026-04-02T13:23:01.546Z</time></trkpt><trkpt lat="49.8247071" lon="1.651845"><ele>217.5</ele><time>2026-04-02T13:23:02.548Z</time></trkpt><trkpt lat="49.8246584" lon="1.6516319"><ele>217.75</ele><time>2026-04-02T13:23:03.547Z</time></trkpt><trkpt lat="49.8246156" lon="1.6514122"><ele>218.0</ele><time>2026-04-02T13:23:04.548Z</time></trkpt><trkpt lat="49.8245658" lon="1.6511911"><ele>218.0</ele><time>2026-04-02T13:23:05.546Z</time></trkpt><trkpt lat="49.8245227" lon="1.6509558"><ele>218.0</ele><time>2026-04-02T13:23:06.546Z</time></trkpt><trkpt lat="49.8244738" lon="1.6507212"><ele>218.0</ele><time>2026-04-02T13:23:07.547Z</time></trkpt><trkpt lat="49.8244225" lon="1.6504854"><ele>218.0</ele><time>2026-04-02T13:23:08.547Z</time></trkpt><trkpt lat="49.8243779" lon="1.6502422"><ele>218.0</ele><time>2026-04-02T13:23:09.547Z</time></trkpt><trkpt lat="49.8243594" lon="1.6500666"><ele>218.0</ele><time>2026-04-02T13:23:10.547Z</time></trkpt><trkpt lat="49.8243205" lon="1.6498695"><ele>218.0</ele><time>2026-04-02T13:23:11.547Z</time></trkpt><trkpt lat="49.8242706" lon="1.6496902"><ele>218.0</ele><time>2026-04-02T13:23:12.548Z</time></trkpt><trkpt lat="49.8242265" lon="1.6494901"><ele>218.0</ele><time>2026-04-02T13:23:13.547Z</time></trkpt><trkpt lat="49.8241901" lon="1.6492797"><ele>218.0</ele><time>2026-04-02T13:23:14.547Z</time></trkpt><trkpt lat="49.8241461" lon="1.6490743"><ele>218.0</ele><time>2026-04-02T13:23:15.547Z</time></trkpt><trkpt lat="49.824088" lon="1.6488927"><ele>218.0</ele><time>2026-04-02T13:23:16.547Z</time></trkpt><trkpt lat="49.8240644" lon="1.6486949"><ele>218.0</ele><time>2026-04-02T13:23:17.548Z</time></trkpt><trkpt lat="49.8240275" lon="1.6485549"><ele>218.0</ele><time>2026-04-02T13:23:18.547Z</time></trkpt><trkpt lat="49.8239982" lon="1.6484152"><ele>218.0</ele><time>2026-04-02T13:23:19.547Z</time></trkpt><trkpt lat="49.8239558" lon="1.6483006"><ele>218.0</ele><time>2026-04-02T13:23:21.547Z</time></trkpt><trkpt lat="49.8239631" lon="1.6481895"><ele>217.8</ele><time>2026-04-02T13:23:24.547Z</time></trkpt><trkpt lat="49.8239006" lon="1.6481319"><ele>217.60000000000002</ele><time>2026-04-02T13:23:35.548Z</time></trkpt><trkpt lat="49.8238933" lon="1.6480327"><ele>217.39999999999998</ele><time>2026-04-02T13:23:38.547Z</time></trkpt><trkpt lat="49.8238701" lon="1.6478548"><ele>217.2</ele><time>2026-04-02T13:23:45.546Z</time></trkpt><trkpt lat="49.8239198" lon="1.6476291"><ele>217.0</ele><time>2026-04-02T13:23:47.547Z</time></trkpt><trkpt lat="49.8239847" lon="1.6474877"><ele>217.0</ele><time>2026-04-02T13:23:49.547Z</time></trkpt><trkpt lat="49.8240581" lon="1.6474669"><ele>217.0</ele><time>2026-04-02T13:23:50.548Z</time></trkpt><trkpt lat="49.824123" lon="1.6474221"><ele>217.0</ele><time>2026-04-02T13:23:51.547Z</time></trkpt><trkpt lat="49.8242311" lon="1.6473888"><ele>217.0</ele><time>2026-04-02T13:23:52.547Z</time></trkpt><trkpt lat="49.8243407" lon="1.6473456"><ele>217.0</ele><time>2026-04-02T13:23:53.547Z</time></trkpt><trkpt lat="49.8244675" lon="1.6472888"><ele>217.0</ele><time>2026-04-02T13:23:54.546Z</time></trkpt><trkpt lat="49.8245896" lon="1.6472368"><ele>217.0</ele><time>2026-04-02T13:23:55.546Z</time></trkpt><trkpt lat="49.8246885" lon="1.6471176"><ele>217.0</ele><time>2026-04-02T13:23:57.547Z</time></trkpt><trkpt lat="49.8246511" lon="1.646973"><ele>217.0</ele><time>2026-04-02T13:23:59.547Z</time></trkpt><trkpt lat="49.8245093" lon="1.6469477"><ele>215.5</ele><time>2026-04-02T13:24:01.547Z</time></trkpt><trkpt lat="49.8244034" lon="1.6469429"><ele>214.0</ele><time>2026-04-02T13:24:02.547Z</time></trkpt><trkpt lat="49.8242821" lon="1.6469197"><ele>212.5</ele><time>2026-04-02T13:24:03.547Z</time></trkpt><trkpt lat="49.8241498" lon="1.6468699"><ele>211.0</ele><time>2026-04-02T13:24:04.548Z</time></trkpt><trkpt lat="49.8240079" lon="1.6468073"><ele>210.33333333333331</ele><time>2026-04-02T13:24:05.547Z</time></trkpt><trkpt lat="49.823858" lon="1.6467481"><ele>209.66666666666669</ele><time>2026-04-02T13:24:06.547Z</time></trkpt><trkpt lat="49.823699" lon="1.646685"><ele>209.0</ele><time>2026-04-02T13:24:07.547Z</time></trkpt><trkpt lat="49.8235322" lon="1.6466216"><ele>208.66666666666669</ele><time>2026-04-02T13:24:08.547Z</time></trkpt><trkpt lat="49.8233598" lon="1.6465525"><ele>208.33333333333331</ele><time>2026-04-02T13:24:09.547Z</time></trkpt><trkpt lat="49.8231839" lon="1.6464764"><ele>208.0</ele><time>2026-04-02T13:24:10.547Z</time></trkpt><trkpt lat="49.8230021" lon="1.6463945"><ele>208.0</ele><time>2026-04-02T13:24:11.548Z</time></trkpt><trkpt lat="49.8228173" lon="1.6463119"><ele>208.0</ele><time>2026-04-02T13:24:12.547Z</time></trkpt><trkpt lat="49.8226313" lon="1.6462254"><ele>208.0</ele><time>2026-04-02T13:24:13.547Z</time></trkpt><trkpt lat="49.8224456" lon="1.6461348"><ele>207.66666666666666</ele><time>2026-04-02T13:24:14.547Z</time></trkpt><trkpt lat="49.8222592" lon="1.6460354"><ele>207.33333333333331</ele><time>2026-04-02T13:24:15.548Z</time></trkpt><trkpt lat="49.8220736" lon="1.6459231"><ele>207.0</ele><time>2026-04-02T13:24:16.547Z</time></trkpt><trkpt lat="49.8218885" lon="1.645801"><ele>206.66666666666669</ele><time>2026-04-02T13:24:17.547Z</time></trkpt><trkpt lat="49.8217002" lon="1.6456855"><ele>206.33333333333334</ele><time>2026-04-02T13:24:18.548Z</time></trkpt><trkpt lat="49.8215093" lon="1.6455767"><ele>206.0</ele><time>2026-04-02T13:24:19.547Z</time></trkpt><trkpt lat="49.8213182" lon="1.6454698"><ele>206.0</ele><time>2026-04-02T13:24:20.546Z</time></trkpt><trkpt lat="49.821125" lon="1.6453741"><ele>206.0</ele><time>2026-04-02T13:24:21.548Z</time></trkpt><trkpt lat="49.8209292" lon="1.6452937"><ele>206.0</ele><time>2026-04-02T13:24:22.547Z</time></trkpt><trkpt lat="49.8207345" lon="1.6452194"><ele>207.0</ele><time>2026-04-02T13:24:23.547Z</time></trkpt><trkpt lat="49.8205382" lon="1.6451462"><ele>208.0</ele><time>2026-04-02T13:24:24.547Z</time></trkpt><trkpt lat="49.8203417" lon="1.6450698"><ele>209.0</ele><time>2026-04-02T13:24:25.547Z</time></trkpt><trkpt lat="49.8201454" lon="1.6449956"><ele>210.0</ele><time>2026-04-02T13:24:26.546Z</time></trkpt><trkpt lat="49.8199489" lon="1.6449221"><ele>211.0</ele><time>2026-04-02T13:24:27.547Z</time></trkpt><trkpt lat="49.8197509" lon="1.644848"><ele>212.0</ele><time>2026-04-02T13:24:28.548Z</time></trkpt><trkpt lat="49.8195533" lon="1.6447722"><ele>212.0</ele><time>2026-04-02T13:24:29.547Z</time></trkpt><trkpt lat="49.8193534" lon="1.6447049"><ele>212.0</ele><time>2026-04-02T13:24:30.547Z</time></trkpt><trkpt lat="49.8191605" lon="1.6446415"><ele>212.0</ele><time>2026-04-02T13:24:31.547Z</time></trkpt><trkpt lat="49.8189835" lon="1.644584"><ele>212.0</ele><time>2026-04-02T13:24:32.546Z</time></trkpt><trkpt lat="49.8188078" lon="1.6445556"><ele>212.0</ele><time>2026-04-02T13:24:33.547Z</time></trkpt><trkpt lat="49.8186349" lon="1.6445485"><ele>212.0</ele><time>2026-04-02T13:24:34.546Z</time></trkpt><trkpt lat="49.8184631" lon="1.6445531"><ele>212.0</ele><time>2026-04-02T13:24:35.547Z</time></trkpt><trkpt lat="49.818323" lon="1.6445491"><ele>212.0</ele><time>2026-04-02T13:24:36.547Z</time></trkpt><trkpt lat="49.8182049" lon="1.6445164"><ele>212.0</ele><time>2026-04-02T13:24:37.548Z</time></trkpt><trkpt lat="49.8180995" lon="1.6444337"><ele>212.0</ele><time>2026-04-02T13:24:38.547Z</time></trkpt><trkpt lat="49.8180024" lon="1.6443052"><ele>212.0</ele><time>2026-04-02T13:24:39.547Z</time></trkpt><trkpt lat="49.8179106" lon="1.6441456"><ele>212.0</ele><time>2026-04-02T13:24:40.547Z</time></trkpt><trkpt lat="49.8178166" lon="1.6439744"><ele>212.0</ele><time>2026-04-02T13:24:41.547Z</time></trkpt><trkpt lat="49.8177225" lon="1.6437856"><ele>212.0</ele><time>2026-04-02T13:24:42.547Z</time></trkpt><trkpt lat="49.8176245" lon="1.6435851"><ele>212.0</ele><time>2026-04-02T13:24:43.547Z</time></trkpt><trkpt lat="49.8175253" lon="1.6433816"><ele>212.0</ele><time>2026-04-02T13:24:44.547Z</time></trkpt><trkpt lat="49.8174271" lon="1.6431787"><ele>212.0</ele><time>2026-04-02T13:24:45.547Z</time></trkpt><trkpt lat="49.8173296" lon="1.6429714"><ele>212.33333333333334</ele><time>2026-04-02T13:24:46.547Z</time></trkpt><trkpt lat="49.8172435" lon="1.6427606"><ele>212.66666666666669</ele><time>2026-04-02T13:24:47.548Z</time></trkpt><trkpt lat="49.8171671" lon="1.6425478"><ele>213.0</ele><time>2026-04-02T13:24:48.547Z</time></trkpt><trkpt lat="49.8171042" lon="1.6423226"><ele>213.0</ele><time>2026-04-02T13:24:49.547Z</time></trkpt><trkpt lat="49.8170492" lon="1.6421037"><ele>213.0</ele><time>2026-04-02T13:24:50.547Z</time></trkpt><trkpt lat="49.8169961" lon="1.6419016"><ele>213.0</ele><time>2026-04-02T13:24:51.547Z</time></trkpt><trkpt lat="49.8169304" lon="1.6417167"><ele>213.0</ele><time>2026-04-02T13:24:52.547Z</time></trkpt><trkpt lat="49.8168397" lon="1.6415454"><ele>212.66666666666669</ele><time>2026-04-02T13:24:53.547Z</time></trkpt><trkpt lat="49.8167207" lon="1.6414051"><ele>212.33333333333334</ele><time>2026-04-02T13:24:54.547Z</time></trkpt><trkpt lat="49.8165923" lon="1.6412799"><ele>212.0</ele><time>2026-04-02T13:24:55.547Z</time></trkpt><trkpt lat="49.8164542" lon="1.6411562"><ele>212.25</ele><time>2026-04-02T13:24:56.547Z</time></trkpt><trkpt lat="49.81632" lon="1.6410339"><ele>212.5</ele><time>2026-04-02T13:24:57.548Z</time></trkpt><trkpt lat="49.8161996" lon="1.6409235"><ele>212.75</ele><time>2026-04-02T13:24:58.548Z</time></trkpt><trkpt lat="49.8160855" lon="1.6408176"><ele>213.0</ele><time>2026-04-02T13:24:59.548Z</time></trkpt><trkpt lat="49.8159826" lon="1.6407109"><ele>213.0</ele><time>2026-04-02T13:25:00.548Z</time></trkpt><trkpt lat="49.815882" lon="1.6405959"><ele>213.0</ele><time>2026-04-02T13:25:01.547Z</time></trkpt><trkpt lat="49.8157841" lon="1.6404835"><ele>213.0</ele><time>2026-04-02T13:25:02.546Z</time></trkpt><trkpt lat="49.8156997" lon="1.6403821"><ele>213.0</ele><time>2026-04-02T13:25:03.547Z</time></trkpt><trkpt lat="49.8156197" lon="1.6402872"><ele>213.16666666666666</ele><time>2026-04-02T13:25:04.547Z</time></trkpt><trkpt lat="49.8155494" lon="1.6401992"><ele>213.33333333333331</ele><time>2026-04-02T13:25:05.547Z</time></trkpt><trkpt lat="49.8154867" lon="1.6401215"><ele>213.5</ele><time>2026-04-02T13:25:06.546Z</time></trkpt><trkpt lat="49.8154336" lon="1.6400537"><ele>213.66666666666666</ele><time>2026-04-02T13:25:07.547Z</time></trkpt><trkpt lat="49.815357" lon="1.6399441"><ele>213.83333333333331</ele><time>2026-04-02T13:25:09.547Z</time></trkpt><trkpt lat="49.8152795" lon="1.6398874"><ele>214.0</ele><time>2026-04-02T13:25:12.546Z</time></trkpt><trkpt lat="49.8152069" lon="1.6399303"><ele>214.0</ele><time>2026-04-02T13:25:14.548Z</time></trkpt><trkpt lat="49.8151176" lon="1.6399535"><ele>213.99999999999997</ele><time>2026-04-02T13:25:16.548Z</time></trkpt><trkpt lat="49.8150317" lon="1.6398768"><ele>213.99999999999997</ele><time>2026-04-02T13:25:18.547Z</time></trkpt><trkpt lat="49.8149317" lon="1.6397683"><ele>214.0</ele><time>2026-04-02T13:25:20.548Z</time></trkpt><trkpt lat="49.8148708" lon="1.6397042"><ele>214.0</ele><time>2026-04-02T13:25:21.548Z</time></trkpt><trkpt lat="49.8148044" lon="1.639638"><ele>213.99999999999997</ele><time>2026-04-02T13:25:22.547Z</time></trkpt><trkpt lat="49.8147248" lon="1.6395799"><ele>214.0</ele><time>2026-04-02T13:25:23.547Z</time></trkpt><trkpt lat="49.8146428" lon="1.6395157"><ele>214.0</ele><time>2026-04-02T13:25:24.547Z</time></trkpt><trkpt lat="49.8145638" lon="1.6394465"><ele>214.0</ele><time>2026-04-02T13:25:25.546Z</time></trkpt><trkpt lat="49.8144864" lon="1.6393814"><ele>213.99999999999997</ele><time>2026-04-02T13:25:26.547Z</time></trkpt><trkpt lat="49.8144129" lon="1.6393141"><ele>214.0</ele><time>2026-04-02T13:25:27.548Z</time></trkpt><trkpt lat="49.8143435" lon="1.639243"><ele>213.2</ele><time>2026-04-02T13:25:28.547Z</time></trkpt><trkpt lat="49.8142746" lon="1.6391698"><ele>212.39999999999998</ele><time>2026-04-02T13:25:29.547Z</time></trkpt><trkpt lat="49.8141979" lon="1.6391"><ele>211.6</ele><time>2026-04-02T13:25:30.547Z</time></trkpt><trkpt lat="49.8141207" lon="1.6390255"><ele>210.8</ele><time>2026-04-02T13:25:31.548Z</time></trkpt><trkpt lat="49.8140347" lon="1.6389591"><ele>210.0</ele><time>2026-04-02T13:25:32.548Z</time></trkpt><trkpt lat="49.8139435" lon="1.6388866"><ele>210.0</ele><time>2026-04-02T13:25:33.547Z</time></trkpt><trkpt lat="49.8138507" lon="1.6388191"><ele>210.0</ele><time>2026-04-02T13:25:34.548Z</time></trkpt><trkpt lat="49.8137598" lon="1.6387474"><ele>210.0</ele><time>2026-04-02T13:25:35.548Z</time></trkpt><trkpt lat="49.8136602" lon="1.6386698"><ele>210.0</ele><time>2026-04-02T13:25:36.547Z</time></trkpt><trkpt lat="49.8135685" lon="1.6385959"><ele>210.0</ele><time>2026-04-02T13:25:37.547Z</time></trkpt><trkpt lat="49.8134717" lon="1.6385104"><ele>209.5</ele><time>2026-04-02T13:25:38.547Z</time></trkpt><trkpt lat="49.8133688" lon="1.6384264"><ele>209.0</ele><time>2026-04-02T13:25:39.548Z</time></trkpt><trkpt lat="49.8132704" lon="1.6383226"><ele>208.5</ele><time>2026-04-02T13:25:40.547Z</time></trkpt><trkpt lat="49.8131626" lon="1.63823"><ele>208.0</ele><time>2026-04-02T13:25:41.547Z</time></trkpt><trkpt lat="49.8130559" lon="1.6381202"><ele>208.0</ele><time>2026-04-02T13:25:42.547Z</time></trkpt><trkpt lat="49.8129481" lon="1.6380144"><ele>208.0</ele><time>2026-04-02T13:25:43.547Z</time></trkpt><trkpt lat="49.8128382" lon="1.6379103"><ele>208.0</ele><time>2026-04-02T13:25:44.547Z</time></trkpt><trkpt lat="49.8127273" lon="1.6377977"><ele>208.0</ele><time>2026-04-02T13:25:45.546Z</time></trkpt><trkpt lat="49.8126082" lon="1.6377046"><ele>209.25</ele><time>2026-04-02T13:25:46.547Z</time></trkpt><trkpt lat="49.812487" lon="1.637606"><ele>210.5</ele><time>2026-04-02T13:25:47.548Z</time></trkpt><trkpt lat="49.8123726" lon="1.6375061"><ele>211.75</ele><time>2026-04-02T13:25:48.547Z</time></trkpt><trkpt lat="49.8122656" lon="1.6374288"><ele>213.0</ele><time>2026-04-02T13:25:49.547Z</time></trkpt><trkpt lat="49.812164" lon="1.6373459"><ele>213.0</ele><time>2026-04-02T13:25:50.547Z</time></trkpt><trkpt lat="49.8120569" lon="1.6372531"><ele>213.0</ele><time>2026-04-02T13:25:51.547Z</time></trkpt><trkpt lat="49.8119443" lon="1.637169"><ele>213.0</ele><time>2026-04-02T13:25:52.548Z</time></trkpt><trkpt lat="49.8118349" lon="1.6370745"><ele>213.0</ele><time>2026-04-02T13:25:53.547Z</time></trkpt><trkpt lat="49.8117228" lon="1.6369685"><ele>213.0</ele><time>2026-04-02T13:25:54.547Z</time></trkpt><trkpt lat="49.8116103" lon="1.6368583"><ele>213.0</ele><time>2026-04-02T13:25:55.547Z</time></trkpt><trkpt lat="49.8115129" lon="1.6367548"><ele>213.0</ele><time>2026-04-02T13:25:56.547Z</time></trkpt><trkpt lat="49.8114252" lon="1.6366459"><ele>213.0</ele><time>2026-04-02T13:25:57.547Z</time></trkpt><trkpt lat="49.8113519" lon="1.6365409"><ele>213.0</ele><time>2026-04-02T13:25:58.547Z</time></trkpt><trkpt lat="49.8112804" lon="1.6364159"><ele>213.0</ele><time>2026-04-02T13:25:59.547Z</time></trkpt><trkpt lat="49.8112124" lon="1.636272"><ele>213.0</ele><time>2026-04-02T13:26:00.547Z</time></trkpt><trkpt lat="49.811134" lon="1.6361179"><ele>213.0</ele><time>2026-04-02T13:26:01.548Z</time></trkpt><trkpt lat="49.8110535" lon="1.6359567"><ele>213.75</ele><time>2026-04-02T13:26:02.548Z</time></trkpt><trkpt lat="49.8109716" lon="1.6357923"><ele>214.5</ele><time>2026-04-02T13:26:03.547Z</time></trkpt><trkpt lat="49.8108888" lon="1.6356184"><ele>215.25</ele><time>2026-04-02T13:26:04.548Z</time></trkpt><trkpt lat="49.8108085" lon="1.635437"><ele>216.0</ele><time>2026-04-02T13:26:05.547Z</time></trkpt><trkpt lat="49.8107211" lon="1.635259"><ele>216.0</ele><time>2026-04-02T13:26:06.548Z</time></trkpt><trkpt lat="49.8106355" lon="1.6350717"><ele>216.0</ele><time>2026-04-02T13:26:07.547Z</time></trkpt><trkpt lat="49.8105441" lon="1.6348782"><ele>216.0</ele><time>2026-04-02T13:26:08.547Z</time></trkpt><trkpt lat="49.8104511" lon="1.6346819"><ele>216.0</ele><time>2026-04-02T13:26:09.547Z</time></trkpt><trkpt lat="49.8103559" lon="1.6344787"><ele>216.0</ele><time>2026-04-02T13:26:10.547Z</time></trkpt><trkpt lat="49.810257" lon="1.6342775"><ele>216.0</ele><time>2026-04-02T13:26:11.546Z</time></trkpt><trkpt lat="49.810163" lon="1.6340703"><ele>216.0</ele><time>2026-04-02T13:26:12.548Z</time></trkpt><trkpt lat="49.8100774" lon="1.6338764"><ele>216.0</ele><time>2026-04-02T13:26:13.547Z</time></trkpt><trkpt lat="49.809987" lon="1.6336787"><ele>216.0</ele><time>2026-04-02T13:26:14.548Z</time></trkpt><trkpt lat="49.8098966" lon="1.6334824"><ele>216.33333333333331</ele><time>2026-04-02T13:26:15.547Z</time></trkpt><trkpt lat="49.8098044" lon="1.6332801"><ele>216.66666666666666</ele><time>2026-04-02T13:26:16.547Z</time></trkpt><trkpt lat="49.8097118" lon="1.6330802"><ele>217.0</ele><time>2026-04-02T13:26:17.547Z</time></trkpt><trkpt lat="49.8096234" lon="1.6328944"><ele>216.75</ele><time>2026-04-02T13:26:18.547Z</time></trkpt><trkpt lat="49.8095385" lon="1.6327155"><ele>216.5</ele><time>2026-04-02T13:26:19.546Z</time></trkpt><trkpt lat="49.8094547" lon="1.6325408"><ele>216.25</ele><time>2026-04-02T13:26:20.548Z</time></trkpt><trkpt lat="49.8093701" lon="1.632372"><ele>216.0</ele><time>2026-04-02T13:26:21.547Z</time></trkpt><trkpt lat="49.809287" lon="1.6321986"><ele>216.25</ele><time>2026-04-02T13:26:22.548Z</time></trkpt><trkpt lat="49.8092016" lon="1.6320215"><ele>216.5</ele><time>2026-04-02T13:26:23.547Z</time></trkpt><trkpt lat="49.8091103" lon="1.631838"><ele>216.75</ele><time>2026-04-02T13:26:24.547Z</time></trkpt><trkpt lat="49.8090171" lon="1.6316435"><ele>217.0</ele><time>2026-04-02T13:26:25.547Z</time></trkpt><trkpt lat="49.80892" lon="1.6314482"><ele>217.0</ele><time>2026-04-02T13:26:26.548Z</time></trkpt><trkpt lat="49.808819" lon="1.6312574"><ele>217.0</ele><time>2026-04-02T13:26:27.547Z</time></trkpt><trkpt lat="49.8087281" lon="1.6310668"><ele>217.0</ele><time>2026-04-02T13:26:28.547Z</time></trkpt><trkpt lat="49.8086453" lon="1.6308841"><ele>217.25</ele><time>2026-04-02T13:26:29.548Z</time></trkpt><trkpt lat="49.8085656" lon="1.6307128"><ele>217.5</ele><time>2026-04-02T13:26:30.547Z</time></trkpt><trkpt lat="49.8084982" lon="1.6305486"><ele>217.75</ele><time>2026-04-02T13:26:31.548Z</time></trkpt><trkpt lat="49.8084369" lon="1.6303951"><ele>218.0</ele><time>2026-04-02T13:26:32.547Z</time></trkpt><trkpt lat="49.8083714" lon="1.6302544"><ele>219.2</ele><time>2026-04-02T13:26:33.548Z</time></trkpt><trkpt lat="49.8083063" lon="1.6301217"><ele>220.4</ele><time>2026-04-02T13:26:34.547Z</time></trkpt><trkpt lat="49.8082455" lon="1.6299891"><ele>221.59999999999997</ele><time>2026-04-02T13:26:35.548Z</time></trkpt><trkpt lat="49.8081903" lon="1.629886"><ele>222.79999999999998</ele><time>2026-04-02T13:26:36.547Z</time></trkpt><trkpt lat="49.8081335" lon="1.6297663"><ele>224.0</ele><time>2026-04-02T13:26:37.548Z</time></trkpt><trkpt lat="49.8080696" lon="1.6296386"><ele>224.0</ele><time>2026-04-02T13:26:38.546Z</time></trkpt><trkpt lat="49.8080024" lon="1.6295071"><ele>224.0</ele><time>2026-04-02T13:26:39.548Z</time></trkpt><trkpt lat="49.8079337" lon="1.6293596"><ele>224.0</ele><time>2026-04-02T13:26:40.547Z</time></trkpt><trkpt lat="49.8078608" lon="1.6292106"><ele>224.0</ele><time>2026-04-02T13:26:41.547Z</time></trkpt><trkpt lat="49.8077883" lon="1.6290644"><ele>224.79999999999998</ele><time>2026-04-02T13:26:42.547Z</time></trkpt><trkpt lat="49.8077231" lon="1.6289223"><ele>225.59999999999997</ele><time>2026-04-02T13:26:43.548Z</time></trkpt><trkpt lat="49.8076585" lon="1.6287938"><ele>226.4</ele><time>2026-04-02T13:26:44.548Z</time></trkpt><trkpt lat="49.8076018" lon="1.6286787"><ele>227.2</ele><time>2026-04-02T13:26:45.547Z</time></trkpt><trkpt lat="49.8075584" lon="1.6285753"><ele>228.0</ele><time>2026-04-02T13:26:46.546Z</time></trkpt><trkpt lat="49.8075069" lon="1.6284265"><ele>229.0</ele><time>2026-04-02T13:26:48.548Z</time></trkpt><trkpt lat="49.8074714" lon="1.6283102"><ele>230.0</ele><time>2026-04-02T13:26:50.548Z</time></trkpt><trkpt lat="49.8074407" lon="1.6281981"><ele>231.0</ele><time>2026-04-02T13:26:52.548Z</time></trkpt><trkpt lat="49.8073807" lon="1.6280873"><ele>232.0</ele><time>2026-04-02T13:26:54.548Z</time></trkpt><trkpt lat="49.8073056" lon="1.6280356"><ele>233.0</ele><time>2026-04-02T13:26:55.547Z</time></trkpt><trkpt lat="49.807202" lon="1.6280015"><ele>234.0</ele><time>2026-04-02T13:26:56.548Z</time></trkpt><trkpt lat="49.8070819" lon="1.6279661"><ele>234.0</ele><time>2026-04-02T13:26:57.548Z</time></trkpt><trkpt lat="49.8069527" lon="1.6279287"><ele>234.0</ele><time>2026-04-02T13:26:58.547Z</time></trkpt><trkpt lat="49.8068127" lon="1.6278872"><ele>234.0</ele><time>2026-04-02T13:26:59.548Z</time></trkpt><trkpt lat="49.8066648" lon="1.6278408"><ele>234.0</ele><time>2026-04-02T13:27:00.549Z</time></trkpt><trkpt lat="49.8065075" lon="1.6277906"><ele>233.33333333333331</ele><time>2026-04-02T13:27:01.548Z</time></trkpt><trkpt lat="49.8063442" lon="1.6277404"><ele>232.66666666666666</ele><time>2026-04-02T13:27:02.549Z</time></trkpt><trkpt lat="49.8061754" lon="1.6276882"><ele>232.0</ele><time>2026-04-02T13:27:03.548Z</time></trkpt><trkpt lat="49.8060028" lon="1.6276302"><ele>232.66666666666666</ele><time>2026-04-02T13:27:04.548Z</time></trkpt><trkpt lat="49.8058256" lon="1.6275719"><ele>233.33333333333331</ele><time>2026-04-02T13:27:05.549Z</time></trkpt><trkpt lat="49.8056438" lon="1.6275151"><ele>234.0</ele><time>2026-04-02T13:27:06.549Z</time></trkpt><trkpt lat="49.8054585" lon="1.6274623"><ele>234.0</ele><time>2026-04-02T13:27:07.548Z</time></trkpt><trkpt lat="49.8052697" lon="1.6274064"><ele>234.0</ele><time>2026-04-02T13:27:08.549Z</time></trkpt><trkpt lat="49.805077" lon="1.627347"><ele>234.0</ele><time>2026-04-02T13:27:09.548Z</time></trkpt><trkpt lat="49.8048822" lon="1.6272847"><ele>232.66666666666669</ele><time>2026-04-02T13:27:10.548Z</time></trkpt><trkpt lat="49.8046828" lon="1.6272198"><ele>231.33333333333334</ele><time>2026-04-02T13:27:11.549Z</time></trkpt><trkpt lat="49.8044807" lon="1.627155"><ele>230.0</ele><time>2026-04-02T13:27:12.548Z</time></trkpt><trkpt lat="49.8042789" lon="1.6270876"><ele>230.33333333333334</ele><time>2026-04-02T13:27:13.548Z</time></trkpt><trkpt lat="49.8040943" lon="1.6270312"><ele>230.66666666666669</ele><time>2026-04-02T13:27:14.549Z</time></trkpt><trkpt lat="49.8039224" lon="1.6269766"><ele>231.0</ele><time>2026-04-02T13:27:15.547Z</time></trkpt><trkpt lat="49.8037691" lon="1.6269264"><ele>231.0</ele><time>2026-04-02T13:27:16.548Z</time></trkpt><trkpt lat="49.8036368" lon="1.6268835"><ele>231.00000000000003</ele><time>2026-04-02T13:27:17.548Z</time></trkpt><trkpt lat="49.80352" lon="1.6268472"><ele>231.00000000000003</ele><time>2026-04-02T13:27:18.548Z</time></trkpt><trkpt lat="49.8034259" lon="1.626816"><ele>231.0</ele><time>2026-04-02T13:27:19.549Z</time></trkpt><trkpt lat="49.8033466" lon="1.6267792"><ele>231.0</ele><time>2026-04-02T13:27:20.549Z</time></trkpt><trkpt lat="49.8032854" lon="1.626701"><ele>231.20000000000002</ele><time>2026-04-02T13:27:21.548Z</time></trkpt><trkpt lat="49.8032412" lon="1.6265789"><ele>231.40000000000003</ele><time>2026-04-02T13:27:22.548Z</time></trkpt><trkpt lat="49.8032124" lon="1.6264273"><ele>231.6</ele><time>2026-04-02T13:27:23.548Z</time></trkpt><trkpt lat="49.8031707" lon="1.6262532"><ele>231.8</ele><time>2026-04-02T13:27:24.548Z</time></trkpt><trkpt lat="49.8031272" lon="1.6260605"><ele>232.0</ele><time>2026-04-02T13:27:25.548Z</time></trkpt><trkpt lat="49.8030774" lon="1.6258568"><ele>232.0</ele><time>2026-04-02T13:27:26.548Z</time></trkpt><trkpt lat="49.8030257" lon="1.6256379"><ele>232.0</ele><time>2026-04-02T13:27:27.548Z</time></trkpt><trkpt lat="49.8029711" lon="1.6254099"><ele>232.0</ele><time>2026-04-02T13:27:28.548Z</time></trkpt><trkpt lat="49.8029145" lon="1.6251728"><ele>233.0</ele><time>2026-04-02T13:27:29.548Z</time></trkpt><trkpt lat="49.8028573" lon="1.624928"><ele>234.0</ele><time>2026-04-02T13:27:30.549Z</time></trkpt><trkpt lat="49.8028009" lon="1.6246705"><ele>235.0</ele><time>2026-04-02T13:27:31.548Z</time></trkpt><trkpt lat="49.8027415" lon="1.624411"><ele>235.66666666666666</ele><time>2026-04-02T13:27:32.548Z</time></trkpt><trkpt lat="49.8026833" lon="1.6241469"><ele>236.33333333333331</ele><time>2026-04-02T13:27:33.548Z</time></trkpt><trkpt lat="49.8026229" lon="1.6238806"><ele>237.0</ele><time>2026-04-02T13:27:34.547Z</time></trkpt><trkpt lat="49.8025624" lon="1.6236116"><ele>237.33333333333331</ele><time>2026-04-02T13:27:35.548Z</time></trkpt><trkpt lat="49.8025012" lon="1.6233387"><ele>237.66666666666666</ele><time>2026-04-02T13:27:36.548Z</time></trkpt><trkpt lat="49.8024375" lon="1.6230604"><ele>238.0</ele><time>2026-04-02T13:27:37.548Z</time></trkpt><trkpt lat="49.8023739" lon="1.6227794"><ele>237.33333333333331</ele><time>2026-04-02T13:27:38.547Z</time></trkpt><trkpt lat="49.8023096" lon="1.6224935"><ele>236.66666666666669</ele><time>2026-04-02T13:27:39.548Z</time></trkpt><trkpt lat="49.8022435" lon="1.622206"><ele>236.0</ele><time>2026-04-02T13:27:40.548Z</time></trkpt><trkpt lat="49.8021778" lon="1.6219153"><ele>236.0</ele><time>2026-04-02T13:27:41.548Z</time></trkpt><trkpt lat="49.8021107" lon="1.621624"><ele>236.0</ele><time>2026-04-02T13:27:42.548Z</time></trkpt><trkpt lat="49.8020437" lon="1.6213312"><ele>236.0</ele><time>2026-04-02T13:27:43.548Z</time></trkpt><trkpt lat="49.8019767" lon="1.6210407"><ele>235.66666666666669</ele><time>2026-04-02T13:27:44.548Z</time></trkpt><trkpt lat="49.8019085" lon="1.6207473"><ele>235.33333333333331</ele><time>2026-04-02T13:27:45.548Z</time></trkpt><trkpt lat="49.8018401" lon="1.6204557"><ele>235.0</ele><time>2026-04-02T13:27:46.548Z</time></trkpt><trkpt lat="49.8017714" lon="1.6201621"><ele>233.33333333333331</ele><time>2026-04-02T13:27:47.547Z</time></trkpt><trkpt lat="49.8017031" lon="1.6198688"><ele>231.66666666666669</ele><time>2026-04-02T13:27:48.549Z</time></trkpt><trkpt lat="49.8016346" lon="1.6195745"><ele>230.0</ele><time>2026-04-02T13:27:49.549Z</time></trkpt><trkpt lat="49.801565" lon="1.6192831"><ele>230.33333333333334</ele><time>2026-04-02T13:27:50.549Z</time></trkpt><trkpt lat="49.8014961" lon="1.6189941"><ele>230.66666666666669</ele><time>2026-04-02T13:27:51.549Z</time></trkpt><trkpt lat="49.8014261" lon="1.6187089"><ele>231.0</ele><time>2026-04-02T13:27:52.547Z</time></trkpt><trkpt lat="49.8013562" lon="1.6184206"><ele>231.0</ele><time>2026-04-02T13:27:53.548Z</time></trkpt><trkpt lat="49.8012822" lon="1.6181325"><ele>231.0</ele><time>2026-04-02T13:27:54.548Z</time></trkpt><trkpt lat="49.8012152" lon="1.6178392"><ele>231.0</ele><time>2026-04-02T13:27:55.548Z</time></trkpt><trkpt lat="49.8011472" lon="1.6175446"><ele>230.0</ele><time>2026-04-02T13:27:56.548Z</time></trkpt><trkpt lat="49.8010787" lon="1.617251"><ele>229.0</ele><time>2026-04-02T13:27:57.549Z</time></trkpt><trkpt lat="49.8010102" lon="1.6169562"><ele>228.0</ele><time>2026-04-02T13:27:58.548Z</time></trkpt><trkpt lat="49.8009457" lon="1.6166622"><ele>226.66666666666669</ele><time>2026-04-02T13:27:59.548Z</time></trkpt><trkpt lat="49.8008842" lon="1.6163613"><ele>225.33333333333334</ele><time>2026-04-02T13:28:00.549Z</time></trkpt><trkpt lat="49.8008181" lon="1.6160633"><ele>224.0</ele><time>2026-04-02T13:28:01.548Z</time></trkpt><trkpt lat="49.800751" lon="1.6157669"><ele>224.0</ele><time>2026-04-02T13:28:02.548Z</time></trkpt><trkpt lat="49.8006847" lon="1.615476"><ele>224.0</ele><time>2026-04-02T13:28:03.548Z</time></trkpt><trkpt lat="49.8006199" lon="1.6151938"><ele>224.0</ele><time>2026-04-02T13:28:04.548Z</time></trkpt><trkpt lat="49.8005573" lon="1.6149179"><ele>224.0</ele><time>2026-04-02T13:28:05.548Z</time></trkpt><trkpt lat="49.8004952" lon="1.6146473"><ele>224.0</ele><time>2026-04-02T13:28:06.549Z</time></trkpt><trkpt lat="49.8004361" lon="1.6143826"><ele>224.0</ele><time>2026-04-02T13:28:07.548Z</time></trkpt><trkpt lat="49.8003762" lon="1.6141246"><ele>223.66666666666669</ele><time>2026-04-02T13:28:08.548Z</time></trkpt><trkpt lat="49.8003183" lon="1.6138741"><ele>223.33333333333331</ele><time>2026-04-02T13:28:09.548Z</time></trkpt><trkpt lat="49.8002642" lon="1.6136309"><ele>223.0</ele><time>2026-04-02T13:28:10.548Z</time></trkpt><trkpt lat="49.8002102" lon="1.6134063"><ele>222.33333333333331</ele><time>2026-04-02T13:28:11.548Z</time></trkpt><trkpt lat="49.8001538" lon="1.6131756"><ele>221.66666666666669</ele><time>2026-04-02T13:28:12.548Z</time></trkpt><trkpt lat="49.8000997" lon="1.6129446"><ele>221.0</ele><time>2026-04-02T13:28:13.548Z</time></trkpt><trkpt lat="49.8000462" lon="1.6127072"><ele>223.33333333333334</ele><time>2026-04-02T13:28:14.548Z</time></trkpt><trkpt lat="49.799988" lon="1.6124476"><ele>225.66666666666669</ele><time>2026-04-02T13:28:15.548Z</time></trkpt><trkpt lat="49.7999177" lon="1.6121976"><ele>228.0</ele><time>2026-04-02T13:28:16.548Z</time></trkpt><trkpt lat="49.799859" lon="1.6119409"><ele>228.33333333333331</ele><time>2026-04-02T13:28:17.549Z</time></trkpt><trkpt lat="49.7997972" lon="1.6116807"><ele>228.66666666666666</ele><time>2026-04-02T13:28:18.548Z</time></trkpt><trkpt lat="49.7997406" lon="1.6114277"><ele>229.0</ele><time>2026-04-02T13:28:19.548Z</time></trkpt><trkpt lat="49.7996791" lon="1.6111957"><ele>230.0</ele><time>2026-04-02T13:28:20.549Z</time></trkpt><trkpt lat="49.7996217" lon="1.6109572"><ele>231.0</ele><time>2026-04-02T13:28:21.548Z</time></trkpt><trkpt lat="49.7995728" lon="1.6107259"><ele>232.0</ele><time>2026-04-02T13:28:22.549Z</time></trkpt><trkpt lat="49.7995216" lon="1.6104935"><ele>232.66666666666666</ele><time>2026-04-02T13:28:23.549Z</time></trkpt><trkpt lat="49.7994711" lon="1.6102564"><ele>233.33333333333331</ele><time>2026-04-02T13:28:24.548Z</time></trkpt><trkpt lat="49.799419" lon="1.610019"><ele>234.0</ele><time>2026-04-02T13:28:25.548Z</time></trkpt><trkpt lat="49.7993694" lon="1.6098304"><ele>234.25</ele><time>2026-04-02T13:28:26.547Z</time></trkpt><trkpt lat="49.7993247" lon="1.6096224"><ele>234.5</ele><time>2026-04-02T13:28:27.547Z</time></trkpt><trkpt lat="49.7992911" lon="1.6094327"><ele>234.75</ele><time>2026-04-02T13:28:28.549Z</time></trkpt><trkpt lat="49.799246" lon="1.6092558"><ele>235.0</ele><time>2026-04-02T13:28:29.548Z</time></trkpt><trkpt lat="49.7992068" lon="1.6090676"><ele>235.0</ele><time>2026-04-02T13:28:30.547Z</time></trkpt><trkpt lat="49.7991666" lon="1.6088849"><ele>235.0</ele><time>2026-04-02T13:28:31.549Z</time></trkpt><trkpt lat="49.7991208" lon="1.6087056"><ele>235.0</ele><time>2026-04-02T13:28:32.548Z</time></trkpt><trkpt lat="49.7990978" lon="1.6085391"><ele>235.0</ele><time>2026-04-02T13:28:33.548Z</time></trkpt><trkpt lat="49.7990565" lon="1.6083563"><ele>234.25</ele><time>2026-04-02T13:28:34.548Z</time></trkpt><trkpt lat="49.7990186" lon="1.6081671"><ele>233.5</ele><time>2026-04-02T13:28:35.549Z</time></trkpt><trkpt lat="49.7989894" lon="1.6079874"><ele>232.75</ele><time>2026-04-02T13:28:36.547Z</time></trkpt><trkpt lat="49.7989487" lon="1.6078215"><ele>232.0</ele><time>2026-04-02T13:28:37.548Z</time></trkpt><trkpt lat="49.7989095" lon="1.6076689"><ele>231.99999999999997</ele><time>2026-04-02T13:28:38.548Z</time></trkpt><trkpt lat="49.7988795" lon="1.6075251"><ele>232.0</ele><time>2026-04-02T13:28:39.548Z</time></trkpt><trkpt lat="49.7988556" lon="1.6073942"><ele>232.0</ele><time>2026-04-02T13:28:40.549Z</time></trkpt><trkpt lat="49.7988206" lon="1.6072995"><ele>232.0</ele><time>2026-04-02T13:28:41.549Z</time></trkpt><trkpt lat="49.7987766" lon="1.6072112"><ele>231.99999999999997</ele><time>2026-04-02T13:28:42.548Z</time></trkpt><trkpt lat="49.7987712" lon="1.6070858"><ele>232.0</ele><time>2026-04-02T13:28:44.548Z</time></trkpt><trkpt lat="49.7988354" lon="1.6069603"><ele>232.39999999999998</ele><time>2026-04-02T13:30:27.548Z</time></trkpt><trkpt lat="49.7989088" lon="1.6068767"><ele>232.79999999999998</ele><time>2026-04-02T13:30:28.549Z</time></trkpt><trkpt lat="49.7990036" lon="1.6068001"><ele>233.2</ele><time>2026-04-02T13:30:29.549Z</time></trkpt><trkpt lat="49.7991003" lon="1.6067614"><ele>233.6</ele><time>2026-04-02T13:30:30.548Z</time></trkpt><trkpt lat="49.7991924" lon="1.6067134"><ele>234.0</ele><time>2026-04-02T13:30:31.548Z</time></trkpt><trkpt lat="49.7992569" lon="1.6066802"><ele>234.0</ele><time>2026-04-02T13:30:32.548Z</time></trkpt><trkpt lat="49.7993257" lon="1.6066506"><ele>234.0</ele><time>2026-04-02T13:30:33.549Z</time></trkpt><trkpt lat="49.7994108" lon="1.6066345"><ele>234.0</ele><time>2026-04-02T13:30:34.549Z</time></trkpt><trkpt lat="49.7994551" lon="1.6065297"><ele>234.0</ele><time>2026-04-02T13:31:54.549Z</time></trkpt><trkpt lat="49.7995468" lon="1.6064717"><ele>234.0</ele><time>2026-04-02T13:31:55.548Z</time></trkpt><trkpt lat="49.7996111" lon="1.6064308"><ele>234.0</ele><time>2026-04-02T13:31:56.548Z</time></trkpt><trkpt lat="49.7996913" lon="1.6063657"><ele>233.0</ele><time>2026-04-02T13:31:57.549Z</time></trkpt><trkpt lat="49.7997621" lon="1.6063164"><ele>232.0</ele><time>2026-04-02T13:31:58.549Z</time></trkpt><trkpt lat="49.7998974" lon="1.6062596"><ele>231.0</ele><time>2026-04-02T13:32:00.548Z</time></trkpt><trkpt lat="49.800051" lon="1.606173"><ele>230.0</ele><time>2026-04-02T13:32:02.548Z</time></trkpt><trkpt lat="49.8001231" lon="1.6061312"><ele>229.33333333333334</ele><time>2026-04-02T13:32:03.548Z</time></trkpt><trkpt lat="49.8002003" lon="1.6060644"><ele>228.66666666666669</ele><time>2026-04-02T13:32:04.548Z</time></trkpt><trkpt lat="49.8002811" lon="1.605994"><ele>228.0</ele><time>2026-04-02T13:32:05.548Z</time></trkpt><trkpt lat="49.8003527" lon="1.6059483"><ele>227.33333333333331</ele><time>2026-04-02T13:32:06.549Z</time></trkpt><trkpt lat="49.8004134" lon="1.6058911"><ele>226.66666666666666</ele><time>2026-04-02T13:32:07.548Z</time></trkpt><trkpt lat="49.8005213" lon="1.6058358"><ele>226.0</ele><time>2026-04-02T13:32:13.548Z</time></trkpt><trkpt lat="49.800583" lon="1.6057475"><ele>226.0</ele><time>2026-04-02T13:32:21.548Z</time></trkpt><trkpt lat="49.8006463" lon="1.60567"><ele>226.0</ele><time>2026-04-02T13:32:22.548Z</time></trkpt><trkpt lat="49.8007749" lon="1.6055395"><ele>226.0</ele><time>2026-04-02T13:32:24.547Z</time></trkpt><trkpt lat="49.8008922" lon="1.6054113"><ele>226.0</ele><time>2026-04-02T13:32:25.548Z</time></trkpt><trkpt lat="49.8009837" lon="1.6053151"><ele>225.25</ele><time>2026-04-02T13:32:26.548Z</time></trkpt><trkpt lat="49.801062" lon="1.6052258"><ele>224.5</ele><time>2026-04-02T13:32:27.548Z</time></trkpt><trkpt lat="49.8011862" lon="1.6051198"><ele>223.75</ele><time>2026-04-02T13:32:28.548Z</time></trkpt><trkpt lat="49.8012929" lon="1.6050318"><ele>223.0</ele><time>2026-04-02T13:32:29.549Z</time></trkpt><trkpt lat="49.8014119" lon="1.6048945"><ele>223.0</ele><time>2026-04-02T13:32:30.548Z</time></trkpt><trkpt lat="49.8015239" lon="1.6048039"><ele>223.0</ele><time>2026-04-02T13:32:31.548Z</time></trkpt><trkpt lat="49.8016203" lon="1.6047039"><ele>223.0</ele><time>2026-04-02T13:32:32.549Z</time></trkpt><trkpt lat="49.801732" lon="1.60459"><ele>223.0</ele><time>2026-04-02T13:32:33.548Z</time></trkpt><trkpt lat="49.8018521" lon="1.6044959"><ele>223.25</ele><time>2026-04-02T13:32:34.548Z</time></trkpt><trkpt lat="49.8019768" lon="1.6043985"><ele>223.5</ele><time>2026-04-02T13:32:35.548Z</time></trkpt><trkpt lat="49.8021186" lon="1.6043237"><ele>223.75</ele><time>2026-04-02T13:32:36.548Z</time></trkpt><trkpt lat="49.8022583" lon="1.6042381"><ele>224.0</ele><time>2026-04-02T13:32:37.549Z</time></trkpt><trkpt lat="49.802404" lon="1.6041854"><ele>224.0</ele><time>2026-04-02T13:32:38.548Z</time></trkpt><trkpt lat="49.8025683" lon="1.6041413"><ele>224.0</ele><time>2026-04-02T13:32:39.548Z</time></trkpt><trkpt lat="49.8027749" lon="1.6041227"><ele>224.0</ele><time>2026-04-02T13:32:40.549Z</time></trkpt><trkpt lat="49.8029397" lon="1.6040776"><ele>223.33333333333334</ele><time>2026-04-02T13:32:41.548Z</time></trkpt><trkpt lat="49.8031276" lon="1.604055"><ele>222.66666666666669</ele><time>2026-04-02T13:32:42.548Z</time></trkpt><trkpt lat="49.8032591" lon="1.6040046"><ele>222.0</ele><time>2026-04-02T13:32:43.548Z</time></trkpt><trkpt lat="49.8034148" lon="1.6039537"><ele>221.0</ele><time>2026-04-02T13:32:44.548Z</time></trkpt><trkpt lat="49.8035571" lon="1.6038885"><ele>220.0</ele><time>2026-04-02T13:32:45.548Z</time></trkpt><trkpt lat="49.8037018" lon="1.6038309"><ele>219.0</ele><time>2026-04-02T13:32:46.548Z</time></trkpt><trkpt lat="49.8038391" lon="1.603767"><ele>218.0</ele><time>2026-04-02T13:32:47.548Z</time></trkpt><trkpt lat="49.8039505" lon="1.6037471"><ele>218.0</ele><time>2026-04-02T13:32:48.548Z</time></trkpt><trkpt lat="49.8040912" lon="1.6037181"><ele>218.0</ele><time>2026-04-02T13:32:49.548Z</time></trkpt><trkpt lat="49.8042038" lon="1.603756"><ele>218.0</ele><time>2026-04-02T13:32:50.548Z</time></trkpt><trkpt lat="49.8043136" lon="1.6037855"><ele>218.0</ele><time>2026-04-02T13:32:51.549Z</time></trkpt><trkpt lat="49.8044189" lon="1.6037951"><ele>217.25</ele><time>2026-04-02T13:32:52.548Z</time></trkpt><trkpt lat="49.804509" lon="1.6038152"><ele>216.5</ele><time>2026-04-02T13:32:53.548Z</time></trkpt><trkpt lat="49.8045772" lon="1.6038546"><ele>215.75</ele><time>2026-04-02T13:32:54.549Z</time></trkpt><trkpt lat="49.8046409" lon="1.6038772"><ele>215.0</ele><time>2026-04-02T13:32:55.548Z</time></trkpt><trkpt lat="49.804886" lon="1.6039387"><ele>215.0</ele><time>2026-04-02T13:33:02.548Z</time></trkpt><trkpt lat="49.8050598" lon="1.6039449"><ele>215.0</ele><time>2026-04-02T13:33:03.548Z</time></trkpt><trkpt lat="49.8051852" lon="1.6039784"><ele>215.0</ele><time>2026-04-02T13:33:04.549Z</time></trkpt><trkpt lat="49.8053222" lon="1.6040139"><ele>215.0</ele><time>2026-04-02T13:33:05.548Z</time></trkpt><trkpt lat="49.8054602" lon="1.6040406"><ele>213.33333333333334</ele><time>2026-04-02T13:33:06.548Z</time></trkpt><trkpt lat="49.8055995" lon="1.6040481"><ele>211.66666666666669</ele><time>2026-04-02T13:33:07.547Z</time></trkpt><trkpt lat="49.8057598" lon="1.6040771"><ele>210.0</ele><time>2026-04-02T13:33:08.548Z</time></trkpt><trkpt lat="49.8059296" lon="1.6040871"><ele>208.66666666666666</ele><time>2026-04-02T13:33:09.548Z</time></trkpt><trkpt lat="49.806008" lon="1.6040794"><ele>207.33333333333331</ele><time>2026-04-02T13:33:10.548Z</time></trkpt><trkpt lat="49.8060859" lon="1.6041372"><ele>206.0</ele><time>2026-04-02T13:33:11.548Z</time></trkpt><trkpt lat="49.8061533" lon="1.6041259"><ele>204.66666666666666</ele><time>2026-04-02T13:33:12.548Z</time></trkpt><trkpt lat="49.8062145" lon="1.6041508"><ele>203.33333333333331</ele><time>2026-04-02T13:33:15.549Z</time></trkpt><trkpt lat="49.806117" lon="1.6041038"><ele>202.0</ele><time>2026-04-02T13:35:26.549Z</time></trkpt><trkpt lat="49.8060091" lon="1.6040586"><ele>203.33333333333331</ele><time>2026-04-02T13:35:28.55Z</time></trkpt><trkpt lat="49.8059613" lon="1.6039798"><ele>204.66666666666666</ele><time>2026-04-02T13:35:29.549Z</time></trkpt><trkpt lat="49.8059116" lon="1.6039168"><ele>206.0</ele><time>2026-04-02T13:35:30.55Z</time></trkpt><trkpt lat="49.8058583" lon="1.603836"><ele>207.33333333333331</ele><time>2026-04-02T13:35:31.549Z</time></trkpt><trkpt lat="49.8058399" lon="1.6037043"><ele>208.66666666666666</ele><time>2026-04-02T13:35:37.549Z</time></trkpt><trkpt lat="49.8058226" lon="1.6035431"><ele>210.0</ele><time>2026-04-02T13:35:39.549Z</time></trkpt><trkpt lat="49.8058113" lon="1.6034146"><ele>210.4</ele><time>2026-04-02T13:35:40.549Z</time></trkpt><trkpt lat="49.8058091" lon="1.6032552"><ele>210.8</ele><time>2026-04-02T13:35:41.549Z</time></trkpt><trkpt lat="49.8058154" lon="1.6031109"><ele>211.2</ele><time>2026-04-02T13:35:42.548Z</time></trkpt><trkpt lat="49.8058293" lon="1.6029714"><ele>211.6</ele><time>2026-04-02T13:35:43.549Z</time></trkpt><trkpt lat="49.8058719" lon="1.6028592"><ele>212.0</ele><time>2026-04-02T13:35:44.549Z</time></trkpt><trkpt lat="49.8058283" lon="1.6029638"><ele>212.0</ele><time>2026-04-02T13:35:58.548Z</time></trkpt><trkpt lat="49.8058255" lon="1.6032052"><ele>212.0</ele><time>2026-04-02T13:36:00.549Z</time></trkpt><trkpt lat="49.8057757" lon="1.6033031"><ele>212.0</ele><time>2026-04-02T13:36:02.549Z</time></trkpt><trkpt lat="49.8058052" lon="1.6034675"><ele>212.0</ele><time>2026-04-02T13:36:04.55Z</time></trkpt><trkpt lat="49.8058199" lon="1.6035653"><ele>212.0</ele><time>2026-04-02T13:36:05.549Z</time></trkpt><trkpt lat="49.8058549" lon="1.6037208"><ele>211.6</ele><time>2026-04-02T13:36:07.549Z</time></trkpt><trkpt lat="49.8059129" lon="1.6038382"><ele>211.2</ele><time>2026-04-02T13:36:09.55Z</time></trkpt><trkpt lat="49.8059297" lon="1.6039603"><ele>210.8</ele><time>2026-04-02T13:36:43.549Z</time></trkpt><trkpt lat="49.8060524" lon="1.6041082"><ele>210.4</ele><time>2026-04-02T13:36:47.55Z</time></trkpt><trkpt lat="49.806164" lon="1.6041514"><ele>210.0</ele><time>2026-04-02T13:36:48.549Z</time></trkpt><trkpt lat="49.8062813" lon="1.6041706"><ele>207.33333333333331</ele><time>2026-04-02T13:36:49.55Z</time></trkpt><trkpt lat="49.8064555" lon="1.6041335"><ele>204.66666666666666</ele><time>2026-04-02T13:36:50.549Z</time></trkpt><trkpt lat="49.8066178" lon="1.6040095"><ele>202.0</ele><time>2026-04-02T13:36:51.549Z</time></trkpt><trkpt lat="49.8067503" lon="1.6039253"><ele>204.66666666666666</ele><time>2026-04-02T13:36:52.549Z</time></trkpt><trkpt lat="49.8068861" lon="1.6038214"><ele>207.33333333333331</ele><time>2026-04-02T13:36:53.55Z</time></trkpt><trkpt lat="49.8070339" lon="1.6037132"><ele>210.0</ele><time>2026-04-02T13:36:54.549Z</time></trkpt><trkpt lat="49.8071862" lon="1.6035936"><ele>204.66666666666669</ele><time>2026-04-02T13:36:55.55Z</time></trkpt><trkpt lat="49.8073332" lon="1.6034848"><ele>199.33333333333334</ele><time>2026-04-02T13:36:56.549Z</time></trkpt><trkpt lat="49.8074781" lon="1.6033692"><ele>194.0</ele><time>2026-04-02T13:36:57.55Z</time></trkpt><trkpt lat="49.8076233" lon="1.6032531"><ele>195.0</ele><time>2026-04-02T13:36:58.548Z</time></trkpt><trkpt lat="49.8077574" lon="1.6031493"><ele>196.0</ele><time>2026-04-02T13:36:59.549Z</time></trkpt><trkpt lat="49.807895" lon="1.603053"><ele>197.0</ele><time>2026-04-02T13:37:00.549Z</time></trkpt><trkpt lat="49.8080264" lon="1.6029528"><ele>198.0</ele><time>2026-04-02T13:37:01.549Z</time></trkpt><trkpt lat="49.8081609" lon="1.6028576"><ele>195.0</ele><time>2026-04-02T13:37:02.549Z</time></trkpt><trkpt lat="49.8083008" lon="1.6027688"><ele>192.0</ele><time>2026-04-02T13:37:03.549Z</time></trkpt><trkpt lat="49.8084365" lon="1.6026839"><ele>189.0</ele><time>2026-04-02T13:37:04.549Z</time></trkpt><trkpt lat="49.8085732" lon="1.6025995"><ele>186.0</ele><time>2026-04-02T13:37:05.549Z</time></trkpt><trkpt lat="49.8087078" lon="1.6025223"><ele>186.0</ele><time>2026-04-02T13:37:06.55Z</time></trkpt><trkpt lat="49.8088413" lon="1.6024481"><ele>186.0</ele><time>2026-04-02T13:37:07.549Z</time></trkpt><trkpt lat="49.808978" lon="1.6023736"><ele>186.0</ele><time>2026-04-02T13:37:08.55Z</time></trkpt><trkpt lat="49.8091115" lon="1.602301"><ele>186.0</ele><time>2026-04-02T13:37:09.55Z</time></trkpt><trkpt lat="49.8092437" lon="1.6022317"><ele>187.5</ele><time>2026-04-02T13:37:10.55Z</time></trkpt><trkpt lat="49.8093727" lon="1.6021599"><ele>189.0</ele><time>2026-04-02T13:37:11.55Z</time></trkpt><trkpt lat="49.8094881" lon="1.6020873"><ele>190.5</ele><time>2026-04-02T13:37:12.549Z</time></trkpt><trkpt lat="49.8096058" lon="1.602024"><ele>192.0</ele><time>2026-04-02T13:37:13.549Z</time></trkpt><trkpt lat="49.8097183" lon="1.6019588"><ele>189.25</ele><time>2026-04-02T13:37:14.55Z</time></trkpt><trkpt lat="49.8098374" lon="1.6018954"><ele>186.5</ele><time>2026-04-02T13:37:15.549Z</time></trkpt><trkpt lat="49.8099599" lon="1.6018251"><ele>183.75</ele><time>2026-04-02T13:37:16.549Z</time></trkpt><trkpt lat="49.8100964" lon="1.6017573"><ele>181.0</ele><time>2026-04-02T13:37:17.55Z</time></trkpt><trkpt lat="49.8102422" lon="1.601695"><ele>181.0</ele><time>2026-04-02T13:37:18.549Z</time></trkpt><trkpt lat="49.8103882" lon="1.6016393"><ele>181.0</ele><time>2026-04-02T13:37:19.549Z</time></trkpt><trkpt lat="49.810517" lon="1.6015892"><ele>181.0</ele><time>2026-04-02T13:37:20.549Z</time></trkpt><trkpt lat="49.8106282" lon="1.6015434"><ele>181.0</ele><time>2026-04-02T13:37:21.549Z</time></trkpt><trkpt lat="49.810736" lon="1.6014959"><ele>181.0</ele><time>2026-04-02T13:37:22.549Z</time></trkpt><trkpt lat="49.8108502" lon="1.6014481"><ele>181.0</ele><time>2026-04-02T13:37:23.549Z</time></trkpt><trkpt lat="49.8109716" lon="1.6013943"><ele>181.0</ele><time>2026-04-02T13:37:24.55Z</time></trkpt><trkpt lat="49.8111014" lon="1.6013363"><ele>181.0</ele><time>2026-04-02T13:37:25.549Z</time></trkpt><trkpt lat="49.811239" lon="1.601272"><ele>183.0</ele><time>2026-04-02T13:37:26.549Z</time></trkpt><trkpt lat="49.8113858" lon="1.601203"><ele>185.0</ele><time>2026-04-02T13:37:27.55Z</time></trkpt><trkpt lat="49.8115389" lon="1.6011239"><ele>187.0</ele><time>2026-04-02T13:37:28.548Z</time></trkpt><trkpt lat="49.8116935" lon="1.6010258"><ele>183.66666666666669</ele><time>2026-04-02T13:37:29.55Z</time></trkpt><trkpt lat="49.8118502" lon="1.6009195"><ele>180.33333333333334</ele><time>2026-04-02T13:37:30.549Z</time></trkpt><trkpt lat="49.8120094" lon="1.6008046"><ele>177.0</ele><time>2026-04-02T13:37:31.549Z</time></trkpt><trkpt lat="49.8121695" lon="1.6006835"><ele>177.0</ele><time>2026-04-02T13:37:32.549Z</time></trkpt><trkpt lat="49.8123315" lon="1.6005692"><ele>177.0</ele><time>2026-04-02T13:37:33.549Z</time></trkpt><trkpt lat="49.8125001" lon="1.6004597"><ele>177.0</ele><time>2026-04-02T13:37:34.549Z</time></trkpt><trkpt lat="49.8126741" lon="1.600349"><ele>174.66666666666666</ele><time>2026-04-02T13:37:35.55Z</time></trkpt><trkpt lat="49.8128441" lon="1.6002303"><ele>172.33333333333331</ele><time>2026-04-02T13:37:36.55Z</time></trkpt><trkpt lat="49.8130151" lon="1.600113"><ele>170.0</ele><time>2026-04-02T13:37:37.549Z</time></trkpt><trkpt lat="49.8131919" lon="1.5999958"><ele>170.0</ele><time>2026-04-02T13:37:38.55Z</time></trkpt><trkpt lat="49.8133701" lon="1.5998833"><ele>170.0</ele><time>2026-04-02T13:37:39.549Z</time></trkpt><trkpt lat="49.8135477" lon="1.5997623"><ele>170.0</ele><time>2026-04-02T13:37:40.549Z</time></trkpt><trkpt lat="49.8137264" lon="1.5996424"><ele>169.0</ele><time>2026-04-02T13:37:41.549Z</time></trkpt><trkpt lat="49.8139089" lon="1.5995251"><ele>168.0</ele><time>2026-04-02T13:37:42.55Z</time></trkpt><trkpt lat="49.8140897" lon="1.599408"><ele>167.0</ele><time>2026-04-02T13:37:43.548Z</time></trkpt><trkpt lat="49.8142698" lon="1.5992965"><ele>168.0</ele><time>2026-04-02T13:37:44.549Z</time></trkpt><trkpt lat="49.8144508" lon="1.5991933"><ele>169.0</ele><time>2026-04-02T13:37:45.55Z</time></trkpt><trkpt lat="49.8146333" lon="1.5990999"><ele>170.0</ele><time>2026-04-02T13:37:46.55Z</time></trkpt><trkpt lat="49.8148183" lon="1.5990006"><ele>170.0</ele><time>2026-04-02T13:37:47.549Z</time></trkpt><trkpt lat="49.8150017" lon="1.5989014"><ele>170.0</ele><time>2026-04-02T13:37:48.549Z</time></trkpt><trkpt lat="49.8151739" lon="1.5987982"><ele>170.0</ele><time>2026-04-02T13:37:49.55Z</time></trkpt><trkpt lat="49.8153337" lon="1.5986906"><ele>167.33333333333331</ele><time>2026-04-02T13:37:50.549Z</time></trkpt><trkpt lat="49.8154816" lon="1.598578"><ele>164.66666666666666</ele><time>2026-04-02T13:37:51.55Z</time></trkpt><trkpt lat="49.815632" lon="1.5984665"><ele>162.0</ele><time>2026-04-02T13:37:52.549Z</time></trkpt><trkpt lat="49.8157671" lon="1.5983484"><ele>162.0</ele><time>2026-04-02T13:37:53.55Z</time></trkpt><trkpt lat="49.8158908" lon="1.5982362"><ele>162.0</ele><time>2026-04-02T13:37:54.549Z</time></trkpt><trkpt lat="49.816004" lon="1.598125"><ele>162.0</ele><time>2026-04-02T13:37:55.55Z</time></trkpt><trkpt lat="49.8161097" lon="1.5980138"><ele>162.0</ele><time>2026-04-02T13:37:56.549Z</time></trkpt><trkpt lat="49.816213" lon="1.5979045"><ele>161.25</ele><time>2026-04-02T13:37:57.548Z</time></trkpt><trkpt lat="49.8163121" lon="1.5977946"><ele>160.5</ele><time>2026-04-02T13:37:58.549Z</time></trkpt><trkpt lat="49.8164126" lon="1.5976767"><ele>159.75</ele><time>2026-04-02T13:37:59.549Z</time></trkpt><trkpt lat="49.8165152" lon="1.5975532"><ele>159.0</ele><time>2026-04-02T13:38:00.549Z</time></trkpt><trkpt lat="49.8166158" lon="1.597426"><ele>159.0</ele><time>2026-04-02T13:38:01.549Z</time></trkpt><trkpt lat="49.8167148" lon="1.5972931"><ele>159.0</ele><time>2026-04-02T13:38:02.549Z</time></trkpt><trkpt lat="49.8168118" lon="1.5971666"><ele>159.0</ele><time>2026-04-02T13:38:03.549Z</time></trkpt><trkpt lat="49.8169089" lon="1.5970478"><ele>159.0</ele><time>2026-04-02T13:38:04.549Z</time></trkpt><trkpt lat="49.8170059" lon="1.5969321"><ele>158.5</ele><time>2026-04-02T13:38:05.548Z</time></trkpt><trkpt lat="49.8171007" lon="1.5968153"><ele>158.0</ele><time>2026-04-02T13:38:06.549Z</time></trkpt><trkpt lat="49.8172029" lon="1.5966967"><ele>157.5</ele><time>2026-04-02T13:38:07.55Z</time></trkpt><trkpt lat="49.8173068" lon="1.5965884"><ele>157.0</ele><time>2026-04-02T13:38:08.55Z</time></trkpt><trkpt lat="49.8174169" lon="1.5964817"><ele>157.0</ele><time>2026-04-02T13:38:09.549Z</time></trkpt><trkpt lat="49.8175309" lon="1.5963813"><ele>157.0</ele><time>2026-04-02T13:38:10.549Z</time></trkpt><trkpt lat="49.8176502" lon="1.596293"><ele>157.0</ele><time>2026-04-02T13:38:11.549Z</time></trkpt><trkpt lat="49.8177683" lon="1.5962118"><ele>157.0</ele><time>2026-04-02T13:38:12.549Z</time></trkpt><trkpt lat="49.8178867" lon="1.5961364"><ele>156.75</ele><time>2026-04-02T13:38:13.55Z</time></trkpt><trkpt lat="49.8180055" lon="1.5960723"><ele>156.5</ele><time>2026-04-02T13:38:14.55Z</time></trkpt><trkpt lat="49.8181268" lon="1.5960105"><ele>156.25</ele><time>2026-04-02T13:38:15.549Z</time></trkpt><trkpt lat="49.8182474" lon="1.5959457"><ele>156.0</ele><time>2026-04-02T13:38:16.55Z</time></trkpt><trkpt lat="49.8183665" lon="1.5958818"><ele>155.75</ele><time>2026-04-02T13:38:17.548Z</time></trkpt><trkpt lat="49.8184873" lon="1.5958204"><ele>155.5</ele><time>2026-04-02T13:38:18.549Z</time></trkpt><trkpt lat="49.8186069" lon="1.5957594"><ele>155.25</ele><time>2026-04-02T13:38:19.549Z</time></trkpt><trkpt lat="49.8187269" lon="1.5956982"><ele>155.0</ele><time>2026-04-02T13:38:20.549Z</time></trkpt><trkpt lat="49.8188482" lon="1.5956397"><ele>155.0</ele><time>2026-04-02T13:38:21.548Z</time></trkpt><trkpt lat="49.8189683" lon="1.5955794"><ele>155.0</ele><time>2026-04-02T13:38:22.549Z</time></trkpt><trkpt lat="49.8190886" lon="1.5955186"><ele>155.0</ele><time>2026-04-02T13:38:23.55Z</time></trkpt><trkpt lat="49.819209" lon="1.5954584"><ele>155.0</ele><time>2026-04-02T13:38:24.55Z</time></trkpt><trkpt lat="49.8193264" lon="1.5954004"><ele>154.8</ele><time>2026-04-02T13:38:25.55Z</time></trkpt><trkpt lat="49.8194328" lon="1.5953447"><ele>154.6</ele><time>2026-04-02T13:38:26.549Z</time></trkpt><trkpt lat="49.819535" lon="1.5952921"><ele>154.4</ele><time>2026-04-02T13:38:27.55Z</time></trkpt><trkpt lat="49.8196354" lon="1.5952363"><ele>154.2</ele><time>2026-04-02T13:38:28.548Z</time></trkpt><trkpt lat="49.819737" lon="1.5951889"><ele>154.0</ele><time>2026-04-02T13:38:29.549Z</time></trkpt><trkpt lat="49.8198323" lon="1.5951487"><ele>153.33333333333334</ele><time>2026-04-02T13:38:30.549Z</time></trkpt><trkpt lat="49.8199176" lon="1.5951177"><ele>152.66666666666669</ele><time>2026-04-02T13:38:31.549Z</time></trkpt><trkpt lat="49.8199969" lon="1.5950905"><ele>152.0</ele><time>2026-04-02T13:38:32.549Z</time></trkpt><trkpt lat="49.8200696" lon="1.5950572"><ele>151.33333333333334</ele><time>2026-04-02T13:38:33.549Z</time></trkpt><trkpt lat="49.8201384" lon="1.5950016"><ele>150.66666666666666</ele><time>2026-04-02T13:38:34.55Z</time></trkpt><trkpt lat="49.8201957" lon="1.5949037"><ele>150.0</ele><time>2026-04-02T13:38:35.549Z</time></trkpt><trkpt lat="49.8202395" lon="1.5947783"><ele>150.0</ele><time>2026-04-02T13:38:36.55Z</time></trkpt><trkpt lat="49.8202838" lon="1.5946284"><ele>150.0</ele><time>2026-04-02T13:38:37.549Z</time></trkpt><trkpt lat="49.8203287" lon="1.5944778"><ele>150.0</ele><time>2026-04-02T13:38:38.548Z</time></trkpt><trkpt lat="49.8203684" lon="1.5943266"><ele>150.0</ele><time>2026-04-02T13:38:39.549Z</time></trkpt><trkpt lat="49.820414" lon="1.5941726"><ele>150.0</ele><time>2026-04-02T13:38:40.549Z</time></trkpt><trkpt lat="49.8204583" lon="1.5940094"><ele>149.6</ele><time>2026-04-02T13:38:41.549Z</time></trkpt><trkpt lat="49.8204992" lon="1.5938508"><ele>149.2</ele><time>2026-04-02T13:38:42.55Z</time></trkpt><trkpt lat="49.8205399" lon="1.5936957"><ele>148.8</ele><time>2026-04-02T13:38:43.55Z</time></trkpt><trkpt lat="49.8205835" lon="1.5935357"><ele>148.4</ele><time>2026-04-02T13:38:44.549Z</time></trkpt><trkpt lat="49.8206282" lon="1.5933805"><ele>148.0</ele><time>2026-04-02T13:38:45.549Z</time></trkpt><trkpt lat="49.8206822" lon="1.5932379"><ele>148.0</ele><time>2026-04-02T13:38:46.549Z</time></trkpt><trkpt lat="49.820742" lon="1.5931074"><ele>148.0</ele><time>2026-04-02T13:38:47.549Z</time></trkpt><trkpt lat="49.8208101" lon="1.592986"><ele>148.0</ele><time>2026-04-02T13:38:48.55Z</time></trkpt><trkpt lat="49.8208821" lon="1.5928738"><ele>148.0</ele><time>2026-04-02T13:38:49.55Z</time></trkpt><trkpt lat="49.8209631" lon="1.5927758"><ele>148.0</ele><time>2026-04-02T13:38:50.549Z</time></trkpt><trkpt lat="49.8210621" lon="1.5926904"><ele>148.0</ele><time>2026-04-02T13:38:51.549Z</time></trkpt><trkpt lat="49.8211643" lon="1.5926085"><ele>148.0</ele><time>2026-04-02T13:38:52.549Z</time></trkpt><trkpt lat="49.8212721" lon="1.5925215"><ele>148.0</ele><time>2026-04-02T13:38:53.549Z</time></trkpt><trkpt lat="49.8213766" lon="1.5924272"><ele>148.0</ele><time>2026-04-02T13:38:54.549Z</time></trkpt><trkpt lat="49.8214819" lon="1.5923322"><ele>148.0</ele><time>2026-04-02T13:38:55.549Z</time></trkpt><trkpt lat="49.8215836" lon="1.5922322"><ele>148.0</ele><time>2026-04-02T13:38:56.549Z</time></trkpt><trkpt lat="49.8216818" lon="1.5921293"><ele>148.0</ele><time>2026-04-02T13:38:57.55Z</time></trkpt><trkpt lat="49.8217774" lon="1.5920205"><ele>148.0</ele><time>2026-04-02T13:38:58.55Z</time></trkpt><trkpt lat="49.8218715" lon="1.5919091"><ele>147.25</ele><time>2026-04-02T13:38:59.55Z</time></trkpt><trkpt lat="49.821961" lon="1.5917915"><ele>146.5</ele><time>2026-04-02T13:39:00.548Z</time></trkpt><trkpt lat="49.8220499" lon="1.591672"><ele>145.75</ele><time>2026-04-02T13:39:01.549Z</time></trkpt><trkpt lat="49.8221358" lon="1.5915432"><ele>145.0</ele><time>2026-04-02T13:39:02.55Z</time></trkpt><trkpt lat="49.8222206" lon="1.5914114"><ele>145.0</ele><time>2026-04-02T13:39:03.549Z</time></trkpt><trkpt lat="49.8223052" lon="1.5912754"><ele>145.0</ele><time>2026-04-02T13:39:04.549Z</time></trkpt><trkpt lat="49.8223891" lon="1.5911384"><ele>145.0</ele><time>2026-04-02T13:39:05.549Z</time></trkpt><trkpt lat="49.8224731" lon="1.5909951"><ele>145.0</ele><time>2026-04-02T13:39:06.549Z</time></trkpt><trkpt lat="49.8225585" lon="1.5908504"><ele>145.0</ele><time>2026-04-02T13:39:07.549Z</time></trkpt><trkpt lat="49.8226454" lon="1.5907044"><ele>145.0</ele><time>2026-04-02T13:39:08.548Z</time></trkpt><trkpt lat="49.8227315" lon="1.5905659"><ele>145.0</ele><time>2026-04-02T13:39:09.549Z</time></trkpt><trkpt lat="49.8228192" lon="1.5904213"><ele>145.0</ele><time>2026-04-02T13:39:10.549Z</time></trkpt><trkpt lat="49.8229108" lon="1.5902808"><ele>144.75</ele><time>2026-04-02T13:39:11.549Z</time></trkpt><trkpt lat="49.8230063" lon="1.5901409"><ele>144.5</ele><time>2026-04-02T13:39:12.55Z</time></trkpt><trkpt lat="49.8231005" lon="1.5900104"><ele>144.25</ele><time>2026-04-02T13:39:13.549Z</time></trkpt><trkpt lat="49.8231976" lon="1.589883"><ele>144.0</ele><time>2026-04-02T13:39:14.549Z</time></trkpt><trkpt lat="49.8232966" lon="1.5897643"><ele>144.0</ele><time>2026-04-02T13:39:15.549Z</time></trkpt><trkpt lat="49.8233972" lon="1.5896417"><ele>144.0</ele><time>2026-04-02T13:39:16.549Z</time></trkpt><trkpt lat="49.8234934" lon="1.5895198"><ele>144.0</ele><time>2026-04-02T13:39:17.549Z</time></trkpt><trkpt lat="49.8235874" lon="1.5893882"><ele>144.0</ele><time>2026-04-02T13:39:18.549Z</time></trkpt><trkpt lat="49.8236766" lon="1.5892544"><ele>143.5</ele><time>2026-04-02T13:39:19.549Z</time></trkpt><trkpt lat="49.8237595" lon="1.5891176"><ele>143.0</ele><time>2026-04-02T13:39:20.549Z</time></trkpt><trkpt lat="49.8238433" lon="1.5889653"><ele>142.5</ele><time>2026-04-02T13:39:21.55Z</time></trkpt><trkpt lat="49.8239242" lon="1.5888096"><ele>142.0</ele><time>2026-04-02T13:39:22.549Z</time></trkpt><trkpt lat="49.8240083" lon="1.588642"><ele>141.33333333333334</ele><time>2026-04-02T13:39:23.549Z</time></trkpt><trkpt lat="49.8240968" lon="1.5884621"><ele>140.66666666666666</ele><time>2026-04-02T13:39:24.549Z</time></trkpt><trkpt lat="49.824191" lon="1.5882735"><ele>140.0</ele><time>2026-04-02T13:39:25.549Z</time></trkpt><trkpt lat="49.8242874" lon="1.5880785"><ele>140.0</ele><time>2026-04-02T13:39:26.549Z</time></trkpt><trkpt lat="49.8243867" lon="1.5878811"><ele>140.0</ele><time>2026-04-02T13:39:27.55Z</time></trkpt><trkpt lat="49.8244859" lon="1.5876871"><ele>140.0</ele><time>2026-04-02T13:39:28.55Z</time></trkpt><trkpt lat="49.824582" lon="1.5874954"><ele>140.0</ele><time>2026-04-02T13:39:29.55Z</time></trkpt><trkpt lat="49.8246779" lon="1.5873032"><ele>140.0</ele><time>2026-04-02T13:39:30.549Z</time></trkpt><trkpt lat="49.8247728" lon="1.5871169"><ele>140.0</ele><time>2026-04-02T13:39:31.55Z</time></trkpt><trkpt lat="49.8248561" lon="1.5869407"><ele>139.8</ele><time>2026-04-02T13:39:32.549Z</time></trkpt><trkpt lat="49.8249255" lon="1.5867696"><ele>139.6</ele><time>2026-04-02T13:39:33.549Z</time></trkpt><trkpt lat="49.8249819" lon="1.5866125"><ele>139.4</ele><time>2026-04-02T13:39:34.55Z</time></trkpt><trkpt lat="49.8250283" lon="1.5864674"><ele>139.2</ele><time>2026-04-02T13:39:35.549Z</time></trkpt><trkpt lat="49.8250645" lon="1.58634"><ele>139.0</ele><time>2026-04-02T13:39:36.55Z</time></trkpt><trkpt lat="49.8250955" lon="1.5862274"><ele>139.0</ele><time>2026-04-02T13:39:37.55Z</time></trkpt><trkpt lat="49.825123" lon="1.5861298"><ele>139.0</ele><time>2026-04-02T13:39:38.549Z</time></trkpt><trkpt lat="49.825148" lon="1.5860402"><ele>139.0</ele><time>2026-04-02T13:39:39.549Z</time></trkpt><trkpt lat="49.8251777" lon="1.5859374"><ele>139.0</ele><time>2026-04-02T13:39:40.55Z</time></trkpt><trkpt lat="49.825197" lon="1.5858071"><ele>139.0</ele><time>2026-04-02T13:39:41.549Z</time></trkpt><trkpt lat="49.8251971" lon="1.5856507"><ele>139.0</ele><time>2026-04-02T13:39:42.549Z</time></trkpt><trkpt lat="49.825189" lon="1.5854839"><ele>138.75</ele><time>2026-04-02T13:39:43.549Z</time></trkpt><trkpt lat="49.8251758" lon="1.5853047"><ele>138.5</ele><time>2026-04-02T13:39:44.549Z</time></trkpt><trkpt lat="49.8251506" lon="1.5851333"><ele>138.25</ele><time>2026-04-02T13:39:45.55Z</time></trkpt><trkpt lat="49.8251148" lon="1.5849466"><ele>138.0</ele><time>2026-04-02T13:39:46.55Z</time></trkpt><trkpt lat="49.8250702" lon="1.584759"><ele>138.5</ele><time>2026-04-02T13:39:47.548Z</time></trkpt><trkpt lat="49.8250039" lon="1.5845763"><ele>139.0</ele><time>2026-04-02T13:39:48.549Z</time></trkpt><trkpt lat="49.8249297" lon="1.5843897"><ele>139.5</ele><time>2026-04-02T13:39:49.548Z</time></trkpt><trkpt lat="49.8248473" lon="1.5842036"><ele>140.0</ele><time>2026-04-02T13:39:50.549Z</time></trkpt><trkpt lat="49.8247569" lon="1.5840211"><ele>140.0</ele><time>2026-04-02T13:39:51.549Z</time></trkpt><trkpt lat="49.8246629" lon="1.583836"><ele>140.0</ele><time>2026-04-02T13:39:52.549Z</time></trkpt><trkpt lat="49.8245589" lon="1.5836594"><ele>140.0</ele><time>2026-04-02T13:39:53.549Z</time></trkpt><trkpt lat="49.8244566" lon="1.5834853"><ele>140.25</ele><time>2026-04-02T13:39:54.549Z</time></trkpt><trkpt lat="49.8243548" lon="1.5833183"><ele>140.5</ele><time>2026-04-02T13:39:55.55Z</time></trkpt><trkpt lat="49.8242624" lon="1.5831756"><ele>140.75</ele><time>2026-04-02T13:39:56.549Z</time></trkpt><trkpt lat="49.8241757" lon="1.5830385"><ele>141.0</ele><time>2026-04-02T13:39:57.549Z</time></trkpt><trkpt lat="49.8241003" lon="1.5829003"><ele>142.75</ele><time>2026-04-02T13:39:58.549Z</time></trkpt><trkpt lat="49.8240261" lon="1.5827568"><ele>144.5</ele><time>2026-04-02T13:39:59.549Z</time></trkpt><trkpt lat="49.8239497" lon="1.5826054"><ele>146.25</ele><time>2026-04-02T13:40:00.548Z</time></trkpt><trkpt lat="49.8238845" lon="1.5824624"><ele>148.0</ele><time>2026-04-02T13:40:01.548Z</time></trkpt><trkpt lat="49.8238281" lon="1.5823224"><ele>148.0</ele><time>2026-04-02T13:40:02.548Z</time></trkpt><trkpt lat="49.8237765" lon="1.5821709"><ele>148.0</ele><time>2026-04-02T13:40:03.548Z</time></trkpt><trkpt lat="49.8237298" lon="1.582023"><ele>148.0</ele><time>2026-04-02T13:40:04.549Z</time></trkpt><trkpt lat="49.8236896" lon="1.5818913"><ele>148.0</ele><time>2026-04-02T13:40:05.55Z</time></trkpt><trkpt lat="49.8236754" lon="1.581754"><ele>148.0</ele><time>2026-04-02T13:40:06.548Z</time></trkpt><trkpt lat="49.8236737" lon="1.5816007"><ele>148.8</ele><time>2026-04-02T13:40:07.55Z</time></trkpt><trkpt lat="49.823687" lon="1.5814441"><ele>149.60000000000002</ele><time>2026-04-02T13:40:08.549Z</time></trkpt><trkpt lat="49.8237213" lon="1.5812916"><ele>150.39999999999998</ele><time>2026-04-02T13:40:09.549Z</time></trkpt><trkpt lat="49.8237614" lon="1.5811509"><ele>151.2</ele><time>2026-04-02T13:40:10.549Z</time></trkpt><trkpt lat="49.8237976" lon="1.581005"><ele>152.0</ele><time>2026-04-02T13:40:11.549Z</time></trkpt><trkpt lat="49.8238287" lon="1.5808518"><ele>152.5</ele><time>2026-04-02T13:40:12.55Z</time></trkpt><trkpt lat="49.823852" lon="1.5806861"><ele>153.0</ele><time>2026-04-02T13:40:13.549Z</time></trkpt><trkpt lat="49.8238673" lon="1.5805151"><ele>153.5</ele><time>2026-04-02T13:40:14.549Z</time></trkpt><trkpt lat="49.8238706" lon="1.5803392"><ele>154.0</ele><time>2026-04-02T13:40:15.55Z</time></trkpt><trkpt lat="49.8238812" lon="1.5801598"><ele>154.8</ele><time>2026-04-02T13:40:16.549Z</time></trkpt><trkpt lat="49.8238881" lon="1.5799811"><ele>155.60000000000002</ele><time>2026-04-02T13:40:17.55Z</time></trkpt><trkpt lat="49.8238953" lon="1.5798117"><ele>156.4</ele><time>2026-04-02T13:40:18.549Z</time></trkpt><trkpt lat="49.8239035" lon="1.5796521"><ele>157.20000000000002</ele><time>2026-04-02T13:40:19.55Z</time></trkpt><trkpt lat="49.8238975" lon="1.5794877"><ele>158.0</ele><time>2026-04-02T13:40:20.549Z</time></trkpt><trkpt lat="49.8238878" lon="1.5793189"><ele>158.75</ele><time>2026-04-02T13:40:21.549Z</time></trkpt><trkpt lat="49.8238627" lon="1.579142"><ele>159.5</ele><time>2026-04-02T13:40:22.549Z</time></trkpt><trkpt lat="49.8238279" lon="1.5789602"><ele>160.25</ele><time>2026-04-02T13:40:23.55Z</time></trkpt><trkpt lat="49.8237946" lon="1.5787709"><ele>161.0</ele><time>2026-04-02T13:40:24.549Z</time></trkpt><trkpt lat="49.8237602" lon="1.5786025"><ele>161.66666666666666</ele><time>2026-04-02T13:40:25.549Z</time></trkpt><trkpt lat="49.8237281" lon="1.5784463"><ele>162.33333333333331</ele><time>2026-04-02T13:40:26.549Z</time></trkpt><trkpt lat="49.8236999" lon="1.5783139"><ele>163.0</ele><time>2026-04-02T13:40:27.549Z</time></trkpt><trkpt lat="49.8236763" lon="1.5781973"><ele>163.66666666666666</ele><time>2026-04-02T13:40:28.549Z</time></trkpt><trkpt lat="49.8236553" lon="1.5780742"><ele>164.33333333333334</ele><time>2026-04-02T13:40:29.549Z</time></trkpt><trkpt lat="49.8236391" lon="1.5779629"><ele>165.0</ele><time>2026-04-02T13:40:30.549Z</time></trkpt><trkpt lat="49.8236345" lon="1.5778369"><ele>165.8</ele><time>2026-04-02T13:40:31.549Z</time></trkpt><trkpt lat="49.8236319" lon="1.5776806"><ele>166.6</ele><time>2026-04-02T13:40:32.549Z</time></trkpt><trkpt lat="49.8236328" lon="1.5775154"><ele>167.39999999999998</ele><time>2026-04-02T13:40:33.548Z</time></trkpt><trkpt lat="49.8236314" lon="1.5773461"><ele>168.2</ele><time>2026-04-02T13:40:34.548Z</time></trkpt><trkpt lat="49.823625" lon="1.5771719"><ele>169.0</ele><time>2026-04-02T13:40:35.55Z</time></trkpt><trkpt lat="49.8236199" lon="1.5769994"><ele>169.16666666666669</ele><time>2026-04-02T13:40:36.549Z</time></trkpt><trkpt lat="49.8236103" lon="1.5768559"><ele>169.33333333333334</ele><time>2026-04-02T13:40:37.55Z</time></trkpt><trkpt lat="49.8236062" lon="1.5767235"><ele>169.5</ele><time>2026-04-02T13:40:38.549Z</time></trkpt><trkpt lat="49.8236008" lon="1.5766116"><ele>169.66666666666666</ele><time>2026-04-02T13:40:39.549Z</time></trkpt><trkpt lat="49.8235909" lon="1.5765052"><ele>169.83333333333331</ele><time>2026-04-02T13:40:40.549Z</time></trkpt><trkpt lat="49.823576" lon="1.5763988"><ele>170.0</ele><time>2026-04-02T13:40:41.549Z</time></trkpt><trkpt lat="49.8235652" lon="1.5762839"><ele>170.33333333333331</ele><time>2026-04-02T13:40:42.549Z</time></trkpt><trkpt lat="49.8235525" lon="1.5761649"><ele>170.66666666666666</ele><time>2026-04-02T13:40:43.549Z</time></trkpt><trkpt lat="49.8235167" lon="1.5760414"><ele>171.0</ele><time>2026-04-02T13:40:44.549Z</time></trkpt><trkpt lat="49.8234918" lon="1.5759246"><ele>171.33333333333334</ele><time>2026-04-02T13:40:45.55Z</time></trkpt><trkpt lat="49.8234609" lon="1.575822"><ele>171.66666666666669</ele><time>2026-04-02T13:40:46.548Z</time></trkpt><trkpt lat="49.823417" lon="1.5756957"><ele>172.0</ele><time>2026-04-02T13:40:48.55Z</time></trkpt><trkpt lat="49.8233765" lon="1.5755584"><ele>173.5</ele><time>2026-04-02T13:40:50.549Z</time></trkpt><trkpt lat="49.8233268" lon="1.5754093"><ele>175.0</ele><time>2026-04-02T13:40:52.549Z</time></trkpt><trkpt lat="49.8232755" lon="1.5752494"><ele>176.5</ele><time>2026-04-02T13:40:54.549Z</time></trkpt><trkpt lat="49.8232132" lon="1.5750773"><ele>178.0</ele><time>2026-04-02T13:40:56.549Z</time></trkpt><trkpt lat="49.8231402" lon="1.5748914"><ele>178.5</ele><time>2026-04-02T13:40:58.549Z</time></trkpt><trkpt lat="49.8230995" lon="1.5747662"><ele>179.0</ele><time>2026-04-02T13:40:59.548Z</time></trkpt><trkpt lat="49.8230576" lon="1.5746402"><ele>179.5</ele><time>2026-04-02T13:41:00.549Z</time></trkpt><trkpt lat="49.8230219" lon="1.5745565"><ele>180.0</ele><time>2026-04-02T13:41:01.549Z</time></trkpt><trkpt lat="49.8229979" lon="1.5744468"><ele>180.5</ele><time>2026-04-02T13:41:03.549Z</time></trkpt><trkpt lat="49.8229673" lon="1.5743488"><ele>181.0</ele><time>2026-04-02T13:41:35.549Z</time></trkpt><trkpt lat="49.8229337" lon="1.5742257"><ele>181.16666666666669</ele><time>2026-04-02T13:41:38.549Z</time></trkpt><trkpt lat="49.8229039" lon="1.5740547"><ele>181.33333333333334</ele><time>2026-04-02T13:41:40.549Z</time></trkpt><trkpt lat="49.8228954" lon="1.5739507"><ele>181.5</ele><time>2026-04-02T13:41:41.55Z</time></trkpt><trkpt lat="49.8228891" lon="1.5738434"><ele>181.66666666666666</ele><time>2026-04-02T13:41:42.549Z</time></trkpt><trkpt lat="49.8228968" lon="1.5737422"><ele>181.83333333333331</ele><time>2026-04-02T13:41:43.549Z</time></trkpt><trkpt lat="49.8229344" lon="1.5735472"><ele>182.0</ele><time>2026-04-02T13:41:45.549Z</time></trkpt><trkpt lat="49.8229695" lon="1.5734368"><ele>181.39999999999998</ele><time>2026-04-02T13:41:46.549Z</time></trkpt><trkpt lat="49.823009" lon="1.5733205"><ele>180.79999999999998</ele><time>2026-04-02T13:41:47.549Z</time></trkpt><trkpt lat="49.8230518" lon="1.5731975"><ele>180.2</ele><time>2026-04-02T13:41:48.55Z</time></trkpt><trkpt lat="49.8230963" lon="1.5730767"><ele>179.6</ele><time>2026-04-02T13:41:49.549Z</time></trkpt><trkpt lat="49.8231361" lon="1.5729408"><ele>179.0</ele><time>2026-04-02T13:41:50.55Z</time></trkpt><trkpt lat="49.8231757" lon="1.572809"><ele>177.39999999999998</ele><time>2026-04-02T13:41:51.549Z</time></trkpt><trkpt lat="49.8232126" lon="1.5726674"><ele>175.8</ele><time>2026-04-02T13:41:52.55Z</time></trkpt><trkpt lat="49.8232497" lon="1.5725321"><ele>174.2</ele><time>2026-04-02T13:41:53.549Z</time></trkpt><trkpt lat="49.8232884" lon="1.5724011"><ele>172.60000000000002</ele><time>2026-04-02T13:41:54.548Z</time></trkpt><trkpt lat="49.8233258" lon="1.5722744"><ele>171.0</ele><time>2026-04-02T13:41:55.549Z</time></trkpt><trkpt lat="49.8233665" lon="1.5721423"><ele>171.60000000000002</ele><time>2026-04-02T13:41:56.55Z</time></trkpt><trkpt lat="49.8234114" lon="1.5720115"><ele>172.2</ele><time>2026-04-02T13:41:57.548Z</time></trkpt><trkpt lat="49.8234528" lon="1.571871"><ele>172.8</ele><time>2026-04-02T13:41:58.55Z</time></trkpt><trkpt lat="49.8234983" lon="1.5717287"><ele>173.39999999999998</ele><time>2026-04-02T13:41:59.549Z</time></trkpt><trkpt lat="49.8235493" lon="1.5715976"><ele>174.0</ele><time>2026-04-02T13:42:00.549Z</time></trkpt><trkpt lat="49.82359" lon="1.5714528"><ele>174.0</ele><time>2026-04-02T13:42:01.548Z</time></trkpt><trkpt lat="49.8236341" lon="1.5713154"><ele>174.0</ele><time>2026-04-02T13:42:02.55Z</time></trkpt><trkpt lat="49.8236743" lon="1.5711839"><ele>174.0</ele><time>2026-04-02T13:42:03.548Z</time></trkpt><trkpt lat="49.823719" lon="1.5710559"><ele>174.0</ele><time>2026-04-02T13:42:04.549Z</time></trkpt><trkpt lat="49.8237643" lon="1.5709329"><ele>174.0</ele><time>2026-04-02T13:42:05.55Z</time></trkpt><trkpt lat="49.8238079" lon="1.5708072"><ele>171.39999999999998</ele><time>2026-04-02T13:42:06.551Z</time></trkpt><trkpt lat="49.823853" lon="1.5706865"><ele>168.8</ele><time>2026-04-02T13:42:07.55Z</time></trkpt><trkpt lat="49.8238994" lon="1.5705672"><ele>166.2</ele><time>2026-04-02T13:42:08.55Z</time></trkpt><trkpt lat="49.8239519" lon="1.5704431"><ele>163.60000000000002</ele><time>2026-04-02T13:42:09.55Z</time></trkpt><trkpt lat="49.8240083" lon="1.5703299"><ele>161.0</ele><time>2026-04-02T13:42:10.55Z</time></trkpt><trkpt lat="49.8240786" lon="1.5702065"><ele>159.8</ele><time>2026-04-02T13:42:11.549Z</time></trkpt><trkpt lat="49.8241471" lon="1.5700716"><ele>158.60000000000002</ele><time>2026-04-02T13:42:12.551Z</time></trkpt><trkpt lat="49.8242096" lon="1.5699275"><ele>157.4</ele><time>2026-04-02T13:42:13.55Z</time></trkpt><trkpt lat="49.82426" lon="1.5698025"><ele>156.2</ele><time>2026-04-02T13:42:14.55Z</time></trkpt><trkpt lat="49.8243159" lon="1.5696723"><ele>155.0</ele><time>2026-04-02T13:42:15.55Z</time></trkpt><trkpt lat="49.8243616" lon="1.5695395"><ele>151.8</ele><time>2026-04-02T13:42:16.55Z</time></trkpt><trkpt lat="49.8244104" lon="1.5694266"><ele>148.6</ele><time>2026-04-02T13:42:17.55Z</time></trkpt><trkpt lat="49.8244625" lon="1.5693175"><ele>145.4</ele><time>2026-04-02T13:42:18.55Z</time></trkpt><trkpt lat="49.8245301" lon="1.5692124"><ele>142.2</ele><time>2026-04-02T13:42:19.55Z</time></trkpt><trkpt lat="49.8246026" lon="1.5691121"><ele>139.0</ele><time>2026-04-02T13:42:20.55Z</time></trkpt><trkpt lat="49.8246759" lon="1.5690103"><ele>139.0</ele><time>2026-04-02T13:42:21.55Z</time></trkpt><trkpt lat="49.8247793" lon="1.5688312"><ele>139.0</ele><time>2026-04-02T13:42:23.55Z</time></trkpt><trkpt lat="49.8248231" lon="1.5687183"><ele>139.0</ele><time>2026-04-02T13:42:24.55Z</time></trkpt><trkpt lat="49.8248794" lon="1.5685735"><ele>139.0</ele><time>2026-04-02T13:42:25.551Z</time></trkpt><trkpt lat="49.824914" lon="1.568462"><ele>139.0</ele><time>2026-04-02T13:42:26.55Z</time></trkpt><trkpt lat="49.8249169" lon="1.5683454"><ele>136.75</ele><time>2026-04-02T13:42:27.55Z</time></trkpt><trkpt lat="49.8249403" lon="1.5681566"><ele>134.5</ele><time>2026-04-02T13:42:29.55Z</time></trkpt><trkpt lat="49.824948" lon="1.5679717"><ele>132.25</ele><time>2026-04-02T13:42:31.551Z</time></trkpt><trkpt lat="49.8249408" lon="1.5677905"><ele>130.0</ele><time>2026-04-02T13:42:33.55Z</time></trkpt><trkpt lat="49.8249481" lon="1.567628"><ele>129.6</ele><time>2026-04-02T13:42:35.55Z</time></trkpt><trkpt lat="49.8249652" lon="1.5674608"><ele>129.2</ele><time>2026-04-02T13:42:37.55Z</time></trkpt><trkpt lat="49.8250017" lon="1.5672976"><ele>128.8</ele><time>2026-04-02T13:42:39.55Z</time></trkpt><trkpt lat="49.8250316" lon="1.56714"><ele>128.4</ele><time>2026-04-02T13:42:41.551Z</time></trkpt><trkpt lat="49.8250531" lon="1.5670324"><ele>128.0</ele><time>2026-04-02T13:42:43.55Z</time></trkpt><trkpt lat="49.8250623" lon="1.5669181"><ele>127.99999999999999</ele><time>2026-04-02T13:42:47.551Z</time></trkpt><trkpt lat="49.8250156" lon="1.5667978"><ele>128.0</ele><time>2026-04-02T13:42:49.55Z</time></trkpt><trkpt lat="49.8249621" lon="1.566673"><ele>128.0</ele><time>2026-04-02T13:42:51.549Z</time></trkpt><trkpt lat="49.8249621" lon="1.5665711"><ele>128.0</ele><time>2026-04-02T13:42:53.55Z</time></trkpt><trkpt lat="49.8249993" lon="1.5664017"><ele>127.99999999999999</ele><time>2026-04-02T13:42:56.551Z</time></trkpt><trkpt lat="49.8250225" lon="1.5662998"><ele>128.0</ele><time>2026-04-02T13:42:57.55Z</time></trkpt><trkpt lat="49.8250434" lon="1.5661882"><ele>128.16666666666666</ele><time>2026-04-02T13:42:58.55Z</time></trkpt><trkpt lat="49.8250646" lon="1.5660705"><ele>128.33333333333331</ele><time>2026-04-02T13:42:59.55Z</time></trkpt><trkpt lat="49.8250822" lon="1.5659442"><ele>128.5</ele><time>2026-04-02T13:43:00.55Z</time></trkpt><trkpt lat="49.8250994" lon="1.5658141"><ele>128.66666666666666</ele><time>2026-04-02T13:43:01.549Z</time></trkpt><trkpt lat="49.8251145" lon="1.5656801"><ele>128.83333333333334</ele><time>2026-04-02T13:43:02.55Z</time></trkpt><trkpt lat="49.8251278" lon="1.5655386"><ele>129.0</ele><time>2026-04-02T13:43:03.55Z</time></trkpt><trkpt lat="49.8251436" lon="1.5653933"><ele>129.4</ele><time>2026-04-02T13:43:04.55Z</time></trkpt><trkpt lat="49.8251509" lon="1.5652491"><ele>129.8</ele><time>2026-04-02T13:43:05.55Z</time></trkpt><trkpt lat="49.8251627" lon="1.5651041"><ele>130.2</ele><time>2026-04-02T13:43:06.551Z</time></trkpt><trkpt lat="49.8251641" lon="1.5649499"><ele>130.6</ele><time>2026-04-02T13:43:07.55Z</time></trkpt><trkpt lat="49.8251734" lon="1.5647966"><ele>131.0</ele><time>2026-04-02T13:43:08.549Z</time></trkpt><trkpt lat="49.825185" lon="1.5646452"><ele>131.8</ele><time>2026-04-02T13:43:09.549Z</time></trkpt><trkpt lat="49.8251935" lon="1.5644936"><ele>132.6</ele><time>2026-04-02T13:43:10.551Z</time></trkpt><trkpt lat="49.8252068" lon="1.564328"><ele>133.4</ele><time>2026-04-02T13:43:11.55Z</time></trkpt><trkpt lat="49.8252201" lon="1.5641599"><ele>134.2</ele><time>2026-04-02T13:43:12.551Z</time></trkpt><trkpt lat="49.8252457" lon="1.5639976"><ele>135.0</ele><time>2026-04-02T13:43:13.55Z</time></trkpt><trkpt lat="49.8252638" lon="1.5638276"><ele>135.75</ele><time>2026-04-02T13:43:14.55Z</time></trkpt><trkpt lat="49.8252607" lon="1.5636445"><ele>136.5</ele><time>2026-04-02T13:43:15.551Z</time></trkpt><trkpt lat="49.8252585" lon="1.5634492"><ele>137.25</ele><time>2026-04-02T13:43:16.55Z</time></trkpt><trkpt lat="49.8252492" lon="1.5632446"><ele>138.0</ele><time>2026-04-02T13:43:17.55Z</time></trkpt><trkpt lat="49.8252466" lon="1.5630477"><ele>138.25</ele><time>2026-04-02T13:43:18.55Z</time></trkpt><trkpt lat="49.8252371" lon="1.5628549"><ele>138.5</ele><time>2026-04-02T13:43:19.551Z</time></trkpt><trkpt lat="49.8252171" lon="1.5626646"><ele>138.75</ele><time>2026-04-02T13:43:20.55Z</time></trkpt><trkpt lat="49.8251791" lon="1.5624776"><ele>139.0</ele><time>2026-04-02T13:43:21.55Z</time></trkpt><trkpt lat="49.8251355" lon="1.5622972"><ele>139.75</ele><time>2026-04-02T13:43:22.551Z</time></trkpt><trkpt lat="49.8250848" lon="1.5621215"><ele>140.5</ele><time>2026-04-02T13:43:23.55Z</time></trkpt><trkpt lat="49.825038" lon="1.5619349"><ele>141.25</ele><time>2026-04-02T13:43:24.55Z</time></trkpt><trkpt lat="49.8249812" lon="1.561751"><ele>142.0</ele><time>2026-04-02T13:43:25.551Z</time></trkpt><trkpt lat="49.8249251" lon="1.5615557"><ele>142.75</ele><time>2026-04-02T13:43:26.55Z</time></trkpt><trkpt lat="49.8248698" lon="1.5613569"><ele>143.5</ele><time>2026-04-02T13:43:27.55Z</time></trkpt><trkpt lat="49.8248036" lon="1.5611612"><ele>144.25</ele><time>2026-04-02T13:43:28.551Z</time></trkpt><trkpt lat="49.8247453" lon="1.5609573"><ele>145.0</ele><time>2026-04-02T13:43:29.55Z</time></trkpt><trkpt lat="49.8246854" lon="1.5607627"><ele>145.5</ele><time>2026-04-02T13:43:30.551Z</time></trkpt><trkpt lat="49.8246251" lon="1.5605744"><ele>146.0</ele><time>2026-04-02T13:43:31.551Z</time></trkpt><trkpt lat="49.8245637" lon="1.5603772"><ele>146.5</ele><time>2026-04-02T13:43:32.549Z</time></trkpt><trkpt lat="49.8244953" lon="1.5601937"><ele>147.0</ele><time>2026-04-02T13:43:33.551Z</time></trkpt><trkpt lat="49.8244246" lon="1.560015"><ele>147.5</ele><time>2026-04-02T13:43:34.551Z</time></trkpt><trkpt lat="49.8243472" lon="1.559842"><ele>148.0</ele><time>2026-04-02T13:43:35.549Z</time></trkpt><trkpt lat="49.8242646" lon="1.5596692"><ele>148.5</ele><time>2026-04-02T13:43:36.55Z</time></trkpt><trkpt lat="49.8241797" lon="1.5594987"><ele>149.0</ele><time>2026-04-02T13:43:37.55Z</time></trkpt><trkpt lat="49.8240921" lon="1.5593321"><ele>150.0</ele><time>2026-04-02T13:43:38.551Z</time></trkpt><trkpt lat="49.8240088" lon="1.5591633"><ele>151.0</ele><time>2026-04-02T13:43:39.55Z</time></trkpt><trkpt lat="49.8239269" lon="1.5589856"><ele>152.0</ele><time>2026-04-02T13:43:40.55Z</time></trkpt><trkpt lat="49.8238457" lon="1.5587993"><ele>153.0</ele><time>2026-04-02T13:43:41.551Z</time></trkpt><trkpt lat="49.8237675" lon="1.5586054"><ele>153.0</ele><time>2026-04-02T13:43:42.55Z</time></trkpt><trkpt lat="49.8236864" lon="1.5584108"><ele>153.0</ele><time>2026-04-02T13:43:43.55Z</time></trkpt><trkpt lat="49.823609" lon="1.5582094"><ele>153.0</ele><time>2026-04-02T13:43:44.55Z</time></trkpt><trkpt lat="49.8235259" lon="1.5580081"><ele>155.0</ele><time>2026-04-02T13:43:45.55Z</time></trkpt><trkpt lat="49.8234405" lon="1.5578038"><ele>157.0</ele><time>2026-04-02T13:43:46.55Z</time></trkpt><trkpt lat="49.8233456" lon="1.5576149"><ele>159.0</ele><time>2026-04-02T13:43:47.55Z</time></trkpt><trkpt lat="49.823264" lon="1.5574398"><ele>159.0</ele><time>2026-04-02T13:43:48.551Z</time></trkpt><trkpt lat="49.8231739" lon="1.5572899"><ele>159.0</ele><time>2026-04-02T13:43:49.55Z</time></trkpt><trkpt lat="49.8230761" lon="1.5571342"><ele>159.0</ele><time>2026-04-02T13:43:50.55Z</time></trkpt><trkpt lat="49.822969" lon="1.5569917"><ele>159.0</ele><time>2026-04-02T13:43:51.551Z</time></trkpt><trkpt lat="49.8228616" lon="1.5568425"><ele>159.25</ele><time>2026-04-02T13:43:52.55Z</time></trkpt><trkpt lat="49.8227478" lon="1.5566992"><ele>159.5</ele><time>2026-04-02T13:43:53.549Z</time></trkpt><trkpt lat="49.8226386" lon="1.5565427"><ele>159.75</ele><time>2026-04-02T13:43:54.551Z</time></trkpt><trkpt lat="49.8225304" lon="1.5563823"><ele>160.0</ele><time>2026-04-02T13:43:55.549Z</time></trkpt><trkpt lat="49.8224273" lon="1.5562281"><ele>161.75</ele><time>2026-04-02T13:43:56.55Z</time></trkpt><trkpt lat="49.822337" lon="1.5560688"><ele>163.5</ele><time>2026-04-02T13:43:57.55Z</time></trkpt><trkpt lat="49.8222505" lon="1.5559233"><ele>165.25</ele><time>2026-04-02T13:43:58.551Z</time></trkpt><trkpt lat="49.8221768" lon="1.5557757"><ele>167.0</ele><time>2026-04-02T13:43:59.55Z</time></trkpt><trkpt lat="49.8221031" lon="1.555616"><ele>167.0</ele><time>2026-04-02T13:44:00.549Z</time></trkpt><trkpt lat="49.8220327" lon="1.5554478"><ele>167.0</ele><time>2026-04-02T13:44:01.551Z</time></trkpt><trkpt lat="49.821972" lon="1.5552783"><ele>167.0</ele><time>2026-04-02T13:44:02.55Z</time></trkpt><trkpt lat="49.8219222" lon="1.5550939"><ele>167.0</ele><time>2026-04-02T13:44:03.551Z</time></trkpt><trkpt lat="49.821877" lon="1.5548943"><ele>166.75</ele><time>2026-04-02T13:44:04.551Z</time></trkpt><trkpt lat="49.8218426" lon="1.5546891"><ele>166.5</ele><time>2026-04-02T13:44:05.549Z</time></trkpt><trkpt lat="49.8218098" lon="1.5544976"><ele>166.25</ele><time>2026-04-02T13:44:06.55Z</time></trkpt><trkpt lat="49.8217725" lon="1.5543234"><ele>166.0</ele><time>2026-04-02T13:44:07.551Z</time></trkpt><trkpt lat="49.8217462" lon="1.5541507"><ele>167.60000000000002</ele><time>2026-04-02T13:44:08.55Z</time></trkpt><trkpt lat="49.821725" lon="1.5539708"><ele>169.2</ele><time>2026-04-02T13:44:09.55Z</time></trkpt><trkpt lat="49.8217088" lon="1.5537953"><ele>170.8</ele><time>2026-04-02T13:44:10.55Z</time></trkpt><trkpt lat="49.8216867" lon="1.5536339"><ele>172.39999999999998</ele><time>2026-04-02T13:44:11.55Z</time></trkpt><trkpt lat="49.821666" lon="1.5534695"><ele>174.0</ele><time>2026-04-02T13:44:12.55Z</time></trkpt><trkpt lat="49.8216411" lon="1.5532957"><ele>175.5</ele><time>2026-04-02T13:44:13.55Z</time></trkpt><trkpt lat="49.8216214" lon="1.5531012"><ele>177.0</ele><time>2026-04-02T13:44:14.55Z</time></trkpt><trkpt lat="49.8215936" lon="1.5528987"><ele>178.5</ele><time>2026-04-02T13:44:15.55Z</time></trkpt><trkpt lat="49.8215628" lon="1.5526819"><ele>180.0</ele><time>2026-04-02T13:44:16.55Z</time></trkpt><trkpt lat="49.8215084" lon="1.552458"><ele>181.0</ele><time>2026-04-02T13:44:17.55Z</time></trkpt><trkpt lat="49.8214687" lon="1.5522411"><ele>182.0</ele><time>2026-04-02T13:44:18.55Z</time></trkpt><trkpt lat="49.8214277" lon="1.5520116"><ele>183.0</ele><time>2026-04-02T13:44:19.551Z</time></trkpt><trkpt lat="49.8213772" lon="1.5517722"><ele>182.66666666666666</ele><time>2026-04-02T13:44:20.551Z</time></trkpt><trkpt lat="49.8213382" lon="1.5515175"><ele>182.33333333333331</ele><time>2026-04-02T13:44:21.55Z</time></trkpt><trkpt lat="49.8212857" lon="1.5512844"><ele>182.0</ele><time>2026-04-02T13:44:22.55Z</time></trkpt><trkpt lat="49.8212486" lon="1.5510389"><ele>182.0</ele><time>2026-04-02T13:44:23.55Z</time></trkpt><trkpt lat="49.8212113" lon="1.5508201"><ele>182.0</ele><time>2026-04-02T13:44:24.55Z</time></trkpt><trkpt lat="49.821167" lon="1.5506073"><ele>182.0</ele><time>2026-04-02T13:44:25.55Z</time></trkpt><trkpt lat="49.8211281" lon="1.550381"><ele>182.0</ele><time>2026-04-02T13:44:26.551Z</time></trkpt><trkpt lat="49.8210755" lon="1.5501633"><ele>179.75</ele><time>2026-04-02T13:44:27.55Z</time></trkpt><trkpt lat="49.8210409" lon="1.5499344"><ele>177.5</ele><time>2026-04-02T13:44:28.55Z</time></trkpt><trkpt lat="49.820995" lon="1.5497355"><ele>175.25</ele><time>2026-04-02T13:44:29.55Z</time></trkpt><trkpt lat="49.8209751" lon="1.5495166"><ele>173.0</ele><time>2026-04-02T13:44:30.55Z</time></trkpt><trkpt lat="49.8209439" lon="1.5492883"><ele>176.25</ele><time>2026-04-02T13:44:31.55Z</time></trkpt><trkpt lat="49.8209012" lon="1.5490807"><ele>179.5</ele><time>2026-04-02T13:44:32.551Z</time></trkpt><trkpt lat="49.8208525" lon="1.5488914"><ele>182.75</ele><time>2026-04-02T13:44:33.55Z</time></trkpt><trkpt lat="49.8208215" lon="1.5487192"><ele>186.0</ele><time>2026-04-02T13:44:34.55Z</time></trkpt><trkpt lat="49.8207945" lon="1.5485569"><ele>186.0</ele><time>2026-04-02T13:44:35.549Z</time></trkpt><trkpt lat="49.8207631" lon="1.5484055"><ele>186.0</ele><time>2026-04-02T13:44:36.551Z</time></trkpt><trkpt lat="49.8207359" lon="1.5482503"><ele>186.0</ele><time>2026-04-02T13:44:37.549Z</time></trkpt><trkpt lat="49.8207028" lon="1.5481003"><ele>186.0</ele><time>2026-04-02T13:44:38.55Z</time></trkpt><trkpt lat="49.82067" lon="1.5479364"><ele>186.0</ele><time>2026-04-02T13:44:39.549Z</time></trkpt><trkpt lat="49.820613" lon="1.5477775"><ele>183.75</ele><time>2026-04-02T13:44:40.55Z</time></trkpt><trkpt lat="49.820545" lon="1.5476267"><ele>181.5</ele><time>2026-04-02T13:44:41.55Z</time></trkpt><trkpt lat="49.8204699" lon="1.5474695"><ele>179.25</ele><time>2026-04-02T13:44:42.551Z</time></trkpt><trkpt lat="49.8203975" lon="1.5472929"><ele>177.0</ele><time>2026-04-02T13:44:43.55Z</time></trkpt><trkpt lat="49.8203239" lon="1.5471199"><ele>176.75</ele><time>2026-04-02T13:44:44.55Z</time></trkpt><trkpt lat="49.8202587" lon="1.5469654"><ele>176.5</ele><time>2026-04-02T13:44:45.55Z</time></trkpt><trkpt lat="49.8201921" lon="1.5468164"><ele>176.25</ele><time>2026-04-02T13:44:46.55Z</time></trkpt><trkpt lat="49.8201317" lon="1.546662"><ele>176.0</ele><time>2026-04-02T13:44:47.551Z</time></trkpt><trkpt lat="49.8200725" lon="1.5465225"><ele>176.0</ele><time>2026-04-02T13:44:48.551Z</time></trkpt><trkpt lat="49.8200197" lon="1.5464065"><ele>176.0</ele><time>2026-04-02T13:44:49.551Z</time></trkpt><trkpt lat="49.8199716" lon="1.5462955"><ele>176.0</ele><time>2026-04-02T13:44:50.55Z</time></trkpt><trkpt lat="49.8199228" lon="1.5461888"><ele>176.0</ele><time>2026-04-02T13:44:51.55Z</time></trkpt><trkpt lat="49.8198726" lon="1.5460832"><ele>176.0</ele><time>2026-04-02T13:44:52.55Z</time></trkpt><trkpt lat="49.8197854" lon="1.5459673"><ele>175.25</ele><time>2026-04-02T13:44:53.55Z</time></trkpt><trkpt lat="49.8196949" lon="1.5458447"><ele>174.5</ele><time>2026-04-02T13:44:54.551Z</time></trkpt><trkpt lat="49.8196036" lon="1.5457162"><ele>173.75</ele><time>2026-04-02T13:44:55.55Z</time></trkpt><trkpt lat="49.8195145" lon="1.5455862"><ele>173.0</ele><time>2026-04-02T13:44:56.551Z</time></trkpt><trkpt lat="49.8194299" lon="1.545456"><ele>173.0</ele><time>2026-04-02T13:44:57.551Z</time></trkpt><trkpt lat="49.8193603" lon="1.5453378"><ele>173.0</ele><time>2026-04-02T13:44:58.55Z</time></trkpt><trkpt lat="49.8193002" lon="1.5452206"><ele>173.0</ele><time>2026-04-02T13:44:59.55Z</time></trkpt><trkpt lat="49.819252" lon="1.5450929"><ele>173.0</ele><time>2026-04-02T13:45:00.55Z</time></trkpt><trkpt lat="49.8192098" lon="1.5449422"><ele>173.0</ele><time>2026-04-02T13:45:01.55Z</time></trkpt><trkpt lat="49.8191799" lon="1.544792"><ele>173.0</ele><time>2026-04-02T13:45:02.55Z</time></trkpt><trkpt lat="49.8191786" lon="1.544627"><ele>173.0</ele><time>2026-04-02T13:45:03.55Z</time></trkpt><trkpt lat="49.819191" lon="1.5444547"><ele>173.0</ele><time>2026-04-02T13:45:04.551Z</time></trkpt><trkpt lat="49.819263" lon="1.544212"><ele>173.0</ele><time>2026-04-02T13:45:05.55Z</time></trkpt><trkpt lat="49.8193147" lon="1.5439855"><ele>168.5</ele><time>2026-04-02T13:45:06.55Z</time></trkpt><trkpt lat="49.8193573" lon="1.5437743"><ele>164.0</ele><time>2026-04-02T13:45:07.55Z</time></trkpt><trkpt lat="49.8193861" lon="1.5435777"><ele>159.5</ele><time>2026-04-02T13:45:08.55Z</time></trkpt><trkpt lat="49.8194095" lon="1.5433961"><ele>155.0</ele><time>2026-04-02T13:45:09.551Z</time></trkpt><trkpt lat="49.8194324" lon="1.5432334"><ele>155.0</ele><time>2026-04-02T13:45:10.551Z</time></trkpt><trkpt lat="49.8194511" lon="1.5430681"><ele>155.0</ele><time>2026-04-02T13:45:11.55Z</time></trkpt><trkpt lat="49.819473" lon="1.5429005"><ele>155.0</ele><time>2026-04-02T13:45:12.55Z</time></trkpt><trkpt lat="49.8194967" lon="1.5427283"><ele>155.0</ele><time>2026-04-02T13:45:13.55Z</time></trkpt><trkpt lat="49.8195189" lon="1.5425629"><ele>155.0</ele><time>2026-04-02T13:45:14.55Z</time></trkpt><trkpt lat="49.8195384" lon="1.5424064"><ele>155.5</ele><time>2026-04-02T13:45:15.55Z</time></trkpt><trkpt lat="49.8195568" lon="1.5422677"><ele>156.0</ele><time>2026-04-02T13:45:16.551Z</time></trkpt><trkpt lat="49.8195765" lon="1.5421611"><ele>156.5</ele><time>2026-04-02T13:45:17.55Z</time></trkpt><trkpt lat="49.8195901" lon="1.5420643"><ele>157.0</ele><time>2026-04-02T13:45:20.55Z</time></trkpt><trkpt lat="49.8195626" lon="1.5421847"><ele>157.5</ele><time>2026-04-02T13:45:27.549Z</time></trkpt><trkpt lat="49.8195462" lon="1.5422805"><ele>158.0</ele><time>2026-04-02T13:45:29.551Z</time></trkpt><trkpt lat="49.8195287" lon="1.5424153"><ele>158.0</ele><time>2026-04-02T13:45:31.549Z</time></trkpt><trkpt lat="49.8195154" lon="1.5425659"><ele>158.0</ele><time>2026-04-02T13:45:33.549Z</time></trkpt><trkpt lat="49.8194902" lon="1.5426848"><ele>158.0</ele><time>2026-04-02T13:45:35.55Z</time></trkpt><trkpt lat="49.8194833" lon="1.5427986"><ele>158.0</ele><time>2026-04-02T13:45:37.55Z</time></trkpt><trkpt lat="49.8194679" lon="1.5429067"><ele>158.0</ele><time>2026-04-02T13:45:39.55Z</time></trkpt><trkpt lat="49.8194464" lon="1.5430098"><ele>158.0</ele><time>2026-04-02T13:45:41.55Z</time></trkpt><trkpt lat="49.8194336" lon="1.543118"><ele>157.5</ele><time>2026-04-02T13:45:43.55Z</time></trkpt><trkpt lat="49.8194117" lon="1.5432295"><ele>157.0</ele><time>2026-04-02T13:45:46.55Z</time></trkpt><trkpt lat="49.8193973" lon="1.5433374"><ele>156.5</ele><time>2026-04-02T13:45:55.55Z</time></trkpt><trkpt lat="49.8193967" lon="1.5432036"><ele>156.0</ele><time>2026-04-02T13:45:56.55Z</time></trkpt><trkpt lat="49.8193701" lon="1.5431097"><ele>155.5</ele><time>2026-04-02T13:45:57.549Z</time></trkpt><trkpt lat="49.8192938" lon="1.5429797"><ele>155.0</ele><time>2026-04-02T13:45:59.55Z</time></trkpt><trkpt lat="49.8192637" lon="1.5428736"><ele>157.0</ele><time>2026-04-02T13:46:04.549Z</time></trkpt><trkpt lat="49.8192339" lon="1.5427146"><ele>159.0</ele><time>2026-04-02T13:46:06.551Z</time></trkpt><trkpt lat="49.8192205" lon="1.5426113"><ele>161.0</ele><time>2026-04-02T13:46:07.551Z</time></trkpt><trkpt lat="49.8192055" lon="1.5425127"><ele>163.0</ele><time>2026-04-02T13:46:08.55Z</time></trkpt><trkpt lat="49.8191886" lon="1.5424153"><ele>165.0</ele><time>2026-04-02T13:46:09.551Z</time></trkpt><trkpt lat="49.8191649" lon="1.542304"><ele>167.0</ele><time>2026-04-02T13:46:10.55Z</time></trkpt><trkpt lat="49.819134" lon="1.5421729"><ele>167.0</ele><time>2026-04-02T13:46:11.55Z</time></trkpt><trkpt lat="49.8190986" lon="1.5420497"><ele>167.0</ele><time>2026-04-02T13:46:12.55Z</time></trkpt><trkpt lat="49.8190563" lon="1.5419317"><ele>167.0</ele><time>2026-04-02T13:46:13.55Z</time></trkpt><trkpt lat="49.8190083" lon="1.5418118"><ele>167.0</ele><time>2026-04-02T13:46:14.549Z</time></trkpt><trkpt lat="49.8189553" lon="1.5416894"><ele>167.0</ele><time>2026-04-02T13:46:15.55Z</time></trkpt><trkpt lat="49.8188951" lon="1.5415646"><ele>166.2</ele><time>2026-04-02T13:46:16.549Z</time></trkpt><trkpt lat="49.8188319" lon="1.5414405"><ele>165.39999999999998</ele><time>2026-04-02T13:46:17.551Z</time></trkpt><trkpt lat="49.8187683" lon="1.5413208"><ele>164.60000000000002</ele><time>2026-04-02T13:46:18.55Z</time></trkpt><trkpt lat="49.818702" lon="1.541202"><ele>163.8</ele><time>2026-04-02T13:46:19.551Z</time></trkpt><trkpt lat="49.8186303" lon="1.541085"><ele>163.0</ele><time>2026-04-02T13:46:20.551Z</time></trkpt><trkpt lat="49.8185582" lon="1.5409678"><ele>162.60000000000002</ele><time>2026-04-02T13:46:21.55Z</time></trkpt><trkpt lat="49.8184862" lon="1.5408531"><ele>162.20000000000002</ele><time>2026-04-02T13:46:22.551Z</time></trkpt><trkpt lat="49.8184118" lon="1.5407444"><ele>161.8</ele><time>2026-04-02T13:46:23.55Z</time></trkpt><trkpt lat="49.8183334" lon="1.5406449"><ele>161.4</ele><time>2026-04-02T13:46:24.55Z</time></trkpt><trkpt lat="49.8182542" lon="1.540548"><ele>161.0</ele><time>2026-04-02T13:46:25.55Z</time></trkpt><trkpt lat="49.8181778" lon="1.5404599"><ele>161.4</ele><time>2026-04-02T13:46:26.549Z</time></trkpt><trkpt lat="49.8181152" lon="1.5403841"><ele>161.8</ele><time>2026-04-02T13:46:27.55Z</time></trkpt><trkpt lat="49.8180639" lon="1.5403183"><ele>162.20000000000002</ele><time>2026-04-02T13:46:28.551Z</time></trkpt><trkpt lat="49.8179876" lon="1.5402233"><ele>162.60000000000002</ele><time>2026-04-02T13:46:30.55Z</time></trkpt><trkpt lat="49.8179302" lon="1.5401503"><ele>163.0</ele><time>2026-04-02T13:46:32.549Z</time></trkpt><trkpt lat="49.817827" lon="1.5400043"><ele>163.0</ele><time>2026-04-02T13:46:34.55Z</time></trkpt><trkpt lat="49.8177638" lon="1.5399141"><ele>163.0</ele><time>2026-04-02T13:46:35.55Z</time></trkpt><trkpt lat="49.8176907" lon="1.5398096"><ele>163.0</ele><time>2026-04-02T13:46:36.55Z</time></trkpt><trkpt lat="49.8176157" lon="1.5397063"><ele>163.0</ele><time>2026-04-02T13:46:37.55Z</time></trkpt><trkpt lat="49.8175451" lon="1.5396122"><ele>163.0</ele><time>2026-04-02T13:46:38.549Z</time></trkpt><trkpt lat="49.8174776" lon="1.5395142"><ele>164.60000000000002</ele><time>2026-04-02T13:46:39.55Z</time></trkpt><trkpt lat="49.8174098" lon="1.5394089"><ele>166.20000000000002</ele><time>2026-04-02T13:46:40.551Z</time></trkpt><trkpt lat="49.8173384" lon="1.5392982"><ele>167.8</ele><time>2026-04-02T13:46:41.55Z</time></trkpt><trkpt lat="49.8172654" lon="1.5391905"><ele>169.4</ele><time>2026-04-02T13:46:42.551Z</time></trkpt><trkpt lat="49.8171932" lon="1.5390835"><ele>171.0</ele><time>2026-04-02T13:46:43.551Z</time></trkpt><trkpt lat="49.8171198" lon="1.5389788"><ele>171.0</ele><time>2026-04-02T13:46:44.55Z</time></trkpt><trkpt lat="49.8170485" lon="1.5388757"><ele>171.0</ele><time>2026-04-02T13:46:45.551Z</time></trkpt><trkpt lat="49.8169772" lon="1.5387748"><ele>171.0</ele><time>2026-04-02T13:46:46.551Z</time></trkpt><trkpt lat="49.8169059" lon="1.5386686"><ele>171.0</ele><time>2026-04-02T13:46:47.549Z</time></trkpt><trkpt lat="49.8168313" lon="1.5385562"><ele>171.0</ele><time>2026-04-02T13:46:48.55Z</time></trkpt><trkpt lat="49.8167573" lon="1.5384423"><ele>172.4</ele><time>2026-04-02T13:46:49.55Z</time></trkpt><trkpt lat="49.8166866" lon="1.5383383"><ele>173.8</ele><time>2026-04-02T13:46:50.55Z</time></trkpt><trkpt lat="49.81662" lon="1.5382396"><ele>175.20000000000002</ele><time>2026-04-02T13:46:51.55Z</time></trkpt><trkpt lat="49.816555" lon="1.5381396"><ele>176.60000000000002</ele><time>2026-04-02T13:46:52.551Z</time></trkpt><trkpt lat="49.8164915" lon="1.5380407"><ele>178.0</ele><time>2026-04-02T13:46:53.55Z</time></trkpt><trkpt lat="49.8164274" lon="1.5379415"><ele>176.8</ele><time>2026-04-02T13:46:54.551Z</time></trkpt><trkpt lat="49.8163652" lon="1.5378383"><ele>175.60000000000002</ele><time>2026-04-02T13:46:55.55Z</time></trkpt><trkpt lat="49.8163063" lon="1.537727"><ele>174.39999999999998</ele><time>2026-04-02T13:46:56.55Z</time></trkpt><trkpt lat="49.8162542" lon="1.5376078"><ele>173.2</ele><time>2026-04-02T13:46:57.55Z</time></trkpt><trkpt lat="49.816214" lon="1.5374829"><ele>172.0</ele><time>2026-04-02T13:46:58.549Z</time></trkpt><trkpt lat="49.8161719" lon="1.5373599"><ele>172.0</ele><time>2026-04-02T13:46:59.55Z</time></trkpt><trkpt lat="49.8161204" lon="1.5372441"><ele>172.0</ele><time>2026-04-02T13:47:00.55Z</time></trkpt><trkpt lat="49.8160583" lon="1.5371386"><ele>172.0</ele><time>2026-04-02T13:47:01.551Z</time></trkpt><trkpt lat="49.8159906" lon="1.5370381"><ele>172.0</ele><time>2026-04-02T13:47:02.55Z</time></trkpt><trkpt lat="49.815916" lon="1.5369257"><ele>172.0</ele><time>2026-04-02T13:47:03.55Z</time></trkpt><trkpt lat="49.8158342" lon="1.5368006"><ele>172.0</ele><time>2026-04-02T13:47:04.55Z</time></trkpt><trkpt lat="49.8157541" lon="1.5366814"><ele>172.0</ele><time>2026-04-02T13:47:05.55Z</time></trkpt><trkpt lat="49.8156754" lon="1.5365664"><ele>172.0</ele><time>2026-04-02T13:47:06.551Z</time></trkpt><trkpt lat="49.8155944" lon="1.5364485"><ele>172.0</ele><time>2026-04-02T13:47:07.55Z</time></trkpt><trkpt lat="49.8155119" lon="1.5363329"><ele>172.0</ele><time>2026-04-02T13:47:08.55Z</time></trkpt><trkpt lat="49.8154305" lon="1.5362162"><ele>172.0</ele><time>2026-04-02T13:47:09.551Z</time></trkpt><trkpt lat="49.815353" lon="1.5360994"><ele>172.0</ele><time>2026-04-02T13:47:10.55Z</time></trkpt><trkpt lat="49.8152707" lon="1.5359867"><ele>172.0</ele><time>2026-04-02T13:47:11.549Z</time></trkpt><trkpt lat="49.815187" lon="1.5358786"><ele>172.0</ele><time>2026-04-02T13:47:12.55Z</time></trkpt><trkpt lat="49.8151044" lon="1.5357707"><ele>172.0</ele><time>2026-04-02T13:47:13.551Z</time></trkpt><trkpt lat="49.8150264" lon="1.5356602"><ele>173.0</ele><time>2026-04-02T13:47:14.55Z</time></trkpt><trkpt lat="49.8149482" lon="1.5355482"><ele>174.0</ele><time>2026-04-02T13:47:15.55Z</time></trkpt><trkpt lat="49.8148655" lon="1.535436"><ele>175.0</ele><time>2026-04-02T13:47:16.55Z</time></trkpt><trkpt lat="49.8147881" lon="1.535323"><ele>176.0</ele><time>2026-04-02T13:47:17.55Z</time></trkpt><trkpt lat="49.8147169" lon="1.5352148"><ele>177.0</ele><time>2026-04-02T13:47:18.551Z</time></trkpt><trkpt lat="49.8146431" lon="1.5351077"><ele>177.0</ele><time>2026-04-02T13:47:19.55Z</time></trkpt><trkpt lat="49.8145692" lon="1.5349993"><ele>177.0</ele><time>2026-04-02T13:47:20.55Z</time></trkpt><trkpt lat="49.8145026" lon="1.5348882"><ele>177.0</ele><time>2026-04-02T13:47:21.55Z</time></trkpt><trkpt lat="49.8144407" lon="1.5347696"><ele>177.0</ele><time>2026-04-02T13:47:22.55Z</time></trkpt><trkpt lat="49.8143757" lon="1.5346537"><ele>177.0</ele><time>2026-04-02T13:47:23.549Z</time></trkpt><trkpt lat="49.8143052" lon="1.5345362"><ele>177.8</ele><time>2026-04-02T13:47:24.551Z</time></trkpt><trkpt lat="49.8142353" lon="1.5344207"><ele>178.6</ele><time>2026-04-02T13:47:25.55Z</time></trkpt><trkpt lat="49.8141661" lon="1.5343029"><ele>179.4</ele><time>2026-04-02T13:47:26.551Z</time></trkpt><trkpt lat="49.8140982" lon="1.5341761"><ele>180.20000000000002</ele><time>2026-04-02T13:47:27.55Z</time></trkpt><trkpt lat="49.814029" lon="1.5340549"><ele>181.0</ele><time>2026-04-02T13:47:28.549Z</time></trkpt><trkpt lat="49.8139641" lon="1.5339548"><ele>181.0</ele><time>2026-04-02T13:47:29.55Z</time></trkpt><trkpt lat="49.813916" lon="1.5338841"><ele>181.0</ele><time>2026-04-02T13:47:30.55Z</time></trkpt><trkpt lat="49.8138309" lon="1.533744"><ele>181.0</ele><time>2026-04-02T13:47:32.55Z</time></trkpt><trkpt lat="49.8137685" lon="1.5336568"><ele>181.0</ele><time>2026-04-02T13:47:33.55Z</time></trkpt><trkpt lat="49.8137033" lon="1.5335651"><ele>181.0</ele><time>2026-04-02T13:47:34.55Z</time></trkpt><trkpt lat="49.8136342" lon="1.5334573"><ele>181.0</ele><time>2026-04-02T13:47:35.549Z</time></trkpt><trkpt lat="49.8135623" lon="1.5333348"><ele>181.0</ele><time>2026-04-02T13:47:36.551Z</time></trkpt><trkpt lat="49.8134872" lon="1.5332082"><ele>181.0</ele><time>2026-04-02T13:47:37.55Z</time></trkpt><trkpt lat="49.8134128" lon="1.5330803"><ele>181.0</ele><time>2026-04-02T13:47:38.55Z</time></trkpt><trkpt lat="49.8133493" lon="1.5329457"><ele>181.0</ele><time>2026-04-02T13:47:39.55Z</time></trkpt><trkpt lat="49.8132903" lon="1.5328065"><ele>181.0</ele><time>2026-04-02T13:47:40.55Z</time></trkpt><trkpt lat="49.8132277" lon="1.5326597"><ele>181.0</ele><time>2026-04-02T13:47:41.55Z</time></trkpt><trkpt lat="49.8131611" lon="1.5325023"><ele>181.0</ele><time>2026-04-02T13:47:42.551Z</time></trkpt><trkpt lat="49.8130912" lon="1.5323431"><ele>181.0</ele><time>2026-04-02T13:47:43.55Z</time></trkpt><trkpt lat="49.8130233" lon="1.5321814"><ele>180.75</ele><time>2026-04-02T13:47:44.55Z</time></trkpt><trkpt lat="49.8129573" lon="1.5320157"><ele>180.5</ele><time>2026-04-02T13:47:45.55Z</time></trkpt><trkpt lat="49.8128931" lon="1.5318456"><ele>180.25</ele><time>2026-04-02T13:47:46.551Z</time></trkpt><trkpt lat="49.8128322" lon="1.5316659"><ele>180.0</ele><time>2026-04-02T13:47:47.55Z</time></trkpt><trkpt lat="49.8127746" lon="1.5314828"><ele>180.0</ele><time>2026-04-02T13:47:48.551Z</time></trkpt><trkpt lat="49.8127195" lon="1.5313037"><ele>180.0</ele><time>2026-04-02T13:47:49.549Z</time></trkpt><trkpt lat="49.812662" lon="1.5311257"><ele>180.0</ele><time>2026-04-02T13:47:50.55Z</time></trkpt><trkpt lat="49.8126053" lon="1.5309454"><ele>180.0</ele><time>2026-04-02T13:47:51.55Z</time></trkpt><trkpt lat="49.8125442" lon="1.5307618"><ele>180.75</ele><time>2026-04-02T13:47:52.55Z</time></trkpt><trkpt lat="49.8124822" lon="1.5305775"><ele>181.5</ele><time>2026-04-02T13:47:53.55Z</time></trkpt><trkpt lat="49.8124234" lon="1.5303958"><ele>182.25</ele><time>2026-04-02T13:47:54.55Z</time></trkpt><trkpt lat="49.8123725" lon="1.5302273"><ele>183.0</ele><time>2026-04-02T13:47:55.55Z</time></trkpt><trkpt lat="49.8123258" lon="1.5300737"><ele>183.0</ele><time>2026-04-02T13:47:56.551Z</time></trkpt><trkpt lat="49.8122747" lon="1.5299269"><ele>183.0</ele><time>2026-04-02T13:47:57.551Z</time></trkpt><trkpt lat="49.8122215" lon="1.529773"><ele>183.0</ele><time>2026-04-02T13:47:58.551Z</time></trkpt><trkpt lat="49.8121719" lon="1.529626"><ele>183.0</ele><time>2026-04-02T13:47:59.55Z</time></trkpt><trkpt lat="49.8121248" lon="1.529483"><ele>183.0</ele><time>2026-04-02T13:48:00.55Z</time></trkpt><trkpt lat="49.8120848" lon="1.5293482"><ele>183.16666666666666</ele><time>2026-04-02T13:48:01.55Z</time></trkpt><trkpt lat="49.8120507" lon="1.5292365"><ele>183.33333333333334</ele><time>2026-04-02T13:48:02.551Z</time></trkpt><trkpt lat="49.8120199" lon="1.5291412"><ele>183.5</ele><time>2026-04-02T13:48:03.55Z</time></trkpt><trkpt lat="49.8119685" lon="1.5290056"><ele>183.66666666666669</ele><time>2026-04-02T13:48:05.551Z</time></trkpt><trkpt lat="49.8119291" lon="1.5289176"><ele>183.83333333333334</ele><time>2026-04-02T13:48:14.55Z</time></trkpt><trkpt lat="49.8118877" lon="1.5288426"><ele>184.0</ele><time>2026-04-02T13:48:24.55Z</time></trkpt><trkpt lat="49.8118486" lon="1.5286859"><ele>185.0</ele><time>2026-04-02T13:48:27.551Z</time></trkpt><trkpt lat="49.811795" lon="1.5285279"><ele>186.0</ele><time>2026-04-02T13:48:29.55Z</time></trkpt><trkpt lat="49.8117643" lon="1.5284418"><ele>187.0</ele><time>2026-04-02T13:48:30.55Z</time></trkpt><trkpt lat="49.8117328" lon="1.5283496"><ele>188.0</ele><time>2026-04-02T13:48:31.55Z</time></trkpt><trkpt lat="49.8117031" lon="1.5282514"><ele>189.0</ele><time>2026-04-02T13:48:32.549Z</time></trkpt><trkpt lat="49.8116703" lon="1.5281559"><ele>190.0</ele><time>2026-04-02T13:48:33.55Z</time></trkpt><trkpt lat="49.8116396" lon="1.5280693"><ele>190.0</ele><time>2026-04-02T13:48:34.55Z</time></trkpt><trkpt lat="49.8115947" lon="1.5279175"><ele>190.0</ele><time>2026-04-02T13:48:36.551Z</time></trkpt><trkpt lat="49.8115431" lon="1.527791"><ele>190.0</ele><time>2026-04-02T13:48:38.55Z</time></trkpt><trkpt lat="49.8115006" lon="1.5276855"><ele>190.0</ele><time>2026-04-02T13:48:40.55Z</time></trkpt><trkpt lat="49.8114627" lon="1.5275894"><ele>190.0</ele><time>2026-04-02T13:48:44.55Z</time></trkpt><trkpt lat="49.8114171" lon="1.5274552"><ele>190.16666666666669</ele><time>2026-04-02T13:48:47.55Z</time></trkpt><trkpt lat="49.8113797" lon="1.5273512"><ele>190.33333333333334</ele><time>2026-04-02T13:48:49.551Z</time></trkpt><trkpt lat="49.8113359" lon="1.5272378"><ele>190.5</ele><time>2026-04-02T13:48:51.551Z</time></trkpt><trkpt lat="49.8112893" lon="1.5271385"><ele>190.66666666666666</ele><time>2026-04-02T13:48:54.551Z</time></trkpt><trkpt lat="49.8112428" lon="1.5270565"><ele>190.83333333333331</ele><time>2026-04-02T13:48:59.551Z</time></trkpt><trkpt lat="49.8111777" lon="1.5269503"><ele>191.0</ele><time>2026-04-02T13:49:01.551Z</time></trkpt><trkpt lat="49.8111358" lon="1.526856"><ele>191.4</ele><time>2026-04-02T13:49:06.551Z</time></trkpt><trkpt lat="49.8110737" lon="1.5267264"><ele>191.8</ele><time>2026-04-02T13:49:08.551Z</time></trkpt><trkpt lat="49.8109986" lon="1.5265665"><ele>192.20000000000002</ele><time>2026-04-02T13:49:10.551Z</time></trkpt><trkpt lat="49.8109509" lon="1.5264829"><ele>192.60000000000002</ele><time>2026-04-02T13:49:11.552Z</time></trkpt><trkpt lat="49.8109001" lon="1.5264015"><ele>193.0</ele><time>2026-04-02T13:49:12.551Z</time></trkpt><trkpt lat="49.8108164" lon="1.5262682"><ele>192.2</ele><time>2026-04-02T13:49:13.976Z</time></trkpt><trkpt lat="49.8107171" lon="1.5261227"><ele>191.4</ele><time>2026-04-02T13:49:15.551Z</time></trkpt><trkpt lat="49.810655" lon="1.5260338"><ele>190.6</ele><time>2026-04-02T13:49:16.551Z</time></trkpt><trkpt lat="49.8105955" lon="1.5259471"><ele>189.79999999999998</ele><time>2026-04-02T13:49:17.551Z</time></trkpt><trkpt lat="49.8105461" lon="1.5258734"><ele>189.0</ele><time>2026-04-02T13:49:18.552Z</time></trkpt><trkpt lat="49.8104725" lon="1.5257735"><ele>189.0</ele><time>2026-04-02T13:49:20.551Z</time></trkpt><trkpt lat="49.810386" lon="1.5257324"><ele>189.0</ele><time>2026-04-02T13:49:22.551Z</time></trkpt><trkpt lat="49.8102559" lon="1.5257518"><ele>189.0</ele><time>2026-04-02T13:49:24.551Z</time></trkpt><trkpt lat="49.8101749" lon="1.5257497"><ele>189.0</ele><time>2026-04-02T13:49:25.551Z</time></trkpt><trkpt lat="49.810094" lon="1.5257049"><ele>189.0</ele><time>2026-04-02T13:49:26.55Z</time></trkpt><trkpt lat="49.8100106" lon="1.5256599"><ele>189.66666666666666</ele><time>2026-04-02T13:49:27.551Z</time></trkpt><trkpt lat="49.8099336" lon="1.5256016"><ele>190.33333333333331</ele><time>2026-04-02T13:49:28.551Z</time></trkpt><trkpt lat="49.8098645" lon="1.5255413"><ele>191.0</ele><time>2026-04-02T13:49:29.55Z</time></trkpt><trkpt lat="49.8097976" lon="1.5254864"><ele>191.66666666666666</ele><time>2026-04-02T13:49:30.552Z</time></trkpt><trkpt lat="49.8097339" lon="1.5254225"><ele>192.33333333333331</ele><time>2026-04-02T13:49:31.551Z</time></trkpt><trkpt lat="49.8096705" lon="1.5253795"><ele>193.0</ele><time>2026-04-02T13:49:32.551Z</time></trkpt><trkpt lat="49.8096142" lon="1.5253289"><ele>193.0</ele><time>2026-04-02T13:49:33.552Z</time></trkpt><trkpt lat="49.8095147" lon="1.5252543"><ele>193.0</ele><time>2026-04-02T13:49:35.552Z</time></trkpt><trkpt lat="49.8094275" lon="1.5252017"><ele>193.0</ele><time>2026-04-02T13:49:37.55Z</time></trkpt><trkpt lat="49.8093392" lon="1.5251908"><ele>193.0</ele><time>2026-04-02T13:49:39.551Z</time></trkpt><trkpt lat="49.8092672" lon="1.5251847"><ele>193.0</ele><time>2026-04-02T13:49:41.552Z</time></trkpt><trkpt lat="49.8091752" lon="1.5251968"><ele>193.99999999999997</ele><time>2026-04-02T13:49:44.551Z</time></trkpt><trkpt lat="49.8090968" lon="1.5251954"><ele>195.0</ele><time>2026-04-02T13:49:46.55Z</time></trkpt><trkpt lat="49.8090187" lon="1.5252049"><ele>196.0</ele><time>2026-04-02T13:49:48.552Z</time></trkpt><trkpt lat="49.8089476" lon="1.5252164"><ele>197.0</ele><time>2026-04-02T13:49:51.552Z</time></trkpt><trkpt lat="49.809028" lon="1.5251639"><ele>197.99999999999997</ele><time>2026-04-02T13:49:57.551Z</time></trkpt><trkpt lat="49.8091132" lon="1.5251705"><ele>199.0</ele><time>2026-04-02T13:50:00.551Z</time></trkpt><trkpt lat="49.8091995" lon="1.5251701"><ele>198.99999999999997</ele><time>2026-04-02T13:50:03.552Z</time></trkpt><trkpt lat="49.8092671" lon="1.5251426"><ele>199.0</ele><time>2026-04-02T13:50:12.552Z</time></trkpt><trkpt lat="49.8093626" lon="1.5251475"><ele>199.0</ele><time>2026-04-02T13:50:14.551Z</time></trkpt><trkpt lat="49.8094801" lon="1.5251924"><ele>199.0</ele><time>2026-04-02T13:50:16.551Z</time></trkpt><trkpt lat="49.8095378" lon="1.5252399"><ele>198.99999999999997</ele><time>2026-04-02T13:50:18.552Z</time></trkpt><trkpt lat="49.8096114" lon="1.5253093"><ele>199.0</ele><time>2026-04-02T13:50:22.551Z</time></trkpt><trkpt lat="49.8097338" lon="1.5254154"><ele>199.6</ele><time>2026-04-02T13:50:24.551Z</time></trkpt><trkpt lat="49.8098115" lon="1.5254911"><ele>200.2</ele><time>2026-04-02T13:50:25.552Z</time></trkpt><trkpt lat="49.8098955" lon="1.5255663"><ele>200.79999999999998</ele><time>2026-04-02T13:50:26.551Z</time></trkpt><trkpt lat="49.8099851" lon="1.5256363"><ele>201.39999999999998</ele><time>2026-04-02T13:50:27.551Z</time></trkpt><trkpt lat="49.8100756" lon="1.5257005"><ele>202.0</ele><time>2026-04-02T13:50:28.551Z</time></trkpt><trkpt lat="49.8101538" lon="1.5257273"><ele>199.83333333333331</ele><time>2026-04-02T13:50:29.552Z</time></trkpt><trkpt lat="49.8102319" lon="1.5257371"><ele>197.66666666666666</ele><time>2026-04-02T13:50:30.551Z</time></trkpt><trkpt lat="49.8102966" lon="1.5257094"><ele>195.5</ele><time>2026-04-02T13:50:31.552Z</time></trkpt><trkpt lat="49.810361" lon="1.5257099"><ele>193.33333333333331</ele><time>2026-04-02T13:50:32.551Z</time></trkpt><trkpt lat="49.8104647" lon="1.5257821"><ele>191.16666666666666</ele><time>2026-04-02T13:50:34.551Z</time></trkpt><trkpt lat="49.8105132" lon="1.5258507"><ele>189.0</ele><time>2026-04-02T13:50:35.551Z</time></trkpt><trkpt lat="49.8105768" lon="1.5259393"><ele>189.0</ele><time>2026-04-02T13:50:36.551Z</time></trkpt><trkpt lat="49.8106509" lon="1.5260464"><ele>189.0</ele><time>2026-04-02T13:50:37.552Z</time></trkpt><trkpt lat="49.810732" lon="1.5261701"><ele>189.0</ele><time>2026-04-02T13:50:38.551Z</time></trkpt><trkpt lat="49.8108218" lon="1.526297"><ele>189.0</ele><time>2026-04-02T13:50:39.551Z</time></trkpt><trkpt lat="49.8109071" lon="1.5264208"><ele>188.79999999999998</ele><time>2026-04-02T13:50:40.552Z</time></trkpt><trkpt lat="49.81099" lon="1.5265445"><ele>188.6</ele><time>2026-04-02T13:50:41.551Z</time></trkpt><trkpt lat="49.8110606" lon="1.5266798"><ele>188.4</ele><time>2026-04-02T13:50:42.551Z</time></trkpt><trkpt lat="49.8111152" lon="1.5268106"><ele>188.2</ele><time>2026-04-02T13:50:43.551Z</time></trkpt><trkpt lat="49.8111644" lon="1.5269217"><ele>188.0</ele><time>2026-04-02T13:50:44.551Z</time></trkpt><trkpt lat="49.8112061" lon="1.5270062"><ele>188.0</ele><time>2026-04-02T13:50:45.552Z</time></trkpt><trkpt lat="49.8113168" lon="1.5270406"><ele>188.0</ele><time>2026-04-02T13:50:47.551Z</time></trkpt><trkpt lat="49.8113843" lon="1.5269795"><ele>188.0</ele><time>2026-04-02T13:50:48.552Z</time></trkpt><trkpt lat="49.8114508" lon="1.5268799"><ele>188.0</ele><time>2026-04-02T13:50:49.551Z</time></trkpt><trkpt lat="49.8115234" lon="1.5267641"><ele>188.0</ele><time>2026-04-02T13:50:50.551Z</time></trkpt><trkpt lat="49.8116058" lon="1.526646"><ele>188.0</ele><time>2026-04-02T13:50:51.551Z</time></trkpt><trkpt lat="49.8116845" lon="1.5265314"><ele>188.0</ele><time>2026-04-02T13:50:52.551Z</time></trkpt><trkpt lat="49.8117555" lon="1.526414"><ele>188.0</ele><time>2026-04-02T13:50:53.551Z</time></trkpt><trkpt lat="49.8118265" lon="1.5262896"><ele>188.0</ele><time>2026-04-02T13:50:54.551Z</time></trkpt><trkpt lat="49.8119002" lon="1.5261739"><ele>188.0</ele><time>2026-04-02T13:50:55.551Z</time></trkpt><trkpt lat="49.8119656" lon="1.5260642"><ele>190.0</ele><time>2026-04-02T13:50:56.551Z</time></trkpt><trkpt lat="49.8120235" lon="1.5259588"><ele>192.0</ele><time>2026-04-02T13:50:57.551Z</time></trkpt><trkpt lat="49.8120769" lon="1.52586"><ele>194.0</ele><time>2026-04-02T13:50:58.551Z</time></trkpt><trkpt lat="49.8121227" lon="1.5257666"><ele>196.0</ele><time>2026-04-02T13:50:59.552Z</time></trkpt><trkpt lat="49.8121625" lon="1.5256738"><ele>198.00000000000003</ele><time>2026-04-02T13:51:00.551Z</time></trkpt><trkpt lat="49.8121942" lon="1.5255794"><ele>200.0</ele><time>2026-04-02T13:51:01.552Z</time></trkpt><trkpt lat="49.8122256" lon="1.5254789"><ele>200.33333333333334</ele><time>2026-04-02T13:51:02.551Z</time></trkpt><trkpt lat="49.8122655" lon="1.5253825"><ele>200.66666666666669</ele><time>2026-04-02T13:51:03.551Z</time></trkpt><trkpt lat="49.8123195" lon="1.525295"><ele>201.0</ele><time>2026-04-02T13:51:04.551Z</time></trkpt><trkpt lat="49.8123769" lon="1.5252068"><ele>201.33333333333331</ele><time>2026-04-02T13:51:05.551Z</time></trkpt><trkpt lat="49.8124289" lon="1.5251086"><ele>201.66666666666666</ele><time>2026-04-02T13:51:06.551Z</time></trkpt><trkpt lat="49.8124741" lon="1.5249927"><ele>202.0</ele><time>2026-04-02T13:51:07.552Z</time></trkpt><trkpt lat="49.8125045" lon="1.5248688"><ele>201.99999999999997</ele><time>2026-04-02T13:51:08.552Z</time></trkpt><trkpt lat="49.8125263" lon="1.5247482"><ele>202.0</ele><time>2026-04-02T13:51:09.551Z</time></trkpt><trkpt lat="49.8125466" lon="1.5246275"><ele>202.0</ele><time>2026-04-02T13:51:10.55Z</time></trkpt><trkpt lat="49.8125674" lon="1.5245085"><ele>202.0</ele><time>2026-04-02T13:51:11.551Z</time></trkpt><trkpt lat="49.8125899" lon="1.5243882"><ele>201.99999999999997</ele><time>2026-04-02T13:51:12.551Z</time></trkpt><trkpt lat="49.8126168" lon="1.5242614"><ele>202.0</ele><time>2026-04-02T13:51:13.551Z</time></trkpt><trkpt lat="49.8126559" lon="1.524124"><ele>204.2</ele><time>2026-04-02T13:51:14.551Z</time></trkpt><trkpt lat="49.812699" lon="1.5239796"><ele>206.39999999999998</ele><time>2026-04-02T13:51:15.551Z</time></trkpt><trkpt lat="49.8127431" lon="1.5238323"><ele>208.60000000000002</ele><time>2026-04-02T13:51:16.55Z</time></trkpt><trkpt lat="49.8127945" lon="1.5236799"><ele>210.8</ele><time>2026-04-02T13:51:17.551Z</time></trkpt><trkpt lat="49.812852" lon="1.5235222"><ele>213.0</ele><time>2026-04-02T13:51:18.551Z</time></trkpt><trkpt lat="49.8129076" lon="1.5233652"><ele>213.16666666666666</ele><time>2026-04-02T13:51:19.551Z</time></trkpt><trkpt lat="49.8129575" lon="1.5232243"><ele>213.33333333333331</ele><time>2026-04-02T13:51:20.55Z</time></trkpt><trkpt lat="49.8130059" lon="1.5230959"><ele>213.5</ele><time>2026-04-02T13:51:21.552Z</time></trkpt><trkpt lat="49.8130521" lon="1.5229771"><ele>213.66666666666666</ele><time>2026-04-02T13:51:22.551Z</time></trkpt><trkpt lat="49.813096" lon="1.5228724"><ele>213.83333333333331</ele><time>2026-04-02T13:51:23.551Z</time></trkpt><trkpt lat="49.8131368" lon="1.5227737"><ele>214.0</ele><time>2026-04-02T13:51:24.55Z</time></trkpt><trkpt lat="49.8131772" lon="1.5226747"><ele>214.83333333333331</ele><time>2026-04-02T13:51:25.552Z</time></trkpt><trkpt lat="49.8132093" lon="1.5225739"><ele>215.66666666666666</ele><time>2026-04-02T13:51:26.551Z</time></trkpt><trkpt lat="49.8132349" lon="1.5224697"><ele>216.5</ele><time>2026-04-02T13:51:27.551Z</time></trkpt><trkpt lat="49.8132647" lon="1.5223562"><ele>217.33333333333331</ele><time>2026-04-02T13:51:28.551Z</time></trkpt><trkpt lat="49.8133036" lon="1.5222366"><ele>218.16666666666666</ele><time>2026-04-02T13:51:29.552Z</time></trkpt><trkpt lat="49.8133485" lon="1.5221276"><ele>219.0</ele><time>2026-04-02T13:51:30.551Z</time></trkpt><trkpt lat="49.813389" lon="1.522028"><ele>219.79999999999998</ele><time>2026-04-02T13:51:31.551Z</time></trkpt><trkpt lat="49.8134412" lon="1.5219137"><ele>220.59999999999997</ele><time>2026-04-02T13:51:33.55Z</time></trkpt><trkpt lat="49.8134358" lon="1.5217871"><ele>221.4</ele><time>2026-04-02T13:51:37.552Z</time></trkpt><trkpt lat="49.8133589" lon="1.5217322"><ele>222.2</ele><time>2026-04-02T13:51:39.551Z</time></trkpt><trkpt lat="49.8132383" lon="1.5216752"><ele>223.0</ele><time>2026-04-02T13:51:41.552Z</time></trkpt><trkpt lat="49.8131506" lon="1.5216316"><ele>223.0</ele><time>2026-04-02T13:51:42.55Z</time></trkpt><trkpt lat="49.8130595" lon="1.5215856"><ele>223.0</ele><time>2026-04-02T13:51:43.55Z</time></trkpt><trkpt lat="49.812958" lon="1.5215365"><ele>223.0</ele><time>2026-04-02T13:51:44.551Z</time></trkpt><trkpt lat="49.8128487" lon="1.5214827"><ele>223.0</ele><time>2026-04-02T13:51:45.551Z</time></trkpt><trkpt lat="49.8127327" lon="1.5214271"><ele>223.0</ele><time>2026-04-02T13:51:46.551Z</time></trkpt><trkpt lat="49.812619" lon="1.5213661"><ele>222.75</ele><time>2026-04-02T13:51:47.551Z</time></trkpt><trkpt lat="49.8125017" lon="1.5213099"><ele>222.5</ele><time>2026-04-02T13:51:48.552Z</time></trkpt><trkpt lat="49.8123872" lon="1.5212535"><ele>222.25</ele><time>2026-04-02T13:51:49.551Z</time></trkpt><trkpt lat="49.8122691" lon="1.5212005"><ele>222.0</ele><time>2026-04-02T13:51:50.552Z</time></trkpt><trkpt lat="49.8121491" lon="1.5211429"><ele>222.0</ele><time>2026-04-02T13:51:51.551Z</time></trkpt><trkpt lat="49.8120292" lon="1.5210849"><ele>222.0</ele><time>2026-04-02T13:51:52.552Z</time></trkpt><trkpt lat="49.8119058" lon="1.5210264"><ele>222.0</ele><time>2026-04-02T13:51:53.551Z</time></trkpt><trkpt lat="49.8117787" lon="1.5209664"><ele>222.0</ele><time>2026-04-02T13:51:54.551Z</time></trkpt><trkpt lat="49.811643" lon="1.5209039"><ele>222.0</ele><time>2026-04-02T13:51:55.55Z</time></trkpt><trkpt lat="49.8115128" lon="1.5208392"><ele>222.0</ele><time>2026-04-02T13:51:56.551Z</time></trkpt><trkpt lat="49.8113773" lon="1.5207759"><ele>222.0</ele><time>2026-04-02T13:51:57.552Z</time></trkpt><trkpt lat="49.8112416" lon="1.5207082"><ele>222.0</ele><time>2026-04-02T13:51:58.551Z</time></trkpt><trkpt lat="49.8111044" lon="1.5206385"><ele>221.75</ele><time>2026-04-02T13:51:59.551Z</time></trkpt><trkpt lat="49.8109649" lon="1.5205708"><ele>221.5</ele><time>2026-04-02T13:52:00.551Z</time></trkpt><trkpt lat="49.8108262" lon="1.5205012"><ele>221.25</ele><time>2026-04-02T13:52:01.551Z</time></trkpt><trkpt lat="49.8106876" lon="1.5204311"><ele>221.0</ele><time>2026-04-02T13:52:02.551Z</time></trkpt><trkpt lat="49.8105485" lon="1.5203641"><ele>221.0</ele><time>2026-04-02T13:52:03.55Z</time></trkpt><trkpt lat="49.8104073" lon="1.5202973"><ele>221.0</ele><time>2026-04-02T13:52:04.551Z</time></trkpt><trkpt lat="49.8102709" lon="1.5202337"><ele>221.0</ele><time>2026-04-02T13:52:05.551Z</time></trkpt><trkpt lat="49.8101349" lon="1.5201678"><ele>221.0</ele><time>2026-04-02T13:52:06.552Z</time></trkpt><trkpt lat="49.8100013" lon="1.5201047"><ele>221.0</ele><time>2026-04-02T13:52:07.551Z</time></trkpt><trkpt lat="49.8098686" lon="1.5200432"><ele>221.0</ele><time>2026-04-02T13:52:08.551Z</time></trkpt><trkpt lat="49.8097293" lon="1.519978"><ele>221.0</ele><time>2026-04-02T13:52:09.551Z</time></trkpt><trkpt lat="49.8095905" lon="1.5199116"><ele>221.0</ele><time>2026-04-02T13:52:10.552Z</time></trkpt><trkpt lat="49.8094555" lon="1.5198437"><ele>220.5</ele><time>2026-04-02T13:52:11.552Z</time></trkpt><trkpt lat="49.8093191" lon="1.5197804"><ele>220.0</ele><time>2026-04-02T13:52:12.551Z</time></trkpt><trkpt lat="49.8091849" lon="1.5197143"><ele>219.5</ele><time>2026-04-02T13:52:13.551Z</time></trkpt><trkpt lat="49.8090499" lon="1.5196466"><ele>219.0</ele><time>2026-04-02T13:52:14.551Z</time></trkpt><trkpt lat="49.8089159" lon="1.5195801"><ele>219.66666666666669</ele><time>2026-04-02T13:52:15.552Z</time></trkpt><trkpt lat="49.8087748" lon="1.5195113"><ele>220.33333333333334</ele><time>2026-04-02T13:52:16.551Z</time></trkpt><trkpt lat="49.8086313" lon="1.5194416"><ele>221.0</ele><time>2026-04-02T13:52:17.551Z</time></trkpt><trkpt lat="49.8084875" lon="1.5193664"><ele>221.0</ele><time>2026-04-02T13:52:18.551Z</time></trkpt><trkpt lat="49.8083445" lon="1.5192971"><ele>221.0</ele><time>2026-04-02T13:52:19.551Z</time></trkpt><trkpt lat="49.808203" lon="1.5192258"><ele>221.0</ele><time>2026-04-02T13:52:20.551Z</time></trkpt><trkpt lat="49.8080623" lon="1.5191583"><ele>221.0</ele><time>2026-04-02T13:52:21.551Z</time></trkpt><trkpt lat="49.8079172" lon="1.5190884"><ele>221.0</ele><time>2026-04-02T13:52:22.551Z</time></trkpt><trkpt lat="49.8077728" lon="1.5190198"><ele>221.0</ele><time>2026-04-02T13:52:23.551Z</time></trkpt><trkpt lat="49.8076226" lon="1.5189523"><ele>221.0</ele><time>2026-04-02T13:52:24.55Z</time></trkpt><trkpt lat="49.8074639" lon="1.5188752"><ele>220.33333333333334</ele><time>2026-04-02T13:52:25.552Z</time></trkpt><trkpt lat="49.8073016" lon="1.5187955"><ele>219.66666666666669</ele><time>2026-04-02T13:52:26.552Z</time></trkpt><trkpt lat="49.807137" lon="1.5187136"><ele>219.0</ele><time>2026-04-02T13:52:27.552Z</time></trkpt><trkpt lat="49.8069747" lon="1.5186349"><ele>218.33333333333331</ele><time>2026-04-02T13:52:28.55Z</time></trkpt><trkpt lat="49.8068164" lon="1.51856"><ele>217.66666666666666</ele><time>2026-04-02T13:52:29.551Z</time></trkpt><trkpt lat="49.8066606" lon="1.5184831"><ele>217.0</ele><time>2026-04-02T13:52:30.551Z</time></trkpt><trkpt lat="49.8065017" lon="1.5184014"><ele>217.0</ele><time>2026-04-02T13:52:31.551Z</time></trkpt><trkpt lat="49.8063449" lon="1.5183244"><ele>217.0</ele><time>2026-04-02T13:52:32.551Z</time></trkpt><trkpt lat="49.8061891" lon="1.5182451"><ele>217.0</ele><time>2026-04-02T13:52:33.551Z</time></trkpt><trkpt lat="49.8060376" lon="1.5181665"><ele>216.66666666666666</ele><time>2026-04-02T13:52:34.551Z</time></trkpt><trkpt lat="49.8058888" lon="1.518095"><ele>216.33333333333331</ele><time>2026-04-02T13:52:35.551Z</time></trkpt><trkpt lat="49.8057439" lon="1.5180251"><ele>216.0</ele><time>2026-04-02T13:52:36.551Z</time></trkpt><trkpt lat="49.8056066" lon="1.5179579"><ele>216.0</ele><time>2026-04-02T13:52:37.551Z</time></trkpt><trkpt lat="49.8054813" lon="1.5178975"><ele>216.00000000000003</ele><time>2026-04-02T13:52:38.551Z</time></trkpt><trkpt lat="49.8053691" lon="1.5178408"><ele>216.00000000000003</ele><time>2026-04-02T13:52:39.551Z</time></trkpt><trkpt lat="49.8052711" lon="1.5177931"><ele>216.0</ele><time>2026-04-02T13:52:40.552Z</time></trkpt><trkpt lat="49.8051891" lon="1.5177641"><ele>216.0</ele><time>2026-04-02T13:52:41.55Z</time></trkpt><trkpt lat="49.805121" lon="1.5177828"><ele>216.0</ele><time>2026-04-02T13:52:42.551Z</time></trkpt><trkpt lat="49.8050708" lon="1.5178546"><ele>216.00000000000003</ele><time>2026-04-02T13:52:43.551Z</time></trkpt><trkpt lat="49.805032" lon="1.5179739"><ele>216.00000000000003</ele><time>2026-04-02T13:52:44.551Z</time></trkpt><trkpt lat="49.8049952" lon="1.5181214"><ele>216.0</ele><time>2026-04-02T13:52:45.551Z</time></trkpt><trkpt lat="49.8049538" lon="1.5182898"><ele>216.0</ele><time>2026-04-02T13:52:46.55Z</time></trkpt><trkpt lat="49.8049088" lon="1.5184822"><ele>216.0</ele><time>2026-04-02T13:52:47.552Z</time></trkpt><trkpt lat="49.8048647" lon="1.5186809"><ele>216.0</ele><time>2026-04-02T13:52:48.551Z</time></trkpt><trkpt lat="49.8048145" lon="1.5188973"><ele>216.0</ele><time>2026-04-02T13:52:49.551Z</time></trkpt><trkpt lat="49.8047648" lon="1.5191187"><ele>216.0</ele><time>2026-04-02T13:52:50.551Z</time></trkpt><trkpt lat="49.8047156" lon="1.5193385"><ele>217.0</ele><time>2026-04-02T13:52:51.551Z</time></trkpt><trkpt lat="49.8046522" lon="1.5195729"><ele>218.0</ele><time>2026-04-02T13:52:52.552Z</time></trkpt><trkpt lat="49.8045984" lon="1.5198012"><ele>219.0</ele><time>2026-04-02T13:52:53.552Z</time></trkpt><trkpt lat="49.804544" lon="1.5200249"><ele>219.0</ele><time>2026-04-02T13:52:54.551Z</time></trkpt><trkpt lat="49.8044874" lon="1.5202443"><ele>219.0</ele><time>2026-04-02T13:52:55.55Z</time></trkpt><trkpt lat="49.8044326" lon="1.5204598"><ele>219.0</ele><time>2026-04-02T13:52:56.552Z</time></trkpt><trkpt lat="49.8043809" lon="1.5206784"><ele>219.5</ele><time>2026-04-02T13:52:57.551Z</time></trkpt><trkpt lat="49.8043341" lon="1.5208941"><ele>220.0</ele><time>2026-04-02T13:52:58.55Z</time></trkpt><trkpt lat="49.8042891" lon="1.5211034"><ele>220.5</ele><time>2026-04-02T13:52:59.551Z</time></trkpt><trkpt lat="49.8042448" lon="1.5213185"><ele>221.0</ele><time>2026-04-02T13:53:00.55Z</time></trkpt><trkpt lat="49.804196" lon="1.5215398"><ele>221.66666666666669</ele><time>2026-04-02T13:53:01.551Z</time></trkpt><trkpt lat="49.8041502" lon="1.521761"><ele>222.33333333333331</ele><time>2026-04-02T13:53:02.551Z</time></trkpt><trkpt lat="49.8041065" lon="1.5219953"><ele>223.0</ele><time>2026-04-02T13:53:03.552Z</time></trkpt><trkpt lat="49.804073" lon="1.522233"><ele>223.0</ele><time>2026-04-02T13:53:04.552Z</time></trkpt><trkpt lat="49.8040484" lon="1.5224732"><ele>223.0</ele><time>2026-04-02T13:53:05.552Z</time></trkpt><trkpt lat="49.8040237" lon="1.5227174"><ele>223.0</ele><time>2026-04-02T13:53:06.552Z</time></trkpt><trkpt lat="49.8039998" lon="1.52296"><ele>223.0</ele><time>2026-04-02T13:53:07.551Z</time></trkpt><trkpt lat="49.8039768" lon="1.523199"><ele>223.0</ele><time>2026-04-02T13:53:08.55Z</time></trkpt><trkpt lat="49.8039657" lon="1.5234394"><ele>223.0</ele><time>2026-04-02T13:53:09.551Z</time></trkpt><trkpt lat="49.8039547" lon="1.5236777"><ele>222.66666666666666</ele><time>2026-04-02T13:53:10.552Z</time></trkpt><trkpt lat="49.803949" lon="1.523918"><ele>222.33333333333331</ele><time>2026-04-02T13:53:11.551Z</time></trkpt><trkpt lat="49.8039433" lon="1.5241654"><ele>222.0</ele><time>2026-04-02T13:53:12.551Z</time></trkpt><trkpt lat="49.8039388" lon="1.5244022"><ele>220.66666666666669</ele><time>2026-04-02T13:53:13.552Z</time></trkpt><trkpt lat="49.8039334" lon="1.524639"><ele>219.33333333333334</ele><time>2026-04-02T13:53:14.551Z</time></trkpt><trkpt lat="49.8039261" lon="1.5248728"><ele>218.0</ele><time>2026-04-02T13:53:15.55Z</time></trkpt><trkpt lat="49.8039222" lon="1.5251028"><ele>218.0</ele><time>2026-04-02T13:53:16.552Z</time></trkpt><trkpt lat="49.8039193" lon="1.5253367"><ele>218.0</ele><time>2026-04-02T13:53:17.55Z</time></trkpt><trkpt lat="49.8039169" lon="1.5255603"><ele>218.0</ele><time>2026-04-02T13:53:18.55Z</time></trkpt><trkpt lat="49.8039128" lon="1.5257837"><ele>218.0</ele><time>2026-04-02T13:53:19.55Z</time></trkpt><trkpt lat="49.8039106" lon="1.526013"><ele>217.5</ele><time>2026-04-02T13:53:20.552Z</time></trkpt><trkpt lat="49.8039048" lon="1.5262361"><ele>217.0</ele><time>2026-04-02T13:53:21.551Z</time></trkpt><trkpt lat="49.8039018" lon="1.5264533"><ele>216.5</ele><time>2026-04-02T13:53:22.55Z</time></trkpt><trkpt lat="49.8038946" lon="1.5266702"><ele>216.0</ele><time>2026-04-02T13:53:23.552Z</time></trkpt><trkpt lat="49.8038892" lon="1.5268866"><ele>216.75</ele><time>2026-04-02T13:53:24.552Z</time></trkpt><trkpt lat="49.8038813" lon="1.5271026"><ele>217.5</ele><time>2026-04-02T13:53:25.551Z</time></trkpt><trkpt lat="49.8038722" lon="1.5273238"><ele>218.25</ele><time>2026-04-02T13:53:26.551Z</time></trkpt><trkpt lat="49.803863" lon="1.5275374"><ele>219.0</ele><time>2026-04-02T13:53:27.551Z</time></trkpt><trkpt lat="49.8038531" lon="1.5277461"><ele>221.0</ele><time>2026-04-02T13:53:28.551Z</time></trkpt><trkpt lat="49.8038436" lon="1.5279493"><ele>223.0</ele><time>2026-04-02T13:53:29.551Z</time></trkpt><trkpt lat="49.8038293" lon="1.5281334"><ele>225.0</ele><time>2026-04-02T13:53:30.551Z</time></trkpt><trkpt lat="49.8038042" lon="1.5283"><ele>227.0</ele><time>2026-04-02T13:53:31.552Z</time></trkpt><trkpt lat="49.8037625" lon="1.5284409"><ele>227.0</ele><time>2026-04-02T13:53:32.552Z</time></trkpt><trkpt lat="49.8037233" lon="1.5285557"><ele>227.00000000000003</ele><time>2026-04-02T13:53:33.552Z</time></trkpt><trkpt lat="49.8036797" lon="1.5286548"><ele>227.0</ele><time>2026-04-02T13:53:34.551Z</time></trkpt><trkpt lat="49.8036335" lon="1.5287319"><ele>227.0</ele><time>2026-04-02T13:53:35.551Z</time></trkpt><trkpt lat="49.8035881" lon="1.5288067"><ele>227.00000000000003</ele><time>2026-04-02T13:53:36.552Z</time></trkpt><trkpt lat="49.8035434" lon="1.5288783"><ele>227.0</ele><time>2026-04-02T13:53:37.551Z</time></trkpt><trkpt lat="49.803485" lon="1.5289206"><ele>227.0</ele><time>2026-04-02T13:53:38.551Z</time></trkpt><trkpt lat="49.8034235" lon="1.5289863"><ele>227.0</ele><time>2026-04-02T13:53:41.55Z</time></trkpt><trkpt lat="49.8035117" lon="1.5289767"><ele>227.0</ele><time>2026-04-02T13:53:44.55Z</time></trkpt><trkpt lat="49.8036575" lon="1.5288254"><ele>227.0</ele><time>2026-04-02T13:53:46.55Z</time></trkpt><trkpt lat="49.8037666" lon="1.5287471"><ele>227.0</ele><time>2026-04-02T13:53:47.551Z</time></trkpt><trkpt lat="49.803867" lon="1.52871"><ele>227.0</ele><time>2026-04-02T13:53:48.551Z</time></trkpt><trkpt lat="49.8039509" lon="1.5286612"><ele>227.0</ele><time>2026-04-02T13:53:49.552Z</time></trkpt><trkpt lat="49.8040391" lon="1.528604"><ele>227.0</ele><time>2026-04-02T13:53:50.55Z</time></trkpt><trkpt lat="49.804135" lon="1.5285347"><ele>227.0</ele><time>2026-04-02T13:53:51.552Z</time></trkpt><trkpt lat="49.8042324" lon="1.5284704"><ele>227.0</ele><time>2026-04-02T13:53:52.551Z</time></trkpt><trkpt lat="49.8043275" lon="1.5284091"><ele>226.2</ele><time>2026-04-02T13:53:53.551Z</time></trkpt><trkpt lat="49.8044281" lon="1.5283498"><ele>225.39999999999998</ele><time>2026-04-02T13:53:54.55Z</time></trkpt><trkpt lat="49.8045256" lon="1.5282965"><ele>224.60000000000002</ele><time>2026-04-02T13:53:55.551Z</time></trkpt><trkpt lat="49.804614" lon="1.5282432"><ele>223.8</ele><time>2026-04-02T13:53:56.552Z</time></trkpt><trkpt lat="49.8046938" lon="1.5282087"><ele>223.0</ele><time>2026-04-02T13:53:57.551Z</time></trkpt><trkpt lat="49.8047742" lon="1.5281989"><ele>222.99999999999997</ele><time>2026-04-02T13:53:58.552Z</time></trkpt><trkpt lat="49.8048571" lon="1.5282018"><ele>223.0</ele><time>2026-04-02T13:53:59.551Z</time></trkpt><trkpt lat="49.8049396" lon="1.5282272"><ele>223.0</ele><time>2026-04-02T13:54:00.551Z</time></trkpt><trkpt lat="49.8050242" lon="1.5282556"><ele>223.0</ele><time>2026-04-02T13:54:01.551Z</time></trkpt><trkpt lat="49.8051112" lon="1.5282904"><ele>222.99999999999997</ele><time>2026-04-02T13:54:02.552Z</time></trkpt><trkpt lat="49.8051945" lon="1.5283298"><ele>223.0</ele><time>2026-04-02T13:54:03.552Z</time></trkpt><trkpt lat="49.8052767" lon="1.5283727"><ele>222.83333333333331</ele><time>2026-04-02T13:54:04.551Z</time></trkpt><trkpt lat="49.8053589" lon="1.5284051"><ele>222.66666666666666</ele><time>2026-04-02T13:54:05.551Z</time></trkpt><trkpt lat="49.8054431" lon="1.528414"><ele>222.5</ele><time>2026-04-02T13:54:06.551Z</time></trkpt><trkpt lat="49.8055284" lon="1.5284136"><ele>222.33333333333331</ele><time>2026-04-02T13:54:07.551Z</time></trkpt><trkpt lat="49.8056125" lon="1.5284013"><ele>222.16666666666666</ele><time>2026-04-02T13:54:08.551Z</time></trkpt><trkpt lat="49.8056951" lon="1.5283668"><ele>222.0</ele><time>2026-04-02T13:54:09.551Z</time></trkpt><trkpt lat="49.8057788" lon="1.5283077"><ele>222.0</ele><time>2026-04-02T13:54:10.55Z</time></trkpt><trkpt lat="49.8058629" lon="1.528225"><ele>222.0</ele><time>2026-04-02T13:54:11.552Z</time></trkpt><trkpt lat="49.8059499" lon="1.5281428"><ele>222.0</ele><time>2026-04-02T13:54:12.55Z</time></trkpt><trkpt lat="49.8060364" lon="1.5280545"><ele>222.0</ele><time>2026-04-02T13:54:13.551Z</time></trkpt><trkpt lat="49.8061226" lon="1.5279661"><ele>222.0</ele><time>2026-04-02T13:54:14.552Z</time></trkpt><trkpt lat="49.8062091" lon="1.527886"><ele>221.33333333333334</ele><time>2026-04-02T13:54:15.551Z</time></trkpt><trkpt lat="49.8062935" lon="1.5278074"><ele>220.66666666666669</ele><time>2026-04-02T13:54:16.55Z</time></trkpt><trkpt lat="49.8063733" lon="1.5277442"><ele>220.0</ele><time>2026-04-02T13:54:17.552Z</time></trkpt><trkpt lat="49.8064512" lon="1.5276917"><ele>219.33333333333334</ele><time>2026-04-02T13:54:18.551Z</time></trkpt><trkpt lat="49.8065218" lon="1.5276555"><ele>218.66666666666669</ele><time>2026-04-02T13:54:19.551Z</time></trkpt><trkpt lat="49.8065858" lon="1.5276308"><ele>218.0</ele><time>2026-04-02T13:54:20.551Z</time></trkpt><trkpt lat="49.8066473" lon="1.5276089"><ele>218.00000000000003</ele><time>2026-04-02T13:54:21.552Z</time></trkpt><trkpt lat="49.806708" lon="1.5275757"><ele>218.0</ele><time>2026-04-02T13:54:22.551Z</time></trkpt><trkpt lat="49.8067986" lon="1.5275003"><ele>218.0</ele><time>2026-04-02T13:54:24.551Z</time></trkpt><trkpt lat="49.8068587" lon="1.5274495"><ele>218.0</ele><time>2026-04-02T13:54:26.551Z</time></trkpt><trkpt lat="49.8067926" lon="1.5274931"><ele>218.00000000000003</ele><time>2026-04-02T13:54:36.552Z</time></trkpt><trkpt lat="49.8067268" lon="1.5275564"><ele>218.0</ele><time>2026-04-02T13:54:39.551Z</time></trkpt><trkpt lat="49.8066219" lon="1.5276052"><ele>218.00000000000003</ele><time>2026-04-02T13:54:46.552Z</time></trkpt><trkpt lat="49.8065576" lon="1.5276178"><ele>218.0</ele><time>2026-04-02T13:54:48.552Z</time></trkpt><trkpt lat="49.8064689" lon="1.5276625"><ele>218.0</ele><time>2026-04-02T13:54:55.552Z</time></trkpt><trkpt lat="49.8064059" lon="1.5277015"><ele>218.0</ele><time>2026-04-02T13:54:56.552Z</time></trkpt><trkpt lat="49.8063364" lon="1.5277522"><ele>218.00000000000003</ele><time>2026-04-02T13:54:57.552Z</time></trkpt><trkpt lat="49.8062527" lon="1.5278187"><ele>218.0</ele><time>2026-04-02T13:54:58.551Z</time></trkpt><trkpt lat="49.8061688" lon="1.5279005"><ele>218.8</ele><time>2026-04-02T13:54:59.552Z</time></trkpt><trkpt lat="49.8060845" lon="1.5279783"><ele>219.60000000000002</ele><time>2026-04-02T13:55:00.552Z</time></trkpt><trkpt lat="49.8060016" lon="1.528053"><ele>220.39999999999998</ele><time>2026-04-02T13:55:01.553Z</time></trkpt><trkpt lat="49.8059237" lon="1.5281371"><ele>221.2</ele><time>2026-04-02T13:55:02.553Z</time></trkpt><trkpt lat="49.8058491" lon="1.5282177"><ele>222.0</ele><time>2026-04-02T13:55:03.552Z</time></trkpt><trkpt lat="49.8057713" lon="1.5282903"><ele>222.0</ele><time>2026-04-02T13:55:04.552Z</time></trkpt><trkpt lat="49.8056933" lon="1.5283473"><ele>222.0</ele><time>2026-04-02T13:55:05.553Z</time></trkpt><trkpt lat="49.8056145" lon="1.5283815"><ele>222.0</ele><time>2026-04-02T13:55:06.552Z</time></trkpt><trkpt lat="49.8055322" lon="1.5283926"><ele>222.0</ele><time>2026-04-02T13:55:07.552Z</time></trkpt><trkpt lat="49.8054404" lon="1.5283952"><ele>222.0</ele><time>2026-04-02T13:55:08.551Z</time></trkpt><trkpt lat="49.8053446" lon="1.5283724"><ele>222.0</ele><time>2026-04-02T13:55:09.552Z</time></trkpt><trkpt lat="49.8052404" lon="1.5283378"><ele>222.2</ele><time>2026-04-02T13:55:10.552Z</time></trkpt><trkpt lat="49.8051344" lon="1.5282962"><ele>222.39999999999998</ele><time>2026-04-02T13:55:11.552Z</time></trkpt><trkpt lat="49.8050327" lon="1.528251"><ele>222.60000000000002</ele><time>2026-04-02T13:55:12.552Z</time></trkpt><trkpt lat="49.8049371" lon="1.528213"><ele>222.8</ele><time>2026-04-02T13:55:13.552Z</time></trkpt><trkpt lat="49.8048488" lon="1.5281925"><ele>223.0</ele><time>2026-04-02T13:55:14.552Z</time></trkpt><trkpt lat="49.8047553" lon="1.5281934"><ele>223.0</ele><time>2026-04-02T13:55:15.552Z</time></trkpt><trkpt lat="49.804647" lon="1.5282243"><ele>223.0</ele><time>2026-04-02T13:55:16.553Z</time></trkpt><trkpt lat="49.8045339" lon="1.5282736"><ele>223.0</ele><time>2026-04-02T13:55:17.552Z</time></trkpt><trkpt lat="49.8044113" lon="1.5283422"><ele>223.0</ele><time>2026-04-02T13:55:18.553Z</time></trkpt><trkpt lat="49.8042817" lon="1.52842"><ele>224.0</ele><time>2026-04-02T13:55:19.552Z</time></trkpt><trkpt lat="49.8041611" lon="1.5284972"><ele>225.0</ele><time>2026-04-02T13:55:20.552Z</time></trkpt><trkpt lat="49.8040475" lon="1.5285605"><ele>226.0</ele><time>2026-04-02T13:55:21.552Z</time></trkpt><trkpt lat="49.8039452" lon="1.5286227"><ele>227.0</ele><time>2026-04-02T13:55:22.552Z</time></trkpt><trkpt lat="49.8038595" lon="1.5286726"><ele>227.00000000000003</ele><time>2026-04-02T13:55:23.552Z</time></trkpt><trkpt lat="49.8037994" lon="1.528705"><ele>227.0</ele><time>2026-04-02T13:55:24.552Z</time></trkpt><trkpt lat="49.8037108" lon="1.5287387"><ele>227.0</ele><time>2026-04-02T13:55:26.552Z</time></trkpt><trkpt lat="49.803644" lon="1.5287903"><ele>227.0</ele><time>2026-04-02T13:55:27.551Z</time></trkpt><trkpt lat="49.8035845" lon="1.528836"><ele>227.00000000000003</ele><time>2026-04-02T13:55:28.552Z</time></trkpt><trkpt lat="49.8035061" lon="1.5288786"><ele>227.0</ele><time>2026-04-02T13:55:29.552Z</time></trkpt><trkpt lat="49.8034108" lon="1.5290308"><ele>227.75</ele><time>2026-04-02T13:55:30.552Z</time></trkpt><trkpt lat="49.8032801" lon="1.5291451"><ele>228.5</ele><time>2026-04-02T13:55:31.552Z</time></trkpt><trkpt lat="49.80317" lon="1.529259"><ele>229.25</ele><time>2026-04-02T13:55:32.552Z</time></trkpt><trkpt lat="49.8030383" lon="1.529377"><ele>230.0</ele><time>2026-04-02T13:55:33.553Z</time></trkpt><trkpt lat="49.8028989" lon="1.5295202"><ele>231.0</ele><time>2026-04-02T13:55:34.552Z</time></trkpt><trkpt lat="49.8027441" lon="1.5296661"><ele>232.0</ele><time>2026-04-02T13:55:35.551Z</time></trkpt><trkpt lat="49.8026025" lon="1.5297929"><ele>233.0</ele><time>2026-04-02T13:55:36.552Z</time></trkpt><trkpt lat="49.8024559" lon="1.5299345"><ele>230.33333333333334</ele><time>2026-04-02T13:55:37.552Z</time></trkpt><trkpt lat="49.8023155" lon="1.5300686"><ele>227.66666666666669</ele><time>2026-04-02T13:55:38.552Z</time></trkpt><trkpt lat="49.8021847" lon="1.5301915"><ele>225.0</ele><time>2026-04-02T13:55:39.552Z</time></trkpt><trkpt lat="49.802064" lon="1.5303076"><ele>224.8</ele><time>2026-04-02T13:55:40.552Z</time></trkpt><trkpt lat="49.8019565" lon="1.530418"><ele>224.6</ele><time>2026-04-02T13:55:41.552Z</time></trkpt><trkpt lat="49.8018612" lon="1.5305195"><ele>224.39999999999998</ele><time>2026-04-02T13:55:42.552Z</time></trkpt><trkpt lat="49.8017834" lon="1.5305925"><ele>224.2</ele><time>2026-04-02T13:55:43.553Z</time></trkpt><trkpt lat="49.8017207" lon="1.5306454"><ele>224.0</ele><time>2026-04-02T13:55:44.552Z</time></trkpt><trkpt lat="49.801634" lon="1.5307319"><ele>224.0</ele><time>2026-04-02T13:55:46.552Z</time></trkpt><trkpt lat="49.8015391" lon="1.5308274"><ele>223.99999999999997</ele><time>2026-04-02T13:55:48.552Z</time></trkpt><trkpt lat="49.8014733" lon="1.5308813"><ele>223.99999999999997</ele><time>2026-04-02T13:55:49.552Z</time></trkpt><trkpt lat="49.8013913" lon="1.5309512"><ele>224.0</ele><time>2026-04-02T13:55:50.552Z</time></trkpt><trkpt lat="49.8013084" lon="1.5310305"><ele>224.0</ele><time>2026-04-02T13:55:51.552Z</time></trkpt><trkpt lat="49.8011916" lon="1.5311072"><ele>224.0</ele><time>2026-04-02T13:55:52.553Z</time></trkpt><trkpt lat="49.8010738" lon="1.5311873"><ele>224.0</ele><time>2026-04-02T13:55:53.553Z</time></trkpt><trkpt lat="49.8009541" lon="1.5312644"><ele>224.0</ele><time>2026-04-02T13:55:54.551Z</time></trkpt><trkpt lat="49.8008324" lon="1.5313325"><ele>224.0</ele><time>2026-04-02T13:55:55.552Z</time></trkpt><trkpt lat="49.8007015" lon="1.531401"><ele>224.25</ele><time>2026-04-02T13:55:56.552Z</time></trkpt><trkpt lat="49.8005678" lon="1.5314721"><ele>224.5</ele><time>2026-04-02T13:55:57.552Z</time></trkpt><trkpt lat="49.8004254" lon="1.5315327"><ele>224.75</ele><time>2026-04-02T13:55:58.552Z</time></trkpt><trkpt lat="49.8002919" lon="1.5315755"><ele>225.0</ele><time>2026-04-02T13:55:59.552Z</time></trkpt><trkpt lat="49.8001735" lon="1.5316166"><ele>224.83333333333334</ele><time>2026-04-02T13:56:00.552Z</time></trkpt><trkpt lat="49.8000674" lon="1.5316483"><ele>224.66666666666669</ele><time>2026-04-02T13:56:01.552Z</time></trkpt><trkpt lat="49.7999754" lon="1.5316725"><ele>224.5</ele><time>2026-04-02T13:56:02.552Z</time></trkpt><trkpt lat="49.799896" lon="1.5316976"><ele>224.33333333333334</ele><time>2026-04-02T13:56:03.551Z</time></trkpt><trkpt lat="49.7998267" lon="1.5317026"><ele>224.16666666666669</ele><time>2026-04-02T13:56:04.553Z</time></trkpt><trkpt lat="49.7997514" lon="1.5317086"><ele>224.0</ele><time>2026-04-02T13:56:06.553Z</time></trkpt><trkpt lat="49.7996657" lon="1.5318246"><ele>224.0</ele><time>2026-04-02T13:56:43.553Z</time></trkpt><trkpt lat="49.7995788" lon="1.5318658"><ele>224.0</ele><time>2026-04-02T13:56:44.552Z</time></trkpt><trkpt lat="49.7995052" lon="1.5318939"><ele>224.0</ele><time>2026-04-02T13:56:45.552Z</time></trkpt><trkpt lat="49.7993348" lon="1.5319322"><ele>224.0</ele><time>2026-04-02T13:56:46.552Z</time></trkpt><trkpt lat="49.7991979" lon="1.531977"><ele>224.0</ele><time>2026-04-02T13:56:47.552Z</time></trkpt><trkpt lat="49.7990529" lon="1.5320267"><ele>224.0</ele><time>2026-04-02T13:56:48.552Z</time></trkpt><trkpt lat="49.7989065" lon="1.532081"><ele>224.0</ele><time>2026-04-02T13:56:49.552Z</time></trkpt><trkpt lat="49.7987457" lon="1.5321385"><ele>225.33333333333334</ele><time>2026-04-02T13:56:50.552Z</time></trkpt><trkpt lat="49.7985776" lon="1.5321988"><ele>226.66666666666669</ele><time>2026-04-02T13:56:51.553Z</time></trkpt><trkpt lat="49.7984081" lon="1.5322538"><ele>228.0</ele><time>2026-04-02T13:56:52.552Z</time></trkpt><trkpt lat="49.7982338" lon="1.5323021"><ele>228.0</ele><time>2026-04-02T13:56:53.553Z</time></trkpt><trkpt lat="49.7980651" lon="1.5323585"><ele>228.0</ele><time>2026-04-02T13:56:54.551Z</time></trkpt><trkpt lat="49.7979035" lon="1.5324095"><ele>228.0</ele><time>2026-04-02T13:56:55.553Z</time></trkpt><trkpt lat="49.7977421" lon="1.5324657"><ele>227.0</ele><time>2026-04-02T13:56:56.551Z</time></trkpt><trkpt lat="49.7975819" lon="1.5325232"><ele>226.0</ele><time>2026-04-02T13:56:57.552Z</time></trkpt><trkpt lat="49.7974297" lon="1.5325765"><ele>225.0</ele><time>2026-04-02T13:56:58.552Z</time></trkpt><trkpt lat="49.7972889" lon="1.5326268"><ele>225.0</ele><time>2026-04-02T13:56:59.553Z</time></trkpt><trkpt lat="49.7971624" lon="1.5326662"><ele>225.0</ele><time>2026-04-02T13:57:00.552Z</time></trkpt><trkpt lat="49.797048" lon="1.5327055"><ele>225.0</ele><time>2026-04-02T13:57:01.553Z</time></trkpt><trkpt lat="49.7969424" lon="1.5327397"><ele>225.0</ele><time>2026-04-02T13:57:02.552Z</time></trkpt><trkpt lat="49.7968451" lon="1.5327721"><ele>225.33333333333334</ele><time>2026-04-02T13:57:03.552Z</time></trkpt><trkpt lat="49.7967566" lon="1.5328008"><ele>225.66666666666669</ele><time>2026-04-02T13:57:04.552Z</time></trkpt><trkpt lat="49.7966793" lon="1.5328276"><ele>226.0</ele><time>2026-04-02T13:57:05.552Z</time></trkpt><trkpt lat="49.7966167" lon="1.5328488"><ele>226.33333333333334</ele><time>2026-04-02T13:57:06.553Z</time></trkpt><trkpt lat="49.7965225" lon="1.5328744"><ele>226.66666666666669</ele><time>2026-04-02T13:57:08.552Z</time></trkpt><trkpt lat="49.7964433" lon="1.5329055"><ele>227.0</ele><time>2026-04-02T13:57:10.553Z</time></trkpt><trkpt lat="49.7963334" lon="1.5329474"><ele>228.39999999999998</ele><time>2026-04-02T13:57:12.551Z</time></trkpt><trkpt lat="49.7962507" lon="1.5329714"><ele>229.79999999999998</ele><time>2026-04-02T13:57:13.552Z</time></trkpt><trkpt lat="49.796166" lon="1.5330157"><ele>231.2</ele><time>2026-04-02T13:57:14.553Z</time></trkpt><trkpt lat="49.7960507" lon="1.533057"><ele>232.6</ele><time>2026-04-02T13:57:15.551Z</time></trkpt><trkpt lat="49.7959284" lon="1.5331011"><ele>234.0</ele><time>2026-04-02T13:57:16.552Z</time></trkpt><trkpt lat="49.7957884" lon="1.5331456"><ele>236.0</ele><time>2026-04-02T13:57:17.552Z</time></trkpt><trkpt lat="49.7956469" lon="1.5332019"><ele>238.0</ele><time>2026-04-02T13:57:18.552Z</time></trkpt><trkpt lat="49.7954585" lon="1.5332569"><ele>240.0</ele><time>2026-04-02T13:57:19.552Z</time></trkpt><trkpt lat="49.7952934" lon="1.5333166"><ele>242.0</ele><time>2026-04-02T13:57:20.552Z</time></trkpt><trkpt lat="49.7951243" lon="1.5333666"><ele>244.0</ele><time>2026-04-02T13:57:21.552Z</time></trkpt><trkpt lat="49.7949389" lon="1.533421"><ele>246.0</ele><time>2026-04-02T13:57:22.551Z</time></trkpt><trkpt lat="49.7947749" lon="1.5334892"><ele>246.0</ele><time>2026-04-02T13:57:23.552Z</time></trkpt><trkpt lat="49.7945982" lon="1.5335487"><ele>246.0</ele><time>2026-04-02T13:57:24.552Z</time></trkpt><trkpt lat="49.7944039" lon="1.5336121"><ele>246.0</ele><time>2026-04-02T13:57:25.552Z</time></trkpt><trkpt lat="49.7942287" lon="1.5336648"><ele>245.33333333333331</ele><time>2026-04-02T13:57:26.551Z</time></trkpt><trkpt lat="49.7940474" lon="1.5337408"><ele>244.66666666666666</ele><time>2026-04-02T13:57:27.553Z</time></trkpt><trkpt lat="49.7938728" lon="1.5338283"><ele>244.0</ele><time>2026-04-02T13:57:28.551Z</time></trkpt><trkpt lat="49.793701" lon="1.5338535"><ele>244.0</ele><time>2026-04-02T13:57:29.552Z</time></trkpt><trkpt lat="49.7935637" lon="1.5339141"><ele>244.0</ele><time>2026-04-02T13:57:30.551Z</time></trkpt><trkpt lat="49.793383" lon="1.5339736"><ele>244.0</ele><time>2026-04-02T13:57:31.552Z</time></trkpt><trkpt lat="49.7932221" lon="1.5340132"><ele>243.33333333333331</ele><time>2026-04-02T13:57:32.552Z</time></trkpt><trkpt lat="49.7930753" lon="1.5340667"><ele>242.66666666666669</ele><time>2026-04-02T13:57:33.552Z</time></trkpt><trkpt lat="49.7929258" lon="1.5341176"><ele>242.0</ele><time>2026-04-02T13:57:34.552Z</time></trkpt><trkpt lat="49.7927537" lon="1.5341687"><ele>242.66666666666669</ele><time>2026-04-02T13:57:35.553Z</time></trkpt><trkpt lat="49.7925865" lon="1.5342186"><ele>243.33333333333331</ele><time>2026-04-02T13:57:36.552Z</time></trkpt><trkpt lat="49.7924154" lon="1.5342809"><ele>244.0</ele><time>2026-04-02T13:57:37.553Z</time></trkpt><trkpt lat="49.7922431" lon="1.5343335"><ele>244.0</ele><time>2026-04-02T13:57:38.553Z</time></trkpt><trkpt lat="49.7920732" lon="1.5343959"><ele>244.0</ele><time>2026-04-02T13:57:39.552Z</time></trkpt><trkpt lat="49.7919103" lon="1.5344439"><ele>244.0</ele><time>2026-04-02T13:57:40.552Z</time></trkpt><trkpt lat="49.7917403" lon="1.5345068"><ele>243.66666666666666</ele><time>2026-04-02T13:57:41.552Z</time></trkpt><trkpt lat="49.7915648" lon="1.5345788"><ele>243.33333333333331</ele><time>2026-04-02T13:57:42.552Z</time></trkpt><trkpt lat="49.7913828" lon="1.5346491"><ele>243.0</ele><time>2026-04-02T13:57:43.552Z</time></trkpt><trkpt lat="49.7912046" lon="1.534703"><ele>243.0</ele><time>2026-04-02T13:57:44.553Z</time></trkpt><trkpt lat="49.7910367" lon="1.5347736"><ele>243.0</ele><time>2026-04-02T13:57:45.552Z</time></trkpt><trkpt lat="49.7908536" lon="1.5348197"><ele>243.0</ele><time>2026-04-02T13:57:46.553Z</time></trkpt><trkpt lat="49.7906782" lon="1.5348875"><ele>243.33333333333331</ele><time>2026-04-02T13:57:47.553Z</time></trkpt><trkpt lat="49.7905196" lon="1.5349526"><ele>243.66666666666666</ele><time>2026-04-02T13:57:48.551Z</time></trkpt><trkpt lat="49.7903501" lon="1.534996"><ele>244.0</ele><time>2026-04-02T13:57:49.552Z</time></trkpt><trkpt lat="49.7901827" lon="1.5350585"><ele>244.33333333333331</ele><time>2026-04-02T13:57:50.552Z</time></trkpt><trkpt lat="49.7900149" lon="1.5351166"><ele>244.66666666666669</ele><time>2026-04-02T13:57:51.552Z</time></trkpt><trkpt lat="49.7898692" lon="1.5351748"><ele>245.0</ele><time>2026-04-02T13:57:52.552Z</time></trkpt><trkpt lat="49.7897325" lon="1.5352193"><ele>245.0</ele><time>2026-04-02T13:57:53.552Z</time></trkpt><trkpt lat="49.7896055" lon="1.5352733"><ele>245.0</ele><time>2026-04-02T13:57:54.552Z</time></trkpt><trkpt lat="49.7894637" lon="1.5353333"><ele>245.0</ele><time>2026-04-02T13:57:55.552Z</time></trkpt><trkpt lat="49.7893221" lon="1.5353649"><ele>245.0</ele><time>2026-04-02T13:57:56.553Z</time></trkpt><trkpt lat="49.7891699" lon="1.53541"><ele>243.66666666666669</ele><time>2026-04-02T13:57:57.553Z</time></trkpt><trkpt lat="49.7890195" lon="1.5354834"><ele>242.33333333333331</ele><time>2026-04-02T13:57:58.552Z</time></trkpt><trkpt lat="49.7888679" lon="1.5355256"><ele>241.0</ele><time>2026-04-02T13:57:59.553Z</time></trkpt><trkpt lat="49.7886823" lon="1.5355727"><ele>240.66666666666666</ele><time>2026-04-02T13:58:00.552Z</time></trkpt><trkpt lat="49.7885041" lon="1.5356429"><ele>240.33333333333331</ele><time>2026-04-02T13:58:01.552Z</time></trkpt><trkpt lat="49.7883217" lon="1.5357113"><ele>240.0</ele><time>2026-04-02T13:58:02.551Z</time></trkpt><trkpt lat="49.7881382" lon="1.5357525"><ele>240.0</ele><time>2026-04-02T13:58:03.552Z</time></trkpt><trkpt lat="49.7879612" lon="1.5358147"><ele>240.0</ele><time>2026-04-02T13:58:04.551Z</time></trkpt><trkpt lat="49.78777" lon="1.5358921"><ele>240.0</ele><time>2026-04-02T13:58:05.552Z</time></trkpt><trkpt lat="49.7875895" lon="1.5359596"><ele>239.66666666666669</ele><time>2026-04-02T13:58:06.552Z</time></trkpt><trkpt lat="49.7874005" lon="1.5360408"><ele>239.33333333333334</ele><time>2026-04-02T13:58:07.553Z</time></trkpt><trkpt lat="49.7872103" lon="1.5360997"><ele>239.0</ele><time>2026-04-02T13:58:08.552Z</time></trkpt><trkpt lat="49.7870131" lon="1.536185"><ele>239.33333333333334</ele><time>2026-04-02T13:58:09.552Z</time></trkpt><trkpt lat="49.7868243" lon="1.5362616"><ele>239.66666666666669</ele><time>2026-04-02T13:58:10.552Z</time></trkpt><trkpt lat="49.7866256" lon="1.5363515"><ele>240.0</ele><time>2026-04-02T13:58:11.553Z</time></trkpt><trkpt lat="49.7864257" lon="1.5364083"><ele>240.0</ele><time>2026-04-02T13:58:12.552Z</time></trkpt><trkpt lat="49.786223" lon="1.53648"><ele>240.0</ele><time>2026-04-02T13:58:13.552Z</time></trkpt><trkpt lat="49.7860131" lon="1.5365648"><ele>240.0</ele><time>2026-04-02T13:58:14.552Z</time></trkpt><trkpt lat="49.7858146" lon="1.5366369"><ele>240.33333333333331</ele><time>2026-04-02T13:58:15.552Z</time></trkpt><trkpt lat="49.785608" lon="1.5366655"><ele>240.66666666666666</ele><time>2026-04-02T13:58:16.552Z</time></trkpt><trkpt lat="49.7854117" lon="1.5367159"><ele>241.0</ele><time>2026-04-02T13:58:17.552Z</time></trkpt><trkpt lat="49.7851955" lon="1.5367866"><ele>240.66666666666666</ele><time>2026-04-02T13:58:18.552Z</time></trkpt><trkpt lat="49.7850297" lon="1.5368566"><ele>240.33333333333331</ele><time>2026-04-02T13:58:19.552Z</time></trkpt><trkpt lat="49.7848408" lon="1.5369196"><ele>240.0</ele><time>2026-04-02T13:58:20.553Z</time></trkpt><trkpt lat="49.7846598" lon="1.5369883"><ele>240.0</ele><time>2026-04-02T13:58:21.552Z</time></trkpt><trkpt lat="49.7844717" lon="1.5370524"><ele>240.0</ele><time>2026-04-02T13:58:22.552Z</time></trkpt><trkpt lat="49.7842876" lon="1.5370898"><ele>240.0</ele><time>2026-04-02T13:58:23.553Z</time></trkpt><trkpt lat="49.7841073" lon="1.5371464"><ele>241.0</ele><time>2026-04-02T13:58:24.552Z</time></trkpt><trkpt lat="49.7839301" lon="1.5372009"><ele>242.0</ele><time>2026-04-02T13:58:25.552Z</time></trkpt><trkpt lat="49.7837515" lon="1.5372596"><ele>243.0</ele><time>2026-04-02T13:58:26.552Z</time></trkpt><trkpt lat="49.783584" lon="1.5373174"><ele>243.0</ele><time>2026-04-02T13:58:27.552Z</time></trkpt><trkpt lat="49.7834194" lon="1.5373697"><ele>243.0</ele><time>2026-04-02T13:58:28.552Z</time></trkpt><trkpt lat="49.7832575" lon="1.5374306"><ele>243.0</ele><time>2026-04-02T13:58:29.552Z</time></trkpt><trkpt lat="49.7830949" lon="1.5374857"><ele>243.0</ele><time>2026-04-02T13:58:30.552Z</time></trkpt><trkpt lat="49.7829427" lon="1.5375338"><ele>243.0</ele><time>2026-04-02T13:58:31.551Z</time></trkpt><trkpt lat="49.7828082" lon="1.5375788"><ele>243.0</ele><time>2026-04-02T13:58:32.551Z</time></trkpt><trkpt lat="49.7826877" lon="1.5376237"><ele>243.0</ele><time>2026-04-02T13:58:33.552Z</time></trkpt><trkpt lat="49.7825829" lon="1.5376576"><ele>241.83333333333334</ele><time>2026-04-02T13:58:34.552Z</time></trkpt><trkpt lat="49.7825039" lon="1.5376877"><ele>240.66666666666669</ele><time>2026-04-02T13:58:35.552Z</time></trkpt><trkpt lat="49.7824323" lon="1.5376773"><ele>239.5</ele><time>2026-04-02T13:58:36.552Z</time></trkpt><trkpt lat="49.7823759" lon="1.537611"><ele>238.33333333333334</ele><time>2026-04-02T13:58:37.552Z</time></trkpt><trkpt lat="49.7823145" lon="1.5374916"><ele>237.16666666666669</ele><time>2026-04-02T13:58:38.552Z</time></trkpt><trkpt lat="49.7822682" lon="1.5373466"><ele>236.0</ele><time>2026-04-02T13:58:39.552Z</time></trkpt><trkpt lat="49.7822246" lon="1.5371755"><ele>236.0</ele><time>2026-04-02T13:58:40.552Z</time></trkpt><trkpt lat="49.7821808" lon="1.5369853"><ele>236.0</ele><time>2026-04-02T13:58:41.552Z</time></trkpt><trkpt lat="49.782132" lon="1.5367847"><ele>236.0</ele><time>2026-04-02T13:58:42.553Z</time></trkpt><trkpt lat="49.7820828" lon="1.5365677"><ele>236.0</ele><time>2026-04-02T13:58:43.552Z</time></trkpt><trkpt lat="49.782028" lon="1.5363423"><ele>235.66666666666669</ele><time>2026-04-02T13:58:44.551Z</time></trkpt><trkpt lat="49.7819738" lon="1.5361102"><ele>235.33333333333331</ele><time>2026-04-02T13:58:45.552Z</time></trkpt><trkpt lat="49.7819213" lon="1.5358682"><ele>235.0</ele><time>2026-04-02T13:58:46.552Z</time></trkpt><trkpt lat="49.7818659" lon="1.5356324"><ele>233.33333333333331</ele><time>2026-04-02T13:58:47.552Z</time></trkpt><trkpt lat="49.7818126" lon="1.5354092"><ele>231.66666666666669</ele><time>2026-04-02T13:58:48.553Z</time></trkpt><trkpt lat="49.7817599" lon="1.5351942"><ele>230.0</ele><time>2026-04-02T13:58:49.552Z</time></trkpt><trkpt lat="49.7817093" lon="1.5349766"><ele>230.0</ele><time>2026-04-02T13:58:50.553Z</time></trkpt><trkpt lat="49.7816559" lon="1.5347562"><ele>230.0</ele><time>2026-04-02T13:58:51.552Z</time></trkpt><trkpt lat="49.7816002" lon="1.5345241"><ele>230.0</ele><time>2026-04-02T13:58:52.552Z</time></trkpt><trkpt lat="49.781547" lon="1.5342952"><ele>230.0</ele><time>2026-04-02T13:58:53.552Z</time></trkpt><trkpt lat="49.7814937" lon="1.53407"><ele>230.0</ele><time>2026-04-02T13:58:54.552Z</time></trkpt><trkpt lat="49.7814407" lon="1.5338522"><ele>230.0</ele><time>2026-04-02T13:58:55.552Z</time></trkpt><trkpt lat="49.7813911" lon="1.5336393"><ele>229.75</ele><time>2026-04-02T13:58:56.551Z</time></trkpt><trkpt lat="49.7813439" lon="1.5334287"><ele>229.5</ele><time>2026-04-02T13:58:57.552Z</time></trkpt><trkpt lat="49.7812963" lon="1.5332218"><ele>229.25</ele><time>2026-04-02T13:58:58.552Z</time></trkpt><trkpt lat="49.7812471" lon="1.533026"><ele>229.0</ele><time>2026-04-02T13:58:59.552Z</time></trkpt><trkpt lat="49.7812049" lon="1.5328435"><ele>228.79999999999998</ele><time>2026-04-02T13:59:00.552Z</time></trkpt><trkpt lat="49.7811649" lon="1.5326732"><ele>228.59999999999997</ele><time>2026-04-02T13:59:01.552Z</time></trkpt><trkpt lat="49.7811256" lon="1.5325181"><ele>228.4</ele><time>2026-04-02T13:59:02.552Z</time></trkpt><trkpt lat="49.7810875" lon="1.5323787"><ele>228.2</ele><time>2026-04-02T13:59:03.552Z</time></trkpt><trkpt lat="49.781049" lon="1.5322579"><ele>228.0</ele><time>2026-04-02T13:59:04.552Z</time></trkpt><trkpt lat="49.7810218" lon="1.5321602"><ele>227.8</ele><time>2026-04-02T13:59:05.552Z</time></trkpt><trkpt lat="49.7810516" lon="1.5320055"><ele>227.60000000000002</ele><time>2026-04-02T13:59:07.553Z</time></trkpt><trkpt lat="49.781113" lon="1.5319372"><ele>227.39999999999998</ele><time>2026-04-02T13:59:08.551Z</time></trkpt><trkpt lat="49.7811976" lon="1.5318748"><ele>227.2</ele><time>2026-04-02T13:59:09.553Z</time></trkpt><trkpt lat="49.7812849" lon="1.531804"><ele>227.0</ele><time>2026-04-02T13:59:10.552Z</time></trkpt><trkpt lat="49.7814026" lon="1.5317352"><ele>227.0</ele><time>2026-04-02T13:59:11.552Z</time></trkpt><trkpt lat="49.7815184" lon="1.5316586"><ele>227.0</ele><time>2026-04-02T13:59:12.552Z</time></trkpt><trkpt lat="49.7816367" lon="1.5315778"><ele>227.0</ele><time>2026-04-02T13:59:13.552Z</time></trkpt><trkpt lat="49.7817546" lon="1.5315035"><ele>227.0</ele><time>2026-04-02T13:59:14.553Z</time></trkpt><trkpt lat="49.7818696" lon="1.531425"><ele>227.5</ele><time>2026-04-02T13:59:15.552Z</time></trkpt><trkpt lat="49.7819814" lon="1.5313442"><ele>228.0</ele><time>2026-04-02T13:59:16.552Z</time></trkpt><trkpt lat="49.7820895" lon="1.5312521"><ele>228.5</ele><time>2026-04-02T13:59:17.551Z</time></trkpt><trkpt lat="49.7821957" lon="1.5311585"><ele>229.0</ele><time>2026-04-02T13:59:18.552Z</time></trkpt><trkpt lat="49.7822981" lon="1.5310623"><ele>229.0</ele><time>2026-04-02T13:59:19.552Z</time></trkpt><trkpt lat="49.7823948" lon="1.530964"><ele>229.0</ele><time>2026-04-02T13:59:20.552Z</time></trkpt><trkpt lat="49.7824892" lon="1.5308613"><ele>229.0</ele><time>2026-04-02T13:59:21.552Z</time></trkpt><trkpt lat="49.7825846" lon="1.5307458"><ele>229.0</ele><time>2026-04-02T13:59:22.551Z</time></trkpt><trkpt lat="49.7826823" lon="1.5306278"><ele>229.75</ele><time>2026-04-02T13:59:23.552Z</time></trkpt><trkpt lat="49.7827825" lon="1.5305083"><ele>230.5</ele><time>2026-04-02T13:59:24.552Z</time></trkpt><trkpt lat="49.782882" lon="1.5303799"><ele>231.25</ele><time>2026-04-02T13:59:25.552Z</time></trkpt><trkpt lat="49.7829858" lon="1.5302546"><ele>232.0</ele><time>2026-04-02T13:59:26.552Z</time></trkpt><trkpt lat="49.7830926" lon="1.5301376"><ele>232.0</ele><time>2026-04-02T13:59:27.552Z</time></trkpt><trkpt lat="49.7832016" lon="1.5300254"><ele>232.0</ele><time>2026-04-02T13:59:28.552Z</time></trkpt><trkpt lat="49.7833223" lon="1.5299116"><ele>232.0</ele><time>2026-04-02T13:59:29.552Z</time></trkpt><trkpt lat="49.7834441" lon="1.5298014"><ele>232.0</ele><time>2026-04-02T13:59:30.552Z</time></trkpt><trkpt lat="49.7835722" lon="1.5296952"><ele>232.0</ele><time>2026-04-02T13:59:31.552Z</time></trkpt><trkpt lat="49.7837068" lon="1.5295888"><ele>232.0</ele><time>2026-04-02T13:59:32.552Z</time></trkpt><trkpt lat="49.7838439" lon="1.5294776"><ele>232.0</ele><time>2026-04-02T13:59:33.552Z</time></trkpt><trkpt lat="49.7839838" lon="1.5293675"><ele>232.0</ele><time>2026-04-02T13:59:34.552Z</time></trkpt><trkpt lat="49.7841263" lon="1.529253"><ele>232.0</ele><time>2026-04-02T13:59:35.551Z</time></trkpt><trkpt lat="49.7842697" lon="1.529136"><ele>232.0</ele><time>2026-04-02T13:59:36.553Z</time></trkpt><trkpt lat="49.7844104" lon="1.5290241"><ele>232.33333333333331</ele><time>2026-04-02T13:59:37.553Z</time></trkpt><trkpt lat="49.7845478" lon="1.5289141"><ele>232.66666666666669</ele><time>2026-04-02T13:59:38.553Z</time></trkpt><trkpt lat="49.7846834" lon="1.528807"><ele>233.0</ele><time>2026-04-02T13:59:39.551Z</time></trkpt><trkpt lat="49.7848173" lon="1.5286956"><ele>233.0</ele><time>2026-04-02T13:59:40.553Z</time></trkpt><trkpt lat="49.7849432" lon="1.5285873"><ele>233.0</ele><time>2026-04-02T13:59:41.552Z</time></trkpt><trkpt lat="49.7850696" lon="1.5284916"><ele>233.0</ele><time>2026-04-02T13:59:42.552Z</time></trkpt><trkpt lat="49.7851922" lon="1.5284148"><ele>233.0</ele><time>2026-04-02T13:59:43.552Z</time></trkpt><trkpt lat="49.7853132" lon="1.5283528"><ele>235.5</ele><time>2026-04-02T13:59:44.553Z</time></trkpt><trkpt lat="49.7854306" lon="1.5283139"><ele>238.0</ele><time>2026-04-02T13:59:45.551Z</time></trkpt><trkpt lat="49.7855429" lon="1.5282925"><ele>240.5</ele><time>2026-04-02T13:59:46.551Z</time></trkpt><trkpt lat="49.7856581" lon="1.528271"><ele>243.0</ele><time>2026-04-02T13:59:47.552Z</time></trkpt><trkpt lat="49.785796" lon="1.5282546"><ele>243.0</ele><time>2026-04-02T13:59:48.552Z</time></trkpt><trkpt lat="49.7858963" lon="1.5283011"><ele>243.0</ele><time>2026-04-02T13:59:49.552Z</time></trkpt><trkpt lat="49.7860109" lon="1.5283279"><ele>243.0</ele><time>2026-04-02T13:59:50.552Z</time></trkpt><trkpt lat="49.7861921" lon="1.5284086"><ele>243.0</ele><time>2026-04-02T13:59:51.553Z</time></trkpt><trkpt lat="49.7863356" lon="1.5284553"><ele>242.25</ele><time>2026-04-02T13:59:52.552Z</time></trkpt><trkpt lat="49.7864946" lon="1.5284923"><ele>241.5</ele><time>2026-04-02T13:59:53.552Z</time></trkpt><trkpt lat="49.7866312" lon="1.5285501"><ele>240.75</ele><time>2026-04-02T13:59:54.552Z</time></trkpt><trkpt lat="49.7867647" lon="1.5285974"><ele>240.0</ele><time>2026-04-02T13:59:55.552Z</time></trkpt><trkpt lat="49.7868927" lon="1.5286541"><ele>239.5</ele><time>2026-04-02T13:59:56.553Z</time></trkpt><trkpt lat="49.7870233" lon="1.5286954"><ele>239.0</ele><time>2026-04-02T13:59:57.552Z</time></trkpt><trkpt lat="49.7871524" lon="1.5287321"><ele>238.5</ele><time>2026-04-02T13:59:58.553Z</time></trkpt><trkpt lat="49.7872799" lon="1.5287113"><ele>238.0</ele><time>2026-04-02T13:59:59.552Z</time></trkpt><trkpt lat="49.7874057" lon="1.5286797"><ele>238.0</ele><time>2026-04-02T14:00:00.552Z</time></trkpt><trkpt lat="49.7875241" lon="1.5286151"><ele>238.0</ele><time>2026-04-02T14:00:01.553Z</time></trkpt><trkpt lat="49.7876391" lon="1.5285228"><ele>238.0</ele><time>2026-04-02T14:00:02.552Z</time></trkpt><trkpt lat="49.7877364" lon="1.5284118"><ele>238.0</ele><time>2026-04-02T14:00:03.553Z</time></trkpt><trkpt lat="49.7878213" lon="1.5282829"><ele>237.5</ele><time>2026-04-02T14:00:04.552Z</time></trkpt><trkpt lat="49.7878949" lon="1.5281513"><ele>237.0</ele><time>2026-04-02T14:00:05.552Z</time></trkpt><trkpt lat="49.7879688" lon="1.5280179"><ele>236.5</ele><time>2026-04-02T14:00:06.552Z</time></trkpt><trkpt lat="49.7880424" lon="1.5278768"><ele>236.0</ele><time>2026-04-02T14:00:07.553Z</time></trkpt><trkpt lat="49.7881156" lon="1.5277422"><ele>234.75</ele><time>2026-04-02T14:00:08.552Z</time></trkpt><trkpt lat="49.788192" lon="1.5276086"><ele>233.5</ele><time>2026-04-02T14:00:09.552Z</time></trkpt><trkpt lat="49.7882665" lon="1.5274746"><ele>232.25</ele><time>2026-04-02T14:00:10.552Z</time></trkpt><trkpt lat="49.78834" lon="1.527339"><ele>231.0</ele><time>2026-04-02T14:00:11.552Z</time></trkpt><trkpt lat="49.7884083" lon="1.5272078"><ele>231.0</ele><time>2026-04-02T14:00:12.553Z</time></trkpt><trkpt lat="49.7884632" lon="1.5270917"><ele>231.00000000000003</ele><time>2026-04-02T14:00:13.552Z</time></trkpt><trkpt lat="49.7885117" lon="1.5269832"><ele>231.00000000000003</ele><time>2026-04-02T14:00:14.552Z</time></trkpt><trkpt lat="49.7885639" lon="1.5268725"><ele>231.0</ele><time>2026-04-02T14:00:15.553Z</time></trkpt><trkpt lat="49.7886288" lon="1.5267476"><ele>231.0</ele><time>2026-04-02T14:00:16.552Z</time></trkpt><trkpt lat="49.7887002" lon="1.5266226"><ele>231.0</ele><time>2026-04-02T14:00:17.552Z</time></trkpt><trkpt lat="49.7887792" lon="1.5264873"><ele>231.0</ele><time>2026-04-02T14:00:18.552Z</time></trkpt><trkpt lat="49.788864" lon="1.5263637"><ele>231.0</ele><time>2026-04-02T14:00:19.551Z</time></trkpt><trkpt lat="49.7889531" lon="1.5262456"><ele>231.0</ele><time>2026-04-02T14:00:20.552Z</time></trkpt><trkpt lat="49.7890455" lon="1.5261366"><ele>230.75</ele><time>2026-04-02T14:00:21.552Z</time></trkpt><trkpt lat="49.7891364" lon="1.5260282"><ele>230.5</ele><time>2026-04-02T14:00:22.551Z</time></trkpt><trkpt lat="49.7892299" lon="1.5259167"><ele>230.25</ele><time>2026-04-02T14:00:23.551Z</time></trkpt><trkpt lat="49.789328" lon="1.525787"><ele>230.0</ele><time>2026-04-02T14:00:24.552Z</time></trkpt><trkpt lat="49.7894313" lon="1.5256495"><ele>230.25</ele><time>2026-04-02T14:00:25.552Z</time></trkpt><trkpt lat="49.7895303" lon="1.5255171"><ele>230.5</ele><time>2026-04-02T14:00:26.552Z</time></trkpt><trkpt lat="49.7896186" lon="1.5253971"><ele>230.75</ele><time>2026-04-02T14:00:27.551Z</time></trkpt><trkpt lat="49.7897016" lon="1.5252833"><ele>231.0</ele><time>2026-04-02T14:00:28.552Z</time></trkpt><trkpt lat="49.789785" lon="1.5251685"><ele>231.0</ele><time>2026-04-02T14:00:29.552Z</time></trkpt><trkpt lat="49.7898727" lon="1.5250446"><ele>231.0</ele><time>2026-04-02T14:00:30.552Z</time></trkpt><trkpt lat="49.789963" lon="1.5249217"><ele>231.0</ele><time>2026-04-02T14:00:31.553Z</time></trkpt><trkpt lat="49.7900489" lon="1.5248012"><ele>231.0</ele><time>2026-04-02T14:00:32.553Z</time></trkpt><trkpt lat="49.7901347" lon="1.5246807"><ele>231.0</ele><time>2026-04-02T14:00:33.552Z</time></trkpt><trkpt lat="49.790221" lon="1.5245624"><ele>231.0</ele><time>2026-04-02T14:00:34.553Z</time></trkpt><trkpt lat="49.7903121" lon="1.5244401"><ele>231.0</ele><time>2026-04-02T14:00:35.552Z</time></trkpt><trkpt lat="49.7904114" lon="1.5243216"><ele>231.0</ele><time>2026-04-02T14:00:36.552Z</time></trkpt><trkpt lat="49.7905137" lon="1.5242067"><ele>231.0</ele><time>2026-04-02T14:00:37.552Z</time></trkpt><trkpt lat="49.7906175" lon="1.5240985"><ele>231.0</ele><time>2026-04-02T14:00:38.552Z</time></trkpt><trkpt lat="49.7907248" lon="1.5240039"><ele>231.0</ele><time>2026-04-02T14:00:39.552Z</time></trkpt><trkpt lat="49.7908352" lon="1.5239191"><ele>231.0</ele><time>2026-04-02T14:00:40.551Z</time></trkpt><trkpt lat="49.7909448" lon="1.5238407"><ele>230.75</ele><time>2026-04-02T14:00:41.552Z</time></trkpt><trkpt lat="49.7910539" lon="1.5237589"><ele>230.5</ele><time>2026-04-02T14:00:42.552Z</time></trkpt><trkpt lat="49.7911626" lon="1.5236769"><ele>230.25</ele><time>2026-04-02T14:00:43.552Z</time></trkpt><trkpt lat="49.7912721" lon="1.5235934"><ele>230.0</ele><time>2026-04-02T14:00:44.552Z</time></trkpt><trkpt lat="49.7913844" lon="1.5235085"><ele>230.0</ele><time>2026-04-02T14:00:45.552Z</time></trkpt><trkpt lat="49.7914969" lon="1.5234213"><ele>230.0</ele><time>2026-04-02T14:00:46.553Z</time></trkpt><trkpt lat="49.7916135" lon="1.5233344"><ele>230.0</ele><time>2026-04-02T14:00:47.552Z</time></trkpt><trkpt lat="49.7917331" lon="1.523244"><ele>230.0</ele><time>2026-04-02T14:00:48.551Z</time></trkpt><trkpt lat="49.7918538" lon="1.52315"><ele>230.25</ele><time>2026-04-02T14:00:49.552Z</time></trkpt><trkpt lat="49.791976" lon="1.5230573"><ele>230.5</ele><time>2026-04-02T14:00:50.551Z</time></trkpt><trkpt lat="49.792101" lon="1.5229668"><ele>230.75</ele><time>2026-04-02T14:00:51.552Z</time></trkpt><trkpt lat="49.7922279" lon="1.5228765"><ele>231.0</ele><time>2026-04-02T14:00:52.553Z</time></trkpt><trkpt lat="49.7923491" lon="1.5227816"><ele>230.5</ele><time>2026-04-02T14:00:53.552Z</time></trkpt><trkpt lat="49.79247" lon="1.5226898"><ele>230.0</ele><time>2026-04-02T14:00:54.552Z</time></trkpt><trkpt lat="49.7925826" lon="1.5226037"><ele>229.5</ele><time>2026-04-02T14:00:55.552Z</time></trkpt><trkpt lat="49.7926923" lon="1.5225228"><ele>229.0</ele><time>2026-04-02T14:00:56.553Z</time></trkpt><trkpt lat="49.7928114" lon="1.5224292"><ele>229.0</ele><time>2026-04-02T14:00:57.552Z</time></trkpt><trkpt lat="49.7929287" lon="1.5223345"><ele>229.0</ele><time>2026-04-02T14:00:58.553Z</time></trkpt><trkpt lat="49.7930449" lon="1.5222397"><ele>229.0</ele><time>2026-04-02T14:00:59.552Z</time></trkpt><trkpt lat="49.7931584" lon="1.5221498"><ele>229.0</ele><time>2026-04-02T14:01:00.552Z</time></trkpt><trkpt lat="49.7932672" lon="1.5220655"><ele>228.6</ele><time>2026-04-02T14:01:01.553Z</time></trkpt><trkpt lat="49.7933692" lon="1.5219888"><ele>228.2</ele><time>2026-04-02T14:01:02.551Z</time></trkpt><trkpt lat="49.793452" lon="1.5219208"><ele>227.79999999999998</ele><time>2026-04-02T14:01:03.552Z</time></trkpt><trkpt lat="49.793548" lon="1.521838"><ele>227.39999999999998</ele><time>2026-04-02T14:01:05.553Z</time></trkpt><trkpt lat="49.7936018" lon="1.5217736"><ele>227.0</ele><time>2026-04-02T14:01:07.553Z</time></trkpt><trkpt lat="49.7935118" lon="1.5218266"><ele>227.0</ele><time>2026-04-02T14:01:11.552Z</time></trkpt><trkpt lat="49.7934014" lon="1.5219329"><ele>227.0</ele><time>2026-04-02T14:01:13.552Z</time></trkpt><trkpt lat="49.793332" lon="1.5219904"><ele>227.0</ele><time>2026-04-02T14:01:14.554Z</time></trkpt><trkpt lat="49.7932642" lon="1.5220444"><ele>227.0</ele><time>2026-04-02T14:01:15.553Z</time></trkpt><trkpt lat="49.7932053" lon="1.522094"><ele>227.0</ele><time>2026-04-02T14:01:16.553Z</time></trkpt><trkpt lat="49.7931095" lon="1.5221607"><ele>227.00000000000003</ele><time>2026-04-02T14:01:18.553Z</time></trkpt><trkpt lat="49.7930492" lon="1.5221934"><ele>227.0</ele><time>2026-04-02T14:01:21.553Z</time></trkpt><trkpt lat="49.7931585" lon="1.522154"><ele>227.0</ele><time>2026-04-02T14:01:36.553Z</time></trkpt><trkpt lat="49.7932291" lon="1.5221016"><ele>227.0</ele><time>2026-04-02T14:01:37.553Z</time></trkpt><trkpt lat="49.7933078" lon="1.5220379"><ele>227.00000000000003</ele><time>2026-04-02T14:01:38.553Z</time></trkpt><trkpt lat="49.7933992" lon="1.5219615"><ele>227.0</ele><time>2026-04-02T14:01:39.553Z</time></trkpt><trkpt lat="49.7934963" lon="1.521869"><ele>227.0</ele><time>2026-04-02T14:01:40.554Z</time></trkpt><trkpt lat="49.7935961" lon="1.5217687"><ele>227.0</ele><time>2026-04-02T14:01:41.553Z</time></trkpt><trkpt lat="49.7936998" lon="1.5216677"><ele>227.0</ele><time>2026-04-02T14:01:42.554Z</time></trkpt><trkpt lat="49.7938091" lon="1.5215528"><ele>227.0</ele><time>2026-04-02T14:01:43.553Z</time></trkpt><trkpt lat="49.7939219" lon="1.5214306"><ele>227.0</ele><time>2026-04-02T14:01:44.553Z</time></trkpt><trkpt lat="49.7940319" lon="1.5213052"><ele>227.0</ele><time>2026-04-02T14:01:45.554Z</time></trkpt><trkpt lat="49.794138" lon="1.5211921"><ele>227.0</ele><time>2026-04-02T14:01:46.553Z</time></trkpt><trkpt lat="49.7942339" lon="1.5210958"><ele>227.0</ele><time>2026-04-02T14:01:47.552Z</time></trkpt><trkpt lat="49.7943256" lon="1.5210064"><ele>227.39999999999998</ele><time>2026-04-02T14:01:48.554Z</time></trkpt><trkpt lat="49.7944172" lon="1.5209088"><ele>227.79999999999998</ele><time>2026-04-02T14:01:49.554Z</time></trkpt><trkpt lat="49.794513" lon="1.5208158"><ele>228.2</ele><time>2026-04-02T14:01:50.552Z</time></trkpt><trkpt lat="49.7945986" lon="1.5207335"><ele>228.6</ele><time>2026-04-02T14:01:51.553Z</time></trkpt><trkpt lat="49.7946817" lon="1.5206519"><ele>229.0</ele><time>2026-04-02T14:01:52.553Z</time></trkpt><trkpt lat="49.7947717" lon="1.5205637"><ele>229.0</ele><time>2026-04-02T14:01:53.553Z</time></trkpt><trkpt lat="49.7948582" lon="1.5204785"><ele>228.99999999999997</ele><time>2026-04-02T14:01:54.554Z</time></trkpt><trkpt lat="49.7949417" lon="1.5203969"><ele>228.99999999999997</ele><time>2026-04-02T14:01:55.553Z</time></trkpt><trkpt lat="49.7950236" lon="1.5203181"><ele>229.0</ele><time>2026-04-02T14:01:56.553Z</time></trkpt><trkpt lat="49.7951011" lon="1.5202462"><ele>229.0</ele><time>2026-04-02T14:01:57.554Z</time></trkpt><trkpt lat="49.7951691" lon="1.5201778"><ele>228.99999999999997</ele><time>2026-04-02T14:01:58.554Z</time></trkpt><trkpt lat="49.7952349" lon="1.5201132"><ele>229.0</ele><time>2026-04-02T14:01:59.553Z</time></trkpt><trkpt lat="49.7953097" lon="1.520044"><ele>229.0</ele><time>2026-04-02T14:02:00.554Z</time></trkpt><trkpt lat="49.7953925" lon="1.5199653"><ele>229.0</ele><time>2026-04-02T14:02:01.554Z</time></trkpt><trkpt lat="49.7954736" lon="1.5198903"><ele>228.99999999999997</ele><time>2026-04-02T14:02:02.553Z</time></trkpt><trkpt lat="49.7955498" lon="1.5198279"><ele>229.0</ele><time>2026-04-02T14:02:03.554Z</time></trkpt><trkpt lat="49.7956154" lon="1.519774"><ele>228.99999999999997</ele><time>2026-04-02T14:02:04.553Z</time></trkpt><trkpt lat="49.7957054" lon="1.5196975"><ele>229.0</ele><time>2026-04-02T14:02:06.553Z</time></trkpt><trkpt lat="49.7957783" lon="1.5196282"><ele>229.0</ele><time>2026-04-02T14:02:09.553Z</time></trkpt><trkpt lat="49.7958616" lon="1.5195462"><ele>229.0</ele><time>2026-04-02T14:02:11.553Z</time></trkpt><trkpt lat="49.7959228" lon="1.5194865"><ele>228.99999999999997</ele><time>2026-04-02T14:02:12.553Z</time></trkpt><trkpt lat="49.7959918" lon="1.5194201"><ele>229.0</ele><time>2026-04-02T14:02:13.553Z</time></trkpt><trkpt lat="49.79608" lon="1.5193297"><ele>229.25</ele><time>2026-04-02T14:02:14.553Z</time></trkpt><trkpt lat="49.796181" lon="1.519229"><ele>229.5</ele><time>2026-04-02T14:02:15.552Z</time></trkpt><trkpt lat="49.7962887" lon="1.5191151"><ele>229.75</ele><time>2026-04-02T14:02:16.553Z</time></trkpt><trkpt lat="49.7964035" lon="1.5189931"><ele>230.0</ele><time>2026-04-02T14:02:17.553Z</time></trkpt><trkpt lat="49.796527" lon="1.5188618"><ele>229.66666666666669</ele><time>2026-04-02T14:02:18.553Z</time></trkpt><trkpt lat="49.7966573" lon="1.5187225"><ele>229.33333333333331</ele><time>2026-04-02T14:02:19.553Z</time></trkpt><trkpt lat="49.7967959" lon="1.5185798"><ele>229.0</ele><time>2026-04-02T14:02:20.553Z</time></trkpt><trkpt lat="49.7969378" lon="1.5184259"><ele>228.33333333333331</ele><time>2026-04-02T14:02:21.553Z</time></trkpt><trkpt lat="49.7970805" lon="1.5182682"><ele>227.66666666666669</ele><time>2026-04-02T14:02:22.554Z</time></trkpt><trkpt lat="49.7972299" lon="1.5181049"><ele>227.0</ele><time>2026-04-02T14:02:23.553Z</time></trkpt><trkpt lat="49.7973815" lon="1.5179346"><ele>227.33333333333334</ele><time>2026-04-02T14:02:24.553Z</time></trkpt><trkpt lat="49.7975363" lon="1.5177616"><ele>227.66666666666669</ele><time>2026-04-02T14:02:25.554Z</time></trkpt><trkpt lat="49.7976958" lon="1.5175936"><ele>228.0</ele><time>2026-04-02T14:02:26.553Z</time></trkpt><trkpt lat="49.797858" lon="1.5174299"><ele>227.66666666666669</ele><time>2026-04-02T14:02:27.554Z</time></trkpt><trkpt lat="49.7980244" lon="1.5172719"><ele>227.33333333333334</ele><time>2026-04-02T14:02:28.553Z</time></trkpt><trkpt lat="49.7981922" lon="1.5171201"><ele>227.0</ele><time>2026-04-02T14:02:29.553Z</time></trkpt><trkpt lat="49.798358" lon="1.5169643"><ele>227.0</ele><time>2026-04-02T14:02:30.554Z</time></trkpt><trkpt lat="49.7985234" lon="1.5168184"><ele>227.0</ele><time>2026-04-02T14:02:31.553Z</time></trkpt><trkpt lat="49.7986795" lon="1.5166757"><ele>227.0</ele><time>2026-04-02T14:02:32.553Z</time></trkpt><trkpt lat="49.7988253" lon="1.5165396"><ele>227.0</ele><time>2026-04-02T14:02:33.553Z</time></trkpt><trkpt lat="49.7989636" lon="1.516415"><ele>227.0</ele><time>2026-04-02T14:02:34.553Z</time></trkpt><trkpt lat="49.7990931" lon="1.5162988"><ele>227.0</ele><time>2026-04-02T14:02:35.553Z</time></trkpt><trkpt lat="49.7992155" lon="1.5161909"><ele>227.25</ele><time>2026-04-02T14:02:36.554Z</time></trkpt><trkpt lat="49.7993316" lon="1.5160879"><ele>227.5</ele><time>2026-04-02T14:02:37.553Z</time></trkpt><trkpt lat="49.7994432" lon="1.5159869"><ele>227.75</ele><time>2026-04-02T14:02:38.553Z</time></trkpt><trkpt lat="49.7995496" lon="1.5158917"><ele>228.0</ele><time>2026-04-02T14:02:39.553Z</time></trkpt><trkpt lat="49.7996503" lon="1.5158016"><ele>228.0</ele><time>2026-04-02T14:02:40.553Z</time></trkpt><trkpt lat="49.7997468" lon="1.5157148"><ele>228.0</ele><time>2026-04-02T14:02:41.552Z</time></trkpt><trkpt lat="49.7998334" lon="1.5156345"><ele>228.0</ele><time>2026-04-02T14:02:42.553Z</time></trkpt><trkpt lat="49.7999168" lon="1.515555"><ele>228.0</ele><time>2026-04-02T14:02:43.553Z</time></trkpt><trkpt lat="49.7999853" lon="1.5154911"><ele>228.0</ele><time>2026-04-02T14:02:44.553Z</time></trkpt><trkpt lat="49.8000676" lon="1.515393"><ele>228.0</ele><time>2026-04-02T14:02:46.554Z</time></trkpt><trkpt lat="49.8000543" lon="1.5152523"><ele>228.0</ele><time>2026-04-02T14:02:50.553Z</time></trkpt><trkpt lat="49.7999195" lon="1.5151945"><ele>228.0</ele><time>2026-04-02T14:02:52.554Z</time></trkpt><trkpt lat="49.7998187" lon="1.5151598"><ele>228.0</ele><time>2026-04-02T14:02:53.553Z</time></trkpt><trkpt lat="49.7997054" lon="1.515124"><ele>228.0</ele><time>2026-04-02T14:02:54.554Z</time></trkpt><trkpt lat="49.799577" lon="1.51508"><ele>228.0</ele><time>2026-04-02T14:02:55.553Z</time></trkpt><trkpt lat="49.7994385" lon="1.5150354"><ele>228.0</ele><time>2026-04-02T14:02:56.553Z</time></trkpt><trkpt lat="49.7992899" lon="1.5149946"><ele>228.0</ele><time>2026-04-02T14:02:57.552Z</time></trkpt><trkpt lat="49.7991334" lon="1.5149545"><ele>228.66666666666669</ele><time>2026-04-02T14:02:58.553Z</time></trkpt><trkpt lat="49.7989685" lon="1.5149184"><ele>229.33333333333334</ele><time>2026-04-02T14:02:59.553Z</time></trkpt><trkpt lat="49.7987977" lon="1.5148812"><ele>230.0</ele><time>2026-04-02T14:03:00.552Z</time></trkpt><trkpt lat="49.7986207" lon="1.5148441"><ele>229.33333333333334</ele><time>2026-04-02T14:03:01.554Z</time></trkpt><trkpt lat="49.7984403" lon="1.5148079"><ele>228.66666666666669</ele><time>2026-04-02T14:03:02.553Z</time></trkpt><trkpt lat="49.798255" lon="1.5147702"><ele>228.0</ele><time>2026-04-02T14:03:03.554Z</time></trkpt><trkpt lat="49.7980656" lon="1.5147351"><ele>228.0</ele><time>2026-04-02T14:03:04.554Z</time></trkpt><trkpt lat="49.7978727" lon="1.5146993"><ele>228.0</ele><time>2026-04-02T14:03:05.553Z</time></trkpt><trkpt lat="49.7976781" lon="1.5146599"><ele>228.0</ele><time>2026-04-02T14:03:06.553Z</time></trkpt><trkpt lat="49.7974817" lon="1.5146227"><ele>228.33333333333331</ele><time>2026-04-02T14:03:07.553Z</time></trkpt><trkpt lat="49.7972826" lon="1.5145864"><ele>228.66666666666666</ele><time>2026-04-02T14:03:08.553Z</time></trkpt><trkpt lat="49.7970796" lon="1.5145486"><ele>229.0</ele><time>2026-04-02T14:03:09.554Z</time></trkpt><trkpt lat="49.7968755" lon="1.514509"><ele>228.66666666666666</ele><time>2026-04-02T14:03:10.554Z</time></trkpt><trkpt lat="49.796673" lon="1.514469"><ele>228.33333333333331</ele><time>2026-04-02T14:03:11.553Z</time></trkpt><trkpt lat="49.7964744" lon="1.5144277"><ele>228.0</ele><time>2026-04-02T14:03:12.554Z</time></trkpt><trkpt lat="49.7962791" lon="1.5143858"><ele>228.0</ele><time>2026-04-02T14:03:13.554Z</time></trkpt><trkpt lat="49.7960874" lon="1.5143477"><ele>228.0</ele><time>2026-04-02T14:03:14.553Z</time></trkpt><trkpt lat="49.795899" lon="1.5143105"><ele>228.0</ele><time>2026-04-02T14:03:15.553Z</time></trkpt><trkpt lat="49.7957066" lon="1.5142755"><ele>228.0</ele><time>2026-04-02T14:03:16.553Z</time></trkpt><trkpt lat="49.7955137" lon="1.5142423"><ele>228.0</ele><time>2026-04-02T14:03:17.554Z</time></trkpt><trkpt lat="49.7953198" lon="1.5142054"><ele>228.0</ele><time>2026-04-02T14:03:18.553Z</time></trkpt><trkpt lat="49.7951357" lon="1.5141677"><ele>227.5</ele><time>2026-04-02T14:03:19.554Z</time></trkpt><trkpt lat="49.7949651" lon="1.5141304"><ele>227.0</ele><time>2026-04-02T14:03:20.553Z</time></trkpt><trkpt lat="49.7948212" lon="1.514097"><ele>226.5</ele><time>2026-04-02T14:03:21.554Z</time></trkpt><trkpt lat="49.7947128" lon="1.5140735"><ele>226.0</ele><time>2026-04-02T14:03:22.553Z</time></trkpt><trkpt lat="49.7946308" lon="1.5140502"><ele>226.0</ele><time>2026-04-02T14:03:23.553Z</time></trkpt><trkpt lat="49.794544" lon="1.5140109"><ele>226.00000000000003</ele><time>2026-04-02T14:03:25.554Z</time></trkpt><trkpt lat="49.7944205" lon="1.5140138"><ele>226.00000000000003</ele><time>2026-04-02T14:03:56.553Z</time></trkpt><trkpt lat="49.7943288" lon="1.5140016"><ele>226.0</ele><time>2026-04-02T14:03:57.553Z</time></trkpt><trkpt lat="49.7942191" lon="1.5139817"><ele>226.0</ele><time>2026-04-02T14:03:58.553Z</time></trkpt><trkpt lat="49.794093" lon="1.5139531"><ele>225.75</ele><time>2026-04-02T14:03:59.554Z</time></trkpt><trkpt lat="49.7939561" lon="1.5139256"><ele>225.5</ele><time>2026-04-02T14:04:00.554Z</time></trkpt><trkpt lat="49.7938077" lon="1.5139015"><ele>225.25</ele><time>2026-04-02T14:04:01.553Z</time></trkpt><trkpt lat="49.7936514" lon="1.5138773"><ele>225.0</ele><time>2026-04-02T14:04:02.554Z</time></trkpt><trkpt lat="49.7934886" lon="1.5138472"><ele>223.66666666666669</ele><time>2026-04-02T14:04:03.553Z</time></trkpt><trkpt lat="49.7933327" lon="1.5138181"><ele>222.33333333333334</ele><time>2026-04-02T14:04:04.553Z</time></trkpt><trkpt lat="49.7931814" lon="1.5137894"><ele>221.0</ele><time>2026-04-02T14:04:05.553Z</time></trkpt><trkpt lat="49.7930381" lon="1.5137613"><ele>221.25</ele><time>2026-04-02T14:04:06.554Z</time></trkpt><trkpt lat="49.7928985" lon="1.5137311"><ele>221.5</ele><time>2026-04-02T14:04:07.554Z</time></trkpt><trkpt lat="49.7927588" lon="1.5137013"><ele>221.75</ele><time>2026-04-02T14:04:08.553Z</time></trkpt><trkpt lat="49.7926118" lon="1.5136718"><ele>222.0</ele><time>2026-04-02T14:04:09.553Z</time></trkpt><trkpt lat="49.7924702" lon="1.5136451"><ele>220.75</ele><time>2026-04-02T14:04:10.554Z</time></trkpt><trkpt lat="49.7923332" lon="1.5136076"><ele>219.5</ele><time>2026-04-02T14:04:11.553Z</time></trkpt><trkpt lat="49.7921903" lon="1.5135491"><ele>218.25</ele><time>2026-04-02T14:04:12.552Z</time></trkpt><trkpt lat="49.7920419" lon="1.5134544"><ele>217.0</ele><time>2026-04-02T14:04:13.554Z</time></trkpt><trkpt lat="49.791891" lon="1.5133313"><ele>215.33333333333331</ele><time>2026-04-02T14:04:14.553Z</time></trkpt><trkpt lat="49.7917397" lon="1.5131871"><ele>213.66666666666669</ele><time>2026-04-02T14:04:15.554Z</time></trkpt><trkpt lat="49.7915894" lon="1.5130308"><ele>212.0</ele><time>2026-04-02T14:04:16.553Z</time></trkpt><trkpt lat="49.7914405" lon="1.5128621"><ele>212.0</ele><time>2026-04-02T14:04:17.553Z</time></trkpt><trkpt lat="49.7912886" lon="1.5126834"><ele>212.0</ele><time>2026-04-02T14:04:18.553Z</time></trkpt><trkpt lat="49.791127" lon="1.5125008"><ele>212.0</ele><time>2026-04-02T14:04:19.553Z</time></trkpt><trkpt lat="49.7909683" lon="1.5123197"><ele>209.0</ele><time>2026-04-02T14:04:20.553Z</time></trkpt><trkpt lat="49.7908123" lon="1.5121418"><ele>206.0</ele><time>2026-04-02T14:04:21.553Z</time></trkpt><trkpt lat="49.7906568" lon="1.511967"><ele>203.0</ele><time>2026-04-02T14:04:22.554Z</time></trkpt><trkpt lat="49.7905031" lon="1.5117945"><ele>203.0</ele><time>2026-04-02T14:04:23.554Z</time></trkpt><trkpt lat="49.7903545" lon="1.5116201"><ele>203.0</ele><time>2026-04-02T14:04:24.553Z</time></trkpt><trkpt lat="49.7902094" lon="1.5114461"><ele>203.0</ele><time>2026-04-02T14:04:25.552Z</time></trkpt><trkpt lat="49.7900699" lon="1.5112611"><ele>200.0</ele><time>2026-04-02T14:04:26.554Z</time></trkpt><trkpt lat="49.7899377" lon="1.5110626"><ele>197.0</ele><time>2026-04-02T14:04:27.552Z</time></trkpt><trkpt lat="49.7898078" lon="1.5108478"><ele>194.0</ele><time>2026-04-02T14:04:28.552Z</time></trkpt><trkpt lat="49.7896843" lon="1.5106143"><ele>196.0</ele><time>2026-04-02T14:04:29.553Z</time></trkpt><trkpt lat="49.7895663" lon="1.510376"><ele>198.0</ele><time>2026-04-02T14:04:30.554Z</time></trkpt><trkpt lat="49.7894522" lon="1.510137"><ele>200.0</ele><time>2026-04-02T14:04:31.553Z</time></trkpt><trkpt lat="49.7893332" lon="1.5098879"><ele>195.0</ele><time>2026-04-02T14:04:32.553Z</time></trkpt><trkpt lat="49.78921" lon="1.509631"><ele>190.0</ele><time>2026-04-02T14:04:33.553Z</time></trkpt><trkpt lat="49.7890823" lon="1.5093704"><ele>185.0</ele><time>2026-04-02T14:04:34.554Z</time></trkpt><trkpt lat="49.788953" lon="1.5091052"><ele>185.0</ele><time>2026-04-02T14:04:35.552Z</time></trkpt><trkpt lat="49.7888251" lon="1.5088448"><ele>185.0</ele><time>2026-04-02T14:04:36.553Z</time></trkpt><trkpt lat="49.7887021" lon="1.5085897"><ele>185.0</ele><time>2026-04-02T14:04:37.553Z</time></trkpt><trkpt lat="49.788583" lon="1.5083384"><ele>180.33333333333331</ele><time>2026-04-02T14:04:38.553Z</time></trkpt><trkpt lat="49.7884607" lon="1.508078"><ele>175.66666666666666</ele><time>2026-04-02T14:04:39.554Z</time></trkpt><trkpt lat="49.7883362" lon="1.5078295"><ele>171.0</ele><time>2026-04-02T14:04:40.553Z</time></trkpt><trkpt lat="49.7882107" lon="1.5075798"><ele>171.0</ele><time>2026-04-02T14:04:41.553Z</time></trkpt><trkpt lat="49.7880889" lon="1.5073258"><ele>171.0</ele><time>2026-04-02T14:04:42.554Z</time></trkpt><trkpt lat="49.7879677" lon="1.507075"><ele>171.0</ele><time>2026-04-02T14:04:43.553Z</time></trkpt><trkpt lat="49.7878442" lon="1.5068241"><ele>171.66666666666666</ele><time>2026-04-02T14:04:44.553Z</time></trkpt><trkpt lat="49.7877238" lon="1.5065742"><ele>172.33333333333331</ele><time>2026-04-02T14:04:45.554Z</time></trkpt><trkpt lat="49.7875991" lon="1.5063199"><ele>173.0</ele><time>2026-04-02T14:04:46.554Z</time></trkpt><trkpt lat="49.7874728" lon="1.5060642"><ele>169.0</ele><time>2026-04-02T14:04:47.554Z</time></trkpt><trkpt lat="49.7873452" lon="1.5058076"><ele>165.0</ele><time>2026-04-02T14:04:48.553Z</time></trkpt><trkpt lat="49.7872169" lon="1.5055534"><ele>161.0</ele><time>2026-04-02T14:04:49.553Z</time></trkpt><trkpt lat="49.7870904" lon="1.5052999"><ele>161.0</ele><time>2026-04-02T14:04:50.553Z</time></trkpt><trkpt lat="49.7869647" lon="1.5050476"><ele>161.0</ele><time>2026-04-02T14:04:51.554Z</time></trkpt><trkpt lat="49.7868416" lon="1.5047952"><ele>161.0</ele><time>2026-04-02T14:04:52.554Z</time></trkpt><trkpt lat="49.7867162" lon="1.5045475"><ele>157.66666666666666</ele><time>2026-04-02T14:04:53.554Z</time></trkpt><trkpt lat="49.786593" lon="1.5043014"><ele>154.33333333333334</ele><time>2026-04-02T14:04:54.553Z</time></trkpt><trkpt lat="49.786468" lon="1.5040541"><ele>151.0</ele><time>2026-04-02T14:04:55.553Z</time></trkpt><trkpt lat="49.7863442" lon="1.5038131"><ele>152.0</ele><time>2026-04-02T14:04:56.553Z</time></trkpt><trkpt lat="49.7862153" lon="1.5035817"><ele>153.0</ele><time>2026-04-02T14:04:57.553Z</time></trkpt><trkpt lat="49.7860908" lon="1.5033576"><ele>154.0</ele><time>2026-04-02T14:04:58.553Z</time></trkpt><trkpt lat="49.7859627" lon="1.5031369"><ele>151.33333333333334</ele><time>2026-04-02T14:04:59.553Z</time></trkpt><trkpt lat="49.7858313" lon="1.5029185"><ele>148.66666666666666</ele><time>2026-04-02T14:05:00.553Z</time></trkpt><trkpt lat="49.7856962" lon="1.5027047"><ele>146.0</ele><time>2026-04-02T14:05:01.554Z</time></trkpt><trkpt lat="49.7855554" lon="1.5024871"><ele>145.66666666666666</ele><time>2026-04-02T14:05:02.553Z</time></trkpt><trkpt lat="49.7854139" lon="1.5022768"><ele>145.33333333333334</ele><time>2026-04-02T14:05:03.553Z</time></trkpt><trkpt lat="49.7852704" lon="1.502066"><ele>145.0</ele><time>2026-04-02T14:05:04.553Z</time></trkpt><trkpt lat="49.7851265" lon="1.5018607"><ele>142.66666666666669</ele><time>2026-04-02T14:05:05.553Z</time></trkpt><trkpt lat="49.7849826" lon="1.5016627"><ele>140.33333333333334</ele><time>2026-04-02T14:05:06.553Z</time></trkpt><trkpt lat="49.7848354" lon="1.5014652"><ele>138.0</ele><time>2026-04-02T14:05:07.554Z</time></trkpt><trkpt lat="49.7846955" lon="1.5012849"><ele>138.0</ele><time>2026-04-02T14:05:08.554Z</time></trkpt><trkpt lat="49.7845576" lon="1.5011155"><ele>138.0</ele><time>2026-04-02T14:05:09.552Z</time></trkpt><trkpt lat="49.7844208" lon="1.5009486"><ele>138.0</ele><time>2026-04-02T14:05:10.553Z</time></trkpt><trkpt lat="49.7842881" lon="1.5007906"><ele>136.5</ele><time>2026-04-02T14:05:11.553Z</time></trkpt><trkpt lat="49.7841634" lon="1.5006476"><ele>135.0</ele><time>2026-04-02T14:05:12.554Z</time></trkpt><trkpt lat="49.7840531" lon="1.5005173"><ele>133.5</ele><time>2026-04-02T14:05:13.554Z</time></trkpt><trkpt lat="49.7839512" lon="1.5004062"><ele>132.0</ele><time>2026-04-02T14:05:14.553Z</time></trkpt><trkpt lat="49.7838576" lon="1.500303"><ele>132.0</ele><time>2026-04-02T14:05:15.554Z</time></trkpt><trkpt lat="49.7837743" lon="1.5002126"><ele>132.0</ele><time>2026-04-02T14:05:16.553Z</time></trkpt><trkpt lat="49.7837086" lon="1.5001294"><ele>132.0</ele><time>2026-04-02T14:05:17.554Z</time></trkpt><trkpt lat="49.7836506" lon="1.5000494"><ele>132.0</ele><time>2026-04-02T14:05:18.553Z</time></trkpt><trkpt lat="49.783602" lon="1.4999326"><ele>132.0</ele><time>2026-04-02T14:05:19.553Z</time></trkpt><trkpt lat="49.7835512" lon="1.4997855"><ele>130.5</ele><time>2026-04-02T14:05:20.554Z</time></trkpt><trkpt lat="49.7834978" lon="1.4996092"><ele>129.0</ele><time>2026-04-02T14:05:21.554Z</time></trkpt><trkpt lat="49.7834359" lon="1.4994128"><ele>127.5</ele><time>2026-04-02T14:05:22.553Z</time></trkpt><trkpt lat="49.7833723" lon="1.4991928"><ele>126.0</ele><time>2026-04-02T14:05:23.552Z</time></trkpt><trkpt lat="49.7833152" lon="1.4989516"><ele>125.66666666666666</ele><time>2026-04-02T14:05:24.553Z</time></trkpt><trkpt lat="49.7832586" lon="1.4986972"><ele>125.33333333333333</ele><time>2026-04-02T14:05:25.554Z</time></trkpt><trkpt lat="49.7831985" lon="1.4984312"><ele>125.0</ele><time>2026-04-02T14:05:26.552Z</time></trkpt><trkpt lat="49.7831276" lon="1.4981618"><ele>124.66666666666666</ele><time>2026-04-02T14:05:27.553Z</time></trkpt><trkpt lat="49.7830494" lon="1.4978843"><ele>124.33333333333334</ele><time>2026-04-02T14:05:28.553Z</time></trkpt><trkpt lat="49.7829696" lon="1.4976096"><ele>124.0</ele><time>2026-04-02T14:05:29.553Z</time></trkpt><trkpt lat="49.7828924" lon="1.4973429"><ele>124.33333333333334</ele><time>2026-04-02T14:05:30.554Z</time></trkpt><trkpt lat="49.7828176" lon="1.4970737"><ele>124.66666666666666</ele><time>2026-04-02T14:05:31.553Z</time></trkpt><trkpt lat="49.7827476" lon="1.4968028"><ele>125.0</ele><time>2026-04-02T14:05:32.553Z</time></trkpt><trkpt lat="49.78268" lon="1.4965389"><ele>123.0</ele><time>2026-04-02T14:05:33.553Z</time></trkpt><trkpt lat="49.7826096" lon="1.4962696"><ele>121.0</ele><time>2026-04-02T14:05:34.554Z</time></trkpt><trkpt lat="49.7825382" lon="1.4959996"><ele>119.0</ele><time>2026-04-02T14:05:35.554Z</time></trkpt><trkpt lat="49.7824629" lon="1.4957294"><ele>118.66666666666666</ele><time>2026-04-02T14:05:36.554Z</time></trkpt><trkpt lat="49.7823847" lon="1.4954685"><ele>118.33333333333334</ele><time>2026-04-02T14:05:37.554Z</time></trkpt><trkpt lat="49.7823023" lon="1.4952178"><ele>118.0</ele><time>2026-04-02T14:05:38.554Z</time></trkpt><trkpt lat="49.7822194" lon="1.4949825"><ele>118.0</ele><time>2026-04-02T14:05:39.553Z</time></trkpt><trkpt lat="49.7821355" lon="1.4947598"><ele>118.0</ele><time>2026-04-02T14:05:40.553Z</time></trkpt><trkpt lat="49.7820546" lon="1.4945564"><ele>118.0</ele><time>2026-04-02T14:05:41.554Z</time></trkpt><trkpt lat="49.7819794" lon="1.494366"><ele>118.0</ele><time>2026-04-02T14:05:42.553Z</time></trkpt><trkpt lat="49.7819122" lon="1.494189"><ele>118.0</ele><time>2026-04-02T14:05:43.553Z</time></trkpt><trkpt lat="49.7818475" lon="1.4940245"><ele>118.0</ele><time>2026-04-02T14:05:44.553Z</time></trkpt><trkpt lat="49.7817885" lon="1.4938754"><ele>118.0</ele><time>2026-04-02T14:05:45.553Z</time></trkpt><trkpt lat="49.7817382" lon="1.4937397"><ele>117.33333333333334</ele><time>2026-04-02T14:05:46.553Z</time></trkpt><trkpt lat="49.7816902" lon="1.4936137"><ele>116.66666666666667</ele><time>2026-04-02T14:05:47.553Z</time></trkpt><trkpt lat="49.7816439" lon="1.4934992"><ele>116.0</ele><time>2026-04-02T14:05:48.553Z</time></trkpt><trkpt lat="49.7816019" lon="1.4933953"><ele>115.33333333333334</ele><time>2026-04-02T14:05:49.553Z</time></trkpt><trkpt lat="49.781567" lon="1.4933063"><ele>114.66666666666667</ele><time>2026-04-02T14:05:50.553Z</time></trkpt><trkpt lat="49.7815242" lon="1.4931431"><ele>114.0</ele><time>2026-04-02T14:05:52.553Z</time></trkpt><trkpt lat="49.7815469" lon="1.4929457"><ele>114.16666666666667</ele><time>2026-04-02T14:05:54.553Z</time></trkpt><trkpt lat="49.7815934" lon="1.492824"><ele>114.33333333333334</ele><time>2026-04-02T14:05:55.553Z</time></trkpt><trkpt lat="49.78165" lon="1.4927081"><ele>114.5</ele><time>2026-04-02T14:05:56.553Z</time></trkpt><trkpt lat="49.7816954" lon="1.492602"><ele>114.66666666666667</ele><time>2026-04-02T14:05:57.553Z</time></trkpt><trkpt lat="49.7816982" lon="1.4924883"><ele>114.83333333333334</ele><time>2026-04-02T14:05:58.552Z</time></trkpt><trkpt lat="49.7816625" lon="1.4923709"><ele>115.0</ele><time>2026-04-02T14:05:59.552Z</time></trkpt><trkpt lat="49.7815973" lon="1.492245"><ele>115.0</ele><time>2026-04-02T14:06:00.553Z</time></trkpt><trkpt lat="49.7815069" lon="1.4921253"><ele>115.0</ele><time>2026-04-02T14:06:01.553Z</time></trkpt><trkpt lat="49.7814072" lon="1.4919971"><ele>115.0</ele><time>2026-04-02T14:06:02.553Z</time></trkpt><trkpt lat="49.7813039" lon="1.4918685"><ele>115.0</ele><time>2026-04-02T14:06:03.554Z</time></trkpt><trkpt lat="49.7811984" lon="1.4917378"><ele>114.75</ele><time>2026-04-02T14:06:04.553Z</time></trkpt><trkpt lat="49.7810946" lon="1.4916082"><ele>114.5</ele><time>2026-04-02T14:06:05.553Z</time></trkpt><trkpt lat="49.7809942" lon="1.4914867"><ele>114.25</ele><time>2026-04-02T14:06:06.554Z</time></trkpt><trkpt lat="49.7809028" lon="1.4913726"><ele>114.0</ele><time>2026-04-02T14:06:07.553Z</time></trkpt><trkpt lat="49.7808107" lon="1.4912653"><ele>112.5</ele><time>2026-04-02T14:06:08.553Z</time></trkpt><trkpt lat="49.7807167" lon="1.4911691"><ele>111.0</ele><time>2026-04-02T14:06:09.554Z</time></trkpt><trkpt lat="49.7806157" lon="1.4910803"><ele>109.5</ele><time>2026-04-02T14:06:10.553Z</time></trkpt><trkpt lat="49.7805065" lon="1.4909957"><ele>108.0</ele><time>2026-04-02T14:06:11.552Z</time></trkpt><trkpt lat="49.7803901" lon="1.4909205"><ele>108.0</ele><time>2026-04-02T14:06:12.553Z</time></trkpt><trkpt lat="49.7802701" lon="1.4908381"><ele>108.0</ele><time>2026-04-02T14:06:13.553Z</time></trkpt><trkpt lat="49.7801513" lon="1.490745"><ele>108.0</ele><time>2026-04-02T14:06:14.553Z</time></trkpt><trkpt lat="49.7800368" lon="1.4906284"><ele>108.0</ele><time>2026-04-02T14:06:15.553Z</time></trkpt><trkpt lat="49.779924" lon="1.4904943"><ele>107.25</ele><time>2026-04-02T14:06:16.553Z</time></trkpt><trkpt lat="49.7798126" lon="1.4903556"><ele>106.5</ele><time>2026-04-02T14:06:17.553Z</time></trkpt><trkpt lat="49.7796998" lon="1.4902124"><ele>105.75</ele><time>2026-04-02T14:06:18.553Z</time></trkpt><trkpt lat="49.7795892" lon="1.4900776"><ele>105.0</ele><time>2026-04-02T14:06:19.553Z</time></trkpt><trkpt lat="49.7794859" lon="1.489952"><ele>105.0</ele><time>2026-04-02T14:06:20.552Z</time></trkpt><trkpt lat="49.7793936" lon="1.4898375"><ele>105.0</ele><time>2026-04-02T14:06:21.553Z</time></trkpt><trkpt lat="49.7793096" lon="1.4897323"><ele>105.0</ele><time>2026-04-02T14:06:22.554Z</time></trkpt><trkpt lat="49.7792352" lon="1.4896017"><ele>105.0</ele><time>2026-04-02T14:06:23.553Z</time></trkpt><trkpt lat="49.7791629" lon="1.4894382"><ele>104.75</ele><time>2026-04-02T14:06:24.553Z</time></trkpt><trkpt lat="49.7790942" lon="1.489255"><ele>104.5</ele><time>2026-04-02T14:06:25.554Z</time></trkpt><trkpt lat="49.7790304" lon="1.4890465"><ele>104.25</ele><time>2026-04-02T14:06:26.554Z</time></trkpt><trkpt lat="49.7789591" lon="1.488832"><ele>104.0</ele><time>2026-04-02T14:06:27.553Z</time></trkpt><trkpt lat="49.7788853" lon="1.4886131"><ele>103.66666666666666</ele><time>2026-04-02T14:06:28.553Z</time></trkpt><trkpt lat="49.778816" lon="1.4883937"><ele>103.33333333333334</ele><time>2026-04-02T14:06:29.553Z</time></trkpt><trkpt lat="49.7787418" lon="1.4881808"><ele>103.0</ele><time>2026-04-02T14:06:30.553Z</time></trkpt><trkpt lat="49.7786599" lon="1.4879764"><ele>103.0</ele><time>2026-04-02T14:06:31.553Z</time></trkpt><trkpt lat="49.7785782" lon="1.4877865"><ele>103.0</ele><time>2026-04-02T14:06:32.553Z</time></trkpt><trkpt lat="49.7784953" lon="1.4876143"><ele>103.0</ele><time>2026-04-02T14:06:33.553Z</time></trkpt><trkpt lat="49.7784147" lon="1.487446"><ele>103.0</ele><time>2026-04-02T14:06:34.554Z</time></trkpt><trkpt lat="49.7783316" lon="1.4872759"><ele>103.5</ele><time>2026-04-02T14:06:35.552Z</time></trkpt><trkpt lat="49.7782431" lon="1.487116"><ele>104.0</ele><time>2026-04-02T14:06:36.553Z</time></trkpt><trkpt lat="49.7781482" lon="1.4869728"><ele>104.5</ele><time>2026-04-02T14:06:37.553Z</time></trkpt><trkpt lat="49.7780525" lon="1.4868391"><ele>105.0</ele><time>2026-04-02T14:06:38.554Z</time></trkpt><trkpt lat="49.777954" lon="1.4866973"><ele>105.75</ele><time>2026-04-02T14:06:39.553Z</time></trkpt><trkpt lat="49.7778675" lon="1.4865274"><ele>106.5</ele><time>2026-04-02T14:06:40.553Z</time></trkpt><trkpt lat="49.7777865" lon="1.4863503"><ele>107.25</ele><time>2026-04-02T14:06:41.553Z</time></trkpt><trkpt lat="49.7777138" lon="1.4861655"><ele>108.0</ele><time>2026-04-02T14:06:42.553Z</time></trkpt><trkpt lat="49.7776425" lon="1.4859834"><ele>108.5</ele><time>2026-04-02T14:06:43.553Z</time></trkpt><trkpt lat="49.7775672" lon="1.4857965"><ele>109.0</ele><time>2026-04-02T14:06:44.554Z</time></trkpt><trkpt lat="49.7774974" lon="1.4856135"><ele>109.5</ele><time>2026-04-02T14:06:45.553Z</time></trkpt><trkpt lat="49.7774263" lon="1.4854538"><ele>110.0</ele><time>2026-04-02T14:06:46.553Z</time></trkpt><trkpt lat="49.777355" lon="1.4853241"><ele>110.2</ele><time>2026-04-02T14:06:47.553Z</time></trkpt><trkpt lat="49.7772775" lon="1.4852181"><ele>110.4</ele><time>2026-04-02T14:06:48.554Z</time></trkpt><trkpt lat="49.7771805" lon="1.4851452"><ele>110.6</ele><time>2026-04-02T14:06:49.552Z</time></trkpt><trkpt lat="49.7770761" lon="1.4850937"><ele>110.8</ele><time>2026-04-02T14:06:50.553Z</time></trkpt><trkpt lat="49.7769598" lon="1.4850502"><ele>111.0</ele><time>2026-04-02T14:06:51.553Z</time></trkpt><trkpt lat="49.7768332" lon="1.4850077"><ele>111.5</ele><time>2026-04-02T14:06:52.553Z</time></trkpt><trkpt lat="49.7767062" lon="1.4849564"><ele>112.0</ele><time>2026-04-02T14:06:53.554Z</time></trkpt><trkpt lat="49.7765835" lon="1.4848889"><ele>112.5</ele><time>2026-04-02T14:06:54.554Z</time></trkpt><trkpt lat="49.7764602" lon="1.4848139"><ele>113.0</ele><time>2026-04-02T14:06:55.554Z</time></trkpt><trkpt lat="49.776338" lon="1.4847281"><ele>113.0</ele><time>2026-04-02T14:06:56.553Z</time></trkpt><trkpt lat="49.7762182" lon="1.484637"><ele>113.0</ele><time>2026-04-02T14:06:57.554Z</time></trkpt><trkpt lat="49.7761059" lon="1.4845471"><ele>113.0</ele><time>2026-04-02T14:06:58.554Z</time></trkpt><trkpt lat="49.7759932" lon="1.4844572"><ele>113.0</ele><time>2026-04-02T14:06:59.554Z</time></trkpt><trkpt lat="49.7758754" lon="1.4843555"><ele>113.25</ele><time>2026-04-02T14:07:00.554Z</time></trkpt><trkpt lat="49.7757512" lon="1.4842509"><ele>113.5</ele><time>2026-04-02T14:07:01.553Z</time></trkpt><trkpt lat="49.7756291" lon="1.4841419"><ele>113.75</ele><time>2026-04-02T14:07:02.553Z</time></trkpt><trkpt lat="49.7755077" lon="1.484029"><ele>114.0</ele><time>2026-04-02T14:07:03.554Z</time></trkpt><trkpt lat="49.7753904" lon="1.4839138"><ele>114.0</ele><time>2026-04-02T14:07:04.553Z</time></trkpt><trkpt lat="49.7752743" lon="1.4837899"><ele>114.0</ele><time>2026-04-02T14:07:05.553Z</time></trkpt><trkpt lat="49.77516" lon="1.4836675"><ele>114.0</ele><time>2026-04-02T14:07:06.553Z</time></trkpt><trkpt lat="49.7750464" lon="1.483544"><ele>114.0</ele><time>2026-04-02T14:07:07.552Z</time></trkpt><trkpt lat="49.7749297" lon="1.4834227"><ele>115.5</ele><time>2026-04-02T14:07:08.552Z</time></trkpt><trkpt lat="49.7748171" lon="1.4833032"><ele>117.0</ele><time>2026-04-02T14:07:09.553Z</time></trkpt><trkpt lat="49.7747128" lon="1.4831822"><ele>118.5</ele><time>2026-04-02T14:07:10.553Z</time></trkpt><trkpt lat="49.7746086" lon="1.4830636"><ele>120.0</ele><time>2026-04-02T14:07:11.553Z</time></trkpt><trkpt lat="49.7745052" lon="1.482946"><ele>120.5</ele><time>2026-04-02T14:07:12.553Z</time></trkpt><trkpt lat="49.7743979" lon="1.482825"><ele>121.0</ele><time>2026-04-02T14:07:13.553Z</time></trkpt><trkpt lat="49.7742923" lon="1.4827061"><ele>121.5</ele><time>2026-04-02T14:07:14.553Z</time></trkpt><trkpt lat="49.7741833" lon="1.4825911"><ele>122.0</ele><time>2026-04-02T14:07:15.553Z</time></trkpt><trkpt lat="49.7740743" lon="1.482464"><ele>122.0</ele><time>2026-04-02T14:07:16.553Z</time></trkpt><trkpt lat="49.7739688" lon="1.4823313"><ele>122.0</ele><time>2026-04-02T14:07:17.554Z</time></trkpt><trkpt lat="49.773869" lon="1.4821859"><ele>122.0</ele><time>2026-04-02T14:07:18.553Z</time></trkpt><trkpt lat="49.7737728" lon="1.4820337"><ele>122.0</ele><time>2026-04-02T14:07:19.553Z</time></trkpt><trkpt lat="49.7736722" lon="1.4818769"><ele>122.0</ele><time>2026-04-02T14:07:20.553Z</time></trkpt><trkpt lat="49.7735738" lon="1.4817196"><ele>122.0</ele><time>2026-04-02T14:07:21.554Z</time></trkpt><trkpt lat="49.7734784" lon="1.4815682"><ele>122.0</ele><time>2026-04-02T14:07:22.553Z</time></trkpt><trkpt lat="49.7733782" lon="1.4814329"><ele>122.0</ele><time>2026-04-02T14:07:23.553Z</time></trkpt><trkpt lat="49.7732748" lon="1.4813074"><ele>123.25</ele><time>2026-04-02T14:07:24.553Z</time></trkpt><trkpt lat="49.7731696" lon="1.4811889"><ele>124.5</ele><time>2026-04-02T14:07:25.552Z</time></trkpt><trkpt lat="49.7730643" lon="1.4810743"><ele>125.75</ele><time>2026-04-02T14:07:26.554Z</time></trkpt><trkpt lat="49.7729575" lon="1.4809703"><ele>127.0</ele><time>2026-04-02T14:07:27.552Z</time></trkpt><trkpt lat="49.7728608" lon="1.4808793"><ele>127.00000000000001</ele><time>2026-04-02T14:07:28.554Z</time></trkpt><trkpt lat="49.7727762" lon="1.4808077"><ele>127.0</ele><time>2026-04-02T14:07:29.554Z</time></trkpt><trkpt lat="49.7726994" lon="1.4807522"><ele>127.0</ele><time>2026-04-02T14:07:30.553Z</time></trkpt><trkpt lat="49.7726272" lon="1.4807245"><ele>127.0</ele><time>2026-04-02T14:07:31.552Z</time></trkpt><trkpt lat="49.77256" lon="1.4807221"><ele>127.00000000000001</ele><time>2026-04-02T14:07:32.553Z</time></trkpt><trkpt lat="49.7724966" lon="1.4807425"><ele>127.0</ele><time>2026-04-02T14:07:33.553Z</time></trkpt><trkpt lat="49.7723998" lon="1.4808078"><ele>127.19999999999999</ele><time>2026-04-02T14:07:35.554Z</time></trkpt><trkpt lat="49.7722988" lon="1.4807928"><ele>127.39999999999999</ele><time>2026-04-02T14:07:37.553Z</time></trkpt><trkpt lat="49.7722328" lon="1.4807273"><ele>127.60000000000001</ele><time>2026-04-02T14:07:38.554Z</time></trkpt><trkpt lat="49.7721538" lon="1.4806382"><ele>127.80000000000001</ele><time>2026-04-02T14:07:39.553Z</time></trkpt><trkpt lat="49.7720724" lon="1.4805203"><ele>128.0</ele><time>2026-04-02T14:07:40.554Z</time></trkpt><trkpt lat="49.7719823" lon="1.4803886"><ele>128.0</ele><time>2026-04-02T14:07:41.553Z</time></trkpt><trkpt lat="49.7718978" lon="1.4802561"><ele>128.0</ele><time>2026-04-02T14:07:42.553Z</time></trkpt><trkpt lat="49.7718212" lon="1.4801137"><ele>128.0</ele><time>2026-04-02T14:07:43.553Z</time></trkpt><trkpt lat="49.7717543" lon="1.4799438"><ele>128.0</ele><time>2026-04-02T14:07:44.554Z</time></trkpt><trkpt lat="49.7716807" lon="1.479766"><ele>128.0</ele><time>2026-04-02T14:07:45.554Z</time></trkpt><trkpt lat="49.7715955" lon="1.4795888"><ele>128.0</ele><time>2026-04-02T14:07:46.552Z</time></trkpt><trkpt lat="49.7714925" lon="1.4794261"><ele>128.0</ele><time>2026-04-02T14:07:47.553Z</time></trkpt><trkpt lat="49.7713882" lon="1.4792746"><ele>128.0</ele><time>2026-04-02T14:07:48.553Z</time></trkpt><trkpt lat="49.7712892" lon="1.4791216"><ele>128.0</ele><time>2026-04-02T14:07:49.554Z</time></trkpt><trkpt lat="49.7711907" lon="1.4789823"><ele>128.0</ele><time>2026-04-02T14:07:50.554Z</time></trkpt><trkpt lat="49.7711029" lon="1.4788453"><ele>128.0</ele><time>2026-04-02T14:07:51.553Z</time></trkpt><trkpt lat="49.7710253" lon="1.4787157"><ele>128.0</ele><time>2026-04-02T14:07:52.553Z</time></trkpt><trkpt lat="49.7709396" lon="1.4785907"><ele>128.25</ele><time>2026-04-02T14:07:53.553Z</time></trkpt><trkpt lat="49.7708567" lon="1.4784666"><ele>128.5</ele><time>2026-04-02T14:07:54.553Z</time></trkpt><trkpt lat="49.7707702" lon="1.4783356"><ele>128.75</ele><time>2026-04-02T14:07:55.552Z</time></trkpt><trkpt lat="49.7706806" lon="1.4781989"><ele>129.0</ele><time>2026-04-02T14:07:56.553Z</time></trkpt><trkpt lat="49.7705849" lon="1.4780699"><ele>129.0</ele><time>2026-04-02T14:07:57.554Z</time></trkpt><trkpt lat="49.7704888" lon="1.4779506"><ele>129.0</ele><time>2026-04-02T14:07:58.553Z</time></trkpt><trkpt lat="49.7703976" lon="1.4778368"><ele>129.0</ele><time>2026-04-02T14:07:59.552Z</time></trkpt><trkpt lat="49.7703132" lon="1.4777203"><ele>129.0</ele><time>2026-04-02T14:08:00.553Z</time></trkpt><trkpt lat="49.770228" lon="1.4776219"><ele>129.6</ele><time>2026-04-02T14:08:01.553Z</time></trkpt><trkpt lat="49.770144" lon="1.4775162"><ele>130.2</ele><time>2026-04-02T14:08:02.553Z</time></trkpt><trkpt lat="49.7700689" lon="1.4774122"><ele>130.79999999999998</ele><time>2026-04-02T14:08:03.552Z</time></trkpt><trkpt lat="49.7699898" lon="1.4772987"><ele>131.4</ele><time>2026-04-02T14:08:04.553Z</time></trkpt><trkpt lat="49.7699153" lon="1.4771948"><ele>132.0</ele><time>2026-04-02T14:08:05.553Z</time></trkpt><trkpt lat="49.7698492" lon="1.4770826"><ele>132.2</ele><time>2026-04-02T14:08:06.552Z</time></trkpt><trkpt lat="49.7697816" lon="1.4769852"><ele>132.39999999999998</ele><time>2026-04-02T14:08:07.553Z</time></trkpt><trkpt lat="49.7697082" lon="1.4768827"><ele>132.60000000000002</ele><time>2026-04-02T14:08:08.553Z</time></trkpt><trkpt lat="49.7696484" lon="1.4767866"><ele>132.8</ele><time>2026-04-02T14:08:09.553Z</time></trkpt><trkpt lat="49.7695714" lon="1.4766717"><ele>133.0</ele><time>2026-04-02T14:08:10.553Z</time></trkpt><trkpt lat="49.7694965" lon="1.4765486"><ele>133.0</ele><time>2026-04-02T14:08:11.553Z</time></trkpt><trkpt lat="49.7694234" lon="1.476438"><ele>133.0</ele><time>2026-04-02T14:08:12.553Z</time></trkpt><trkpt lat="49.7693544" lon="1.4763293"><ele>133.0</ele><time>2026-04-02T14:08:13.553Z</time></trkpt><trkpt lat="49.769283" lon="1.4762165"><ele>133.0</ele><time>2026-04-02T14:08:14.553Z</time></trkpt><trkpt lat="49.769223" lon="1.4760888"><ele>133.0</ele><time>2026-04-02T14:08:15.553Z</time></trkpt><trkpt lat="49.7691666" lon="1.4759677"><ele>133.83333333333334</ele><time>2026-04-02T14:08:16.553Z</time></trkpt><trkpt lat="49.7691171" lon="1.4758441"><ele>134.66666666666669</ele><time>2026-04-02T14:08:17.553Z</time></trkpt><trkpt lat="49.769076" lon="1.475732"><ele>135.5</ele><time>2026-04-02T14:08:18.553Z</time></trkpt><trkpt lat="49.7690356" lon="1.475641"><ele>136.33333333333334</ele><time>2026-04-02T14:08:19.553Z</time></trkpt><trkpt lat="49.7689809" lon="1.4755641"><ele>137.16666666666666</ele><time>2026-04-02T14:08:20.553Z</time></trkpt><trkpt lat="49.7689066" lon="1.4755204"><ele>138.0</ele><time>2026-04-02T14:08:21.554Z</time></trkpt><trkpt lat="49.7688218" lon="1.475518"><ele>138.0</ele><time>2026-04-02T14:08:22.553Z</time></trkpt><trkpt lat="49.768734" lon="1.4755076"><ele>138.0</ele><time>2026-04-02T14:08:23.553Z</time></trkpt><trkpt lat="49.7686221" lon="1.4755282"><ele>138.0</ele><time>2026-04-02T14:08:24.553Z</time></trkpt><trkpt lat="49.7685106" lon="1.4755497"><ele>138.0</ele><time>2026-04-02T14:08:25.553Z</time></trkpt><trkpt lat="49.7683946" lon="1.4755948"><ele>138.0</ele><time>2026-04-02T14:08:26.553Z</time></trkpt><trkpt lat="49.7682805" lon="1.4756816"><ele>139.0</ele><time>2026-04-02T14:08:27.553Z</time></trkpt><trkpt lat="49.7681675" lon="1.475779"><ele>140.0</ele><time>2026-04-02T14:08:28.554Z</time></trkpt><trkpt lat="49.7680558" lon="1.4758977"><ele>141.0</ele><time>2026-04-02T14:08:29.553Z</time></trkpt><trkpt lat="49.7679462" lon="1.4760185"><ele>142.0</ele><time>2026-04-02T14:08:30.553Z</time></trkpt><trkpt lat="49.7678312" lon="1.4761434"><ele>142.0</ele><time>2026-04-02T14:08:31.553Z</time></trkpt><trkpt lat="49.7677166" lon="1.4762848"><ele>142.0</ele><time>2026-04-02T14:08:32.554Z</time></trkpt><trkpt lat="49.7675965" lon="1.4764303"><ele>142.0</ele><time>2026-04-02T14:08:33.553Z</time></trkpt><trkpt lat="49.7674779" lon="1.4765882"><ele>143.0</ele><time>2026-04-02T14:08:34.553Z</time></trkpt><trkpt lat="49.7673565" lon="1.4767569"><ele>144.0</ele><time>2026-04-02T14:08:35.553Z</time></trkpt><trkpt lat="49.7672317" lon="1.4769258"><ele>145.0</ele><time>2026-04-02T14:08:36.554Z</time></trkpt><trkpt lat="49.7671075" lon="1.4770927"><ele>144.66666666666669</ele><time>2026-04-02T14:08:37.552Z</time></trkpt><trkpt lat="49.7669776" lon="1.4772719"><ele>144.33333333333334</ele><time>2026-04-02T14:08:38.554Z</time></trkpt><trkpt lat="49.7668483" lon="1.4774468"><ele>144.0</ele><time>2026-04-02T14:08:39.554Z</time></trkpt><trkpt lat="49.7667185" lon="1.4776216"><ele>144.0</ele><time>2026-04-02T14:08:40.553Z</time></trkpt><trkpt lat="49.7665861" lon="1.4778122"><ele>144.0</ele><time>2026-04-02T14:08:41.554Z</time></trkpt><trkpt lat="49.7664523" lon="1.477999"><ele>144.0</ele><time>2026-04-02T14:08:42.554Z</time></trkpt><trkpt lat="49.7663185" lon="1.4781842"><ele>143.0</ele><time>2026-04-02T14:08:43.553Z</time></trkpt><trkpt lat="49.7661849" lon="1.4783709"><ele>142.0</ele><time>2026-04-02T14:08:44.554Z</time></trkpt><trkpt lat="49.7660638" lon="1.4785506"><ele>141.0</ele><time>2026-04-02T14:08:45.553Z</time></trkpt><trkpt lat="49.7659449" lon="1.4787321"><ele>140.0</ele><time>2026-04-02T14:08:46.553Z</time></trkpt><trkpt lat="49.7658374" lon="1.4789085"><ele>139.0</ele><time>2026-04-02T14:08:47.553Z</time></trkpt><trkpt lat="49.7657328" lon="1.4790852"><ele>138.0</ele><time>2026-04-02T14:08:48.553Z</time></trkpt><trkpt lat="49.7656374" lon="1.4792616"><ele>138.0</ele><time>2026-04-02T14:08:49.554Z</time></trkpt><trkpt lat="49.7655488" lon="1.4794281"><ele>138.0</ele><time>2026-04-02T14:08:50.554Z</time></trkpt><trkpt lat="49.7654666" lon="1.4795928"><ele>138.0</ele><time>2026-04-02T14:08:51.553Z</time></trkpt><trkpt lat="49.7653889" lon="1.479748"><ele>138.0</ele><time>2026-04-02T14:08:52.554Z</time></trkpt><trkpt lat="49.7653116" lon="1.4798903"><ele>137.83333333333334</ele><time>2026-04-02T14:08:53.554Z</time></trkpt><trkpt lat="49.7652378" lon="1.4800207"><ele>137.66666666666666</ele><time>2026-04-02T14:08:54.553Z</time></trkpt><trkpt lat="49.7651762" lon="1.4801213"><ele>137.5</ele><time>2026-04-02T14:08:55.553Z</time></trkpt><trkpt lat="49.7651291" lon="1.4801935"><ele>137.33333333333331</ele><time>2026-04-02T14:08:56.554Z</time></trkpt><trkpt lat="49.7650648" lon="1.480281"><ele>137.16666666666666</ele><time>2026-04-02T14:08:58.554Z</time></trkpt><trkpt lat="49.764988" lon="1.4802716"><ele>137.0</ele><time>2026-04-02T14:09:01.553Z</time></trkpt><trkpt lat="49.7649346" lon="1.4802037"><ele>137.0</ele><time>2026-04-02T14:09:02.554Z</time></trkpt><trkpt lat="49.764873" lon="1.480132"><ele>137.0</ele><time>2026-04-02T14:09:03.554Z</time></trkpt><trkpt lat="49.7647889" lon="1.4799977"><ele>137.0</ele><time>2026-04-02T14:09:04.554Z</time></trkpt><trkpt lat="49.7647123" lon="1.4798737"><ele>137.0</ele><time>2026-04-02T14:09:05.554Z</time></trkpt><trkpt lat="49.7646013" lon="1.479743"><ele>137.0</ele><time>2026-04-02T14:09:06.554Z</time></trkpt><trkpt lat="49.7645062" lon="1.479586"><ele>137.33333333333331</ele><time>2026-04-02T14:09:07.553Z</time></trkpt><trkpt lat="49.7644076" lon="1.4794221"><ele>137.66666666666666</ele><time>2026-04-02T14:09:08.554Z</time></trkpt><trkpt lat="49.7642987" lon="1.4792506"><ele>138.0</ele><time>2026-04-02T14:09:09.554Z</time></trkpt><trkpt lat="49.7641863" lon="1.4790776"><ele>138.0</ele><time>2026-04-02T14:09:10.554Z</time></trkpt><trkpt lat="49.7640751" lon="1.4789044"><ele>138.0</ele><time>2026-04-02T14:09:11.554Z</time></trkpt><trkpt lat="49.7639701" lon="1.4787342"><ele>138.0</ele><time>2026-04-02T14:09:12.555Z</time></trkpt><trkpt lat="49.7638733" lon="1.4785675"><ele>138.5</ele><time>2026-04-02T14:09:13.554Z</time></trkpt><trkpt lat="49.7637852" lon="1.4783975"><ele>139.0</ele><time>2026-04-02T14:09:14.554Z</time></trkpt><trkpt lat="49.7637001" lon="1.4782288"><ele>139.5</ele><time>2026-04-02T14:09:15.554Z</time></trkpt><trkpt lat="49.7636146" lon="1.478057"><ele>140.0</ele><time>2026-04-02T14:09:16.555Z</time></trkpt><trkpt lat="49.7635131" lon="1.4778948"><ele>140.66666666666666</ele><time>2026-04-02T14:09:17.554Z</time></trkpt><trkpt lat="49.76339" lon="1.4777719"><ele>141.33333333333334</ele><time>2026-04-02T14:09:18.555Z</time></trkpt><trkpt lat="49.7632523" lon="1.4776647"><ele>142.0</ele><time>2026-04-02T14:09:19.554Z</time></trkpt><trkpt lat="49.7631079" lon="1.4775571"><ele>142.0</ele><time>2026-04-02T14:09:20.555Z</time></trkpt><trkpt lat="49.7629592" lon="1.4774535"><ele>142.0</ele><time>2026-04-02T14:09:21.554Z</time></trkpt><trkpt lat="49.7628067" lon="1.477344"><ele>142.0</ele><time>2026-04-02T14:09:22.555Z</time></trkpt><trkpt lat="49.7626536" lon="1.4772234"><ele>142.0</ele><time>2026-04-02T14:09:23.554Z</time></trkpt><trkpt lat="49.7624931" lon="1.4771155"><ele>142.0</ele><time>2026-04-02T14:09:24.554Z</time></trkpt><trkpt lat="49.7623304" lon="1.4770059"><ele>142.0</ele><time>2026-04-02T14:09:25.554Z</time></trkpt><trkpt lat="49.7621758" lon="1.4768935"><ele>142.0</ele><time>2026-04-02T14:09:26.554Z</time></trkpt><trkpt lat="49.7620208" lon="1.4767906"><ele>142.0</ele><time>2026-04-02T14:09:27.554Z</time></trkpt><trkpt lat="49.761877" lon="1.4766932"><ele>142.0</ele><time>2026-04-02T14:09:28.554Z</time></trkpt><trkpt lat="49.7617465" lon="1.4766066"><ele>142.0</ele><time>2026-04-02T14:09:29.554Z</time></trkpt><trkpt lat="49.7616317" lon="1.4765203"><ele>142.0</ele><time>2026-04-02T14:09:30.554Z</time></trkpt><trkpt lat="49.7615295" lon="1.4764349"><ele>142.0</ele><time>2026-04-02T14:09:31.555Z</time></trkpt><trkpt lat="49.7614347" lon="1.4763542"><ele>142.0</ele><time>2026-04-02T14:09:32.555Z</time></trkpt><trkpt lat="49.7613279" lon="1.4762648"><ele>142.5</ele><time>2026-04-02T14:09:33.553Z</time></trkpt><trkpt lat="49.7612183" lon="1.4761659"><ele>143.0</ele><time>2026-04-02T14:09:34.555Z</time></trkpt><trkpt lat="49.7611012" lon="1.4760648"><ele>143.5</ele><time>2026-04-02T14:09:35.554Z</time></trkpt><trkpt lat="49.7609762" lon="1.4759628"><ele>144.0</ele><time>2026-04-02T14:09:36.554Z</time></trkpt><trkpt lat="49.7608442" lon="1.4758624"><ele>144.66666666666666</ele><time>2026-04-02T14:09:37.554Z</time></trkpt><trkpt lat="49.7607057" lon="1.4757703"><ele>145.33333333333331</ele><time>2026-04-02T14:09:38.554Z</time></trkpt><trkpt lat="49.7605607" lon="1.4756841"><ele>146.0</ele><time>2026-04-02T14:09:39.554Z</time></trkpt><trkpt lat="49.7604177" lon="1.475592"><ele>146.0</ele><time>2026-04-02T14:09:40.554Z</time></trkpt><trkpt lat="49.7602736" lon="1.475508"><ele>146.0</ele><time>2026-04-02T14:09:41.554Z</time></trkpt><trkpt lat="49.7601461" lon="1.4754185"><ele>146.0</ele><time>2026-04-02T14:09:42.553Z</time></trkpt><trkpt lat="49.7600326" lon="1.4753141"><ele>146.0</ele><time>2026-04-02T14:09:43.554Z</time></trkpt><trkpt lat="49.7599336" lon="1.4751746"><ele>146.75</ele><time>2026-04-02T14:09:44.554Z</time></trkpt><trkpt lat="49.7598451" lon="1.4750016"><ele>147.5</ele><time>2026-04-02T14:09:45.555Z</time></trkpt><trkpt lat="49.7597553" lon="1.4748191"><ele>148.25</ele><time>2026-04-02T14:09:46.555Z</time></trkpt><trkpt lat="49.7596559" lon="1.4746384"><ele>149.0</ele><time>2026-04-02T14:09:47.554Z</time></trkpt><trkpt lat="49.7595475" lon="1.4744708"><ele>150.0</ele><time>2026-04-02T14:09:48.554Z</time></trkpt><trkpt lat="49.7594277" lon="1.4743213"><ele>151.0</ele><time>2026-04-02T14:09:49.554Z</time></trkpt><trkpt lat="49.7592998" lon="1.4741832"><ele>152.0</ele><time>2026-04-02T14:09:50.555Z</time></trkpt><trkpt lat="49.7591684" lon="1.4740521"><ele>152.66666666666666</ele><time>2026-04-02T14:09:51.555Z</time></trkpt><trkpt lat="49.7590358" lon="1.473917"><ele>153.33333333333334</ele><time>2026-04-02T14:09:52.554Z</time></trkpt><trkpt lat="49.7588958" lon="1.4737943"><ele>154.0</ele><time>2026-04-02T14:09:53.554Z</time></trkpt><trkpt lat="49.7587471" lon="1.4736992"><ele>154.66666666666669</ele><time>2026-04-02T14:09:54.555Z</time></trkpt><trkpt lat="49.7585957" lon="1.4736144"><ele>155.33333333333334</ele><time>2026-04-02T14:09:55.554Z</time></trkpt><trkpt lat="49.7584476" lon="1.4735519"><ele>156.0</ele><time>2026-04-02T14:09:56.555Z</time></trkpt><trkpt lat="49.7583113" lon="1.4734926"><ele>156.75</ele><time>2026-04-02T14:09:57.555Z</time></trkpt><trkpt lat="49.7581961" lon="1.4734121"><ele>157.5</ele><time>2026-04-02T14:09:58.555Z</time></trkpt><trkpt lat="49.7580976" lon="1.473317"><ele>158.25</ele><time>2026-04-02T14:09:59.555Z</time></trkpt><trkpt lat="49.7580132" lon="1.4731896"><ele>159.0</ele><time>2026-04-02T14:10:00.555Z</time></trkpt><trkpt lat="49.7579497" lon="1.4730486"><ele>159.0</ele><time>2026-04-02T14:10:01.555Z</time></trkpt><trkpt lat="49.7578606" lon="1.4729475"><ele>159.0</ele><time>2026-04-02T14:10:02.554Z</time></trkpt><trkpt lat="49.7577618" lon="1.4728747"><ele>159.0</ele><time>2026-04-02T14:10:03.555Z</time></trkpt><trkpt lat="49.7576768" lon="1.472813"><ele>159.0</ele><time>2026-04-02T14:10:04.553Z</time></trkpt><trkpt lat="49.7575895" lon="1.4727223"><ele>159.0</ele><time>2026-04-02T14:10:05.555Z</time></trkpt><trkpt lat="49.7575068" lon="1.4726228"><ele>161.5</ele><time>2026-04-02T14:10:06.554Z</time></trkpt><trkpt lat="49.7574379" lon="1.4725306"><ele>164.0</ele><time>2026-04-02T14:10:07.554Z</time></trkpt><trkpt lat="49.7573717" lon="1.4724622"><ele>166.5</ele><time>2026-04-02T14:10:08.554Z</time></trkpt><trkpt lat="49.757312" lon="1.472409"><ele>169.0</ele><time>2026-04-02T14:10:09.554Z</time></trkpt><trkpt lat="49.7572411" lon="1.4723889"><ele>171.5</ele><time>2026-04-02T14:10:10.554Z</time></trkpt><trkpt lat="49.7571558" lon="1.4723805"><ele>174.0</ele><time>2026-04-02T14:10:11.555Z</time></trkpt><trkpt lat="49.75706" lon="1.4723887"><ele>174.0</ele><time>2026-04-02T14:10:12.555Z</time></trkpt><trkpt lat="49.7569618" lon="1.4723889"><ele>174.0</ele><time>2026-04-02T14:10:13.554Z</time></trkpt><trkpt lat="49.7568578" lon="1.4723833"><ele>174.0</ele><time>2026-04-02T14:10:14.554Z</time></trkpt><trkpt lat="49.7567465" lon="1.4723533"><ele>174.0</ele><time>2026-04-02T14:10:15.554Z</time></trkpt><trkpt lat="49.7566321" lon="1.4722878"><ele>174.0</ele><time>2026-04-02T14:10:16.554Z</time></trkpt><trkpt lat="49.7565157" lon="1.4722259"><ele>175.5</ele><time>2026-04-02T14:10:17.554Z</time></trkpt><trkpt lat="49.7563953" lon="1.4721612"><ele>177.0</ele><time>2026-04-02T14:10:18.554Z</time></trkpt><trkpt lat="49.7562842" lon="1.4720972"><ele>178.5</ele><time>2026-04-02T14:10:19.554Z</time></trkpt><trkpt lat="49.7561766" lon="1.4720167"><ele>180.0</ele><time>2026-04-02T14:10:20.554Z</time></trkpt><trkpt lat="49.7560849" lon="1.4719201"><ele>182.2</ele><time>2026-04-02T14:10:21.555Z</time></trkpt><trkpt lat="49.7559985" lon="1.4718325"><ele>184.4</ele><time>2026-04-02T14:10:22.554Z</time></trkpt><trkpt lat="49.7558995" lon="1.4717547"><ele>186.60000000000002</ele><time>2026-04-02T14:10:23.555Z</time></trkpt><trkpt lat="49.7557925" lon="1.4717083"><ele>188.8</ele><time>2026-04-02T14:10:24.555Z</time></trkpt><trkpt lat="49.7556823" lon="1.4716714"><ele>191.0</ele><time>2026-04-02T14:10:25.554Z</time></trkpt><trkpt lat="49.7555675" lon="1.4716297"><ele>191.0</ele><time>2026-04-02T14:10:26.553Z</time></trkpt><trkpt lat="49.7554518" lon="1.4715869"><ele>191.0</ele><time>2026-04-02T14:10:27.555Z</time></trkpt><trkpt lat="49.7553316" lon="1.4715311"><ele>191.0</ele><time>2026-04-02T14:10:28.554Z</time></trkpt><trkpt lat="49.7552097" lon="1.4714536"><ele>191.0</ele><time>2026-04-02T14:10:29.554Z</time></trkpt><trkpt lat="49.7550966" lon="1.4713927"><ele>194.75</ele><time>2026-04-02T14:10:30.555Z</time></trkpt><trkpt lat="49.7549644" lon="1.4713156"><ele>198.5</ele><time>2026-04-02T14:10:31.554Z</time></trkpt><trkpt lat="49.7548523" lon="1.4712335"><ele>202.25</ele><time>2026-04-02T14:10:32.554Z</time></trkpt><trkpt lat="49.7547264" lon="1.471169"><ele>206.0</ele><time>2026-04-02T14:10:33.555Z</time></trkpt><trkpt lat="49.7545973" lon="1.471115"><ele>206.5</ele><time>2026-04-02T14:10:34.554Z</time></trkpt><trkpt lat="49.7544653" lon="1.4710651"><ele>207.0</ele><time>2026-04-02T14:10:35.554Z</time></trkpt><trkpt lat="49.7543388" lon="1.4710171"><ele>207.5</ele><time>2026-04-02T14:10:36.555Z</time></trkpt><trkpt lat="49.7542045" lon="1.4709511"><ele>208.0</ele><time>2026-04-02T14:10:37.554Z</time></trkpt><trkpt lat="49.7540793" lon="1.4708967"><ele>210.75</ele><time>2026-04-02T14:10:38.554Z</time></trkpt><trkpt lat="49.7539379" lon="1.4708459"><ele>213.5</ele><time>2026-04-02T14:10:39.554Z</time></trkpt><trkpt lat="49.7538103" lon="1.4707752"><ele>216.25</ele><time>2026-04-02T14:10:40.555Z</time></trkpt><trkpt lat="49.7536968" lon="1.4707111"><ele>219.0</ele><time>2026-04-02T14:10:41.554Z</time></trkpt><trkpt lat="49.7535838" lon="1.4706462"><ele>221.0</ele><time>2026-04-02T14:10:42.554Z</time></trkpt><trkpt lat="49.7534758" lon="1.4705794"><ele>223.0</ele><time>2026-04-02T14:10:43.554Z</time></trkpt><trkpt lat="49.7533308" lon="1.4705632"><ele>225.0</ele><time>2026-04-02T14:10:44.555Z</time></trkpt><trkpt lat="49.7531937" lon="1.4705202"><ele>227.0</ele><time>2026-04-02T14:10:45.555Z</time></trkpt><trkpt lat="49.753068" lon="1.4704526"><ele>226.5</ele><time>2026-04-02T14:10:46.555Z</time></trkpt><trkpt lat="49.7529364" lon="1.4704012"><ele>226.0</ele><time>2026-04-02T14:10:47.554Z</time></trkpt><trkpt lat="49.7528044" lon="1.4703411"><ele>225.5</ele><time>2026-04-02T14:10:48.555Z</time></trkpt><trkpt lat="49.7526937" lon="1.4702986"><ele>225.0</ele><time>2026-04-02T14:10:49.554Z</time></trkpt><trkpt lat="49.7525762" lon="1.4702258"><ele>224.25</ele><time>2026-04-02T14:10:50.555Z</time></trkpt><trkpt lat="49.7524562" lon="1.4701338"><ele>223.5</ele><time>2026-04-02T14:10:51.554Z</time></trkpt><trkpt lat="49.7523395" lon="1.4700141"><ele>222.75</ele><time>2026-04-02T14:10:52.555Z</time></trkpt><trkpt lat="49.7522218" lon="1.4698814"><ele>222.0</ele><time>2026-04-02T14:10:53.554Z</time></trkpt><trkpt lat="49.7520964" lon="1.469742"><ele>222.0</ele><time>2026-04-02T14:10:54.554Z</time></trkpt><trkpt lat="49.7519672" lon="1.4695973"><ele>222.0</ele><time>2026-04-02T14:10:55.554Z</time></trkpt><trkpt lat="49.751838" lon="1.4694479"><ele>222.0</ele><time>2026-04-02T14:10:56.555Z</time></trkpt><trkpt lat="49.751705" lon="1.4692913"><ele>222.0</ele><time>2026-04-02T14:10:57.554Z</time></trkpt><trkpt lat="49.7515644" lon="1.469132"><ele>222.0</ele><time>2026-04-02T14:10:58.554Z</time></trkpt><trkpt lat="49.7514198" lon="1.468972"><ele>222.0</ele><time>2026-04-02T14:10:59.554Z</time></trkpt><trkpt lat="49.7512715" lon="1.4688086"><ele>222.0</ele><time>2026-04-02T14:11:00.554Z</time></trkpt><trkpt lat="49.7511304" lon="1.4686497"><ele>222.0</ele><time>2026-04-02T14:11:01.554Z</time></trkpt><trkpt lat="49.7509873" lon="1.4684969"><ele>222.0</ele><time>2026-04-02T14:11:02.554Z</time></trkpt><trkpt lat="49.7508416" lon="1.4683401"><ele>222.0</ele><time>2026-04-02T14:11:03.554Z</time></trkpt><trkpt lat="49.7506953" lon="1.4681795"><ele>222.0</ele><time>2026-04-02T14:11:04.555Z</time></trkpt><trkpt lat="49.750547" lon="1.4680179"><ele>222.0</ele><time>2026-04-02T14:11:05.555Z</time></trkpt><trkpt lat="49.7504024" lon="1.4678569"><ele>221.66666666666669</ele><time>2026-04-02T14:11:06.555Z</time></trkpt><trkpt lat="49.7502555" lon="1.4676905"><ele>221.33333333333334</ele><time>2026-04-02T14:11:07.553Z</time></trkpt><trkpt lat="49.750108" lon="1.4675285"><ele>221.0</ele><time>2026-04-02T14:11:08.555Z</time></trkpt><trkpt lat="49.7499619" lon="1.4673765"><ele>221.0</ele><time>2026-04-02T14:11:09.555Z</time></trkpt><trkpt lat="49.7498177" lon="1.4672255"><ele>221.0</ele><time>2026-04-02T14:11:10.554Z</time></trkpt><trkpt lat="49.7496766" lon="1.4670748"><ele>221.0</ele><time>2026-04-02T14:11:11.554Z</time></trkpt><trkpt lat="49.7495308" lon="1.4669212"><ele>221.0</ele><time>2026-04-02T14:11:12.554Z</time></trkpt><trkpt lat="49.7493888" lon="1.4667719"><ele>221.0</ele><time>2026-04-02T14:11:13.554Z</time></trkpt><trkpt lat="49.7492536" lon="1.4666354"><ele>221.0</ele><time>2026-04-02T14:11:14.553Z</time></trkpt><trkpt lat="49.7491249" lon="1.4665135"><ele>221.0</ele><time>2026-04-02T14:11:15.554Z</time></trkpt><trkpt lat="49.749002" lon="1.4664168"><ele>221.00000000000003</ele><time>2026-04-02T14:11:16.555Z</time></trkpt><trkpt lat="49.7488848" lon="1.4663555"><ele>221.00000000000003</ele><time>2026-04-02T14:11:17.555Z</time></trkpt><trkpt lat="49.7487889" lon="1.4663119"><ele>221.0</ele><time>2026-04-02T14:11:18.554Z</time></trkpt><trkpt lat="49.7487204" lon="1.4662863"><ele>221.0</ele><time>2026-04-02T14:11:19.555Z</time></trkpt><trkpt lat="49.748656" lon="1.4662692"><ele>221.60000000000002</ele><time>2026-04-02T14:11:20.554Z</time></trkpt><trkpt lat="49.74858" lon="1.4662623"><ele>222.20000000000002</ele><time>2026-04-02T14:11:21.554Z</time></trkpt><trkpt lat="49.7484868" lon="1.4662852"><ele>222.79999999999998</ele><time>2026-04-02T14:11:22.555Z</time></trkpt><trkpt lat="49.7483771" lon="1.4663149"><ele>223.39999999999998</ele><time>2026-04-02T14:11:23.554Z</time></trkpt><trkpt lat="49.7482576" lon="1.4663572"><ele>224.0</ele><time>2026-04-02T14:11:24.554Z</time></trkpt><trkpt lat="49.7481288" lon="1.4664064"><ele>224.0</ele><time>2026-04-02T14:11:25.555Z</time></trkpt><trkpt lat="49.7479908" lon="1.4664697"><ele>224.0</ele><time>2026-04-02T14:11:26.554Z</time></trkpt><trkpt lat="49.7478473" lon="1.4665374"><ele>224.0</ele><time>2026-04-02T14:11:27.554Z</time></trkpt><trkpt lat="49.7477008" lon="1.4666203"><ele>223.75</ele><time>2026-04-02T14:11:28.555Z</time></trkpt><trkpt lat="49.747565" lon="1.4667196"><ele>223.5</ele><time>2026-04-02T14:11:29.554Z</time></trkpt><trkpt lat="49.7474412" lon="1.4668183"><ele>223.25</ele><time>2026-04-02T14:11:30.555Z</time></trkpt><trkpt lat="49.7473297" lon="1.4669222"><ele>223.0</ele><time>2026-04-02T14:11:31.555Z</time></trkpt><trkpt lat="49.7472368" lon="1.4670191"><ele>222.99999999999997</ele><time>2026-04-02T14:11:32.554Z</time></trkpt><trkpt lat="49.7471667" lon="1.4671152"><ele>223.0</ele><time>2026-04-02T14:11:33.555Z</time></trkpt><trkpt lat="49.7471075" lon="1.4672037"><ele>223.0</ele><time>2026-04-02T14:11:34.555Z</time></trkpt><trkpt lat="49.747049" lon="1.467267"><ele>223.0</ele><time>2026-04-02T14:11:35.554Z</time></trkpt><trkpt lat="49.746974" lon="1.4672891"><ele>222.99999999999997</ele><time>2026-04-02T14:11:36.554Z</time></trkpt><trkpt lat="49.7468902" lon="1.4672586"><ele>223.0</ele><time>2026-04-02T14:11:37.553Z</time></trkpt><trkpt lat="49.7468102" lon="1.4671702"><ele>223.0</ele><time>2026-04-02T14:11:38.554Z</time></trkpt><trkpt lat="49.7467304" lon="1.4670516"><ele>223.0</ele><time>2026-04-02T14:11:39.553Z</time></trkpt><trkpt lat="49.7466434" lon="1.4669127"><ele>223.0</ele><time>2026-04-02T14:11:40.554Z</time></trkpt><trkpt lat="49.7465519" lon="1.4667549"><ele>223.0</ele><time>2026-04-02T14:11:41.554Z</time></trkpt><trkpt lat="49.7464558" lon="1.4665927"><ele>223.0</ele><time>2026-04-02T14:11:42.554Z</time></trkpt><trkpt lat="49.7463521" lon="1.4664221"><ele>223.0</ele><time>2026-04-02T14:11:43.554Z</time></trkpt><trkpt lat="49.7462461" lon="1.4662437"><ele>223.0</ele><time>2026-04-02T14:11:44.554Z</time></trkpt><trkpt lat="49.7461424" lon="1.4660725"><ele>222.75</ele><time>2026-04-02T14:11:45.554Z</time></trkpt><trkpt lat="49.7460411" lon="1.4659063"><ele>222.5</ele><time>2026-04-02T14:11:46.555Z</time></trkpt><trkpt lat="49.7459411" lon="1.4657487"><ele>222.25</ele><time>2026-04-02T14:11:47.555Z</time></trkpt><trkpt lat="49.745847" lon="1.4655983"><ele>222.0</ele><time>2026-04-02T14:11:48.554Z</time></trkpt><trkpt lat="49.7457563" lon="1.4654703"><ele>222.0</ele><time>2026-04-02T14:11:49.555Z</time></trkpt><trkpt lat="49.7456675" lon="1.4653565"><ele>222.0</ele><time>2026-04-02T14:11:50.554Z</time></trkpt><trkpt lat="49.7455588" lon="1.4652466"><ele>222.0</ele><time>2026-04-02T14:11:51.555Z</time></trkpt><trkpt lat="49.7454457" lon="1.4651404"><ele>222.0</ele><time>2026-04-02T14:11:52.554Z</time></trkpt><trkpt lat="49.7453318" lon="1.4650355"><ele>222.0</ele><time>2026-04-02T14:11:53.554Z</time></trkpt><trkpt lat="49.7452228" lon="1.4649276"><ele>222.0</ele><time>2026-04-02T14:11:54.554Z</time></trkpt><trkpt lat="49.7451126" lon="1.4648246"><ele>222.0</ele><time>2026-04-02T14:11:55.554Z</time></trkpt><trkpt lat="49.7450176" lon="1.4647164"><ele>222.0</ele><time>2026-04-02T14:11:56.555Z</time></trkpt><trkpt lat="49.7449193" lon="1.4646291"><ele>220.8</ele><time>2026-04-02T14:11:57.554Z</time></trkpt><trkpt lat="49.7448196" lon="1.4645302"><ele>219.6</ele><time>2026-04-02T14:11:58.554Z</time></trkpt><trkpt lat="49.7447301" lon="1.4644323"><ele>218.40000000000003</ele><time>2026-04-02T14:11:59.555Z</time></trkpt><trkpt lat="49.7446584" lon="1.4643457"><ele>217.20000000000002</ele><time>2026-04-02T14:12:00.553Z</time></trkpt><trkpt lat="49.7446002" lon="1.4642774"><ele>216.0</ele><time>2026-04-02T14:12:01.554Z</time></trkpt><trkpt lat="49.7445347" lon="1.4641691"><ele>216.0</ele><time>2026-04-02T14:12:03.554Z</time></trkpt><trkpt lat="49.7444923" lon="1.4640328"><ele>216.0</ele><time>2026-04-02T14:12:06.555Z</time></trkpt><trkpt lat="49.7444489" lon="1.4638602"><ele>216.0</ele><time>2026-04-02T14:12:08.554Z</time></trkpt><trkpt lat="49.7444166" lon="1.463775"><ele>216.0</ele><time>2026-04-02T14:12:09.553Z</time></trkpt><trkpt lat="49.7443833" lon="1.4636831"><ele>216.0</ele><time>2026-04-02T14:12:10.555Z</time></trkpt><trkpt lat="49.7443433" lon="1.4635739"><ele>216.0</ele><time>2026-04-02T14:12:11.554Z</time></trkpt><trkpt lat="49.7443043" lon="1.4634394"><ele>212.25</ele><time>2026-04-02T14:12:12.555Z</time></trkpt><trkpt lat="49.7442699" lon="1.4633106"><ele>208.5</ele><time>2026-04-02T14:12:13.555Z</time></trkpt><trkpt lat="49.7442418" lon="1.4631069"><ele>204.75</ele><time>2026-04-02T14:12:14.555Z</time></trkpt><trkpt lat="49.7442067" lon="1.4629392"><ele>201.0</ele><time>2026-04-02T14:12:15.555Z</time></trkpt><trkpt lat="49.7441749" lon="1.4627659"><ele>201.0</ele><time>2026-04-02T14:12:16.555Z</time></trkpt><trkpt lat="49.7441499" lon="1.4626163"><ele>201.0</ele><time>2026-04-02T14:12:17.554Z</time></trkpt><trkpt lat="49.7441131" lon="1.4624788"><ele>201.0</ele><time>2026-04-02T14:12:18.554Z</time></trkpt><trkpt lat="49.7440704" lon="1.4623214"><ele>201.0</ele><time>2026-04-02T14:12:19.554Z</time></trkpt><trkpt lat="49.7440285" lon="1.4621764"><ele>201.0</ele><time>2026-04-02T14:12:20.555Z</time></trkpt><trkpt lat="49.744006" lon="1.4620567"><ele>201.60000000000002</ele><time>2026-04-02T14:12:21.555Z</time></trkpt><trkpt lat="49.7439519" lon="1.461912"><ele>202.2</ele><time>2026-04-02T14:12:22.555Z</time></trkpt><trkpt lat="49.7438863" lon="1.4617778"><ele>202.8</ele><time>2026-04-02T14:12:23.554Z</time></trkpt><trkpt lat="49.7438196" lon="1.4616422"><ele>203.39999999999998</ele><time>2026-04-02T14:12:24.554Z</time></trkpt><trkpt lat="49.7437422" lon="1.4615273"><ele>204.0</ele><time>2026-04-02T14:12:25.554Z</time></trkpt><trkpt lat="49.7436669" lon="1.4613955"><ele>206.25</ele><time>2026-04-02T14:12:26.554Z</time></trkpt><trkpt lat="49.7435878" lon="1.4612584"><ele>208.5</ele><time>2026-04-02T14:12:27.554Z</time></trkpt><trkpt lat="49.7434964" lon="1.4611061"><ele>210.75</ele><time>2026-04-02T14:12:28.554Z</time></trkpt><trkpt lat="49.743426" lon="1.4609705"><ele>213.0</ele><time>2026-04-02T14:12:29.555Z</time></trkpt><trkpt lat="49.7433267" lon="1.4608528"><ele>209.5</ele><time>2026-04-02T14:12:30.553Z</time></trkpt><trkpt lat="49.7432385" lon="1.4607257"><ele>206.0</ele><time>2026-04-02T14:12:31.554Z</time></trkpt><trkpt lat="49.7431377" lon="1.4606196"><ele>202.5</ele><time>2026-04-02T14:12:32.553Z</time></trkpt><trkpt lat="49.743039" lon="1.4604944"><ele>199.0</ele><time>2026-04-02T14:12:33.554Z</time></trkpt><trkpt lat="49.7429311" lon="1.4603846"><ele>199.0</ele><time>2026-04-02T14:12:34.555Z</time></trkpt><trkpt lat="49.74283" lon="1.4602776"><ele>199.0</ele><time>2026-04-02T14:12:35.554Z</time></trkpt><trkpt lat="49.7427203" lon="1.4601716"><ele>199.0</ele><time>2026-04-02T14:12:36.553Z</time></trkpt><trkpt lat="49.7426167" lon="1.4600766"><ele>199.0</ele><time>2026-04-02T14:12:37.555Z</time></trkpt><trkpt lat="49.7425132" lon="1.4599806"><ele>194.6</ele><time>2026-04-02T14:12:38.554Z</time></trkpt><trkpt lat="49.7424017" lon="1.4598982"><ele>190.2</ele><time>2026-04-02T14:12:39.555Z</time></trkpt><trkpt lat="49.7423358" lon="1.4598282"><ele>185.79999999999998</ele><time>2026-04-02T14:12:40.554Z</time></trkpt><trkpt lat="49.7422613" lon="1.4597889"><ele>181.39999999999998</ele><time>2026-04-02T14:12:41.553Z</time></trkpt><trkpt lat="49.7421592" lon="1.4597784"><ele>177.0</ele><time>2026-04-02T14:12:42.553Z</time></trkpt><trkpt lat="49.742052" lon="1.4597506"><ele>177.0</ele><time>2026-04-02T14:12:43.554Z</time></trkpt><trkpt lat="49.7419281" lon="1.459736"><ele>177.0</ele><time>2026-04-02T14:12:44.554Z</time></trkpt><trkpt lat="49.7418139" lon="1.4597319"><ele>177.0</ele><time>2026-04-02T14:12:45.554Z</time></trkpt><trkpt lat="49.7417052" lon="1.4597336"><ele>177.0</ele><time>2026-04-02T14:12:46.554Z</time></trkpt><trkpt lat="49.7416059" lon="1.4597441"><ele>177.0</ele><time>2026-04-02T14:12:47.554Z</time></trkpt><trkpt lat="49.7415101" lon="1.459757"><ele>175.8</ele><time>2026-04-02T14:12:48.555Z</time></trkpt><trkpt lat="49.7414227" lon="1.4597656"><ele>174.6</ele><time>2026-04-02T14:12:49.554Z</time></trkpt><trkpt lat="49.7413295" lon="1.4597644"><ele>173.4</ele><time>2026-04-02T14:12:50.555Z</time></trkpt><trkpt lat="49.74124" lon="1.4597532"><ele>172.20000000000002</ele><time>2026-04-02T14:12:51.554Z</time></trkpt><trkpt lat="49.7411414" lon="1.4597234"><ele>171.0</ele><time>2026-04-02T14:12:52.554Z</time></trkpt><trkpt lat="49.7410286" lon="1.4596848"><ele>169.8</ele><time>2026-04-02T14:12:53.553Z</time></trkpt><trkpt lat="49.7409129" lon="1.4596539"><ele>168.60000000000002</ele><time>2026-04-02T14:12:54.554Z</time></trkpt><trkpt lat="49.7407985" lon="1.4596163"><ele>167.4</ele><time>2026-04-02T14:12:55.553Z</time></trkpt><trkpt lat="49.7406947" lon="1.4595892"><ele>166.2</ele><time>2026-04-02T14:12:56.554Z</time></trkpt><trkpt lat="49.7405957" lon="1.4595472"><ele>165.0</ele><time>2026-04-02T14:12:57.555Z</time></trkpt><trkpt lat="49.7405062" lon="1.4595245"><ele>165.0</ele><time>2026-04-02T14:12:58.555Z</time></trkpt><trkpt lat="49.7404363" lon="1.4594869"><ele>165.0</ele><time>2026-04-02T14:12:59.554Z</time></trkpt><trkpt lat="49.7403477" lon="1.4594485"><ele>165.0</ele><time>2026-04-02T14:13:00.553Z</time></trkpt><trkpt lat="49.740249" lon="1.4593889"><ele>165.0</ele><time>2026-04-02T14:13:01.555Z</time></trkpt><trkpt lat="49.7401598" lon="1.4593173"><ele>165.0</ele><time>2026-04-02T14:13:02.555Z</time></trkpt><trkpt lat="49.7400559" lon="1.45922"><ele>163.25</ele><time>2026-04-02T14:13:03.554Z</time></trkpt><trkpt lat="49.7399514" lon="1.4591018"><ele>161.5</ele><time>2026-04-02T14:13:04.554Z</time></trkpt><trkpt lat="49.7398505" lon="1.4589697"><ele>159.75</ele><time>2026-04-02T14:13:05.554Z</time></trkpt><trkpt lat="49.7397335" lon="1.4588348"><ele>158.0</ele><time>2026-04-02T14:13:06.553Z</time></trkpt><trkpt lat="49.7396224" lon="1.4587012"><ele>157.5</ele><time>2026-04-02T14:13:07.554Z</time></trkpt><trkpt lat="49.7395077" lon="1.4585771"><ele>157.0</ele><time>2026-04-02T14:13:08.554Z</time></trkpt><trkpt lat="49.7393972" lon="1.4584612"><ele>156.5</ele><time>2026-04-02T14:13:09.554Z</time></trkpt><trkpt lat="49.7392963" lon="1.4583483"><ele>156.0</ele><time>2026-04-02T14:13:10.554Z</time></trkpt><trkpt lat="49.7392013" lon="1.4582507"><ele>155.0</ele><time>2026-04-02T14:13:11.555Z</time></trkpt><trkpt lat="49.7391046" lon="1.4581466"><ele>154.0</ele><time>2026-04-02T14:13:12.554Z</time></trkpt><trkpt lat="49.7390205" lon="1.4580193"><ele>153.0</ele><time>2026-04-02T14:13:13.554Z</time></trkpt><trkpt lat="49.7389359" lon="1.4578792"><ele>152.0</ele><time>2026-04-02T14:13:14.554Z</time></trkpt><trkpt lat="49.7388501" lon="1.4577303"><ele>152.25</ele><time>2026-04-02T14:13:15.554Z</time></trkpt><trkpt lat="49.7387594" lon="1.4575779"><ele>152.5</ele><time>2026-04-02T14:13:16.553Z</time></trkpt><trkpt lat="49.738669" lon="1.4574218"><ele>152.75</ele><time>2026-04-02T14:13:17.554Z</time></trkpt><trkpt lat="49.7385822" lon="1.4572564"><ele>153.0</ele><time>2026-04-02T14:13:18.554Z</time></trkpt><trkpt lat="49.7384899" lon="1.4571154"><ele>153.0</ele><time>2026-04-02T14:13:19.554Z</time></trkpt><trkpt lat="49.7384045" lon="1.4569631"><ele>153.0</ele><time>2026-04-02T14:13:20.554Z</time></trkpt><trkpt lat="49.7383237" lon="1.4568114"><ele>153.0</ele><time>2026-04-02T14:13:21.554Z</time></trkpt><trkpt lat="49.7382568" lon="1.4566703"><ele>153.0</ele><time>2026-04-02T14:13:22.554Z</time></trkpt><trkpt lat="49.7381886" lon="1.4565303"><ele>153.0</ele><time>2026-04-02T14:13:23.555Z</time></trkpt><trkpt lat="49.7381302" lon="1.4563996"><ele>153.0</ele><time>2026-04-02T14:13:24.554Z</time></trkpt><trkpt lat="49.7380764" lon="1.4563066"><ele>153.0</ele><time>2026-04-02T14:13:25.554Z</time></trkpt><trkpt lat="49.7380259" lon="1.4562421"><ele>153.0</ele><time>2026-04-02T14:13:28.554Z</time></trkpt><trkpt lat="49.7379629" lon="1.4560889"><ele>153.0</ele><time>2026-04-02T14:13:31.554Z</time></trkpt><trkpt lat="49.7379294" lon="1.455974"><ele>153.0</ele><time>2026-04-02T14:13:32.554Z</time></trkpt><trkpt lat="49.737885" lon="1.4558266"><ele>153.75</ele><time>2026-04-02T14:13:33.554Z</time></trkpt><trkpt lat="49.7378368" lon="1.4556677"><ele>154.5</ele><time>2026-04-02T14:13:34.555Z</time></trkpt><trkpt lat="49.737785" lon="1.4554936"><ele>155.25</ele><time>2026-04-02T14:13:35.555Z</time></trkpt><trkpt lat="49.7377347" lon="1.4553158"><ele>156.0</ele><time>2026-04-02T14:13:36.555Z</time></trkpt><trkpt lat="49.7376804" lon="1.4551414"><ele>156.0</ele><time>2026-04-02T14:13:37.554Z</time></trkpt><trkpt lat="49.7376262" lon="1.4549656"><ele>156.0</ele><time>2026-04-02T14:13:38.555Z</time></trkpt><trkpt lat="49.7375708" lon="1.4547922"><ele>156.0</ele><time>2026-04-02T14:13:39.554Z</time></trkpt><trkpt lat="49.7375169" lon="1.4546197"><ele>156.0</ele><time>2026-04-02T14:13:40.555Z</time></trkpt><trkpt lat="49.7374582" lon="1.4544412"><ele>155.0</ele><time>2026-04-02T14:13:41.553Z</time></trkpt><trkpt lat="49.7373982" lon="1.454255"><ele>154.0</ele><time>2026-04-02T14:13:42.553Z</time></trkpt><trkpt lat="49.737345" lon="1.4540754"><ele>153.0</ele><time>2026-04-02T14:13:43.555Z</time></trkpt><trkpt lat="49.7372888" lon="1.4539012"><ele>152.0</ele><time>2026-04-02T14:13:44.554Z</time></trkpt><trkpt lat="49.737226" lon="1.4537293"><ele>151.25</ele><time>2026-04-02T14:13:45.554Z</time></trkpt><trkpt lat="49.737158" lon="1.4535631"><ele>150.5</ele><time>2026-04-02T14:13:46.553Z</time></trkpt><trkpt lat="49.737087" lon="1.4534137"><ele>149.75</ele><time>2026-04-02T14:13:47.555Z</time></trkpt><trkpt lat="49.7370201" lon="1.4532663"><ele>149.0</ele><time>2026-04-02T14:13:48.554Z</time></trkpt><trkpt lat="49.7369578" lon="1.4531191"><ele>149.0</ele><time>2026-04-02T14:13:49.554Z</time></trkpt><trkpt lat="49.7368966" lon="1.4529797"><ele>149.0</ele><time>2026-04-02T14:13:50.554Z</time></trkpt><trkpt lat="49.7368314" lon="1.4528405"><ele>149.0</ele><time>2026-04-02T14:13:51.554Z</time></trkpt><trkpt lat="49.7367638" lon="1.4526984"><ele>149.0</ele><time>2026-04-02T14:13:52.554Z</time></trkpt><trkpt lat="49.7366954" lon="1.4525591"><ele>149.0</ele><time>2026-04-02T14:13:53.554Z</time></trkpt><trkpt lat="49.736631" lon="1.4524162"><ele>145.6</ele><time>2026-04-02T14:13:54.555Z</time></trkpt><trkpt lat="49.7365642" lon="1.4522711"><ele>142.2</ele><time>2026-04-02T14:13:55.554Z</time></trkpt><trkpt lat="49.7364997" lon="1.4521331"><ele>138.79999999999998</ele><time>2026-04-02T14:13:56.554Z</time></trkpt><trkpt lat="49.736446" lon="1.4520136"><ele>135.4</ele><time>2026-04-02T14:13:57.554Z</time></trkpt><trkpt lat="49.7363962" lon="1.4519143"><ele>132.0</ele><time>2026-04-02T14:13:58.554Z</time></trkpt><trkpt lat="49.7363595" lon="1.4518249"><ele>131.33333333333334</ele><time>2026-04-02T14:13:59.553Z</time></trkpt><trkpt lat="49.7363322" lon="1.4517105"><ele>130.66666666666666</ele><time>2026-04-02T14:14:01.553Z</time></trkpt><trkpt lat="49.7362657" lon="1.4516537"><ele>130.0</ele><time>2026-04-02T14:18:51.556Z</time></trkpt><trkpt lat="49.7362131" lon="1.4515479"><ele>129.33333333333331</ele><time>2026-04-02T14:18:54.556Z</time></trkpt><trkpt lat="49.7361817" lon="1.4514523"><ele>128.66666666666666</ele><time>2026-04-02T14:19:00.556Z</time></trkpt><trkpt lat="49.7361575" lon="1.4513241"><ele>128.0</ele><time>2026-04-02T14:19:36.055Z</time></trkpt><trkpt lat="49.7361337" lon="1.451229"><ele>127.0</ele><time>2026-04-02T14:19:37.055Z</time></trkpt><trkpt lat="49.7361081" lon="1.4511127"><ele>126.00000000000001</ele><time>2026-04-02T14:19:38.055Z</time></trkpt><trkpt lat="49.736083" lon="1.4509824"><ele>125.00000000000001</ele><time>2026-04-02T14:19:39.056Z</time></trkpt><trkpt lat="49.7360639" lon="1.4508399"><ele>124.0</ele><time>2026-04-02T14:19:40.056Z</time></trkpt><trkpt lat="49.7360484" lon="1.4506888"><ele>123.0</ele><time>2026-04-02T14:19:41.055Z</time></trkpt><trkpt lat="49.7360336" lon="1.4505299"><ele>121.0</ele><time>2026-04-02T14:19:42.055Z</time></trkpt><trkpt lat="49.7360172" lon="1.4503662"><ele>119.00000000000001</ele><time>2026-04-02T14:19:43.055Z</time></trkpt><trkpt lat="49.7360008" lon="1.4501982"><ele>117.00000000000001</ele><time>2026-04-02T14:19:44.054Z</time></trkpt><trkpt lat="49.7359843" lon="1.4500344"><ele>115.0</ele><time>2026-04-02T14:19:45.055Z</time></trkpt><trkpt lat="49.7359705" lon="1.4498715"><ele>113.0</ele><time>2026-04-02T14:19:46.055Z</time></trkpt><trkpt lat="49.7359551" lon="1.449712"><ele>112.2</ele><time>2026-04-02T14:19:47.055Z</time></trkpt><trkpt lat="49.7359394" lon="1.4495567"><ele>111.4</ele><time>2026-04-02T14:19:48.055Z</time></trkpt><trkpt lat="49.7359245" lon="1.4494023"><ele>110.60000000000001</ele><time>2026-04-02T14:19:49.056Z</time></trkpt><trkpt lat="49.7359108" lon="1.4492431"><ele>109.80000000000001</ele><time>2026-04-02T14:19:50.055Z</time></trkpt><trkpt lat="49.7358962" lon="1.4490809"><ele>109.0</ele><time>2026-04-02T14:19:51.055Z</time></trkpt><trkpt lat="49.7358805" lon="1.4489183"><ele>108.4</ele><time>2026-04-02T14:19:52.056Z</time></trkpt><trkpt lat="49.7358664" lon="1.4487576"><ele>107.80000000000001</ele><time>2026-04-02T14:19:53.055Z</time></trkpt><trkpt lat="49.7358509" lon="1.4485998"><ele>107.19999999999999</ele><time>2026-04-02T14:19:54.054Z</time></trkpt><trkpt lat="49.7358358" lon="1.4484447"><ele>106.6</ele><time>2026-04-02T14:19:55.055Z</time></trkpt><trkpt lat="49.7358221" lon="1.4482935"><ele>106.0</ele><time>2026-04-02T14:19:56.055Z</time></trkpt><trkpt lat="49.73581" lon="1.4481526"><ele>106.00000000000001</ele><time>2026-04-02T14:19:57.054Z</time></trkpt><trkpt lat="49.7357962" lon="1.4480229"><ele>106.0</ele><time>2026-04-02T14:19:58.055Z</time></trkpt><trkpt lat="49.7357837" lon="1.4479054"><ele>106.0</ele><time>2026-04-02T14:19:59.054Z</time></trkpt><trkpt lat="49.7357707" lon="1.4477941"><ele>106.0</ele><time>2026-04-02T14:20:00.055Z</time></trkpt><trkpt lat="49.7357562" lon="1.4476763"><ele>106.00000000000001</ele><time>2026-04-02T14:20:01.055Z</time></trkpt><trkpt lat="49.7357374" lon="1.4475528"><ele>106.0</ele><time>2026-04-02T14:20:02.055Z</time></trkpt><trkpt lat="49.7357163" lon="1.4474135"><ele>105.75</ele><time>2026-04-02T14:20:03.055Z</time></trkpt><trkpt lat="49.7356889" lon="1.4472503"><ele>105.5</ele><time>2026-04-02T14:20:04.055Z</time></trkpt><trkpt lat="49.7356565" lon="1.4470741"><ele>105.25</ele><time>2026-04-02T14:20:05.054Z</time></trkpt><trkpt lat="49.7356174" lon="1.4468996"><ele>105.0</ele><time>2026-04-02T14:20:06.056Z</time></trkpt><trkpt lat="49.7355699" lon="1.4467325"><ele>105.0</ele><time>2026-04-02T14:20:07.055Z</time></trkpt><trkpt lat="49.7355162" lon="1.4465708"><ele>105.0</ele><time>2026-04-02T14:20:08.056Z</time></trkpt><trkpt lat="49.7354591" lon="1.4464118"><ele>105.0</ele><time>2026-04-02T14:20:09.055Z</time></trkpt><trkpt lat="49.7353951" lon="1.4462608"><ele>105.0</ele><time>2026-04-02T14:20:10.055Z</time></trkpt><trkpt lat="49.7353255" lon="1.4461164"><ele>105.0</ele><time>2026-04-02T14:20:11.055Z</time></trkpt><trkpt lat="49.7352478" lon="1.4459841"><ele>105.0</ele><time>2026-04-02T14:20:12.055Z</time></trkpt><trkpt lat="49.7351628" lon="1.4458647"><ele>105.0</ele><time>2026-04-02T14:20:13.055Z</time></trkpt><trkpt lat="49.7350733" lon="1.445753"><ele>105.0</ele><time>2026-04-02T14:20:14.056Z</time></trkpt><trkpt lat="49.7349834" lon="1.445648"><ele>105.4</ele><time>2026-04-02T14:20:15.056Z</time></trkpt><trkpt lat="49.7348926" lon="1.4455419"><ele>105.8</ele><time>2026-04-02T14:20:16.057Z</time></trkpt><trkpt lat="49.7348026" lon="1.4454364"><ele>106.19999999999999</ele><time>2026-04-02T14:20:17.056Z</time></trkpt><trkpt lat="49.7347282" lon="1.4453428"><ele>106.6</ele><time>2026-04-02T14:20:18.056Z</time></trkpt><trkpt lat="49.7346634" lon="1.4452589"><ele>107.0</ele><time>2026-04-02T14:20:19.056Z</time></trkpt><trkpt lat="49.7346096" lon="1.4451856"><ele>106.99999999999999</ele><time>2026-04-02T14:20:20.056Z</time></trkpt><trkpt lat="49.7345508" lon="1.4450528"><ele>107.0</ele><time>2026-04-02T14:20:22.056Z</time></trkpt><trkpt lat="49.734561" lon="1.4449548"><ele>107.0</ele><time>2026-04-02T14:20:25.056Z</time></trkpt><trkpt lat="49.7346058" lon="1.4448732"><ele>107.0</ele><time>2026-04-02T14:20:27.057Z</time></trkpt><trkpt lat="49.7346912" lon="1.4447951"><ele>106.99999999999999</ele><time>2026-04-02T14:20:29.056Z</time></trkpt><trkpt lat="49.734749" lon="1.4447542"><ele>107.0</ele><time>2026-04-02T14:20:30.056Z</time></trkpt><trkpt lat="49.7348066" lon="1.4447108"><ele>106.99999999999999</ele><time>2026-04-02T14:20:31.055Z</time></trkpt><trkpt lat="49.7349108" lon="1.4446327"><ele>107.0</ele><time>2026-04-02T14:20:33.057Z</time></trkpt><trkpt lat="49.7349822" lon="1.4445718"><ele>107.0</ele><time>2026-04-02T14:20:35.057Z</time></trkpt><trkpt lat="49.734996" lon="1.4444635"><ele>107.0</ele><time>2026-04-02T14:20:37.057Z</time></trkpt><trkpt lat="49.7349108" lon="1.4444293"><ele>106.99999999999999</ele><time>2026-04-02T14:20:40.056Z</time></trkpt><trkpt lat="49.7348323" lon="1.4444546"><ele>107.0</ele><time>2026-04-02T14:20:43.056Z</time></trkpt><trkpt lat="49.7347653" lon="1.4444735"><ele>106.99999999999999</ele><time>2026-04-02T14:25:14.556Z</time></trkpt><trkpt lat="49.734707" lon="1.4445204"><ele>107.0</ele><time>2026-04-02T14:25:18.556Z</time></trkpt><trkpt lat="49.7346973" lon="1.444632"><ele>107.0</ele><time>2026-04-02T14:29:15.558Z</time></trkpt><trkpt lat="49.7346545" lon="1.4447593"><ele>107.0</ele><time>2026-04-02T14:29:18.558Z</time></trkpt><trkpt lat="49.7345814" lon="1.4448314"><ele>106.99999999999999</ele><time>2026-04-02T14:29:20.557Z</time></trkpt><trkpt lat="49.7344789" lon="1.4448641"><ele>107.0</ele><time>2026-04-02T14:29:22.558Z</time></trkpt><trkpt lat="49.7343672" lon="1.444818"><ele>106.85714285714286</ele><time>2026-04-02T14:29:24.558Z</time></trkpt><trkpt lat="49.7343082" lon="1.4447686"><ele>106.71428571428572</ele><time>2026-04-02T14:29:25.557Z</time></trkpt><trkpt lat="49.7342495" lon="1.4447026"><ele>106.57142857142858</ele><time>2026-04-02T14:29:26.557Z</time></trkpt><trkpt lat="49.7341919" lon="1.444625"><ele>106.42857142857143</ele><time>2026-04-02T14:29:27.557Z</time></trkpt><trkpt lat="49.7341404" lon="1.4445401"><ele>106.28571428571428</ele><time>2026-04-02T14:29:28.557Z</time></trkpt><trkpt lat="49.7340867" lon="1.4444607"><ele>106.14285714285715</ele><time>2026-04-02T14:29:29.557Z</time></trkpt><trkpt lat="49.7340352" lon="1.4443779"><ele>106.0</ele><time>2026-04-02T14:29:30.556Z</time></trkpt><trkpt lat="49.7339828" lon="1.4442968"><ele>106.0</ele><time>2026-04-02T14:29:31.557Z</time></trkpt><trkpt lat="49.7339288" lon="1.444216"><ele>106.0</ele><time>2026-04-02T14:29:32.558Z</time></trkpt><trkpt lat="49.7338739" lon="1.4441356"><ele>106.0</ele><time>2026-04-02T14:29:33.557Z</time></trkpt><trkpt lat="49.7338185" lon="1.444067"><ele>106.0</ele><time>2026-04-02T14:29:34.558Z</time></trkpt><trkpt lat="49.7337654" lon="1.4440016"><ele>106.0</ele><time>2026-04-02T14:29:35.558Z</time></trkpt><trkpt lat="49.7337134" lon="1.4439372"><ele>106.0</ele><time>2026-04-02T14:29:36.557Z</time></trkpt><trkpt lat="49.7336626" lon="1.4438699"><ele>106.0</ele><time>2026-04-02T14:29:37.557Z</time></trkpt><trkpt lat="49.7336094" lon="1.4438084"><ele>106.28571428571429</ele><time>2026-04-02T14:29:38.556Z</time></trkpt><trkpt lat="49.73356" lon="1.4437449"><ele>106.57142857142857</ele><time>2026-04-02T14:29:39.557Z</time></trkpt><trkpt lat="49.7335072" lon="1.4436834"><ele>106.85714285714286</ele><time>2026-04-02T14:29:40.557Z</time></trkpt><trkpt lat="49.7334525" lon="1.4436197"><ele>107.14285714285714</ele><time>2026-04-02T14:29:41.557Z</time></trkpt><trkpt lat="49.7334012" lon="1.4435616"><ele>107.42857142857142</ele><time>2026-04-02T14:29:42.557Z</time></trkpt><trkpt lat="49.7333513" lon="1.4435005"><ele>107.71428571428571</ele><time>2026-04-02T14:29:43.557Z</time></trkpt><trkpt lat="49.7333013" lon="1.4434391"><ele>108.0</ele><time>2026-04-02T14:29:44.557Z</time></trkpt><trkpt lat="49.7332033" lon="1.4433303"><ele>106.80000000000001</ele><time>2026-04-02T14:29:46.557Z</time></trkpt><trkpt lat="49.73313" lon="1.443249"><ele>105.60000000000001</ele><time>2026-04-02T14:29:48.558Z</time></trkpt><trkpt lat="49.7330779" lon="1.4431823"><ele>104.4</ele><time>2026-04-02T14:29:50.557Z</time></trkpt><trkpt lat="49.7329999" lon="1.4430828"><ele>103.19999999999999</ele><time>2026-04-02T14:29:53.557Z</time></trkpt><trkpt lat="49.7329109" lon="1.4429914"><ele>102.0</ele><time>2026-04-02T14:29:55.558Z</time></trkpt><trkpt lat="49.732803" lon="1.4428828"><ele>101.85714285714286</ele><time>2026-04-02T14:29:57.557Z</time></trkpt><trkpt lat="49.7327482" lon="1.4428249"><ele>101.71428571428572</ele><time>2026-04-02T14:29:58.557Z</time></trkpt><trkpt lat="49.7326937" lon="1.4427631"><ele>101.57142857142857</ele><time>2026-04-02T14:29:59.558Z</time></trkpt><trkpt lat="49.7326362" lon="1.4426936"><ele>101.42857142857143</ele><time>2026-04-02T14:30:00.558Z</time></trkpt><trkpt lat="49.7325813" lon="1.4426397"><ele>101.28571428571428</ele><time>2026-04-02T14:30:01.557Z</time></trkpt><trkpt lat="49.7325244" lon="1.4425785"><ele>101.14285714285714</ele><time>2026-04-02T14:30:02.558Z</time></trkpt><trkpt lat="49.732473" lon="1.4425194"><ele>101.0</ele><time>2026-04-02T14:30:03.558Z</time></trkpt><trkpt lat="49.7323737" lon="1.4423978"><ele>100.14285714285714</ele><time>2026-04-02T14:30:05.557Z</time></trkpt><trkpt lat="49.7323247" lon="1.442331"><ele>99.28571428571428</ele><time>2026-04-02T14:30:06.557Z</time></trkpt><trkpt lat="49.7322775" lon="1.4422651"><ele>98.42857142857143</ele><time>2026-04-02T14:30:07.557Z</time></trkpt><trkpt lat="49.732227" lon="1.4421954"><ele>97.57142857142857</ele><time>2026-04-02T14:30:08.558Z</time></trkpt><trkpt lat="49.7321794" lon="1.4421293"><ele>96.71428571428572</ele><time>2026-04-02T14:30:09.557Z</time></trkpt><trkpt lat="49.7321325" lon="1.4420601"><ele>95.85714285714286</ele><time>2026-04-02T14:30:10.557Z</time></trkpt><trkpt lat="49.7320845" lon="1.441993"><ele>95.0</ele><time>2026-04-02T14:30:11.558Z</time></trkpt><trkpt lat="49.7319962" lon="1.4418589"><ele>95.0</ele><time>2026-04-02T14:30:13.557Z</time></trkpt><trkpt lat="49.7319472" lon="1.441795"><ele>95.0</ele><time>2026-04-02T14:30:14.558Z</time></trkpt><trkpt lat="49.7318662" lon="1.4416708"><ele>95.0</ele><time>2026-04-02T14:30:16.558Z</time></trkpt><trkpt lat="49.7318059" lon="1.4415888"><ele>95.0</ele><time>2026-04-02T14:30:18.558Z</time></trkpt><trkpt lat="49.7317407" lon="1.441566"><ele>95.0</ele><time>2026-04-02T14:30:20.558Z</time></trkpt><trkpt lat="49.7316762" lon="1.441601"><ele>95.0</ele><time>2026-04-02T14:30:23.557Z</time></trkpt><trkpt lat="49.7316526" lon="1.4417257"><ele>91.0</ele><time>2026-04-02T14:30:28.558Z</time></trkpt><trkpt lat="49.7316342" lon="1.4418467"><ele>91.0</ele><time>2026-04-02T14:30:31.557Z</time></trkpt><trkpt lat="49.7315799" lon="1.4419214"><ele>91.0</ele><time>2026-04-02T14:32:00.557Z</time></trkpt><trkpt lat="49.7315167" lon="1.441937"><ele>91.0</ele><time>2026-04-02T14:32:07.558Z</time></trkpt></trkseg></trk></gpx>